<?xml version='1.0' encoding='UTF-8'?><gpx version="1.1" creator="JPX - https://github.com/jenetics/jpx" xmlns="http://www.topografix.com/GPX/1/1"><trk><trkseg><trkpt lat="45.6678188" lon="11.7196844"><ele>62.00000000000001</ele><time>2026-04-11T11:10:07.968Z</time></trkpt><trkpt lat="45.6679057" lon="11.7196466"><ele>62.0</ele><time>2026-04-11T11:10:12.973Z</time></trkpt><trkpt lat="45.6678697" lon="11.7197509"><ele>62.0</ele><time>2026-04-11T11:10:15.971Z</time></trkpt><trkpt lat="45.667807" lon="11.7197235"><ele>62.0</ele><time>2026-04-11T11:10:50.97Z</time></trkpt><trkpt lat="45.6677824" lon="11.719611"><ele>62.00000000000001</ele><time>2026-04-11T11:11:18.975Z</time></trkpt><trkpt lat="45.6676649" lon="11.7196317"><ele>62.0</ele><time>2026-04-11T11:11:21.969Z</time></trkpt><trkpt lat="45.6675826" lon="11.7197234"><ele>61.6</ele><time>2026-04-11T11:11:23.972Z</time></trkpt><trkpt lat="45.667544" lon="11.7198404"><ele>61.2</ele><time>2026-04-11T11:11:25.978Z</time></trkpt><trkpt lat="45.667477" lon="11.719876"><ele>60.8</ele><time>2026-04-11T11:11:28.979Z</time></trkpt><trkpt lat="45.6674091" lon="11.7197864"><ele>60.4</ele><time>2026-04-11T11:11:38.982Z</time></trkpt><trkpt lat="45.667377" lon="11.7196164"><ele>60.0</ele><time>2026-04-11T11:11:40.978Z</time></trkpt><trkpt lat="45.6673583" lon="11.7195024"><ele>60.4</ele><time>2026-04-11T11:11:41.975Z</time></trkpt><trkpt lat="45.6673361" lon="11.7193746"><ele>60.8</ele><time>2026-04-11T11:11:42.975Z</time></trkpt><trkpt lat="45.6673124" lon="11.7192383"><ele>61.2</ele><time>2026-04-11T11:11:43.982Z</time></trkpt><trkpt lat="45.66729" lon="11.7191008"><ele>61.6</ele><time>2026-04-11T11:11:44.972Z</time></trkpt><trkpt lat="45.6672683" lon="11.7189659"><ele>62.0</ele><time>2026-04-11T11:11:45.972Z</time></trkpt><trkpt lat="45.6672484" lon="11.7188487"><ele>62.0</ele><time>2026-04-11T11:11:46.974Z</time></trkpt><trkpt lat="45.6672255" lon="11.7187546"><ele>62.0</ele><time>2026-04-11T11:11:47.98Z</time></trkpt><trkpt lat="45.667142" lon="11.7186119"><ele>62.0</ele><time>2026-04-11T11:11:49.97Z</time></trkpt><trkpt lat="45.6670584" lon="11.7186081"><ele>62.0</ele><time>2026-04-11T11:11:50.975Z</time></trkpt><trkpt lat="45.666964" lon="11.7186365"><ele>62.0</ele><time>2026-04-11T11:11:51.977Z</time></trkpt><trkpt lat="45.6668559" lon="11.7186778"><ele>61.5</ele><time>2026-04-11T11:11:52.976Z</time></trkpt><trkpt lat="45.6667391" lon="11.7187237"><ele>61.0</ele><time>2026-04-11T11:11:53.972Z</time></trkpt><trkpt lat="45.6666173" lon="11.7187716"><ele>60.5</ele><time>2026-04-11T11:11:54.976Z</time></trkpt><trkpt lat="45.6664917" lon="11.7188188"><ele>60.0</ele><time>2026-04-11T11:11:55.973Z</time></trkpt><trkpt lat="45.6663615" lon="11.7188683"><ele>60.0</ele><time>2026-04-11T11:11:56.972Z</time></trkpt><trkpt lat="45.6662305" lon="11.7189148"><ele>60.0</ele><time>2026-04-11T11:11:57.976Z</time></trkpt><trkpt lat="45.666097" lon="11.7189628"><ele>60.0</ele><time>2026-04-11T11:11:58.974Z</time></trkpt><trkpt lat="45.6659615" lon="11.7190104"><ele>60.0</ele><time>2026-04-11T11:11:59.977Z</time></trkpt><trkpt lat="45.6658317" lon="11.7190588"><ele>59.8</ele><time>2026-04-11T11:12:00.976Z</time></trkpt><trkpt lat="45.6657127" lon="11.7191041"><ele>59.6</ele><time>2026-04-11T11:12:01.978Z</time></trkpt><trkpt lat="45.6656073" lon="11.7191433"><ele>59.400000000000006</ele><time>2026-04-11T11:12:02.973Z</time></trkpt><trkpt lat="45.6655177" lon="11.7191745"><ele>59.2</ele><time>2026-04-11T11:12:03.972Z</time></trkpt><trkpt lat="45.6654359" lon="11.7191803"><ele>59.0</ele><time>2026-04-11T11:12:04.974Z</time></trkpt><trkpt lat="45.6653579" lon="11.719145"><ele>59.0</ele><time>2026-04-11T11:12:05.972Z</time></trkpt><trkpt lat="45.665295" lon="11.7190679"><ele>59.00000000000001</ele><time>2026-04-11T11:12:06.975Z</time></trkpt><trkpt lat="45.6652555" lon="11.7189559"><ele>59.00000000000001</ele><time>2026-04-11T11:12:07.97Z</time></trkpt><trkpt lat="45.6652402" lon="11.7188176"><ele>59.0</ele><time>2026-04-11T11:12:08.972Z</time></trkpt><trkpt lat="45.6652351" lon="11.71866"><ele>59.0</ele><time>2026-04-11T11:12:09.971Z</time></trkpt><trkpt lat="45.6652164" lon="11.7184914"><ele>59.25</ele><time>2026-04-11T11:12:10.969Z</time></trkpt><trkpt lat="45.665181" lon="11.7183129"><ele>59.5</ele><time>2026-04-11T11:12:11.97Z</time></trkpt><trkpt lat="45.6651354" lon="11.7181235"><ele>59.75</ele><time>2026-04-11T11:12:12.968Z</time></trkpt><trkpt lat="45.6650832" lon="11.7179263"><ele>60.0</ele><time>2026-04-11T11:12:13.97Z</time></trkpt><trkpt lat="45.6650291" lon="11.7177208"><ele>60.66666666666667</ele><time>2026-04-11T11:12:14.979Z</time></trkpt><trkpt lat="45.6649752" lon="11.7175082"><ele>61.333333333333336</ele><time>2026-04-11T11:12:15.969Z</time></trkpt><trkpt lat="45.6649195" lon="11.7172893"><ele>62.0</ele><time>2026-04-11T11:12:16.972Z</time></trkpt><trkpt lat="45.6648623" lon="11.7170646"><ele>61.66666666666667</ele><time>2026-04-11T11:12:17.975Z</time></trkpt><trkpt lat="45.6648025" lon="11.7168339"><ele>61.33333333333333</ele><time>2026-04-11T11:12:18.974Z</time></trkpt><trkpt lat="45.6647395" lon="11.716598"><ele>61.0</ele><time>2026-04-11T11:12:19.97Z</time></trkpt><trkpt lat="45.6646755" lon="11.716362"><ele>61.0</ele><time>2026-04-11T11:12:20.978Z</time></trkpt><trkpt lat="45.6646123" lon="11.7161254"><ele>61.0</ele><time>2026-04-11T11:12:21.973Z</time></trkpt><trkpt lat="45.664551" lon="11.7158878"><ele>61.0</ele><time>2026-04-11T11:12:22.971Z</time></trkpt><trkpt lat="45.6644896" lon="11.7156503"><ele>60.33333333333333</ele><time>2026-04-11T11:12:23.975Z</time></trkpt><trkpt lat="45.6644279" lon="11.7154147"><ele>59.66666666666667</ele><time>2026-04-11T11:12:24.976Z</time></trkpt><trkpt lat="45.6643694" lon="11.7151878"><ele>59.0</ele><time>2026-04-11T11:12:25.971Z</time></trkpt><trkpt lat="45.6643204" lon="11.714975"><ele>58.66666666666667</ele><time>2026-04-11T11:12:26.973Z</time></trkpt><trkpt lat="45.6642853" lon="11.7147628"><ele>58.33333333333333</ele><time>2026-04-11T11:12:27.972Z</time></trkpt><trkpt lat="45.6642699" lon="11.7145443"><ele>58.0</ele><time>2026-04-11T11:12:28.974Z</time></trkpt><trkpt lat="45.6642789" lon="11.7143213"><ele>58.0</ele><time>2026-04-11T11:12:29.975Z</time></trkpt><trkpt lat="45.6643156" lon="11.7140985"><ele>58.0</ele><time>2026-04-11T11:12:30.975Z</time></trkpt><trkpt lat="45.6643788" lon="11.7138808"><ele>58.0</ele><time>2026-04-11T11:12:31.98Z</time></trkpt><trkpt lat="45.6644652" lon="11.7136716"><ele>58.33333333333333</ele><time>2026-04-11T11:12:32.981Z</time></trkpt><trkpt lat="45.6645699" lon="11.7134799"><ele>58.66666666666667</ele><time>2026-04-11T11:12:33.977Z</time></trkpt><trkpt lat="45.6646914" lon="11.7133182"><ele>59.0</ele><time>2026-04-11T11:12:34.972Z</time></trkpt><trkpt lat="45.6648202" lon="11.7131682"><ele>59.0</ele><time>2026-04-11T11:12:35.972Z</time></trkpt><trkpt lat="45.6649891" lon="11.7130865"><ele>59.0</ele><time>2026-04-11T11:12:36.976Z</time></trkpt><trkpt lat="45.66518" lon="11.7130045"><ele>59.0</ele><time>2026-04-11T11:12:37.971Z</time></trkpt><trkpt lat="45.6653772" lon="11.7129205"><ele>59.66666666666667</ele><time>2026-04-11T11:12:38.975Z</time></trkpt><trkpt lat="45.6655817" lon="11.7128416"><ele>60.33333333333333</ele><time>2026-04-11T11:12:39.974Z</time></trkpt><trkpt lat="45.6657926" lon="11.7127682"><ele>61.0</ele><time>2026-04-11T11:12:40.973Z</time></trkpt><trkpt lat="45.6660122" lon="11.712704"><ele>59.0</ele><time>2026-04-11T11:12:41.974Z</time></trkpt><trkpt lat="45.6662349" lon="11.712632"><ele>57.0</ele><time>2026-04-11T11:12:42.972Z</time></trkpt><trkpt lat="45.6664616" lon="11.7125484"><ele>57.0</ele><time>2026-04-11T11:12:43.977Z</time></trkpt><trkpt lat="45.6666925" lon="11.7124601"><ele>57.0</ele><time>2026-04-11T11:12:44.972Z</time></trkpt><trkpt lat="45.6669239" lon="11.7123527"><ele>58.5</ele><time>2026-04-11T11:12:45.979Z</time></trkpt><trkpt lat="45.6671576" lon="11.7122454"><ele>60.0</ele><time>2026-04-11T11:12:46.973Z</time></trkpt><trkpt lat="45.6673913" lon="11.7121411"><ele>60.0</ele><time>2026-04-11T11:12:47.976Z</time></trkpt><trkpt lat="45.6676214" lon="11.7120289"><ele>60.0</ele><time>2026-04-11T11:12:48.974Z</time></trkpt><trkpt lat="45.6678512" lon="11.7119242"><ele>60.0</ele><time>2026-04-11T11:12:49.973Z</time></trkpt><trkpt lat="45.6680775" lon="11.7118195"><ele>60.0</ele><time>2026-04-11T11:12:50.976Z</time></trkpt><trkpt lat="45.6683093" lon="11.7117208"><ele>60.0</ele><time>2026-04-11T11:12:51.979Z</time></trkpt><trkpt lat="45.6685443" lon="11.7116222"><ele>60.0</ele><time>2026-04-11T11:12:52.974Z</time></trkpt><trkpt lat="45.6687768" lon="11.7115354"><ele>59.5</ele><time>2026-04-11T11:12:53.973Z</time></trkpt><trkpt lat="45.6690125" lon="11.7114604"><ele>59.0</ele><time>2026-04-11T11:12:54.971Z</time></trkpt><trkpt lat="45.6692517" lon="11.7113971"><ele>59.0</ele><time>2026-04-11T11:12:55.975Z</time></trkpt><trkpt lat="45.6694898" lon="11.7113362"><ele>59.0</ele><time>2026-04-11T11:12:56.97Z</time></trkpt><trkpt lat="45.6697266" lon="11.7112735"><ele>59.0</ele><time>2026-04-11T11:12:57.975Z</time></trkpt><trkpt lat="45.6699614" lon="11.7112079"><ele>59.0</ele><time>2026-04-11T11:12:58.977Z</time></trkpt><trkpt lat="45.6701945" lon="11.7111386"><ele>59.5</ele><time>2026-04-11T11:12:59.972Z</time></trkpt><trkpt lat="45.6704263" lon="11.711064"><ele>60.0</ele><time>2026-04-11T11:13:00.976Z</time></trkpt><trkpt lat="45.6706542" lon="11.7109904"><ele>60.0</ele><time>2026-04-11T11:13:01.972Z</time></trkpt><trkpt lat="45.6708703" lon="11.7108744"><ele>60.0</ele><time>2026-04-11T11:13:02.97Z</time></trkpt><trkpt lat="45.6710907" lon="11.7107492"><ele>60.5</ele><time>2026-04-11T11:13:03.971Z</time></trkpt><trkpt lat="45.6713096" lon="11.7106336"><ele>61.0</ele><time>2026-04-11T11:13:04.973Z</time></trkpt><trkpt lat="45.6715299" lon="11.710521"><ele>61.0</ele><time>2026-04-11T11:13:05.976Z</time></trkpt><trkpt lat="45.6717542" lon="11.7104296"><ele>61.0</ele><time>2026-04-11T11:13:06.976Z</time></trkpt><trkpt lat="45.6719835" lon="11.7103492"><ele>61.0</ele><time>2026-04-11T11:13:07.977Z</time></trkpt><trkpt lat="45.6722153" lon="11.7102744"><ele>61.0</ele><time>2026-04-11T11:13:08.978Z</time></trkpt><trkpt lat="45.6724459" lon="11.7102023"><ele>61.0</ele><time>2026-04-11T11:13:09.975Z</time></trkpt><trkpt lat="45.6726751" lon="11.7101294"><ele>61.0</ele><time>2026-04-11T11:13:10.975Z</time></trkpt><trkpt lat="45.6729039" lon="11.7100562"><ele>62.5</ele><time>2026-04-11T11:13:11.969Z</time></trkpt><trkpt lat="45.6731344" lon="11.7099822"><ele>64.0</ele><time>2026-04-11T11:13:12.978Z</time></trkpt><trkpt lat="45.6733639" lon="11.7099123"><ele>64.0</ele><time>2026-04-11T11:13:13.973Z</time></trkpt><trkpt lat="45.6735984" lon="11.7098406"><ele>64.0</ele><time>2026-04-11T11:13:14.971Z</time></trkpt><trkpt lat="45.6738387" lon="11.7097649"><ele>64.5</ele><time>2026-04-11T11:13:15.969Z</time></trkpt><trkpt lat="45.6740802" lon="11.7096833"><ele>65.0</ele><time>2026-04-11T11:13:16.975Z</time></trkpt><trkpt lat="45.6743231" lon="11.7095996"><ele>64.0</ele><time>2026-04-11T11:13:17.97Z</time></trkpt><trkpt lat="45.6745682" lon="11.7095163"><ele>63.0</ele><time>2026-04-11T11:13:18.971Z</time></trkpt><trkpt lat="45.6748129" lon="11.709433"><ele>63.0</ele><time>2026-04-11T11:13:19.973Z</time></trkpt><trkpt lat="45.6750606" lon="11.7093506"><ele>63.0</ele><time>2026-04-11T11:13:20.975Z</time></trkpt><trkpt lat="45.6753132" lon="11.7092682"><ele>63.0</ele><time>2026-04-11T11:13:21.971Z</time></trkpt><trkpt lat="45.6755678" lon="11.7091814"><ele>63.0</ele><time>2026-04-11T11:13:22.968Z</time></trkpt><trkpt lat="45.6758187" lon="11.7090891"><ele>63.0</ele><time>2026-04-11T11:13:23.971Z</time></trkpt><trkpt lat="45.6760657" lon="11.7089919"><ele>63.0</ele><time>2026-04-11T11:13:24.972Z</time></trkpt><trkpt lat="45.6763061" lon="11.7088896"><ele>64.0</ele><time>2026-04-11T11:13:25.976Z</time></trkpt><trkpt lat="45.6765405" lon="11.7087834"><ele>65.0</ele><time>2026-04-11T11:13:26.972Z</time></trkpt><trkpt lat="45.6767702" lon="11.7086746"><ele>65.0</ele><time>2026-04-11T11:13:27.971Z</time></trkpt><trkpt lat="45.6769992" lon="11.7085645"><ele>65.0</ele><time>2026-04-11T11:13:28.971Z</time></trkpt><trkpt lat="45.6772273" lon="11.7084527"><ele>65.0</ele><time>2026-04-11T11:13:29.971Z</time></trkpt><trkpt lat="45.677456" lon="11.7083383"><ele>65.0</ele><time>2026-04-11T11:13:30.97Z</time></trkpt><trkpt lat="45.6776842" lon="11.7082206"><ele>65.0</ele><time>2026-04-11T11:13:31.973Z</time></trkpt><trkpt lat="45.677915" lon="11.7081043"><ele>65.0</ele><time>2026-04-11T11:13:32.98Z</time></trkpt><trkpt lat="45.6781479" lon="11.7079898"><ele>65.0</ele><time>2026-04-11T11:13:33.972Z</time></trkpt><trkpt lat="45.6783795" lon="11.7078685"><ele>65.0</ele><time>2026-04-11T11:13:34.974Z</time></trkpt><trkpt lat="45.6786104" lon="11.7077447"><ele>65.5</ele><time>2026-04-11T11:13:35.966Z</time></trkpt><trkpt lat="45.6788412" lon="11.7076202"><ele>66.0</ele><time>2026-04-11T11:13:36.977Z</time></trkpt><trkpt lat="45.6790712" lon="11.7074962"><ele>66.0</ele><time>2026-04-11T11:13:37.975Z</time></trkpt><trkpt lat="45.6792999" lon="11.7073722"><ele>66.0</ele><time>2026-04-11T11:13:38.973Z</time></trkpt><trkpt lat="45.6795268" lon="11.7072469"><ele>66.0</ele><time>2026-04-11T11:13:39.979Z</time></trkpt><trkpt lat="45.6797517" lon="11.7071226"><ele>66.0</ele><time>2026-04-11T11:13:40.974Z</time></trkpt><trkpt lat="45.6799749" lon="11.7070021"><ele>65.66666666666667</ele><time>2026-04-11T11:13:41.973Z</time></trkpt><trkpt lat="45.6801866" lon="11.7068902"><ele>65.33333333333334</ele><time>2026-04-11T11:13:42.98Z</time></trkpt><trkpt lat="45.6803857" lon="11.7067892"><ele>65.0</ele><time>2026-04-11T11:13:43.975Z</time></trkpt><trkpt lat="45.6805785" lon="11.706696"><ele>65.0</ele><time>2026-04-11T11:13:44.977Z</time></trkpt><trkpt lat="45.6807717" lon="11.7066161"><ele>65.0</ele><time>2026-04-11T11:13:45.983Z</time></trkpt><trkpt lat="45.6809706" lon="11.706565"><ele>65.0</ele><time>2026-04-11T11:13:46.971Z</time></trkpt><trkpt lat="45.6811686" lon="11.7065482"><ele>65.66666666666667</ele><time>2026-04-11T11:13:47.975Z</time></trkpt><trkpt lat="45.6813541" lon="11.7065616"><ele>66.33333333333333</ele><time>2026-04-11T11:13:48.979Z</time></trkpt><trkpt lat="45.6815236" lon="11.7065894"><ele>67.0</ele><time>2026-04-11T11:13:49.973Z</time></trkpt><trkpt lat="45.6816725" lon="11.7066192"><ele>67.0</ele><time>2026-04-11T11:13:50.971Z</time></trkpt><trkpt lat="45.6817914" lon="11.7066439"><ele>67.0</ele><time>2026-04-11T11:13:51.984Z</time></trkpt><trkpt lat="45.6818828" lon="11.7066632"><ele>67.0</ele><time>2026-04-11T11:13:52.973Z</time></trkpt><trkpt lat="45.6819522" lon="11.7066772"><ele>67.0</ele><time>2026-04-11T11:13:53.974Z</time></trkpt><trkpt lat="45.6820557" lon="11.7067019"><ele>67.0</ele><time>2026-04-11T11:13:55.973Z</time></trkpt><trkpt lat="45.6821021" lon="11.7068392"><ele>67.25</ele><time>2026-04-11T11:14:01.975Z</time></trkpt><trkpt lat="45.6820603" lon="11.7070362"><ele>67.5</ele><time>2026-04-11T11:14:04Z</time></trkpt><trkpt lat="45.6820371" lon="11.7071811"><ele>67.75</ele><time>2026-04-11T11:14:04.982Z</time></trkpt><trkpt lat="45.6820124" lon="11.7073463"><ele>68.0</ele><time>2026-04-11T11:14:05.973Z</time></trkpt><trkpt lat="45.6820007" lon="11.707553"><ele>68.33333333333334</ele><time>2026-04-11T11:14:07.007Z</time></trkpt><trkpt lat="45.682" lon="11.7077808"><ele>68.66666666666667</ele><time>2026-04-11T11:14:07.982Z</time></trkpt><trkpt lat="45.6820188" lon="11.7080042"><ele>69.0</ele><time>2026-04-11T11:14:08.982Z</time></trkpt><trkpt lat="45.6820605" lon="11.7082369"><ele>69.0</ele><time>2026-04-11T11:14:09.979Z</time></trkpt><trkpt lat="45.6821153" lon="11.7084748"><ele>69.0</ele><time>2026-04-11T11:14:10.983Z</time></trkpt><trkpt lat="45.6821709" lon="11.708729"><ele>69.0</ele><time>2026-04-11T11:14:11.976Z</time></trkpt><trkpt lat="45.6822237" lon="11.7089818"><ele>68.66666666666667</ele><time>2026-04-11T11:14:12.976Z</time></trkpt><trkpt lat="45.6822906" lon="11.709247"><ele>68.33333333333334</ele><time>2026-04-11T11:14:13.98Z</time></trkpt><trkpt lat="45.6823604" lon="11.7095157"><ele>68.0</ele><time>2026-04-11T11:14:14.988Z</time></trkpt><trkpt lat="45.6824296" lon="11.7097907"><ele>68.0</ele><time>2026-04-11T11:14:15.973Z</time></trkpt><trkpt lat="45.6825029" lon="11.7100733"><ele>68.0</ele><time>2026-04-11T11:14:16.984Z</time></trkpt><trkpt lat="45.6825763" lon="11.7103562"><ele>68.0</ele><time>2026-04-11T11:14:17.985Z</time></trkpt><trkpt lat="45.6826542" lon="11.7106435"><ele>68.33333333333334</ele><time>2026-04-11T11:14:18.987Z</time></trkpt><trkpt lat="45.6827337" lon="11.7109341"><ele>68.66666666666667</ele><time>2026-04-11T11:14:19.983Z</time></trkpt><trkpt lat="45.6828106" lon="11.7112255"><ele>69.0</ele><time>2026-04-11T11:14:20.984Z</time></trkpt><trkpt lat="45.6828858" lon="11.7115187"><ele>69.0</ele><time>2026-04-11T11:14:21.985Z</time></trkpt><trkpt lat="45.6829598" lon="11.7118142"><ele>69.0</ele><time>2026-04-11T11:14:22.985Z</time></trkpt><trkpt lat="45.6830297" lon="11.7121101"><ele>69.0</ele><time>2026-04-11T11:14:23.992Z</time></trkpt><trkpt lat="45.6830938" lon="11.712407"><ele>69.0</ele><time>2026-04-11T11:14:24.984Z</time></trkpt><trkpt lat="45.6831499" lon="11.7127062"><ele>69.0</ele><time>2026-04-11T11:14:25.994Z</time></trkpt><trkpt lat="45.6832061" lon="11.7130019"><ele>69.0</ele><time>2026-04-11T11:14:26.982Z</time></trkpt><trkpt lat="45.6832589" lon="11.7132986"><ele>69.33333333333333</ele><time>2026-04-11T11:14:27.986Z</time></trkpt><trkpt lat="45.6833084" lon="11.7135761"><ele>69.66666666666666</ele><time>2026-04-11T11:14:28.984Z</time></trkpt><trkpt lat="45.6833555" lon="11.7138337"><ele>70.0</ele><time>2026-04-11T11:14:29.989Z</time></trkpt><trkpt lat="45.683398" lon="11.7140667"><ele>70.0</ele><time>2026-04-11T11:14:30.983Z</time></trkpt><trkpt lat="45.6834363" lon="11.7142753"><ele>70.0</ele><time>2026-04-11T11:14:31.974Z</time></trkpt><trkpt lat="45.6834688" lon="11.7144587"><ele>70.0</ele><time>2026-04-11T11:14:32.984Z</time></trkpt><trkpt lat="45.6834958" lon="11.7146202"><ele>70.0</ele><time>2026-04-11T11:14:34.033Z</time></trkpt><trkpt lat="45.6835204" lon="11.7147612"><ele>69.83333333333333</ele><time>2026-04-11T11:14:34.988Z</time></trkpt><trkpt lat="45.6835417" lon="11.7148732"><ele>69.66666666666666</ele><time>2026-04-11T11:14:35.997Z</time></trkpt><trkpt lat="45.6835774" lon="11.7150235"><ele>69.5</ele><time>2026-04-11T11:14:37.986Z</time></trkpt><trkpt lat="45.6836438" lon="11.7150607"><ele>69.33333333333333</ele><time>2026-04-11T11:14:39.984Z</time></trkpt><trkpt lat="45.6836896" lon="11.7149897"><ele>69.16666666666667</ele><time>2026-04-11T11:14:41.985Z</time></trkpt><trkpt lat="45.6836908" lon="11.7148791"><ele>69.0</ele><time>2026-04-11T11:14:43.98Z</time></trkpt><trkpt lat="45.6836693" lon="11.7147749"><ele>69.0</ele><time>2026-04-11T11:19:38.994Z</time></trkpt><trkpt lat="45.6836231" lon="11.7146716"><ele>69.0</ele><time>2026-04-11T11:19:40.988Z</time></trkpt><trkpt lat="45.6835511" lon="11.7146429"><ele>69.0</ele><time>2026-04-11T11:19:50.99Z</time></trkpt><trkpt lat="45.6835385" lon="11.714791"><ele>69.0</ele><time>2026-04-11T11:19:52.992Z</time></trkpt><trkpt lat="45.6835416" lon="11.7149119"><ele>69.0</ele><time>2026-04-11T11:19:53.984Z</time></trkpt><trkpt lat="45.6835679" lon="11.715072"><ele>69.25</ele><time>2026-04-11T11:19:54.983Z</time></trkpt><trkpt lat="45.6836012" lon="11.7152542"><ele>69.5</ele><time>2026-04-11T11:19:55.995Z</time></trkpt><trkpt lat="45.6836393" lon="11.7154519"><ele>69.75</ele><time>2026-04-11T11:19:56.993Z</time></trkpt><trkpt lat="45.6836779" lon="11.7156631"><ele>70.0</ele><time>2026-04-11T11:19:57.977Z</time></trkpt><trkpt lat="45.6837167" lon="11.7158947"><ele>69.33333333333333</ele><time>2026-04-11T11:19:58.984Z</time></trkpt><trkpt lat="45.6837551" lon="11.7161583"><ele>68.66666666666667</ele><time>2026-04-11T11:19:59.989Z</time></trkpt><trkpt lat="45.6837845" lon="11.7164412"><ele>68.0</ele><time>2026-04-11T11:20:01Z</time></trkpt><trkpt lat="45.6837981" lon="11.7167516"><ele>68.5</ele><time>2026-04-11T11:20:01.985Z</time></trkpt><trkpt lat="45.6837933" lon="11.7170918"><ele>69.0</ele><time>2026-04-11T11:20:02.981Z</time></trkpt><trkpt lat="45.6837727" lon="11.7174495"><ele>68.5</ele><time>2026-04-11T11:20:03.98Z</time></trkpt><trkpt lat="45.6837463" lon="11.717816"><ele>68.0</ele><time>2026-04-11T11:20:04.99Z</time></trkpt><trkpt lat="45.683699" lon="11.7182023"><ele>68.0</ele><time>2026-04-11T11:20:06.012Z</time></trkpt><trkpt lat="45.6836437" lon="11.7185696"><ele>68.0</ele><time>2026-04-11T11:20:06.988Z</time></trkpt><trkpt lat="45.6835932" lon="11.7189262"><ele>68.0</ele><time>2026-04-11T11:20:07.978Z</time></trkpt><trkpt lat="45.6835459" lon="11.719276"><ele>68.0</ele><time>2026-04-11T11:20:08.985Z</time></trkpt><trkpt lat="45.6834974" lon="11.7196158"><ele>67.5</ele><time>2026-04-11T11:20:09.992Z</time></trkpt><trkpt lat="45.6834504" lon="11.7199524"><ele>67.0</ele><time>2026-04-11T11:20:10.978Z</time></trkpt><trkpt lat="45.6834055" lon="11.7202846"><ele>67.0</ele><time>2026-04-11T11:20:11.986Z</time></trkpt><trkpt lat="45.6833605" lon="11.7206106"><ele>67.0</ele><time>2026-04-11T11:20:12.98Z</time></trkpt><trkpt lat="45.6833148" lon="11.7209379"><ele>67.5</ele><time>2026-04-11T11:20:13.979Z</time></trkpt><trkpt lat="45.6832702" lon="11.7212607"><ele>68.0</ele><time>2026-04-11T11:20:14.982Z</time></trkpt><trkpt lat="45.6832261" lon="11.7215774"><ele>68.0</ele><time>2026-04-11T11:20:15.988Z</time></trkpt><trkpt lat="45.6831843" lon="11.7218777"><ele>68.0</ele><time>2026-04-11T11:20:16.979Z</time></trkpt><trkpt lat="45.6831463" lon="11.7221556"><ele>68.0</ele><time>2026-04-11T11:20:17.982Z</time></trkpt><trkpt lat="45.6831106" lon="11.7224156"><ele>68.0</ele><time>2026-04-11T11:20:18.985Z</time></trkpt><trkpt lat="45.6830758" lon="11.7226609"><ele>68.0</ele><time>2026-04-11T11:20:19.987Z</time></trkpt><trkpt lat="45.6830442" lon="11.722892"><ele>68.0</ele><time>2026-04-11T11:20:20.982Z</time></trkpt><trkpt lat="45.6830134" lon="11.7231184"><ele>68.0</ele><time>2026-04-11T11:20:21.981Z</time></trkpt><trkpt lat="45.6829826" lon="11.7233412"><ele>68.0</ele><time>2026-04-11T11:20:22.983Z</time></trkpt><trkpt lat="45.6829535" lon="11.7235588"><ele>68.0</ele><time>2026-04-11T11:20:23.986Z</time></trkpt><trkpt lat="45.682925" lon="11.7237723"><ele>68.25</ele><time>2026-04-11T11:20:24.983Z</time></trkpt><trkpt lat="45.6828974" lon="11.7239813"><ele>68.5</ele><time>2026-04-11T11:20:25.983Z</time></trkpt><trkpt lat="45.6828712" lon="11.7241796"><ele>68.75</ele><time>2026-04-11T11:20:26.984Z</time></trkpt><trkpt lat="45.6828461" lon="11.7243654"><ele>69.0</ele><time>2026-04-11T11:20:27.982Z</time></trkpt><trkpt lat="45.682823" lon="11.7245516"><ele>69.0</ele><time>2026-04-11T11:20:28.983Z</time></trkpt><trkpt lat="45.6828001" lon="11.724738"><ele>69.0</ele><time>2026-04-11T11:20:29.992Z</time></trkpt><trkpt lat="45.6827807" lon="11.7249228"><ele>69.0</ele><time>2026-04-11T11:20:30.992Z</time></trkpt><trkpt lat="45.6827632" lon="11.7251066"><ele>69.0</ele><time>2026-04-11T11:20:31.987Z</time></trkpt><trkpt lat="45.6827496" lon="11.7252889"><ele>69.25</ele><time>2026-04-11T11:20:32.983Z</time></trkpt><trkpt lat="45.6827418" lon="11.7254712"><ele>69.5</ele><time>2026-04-11T11:20:33.986Z</time></trkpt><trkpt lat="45.6827388" lon="11.7256527"><ele>69.75</ele><time>2026-04-11T11:20:34.988Z</time></trkpt><trkpt lat="45.6827393" lon="11.725833"><ele>70.0</ele><time>2026-04-11T11:20:35.992Z</time></trkpt><trkpt lat="45.6827438" lon="11.7260138"><ele>70.0</ele><time>2026-04-11T11:20:36.984Z</time></trkpt><trkpt lat="45.6827544" lon="11.7261956"><ele>70.0</ele><time>2026-04-11T11:20:37.983Z</time></trkpt><trkpt lat="45.6827683" lon="11.7263807"><ele>70.0</ele><time>2026-04-11T11:20:38.979Z</time></trkpt><trkpt lat="45.6827861" lon="11.7265683"><ele>70.0</ele><time>2026-04-11T11:20:39.982Z</time></trkpt><trkpt lat="45.6828066" lon="11.7267526"><ele>70.0</ele><time>2026-04-11T11:20:40.979Z</time></trkpt><trkpt lat="45.68283" lon="11.7269355"><ele>70.0</ele><time>2026-04-11T11:20:41.981Z</time></trkpt><trkpt lat="45.6828561" lon="11.7271187"><ele>70.0</ele><time>2026-04-11T11:20:42.981Z</time></trkpt><trkpt lat="45.6828829" lon="11.7273064"><ele>70.0</ele><time>2026-04-11T11:20:43.981Z</time></trkpt><trkpt lat="45.6829101" lon="11.7274943"><ele>70.0</ele><time>2026-04-11T11:20:44.991Z</time></trkpt><trkpt lat="45.6829365" lon="11.7276802"><ele>70.0</ele><time>2026-04-11T11:20:45.984Z</time></trkpt><trkpt lat="45.6829622" lon="11.7278651"><ele>70.0</ele><time>2026-04-11T11:20:46.976Z</time></trkpt><trkpt lat="45.6829874" lon="11.7280471"><ele>70.0</ele><time>2026-04-11T11:20:47.98Z</time></trkpt><trkpt lat="45.6830097" lon="11.7282174"><ele>70.0</ele><time>2026-04-11T11:20:48.984Z</time></trkpt><trkpt lat="45.683029" lon="11.7283736"><ele>70.0</ele><time>2026-04-11T11:20:49.981Z</time></trkpt><trkpt lat="45.6830461" lon="11.7285089"><ele>70.0</ele><time>2026-04-11T11:20:50.981Z</time></trkpt><trkpt lat="45.6830648" lon="11.7286148"><ele>70.0</ele><time>2026-04-11T11:20:51.98Z</time></trkpt><trkpt lat="45.6831024" lon="11.72869"><ele>70.0</ele><time>2026-04-11T11:20:52.986Z</time></trkpt><trkpt lat="45.683168" lon="11.7287329"><ele>70.0</ele><time>2026-04-11T11:20:53.984Z</time></trkpt><trkpt lat="45.6832604" lon="11.7287535"><ele>70.0</ele><time>2026-04-11T11:20:54.981Z</time></trkpt><trkpt lat="45.6833767" lon="11.7287668"><ele>70.0</ele><time>2026-04-11T11:20:55.99Z</time></trkpt><trkpt lat="45.6835118" lon="11.7287824"><ele>70.0</ele><time>2026-04-11T11:20:56.99Z</time></trkpt><trkpt lat="45.6836599" lon="11.7288021"><ele>70.0</ele><time>2026-04-11T11:20:57.991Z</time></trkpt><trkpt lat="45.6838226" lon="11.7288243"><ele>70.0</ele><time>2026-04-11T11:20:58.979Z</time></trkpt><trkpt lat="45.6839932" lon="11.7288475"><ele>70.0</ele><time>2026-04-11T11:20:59.992Z</time></trkpt><trkpt lat="45.6841725" lon="11.7288715"><ele>70.0</ele><time>2026-04-11T11:21:00.997Z</time></trkpt><trkpt lat="45.6843569" lon="11.7288972"><ele>70.33333333333333</ele><time>2026-04-11T11:21:01.978Z</time></trkpt><trkpt lat="45.6845457" lon="11.7289247"><ele>70.66666666666667</ele><time>2026-04-11T11:21:02.988Z</time></trkpt><trkpt lat="45.6847357" lon="11.7289513"><ele>71.0</ele><time>2026-04-11T11:21:03.993Z</time></trkpt><trkpt lat="45.6849152" lon="11.7289766"><ele>71.0</ele><time>2026-04-11T11:21:04.983Z</time></trkpt><trkpt lat="45.6850775" lon="11.729"><ele>71.0</ele><time>2026-04-11T11:21:05.986Z</time></trkpt><trkpt lat="45.6852173" lon="11.7290218"><ele>71.0</ele><time>2026-04-11T11:21:06.984Z</time></trkpt><trkpt lat="45.6853323" lon="11.7290405"><ele>71.0</ele><time>2026-04-11T11:21:07.988Z</time></trkpt><trkpt lat="45.685421" lon="11.729053"><ele>70.8</ele><time>2026-04-11T11:21:08.977Z</time></trkpt><trkpt lat="45.6854876" lon="11.7290657"><ele>70.6</ele><time>2026-04-11T11:21:09.982Z</time></trkpt><trkpt lat="45.685579" lon="11.7291835"><ele>70.4</ele><time>2026-04-11T11:21:11.98Z</time></trkpt><trkpt lat="45.6856026" lon="11.7293075"><ele>70.2</ele><time>2026-04-11T11:21:12.978Z</time></trkpt><trkpt lat="45.6856202" lon="11.7294693"><ele>70.0</ele><time>2026-04-11T11:21:13.985Z</time></trkpt><trkpt lat="45.6856449" lon="11.7296572"><ele>70.0</ele><time>2026-04-11T11:21:14.986Z</time></trkpt><trkpt lat="45.6856732" lon="11.7298492"><ele>70.0</ele><time>2026-04-11T11:21:15.988Z</time></trkpt><trkpt lat="45.6856972" lon="11.7300217"><ele>70.0</ele><time>2026-04-11T11:21:16.979Z</time></trkpt><trkpt lat="45.685716" lon="11.7301696"><ele>70.0</ele><time>2026-04-11T11:21:17.981Z</time></trkpt><trkpt lat="45.685728" lon="11.7302882"><ele>70.0</ele><time>2026-04-11T11:21:18.987Z</time></trkpt><trkpt lat="45.685738" lon="11.7304222"><ele>70.2</ele><time>2026-04-11T11:21:20.994Z</time></trkpt><trkpt lat="45.6857869" lon="11.7304982"><ele>70.4</ele><time>2026-04-11T11:21:26.984Z</time></trkpt><trkpt lat="45.6858508" lon="11.7305147"><ele>70.6</ele><time>2026-04-11T11:21:27.992Z</time></trkpt><trkpt lat="45.6859343" lon="11.73052"><ele>70.8</ele><time>2026-04-11T11:21:28.98Z</time></trkpt><trkpt lat="45.6860394" lon="11.730517"><ele>71.0</ele><time>2026-04-11T11:21:29.984Z</time></trkpt><trkpt lat="45.6861638" lon="11.7305148"><ele>71.0</ele><time>2026-04-11T11:21:30.986Z</time></trkpt><trkpt lat="45.6863051" lon="11.7305123"><ele>71.0</ele><time>2026-04-11T11:21:31.991Z</time></trkpt><trkpt lat="45.6864588" lon="11.7305093"><ele>71.0</ele><time>2026-04-11T11:21:32.985Z</time></trkpt><trkpt lat="45.6866268" lon="11.730505"><ele>71.0</ele><time>2026-04-11T11:21:33.985Z</time></trkpt><trkpt lat="45.6868135" lon="11.7304997"><ele>71.0</ele><time>2026-04-11T11:21:34.98Z</time></trkpt><trkpt lat="45.6870161" lon="11.7304943"><ele>71.0</ele><time>2026-04-11T11:21:35.987Z</time></trkpt><trkpt lat="45.687227" lon="11.730489"><ele>71.0</ele><time>2026-04-11T11:21:36.977Z</time></trkpt><trkpt lat="45.6874395" lon="11.7304854"><ele>71.0</ele><time>2026-04-11T11:21:37.984Z</time></trkpt><trkpt lat="45.687651" lon="11.7304807"><ele>71.0</ele><time>2026-04-11T11:21:38.982Z</time></trkpt><trkpt lat="45.6878631" lon="11.7304747"><ele>71.0</ele><time>2026-04-11T11:21:39.99Z</time></trkpt><trkpt lat="45.6880692" lon="11.7304716"><ele>71.0</ele><time>2026-04-11T11:21:40.976Z</time></trkpt><trkpt lat="45.6882592" lon="11.7304768"><ele>71.0</ele><time>2026-04-11T11:21:41.987Z</time></trkpt><trkpt lat="45.6884345" lon="11.7305038"><ele>71.33333333333334</ele><time>2026-04-11T11:21:42.985Z</time></trkpt><trkpt lat="45.6885957" lon="11.7305633"><ele>71.66666666666667</ele><time>2026-04-11T11:21:43.979Z</time></trkpt><trkpt lat="45.6887406" lon="11.7306652"><ele>72.0</ele><time>2026-04-11T11:21:44.986Z</time></trkpt><trkpt lat="45.6888649" lon="11.7308165"><ele>72.0</ele><time>2026-04-11T11:21:45.981Z</time></trkpt><trkpt lat="45.6889615" lon="11.7310114"><ele>72.0</ele><time>2026-04-11T11:21:46.985Z</time></trkpt><trkpt lat="45.6890281" lon="11.7312421"><ele>72.0</ele><time>2026-04-11T11:21:47.979Z</time></trkpt><trkpt lat="45.6890751" lon="11.7314982"><ele>72.0</ele><time>2026-04-11T11:21:48.977Z</time></trkpt><trkpt lat="45.6891207" lon="11.7317669"><ele>72.0</ele><time>2026-04-11T11:21:49.978Z</time></trkpt><trkpt lat="45.6891684" lon="11.7320414"><ele>72.0</ele><time>2026-04-11T11:21:50.977Z</time></trkpt><trkpt lat="45.6892167" lon="11.7323122"><ele>72.0</ele><time>2026-04-11T11:21:51.987Z</time></trkpt><trkpt lat="45.6892745" lon="11.7325619"><ele>72.0</ele><time>2026-04-11T11:21:52.982Z</time></trkpt><trkpt lat="45.6893569" lon="11.7327881"><ele>72.0</ele><time>2026-04-11T11:21:53.982Z</time></trkpt><trkpt lat="45.6894631" lon="11.7329811"><ele>72.33333333333333</ele><time>2026-04-11T11:21:54.982Z</time></trkpt><trkpt lat="45.6895838" lon="11.7331251"><ele>72.66666666666666</ele><time>2026-04-11T11:21:55.988Z</time></trkpt><trkpt lat="45.6897204" lon="11.7332123"><ele>73.0</ele><time>2026-04-11T11:21:56.983Z</time></trkpt><trkpt lat="45.6898729" lon="11.7332434"><ele>73.0</ele><time>2026-04-11T11:21:57.981Z</time></trkpt><trkpt lat="45.6900375" lon="11.7332334"><ele>73.0</ele><time>2026-04-11T11:21:58.983Z</time></trkpt><trkpt lat="45.6902103" lon="11.7332106"><ele>73.0</ele><time>2026-04-11T11:21:59.987Z</time></trkpt><trkpt lat="45.6903885" lon="11.7331876"><ele>73.0</ele><time>2026-04-11T11:22:00.984Z</time></trkpt><trkpt lat="45.6905679" lon="11.7331669"><ele>73.0</ele><time>2026-04-11T11:22:01.981Z</time></trkpt><trkpt lat="45.6907408" lon="11.7331489"><ele>73.0</ele><time>2026-04-11T11:22:02.978Z</time></trkpt><trkpt lat="45.6908998" lon="11.7331336"><ele>73.0</ele><time>2026-04-11T11:22:03.986Z</time></trkpt><trkpt lat="45.6910415" lon="11.7331201"><ele>73.0</ele><time>2026-04-11T11:22:04.986Z</time></trkpt><trkpt lat="45.6911698" lon="11.7331052"><ele>73.0</ele><time>2026-04-11T11:22:05.985Z</time></trkpt><trkpt lat="45.6912899" lon="11.7330935"><ele>73.0</ele><time>2026-04-11T11:22:06.986Z</time></trkpt><trkpt lat="45.6913992" lon="11.7330827"><ele>73.0</ele><time>2026-04-11T11:22:08.037Z</time></trkpt><trkpt lat="45.6914877" lon="11.7330725"><ele>73.0</ele><time>2026-04-11T11:22:08.986Z</time></trkpt><trkpt lat="45.6915507" lon="11.7330627"><ele>73.0</ele><time>2026-04-11T11:22:09.98Z</time></trkpt><trkpt lat="45.6916616" lon="11.7330366"><ele>73.0</ele><time>2026-04-11T11:23:10.992Z</time></trkpt><trkpt lat="45.6917887" lon="11.7329885"><ele>73.0</ele><time>2026-04-11T11:23:12.999Z</time></trkpt><trkpt lat="45.69188" lon="11.7329482"><ele>73.75</ele><time>2026-04-11T11:23:13.983Z</time></trkpt><trkpt lat="45.6919913" lon="11.7329"><ele>74.5</ele><time>2026-04-11T11:23:14.982Z</time></trkpt><trkpt lat="45.6921241" lon="11.7328596"><ele>75.25</ele><time>2026-04-11T11:23:15.983Z</time></trkpt><trkpt lat="45.6922768" lon="11.7328328"><ele>76.0</ele><time>2026-04-11T11:23:16.98Z</time></trkpt><trkpt lat="45.6924402" lon="11.7328107"><ele>76.0</ele><time>2026-04-11T11:23:17.98Z</time></trkpt><trkpt lat="45.6926098" lon="11.7327835"><ele>76.0</ele><time>2026-04-11T11:23:18.984Z</time></trkpt><trkpt lat="45.6927882" lon="11.7327521"><ele>76.0</ele><time>2026-04-11T11:23:19.981Z</time></trkpt><trkpt lat="45.6929742" lon="11.7327209"><ele>75.66666666666666</ele><time>2026-04-11T11:23:20.98Z</time></trkpt><trkpt lat="45.6931672" lon="11.7326916"><ele>75.33333333333333</ele><time>2026-04-11T11:23:21.983Z</time></trkpt><trkpt lat="45.6933658" lon="11.7326646"><ele>75.0</ele><time>2026-04-11T11:23:22.988Z</time></trkpt><trkpt lat="45.6935669" lon="11.7326442"><ele>75.0</ele><time>2026-04-11T11:23:23.985Z</time></trkpt><trkpt lat="45.6937702" lon="11.7326324"><ele>75.0</ele><time>2026-04-11T11:23:24.985Z</time></trkpt><trkpt lat="45.6939692" lon="11.7326315"><ele>75.0</ele><time>2026-04-11T11:23:25.979Z</time></trkpt><trkpt lat="45.6941539" lon="11.7326362"><ele>75.0</ele><time>2026-04-11T11:23:26.984Z</time></trkpt><trkpt lat="45.6943252" lon="11.73264"><ele>75.0</ele><time>2026-04-11T11:23:27.981Z</time></trkpt><trkpt lat="45.6944836" lon="11.7326353"><ele>75.0</ele><time>2026-04-11T11:23:28.992Z</time></trkpt><trkpt lat="45.6946245" lon="11.7326218"><ele>75.25</ele><time>2026-04-11T11:23:29.985Z</time></trkpt><trkpt lat="45.6947453" lon="11.73261"><ele>75.5</ele><time>2026-04-11T11:23:30.98Z</time></trkpt><trkpt lat="45.694858" lon="11.7326161"><ele>75.75</ele><time>2026-04-11T11:23:31.981Z</time></trkpt><trkpt lat="45.694978" lon="11.7326433"><ele>76.0</ele><time>2026-04-11T11:23:32.984Z</time></trkpt><trkpt lat="45.6951113" lon="11.7326596"><ele>75.66666666666666</ele><time>2026-04-11T11:23:33.982Z</time></trkpt><trkpt lat="45.6952594" lon="11.7326462"><ele>75.33333333333333</ele><time>2026-04-11T11:23:34.988Z</time></trkpt><trkpt lat="45.6954181" lon="11.7326371"><ele>75.0</ele><time>2026-04-11T11:23:35.986Z</time></trkpt><trkpt lat="45.6955877" lon="11.7326417"><ele>75.0</ele><time>2026-04-11T11:23:36.989Z</time></trkpt><trkpt lat="45.6957744" lon="11.7326463"><ele>75.0</ele><time>2026-04-11T11:23:38.037Z</time></trkpt><trkpt lat="45.6959769" lon="11.7326468"><ele>75.0</ele><time>2026-04-11T11:23:38.986Z</time></trkpt><trkpt lat="45.6961901" lon="11.7326463"><ele>75.33333333333333</ele><time>2026-04-11T11:23:39.977Z</time></trkpt><trkpt lat="45.6964087" lon="11.7326465"><ele>75.66666666666666</ele><time>2026-04-11T11:23:40.982Z</time></trkpt><trkpt lat="45.6966333" lon="11.7326475"><ele>76.0</ele><time>2026-04-11T11:23:41.981Z</time></trkpt><trkpt lat="45.6968646" lon="11.7326468"><ele>77.0</ele><time>2026-04-11T11:23:42.977Z</time></trkpt><trkpt lat="45.6971002" lon="11.7326444"><ele>78.0</ele><time>2026-04-11T11:23:43.98Z</time></trkpt><trkpt lat="45.6973359" lon="11.732644"><ele>78.0</ele><time>2026-04-11T11:23:44.982Z</time></trkpt><trkpt lat="45.6975733" lon="11.7326489"><ele>78.0</ele><time>2026-04-11T11:23:45.99Z</time></trkpt><trkpt lat="45.6978172" lon="11.7326653"><ele>78.0</ele><time>2026-04-11T11:23:46.984Z</time></trkpt><trkpt lat="45.6980672" lon="11.7326896"><ele>78.0</ele><time>2026-04-11T11:23:47.977Z</time></trkpt><trkpt lat="45.6983289" lon="11.7327241"><ele>78.5</ele><time>2026-04-11T11:23:48.984Z</time></trkpt><trkpt lat="45.6985859" lon="11.732762"><ele>79.0</ele><time>2026-04-11T11:23:49.981Z</time></trkpt><trkpt lat="45.6988452" lon="11.732798"><ele>79.0</ele><time>2026-04-11T11:23:50.978Z</time></trkpt><trkpt lat="45.6991003" lon="11.7328367"><ele>79.0</ele><time>2026-04-11T11:23:51.982Z</time></trkpt><trkpt lat="45.6993549" lon="11.7328761"><ele>79.0</ele><time>2026-04-11T11:23:52.979Z</time></trkpt><trkpt lat="45.6996101" lon="11.7329219"><ele>79.0</ele><time>2026-04-11T11:23:53.98Z</time></trkpt><trkpt lat="45.6998624" lon="11.7329667"><ele>79.0</ele><time>2026-04-11T11:23:54.987Z</time></trkpt><trkpt lat="45.7001126" lon="11.7330129"><ele>79.0</ele><time>2026-04-11T11:23:55.98Z</time></trkpt><trkpt lat="45.7003626" lon="11.7330533"><ele>78.5</ele><time>2026-04-11T11:23:56.982Z</time></trkpt><trkpt lat="45.7006117" lon="11.7330859"><ele>78.0</ele><time>2026-04-11T11:23:57.99Z</time></trkpt><trkpt lat="45.7008579" lon="11.733104"><ele>77.5</ele><time>2026-04-11T11:23:58.978Z</time></trkpt><trkpt lat="45.7010919" lon="11.7331132"><ele>77.0</ele><time>2026-04-11T11:23:59.974Z</time></trkpt><trkpt lat="45.7013122" lon="11.7331136"><ele>77.0</ele><time>2026-04-11T11:24:00.983Z</time></trkpt><trkpt lat="45.7015301" lon="11.733108"><ele>77.0</ele><time>2026-04-11T11:24:01.983Z</time></trkpt><trkpt lat="45.7017445" lon="11.7330979"><ele>77.0</ele><time>2026-04-11T11:24:02.984Z</time></trkpt><trkpt lat="45.7019541" lon="11.7330877"><ele>77.33333333333334</ele><time>2026-04-11T11:24:03.982Z</time></trkpt><trkpt lat="45.7021629" lon="11.7330789"><ele>77.66666666666667</ele><time>2026-04-11T11:24:04.976Z</time></trkpt><trkpt lat="45.7023716" lon="11.733064"><ele>78.0</ele><time>2026-04-11T11:24:05.983Z</time></trkpt><trkpt lat="45.7025809" lon="11.7330428"><ele>78.33333333333333</ele><time>2026-04-11T11:24:06.989Z</time></trkpt><trkpt lat="45.7027902" lon="11.7330198"><ele>78.66666666666666</ele><time>2026-04-11T11:24:07.985Z</time></trkpt><trkpt lat="45.7029994" lon="11.7329986"><ele>79.0</ele><time>2026-04-11T11:24:08.977Z</time></trkpt><trkpt lat="45.7032088" lon="11.7329782"><ele>79.0</ele><time>2026-04-11T11:24:09.983Z</time></trkpt><trkpt lat="45.7034182" lon="11.7329568"><ele>79.0</ele><time>2026-04-11T11:24:10.989Z</time></trkpt><trkpt lat="45.7036283" lon="11.7329347"><ele>79.0</ele><time>2026-04-11T11:24:11.988Z</time></trkpt><trkpt lat="45.7038329" lon="11.7329129"><ele>79.33333333333333</ele><time>2026-04-11T11:24:12.982Z</time></trkpt><trkpt lat="45.704024" lon="11.7328912"><ele>79.66666666666667</ele><time>2026-04-11T11:24:13.986Z</time></trkpt><trkpt lat="45.7042016" lon="11.7328725"><ele>80.0</ele><time>2026-04-11T11:24:14.98Z</time></trkpt><trkpt lat="45.7043713" lon="11.7328547"><ele>79.66666666666667</ele><time>2026-04-11T11:24:15.98Z</time></trkpt><trkpt lat="45.7045406" lon="11.7328322"><ele>79.33333333333333</ele><time>2026-04-11T11:24:16.982Z</time></trkpt><trkpt lat="45.7047126" lon="11.7328001"><ele>79.0</ele><time>2026-04-11T11:24:17.999Z</time></trkpt><trkpt lat="45.7048882" lon="11.7327588"><ele>79.33333333333333</ele><time>2026-04-11T11:24:18.993Z</time></trkpt><trkpt lat="45.7050684" lon="11.7327099"><ele>79.66666666666667</ele><time>2026-04-11T11:24:19.98Z</time></trkpt><trkpt lat="45.7052517" lon="11.732656"><ele>80.0</ele><time>2026-04-11T11:24:20.979Z</time></trkpt><trkpt lat="45.7054422" lon="11.7325983"><ele>80.33333333333334</ele><time>2026-04-11T11:24:21.987Z</time></trkpt><trkpt lat="45.7056381" lon="11.73254"><ele>80.66666666666667</ele><time>2026-04-11T11:24:22.984Z</time></trkpt><trkpt lat="45.7058319" lon="11.7324846"><ele>81.0</ele><time>2026-04-11T11:24:23.974Z</time></trkpt><trkpt lat="45.706022" lon="11.7324311"><ele>81.33333333333333</ele><time>2026-04-11T11:24:24.987Z</time></trkpt><trkpt lat="45.7062117" lon="11.7323785"><ele>81.66666666666666</ele><time>2026-04-11T11:24:25.981Z</time></trkpt><trkpt lat="45.7063963" lon="11.7323298"><ele>82.0</ele><time>2026-04-11T11:24:26.976Z</time></trkpt><trkpt lat="45.7065714" lon="11.732286"><ele>82.0</ele><time>2026-04-11T11:24:27.992Z</time></trkpt><trkpt lat="45.7067413" lon="11.7322464"><ele>82.0</ele><time>2026-04-11T11:24:28.993Z</time></trkpt><trkpt lat="45.7069004" lon="11.7322145"><ele>82.0</ele><time>2026-04-11T11:24:29.984Z</time></trkpt><trkpt lat="45.707048" lon="11.7321884"><ele>82.25</ele><time>2026-04-11T11:24:30.986Z</time></trkpt><trkpt lat="45.7071897" lon="11.7321622"><ele>82.5</ele><time>2026-04-11T11:24:31.991Z</time></trkpt><trkpt lat="45.7073339" lon="11.7321346"><ele>82.75</ele><time>2026-04-11T11:24:32.984Z</time></trkpt><trkpt lat="45.7074812" lon="11.7321009"><ele>83.0</ele><time>2026-04-11T11:24:33.987Z</time></trkpt><trkpt lat="45.7076304" lon="11.732069"><ele>83.25</ele><time>2026-04-11T11:24:34.979Z</time></trkpt><trkpt lat="45.7077755" lon="11.732031"><ele>83.5</ele><time>2026-04-11T11:24:35.977Z</time></trkpt><trkpt lat="45.7079147" lon="11.7319891"><ele>83.75</ele><time>2026-04-11T11:24:36.989Z</time></trkpt><trkpt lat="45.7080574" lon="11.7319507"><ele>84.0</ele><time>2026-04-11T11:24:37.984Z</time></trkpt><trkpt lat="45.7082039" lon="11.7319338"><ele>84.0</ele><time>2026-04-11T11:24:38.978Z</time></trkpt><trkpt lat="45.7083561" lon="11.7319187"><ele>84.0</ele><time>2026-04-11T11:24:39.982Z</time></trkpt><trkpt lat="45.7085006" lon="11.7319061"><ele>84.0</ele><time>2026-04-11T11:24:40.983Z</time></trkpt><trkpt lat="45.7086466" lon="11.7318803"><ele>84.0</ele><time>2026-04-11T11:24:41.979Z</time></trkpt><trkpt lat="45.7087932" lon="11.7318556"><ele>84.0</ele><time>2026-04-11T11:24:42.979Z</time></trkpt><trkpt lat="45.7089384" lon="11.7318292"><ele>84.0</ele><time>2026-04-11T11:24:43.984Z</time></trkpt><trkpt lat="45.7090721" lon="11.731811"><ele>84.0</ele><time>2026-04-11T11:24:44.982Z</time></trkpt><trkpt lat="45.7091895" lon="11.7317988"><ele>84.0</ele><time>2026-04-11T11:24:45.982Z</time></trkpt><trkpt lat="45.7092884" lon="11.7317841"><ele>84.0</ele><time>2026-04-11T11:24:46.977Z</time></trkpt><trkpt lat="45.70936" lon="11.7317692"><ele>84.0</ele><time>2026-04-11T11:24:47.985Z</time></trkpt><trkpt lat="45.7094421" lon="11.7316967"><ele>84.0</ele><time>2026-04-11T11:24:49.979Z</time></trkpt><trkpt lat="45.7094554" lon="11.7315459"><ele>84.0</ele><time>2026-04-11T11:24:51.987Z</time></trkpt><trkpt lat="45.7094723" lon="11.7313944"><ele>84.0</ele><time>2026-04-11T11:24:53.986Z</time></trkpt><trkpt lat="45.7094198" lon="11.7314513"><ele>84.0</ele><time>2026-04-11T11:25:00.997Z</time></trkpt><trkpt lat="45.7094182" lon="11.7315726"><ele>86.0</ele><time>2026-04-11T11:25:03.98Z</time></trkpt></trkseg><trkseg><trkpt lat="45.7094144" lon="11.7316785"><ele>86.0</ele><time>2026-04-11T11:36:58.976Z</time></trkpt><trkpt lat="45.7094613" lon="11.7317503"><ele>86.0</ele><time>2026-04-11T11:37:01.981Z</time></trkpt><trkpt lat="45.7095728" lon="11.7317633"><ele>86.0</ele><time>2026-04-11T11:37:03.979Z</time></trkpt><trkpt lat="45.7096433" lon="11.7317568"><ele>86.0</ele><time>2026-04-11T11:37:04.973Z</time></trkpt><trkpt lat="45.7097135" lon="11.7317521"><ele>86.0</ele><time>2026-04-11T11:37:05.984Z</time></trkpt><trkpt lat="45.7097894" lon="11.7317444"><ele>86.0</ele><time>2026-04-11T11:37:06.978Z</time></trkpt><trkpt lat="45.7098767" lon="11.7317344"><ele>86.0</ele><time>2026-04-11T11:37:07.979Z</time></trkpt><trkpt lat="45.7099703" lon="11.7317282"><ele>86.0</ele><time>2026-04-11T11:37:08.975Z</time></trkpt><trkpt lat="45.7100565" lon="11.7317219"><ele>86.0</ele><time>2026-04-11T11:37:09.981Z</time></trkpt><trkpt lat="45.710145" lon="11.7317173"><ele>86.0</ele><time>2026-04-11T11:37:10.98Z</time></trkpt><trkpt lat="45.7102372" lon="11.7317144"><ele>86.0</ele><time>2026-04-11T11:37:11.993Z</time></trkpt><trkpt lat="45.7103234" lon="11.7317133"><ele>86.0</ele><time>2026-04-11T11:37:12.979Z</time></trkpt><trkpt lat="45.7104114" lon="11.7317106"><ele>85.8</ele><time>2026-04-11T11:37:13.988Z</time></trkpt><trkpt lat="45.7105009" lon="11.7317088"><ele>85.6</ele><time>2026-04-11T11:37:14.981Z</time></trkpt><trkpt lat="45.7105941" lon="11.7317027"><ele>85.4</ele><time>2026-04-11T11:37:15.982Z</time></trkpt><trkpt lat="45.7106959" lon="11.7316971"><ele>85.2</ele><time>2026-04-11T11:37:16.986Z</time></trkpt><trkpt lat="45.7108044" lon="11.7316924"><ele>85.0</ele><time>2026-04-11T11:37:17.975Z</time></trkpt><trkpt lat="45.7109264" lon="11.7316846"><ele>85.0</ele><time>2026-04-11T11:37:18.982Z</time></trkpt><trkpt lat="45.7110502" lon="11.7316744"><ele>85.0</ele><time>2026-04-11T11:37:19.98Z</time></trkpt><trkpt lat="45.7111681" lon="11.7316654"><ele>85.0</ele><time>2026-04-11T11:37:20.986Z</time></trkpt><trkpt lat="45.7112896" lon="11.7316589"><ele>85.0</ele><time>2026-04-11T11:37:21.983Z</time></trkpt><trkpt lat="45.7114136" lon="11.7316558"><ele>85.0</ele><time>2026-04-11T11:37:22.984Z</time></trkpt><trkpt lat="45.7115433" lon="11.7316526"><ele>85.0</ele><time>2026-04-11T11:37:23.975Z</time></trkpt><trkpt lat="45.7116725" lon="11.7316413"><ele>85.0</ele><time>2026-04-11T11:37:24.981Z</time></trkpt><trkpt lat="45.7118073" lon="11.7316319"><ele>85.0</ele><time>2026-04-11T11:37:25.975Z</time></trkpt><trkpt lat="45.7119482" lon="11.7316189"><ele>85.5</ele><time>2026-04-11T11:37:26.973Z</time></trkpt><trkpt lat="45.7120918" lon="11.731607"><ele>86.0</ele><time>2026-04-11T11:37:27.976Z</time></trkpt><trkpt lat="45.7122328" lon="11.7315959"><ele>86.5</ele><time>2026-04-11T11:37:28.977Z</time></trkpt><trkpt lat="45.7123806" lon="11.731586"><ele>87.0</ele><time>2026-04-11T11:37:29.981Z</time></trkpt><trkpt lat="45.71253" lon="11.7315742"><ele>87.0</ele><time>2026-04-11T11:37:30.979Z</time></trkpt><trkpt lat="45.7126787" lon="11.7315659"><ele>87.0</ele><time>2026-04-11T11:37:31.976Z</time></trkpt><trkpt lat="45.7128221" lon="11.7315664"><ele>87.0</ele><time>2026-04-11T11:37:32.983Z</time></trkpt><trkpt lat="45.7129627" lon="11.7315752"><ele>87.0</ele><time>2026-04-11T11:37:33.977Z</time></trkpt><trkpt lat="45.7131027" lon="11.731592"><ele>87.0</ele><time>2026-04-11T11:37:34.976Z</time></trkpt><trkpt lat="45.7132435" lon="11.7316148"><ele>87.0</ele><time>2026-04-11T11:37:35.972Z</time></trkpt><trkpt lat="45.7133827" lon="11.7316435"><ele>87.0</ele><time>2026-04-11T11:37:36.972Z</time></trkpt><trkpt lat="45.7135232" lon="11.7316745"><ele>87.0</ele><time>2026-04-11T11:37:37.979Z</time></trkpt><trkpt lat="45.7136658" lon="11.7317056"><ele>87.0</ele><time>2026-04-11T11:37:38.978Z</time></trkpt><trkpt lat="45.7138095" lon="11.731737"><ele>87.0</ele><time>2026-04-11T11:37:39.982Z</time></trkpt><trkpt lat="45.7139529" lon="11.7317713"><ele>87.0</ele><time>2026-04-11T11:37:40.992Z</time></trkpt><trkpt lat="45.7140969" lon="11.7318091"><ele>87.0</ele><time>2026-04-11T11:37:41.984Z</time></trkpt><trkpt lat="45.7142437" lon="11.7318522"><ele>86.66666666666667</ele><time>2026-04-11T11:37:42.977Z</time></trkpt><trkpt lat="45.7143935" lon="11.7318982"><ele>86.33333333333334</ele><time>2026-04-11T11:37:43.98Z</time></trkpt><trkpt lat="45.7145478" lon="11.7319455"><ele>86.0</ele><time>2026-04-11T11:37:44.975Z</time></trkpt><trkpt lat="45.7147044" lon="11.7319906"><ele>86.66666666666667</ele><time>2026-04-11T11:37:45.986Z</time></trkpt><trkpt lat="45.7148591" lon="11.7320357"><ele>87.33333333333333</ele><time>2026-04-11T11:37:46.978Z</time></trkpt><trkpt lat="45.7150144" lon="11.732081"><ele>88.0</ele><time>2026-04-11T11:37:47.978Z</time></trkpt><trkpt lat="45.7151715" lon="11.7321285"><ele>88.66666666666666</ele><time>2026-04-11T11:37:48.976Z</time></trkpt><trkpt lat="45.7153286" lon="11.7321753"><ele>89.33333333333333</ele><time>2026-04-11T11:37:49.976Z</time></trkpt><trkpt lat="45.7154847" lon="11.7322203"><ele>90.0</ele><time>2026-04-11T11:37:50.989Z</time></trkpt><trkpt lat="45.7156393" lon="11.7322657"><ele>90.0</ele><time>2026-04-11T11:37:51.977Z</time></trkpt><trkpt lat="45.7157943" lon="11.7323124"><ele>90.0</ele><time>2026-04-11T11:37:52.979Z</time></trkpt><trkpt lat="45.7159465" lon="11.7323574"><ele>90.0</ele><time>2026-04-11T11:37:53.98Z</time></trkpt><trkpt lat="45.7161034" lon="11.7324112"><ele>89.66666666666667</ele><time>2026-04-11T11:37:54.979Z</time></trkpt><trkpt lat="45.716255" lon="11.7324483"><ele>89.33333333333334</ele><time>2026-04-11T11:37:55.979Z</time></trkpt><trkpt lat="45.7164022" lon="11.7324888"><ele>89.0</ele><time>2026-04-11T11:37:56.979Z</time></trkpt><trkpt lat="45.7165495" lon="11.7325316"><ele>89.0</ele><time>2026-04-11T11:37:58.011Z</time></trkpt><trkpt lat="45.7166965" lon="11.7325725"><ele>89.0</ele><time>2026-04-11T11:37:58.982Z</time></trkpt><trkpt lat="45.7168451" lon="11.7326139"><ele>89.0</ele><time>2026-04-11T11:37:59.974Z</time></trkpt><trkpt lat="45.7170004" lon="11.7326561"><ele>89.33333333333334</ele><time>2026-04-11T11:38:00.981Z</time></trkpt><trkpt lat="45.7171562" lon="11.7326896"><ele>89.66666666666667</ele><time>2026-04-11T11:38:01.999Z</time></trkpt><trkpt lat="45.7173102" lon="11.7327115"><ele>90.0</ele><time>2026-04-11T11:38:02.981Z</time></trkpt><trkpt lat="45.7174619" lon="11.7327255"><ele>90.0</ele><time>2026-04-11T11:38:03.984Z</time></trkpt><trkpt lat="45.7176119" lon="11.7327329"><ele>90.0</ele><time>2026-04-11T11:38:04.978Z</time></trkpt><trkpt lat="45.7177615" lon="11.7327366"><ele>90.0</ele><time>2026-04-11T11:38:05.978Z</time></trkpt><trkpt lat="45.7179094" lon="11.7327348"><ele>90.0</ele><time>2026-04-11T11:38:06.978Z</time></trkpt><trkpt lat="45.7180579" lon="11.7327344"><ele>90.0</ele><time>2026-04-11T11:38:07.978Z</time></trkpt><trkpt lat="45.7182059" lon="11.7327358"><ele>90.0</ele><time>2026-04-11T11:38:08.973Z</time></trkpt><trkpt lat="45.7183533" lon="11.7327405"><ele>90.0</ele><time>2026-04-11T11:38:09.982Z</time></trkpt><trkpt lat="45.7185009" lon="11.7327513"><ele>90.0</ele><time>2026-04-11T11:38:10.976Z</time></trkpt><trkpt lat="45.7186477" lon="11.7327674"><ele>90.25</ele><time>2026-04-11T11:38:11.981Z</time></trkpt><trkpt lat="45.7187928" lon="11.7327842"><ele>90.5</ele><time>2026-04-11T11:38:12.978Z</time></trkpt><trkpt lat="45.7189385" lon="11.7328004"><ele>90.75</ele><time>2026-04-11T11:38:13.985Z</time></trkpt><trkpt lat="45.7190888" lon="11.7328154"><ele>91.0</ele><time>2026-04-11T11:38:14.992Z</time></trkpt><trkpt lat="45.7192379" lon="11.7328337"><ele>91.0</ele><time>2026-04-11T11:38:15.985Z</time></trkpt><trkpt lat="45.7193883" lon="11.7328547"><ele>91.0</ele><time>2026-04-11T11:38:16.979Z</time></trkpt><trkpt lat="45.7195376" lon="11.7328748"><ele>91.0</ele><time>2026-04-11T11:38:17.982Z</time></trkpt><trkpt lat="45.7196885" lon="11.7328939"><ele>91.5</ele><time>2026-04-11T11:38:18.985Z</time></trkpt><trkpt lat="45.7198383" lon="11.7329176"><ele>92.0</ele><time>2026-04-11T11:38:19.978Z</time></trkpt><trkpt lat="45.7199841" lon="11.7329366"><ele>92.5</ele><time>2026-04-11T11:38:20.986Z</time></trkpt><trkpt lat="45.7201173" lon="11.7329548"><ele>93.0</ele><time>2026-04-11T11:38:21.98Z</time></trkpt><trkpt lat="45.7202413" lon="11.7329723"><ele>93.0</ele><time>2026-04-11T11:38:22.977Z</time></trkpt><trkpt lat="45.7203661" lon="11.7329898"><ele>93.0</ele><time>2026-04-11T11:38:24.012Z</time></trkpt><trkpt lat="45.7204837" lon="11.7330077"><ele>93.0</ele><time>2026-04-11T11:38:24.988Z</time></trkpt><trkpt lat="45.7205894" lon="11.7330229"><ele>93.0</ele><time>2026-04-11T11:38:25.977Z</time></trkpt><trkpt lat="45.720678" lon="11.7330348"><ele>93.0</ele><time>2026-04-11T11:38:27.023Z</time></trkpt><trkpt lat="45.7207422" lon="11.7330461"><ele>93.0</ele><time>2026-04-11T11:38:27.983Z</time></trkpt><trkpt lat="45.7208393" lon="11.7330887"><ele>93.0</ele><time>2026-04-11T11:38:29.979Z</time></trkpt><trkpt lat="45.7209521" lon="11.7331521"><ele>93.0</ele><time>2026-04-11T11:38:31.979Z</time></trkpt><trkpt lat="45.7210228" lon="11.7331589"><ele>93.0</ele><time>2026-04-11T11:38:32.987Z</time></trkpt><trkpt lat="45.7211053" lon="11.7331604"><ele>93.0</ele><time>2026-04-11T11:38:33.977Z</time></trkpt><trkpt lat="45.7211975" lon="11.7331796"><ele>92.25</ele><time>2026-04-11T11:38:34.983Z</time></trkpt><trkpt lat="45.7212993" lon="11.7332198"><ele>91.5</ele><time>2026-04-11T11:38:35.982Z</time></trkpt><trkpt lat="45.7214103" lon="11.7332663"><ele>90.75</ele><time>2026-04-11T11:38:36.979Z</time></trkpt><trkpt lat="45.7215392" lon="11.7332866"><ele>90.0</ele><time>2026-04-11T11:38:37.977Z</time></trkpt><trkpt lat="45.7216722" lon="11.7332901"><ele>90.0</ele><time>2026-04-11T11:38:38.985Z</time></trkpt><trkpt lat="45.7217992" lon="11.7332877"><ele>90.0</ele><time>2026-04-11T11:38:39.981Z</time></trkpt><trkpt lat="45.7219273" lon="11.7332848"><ele>90.0</ele><time>2026-04-11T11:38:40.985Z</time></trkpt><trkpt lat="45.7220624" lon="11.7332846"><ele>90.0</ele><time>2026-04-11T11:38:41.983Z</time></trkpt><trkpt lat="45.7221955" lon="11.7332861"><ele>90.5</ele><time>2026-04-11T11:38:42.975Z</time></trkpt><trkpt lat="45.7223352" lon="11.7332845"><ele>91.0</ele><time>2026-04-11T11:38:43.982Z</time></trkpt><trkpt lat="45.7224767" lon="11.7332841"><ele>91.5</ele><time>2026-04-11T11:38:44.987Z</time></trkpt><trkpt lat="45.7226186" lon="11.7332826"><ele>92.0</ele><time>2026-04-11T11:38:45.985Z</time></trkpt><trkpt lat="45.7227629" lon="11.7332734"><ele>92.5</ele><time>2026-04-11T11:38:46.98Z</time></trkpt><trkpt lat="45.7229097" lon="11.7332565"><ele>93.0</ele><time>2026-04-11T11:38:47.982Z</time></trkpt><trkpt lat="45.7230575" lon="11.733235"><ele>93.5</ele><time>2026-04-11T11:38:48.977Z</time></trkpt><trkpt lat="45.7232074" lon="11.7332098"><ele>94.0</ele><time>2026-04-11T11:38:49.985Z</time></trkpt><trkpt lat="45.7233576" lon="11.7331844"><ele>94.0</ele><time>2026-04-11T11:38:50.982Z</time></trkpt><trkpt lat="45.7235094" lon="11.7331605"><ele>94.0</ele><time>2026-04-11T11:38:51.994Z</time></trkpt><trkpt lat="45.7236598" lon="11.7331369"><ele>94.0</ele><time>2026-04-11T11:38:52.98Z</time></trkpt><trkpt lat="45.7238083" lon="11.7331126"><ele>94.0</ele><time>2026-04-11T11:38:53.976Z</time></trkpt><trkpt lat="45.723957" lon="11.7330908"><ele>94.0</ele><time>2026-04-11T11:38:54.978Z</time></trkpt><trkpt lat="45.7241057" lon="11.7330764"><ele>94.0</ele><time>2026-04-11T11:38:55.984Z</time></trkpt><trkpt lat="45.7242557" lon="11.7330756"><ele>94.0</ele><time>2026-04-11T11:38:56.991Z</time></trkpt><trkpt lat="45.7244089" lon="11.7330878"><ele>94.66666666666666</ele><time>2026-04-11T11:38:57.985Z</time></trkpt><trkpt lat="45.7245669" lon="11.7331146"><ele>95.33333333333333</ele><time>2026-04-11T11:38:58.976Z</time></trkpt><trkpt lat="45.7247255" lon="11.7331531"><ele>96.0</ele><time>2026-04-11T11:38:59.988Z</time></trkpt><trkpt lat="45.724881" lon="11.7331994"><ele>96.0</ele><time>2026-04-11T11:39:00.99Z</time></trkpt><trkpt lat="45.7250355" lon="11.733248"><ele>96.0</ele><time>2026-04-11T11:39:01.976Z</time></trkpt><trkpt lat="45.7251902" lon="11.7332935"><ele>96.0</ele><time>2026-04-11T11:39:02.983Z</time></trkpt><trkpt lat="45.7253438" lon="11.7333371"><ele>95.0</ele><time>2026-04-11T11:39:03.977Z</time></trkpt><trkpt lat="45.7254964" lon="11.7333827"><ele>94.0</ele><time>2026-04-11T11:39:04.984Z</time></trkpt><trkpt lat="45.7256483" lon="11.7334268"><ele>93.0</ele><time>2026-04-11T11:39:05.977Z</time></trkpt><trkpt lat="45.7257994" lon="11.7334708"><ele>93.0</ele><time>2026-04-11T11:39:06.987Z</time></trkpt><trkpt lat="45.7259484" lon="11.7335139"><ele>93.0</ele><time>2026-04-11T11:39:07.984Z</time></trkpt><trkpt lat="45.7260955" lon="11.733556"><ele>93.0</ele><time>2026-04-11T11:39:08.986Z</time></trkpt><trkpt lat="45.726232" lon="11.7335962"><ele>93.0</ele><time>2026-04-11T11:39:09.981Z</time></trkpt><trkpt lat="45.7263629" lon="11.7336345"><ele>93.80000000000001</ele><time>2026-04-11T11:39:10.978Z</time></trkpt><trkpt lat="45.7264833" lon="11.7336692"><ele>94.6</ele><time>2026-04-11T11:39:11.97Z</time></trkpt><trkpt lat="45.7265912" lon="11.7337019"><ele>95.4</ele><time>2026-04-11T11:39:12.996Z</time></trkpt><trkpt lat="45.726693" lon="11.7337487"><ele>96.19999999999999</ele><time>2026-04-11T11:39:13.98Z</time></trkpt><trkpt lat="45.7267807" lon="11.7338319"><ele>97.0</ele><time>2026-04-11T11:39:14.975Z</time></trkpt><trkpt lat="45.7268527" lon="11.7339492"><ele>97.0</ele><time>2026-04-11T11:39:15.978Z</time></trkpt><trkpt lat="45.7269168" lon="11.7340718"><ele>97.0</ele><time>2026-04-11T11:39:16.976Z</time></trkpt><trkpt lat="45.7269862" lon="11.7341874"><ele>97.0</ele><time>2026-04-11T11:39:18.022Z</time></trkpt><trkpt lat="45.7270736" lon="11.7342702"><ele>97.0</ele><time>2026-04-11T11:39:18.983Z</time></trkpt><trkpt lat="45.7271835" lon="11.7343114"><ele>97.0</ele><time>2026-04-11T11:39:19.986Z</time></trkpt><trkpt lat="45.7273001" lon="11.7343294"><ele>97.0</ele><time>2026-04-11T11:39:20.98Z</time></trkpt><trkpt lat="45.7274281" lon="11.734329"><ele>97.0</ele><time>2026-04-11T11:39:21.986Z</time></trkpt><trkpt lat="45.7275621" lon="11.7343195"><ele>97.0</ele><time>2026-04-11T11:39:22.973Z</time></trkpt><trkpt lat="45.7276942" lon="11.7343135"><ele>97.0</ele><time>2026-04-11T11:39:23.988Z</time></trkpt><trkpt lat="45.7278247" lon="11.7343052"><ele>96.75</ele><time>2026-04-11T11:39:24.973Z</time></trkpt><trkpt lat="45.7279581" lon="11.7342963"><ele>96.5</ele><time>2026-04-11T11:39:25.984Z</time></trkpt><trkpt lat="45.7280964" lon="11.7342936"><ele>96.25</ele><time>2026-04-11T11:39:26.977Z</time></trkpt><trkpt lat="45.728231" lon="11.7342852"><ele>96.0</ele><time>2026-04-11T11:39:27.988Z</time></trkpt><trkpt lat="45.7283633" lon="11.7342646"><ele>96.0</ele><time>2026-04-11T11:39:28.981Z</time></trkpt><trkpt lat="45.728498" lon="11.7342213"><ele>96.0</ele><time>2026-04-11T11:39:29.982Z</time></trkpt><trkpt lat="45.7286373" lon="11.7341596"><ele>96.0</ele><time>2026-04-11T11:39:30.975Z</time></trkpt><trkpt lat="45.7287826" lon="11.7340894"><ele>96.0</ele><time>2026-04-11T11:39:31.983Z</time></trkpt><trkpt lat="45.7289269" lon="11.7340218"><ele>96.0</ele><time>2026-04-11T11:39:32.979Z</time></trkpt><trkpt lat="45.7290648" lon="11.7339548"><ele>96.0</ele><time>2026-04-11T11:39:33.981Z</time></trkpt><trkpt lat="45.7291951" lon="11.7338926"><ele>96.0</ele><time>2026-04-11T11:39:34.981Z</time></trkpt><trkpt lat="45.7293283" lon="11.7338339"><ele>96.0</ele><time>2026-04-11T11:39:35.977Z</time></trkpt><trkpt lat="45.7294582" lon="11.7337755"><ele>96.25</ele><time>2026-04-11T11:39:36.977Z</time></trkpt><trkpt lat="45.7295847" lon="11.7337191"><ele>96.5</ele><time>2026-04-11T11:39:37.98Z</time></trkpt><trkpt lat="45.72971" lon="11.7336654"><ele>96.75</ele><time>2026-04-11T11:39:38.979Z</time></trkpt><trkpt lat="45.7298405" lon="11.7336216"><ele>97.0</ele><time>2026-04-11T11:39:39.976Z</time></trkpt><trkpt lat="45.7299797" lon="11.7335909"><ele>97.0</ele><time>2026-04-11T11:39:40.977Z</time></trkpt><trkpt lat="45.7301265" lon="11.7335786"><ele>97.0</ele><time>2026-04-11T11:39:41.978Z</time></trkpt><trkpt lat="45.7302816" lon="11.7335783"><ele>97.0</ele><time>2026-04-11T11:39:42.978Z</time></trkpt><trkpt lat="45.7304389" lon="11.7335832"><ele>97.33333333333334</ele><time>2026-04-11T11:39:43.976Z</time></trkpt><trkpt lat="45.7305982" lon="11.7335889"><ele>97.66666666666666</ele><time>2026-04-11T11:39:44.984Z</time></trkpt><trkpt lat="45.7307606" lon="11.7335936"><ele>98.0</ele><time>2026-04-11T11:39:45.978Z</time></trkpt><trkpt lat="45.7309237" lon="11.7335974"><ele>97.66666666666666</ele><time>2026-04-11T11:39:46.977Z</time></trkpt><trkpt lat="45.7310919" lon="11.7335982"><ele>97.33333333333334</ele><time>2026-04-11T11:39:47.976Z</time></trkpt><trkpt lat="45.7312639" lon="11.7336037"><ele>97.0</ele><time>2026-04-11T11:39:48.989Z</time></trkpt><trkpt lat="45.731437" lon="11.7336056"><ele>97.0</ele><time>2026-04-11T11:39:49.982Z</time></trkpt><trkpt lat="45.7316181" lon="11.733594"><ele>97.0</ele><time>2026-04-11T11:39:50.975Z</time></trkpt><trkpt lat="45.7318001" lon="11.7335682"><ele>97.0</ele><time>2026-04-11T11:39:51.981Z</time></trkpt><trkpt lat="45.7319671" lon="11.7335353"><ele>97.25</ele><time>2026-04-11T11:39:52.986Z</time></trkpt><trkpt lat="45.7321146" lon="11.7335043"><ele>97.5</ele><time>2026-04-11T11:39:53.982Z</time></trkpt><trkpt lat="45.7322422" lon="11.7334737"><ele>97.75</ele><time>2026-04-11T11:39:54.977Z</time></trkpt><trkpt lat="45.732355" lon="11.7334449"><ele>98.0</ele><time>2026-04-11T11:39:55.985Z</time></trkpt><trkpt lat="45.7324554" lon="11.7334215"><ele>98.0</ele><time>2026-04-11T11:39:56.98Z</time></trkpt><trkpt lat="45.7325477" lon="11.7334116"><ele>98.0</ele><time>2026-04-11T11:39:57.974Z</time></trkpt><trkpt lat="45.732637" lon="11.7334216"><ele>98.0</ele><time>2026-04-11T11:39:58.98Z</time></trkpt><trkpt lat="45.7327274" lon="11.733454"><ele>98.0</ele><time>2026-04-11T11:39:59.988Z</time></trkpt><trkpt lat="45.7328221" lon="11.7334752"><ele>98.0</ele><time>2026-04-11T11:40:00.984Z</time></trkpt><trkpt lat="45.7329198" lon="11.7334431"><ele>98.0</ele><time>2026-04-11T11:40:01.975Z</time></trkpt><trkpt lat="45.7330261" lon="11.7333768"><ele>98.0</ele><time>2026-04-11T11:40:02.982Z</time></trkpt><trkpt lat="45.7331359" lon="11.7333183"><ele>98.0</ele><time>2026-04-11T11:40:03.985Z</time></trkpt><trkpt lat="45.7332576" lon="11.7332711"><ele>98.0</ele><time>2026-04-11T11:40:04.977Z</time></trkpt><trkpt lat="45.733386" lon="11.733241"><ele>98.0</ele><time>2026-04-11T11:40:05.982Z</time></trkpt><trkpt lat="45.7335217" lon="11.7332126"><ele>98.0</ele><time>2026-04-11T11:40:06.979Z</time></trkpt><trkpt lat="45.7336609" lon="11.7331827"><ele>98.0</ele><time>2026-04-11T11:40:07.984Z</time></trkpt><trkpt lat="45.7338028" lon="11.7331505"><ele>98.0</ele><time>2026-04-11T11:40:08.973Z</time></trkpt><trkpt lat="45.7339483" lon="11.7331141"><ele>99.0</ele><time>2026-04-11T11:40:09.977Z</time></trkpt><trkpt lat="45.7340968" lon="11.7330719"><ele>100.0</ele><time>2026-04-11T11:40:10.974Z</time></trkpt><trkpt lat="45.7342479" lon="11.7330215"><ele>101.0</ele><time>2026-04-11T11:40:11.985Z</time></trkpt><trkpt lat="45.734395" lon="11.7329614"><ele>101.0</ele><time>2026-04-11T11:40:12.977Z</time></trkpt><trkpt lat="45.7345447" lon="11.7328989"><ele>101.0</ele><time>2026-04-11T11:40:13.98Z</time></trkpt><trkpt lat="45.7346947" lon="11.7328419"><ele>101.0</ele><time>2026-04-11T11:40:14.977Z</time></trkpt><trkpt lat="45.734844" lon="11.7328012"><ele>101.0</ele><time>2026-04-11T11:40:15.985Z</time></trkpt><trkpt lat="45.7349963" lon="11.7327768"><ele>101.0</ele><time>2026-04-11T11:40:16.985Z</time></trkpt><trkpt lat="45.735147" lon="11.7327723"><ele>101.0</ele><time>2026-04-11T11:40:17.986Z</time></trkpt><trkpt lat="45.7352953" lon="11.7327809"><ele>101.0</ele><time>2026-04-11T11:40:18.981Z</time></trkpt><trkpt lat="45.7354401" lon="11.7327908"><ele>101.0</ele><time>2026-04-11T11:40:19.976Z</time></trkpt><trkpt lat="45.7355861" lon="11.732795"><ele>101.0</ele><time>2026-04-11T11:40:20.98Z</time></trkpt><trkpt lat="45.7357257" lon="11.7327568"><ele>101.0</ele><time>2026-04-11T11:40:21.985Z</time></trkpt><trkpt lat="45.7358663" lon="11.7327112"><ele>100.75</ele><time>2026-04-11T11:40:22.974Z</time></trkpt><trkpt lat="45.7359947" lon="11.7326593"><ele>100.5</ele><time>2026-04-11T11:40:23.972Z</time></trkpt><trkpt lat="45.736111" lon="11.7326189"><ele>100.25</ele><time>2026-04-11T11:40:24.976Z</time></trkpt><trkpt lat="45.7362228" lon="11.7325905"><ele>100.0</ele><time>2026-04-11T11:40:25.977Z</time></trkpt><trkpt lat="45.7363327" lon="11.7325696"><ele>99.8</ele><time>2026-04-11T11:40:26.973Z</time></trkpt><trkpt lat="45.736439" lon="11.7325497"><ele>99.6</ele><time>2026-04-11T11:40:27.976Z</time></trkpt><trkpt lat="45.7365386" lon="11.7325054"><ele>99.4</ele><time>2026-04-11T11:40:28.977Z</time></trkpt><trkpt lat="45.7366189" lon="11.7324283"><ele>99.2</ele><time>2026-04-11T11:40:29.973Z</time></trkpt><trkpt lat="45.7366839" lon="11.7323175"><ele>99.0</ele><time>2026-04-11T11:40:30.971Z</time></trkpt><trkpt lat="45.7367221" lon="11.7321865"><ele>99.0</ele><time>2026-04-11T11:40:31.976Z</time></trkpt><trkpt lat="45.7367356" lon="11.7320466"><ele>99.0</ele><time>2026-04-11T11:40:32.979Z</time></trkpt><trkpt lat="45.7367491" lon="11.7319077"><ele>99.0</ele><time>2026-04-11T11:40:33.976Z</time></trkpt><trkpt lat="45.7367845" lon="11.7317707"><ele>99.0</ele><time>2026-04-11T11:40:34.98Z</time></trkpt><trkpt lat="45.7368408" lon="11.7316377"><ele>99.0</ele><time>2026-04-11T11:40:35.976Z</time></trkpt><trkpt lat="45.7369023" lon="11.7315115"><ele>99.2</ele><time>2026-04-11T11:40:36.986Z</time></trkpt><trkpt lat="45.7369947" lon="11.7314112"><ele>99.4</ele><time>2026-04-11T11:40:37.977Z</time></trkpt><trkpt lat="45.7370926" lon="11.7313349"><ele>99.6</ele><time>2026-04-11T11:40:38.975Z</time></trkpt><trkpt lat="45.7371971" lon="11.7312807"><ele>99.8</ele><time>2026-04-11T11:40:39.985Z</time></trkpt><trkpt lat="45.7373005" lon="11.7312521"><ele>100.0</ele><time>2026-04-11T11:40:40.987Z</time></trkpt><trkpt lat="45.7373979" lon="11.7312474"><ele>100.00000000000001</ele><time>2026-04-11T11:40:41.978Z</time></trkpt><trkpt lat="45.7374885" lon="11.7312649"><ele>100.0</ele><time>2026-04-11T11:40:42.987Z</time></trkpt><trkpt lat="45.7375688" lon="11.7312968"><ele>100.0</ele><time>2026-04-11T11:40:43.973Z</time></trkpt><trkpt lat="45.737638" lon="11.731334"><ele>100.0</ele><time>2026-04-11T11:40:44.975Z</time></trkpt><trkpt lat="45.7376997" lon="11.7313757"><ele>100.00000000000001</ele><time>2026-04-11T11:40:45.979Z</time></trkpt><trkpt lat="45.7377623" lon="11.7314286"><ele>100.0</ele><time>2026-04-11T11:40:46.98Z</time></trkpt><trkpt lat="45.7378148" lon="11.7315037"><ele>100.0</ele><time>2026-04-11T11:40:47.977Z</time></trkpt><trkpt lat="45.7378419" lon="11.7316031"><ele>100.0</ele><time>2026-04-11T11:40:48.983Z</time></trkpt><trkpt lat="45.7378436" lon="11.7317198"><ele>100.0</ele><time>2026-04-11T11:40:49.986Z</time></trkpt><trkpt lat="45.7378296" lon="11.7318565"><ele>100.0</ele><time>2026-04-11T11:40:50.987Z</time></trkpt><trkpt lat="45.7378046" lon="11.7320157"><ele>100.0</ele><time>2026-04-11T11:40:51.981Z</time></trkpt><trkpt lat="45.7377716" lon="11.7321867"><ele>100.0</ele><time>2026-04-11T11:40:52.984Z</time></trkpt><trkpt lat="45.7377307" lon="11.732367"><ele>100.0</ele><time>2026-04-11T11:40:53.986Z</time></trkpt><trkpt lat="45.7376851" lon="11.7325582"><ele>100.0</ele><time>2026-04-11T11:40:54.978Z</time></trkpt><trkpt lat="45.737637" lon="11.7327656"><ele>100.0</ele><time>2026-04-11T11:40:55.98Z</time></trkpt><trkpt lat="45.7375855" lon="11.73298"><ele>100.0</ele><time>2026-04-11T11:40:56.977Z</time></trkpt><trkpt lat="45.7375339" lon="11.7331988"><ele>100.0</ele><time>2026-04-11T11:40:57.974Z</time></trkpt><trkpt lat="45.7374799" lon="11.7334223"><ele>100.0</ele><time>2026-04-11T11:40:58.979Z</time></trkpt><trkpt lat="45.7374245" lon="11.7336487"><ele>100.66666666666667</ele><time>2026-04-11T11:40:59.976Z</time></trkpt><trkpt lat="45.7373717" lon="11.7338746"><ele>101.33333333333334</ele><time>2026-04-11T11:41:00.98Z</time></trkpt><trkpt lat="45.7373185" lon="11.7341009"><ele>102.0</ele><time>2026-04-11T11:41:01.981Z</time></trkpt><trkpt lat="45.7372656" lon="11.7343278"><ele>101.33333333333334</ele><time>2026-04-11T11:41:02.984Z</time></trkpt><trkpt lat="45.7372131" lon="11.7345528"><ele>100.66666666666667</ele><time>2026-04-11T11:41:03.984Z</time></trkpt><trkpt lat="45.73716" lon="11.7347773"><ele>100.0</ele><time>2026-04-11T11:41:04.98Z</time></trkpt><trkpt lat="45.737109" lon="11.7349961"><ele>100.0</ele><time>2026-04-11T11:41:05.973Z</time></trkpt><trkpt lat="45.7370602" lon="11.7352044"><ele>100.0</ele><time>2026-04-11T11:41:06.986Z</time></trkpt><trkpt lat="45.7370102" lon="11.7354115"><ele>100.0</ele><time>2026-04-11T11:41:07.983Z</time></trkpt><trkpt lat="45.7369586" lon="11.735625"><ele>100.0</ele><time>2026-04-11T11:41:08.986Z</time></trkpt><trkpt lat="45.7369082" lon="11.7358366"><ele>100.0</ele><time>2026-04-11T11:41:09.977Z</time></trkpt><trkpt lat="45.7368577" lon="11.7360447"><ele>100.0</ele><time>2026-04-11T11:41:10.977Z</time></trkpt><trkpt lat="45.7368067" lon="11.7362577"><ele>100.0</ele><time>2026-04-11T11:41:11.983Z</time></trkpt><trkpt lat="45.7367553" lon="11.7364724"><ele>100.0</ele><time>2026-04-11T11:41:12.98Z</time></trkpt><trkpt lat="45.7367036" lon="11.7366864"><ele>100.0</ele><time>2026-04-11T11:41:13.972Z</time></trkpt><trkpt lat="45.7366515" lon="11.7369017"><ele>100.33333333333334</ele><time>2026-04-11T11:41:14.976Z</time></trkpt><trkpt lat="45.7365986" lon="11.737116"><ele>100.66666666666666</ele><time>2026-04-11T11:41:15.987Z</time></trkpt><trkpt lat="45.7365432" lon="11.7373331"><ele>101.0</ele><time>2026-04-11T11:41:16.982Z</time></trkpt><trkpt lat="45.7364871" lon="11.737556"><ele>101.0</ele><time>2026-04-11T11:41:17.977Z</time></trkpt><trkpt lat="45.7364297" lon="11.7377841"><ele>101.0</ele><time>2026-04-11T11:41:18.979Z</time></trkpt><trkpt lat="45.7363726" lon="11.7380158"><ele>101.0</ele><time>2026-04-11T11:41:19.983Z</time></trkpt><trkpt lat="45.736318" lon="11.738246"><ele>101.0</ele><time>2026-04-11T11:41:20.988Z</time></trkpt><trkpt lat="45.7362662" lon="11.7384666"><ele>101.0</ele><time>2026-04-11T11:41:21.982Z</time></trkpt><trkpt lat="45.7362265" lon="11.7386955"><ele>101.0</ele><time>2026-04-11T11:41:22.98Z</time></trkpt><trkpt lat="45.7361895" lon="11.7389191"><ele>100.66666666666666</ele><time>2026-04-11T11:41:23.979Z</time></trkpt><trkpt lat="45.7361532" lon="11.7391479"><ele>100.33333333333334</ele><time>2026-04-11T11:41:24.981Z</time></trkpt><trkpt lat="45.7361199" lon="11.7393777"><ele>100.0</ele><time>2026-04-11T11:41:25.977Z</time></trkpt><trkpt lat="45.736091" lon="11.7396064"><ele>100.0</ele><time>2026-04-11T11:41:26.973Z</time></trkpt><trkpt lat="45.7360673" lon="11.7398335"><ele>100.0</ele><time>2026-04-11T11:41:27.984Z</time></trkpt><trkpt lat="45.7360489" lon="11.7400477"><ele>100.0</ele><time>2026-04-11T11:41:28.978Z</time></trkpt><trkpt lat="45.7360346" lon="11.740245"><ele>100.0</ele><time>2026-04-11T11:41:29.979Z</time></trkpt><trkpt lat="45.7360233" lon="11.7404298"><ele>100.0</ele><time>2026-04-11T11:41:30.978Z</time></trkpt><trkpt lat="45.7360146" lon="11.7406094"><ele>100.0</ele><time>2026-04-11T11:41:31.977Z</time></trkpt><trkpt lat="45.7360098" lon="11.7407799"><ele>100.0</ele><time>2026-04-11T11:41:32.99Z</time></trkpt><trkpt lat="45.7360127" lon="11.7409346"><ele>100.0</ele><time>2026-04-11T11:41:33.985Z</time></trkpt><trkpt lat="45.7360211" lon="11.7410762"><ele>100.6</ele><time>2026-04-11T11:41:34.985Z</time></trkpt><trkpt lat="45.7360337" lon="11.7411974"><ele>101.2</ele><time>2026-04-11T11:41:35.979Z</time></trkpt><trkpt lat="45.7360448" lon="11.7413203"><ele>101.80000000000001</ele><time>2026-04-11T11:41:36.984Z</time></trkpt><trkpt lat="45.7360418" lon="11.741455"><ele>102.4</ele><time>2026-04-11T11:41:37.983Z</time></trkpt><trkpt lat="45.7360409" lon="11.7415912"><ele>103.0</ele><time>2026-04-11T11:41:39.032Z</time></trkpt><trkpt lat="45.7360684" lon="11.7417283"><ele>103.0</ele><time>2026-04-11T11:41:39.981Z</time></trkpt><trkpt lat="45.7361294" lon="11.7418445"><ele>103.0</ele><time>2026-04-11T11:41:40.975Z</time></trkpt><trkpt lat="45.7362126" lon="11.7419277"><ele>103.0</ele><time>2026-04-11T11:41:42.027Z</time></trkpt><trkpt lat="45.7362997" lon="11.7419853"><ele>103.0</ele><time>2026-04-11T11:41:42.982Z</time></trkpt><trkpt lat="45.7363834" lon="11.7420541"><ele>103.0</ele><time>2026-04-11T11:41:43.981Z</time></trkpt><trkpt lat="45.7364502" lon="11.7421735"><ele>103.0</ele><time>2026-04-11T11:41:45.027Z</time></trkpt><trkpt lat="45.7364934" lon="11.7423301"><ele>103.0</ele><time>2026-04-11T11:41:45.985Z</time></trkpt><trkpt lat="45.7365088" lon="11.7425086"><ele>103.0</ele><time>2026-04-11T11:41:46.978Z</time></trkpt><trkpt lat="45.7365077" lon="11.7427016"><ele>103.0</ele><time>2026-04-11T11:41:47.982Z</time></trkpt><trkpt lat="45.7365004" lon="11.7429089"><ele>103.0</ele><time>2026-04-11T11:41:48.979Z</time></trkpt><trkpt lat="45.7364933" lon="11.7431247"><ele>103.0</ele><time>2026-04-11T11:41:49.981Z</time></trkpt><trkpt lat="45.7364835" lon="11.743346"><ele>103.0</ele><time>2026-04-11T11:41:50.982Z</time></trkpt><trkpt lat="45.736472" lon="11.7435786"><ele>102.66666666666667</ele><time>2026-04-11T11:41:51.98Z</time></trkpt><trkpt lat="45.7364583" lon="11.7438189"><ele>102.33333333333334</ele><time>2026-04-11T11:41:52.977Z</time></trkpt><trkpt lat="45.7364472" lon="11.7440799"><ele>102.0</ele><time>2026-04-11T11:41:53.982Z</time></trkpt><trkpt lat="45.7364338" lon="11.744339"><ele>101.66666666666666</ele><time>2026-04-11T11:41:54.984Z</time></trkpt><trkpt lat="45.736422" lon="11.7445991"><ele>101.33333333333333</ele><time>2026-04-11T11:41:55.984Z</time></trkpt><trkpt lat="45.7364121" lon="11.7448596"><ele>101.0</ele><time>2026-04-11T11:41:57.018Z</time></trkpt><trkpt lat="45.7363998" lon="11.745124"><ele>101.33333333333333</ele><time>2026-04-11T11:41:57.98Z</time></trkpt><trkpt lat="45.7363917" lon="11.745385"><ele>101.66666666666666</ele><time>2026-04-11T11:41:58.977Z</time></trkpt><trkpt lat="45.7363811" lon="11.7456401"><ele>102.0</ele><time>2026-04-11T11:41:59.981Z</time></trkpt><trkpt lat="45.7363713" lon="11.7458901"><ele>101.0</ele><time>2026-04-11T11:42:00.978Z</time></trkpt><trkpt lat="45.7363598" lon="11.7461437"><ele>100.0</ele><time>2026-04-11T11:42:01.975Z</time></trkpt><trkpt lat="45.7363483" lon="11.7464012"><ele>99.0</ele><time>2026-04-11T11:42:02.981Z</time></trkpt><trkpt lat="45.7363359" lon="11.7466623"><ele>99.66666666666666</ele><time>2026-04-11T11:42:03.983Z</time></trkpt><trkpt lat="45.7363245" lon="11.7469272"><ele>100.33333333333333</ele><time>2026-04-11T11:42:04.98Z</time></trkpt><trkpt lat="45.7363138" lon="11.7471955"><ele>101.0</ele><time>2026-04-11T11:42:05.972Z</time></trkpt><trkpt lat="45.7363023" lon="11.7474657"><ele>101.66666666666666</ele><time>2026-04-11T11:42:06.977Z</time></trkpt><trkpt lat="45.7362891" lon="11.7477406"><ele>102.33333333333334</ele><time>2026-04-11T11:42:07.982Z</time></trkpt><trkpt lat="45.7362757" lon="11.7480199"><ele>103.0</ele><time>2026-04-11T11:42:08.985Z</time></trkpt><trkpt lat="45.7362648" lon="11.7483046"><ele>102.66666666666667</ele><time>2026-04-11T11:42:09.985Z</time></trkpt><trkpt lat="45.7362546" lon="11.7485927"><ele>102.33333333333334</ele><time>2026-04-11T11:42:10.978Z</time></trkpt><trkpt lat="45.7362458" lon="11.7488877"><ele>102.0</ele><time>2026-04-11T11:42:11.978Z</time></trkpt><trkpt lat="45.7362391" lon="11.7491832"><ele>102.0</ele><time>2026-04-11T11:42:12.983Z</time></trkpt><trkpt lat="45.7362351" lon="11.7494769"><ele>102.0</ele><time>2026-04-11T11:42:13.969Z</time></trkpt><trkpt lat="45.7362297" lon="11.749769"><ele>102.0</ele><time>2026-04-11T11:42:14.97Z</time></trkpt><trkpt lat="45.7362243" lon="11.7500649"><ele>102.33333333333334</ele><time>2026-04-11T11:42:15.974Z</time></trkpt><trkpt lat="45.7362192" lon="11.7503581"><ele>102.66666666666667</ele><time>2026-04-11T11:42:16.972Z</time></trkpt><trkpt lat="45.736221" lon="11.7506626"><ele>103.0</ele><time>2026-04-11T11:42:17.992Z</time></trkpt><trkpt lat="45.7362349" lon="11.7509537"><ele>103.33333333333334</ele><time>2026-04-11T11:42:18.982Z</time></trkpt><trkpt lat="45.7362472" lon="11.7512329"><ele>103.66666666666666</ele><time>2026-04-11T11:42:19.973Z</time></trkpt><trkpt lat="45.7362599" lon="11.7515009"><ele>104.0</ele><time>2026-04-11T11:42:20.977Z</time></trkpt><trkpt lat="45.7362749" lon="11.7517633"><ele>103.66666666666666</ele><time>2026-04-11T11:42:21.976Z</time></trkpt><trkpt lat="45.7362946" lon="11.7520251"><ele>103.33333333333334</ele><time>2026-04-11T11:42:22.971Z</time></trkpt><trkpt lat="45.7363131" lon="11.7522867"><ele>103.0</ele><time>2026-04-11T11:42:23.97Z</time></trkpt><trkpt lat="45.73634" lon="11.7525535"><ele>102.0</ele><time>2026-04-11T11:42:25.014Z</time></trkpt><trkpt lat="45.7363692" lon="11.7528298"><ele>101.0</ele><time>2026-04-11T11:42:25.975Z</time></trkpt><trkpt lat="45.7364007" lon="11.7531074"><ele>100.0</ele><time>2026-04-11T11:42:26.977Z</time></trkpt><trkpt lat="45.7364317" lon="11.7533895"><ele>100.33333333333334</ele><time>2026-04-11T11:42:27.981Z</time></trkpt><trkpt lat="45.7364637" lon="11.7536719"><ele>100.66666666666666</ele><time>2026-04-11T11:42:28.992Z</time></trkpt><trkpt lat="45.7364994" lon="11.7539496"><ele>101.0</ele><time>2026-04-11T11:42:29.972Z</time></trkpt><trkpt lat="45.7365344" lon="11.7542257"><ele>100.33333333333333</ele><time>2026-04-11T11:42:30.978Z</time></trkpt><trkpt lat="45.7365717" lon="11.7545013"><ele>99.66666666666666</ele><time>2026-04-11T11:42:31.979Z</time></trkpt><trkpt lat="45.7366068" lon="11.7547808"><ele>99.0</ele><time>2026-04-11T11:42:32.982Z</time></trkpt><trkpt lat="45.7366416" lon="11.7550553"><ele>99.66666666666666</ele><time>2026-04-11T11:42:33.978Z</time></trkpt><trkpt lat="45.7366767" lon="11.7553319"><ele>100.33333333333333</ele><time>2026-04-11T11:42:34.986Z</time></trkpt><trkpt lat="45.7367123" lon="11.7556071"><ele>101.0</ele><time>2026-04-11T11:42:35.977Z</time></trkpt><trkpt lat="45.7367485" lon="11.7558828"><ele>101.0</ele><time>2026-04-11T11:42:36.978Z</time></trkpt><trkpt lat="45.7367845" lon="11.7561593"><ele>101.0</ele><time>2026-04-11T11:42:37.98Z</time></trkpt><trkpt lat="45.7368198" lon="11.7564362"><ele>101.0</ele><time>2026-04-11T11:42:38.983Z</time></trkpt><trkpt lat="45.7368555" lon="11.7567111"><ele>101.66666666666666</ele><time>2026-04-11T11:42:39.977Z</time></trkpt><trkpt lat="45.7368911" lon="11.7569837"><ele>102.33333333333334</ele><time>2026-04-11T11:42:40.976Z</time></trkpt><trkpt lat="45.7369265" lon="11.7572538"><ele>103.0</ele><time>2026-04-11T11:42:41.979Z</time></trkpt><trkpt lat="45.7369611" lon="11.7575107"><ele>102.66666666666667</ele><time>2026-04-11T11:42:42.982Z</time></trkpt><trkpt lat="45.7369925" lon="11.7577502"><ele>102.33333333333334</ele><time>2026-04-11T11:42:43.975Z</time></trkpt><trkpt lat="45.7370228" lon="11.7579702"><ele>102.0</ele><time>2026-04-11T11:42:44.98Z</time></trkpt><trkpt lat="45.7370511" lon="11.7581665"><ele>102.0</ele><time>2026-04-11T11:42:45.981Z</time></trkpt><trkpt lat="45.7370768" lon="11.7583332"><ele>102.0</ele><time>2026-04-11T11:42:47.018Z</time></trkpt><trkpt lat="45.7370984" lon="11.7584687"><ele>102.0</ele><time>2026-04-11T11:42:47.977Z</time></trkpt><trkpt lat="45.7371144" lon="11.7585637"><ele>102.0</ele><time>2026-04-11T11:42:48.975Z</time></trkpt><trkpt lat="45.7371245" lon="11.7586619"><ele>102.0</ele><time>2026-04-11T11:42:50.981Z</time></trkpt><trkpt lat="45.7371045" lon="11.7588056"><ele>102.16666666666667</ele><time>2026-04-11T11:43:00.978Z</time></trkpt><trkpt lat="45.7370871" lon="11.7589028"><ele>102.33333333333334</ele><time>2026-04-11T11:43:01.985Z</time></trkpt><trkpt lat="45.7370751" lon="11.7590222"><ele>102.5</ele><time>2026-04-11T11:43:03.02Z</time></trkpt><trkpt lat="45.7370908" lon="11.7591427"><ele>102.66666666666667</ele><time>2026-04-11T11:43:04.023Z</time></trkpt><trkpt lat="45.7371362" lon="11.7592564"><ele>102.83333333333334</ele><time>2026-04-11T11:43:04.98Z</time></trkpt><trkpt lat="45.7372039" lon="11.7593631"><ele>103.0</ele><time>2026-04-11T11:43:05.975Z</time></trkpt><trkpt lat="45.7372726" lon="11.7594748"><ele>103.0</ele><time>2026-04-11T11:43:06.983Z</time></trkpt><trkpt lat="45.7373305" lon="11.7596079"><ele>103.0</ele><time>2026-04-11T11:43:07.985Z</time></trkpt><trkpt lat="45.7373717" lon="11.7597504"><ele>103.0</ele><time>2026-04-11T11:43:08.977Z</time></trkpt><trkpt lat="45.7374073" lon="11.7599001"><ele>103.0</ele><time>2026-04-11T11:43:09.975Z</time></trkpt><trkpt lat="45.7374392" lon="11.7600592"><ele>103.0</ele><time>2026-04-11T11:43:10.981Z</time></trkpt><trkpt lat="45.7374682" lon="11.7602195"><ele>103.0</ele><time>2026-04-11T11:43:11.976Z</time></trkpt><trkpt lat="45.7374815" lon="11.7603924"><ele>103.0</ele><time>2026-04-11T11:43:12.978Z</time></trkpt><trkpt lat="45.7374885" lon="11.7605708"><ele>103.0</ele><time>2026-04-11T11:43:13.979Z</time></trkpt><trkpt lat="45.7374885" lon="11.7607607"><ele>103.0</ele><time>2026-04-11T11:43:14.983Z</time></trkpt><trkpt lat="45.737479" lon="11.7609574"><ele>102.5</ele><time>2026-04-11T11:43:15.986Z</time></trkpt><trkpt lat="45.7374638" lon="11.761147"><ele>102.0</ele><time>2026-04-11T11:43:16.989Z</time></trkpt><trkpt lat="45.7374504" lon="11.7613344"><ele>101.5</ele><time>2026-04-11T11:43:18.009Z</time></trkpt><trkpt lat="45.7374464" lon="11.7615342"><ele>101.0</ele><time>2026-04-11T11:43:19.017Z</time></trkpt><trkpt lat="45.7374566" lon="11.7617472"><ele>101.0</ele><time>2026-04-11T11:43:19.986Z</time></trkpt><trkpt lat="45.7374759" lon="11.7619587"><ele>101.0</ele><time>2026-04-11T11:43:20.984Z</time></trkpt><trkpt lat="45.7374998" lon="11.7621671"><ele>101.0</ele><time>2026-04-11T11:43:21.992Z</time></trkpt><trkpt lat="45.7375241" lon="11.762384"><ele>101.0</ele><time>2026-04-11T11:43:22.978Z</time></trkpt><trkpt lat="45.7375658" lon="11.7626061"><ele>101.0</ele><time>2026-04-11T11:43:23.969Z</time></trkpt><trkpt lat="45.7376105" lon="11.7628469"><ele>101.0</ele><time>2026-04-11T11:43:24.975Z</time></trkpt><trkpt lat="45.7376519" lon="11.763088"><ele>101.0</ele><time>2026-04-11T11:43:25.974Z</time></trkpt><trkpt lat="45.7376925" lon="11.7633267"><ele>101.0</ele><time>2026-04-11T11:43:26.984Z</time></trkpt><trkpt lat="45.737728" lon="11.7635767"><ele>101.0</ele><time>2026-04-11T11:43:27.983Z</time></trkpt><trkpt lat="45.7377709" lon="11.7638318"><ele>101.33333333333333</ele><time>2026-04-11T11:43:28.976Z</time></trkpt><trkpt lat="45.7378142" lon="11.7640958"><ele>101.66666666666666</ele><time>2026-04-11T11:43:29.975Z</time></trkpt><trkpt lat="45.7378554" lon="11.7643622"><ele>102.0</ele><time>2026-04-11T11:43:30.974Z</time></trkpt><trkpt lat="45.7379028" lon="11.7646222"><ele>102.0</ele><time>2026-04-11T11:43:31.98Z</time></trkpt><trkpt lat="45.7379513" lon="11.7648822"><ele>102.0</ele><time>2026-04-11T11:43:32.978Z</time></trkpt><trkpt lat="45.7379978" lon="11.7651493"><ele>102.0</ele><time>2026-04-11T11:43:33.98Z</time></trkpt><trkpt lat="45.738046" lon="11.7654201"><ele>102.0</ele><time>2026-04-11T11:43:34.978Z</time></trkpt><trkpt lat="45.7380942" lon="11.7656905"><ele>102.0</ele><time>2026-04-11T11:43:35.977Z</time></trkpt><trkpt lat="45.7381416" lon="11.7659608"><ele>102.0</ele><time>2026-04-11T11:43:36.978Z</time></trkpt><trkpt lat="45.7381874" lon="11.7662277"><ele>102.0</ele><time>2026-04-11T11:43:37.98Z</time></trkpt><trkpt lat="45.7382316" lon="11.7664803"><ele>102.0</ele><time>2026-04-11T11:43:38.977Z</time></trkpt><trkpt lat="45.7382757" lon="11.7667273"><ele>102.0</ele><time>2026-04-11T11:43:39.973Z</time></trkpt><trkpt lat="45.7383181" lon="11.766976"><ele>102.33333333333334</ele><time>2026-04-11T11:43:40.98Z</time></trkpt><trkpt lat="45.7383604" lon="11.7672235"><ele>102.66666666666667</ele><time>2026-04-11T11:43:41.979Z</time></trkpt><trkpt lat="45.7384034" lon="11.7674686"><ele>103.0</ele><time>2026-04-11T11:43:42.978Z</time></trkpt><trkpt lat="45.738448" lon="11.7677128"><ele>103.33333333333334</ele><time>2026-04-11T11:43:43.971Z</time></trkpt><trkpt lat="45.7384961" lon="11.7679541"><ele>103.66666666666666</ele><time>2026-04-11T11:43:44.974Z</time></trkpt><trkpt lat="45.7385559" lon="11.7681917"><ele>104.0</ele><time>2026-04-11T11:43:45.976Z</time></trkpt><trkpt lat="45.7386311" lon="11.7684208"><ele>103.33333333333333</ele><time>2026-04-11T11:43:46.975Z</time></trkpt><trkpt lat="45.7387184" lon="11.76864"><ele>102.66666666666666</ele><time>2026-04-11T11:43:47.98Z</time></trkpt><trkpt lat="45.7388099" lon="11.7688597"><ele>102.0</ele><time>2026-04-11T11:43:48.977Z</time></trkpt><trkpt lat="45.738916" lon="11.7690769"><ele>102.0</ele><time>2026-04-11T11:43:49.975Z</time></trkpt><trkpt lat="45.7390014" lon="11.7693067"><ele>102.0</ele><time>2026-04-11T11:43:50.975Z</time></trkpt><trkpt lat="45.7390561" lon="11.7695447"><ele>102.0</ele><time>2026-04-11T11:43:51.978Z</time></trkpt><trkpt lat="45.7391052" lon="11.7697878"><ele>102.0</ele><time>2026-04-11T11:43:52.975Z</time></trkpt><trkpt lat="45.7391468" lon="11.770023"><ele>102.0</ele><time>2026-04-11T11:43:53.976Z</time></trkpt><trkpt lat="45.7391911" lon="11.770245"><ele>102.0</ele><time>2026-04-11T11:43:54.975Z</time></trkpt><trkpt lat="45.7392261" lon="11.7704764"><ele>102.0</ele><time>2026-04-11T11:43:55.976Z</time></trkpt><trkpt lat="45.7392391" lon="11.7707151"><ele>102.0</ele><time>2026-04-11T11:43:56.975Z</time></trkpt><trkpt lat="45.7392291" lon="11.7709557"><ele>102.0</ele><time>2026-04-11T11:43:57.976Z</time></trkpt><trkpt lat="45.7392171" lon="11.7711969"><ele>101.66666666666666</ele><time>2026-04-11T11:43:58.974Z</time></trkpt><trkpt lat="45.7392203" lon="11.7714355"><ele>101.33333333333333</ele><time>2026-04-11T11:43:59.976Z</time></trkpt><trkpt lat="45.7392436" lon="11.7716679"><ele>101.0</ele><time>2026-04-11T11:44:00.975Z</time></trkpt><trkpt lat="45.7392813" lon="11.7718968"><ele>101.0</ele><time>2026-04-11T11:44:01.975Z</time></trkpt><trkpt lat="45.7393298" lon="11.772126"><ele>101.0</ele><time>2026-04-11T11:44:02.976Z</time></trkpt><trkpt lat="45.7393817" lon="11.7723547"><ele>101.0</ele><time>2026-04-11T11:44:03.969Z</time></trkpt><trkpt lat="45.7394417" lon="11.7725788"><ele>102.0</ele><time>2026-04-11T11:44:04.981Z</time></trkpt><trkpt lat="45.7395139" lon="11.7727959"><ele>103.0</ele><time>2026-04-11T11:44:05.979Z</time></trkpt><trkpt lat="45.7395974" lon="11.7730034"><ele>104.0</ele><time>2026-04-11T11:44:06.985Z</time></trkpt><trkpt lat="45.7396889" lon="11.7731925"><ele>104.0</ele><time>2026-04-11T11:44:07.982Z</time></trkpt><trkpt lat="45.7397948" lon="11.7733649"><ele>104.0</ele><time>2026-04-11T11:44:08.977Z</time></trkpt><trkpt lat="45.7399097" lon="11.773523"><ele>104.0</ele><time>2026-04-11T11:44:09.979Z</time></trkpt><trkpt lat="45.740033" lon="11.7736697"><ele>103.66666666666666</ele><time>2026-04-11T11:44:10.986Z</time></trkpt><trkpt lat="45.74015" lon="11.773815"><ele>103.33333333333334</ele><time>2026-04-11T11:44:11.976Z</time></trkpt><trkpt lat="45.7402848" lon="11.7739542"><ele>103.0</ele><time>2026-04-11T11:44:12.97Z</time></trkpt><trkpt lat="45.7408432" lon="11.7744274"><ele>103.0</ele><time>2026-04-11T11:44:16.972Z</time></trkpt><trkpt lat="45.7409924" lon="11.7745688"><ele>103.0</ele><time>2026-04-11T11:44:17.973Z</time></trkpt><trkpt lat="45.7411423" lon="11.7747202"><ele>103.0</ele><time>2026-04-11T11:44:18.979Z</time></trkpt><trkpt lat="45.7412948" lon="11.7748664"><ele>103.0</ele><time>2026-04-11T11:44:19.976Z</time></trkpt><trkpt lat="45.741448" lon="11.7750112"><ele>103.0</ele><time>2026-04-11T11:44:20.975Z</time></trkpt><trkpt lat="45.7416246" lon="11.7751452"><ele>103.0</ele><time>2026-04-11T11:44:21.977Z</time></trkpt><trkpt lat="45.7417852" lon="11.7752977"><ele>102.66666666666667</ele><time>2026-04-11T11:44:22.972Z</time></trkpt><trkpt lat="45.7419533" lon="11.7754543"><ele>102.33333333333334</ele><time>2026-04-11T11:44:23.978Z</time></trkpt><trkpt lat="45.742125" lon="11.7755865"><ele>102.0</ele><time>2026-04-11T11:44:24.974Z</time></trkpt><trkpt lat="45.7423019" lon="11.7757122"><ele>102.0</ele><time>2026-04-11T11:44:25.98Z</time></trkpt><trkpt lat="45.7424955" lon="11.775809"><ele>102.0</ele><time>2026-04-11T11:44:26.984Z</time></trkpt><trkpt lat="45.7426902" lon="11.7758868"><ele>102.0</ele><time>2026-04-11T11:44:27.985Z</time></trkpt><trkpt lat="45.7428893" lon="11.7759556"><ele>102.0</ele><time>2026-04-11T11:44:28.984Z</time></trkpt><trkpt lat="45.7430942" lon="11.7760105"><ele>102.0</ele><time>2026-04-11T11:44:29.974Z</time></trkpt><trkpt lat="45.7432951" lon="11.7760609"><ele>102.0</ele><time>2026-04-11T11:44:30.975Z</time></trkpt><trkpt lat="45.7434996" lon="11.7761099"><ele>102.33333333333334</ele><time>2026-04-11T11:44:31.98Z</time></trkpt><trkpt lat="45.7437002" lon="11.7761671"><ele>102.66666666666667</ele><time>2026-04-11T11:44:33.013Z</time></trkpt><trkpt lat="45.7439152" lon="11.7762063"><ele>103.0</ele><time>2026-04-11T11:44:33.981Z</time></trkpt><trkpt lat="45.7441317" lon="11.776232"><ele>103.0</ele><time>2026-04-11T11:44:34.976Z</time></trkpt><trkpt lat="45.7443479" lon="11.7762556"><ele>103.0</ele><time>2026-04-11T11:44:35.982Z</time></trkpt><trkpt lat="45.7445701" lon="11.7762758"><ele>103.0</ele><time>2026-04-11T11:44:36.974Z</time></trkpt><trkpt lat="45.7448012" lon="11.7762961"><ele>103.0</ele><time>2026-04-11T11:44:37.973Z</time></trkpt><trkpt lat="45.7450328" lon="11.7763123"><ele>103.0</ele><time>2026-04-11T11:44:38.975Z</time></trkpt><trkpt lat="45.7452611" lon="11.7763267"><ele>102.5</ele><time>2026-04-11T11:44:39.987Z</time></trkpt><trkpt lat="45.74549" lon="11.7763409"><ele>102.0</ele><time>2026-04-11T11:44:40.979Z</time></trkpt><trkpt lat="45.7457136" lon="11.7763484"><ele>102.0</ele><time>2026-04-11T11:44:41.972Z</time></trkpt><trkpt lat="45.7459282" lon="11.7763342"><ele>102.0</ele><time>2026-04-11T11:44:43Z</time></trkpt><trkpt lat="45.7461465" lon="11.7763358"><ele>102.0</ele><time>2026-04-11T11:44:43.979Z</time></trkpt><trkpt lat="45.7463668" lon="11.77633"><ele>102.33333333333334</ele><time>2026-04-11T11:44:44.967Z</time></trkpt><trkpt lat="45.7465858" lon="11.7763252"><ele>102.66666666666667</ele><time>2026-04-11T11:44:45.973Z</time></trkpt><trkpt lat="45.7468076" lon="11.77632"><ele>103.0</ele><time>2026-04-11T11:44:46.977Z</time></trkpt><trkpt lat="45.74703" lon="11.7763179"><ele>104.5</ele><time>2026-04-11T11:44:47.975Z</time></trkpt><trkpt lat="45.747255" lon="11.7763137"><ele>106.0</ele><time>2026-04-11T11:44:48.982Z</time></trkpt><trkpt lat="45.7474797" lon="11.7763094"><ele>106.0</ele><time>2026-04-11T11:44:49.969Z</time></trkpt><trkpt lat="45.7477033" lon="11.7763061"><ele>106.0</ele><time>2026-04-11T11:44:51.054Z</time></trkpt><trkpt lat="45.7479256" lon="11.7763007"><ele>106.0</ele><time>2026-04-11T11:44:51.984Z</time></trkpt><trkpt lat="45.7481474" lon="11.7762958"><ele>105.66666666666667</ele><time>2026-04-11T11:44:52.972Z</time></trkpt><trkpt lat="45.7483661" lon="11.7762907"><ele>105.33333333333334</ele><time>2026-04-11T11:44:53.97Z</time></trkpt><trkpt lat="45.7485806" lon="11.776288"><ele>105.0</ele><time>2026-04-11T11:44:55.011Z</time></trkpt><trkpt lat="45.7487941" lon="11.7762862"><ele>105.0</ele><time>2026-04-11T11:44:55.973Z</time></trkpt><trkpt lat="45.7490086" lon="11.7762858"><ele>105.0</ele><time>2026-04-11T11:44:56.973Z</time></trkpt><trkpt lat="45.7492227" lon="11.7762843"><ele>105.0</ele><time>2026-04-11T11:44:57.982Z</time></trkpt><trkpt lat="45.7494364" lon="11.7762773"><ele>105.33333333333334</ele><time>2026-04-11T11:44:58.978Z</time></trkpt><trkpt lat="45.7496486" lon="11.7762707"><ele>105.66666666666667</ele><time>2026-04-11T11:44:59.991Z</time></trkpt><trkpt lat="45.7498596" lon="11.7762654"><ele>106.0</ele><time>2026-04-11T11:45:00.981Z</time></trkpt><trkpt lat="45.7500709" lon="11.7762632"><ele>106.0</ele><time>2026-04-11T11:45:01.976Z</time></trkpt><trkpt lat="45.7502823" lon="11.7762613"><ele>106.0</ele><time>2026-04-11T11:45:03.01Z</time></trkpt><trkpt lat="45.7504949" lon="11.7762575"><ele>106.0</ele><time>2026-04-11T11:45:03.973Z</time></trkpt><trkpt lat="45.750713" lon="11.7762568"><ele>106.0</ele><time>2026-04-11T11:45:04.973Z</time></trkpt><trkpt lat="45.7509279" lon="11.7762502"><ele>106.0</ele><time>2026-04-11T11:45:05.976Z</time></trkpt><trkpt lat="45.7511434" lon="11.7762426"><ele>106.0</ele><time>2026-04-11T11:45:07.009Z</time></trkpt><trkpt lat="45.7513519" lon="11.7762285"><ele>106.33333333333334</ele><time>2026-04-11T11:45:07.988Z</time></trkpt><trkpt lat="45.7515556" lon="11.7762066"><ele>106.66666666666666</ele><time>2026-04-11T11:45:08.976Z</time></trkpt><trkpt lat="45.7517577" lon="11.7761798"><ele>107.0</ele><time>2026-04-11T11:45:09.985Z</time></trkpt><trkpt lat="45.7519602" lon="11.776147"><ele>107.33333333333333</ele><time>2026-04-11T11:45:10.991Z</time></trkpt><trkpt lat="45.7521626" lon="11.776116"><ele>107.66666666666666</ele><time>2026-04-11T11:45:12.011Z</time></trkpt><trkpt lat="45.7523646" lon="11.7760792"><ele>108.0</ele><time>2026-04-11T11:45:12.975Z</time></trkpt><trkpt lat="45.7525695" lon="11.776036"><ele>108.0</ele><time>2026-04-11T11:45:13.97Z</time></trkpt><trkpt lat="45.7527779" lon="11.7759853"><ele>108.0</ele><time>2026-04-11T11:45:14.971Z</time></trkpt><trkpt lat="45.7529909" lon="11.7759292"><ele>108.0</ele><time>2026-04-11T11:45:15.971Z</time></trkpt><trkpt lat="45.7532053" lon="11.7758683"><ele>108.0</ele><time>2026-04-11T11:45:16.977Z</time></trkpt><trkpt lat="45.7534187" lon="11.7757975"><ele>108.0</ele><time>2026-04-11T11:45:17.972Z</time></trkpt><trkpt lat="45.7536317" lon="11.7757234"><ele>108.0</ele><time>2026-04-11T11:45:18.969Z</time></trkpt><trkpt lat="45.7538452" lon="11.7756478"><ele>108.33333333333334</ele><time>2026-04-11T11:45:19.969Z</time></trkpt><trkpt lat="45.7540593" lon="11.7755674"><ele>108.66666666666667</ele><time>2026-04-11T11:45:20.971Z</time></trkpt><trkpt lat="45.7542714" lon="11.7754811"><ele>109.0</ele><time>2026-04-11T11:45:21.968Z</time></trkpt><trkpt lat="45.7544817" lon="11.7753915"><ele>109.0</ele><time>2026-04-11T11:45:22.972Z</time></trkpt><trkpt lat="45.7546889" lon="11.7753027"><ele>109.0</ele><time>2026-04-11T11:45:23.978Z</time></trkpt><trkpt lat="45.7548902" lon="11.7752154"><ele>109.0</ele><time>2026-04-11T11:45:24.972Z</time></trkpt><trkpt lat="45.7550919" lon="11.7751312"><ele>110.33333333333334</ele><time>2026-04-11T11:45:25.969Z</time></trkpt><trkpt lat="45.7552929" lon="11.7750418"><ele>111.66666666666666</ele><time>2026-04-11T11:45:26.972Z</time></trkpt><trkpt lat="45.7554927" lon="11.7749529"><ele>113.0</ele><time>2026-04-11T11:45:27.973Z</time></trkpt><trkpt lat="45.7556926" lon="11.7748644"><ele>113.0</ele><time>2026-04-11T11:45:28.971Z</time></trkpt><trkpt lat="45.7558907" lon="11.7747762"><ele>113.0</ele><time>2026-04-11T11:45:29.97Z</time></trkpt><trkpt lat="45.7560881" lon="11.7746852"><ele>113.0</ele><time>2026-04-11T11:45:30.976Z</time></trkpt><trkpt lat="45.7562871" lon="11.7745949"><ele>112.33333333333333</ele><time>2026-04-11T11:45:31.974Z</time></trkpt><trkpt lat="45.7564867" lon="11.7745041"><ele>111.66666666666666</ele><time>2026-04-11T11:45:32.975Z</time></trkpt><trkpt lat="45.7566871" lon="11.7744123"><ele>111.0</ele><time>2026-04-11T11:45:33.977Z</time></trkpt><trkpt lat="45.7568889" lon="11.7743145"><ele>111.0</ele><time>2026-04-11T11:45:34.978Z</time></trkpt><trkpt lat="45.7570863" lon="11.7742109"><ele>111.0</ele><time>2026-04-11T11:45:35.976Z</time></trkpt><trkpt lat="45.7572871" lon="11.7741047"><ele>111.0</ele><time>2026-04-11T11:45:36.973Z</time></trkpt><trkpt lat="45.7574936" lon="11.7740028"><ele>111.0</ele><time>2026-04-11T11:45:37.975Z</time></trkpt><trkpt lat="45.7577005" lon="11.7738936"><ele>111.0</ele><time>2026-04-11T11:45:39.008Z</time></trkpt><trkpt lat="45.7579092" lon="11.7737783"><ele>111.0</ele><time>2026-04-11T11:45:39.98Z</time></trkpt><trkpt lat="45.7581143" lon="11.773662"><ele>111.0</ele><time>2026-04-11T11:45:40.977Z</time></trkpt><trkpt lat="45.7583201" lon="11.7735422"><ele>111.0</ele><time>2026-04-11T11:45:41.979Z</time></trkpt><trkpt lat="45.7585322" lon="11.7734222"><ele>110.66666666666666</ele><time>2026-04-11T11:45:42.979Z</time></trkpt><trkpt lat="45.7587351" lon="11.7732944"><ele>110.33333333333333</ele><time>2026-04-11T11:45:43.973Z</time></trkpt><trkpt lat="45.7589371" lon="11.7731634"><ele>110.0</ele><time>2026-04-11T11:45:45.007Z</time></trkpt><trkpt lat="45.7591422" lon="11.7730329"><ele>110.0</ele><time>2026-04-11T11:45:45.982Z</time></trkpt><trkpt lat="45.7593383" lon="11.7728988"><ele>110.0</ele><time>2026-04-11T11:45:46.976Z</time></trkpt><trkpt lat="45.7595351" lon="11.7727711"><ele>110.0</ele><time>2026-04-11T11:45:47.974Z</time></trkpt><trkpt lat="45.7597289" lon="11.7726331"><ele>111.0</ele><time>2026-04-11T11:45:48.975Z</time></trkpt><trkpt lat="45.75992" lon="11.7724922"><ele>112.0</ele><time>2026-04-11T11:45:49.975Z</time></trkpt><trkpt lat="45.7601109" lon="11.77235"><ele>113.0</ele><time>2026-04-11T11:45:50.975Z</time></trkpt><trkpt lat="45.7603016" lon="11.7722043"><ele>113.0</ele><time>2026-04-11T11:45:51.974Z</time></trkpt><trkpt lat="45.7604897" lon="11.7720577"><ele>113.0</ele><time>2026-04-11T11:45:52.974Z</time></trkpt><trkpt lat="45.7606763" lon="11.7719083"><ele>113.0</ele><time>2026-04-11T11:45:53.969Z</time></trkpt><trkpt lat="45.7608629" lon="11.771756"><ele>113.66666666666666</ele><time>2026-04-11T11:45:54.972Z</time></trkpt><trkpt lat="45.7610501" lon="11.7716035"><ele>114.33333333333334</ele><time>2026-04-11T11:45:55.971Z</time></trkpt><trkpt lat="45.7612389" lon="11.7714479"><ele>115.0</ele><time>2026-04-11T11:45:57.021Z</time></trkpt><trkpt lat="45.7614276" lon="11.7712949"><ele>115.0</ele><time>2026-04-11T11:45:57.979Z</time></trkpt><trkpt lat="45.7616123" lon="11.7711454"><ele>115.0</ele><time>2026-04-11T11:45:58.969Z</time></trkpt><trkpt lat="45.7618007" lon="11.7709897"><ele>115.0</ele><time>2026-04-11T11:45:59.979Z</time></trkpt><trkpt lat="45.7619904" lon="11.7708338"><ele>114.66666666666667</ele><time>2026-04-11T11:46:00.972Z</time></trkpt><trkpt lat="45.7621774" lon="11.7706775"><ele>114.33333333333334</ele><time>2026-04-11T11:46:01.969Z</time></trkpt><trkpt lat="45.7623661" lon="11.7705226"><ele>114.0</ele><time>2026-04-11T11:46:02.968Z</time></trkpt><trkpt lat="45.7625546" lon="11.7703696"><ele>114.66666666666666</ele><time>2026-04-11T11:46:03.976Z</time></trkpt><trkpt lat="45.7627429" lon="11.7702154"><ele>115.33333333333333</ele><time>2026-04-11T11:46:04.98Z</time></trkpt><trkpt lat="45.7629313" lon="11.7700601"><ele>116.0</ele><time>2026-04-11T11:46:05.972Z</time></trkpt><trkpt lat="45.7631197" lon="11.7699064"><ele>116.0</ele><time>2026-04-11T11:46:06.999Z</time></trkpt><trkpt lat="45.7633086" lon="11.769754"><ele>116.0</ele><time>2026-04-11T11:46:08.011Z</time></trkpt><trkpt lat="45.7634973" lon="11.7695996"><ele>116.0</ele><time>2026-04-11T11:46:08.971Z</time></trkpt><trkpt lat="45.7636868" lon="11.7694452"><ele>117.0</ele><time>2026-04-11T11:46:09.973Z</time></trkpt><trkpt lat="45.7638785" lon="11.7692901"><ele>118.0</ele><time>2026-04-11T11:46:10.981Z</time></trkpt><trkpt lat="45.7640746" lon="11.7691328"><ele>119.0</ele><time>2026-04-11T11:46:11.971Z</time></trkpt><trkpt lat="45.7642788" lon="11.7689713"><ele>119.0</ele><time>2026-04-11T11:46:12.976Z</time></trkpt><trkpt lat="45.764489" lon="11.7688111"><ele>119.0</ele><time>2026-04-11T11:46:13.971Z</time></trkpt><trkpt lat="45.7646963" lon="11.7686579"><ele>119.0</ele><time>2026-04-11T11:46:14.975Z</time></trkpt><trkpt lat="45.7649014" lon="11.7685101"><ele>119.0</ele><time>2026-04-11T11:46:15.996Z</time></trkpt><trkpt lat="45.7651067" lon="11.768368"><ele>119.0</ele><time>2026-04-11T11:46:17.008Z</time></trkpt><trkpt lat="45.7653133" lon="11.7682313"><ele>119.0</ele><time>2026-04-11T11:46:17.978Z</time></trkpt><trkpt lat="45.7655208" lon="11.7681008"><ele>119.0</ele><time>2026-04-11T11:46:19.034Z</time></trkpt><trkpt lat="45.7657294" lon="11.7679763"><ele>119.0</ele><time>2026-04-11T11:46:20.024Z</time></trkpt><trkpt lat="45.7659382" lon="11.7678565"><ele>119.66666666666666</ele><time>2026-04-11T11:46:21.005Z</time></trkpt><trkpt lat="45.7661475" lon="11.7677409"><ele>120.33333333333334</ele><time>2026-04-11T11:46:21.965Z</time></trkpt><trkpt lat="45.7663569" lon="11.7676283"><ele>121.0</ele><time>2026-04-11T11:46:22.968Z</time></trkpt><trkpt lat="45.7665662" lon="11.7675165"><ele>121.0</ele><time>2026-04-11T11:46:23.966Z</time></trkpt><trkpt lat="45.7667752" lon="11.7674042"><ele>121.0</ele><time>2026-04-11T11:46:24.969Z</time></trkpt><trkpt lat="45.7669829" lon="11.7672921"><ele>121.0</ele><time>2026-04-11T11:46:25.979Z</time></trkpt><trkpt lat="45.7671892" lon="11.7671791"><ele>120.66666666666667</ele><time>2026-04-11T11:46:26.978Z</time></trkpt><trkpt lat="45.7673893" lon="11.7670704"><ele>120.33333333333334</ele><time>2026-04-11T11:46:27.977Z</time></trkpt><trkpt lat="45.767585" lon="11.766963"><ele>120.0</ele><time>2026-04-11T11:46:28.977Z</time></trkpt><trkpt lat="45.7677798" lon="11.7668565"><ele>120.66666666666666</ele><time>2026-04-11T11:46:29.972Z</time></trkpt><trkpt lat="45.7679724" lon="11.7667511"><ele>121.33333333333333</ele><time>2026-04-11T11:46:30.982Z</time></trkpt><trkpt lat="45.7681605" lon="11.7666488"><ele>122.0</ele><time>2026-04-11T11:46:31.975Z</time></trkpt><trkpt lat="45.7683492" lon="11.7665469"><ele>122.66666666666666</ele><time>2026-04-11T11:46:32.972Z</time></trkpt><trkpt lat="45.7685385" lon="11.7664444"><ele>123.33333333333334</ele><time>2026-04-11T11:46:33.969Z</time></trkpt><trkpt lat="45.7687276" lon="11.7663405"><ele>124.0</ele><time>2026-04-11T11:46:34.976Z</time></trkpt><trkpt lat="45.7689156" lon="11.7662359"><ele>124.0</ele><time>2026-04-11T11:46:35.977Z</time></trkpt><trkpt lat="45.7691015" lon="11.7661335"><ele>124.0</ele><time>2026-04-11T11:46:36.974Z</time></trkpt><trkpt lat="45.769286" lon="11.766033"><ele>124.0</ele><time>2026-04-11T11:46:37.976Z</time></trkpt><trkpt lat="45.7694732" lon="11.765936"><ele>124.66666666666667</ele><time>2026-04-11T11:46:38.972Z</time></trkpt><trkpt lat="45.7696603" lon="11.7658373"><ele>125.33333333333334</ele><time>2026-04-11T11:46:39.981Z</time></trkpt><trkpt lat="45.7698472" lon="11.7657433"><ele>126.0</ele><time>2026-04-11T11:46:40.979Z</time></trkpt><trkpt lat="45.7700299" lon="11.7656435"><ele>126.0</ele><time>2026-04-11T11:46:41.972Z</time></trkpt><trkpt lat="45.7702108" lon="11.7655438"><ele>126.0</ele><time>2026-04-11T11:46:42.973Z</time></trkpt><trkpt lat="45.7704004" lon="11.7654365"><ele>126.0</ele><time>2026-04-11T11:46:43.981Z</time></trkpt><trkpt lat="45.7705933" lon="11.765322"><ele>126.0</ele><time>2026-04-11T11:46:44.976Z</time></trkpt><trkpt lat="45.7707867" lon="11.765208"><ele>126.0</ele><time>2026-04-11T11:46:45.971Z</time></trkpt><trkpt lat="45.7709791" lon="11.7651069"><ele>126.0</ele><time>2026-04-11T11:46:46.975Z</time></trkpt><trkpt lat="45.7711684" lon="11.7649855"><ele>126.33333333333334</ele><time>2026-04-11T11:46:47.978Z</time></trkpt><trkpt lat="45.7713546" lon="11.7648773"><ele>126.66666666666667</ele><time>2026-04-11T11:46:48.981Z</time></trkpt><trkpt lat="45.7715461" lon="11.7647685"><ele>127.0</ele><time>2026-04-11T11:46:49.973Z</time></trkpt><trkpt lat="45.7717431" lon="11.7646573"><ele>127.0</ele><time>2026-04-11T11:46:50.976Z</time></trkpt><trkpt lat="45.7719412" lon="11.7645335"><ele>127.0</ele><time>2026-04-11T11:46:51.975Z</time></trkpt><trkpt lat="45.7721423" lon="11.7644305"><ele>127.0</ele><time>2026-04-11T11:46:52.973Z</time></trkpt><trkpt lat="45.7723499" lon="11.7643182"><ele>127.66666666666667</ele><time>2026-04-11T11:46:53.976Z</time></trkpt><trkpt lat="45.7725547" lon="11.764211"><ele>128.33333333333334</ele><time>2026-04-11T11:46:54.972Z</time></trkpt><trkpt lat="45.7727603" lon="11.7641013"><ele>129.0</ele><time>2026-04-11T11:46:55.968Z</time></trkpt><trkpt lat="45.772974" lon="11.7639983"><ele>129.0</ele><time>2026-04-11T11:46:56.98Z</time></trkpt><trkpt lat="45.773188" lon="11.7638965"><ele>129.0</ele><time>2026-04-11T11:46:57.977Z</time></trkpt><trkpt lat="45.7734012" lon="11.7637939"><ele>128.0</ele><time>2026-04-11T11:46:58.973Z</time></trkpt><trkpt lat="45.7736152" lon="11.7636851"><ele>127.0</ele><time>2026-04-11T11:46:59.98Z</time></trkpt><trkpt lat="45.7738316" lon="11.7635717"><ele>127.0</ele><time>2026-04-11T11:47:00.977Z</time></trkpt><trkpt lat="45.774047" lon="11.7634574"><ele>127.0</ele><time>2026-04-11T11:47:01.975Z</time></trkpt><trkpt lat="45.7742637" lon="11.7633407"><ele>127.0</ele><time>2026-04-11T11:47:02.976Z</time></trkpt><trkpt lat="45.7744733" lon="11.7632243"><ele>127.0</ele><time>2026-04-11T11:47:03.971Z</time></trkpt><trkpt lat="45.7746827" lon="11.7631087"><ele>127.0</ele><time>2026-04-11T11:47:04.977Z</time></trkpt><trkpt lat="45.7748897" lon="11.7629978"><ele>127.0</ele><time>2026-04-11T11:47:05.975Z</time></trkpt><trkpt lat="45.7750977" lon="11.7628876"><ele>127.0</ele><time>2026-04-11T11:47:06.98Z</time></trkpt><trkpt lat="45.7753082" lon="11.7627764"><ele>127.0</ele><time>2026-04-11T11:47:07.974Z</time></trkpt><trkpt lat="45.7755207" lon="11.762663"><ele>127.5</ele><time>2026-04-11T11:47:08.972Z</time></trkpt><trkpt lat="45.7757355" lon="11.762549"><ele>128.0</ele><time>2026-04-11T11:47:09.974Z</time></trkpt><trkpt lat="45.775951" lon="11.7624341"><ele>129.0</ele><time>2026-04-11T11:47:10.974Z</time></trkpt><trkpt lat="45.7761666" lon="11.7623194"><ele>130.0</ele><time>2026-04-11T11:47:11.977Z</time></trkpt><trkpt lat="45.7763792" lon="11.7622006"><ele>130.0</ele><time>2026-04-11T11:47:12.973Z</time></trkpt><trkpt lat="45.7765932" lon="11.7620847"><ele>130.0</ele><time>2026-04-11T11:47:13.971Z</time></trkpt><trkpt lat="45.7768082" lon="11.7619694"><ele>131.0</ele><time>2026-04-11T11:47:14.972Z</time></trkpt><trkpt lat="45.7770226" lon="11.7618561"><ele>132.0</ele><time>2026-04-11T11:47:15.973Z</time></trkpt><trkpt lat="45.7772339" lon="11.7617456"><ele>132.0</ele><time>2026-04-11T11:47:17.031Z</time></trkpt><trkpt lat="45.7774438" lon="11.7616383"><ele>132.0</ele><time>2026-04-11T11:47:17.976Z</time></trkpt><trkpt lat="45.7776533" lon="11.7615329"><ele>132.0</ele><time>2026-04-11T11:47:18.975Z</time></trkpt><trkpt lat="45.7778627" lon="11.7614286"><ele>132.0</ele><time>2026-04-11T11:47:19.974Z</time></trkpt><trkpt lat="45.7780662" lon="11.7613188"><ele>132.0</ele><time>2026-04-11T11:47:20.975Z</time></trkpt><trkpt lat="45.7782727" lon="11.7612106"><ele>132.0</ele><time>2026-04-11T11:47:21.975Z</time></trkpt><trkpt lat="45.7784775" lon="11.7611055"><ele>132.0</ele><time>2026-04-11T11:47:22.974Z</time></trkpt><trkpt lat="45.7786831" lon="11.7609979"><ele>132.0</ele><time>2026-04-11T11:47:23.973Z</time></trkpt><trkpt lat="45.7788898" lon="11.7608912"><ele>132.0</ele><time>2026-04-11T11:47:24.976Z</time></trkpt><trkpt lat="45.7790981" lon="11.760783"><ele>132.0</ele><time>2026-04-11T11:47:25.974Z</time></trkpt><trkpt lat="45.7793054" lon="11.7606754"><ele>132.0</ele><time>2026-04-11T11:47:26.982Z</time></trkpt><trkpt lat="45.7795136" lon="11.760567"><ele>132.0</ele><time>2026-04-11T11:47:28.01Z</time></trkpt><trkpt lat="45.7797186" lon="11.7604621"><ele>132.33333333333334</ele><time>2026-04-11T11:47:28.977Z</time></trkpt><trkpt lat="45.7799254" lon="11.760356"><ele>132.66666666666669</ele><time>2026-04-11T11:47:29.974Z</time></trkpt><trkpt lat="45.7801265" lon="11.7602515"><ele>133.0</ele><time>2026-04-11T11:47:30.975Z</time></trkpt><trkpt lat="45.780325" lon="11.7601496"><ele>134.0</ele><time>2026-04-11T11:47:31.972Z</time></trkpt><trkpt lat="45.7805238" lon="11.7600454"><ele>135.0</ele><time>2026-04-11T11:47:32.97Z</time></trkpt><trkpt lat="45.7807241" lon="11.7599434"><ele>136.0</ele><time>2026-04-11T11:47:33.976Z</time></trkpt><trkpt lat="45.7809237" lon="11.7598416"><ele>136.33333333333334</ele><time>2026-04-11T11:47:34.975Z</time></trkpt><trkpt lat="45.7811219" lon="11.7597405"><ele>136.66666666666666</ele><time>2026-04-11T11:47:35.971Z</time></trkpt><trkpt lat="45.7813228" lon="11.7596368"><ele>137.0</ele><time>2026-04-11T11:47:36.973Z</time></trkpt><trkpt lat="45.7815236" lon="11.7595289"><ele>137.0</ele><time>2026-04-11T11:47:37.979Z</time></trkpt><trkpt lat="45.7817192" lon="11.759421"><ele>137.0</ele><time>2026-04-11T11:47:38.972Z</time></trkpt><trkpt lat="45.7819126" lon="11.7593084"><ele>137.0</ele><time>2026-04-11T11:47:39.973Z</time></trkpt><trkpt lat="45.7821017" lon="11.7591896"><ele>137.33333333333331</ele><time>2026-04-11T11:47:40.979Z</time></trkpt><trkpt lat="45.7822842" lon="11.7590635"><ele>137.66666666666666</ele><time>2026-04-11T11:47:41.973Z</time></trkpt><trkpt lat="45.7824649" lon="11.7589315"><ele>138.0</ele><time>2026-04-11T11:47:42.976Z</time></trkpt><trkpt lat="45.7826392" lon="11.7587954"><ele>138.33333333333334</ele><time>2026-04-11T11:47:43.975Z</time></trkpt><trkpt lat="45.7828063" lon="11.7586657"><ele>138.66666666666669</ele><time>2026-04-11T11:47:44.979Z</time></trkpt><trkpt lat="45.7829559" lon="11.7585436"><ele>139.0</ele><time>2026-04-11T11:47:45.979Z</time></trkpt><trkpt lat="45.7831067" lon="11.7584294"><ele>139.33333333333334</ele><time>2026-04-11T11:47:46.974Z</time></trkpt><trkpt lat="45.7832566" lon="11.7583068"><ele>139.66666666666666</ele><time>2026-04-11T11:47:47.98Z</time></trkpt><trkpt lat="45.7833931" lon="11.7581737"><ele>140.0</ele><time>2026-04-11T11:47:48.975Z</time></trkpt><trkpt lat="45.7835136" lon="11.7580403"><ele>140.5</ele><time>2026-04-11T11:47:49.983Z</time></trkpt><trkpt lat="45.7836171" lon="11.7579169"><ele>141.0</ele><time>2026-04-11T11:47:50.973Z</time></trkpt><trkpt lat="45.78371" lon="11.7578038"><ele>141.5</ele><time>2026-04-11T11:47:51.972Z</time></trkpt><trkpt lat="45.7837987" lon="11.7576998"><ele>142.0</ele><time>2026-04-11T11:47:52.982Z</time></trkpt><trkpt lat="45.7838808" lon="11.7576237"><ele>142.5</ele><time>2026-04-11T11:47:53.981Z</time></trkpt><trkpt lat="45.7839798" lon="11.7575837"><ele>143.0</ele><time>2026-04-11T11:47:54.977Z</time></trkpt><trkpt lat="45.7840903" lon="11.7575767"><ele>143.5</ele><time>2026-04-11T11:47:55.974Z</time></trkpt><trkpt lat="45.7842045" lon="11.7576292"><ele>144.0</ele><time>2026-04-11T11:47:56.976Z</time></trkpt><trkpt lat="45.7843151" lon="11.7577004"><ele>144.0</ele><time>2026-04-11T11:47:57.974Z</time></trkpt><trkpt lat="45.7844165" lon="11.7578006"><ele>144.0</ele><time>2026-04-11T11:47:58.974Z</time></trkpt><trkpt lat="45.7845176" lon="11.7579106"><ele>144.0</ele><time>2026-04-11T11:47:59.979Z</time></trkpt><trkpt lat="45.7846211" lon="11.7580251"><ele>144.0</ele><time>2026-04-11T11:48:00.972Z</time></trkpt><trkpt lat="45.7847326" lon="11.758132"><ele>144.0</ele><time>2026-04-11T11:48:01.97Z</time></trkpt><trkpt lat="45.7848399" lon="11.7582341"><ele>144.0</ele><time>2026-04-11T11:48:02.974Z</time></trkpt><trkpt lat="45.7849371" lon="11.7583256"><ele>144.0</ele><time>2026-04-11T11:48:03.978Z</time></trkpt><trkpt lat="45.7850181" lon="11.7584119"><ele>144.0</ele><time>2026-04-11T11:48:04.987Z</time></trkpt><trkpt lat="45.7850903" lon="11.7584988"><ele>144.0</ele><time>2026-04-11T11:48:05.973Z</time></trkpt><trkpt lat="45.785162" lon="11.7585877"><ele>144.8</ele><time>2026-04-11T11:48:06.982Z</time></trkpt><trkpt lat="45.7852409" lon="11.7586645"><ele>145.60000000000002</ele><time>2026-04-11T11:48:07.974Z</time></trkpt><trkpt lat="45.7853326" lon="11.7587342"><ele>146.4</ele><time>2026-04-11T11:48:08.983Z</time></trkpt><trkpt lat="45.7854281" lon="11.7588122"><ele>147.20000000000002</ele><time>2026-04-11T11:48:09.978Z</time></trkpt><trkpt lat="45.7855155" lon="11.758914"><ele>148.0</ele><time>2026-04-11T11:48:10.981Z</time></trkpt><trkpt lat="45.785596" lon="11.7590305"><ele>148.0</ele><time>2026-04-11T11:48:11.976Z</time></trkpt><trkpt lat="45.785653" lon="11.7591818"><ele>148.0</ele><time>2026-04-11T11:48:12.987Z</time></trkpt><trkpt lat="45.7857057" lon="11.7593479"><ele>148.0</ele><time>2026-04-11T11:48:14.02Z</time></trkpt><trkpt lat="45.785738" lon="11.7595451"><ele>148.0</ele><time>2026-04-11T11:48:14.981Z</time></trkpt><trkpt lat="45.7857749" lon="11.7597569"><ele>147.66666666666669</ele><time>2026-04-11T11:48:15.974Z</time></trkpt><trkpt lat="45.7858179" lon="11.7599784"><ele>147.33333333333334</ele><time>2026-04-11T11:48:16.975Z</time></trkpt><trkpt lat="45.7858627" lon="11.7602021"><ele>147.0</ele><time>2026-04-11T11:48:17.982Z</time></trkpt><trkpt lat="45.7859075" lon="11.760428"><ele>146.66666666666666</ele><time>2026-04-11T11:48:18.983Z</time></trkpt><trkpt lat="45.7859515" lon="11.7606571"><ele>146.33333333333331</ele><time>2026-04-11T11:48:19.976Z</time></trkpt><trkpt lat="45.7859993" lon="11.7608846"><ele>146.0</ele><time>2026-04-11T11:48:20.98Z</time></trkpt><trkpt lat="45.7860497" lon="11.7611076"><ele>147.0</ele><time>2026-04-11T11:48:21.975Z</time></trkpt><trkpt lat="45.7861022" lon="11.7613301"><ele>148.0</ele><time>2026-04-11T11:48:22.991Z</time></trkpt><trkpt lat="45.7861619" lon="11.7615431"><ele>149.0</ele><time>2026-04-11T11:48:23.975Z</time></trkpt><trkpt lat="45.786225" lon="11.761744"><ele>149.25</ele><time>2026-04-11T11:48:24.987Z</time></trkpt><trkpt lat="45.7862886" lon="11.7619323"><ele>149.5</ele><time>2026-04-11T11:48:25.975Z</time></trkpt><trkpt lat="45.7863487" lon="11.7621251"><ele>149.75</ele><time>2026-04-11T11:48:26.979Z</time></trkpt><trkpt lat="45.7864048" lon="11.7623224"><ele>150.0</ele><time>2026-04-11T11:48:27.975Z</time></trkpt><trkpt lat="45.7864538" lon="11.7625327"><ele>149.0</ele><time>2026-04-11T11:48:28.979Z</time></trkpt><trkpt lat="45.7865009" lon="11.7627443"><ele>148.0</ele><time>2026-04-11T11:48:29.974Z</time></trkpt><trkpt lat="45.7865398" lon="11.7629612"><ele>147.0</ele><time>2026-04-11T11:48:30.967Z</time></trkpt><trkpt lat="45.7865867" lon="11.7631767"><ele>147.0</ele><time>2026-04-11T11:48:31.971Z</time></trkpt><trkpt lat="45.7866303" lon="11.763386"><ele>147.0</ele><time>2026-04-11T11:48:32.976Z</time></trkpt><trkpt lat="45.7866707" lon="11.7635794"><ele>147.0</ele><time>2026-04-11T11:48:33.965Z</time></trkpt><trkpt lat="45.7867079" lon="11.7637543"><ele>147.0</ele><time>2026-04-11T11:48:34.972Z</time></trkpt><trkpt lat="45.7867371" lon="11.7639132"><ele>147.0</ele><time>2026-04-11T11:48:35.972Z</time></trkpt><trkpt lat="45.7867594" lon="11.7640542"><ele>147.0</ele><time>2026-04-11T11:48:36.985Z</time></trkpt><trkpt lat="45.7867801" lon="11.7641764"><ele>147.0</ele><time>2026-04-11T11:48:37.973Z</time></trkpt><trkpt lat="45.7867944" lon="11.7642873"><ele>147.0</ele><time>2026-04-11T11:48:38.973Z</time></trkpt><trkpt lat="45.7868017" lon="11.7644079"><ele>147.0</ele><time>2026-04-11T11:48:39.98Z</time></trkpt><trkpt lat="45.7868046" lon="11.7645337"><ele>147.0</ele><time>2026-04-11T11:48:40.971Z</time></trkpt><trkpt lat="45.7868177" lon="11.7646392"><ele>148.0</ele><time>2026-04-11T11:48:42.028Z</time></trkpt><trkpt lat="45.7868569" lon="11.7647186"><ele>149.0</ele><time>2026-04-11T11:48:42.974Z</time></trkpt><trkpt lat="45.7869211" lon="11.7647658"><ele>150.0</ele><time>2026-04-11T11:48:43.974Z</time></trkpt><trkpt lat="45.7869989" lon="11.7647685"><ele>151.0</ele><time>2026-04-11T11:48:44.988Z</time></trkpt><trkpt lat="45.7870845" lon="11.7647374"><ele>152.0</ele><time>2026-04-11T11:48:45.97Z</time></trkpt><trkpt lat="45.787181" lon="11.7647076"><ele>153.0</ele><time>2026-04-11T11:48:46.967Z</time></trkpt><trkpt lat="45.7872939" lon="11.7646894"><ele>153.0</ele><time>2026-04-11T11:48:47.993Z</time></trkpt><trkpt lat="45.7874173" lon="11.7646713"><ele>153.0</ele><time>2026-04-11T11:48:48.982Z</time></trkpt><trkpt lat="45.7875471" lon="11.7646365"><ele>153.0</ele><time>2026-04-11T11:48:49.972Z</time></trkpt><trkpt lat="45.7876837" lon="11.7645941"><ele>153.0</ele><time>2026-04-11T11:48:50.978Z</time></trkpt><trkpt lat="45.7878242" lon="11.7645533"><ele>152.75</ele><time>2026-04-11T11:48:51.974Z</time></trkpt><trkpt lat="45.7879659" lon="11.7645112"><ele>152.5</ele><time>2026-04-11T11:48:52.979Z</time></trkpt><trkpt lat="45.7881023" lon="11.7644667"><ele>152.25</ele><time>2026-04-11T11:48:53.973Z</time></trkpt><trkpt lat="45.7882385" lon="11.7644197"><ele>152.0</ele><time>2026-04-11T11:48:54.981Z</time></trkpt><trkpt lat="45.7883756" lon="11.7643685"><ele>152.0</ele><time>2026-04-11T11:48:55.976Z</time></trkpt><trkpt lat="45.7885125" lon="11.7643101"><ele>152.0</ele><time>2026-04-11T11:48:56.974Z</time></trkpt><trkpt lat="45.7886501" lon="11.7642433"><ele>152.0</ele><time>2026-04-11T11:48:57.976Z</time></trkpt><trkpt lat="45.78879" lon="11.7641665"><ele>152.0</ele><time>2026-04-11T11:48:58.978Z</time></trkpt><trkpt lat="45.7889385" lon="11.7640795"><ele>152.0</ele><time>2026-04-11T11:48:59.98Z</time></trkpt><trkpt lat="45.7890967" lon="11.7639843"><ele>152.0</ele><time>2026-04-11T11:49:00.976Z</time></trkpt><trkpt lat="45.7892572" lon="11.7638878"><ele>152.0</ele><time>2026-04-11T11:49:01.978Z</time></trkpt><trkpt lat="45.7894152" lon="11.7637922"><ele>152.0</ele><time>2026-04-11T11:49:02.981Z</time></trkpt><trkpt lat="45.7895816" lon="11.7636904"><ele>152.0</ele><time>2026-04-11T11:49:03.982Z</time></trkpt><trkpt lat="45.7897516" lon="11.7635854"><ele>152.0</ele><time>2026-04-11T11:49:04.991Z</time></trkpt><trkpt lat="45.7899121" lon="11.7634882"><ele>152.0</ele><time>2026-04-11T11:49:05.986Z</time></trkpt><trkpt lat="45.7900698" lon="11.7633955"><ele>152.0</ele><time>2026-04-11T11:49:06.98Z</time></trkpt><trkpt lat="45.7902284" lon="11.7633032"><ele>152.0</ele><time>2026-04-11T11:49:07.984Z</time></trkpt><trkpt lat="45.7903892" lon="11.7632093"><ele>153.0</ele><time>2026-04-11T11:49:08.994Z</time></trkpt><trkpt lat="45.7905499" lon="11.7631133"><ele>154.0</ele><time>2026-04-11T11:49:09.975Z</time></trkpt><trkpt lat="45.7907085" lon="11.7630184"><ele>155.0</ele><time>2026-04-11T11:49:10.978Z</time></trkpt><trkpt lat="45.7908645" lon="11.7629229"><ele>155.0</ele><time>2026-04-11T11:49:11.992Z</time></trkpt><trkpt lat="45.7910185" lon="11.7628246"><ele>155.0</ele><time>2026-04-11T11:49:12.974Z</time></trkpt><trkpt lat="45.791169" lon="11.7627193"><ele>155.0</ele><time>2026-04-11T11:49:13.972Z</time></trkpt><trkpt lat="45.7913152" lon="11.7626015"><ele>155.33333333333331</ele><time>2026-04-11T11:49:14.982Z</time></trkpt><trkpt lat="45.79146" lon="11.7624699"><ele>155.66666666666666</ele><time>2026-04-11T11:49:15.979Z</time></trkpt><trkpt lat="45.7916051" lon="11.7623275"><ele>156.0</ele><time>2026-04-11T11:49:16.975Z</time></trkpt><trkpt lat="45.7917515" lon="11.7621761"><ele>156.33333333333334</ele><time>2026-04-11T11:49:17.973Z</time></trkpt><trkpt lat="45.7918967" lon="11.7620233"><ele>156.66666666666669</ele><time>2026-04-11T11:49:18.98Z</time></trkpt><trkpt lat="45.792041" lon="11.7618715"><ele>157.0</ele><time>2026-04-11T11:49:19.98Z</time></trkpt><trkpt lat="45.7921848" lon="11.7617202"><ele>157.33333333333334</ele><time>2026-04-11T11:49:20.978Z</time></trkpt><trkpt lat="45.7923282" lon="11.7615701"><ele>157.66666666666666</ele><time>2026-04-11T11:49:21.975Z</time></trkpt><trkpt lat="45.7924707" lon="11.7614216"><ele>158.0</ele><time>2026-04-11T11:49:22.979Z</time></trkpt><trkpt lat="45.7926106" lon="11.7612766"><ele>159.0</ele><time>2026-04-11T11:49:24.02Z</time></trkpt><trkpt lat="45.7927498" lon="11.7611337"><ele>160.0</ele><time>2026-04-11T11:49:24.98Z</time></trkpt><trkpt lat="45.7928876" lon="11.760992"><ele>161.0</ele><time>2026-04-11T11:49:25.974Z</time></trkpt><trkpt lat="45.7930237" lon="11.7608511"><ele>161.0</ele><time>2026-04-11T11:49:26.972Z</time></trkpt><trkpt lat="45.7931593" lon="11.7607113"><ele>161.0</ele><time>2026-04-11T11:49:27.982Z</time></trkpt><trkpt lat="45.7932957" lon="11.7605754"><ele>161.0</ele><time>2026-04-11T11:49:28.981Z</time></trkpt><trkpt lat="45.793435" lon="11.7604491"><ele>161.0</ele><time>2026-04-11T11:49:29.974Z</time></trkpt><trkpt lat="45.7935793" lon="11.7603392"><ele>161.0</ele><time>2026-04-11T11:49:30.971Z</time></trkpt><trkpt lat="45.7937305" lon="11.7602513"><ele>161.0</ele><time>2026-04-11T11:49:31.978Z</time></trkpt><trkpt lat="45.7938869" lon="11.760183"><ele>161.66666666666666</ele><time>2026-04-11T11:49:32.971Z</time></trkpt><trkpt lat="45.7940468" lon="11.7601266"><ele>162.33333333333334</ele><time>2026-04-11T11:49:33.976Z</time></trkpt><trkpt lat="45.7942089" lon="11.7600744"><ele>163.0</ele><time>2026-04-11T11:49:34.972Z</time></trkpt><trkpt lat="45.7943728" lon="11.760024"><ele>164.33333333333334</ele><time>2026-04-11T11:49:35.972Z</time></trkpt><trkpt lat="45.7945382" lon="11.7599743"><ele>165.66666666666666</ele><time>2026-04-11T11:49:36.974Z</time></trkpt><trkpt lat="45.7946981" lon="11.7599261"><ele>167.0</ele><time>2026-04-11T11:49:37.978Z</time></trkpt><trkpt lat="45.7948517" lon="11.7598795"><ele>167.0</ele><time>2026-04-11T11:49:38.977Z</time></trkpt><trkpt lat="45.7949989" lon="11.759835"><ele>167.0</ele><time>2026-04-11T11:49:39.975Z</time></trkpt><trkpt lat="45.7951357" lon="11.7597947"><ele>167.0</ele><time>2026-04-11T11:49:40.975Z</time></trkpt><trkpt lat="45.7952599" lon="11.7597544"><ele>167.0</ele><time>2026-04-11T11:49:41.979Z</time></trkpt><trkpt lat="45.795378" lon="11.7596939"><ele>168.75</ele><time>2026-04-11T11:49:42.977Z</time></trkpt><trkpt lat="45.7954893" lon="11.7596035"><ele>170.5</ele><time>2026-04-11T11:49:43.965Z</time></trkpt><trkpt lat="45.7955938" lon="11.7594855"><ele>172.25</ele><time>2026-04-11T11:49:44.978Z</time></trkpt><trkpt lat="45.7956783" lon="11.7593602"><ele>174.0</ele><time>2026-04-11T11:49:45.973Z</time></trkpt><trkpt lat="45.7957449" lon="11.759236"><ele>174.0</ele><time>2026-04-11T11:49:46.972Z</time></trkpt><trkpt lat="45.7958009" lon="11.7591204"><ele>174.0</ele><time>2026-04-11T11:49:47.977Z</time></trkpt><trkpt lat="45.7958521" lon="11.7590164"><ele>174.0</ele><time>2026-04-11T11:49:48.975Z</time></trkpt><trkpt lat="45.7958974" lon="11.7589245"><ele>174.0</ele><time>2026-04-11T11:49:49.975Z</time></trkpt><trkpt lat="45.7959397" lon="11.7588409"><ele>174.0</ele><time>2026-04-11T11:49:50.974Z</time></trkpt><trkpt lat="45.7959781" lon="11.7587677"><ele>174.0</ele><time>2026-04-11T11:49:51.973Z</time></trkpt><trkpt lat="45.7960561" lon="11.7586585"><ele>173.39999999999998</ele><time>2026-04-11T11:49:53.971Z</time></trkpt><trkpt lat="45.7961139" lon="11.7586132"><ele>172.8</ele><time>2026-04-11T11:49:55.983Z</time></trkpt><trkpt lat="45.7962121" lon="11.7585652"><ele>172.2</ele><time>2026-04-11T11:50:03.981Z</time></trkpt><trkpt lat="45.7962804" lon="11.7584786"><ele>171.60000000000002</ele><time>2026-04-11T11:50:05.983Z</time></trkpt><trkpt lat="45.7963018" lon="11.7583283"><ele>171.0</ele><time>2026-04-11T11:50:07.977Z</time></trkpt><trkpt lat="45.796321" lon="11.7581701"><ele>170.66666666666666</ele><time>2026-04-11T11:50:09.976Z</time></trkpt><trkpt lat="45.7963814" lon="11.7580955"><ele>170.33333333333334</ele><time>2026-04-11T11:50:11.98Z</time></trkpt><trkpt lat="45.7964308" lon="11.7581767"><ele>170.0</ele><time>2026-04-11T11:50:14.976Z</time></trkpt><trkpt lat="45.7963867" lon="11.7581016"><ele>169.66666666666669</ele><time>2026-04-11T11:56:01.973Z</time></trkpt><trkpt lat="45.7964344" lon="11.7579683"><ele>169.33333333333334</ele><time>2026-04-11T11:56:03.98Z</time></trkpt><trkpt lat="45.7964953" lon="11.7578863"><ele>169.0</ele><time>2026-04-11T11:56:04.973Z</time></trkpt><trkpt lat="45.7965516" lon="11.7578127"><ele>169.0</ele><time>2026-04-11T11:56:05.976Z</time></trkpt><trkpt lat="45.7966057" lon="11.7577549"><ele>169.0</ele><time>2026-04-11T11:56:06.978Z</time></trkpt><trkpt lat="45.7966542" lon="11.7576903"><ele>169.0</ele><time>2026-04-11T11:56:07.973Z</time></trkpt><trkpt lat="45.7967053" lon="11.7576232"><ele>169.0</ele><time>2026-04-11T11:56:08.981Z</time></trkpt><trkpt lat="45.796802" lon="11.7575285"><ele>169.0</ele><time>2026-04-11T11:56:10.971Z</time></trkpt><trkpt lat="45.7969051" lon="11.757471"><ele>169.0</ele><time>2026-04-11T11:56:12.976Z</time></trkpt><trkpt lat="45.7969666" lon="11.7574505"><ele>169.66666666666669</ele><time>2026-04-11T11:56:13.982Z</time></trkpt><trkpt lat="45.7970364" lon="11.7574271"><ele>170.33333333333334</ele><time>2026-04-11T11:56:14.985Z</time></trkpt><trkpt lat="45.7971169" lon="11.7573967"><ele>171.0</ele><time>2026-04-11T11:56:15.978Z</time></trkpt><trkpt lat="45.797197" lon="11.7573587"><ele>171.66666666666666</ele><time>2026-04-11T11:56:16.975Z</time></trkpt><trkpt lat="45.7972698" lon="11.7573182"><ele>172.33333333333331</ele><time>2026-04-11T11:56:17.988Z</time></trkpt><trkpt lat="45.7973469" lon="11.7572589"><ele>173.0</ele><time>2026-04-11T11:56:18.975Z</time></trkpt><trkpt lat="45.7974264" lon="11.757182"><ele>173.0</ele><time>2026-04-11T11:56:19.976Z</time></trkpt><trkpt lat="45.7975051" lon="11.7571017"><ele>173.0</ele><time>2026-04-11T11:56:20.984Z</time></trkpt><trkpt lat="45.7975824" lon="11.7570283"><ele>173.0</ele><time>2026-04-11T11:56:21.97Z</time></trkpt><trkpt lat="45.7976616" lon="11.7569592"><ele>173.0</ele><time>2026-04-11T11:56:22.977Z</time></trkpt><trkpt lat="45.7977475" lon="11.7568963"><ele>173.0</ele><time>2026-04-11T11:56:23.971Z</time></trkpt><trkpt lat="45.7978409" lon="11.7568445"><ele>173.33333333333331</ele><time>2026-04-11T11:56:24.973Z</time></trkpt><trkpt lat="45.7979381" lon="11.7568055"><ele>173.66666666666666</ele><time>2026-04-11T11:56:25.983Z</time></trkpt><trkpt lat="45.7980369" lon="11.756777"><ele>174.0</ele><time>2026-04-11T11:56:26.979Z</time></trkpt><trkpt lat="45.7981245" lon="11.7567569"><ele>174.33333333333334</ele><time>2026-04-11T11:56:27.972Z</time></trkpt><trkpt lat="45.7982044" lon="11.756741"><ele>174.66666666666669</ele><time>2026-04-11T11:56:28.987Z</time></trkpt><trkpt lat="45.7982771" lon="11.7567263"><ele>175.0</ele><time>2026-04-11T11:56:29.979Z</time></trkpt><trkpt lat="45.798353" lon="11.7567083"><ele>175.0</ele><time>2026-04-11T11:56:30.98Z</time></trkpt><trkpt lat="45.7984318" lon="11.7566907"><ele>175.0</ele><time>2026-04-11T11:56:31.981Z</time></trkpt><trkpt lat="45.7985164" lon="11.7566731"><ele>175.0</ele><time>2026-04-11T11:56:32.98Z</time></trkpt><trkpt lat="45.7986063" lon="11.7566544"><ele>175.0</ele><time>2026-04-11T11:56:33.982Z</time></trkpt><trkpt lat="45.7986978" lon="11.7566339"><ele>175.0</ele><time>2026-04-11T11:56:34.978Z</time></trkpt><trkpt lat="45.7987945" lon="11.7566133"><ele>175.0</ele><time>2026-04-11T11:56:35.978Z</time></trkpt><trkpt lat="45.7988934" lon="11.7565947"><ele>175.66666666666669</ele><time>2026-04-11T11:56:36.987Z</time></trkpt><trkpt lat="45.7989858" lon="11.7565738"><ele>176.33333333333334</ele><time>2026-04-11T11:56:37.978Z</time></trkpt><trkpt lat="45.7990711" lon="11.7565414"><ele>177.0</ele><time>2026-04-11T11:56:38.972Z</time></trkpt><trkpt lat="45.7991576" lon="11.7565102"><ele>177.66666666666666</ele><time>2026-04-11T11:56:39.972Z</time></trkpt><trkpt lat="45.7992424" lon="11.7564839"><ele>178.33333333333331</ele><time>2026-04-11T11:56:40.983Z</time></trkpt><trkpt lat="45.7993293" lon="11.7564647"><ele>179.0</ele><time>2026-04-11T11:56:41.974Z</time></trkpt><trkpt lat="45.7994159" lon="11.7564548"><ele>180.0</ele><time>2026-04-11T11:56:42.979Z</time></trkpt><trkpt lat="45.7995128" lon="11.7564605"><ele>181.0</ele><time>2026-04-11T11:56:43.976Z</time></trkpt><trkpt lat="45.7996215" lon="11.7564783"><ele>182.0</ele><time>2026-04-11T11:56:44.978Z</time></trkpt><trkpt lat="45.7997268" lon="11.7564951"><ele>183.0</ele><time>2026-04-11T11:56:45.98Z</time></trkpt><trkpt lat="45.7998293" lon="11.756511"><ele>184.0</ele><time>2026-04-11T11:56:46.967Z</time></trkpt><trkpt lat="45.799917" lon="11.7565263"><ele>184.0</ele><time>2026-04-11T11:56:47.973Z</time></trkpt><trkpt lat="45.7999984" lon="11.7565399"><ele>184.0</ele><time>2026-04-11T11:56:48.97Z</time></trkpt><trkpt lat="45.8000712" lon="11.7565555"><ele>184.0</ele><time>2026-04-11T11:56:49.972Z</time></trkpt><trkpt lat="45.8001346" lon="11.7565718"><ele>184.0</ele><time>2026-04-11T11:56:50.984Z</time></trkpt><trkpt lat="45.8001971" lon="11.7565909"><ele>184.0</ele><time>2026-04-11T11:56:52.024Z</time></trkpt><trkpt lat="45.8002601" lon="11.7566042"><ele>184.0</ele><time>2026-04-11T11:56:52.972Z</time></trkpt><trkpt lat="45.8003215" lon="11.7566414"><ele>184.0</ele><time>2026-04-11T11:56:53.97Z</time></trkpt><trkpt lat="45.8003805" lon="11.7568"><ele>184.0</ele><time>2026-04-11T11:56:55.975Z</time></trkpt><trkpt lat="45.8004181" lon="11.7568838"><ele>184.0</ele><time>2026-04-11T11:56:56.976Z</time></trkpt><trkpt lat="45.8004635" lon="11.7569669"><ele>184.0</ele><time>2026-04-11T11:56:57.97Z</time></trkpt><trkpt lat="45.8005195" lon="11.7570437"><ele>184.0</ele><time>2026-04-11T11:56:58.972Z</time></trkpt><trkpt lat="45.8005811" lon="11.7571236"><ele>184.0</ele><time>2026-04-11T11:56:59.983Z</time></trkpt><trkpt lat="45.800659" lon="11.7571943"><ele>184.0</ele><time>2026-04-11T11:57:00.979Z</time></trkpt><trkpt lat="45.8007378" lon="11.7572724"><ele>184.0</ele><time>2026-04-11T11:57:01.967Z</time></trkpt><trkpt lat="45.8008166" lon="11.7573493"><ele>184.0</ele><time>2026-04-11T11:57:02.972Z</time></trkpt><trkpt lat="45.8009004" lon="11.7574288"><ele>184.0</ele><time>2026-04-11T11:57:03.985Z</time></trkpt><trkpt lat="45.8009856" lon="11.7575058"><ele>184.0</ele><time>2026-04-11T11:57:04.98Z</time></trkpt><trkpt lat="45.8010685" lon="11.7575857"><ele>184.0</ele><time>2026-04-11T11:57:05.968Z</time></trkpt><trkpt lat="45.8011407" lon="11.7576647"><ele>184.5</ele><time>2026-04-11T11:57:06.973Z</time></trkpt><trkpt lat="45.8012071" lon="11.757745"><ele>185.0</ele><time>2026-04-11T11:57:07.977Z</time></trkpt><trkpt lat="45.8012693" lon="11.7578252"><ele>185.5</ele><time>2026-04-11T11:57:08.97Z</time></trkpt><trkpt lat="45.8013346" lon="11.7578999"><ele>186.0</ele><time>2026-04-11T11:57:09.98Z</time></trkpt><trkpt lat="45.8014013" lon="11.7579562"><ele>186.5</ele><time>2026-04-11T11:57:10.97Z</time></trkpt><trkpt lat="45.8014782" lon="11.7579859"><ele>187.0</ele><time>2026-04-11T11:57:11.979Z</time></trkpt><trkpt lat="45.8015634" lon="11.7579851"><ele>187.0</ele><time>2026-04-11T11:57:12.973Z</time></trkpt><trkpt lat="45.8016468" lon="11.7579558"><ele>187.0</ele><time>2026-04-11T11:57:13.97Z</time></trkpt><trkpt lat="45.801724" lon="11.7579229"><ele>187.0</ele><time>2026-04-11T11:57:14.971Z</time></trkpt><trkpt lat="45.8017973" lon="11.7578983"><ele>187.0</ele><time>2026-04-11T11:57:15.985Z</time></trkpt><trkpt lat="45.8018743" lon="11.7578937"><ele>187.0</ele><time>2026-04-11T11:57:16.974Z</time></trkpt><trkpt lat="45.8019481" lon="11.7578895"><ele>187.0</ele><time>2026-04-11T11:57:17.965Z</time></trkpt><trkpt lat="45.8020186" lon="11.7579241"><ele>187.39999999999998</ele><time>2026-04-11T11:57:18.978Z</time></trkpt><trkpt lat="45.8021" lon="11.7579401"><ele>187.79999999999998</ele><time>2026-04-11T11:57:19.974Z</time></trkpt><trkpt lat="45.8021898" lon="11.7579367"><ele>188.2</ele><time>2026-04-11T11:57:20.971Z</time></trkpt><trkpt lat="45.8022851" lon="11.7579141"><ele>188.6</ele><time>2026-04-11T11:57:21.972Z</time></trkpt><trkpt lat="45.8023801" lon="11.7578717"><ele>189.0</ele><time>2026-04-11T11:57:22.973Z</time></trkpt><trkpt lat="45.8024746" lon="11.7578301"><ele>189.0</ele><time>2026-04-11T11:57:23.969Z</time></trkpt><trkpt lat="45.8025678" lon="11.7577717"><ele>189.0</ele><time>2026-04-11T11:57:24.977Z</time></trkpt><trkpt lat="45.8026706" lon="11.7577068"><ele>189.0</ele><time>2026-04-11T11:57:25.977Z</time></trkpt><trkpt lat="45.8027743" lon="11.7576378"><ele>189.0</ele><time>2026-04-11T11:57:26.966Z</time></trkpt><trkpt lat="45.8028702" lon="11.7575743"><ele>189.0</ele><time>2026-04-11T11:57:27.98Z</time></trkpt><trkpt lat="45.8029508" lon="11.757521"><ele>189.79999999999998</ele><time>2026-04-11T11:57:28.973Z</time></trkpt><trkpt lat="45.8030154" lon="11.7574805"><ele>190.6</ele><time>2026-04-11T11:57:29.979Z</time></trkpt><trkpt lat="45.8031148" lon="11.7574174"><ele>191.4</ele><time>2026-04-11T11:57:31.984Z</time></trkpt><trkpt lat="45.8032266" lon="11.7573411"><ele>192.2</ele><time>2026-04-11T11:57:33.976Z</time></trkpt><trkpt lat="45.8032994" lon="11.7572924"><ele>193.0</ele><time>2026-04-11T11:57:34.977Z</time></trkpt><trkpt lat="45.8033836" lon="11.7572378"><ele>193.0</ele><time>2026-04-11T11:57:35.976Z</time></trkpt><trkpt lat="45.8034867" lon="11.7571722"><ele>193.0</ele><time>2026-04-11T11:57:36.978Z</time></trkpt><trkpt lat="45.8035947" lon="11.7571073"><ele>193.0</ele><time>2026-04-11T11:57:37.972Z</time></trkpt><trkpt lat="45.8037005" lon="11.757042"><ele>193.0</ele><time>2026-04-11T11:57:38.985Z</time></trkpt><trkpt lat="45.8038108" lon="11.7569743"><ele>193.25</ele><time>2026-04-11T11:57:39.979Z</time></trkpt><trkpt lat="45.8039261" lon="11.7569045"><ele>193.5</ele><time>2026-04-11T11:57:40.977Z</time></trkpt><trkpt lat="45.8040416" lon="11.7568332"><ele>193.75</ele><time>2026-04-11T11:57:41.992Z</time></trkpt><trkpt lat="45.8041455" lon="11.7567627"><ele>194.0</ele><time>2026-04-11T11:57:42.985Z</time></trkpt><trkpt lat="45.8042429" lon="11.7566769"><ele>197.75</ele><time>2026-04-11T11:57:43.979Z</time></trkpt><trkpt lat="45.8043314" lon="11.7565592"><ele>201.5</ele><time>2026-04-11T11:57:44.979Z</time></trkpt><trkpt lat="45.8044282" lon="11.7564314"><ele>205.25</ele><time>2026-04-11T11:57:45.98Z</time></trkpt><trkpt lat="45.8045488" lon="11.7563413"><ele>209.0</ele><time>2026-04-11T11:57:46.994Z</time></trkpt><trkpt lat="45.8046696" lon="11.7562548"><ele>209.0</ele><time>2026-04-11T11:57:47.969Z</time></trkpt><trkpt lat="45.8048139" lon="11.7562728"><ele>209.0</ele><time>2026-04-11T11:57:48.967Z</time></trkpt><trkpt lat="45.8049575" lon="11.7563242"><ele>209.0</ele><time>2026-04-11T11:57:49.979Z</time></trkpt><trkpt lat="45.8051043" lon="11.7563848"><ele>209.0</ele><time>2026-04-11T11:57:50.981Z</time></trkpt><trkpt lat="45.8052581" lon="11.7564515"><ele>214.0</ele><time>2026-04-11T11:57:51.983Z</time></trkpt><trkpt lat="45.8054238" lon="11.7565185"><ele>219.0</ele><time>2026-04-11T11:57:52.975Z</time></trkpt><trkpt lat="45.8055795" lon="11.7565755"><ele>224.0</ele><time>2026-04-11T11:57:53.976Z</time></trkpt><trkpt lat="45.8057311" lon="11.7566209"><ele>224.0</ele><time>2026-04-11T11:57:54.984Z</time></trkpt><trkpt lat="45.8058944" lon="11.756653"><ele>224.0</ele><time>2026-04-11T11:57:55.971Z</time></trkpt><trkpt lat="45.8060784" lon="11.7566826"><ele>224.0</ele><time>2026-04-11T11:57:56.974Z</time></trkpt><trkpt lat="45.8062694" lon="11.7567102"><ele>228.66666666666669</ele><time>2026-04-11T11:57:57.985Z</time></trkpt><trkpt lat="45.8064553" lon="11.7567359"><ele>233.33333333333331</ele><time>2026-04-11T11:57:58.976Z</time></trkpt><trkpt lat="45.8066378" lon="11.7567534"><ele>238.0</ele><time>2026-04-11T11:57:59.972Z</time></trkpt><trkpt lat="45.806818" lon="11.7567628"><ele>239.66666666666666</ele><time>2026-04-11T11:58:00.985Z</time></trkpt><trkpt lat="45.8069926" lon="11.7567748"><ele>241.33333333333331</ele><time>2026-04-11T11:58:01.973Z</time></trkpt><trkpt lat="45.8071508" lon="11.756779"><ele>243.0</ele><time>2026-04-11T11:58:02.967Z</time></trkpt><trkpt lat="45.8072892" lon="11.75679"><ele>243.0</ele><time>2026-04-11T11:58:03.97Z</time></trkpt><trkpt lat="45.807407" lon="11.7568049"><ele>243.0</ele><time>2026-04-11T11:58:04.976Z</time></trkpt><trkpt lat="45.8075078" lon="11.7568255"><ele>243.0</ele><time>2026-04-11T11:58:05.972Z</time></trkpt><trkpt lat="45.8075895" lon="11.756867"><ele>243.0</ele><time>2026-04-11T11:58:06.97Z</time></trkpt><trkpt lat="45.8076602" lon="11.7569023"><ele>243.0</ele><time>2026-04-11T11:58:07.985Z</time></trkpt><trkpt lat="45.8077712" lon="11.7568545"><ele>243.0</ele><time>2026-04-11T11:58:09.97Z</time></trkpt><trkpt lat="45.8078089" lon="11.756763"><ele>243.0</ele><time>2026-04-11T11:58:10.977Z</time></trkpt><trkpt lat="45.8077577" lon="11.7566636"><ele>243.0</ele><time>2026-04-11T11:58:11.979Z</time></trkpt><trkpt lat="45.8076699" lon="11.7566171"><ele>243.0</ele><time>2026-04-11T11:58:12.968Z</time></trkpt><trkpt lat="45.8075647" lon="11.7565665"><ele>243.0</ele><time>2026-04-11T11:58:13.967Z</time></trkpt><trkpt lat="45.8074113" lon="11.7565777"><ele>243.0</ele><time>2026-04-11T11:58:14.97Z</time></trkpt><trkpt lat="45.8072529" lon="11.756551"><ele>243.0</ele><time>2026-04-11T11:58:15.976Z</time></trkpt><trkpt lat="45.8070969" lon="11.7565059"><ele>243.0</ele><time>2026-04-11T11:58:16.977Z</time></trkpt><trkpt lat="45.8069591" lon="11.7564555"><ele>243.0</ele><time>2026-04-11T11:58:17.969Z</time></trkpt><trkpt lat="45.806834" lon="11.756413"><ele>243.0</ele><time>2026-04-11T11:58:18.973Z</time></trkpt><trkpt lat="45.8067019" lon="11.7563702"><ele>243.0</ele><time>2026-04-11T11:58:19.974Z</time></trkpt><trkpt lat="45.806571" lon="11.7563168"><ele>243.0</ele><time>2026-04-11T11:58:20.973Z</time></trkpt><trkpt lat="45.8064308" lon="11.7562412"><ele>241.75</ele><time>2026-04-11T11:58:21.987Z</time></trkpt><trkpt lat="45.8063096" lon="11.7561665"><ele>240.5</ele><time>2026-04-11T11:58:22.969Z</time></trkpt><trkpt lat="45.8062" lon="11.756095"><ele>239.25</ele><time>2026-04-11T11:58:23.97Z</time></trkpt><trkpt lat="45.8060934" lon="11.7560318"><ele>238.0</ele><time>2026-04-11T11:58:24.969Z</time></trkpt><trkpt lat="45.80599" lon="11.7559721"><ele>243.2</ele><time>2026-04-11T11:58:25.975Z</time></trkpt><trkpt lat="45.8058943" lon="11.7559075"><ele>248.4</ele><time>2026-04-11T11:58:26.973Z</time></trkpt><trkpt lat="45.8058092" lon="11.7558313"><ele>253.59999999999997</ele><time>2026-04-11T11:58:27.97Z</time></trkpt><trkpt lat="45.8057262" lon="11.7557699"><ele>258.8</ele><time>2026-04-11T11:58:28.977Z</time></trkpt><trkpt lat="45.8056561" lon="11.755716"><ele>264.0</ele><time>2026-04-11T11:58:29.973Z</time></trkpt><trkpt lat="45.8055896" lon="11.7556746"><ele>264.0</ele><time>2026-04-11T11:58:30.973Z</time></trkpt><trkpt lat="45.8055145" lon="11.7556085"><ele>264.0</ele><time>2026-04-11T11:58:31.971Z</time></trkpt><trkpt lat="45.8054306" lon="11.7555194"><ele>264.0</ele><time>2026-04-11T11:58:32.973Z</time></trkpt><trkpt lat="45.8053403" lon="11.7554227"><ele>264.0</ele><time>2026-04-11T11:58:33.966Z</time></trkpt><trkpt lat="45.8052424" lon="11.7552982"><ele>264.0</ele><time>2026-04-11T11:58:34.977Z</time></trkpt><trkpt lat="45.8051579" lon="11.7551931"><ele>266.75</ele><time>2026-04-11T11:58:35.977Z</time></trkpt><trkpt lat="45.8050631" lon="11.7550674"><ele>269.5</ele><time>2026-04-11T11:58:36.98Z</time></trkpt><trkpt lat="45.8049546" lon="11.7549387"><ele>272.25</ele><time>2026-04-11T11:58:37.975Z</time></trkpt><trkpt lat="45.8048487" lon="11.7548067"><ele>275.0</ele><time>2026-04-11T11:58:39.015Z</time></trkpt><trkpt lat="45.8047397" lon="11.7546614"><ele>275.0</ele><time>2026-04-11T11:58:39.972Z</time></trkpt><trkpt lat="45.8046225" lon="11.7545111"><ele>275.0</ele><time>2026-04-11T11:58:40.974Z</time></trkpt><trkpt lat="45.8044817" lon="11.7543333"><ele>275.0</ele><time>2026-04-11T11:58:41.98Z</time></trkpt><trkpt lat="45.8043164" lon="11.7541299"><ele>273.0</ele><time>2026-04-11T11:58:42.966Z</time></trkpt><trkpt lat="45.8041656" lon="11.753887"><ele>271.0</ele><time>2026-04-11T11:58:43.975Z</time></trkpt><trkpt lat="45.8040193" lon="11.7536314"><ele>281.0</ele><time>2026-04-11T11:58:44.981Z</time></trkpt><trkpt lat="45.8038746" lon="11.7533727"><ele>291.0</ele><time>2026-04-11T11:58:45.972Z</time></trkpt><trkpt lat="45.8037521" lon="11.7531409"><ele>301.0</ele><time>2026-04-11T11:58:46.971Z</time></trkpt><trkpt lat="45.8036454" lon="11.7529428"><ele>301.0</ele><time>2026-04-11T11:58:47.984Z</time></trkpt><trkpt lat="45.8035432" lon="11.7527515"><ele>301.0</ele><time>2026-04-11T11:58:48.968Z</time></trkpt><trkpt lat="45.8034454" lon="11.7525601"><ele>301.0</ele><time>2026-04-11T11:58:49.971Z</time></trkpt><trkpt lat="45.8033626" lon="11.7523592"><ele>296.0</ele><time>2026-04-11T11:58:50.973Z</time></trkpt><trkpt lat="45.803288" lon="11.7521363"><ele>291.0</ele><time>2026-04-11T11:58:51.97Z</time></trkpt><trkpt lat="45.8032099" lon="11.7519163"><ele>286.0</ele><time>2026-04-11T11:58:52.969Z</time></trkpt><trkpt lat="45.8031303" lon="11.7516731"><ele>298.0</ele><time>2026-04-11T11:58:53.98Z</time></trkpt><trkpt lat="45.8030448" lon="11.7514355"><ele>310.0</ele><time>2026-04-11T11:58:54.976Z</time></trkpt><trkpt lat="45.8029607" lon="11.751194"><ele>322.0</ele><time>2026-04-11T11:58:55.968Z</time></trkpt><trkpt lat="45.8028811" lon="11.7509534"><ele>329.0</ele><time>2026-04-11T11:58:56.973Z</time></trkpt><trkpt lat="45.8028027" lon="11.7506989"><ele>336.0</ele><time>2026-04-11T11:58:57.974Z</time></trkpt><trkpt lat="45.8027282" lon="11.7504516"><ele>343.0</ele><time>2026-04-11T11:58:58.974Z</time></trkpt><trkpt lat="45.8026574" lon="11.7502265"><ele>337.0</ele><time>2026-04-11T11:58:59.973Z</time></trkpt><trkpt lat="45.802603" lon="11.7500268"><ele>331.0</ele><time>2026-04-11T11:59:00.975Z</time></trkpt><trkpt lat="45.802547" lon="11.7498518"><ele>325.0</ele><time>2026-04-11T11:59:01.97Z</time></trkpt><trkpt lat="45.8024449" lon="11.7497217"><ele>319.0</ele><time>2026-04-11T11:59:02.975Z</time></trkpt><trkpt lat="45.8023073" lon="11.7496133"><ele>319.0</ele><time>2026-04-11T11:59:04.005Z</time></trkpt><trkpt lat="45.8021567" lon="11.7495043"><ele>319.0</ele><time>2026-04-11T11:59:04.972Z</time></trkpt><trkpt lat="45.8020081" lon="11.7493971"><ele>319.0</ele><time>2026-04-11T11:59:05.971Z</time></trkpt><trkpt lat="45.8018616" lon="11.7493122"><ele>321.3333333333333</ele><time>2026-04-11T11:59:06.975Z</time></trkpt><trkpt lat="45.8017246" lon="11.74922"><ele>323.6666666666667</ele><time>2026-04-11T11:59:07.969Z</time></trkpt><trkpt lat="45.8016079" lon="11.7490954"><ele>326.0</ele><time>2026-04-11T11:59:08.977Z</time></trkpt><trkpt lat="45.8014939" lon="11.7489276"><ele>326.0</ele><time>2026-04-11T11:59:09.967Z</time></trkpt><trkpt lat="45.8013845" lon="11.7487106"><ele>326.0</ele><time>2026-04-11T11:59:10.972Z</time></trkpt><trkpt lat="45.8012634" lon="11.748493"><ele>326.0</ele><time>2026-04-11T11:59:11.974Z</time></trkpt><trkpt lat="45.8011446" lon="11.7482885"><ele>325.0</ele><time>2026-04-11T11:59:12.974Z</time></trkpt><trkpt lat="45.8010322" lon="11.7480587"><ele>324.0</ele><time>2026-04-11T11:59:13.973Z</time></trkpt><trkpt lat="45.8009242" lon="11.7478428"><ele>323.0</ele><time>2026-04-11T11:59:14.977Z</time></trkpt><trkpt lat="45.8008382" lon="11.7476498"><ele>329.25</ele><time>2026-04-11T11:59:15.97Z</time></trkpt><trkpt lat="45.8007584" lon="11.7474687"><ele>335.5</ele><time>2026-04-11T11:59:16.966Z</time></trkpt><trkpt lat="45.8006887" lon="11.7473055"><ele>341.75</ele><time>2026-04-11T11:59:17.967Z</time></trkpt><trkpt lat="45.8006237" lon="11.74718"><ele>348.0</ele><time>2026-04-11T11:59:18.975Z</time></trkpt><trkpt lat="45.8005719" lon="11.7470978"><ele>348.0</ele><time>2026-04-11T11:59:19.979Z</time></trkpt><trkpt lat="45.8005356" lon="11.7469785"><ele>348.0</ele><time>2026-04-11T11:59:21.969Z</time></trkpt><trkpt lat="45.8006306" lon="11.7469314"><ele>348.0</ele><time>2026-04-11T11:59:23.977Z</time></trkpt><trkpt lat="45.8007014" lon="11.7470116"><ele>348.0</ele><time>2026-04-11T11:59:24.968Z</time></trkpt><trkpt lat="45.8007613" lon="11.7471467"><ele>348.0</ele><time>2026-04-11T11:59:25.974Z</time></trkpt><trkpt lat="45.8008263" lon="11.7473063"><ele>348.0</ele><time>2026-04-11T11:59:26.97Z</time></trkpt><trkpt lat="45.8009239" lon="11.7474753"><ele>348.0</ele><time>2026-04-11T11:59:27.971Z</time></trkpt><trkpt lat="45.8010471" lon="11.7476375"><ele>348.0</ele><time>2026-04-11T11:59:28.966Z</time></trkpt><trkpt lat="45.8011711" lon="11.7477854"><ele>353.3333333333333</ele><time>2026-04-11T11:59:29.979Z</time></trkpt><trkpt lat="45.8012812" lon="11.7479144"><ele>358.66666666666663</ele><time>2026-04-11T11:59:30.969Z</time></trkpt><trkpt lat="45.8014018" lon="11.7480417"><ele>364.0</ele><time>2026-04-11T11:59:31.971Z</time></trkpt><trkpt lat="45.8015344" lon="11.7481782"><ele>364.0</ele><time>2026-04-11T11:59:32.985Z</time></trkpt><trkpt lat="45.8016655" lon="11.7483303"><ele>364.0</ele><time>2026-04-11T11:59:33.973Z</time></trkpt><trkpt lat="45.8017766" lon="11.7484633"><ele>364.0</ele><time>2026-04-11T11:59:34.978Z</time></trkpt><trkpt lat="45.8018796" lon="11.748574"><ele>364.0</ele><time>2026-04-11T11:59:35.971Z</time></trkpt><trkpt lat="45.8019893" lon="11.7486597"><ele>361.75</ele><time>2026-04-11T11:59:36.966Z</time></trkpt><trkpt lat="45.8021211" lon="11.7487136"><ele>359.5</ele><time>2026-04-11T11:59:37.977Z</time></trkpt><trkpt lat="45.8022567" lon="11.7487477"><ele>357.25</ele><time>2026-04-11T11:59:38.973Z</time></trkpt><trkpt lat="45.8023967" lon="11.7487593"><ele>355.0</ele><time>2026-04-11T11:59:39.97Z</time></trkpt><trkpt lat="45.8025429" lon="11.7487506"><ele>364.0</ele><time>2026-04-11T11:59:40.975Z</time></trkpt><trkpt lat="45.8026889" lon="11.7487495"><ele>373.0</ele><time>2026-04-11T11:59:41.966Z</time></trkpt><trkpt lat="45.8028283" lon="11.7487582"><ele>382.0</ele><time>2026-04-11T11:59:42.973Z</time></trkpt><trkpt lat="45.802948" lon="11.7487824"><ele>391.0</ele><time>2026-04-11T11:59:43.98Z</time></trkpt><trkpt lat="45.8030524" lon="11.7488459"><ele>391.0</ele><time>2026-04-11T11:59:44.976Z</time></trkpt><trkpt lat="45.8031472" lon="11.7489699"><ele>391.0</ele><time>2026-04-11T11:59:45.972Z</time></trkpt><trkpt lat="45.8032512" lon="11.7491406"><ele>391.0</ele><time>2026-04-11T11:59:46.966Z</time></trkpt><trkpt lat="45.8033614" lon="11.749317"><ele>398.33333333333337</ele><time>2026-04-11T11:59:47.972Z</time></trkpt><trkpt lat="45.8034735" lon="11.7494989"><ele>405.66666666666663</ele><time>2026-04-11T11:59:48.973Z</time></trkpt><trkpt lat="45.8035811" lon="11.7497364"><ele>413.0</ele><time>2026-04-11T11:59:49.978Z</time></trkpt><trkpt lat="45.8036833" lon="11.7499405"><ele>413.0</ele><time>2026-04-11T11:59:50.968Z</time></trkpt><trkpt lat="45.8037845" lon="11.7501561"><ele>413.0</ele><time>2026-04-11T11:59:51.973Z</time></trkpt><trkpt lat="45.803883" lon="11.7503629"><ele>413.0</ele><time>2026-04-11T11:59:52.968Z</time></trkpt><trkpt lat="45.8039845" lon="11.7505724"><ele>407.66666666666663</ele><time>2026-04-11T11:59:53.983Z</time></trkpt><trkpt lat="45.8040795" lon="11.7507718"><ele>402.33333333333337</ele><time>2026-04-11T11:59:54.979Z</time></trkpt><trkpt lat="45.804159" lon="11.7509452"><ele>397.0</ele><time>2026-04-11T11:59:55.972Z</time></trkpt><trkpt lat="45.8042161" lon="11.7511258"><ele>401.5</ele><time>2026-04-11T11:59:56.983Z</time></trkpt><trkpt lat="45.8042915" lon="11.7512948"><ele>406.0</ele><time>2026-04-11T11:59:57.971Z</time></trkpt><trkpt lat="45.8043854" lon="11.7514509"><ele>410.5</ele><time>2026-04-11T11:59:58.979Z</time></trkpt><trkpt lat="45.8045021" lon="11.7515872"><ele>415.0</ele><time>2026-04-11T11:59:59.969Z</time></trkpt><trkpt lat="45.8046376" lon="11.7517081"><ele>415.0</ele><time>2026-04-11T12:00:00.981Z</time></trkpt><trkpt lat="45.8047785" lon="11.7518403"><ele>415.0</ele><time>2026-04-11T12:00:01.973Z</time></trkpt><trkpt lat="45.8049324" lon="11.7519617"><ele>415.0</ele><time>2026-04-11T12:00:02.973Z</time></trkpt><trkpt lat="45.8050868" lon="11.7520876"><ele>416.6666666666667</ele><time>2026-04-11T12:00:03.974Z</time></trkpt><trkpt lat="45.8052473" lon="11.7522148"><ele>418.33333333333337</ele><time>2026-04-11T12:00:04.974Z</time></trkpt><trkpt lat="45.8054171" lon="11.7523429"><ele>420.0</ele><time>2026-04-11T12:00:05.98Z</time></trkpt><trkpt lat="45.8055738" lon="11.7524625"><ele>420.0</ele><time>2026-04-11T12:00:06.979Z</time></trkpt><trkpt lat="45.805731" lon="11.7525993"><ele>420.0</ele><time>2026-04-11T12:00:07.966Z</time></trkpt><trkpt lat="45.8058945" lon="11.7527422"><ele>420.0</ele><time>2026-04-11T12:00:08.972Z</time></trkpt><trkpt lat="45.8060503" lon="11.7528766"><ele>416.66666666666663</ele><time>2026-04-11T12:00:09.974Z</time></trkpt><trkpt lat="45.8061995" lon="11.7530025"><ele>413.3333333333333</ele><time>2026-04-11T12:00:10.968Z</time></trkpt><trkpt lat="45.8063436" lon="11.7531213"><ele>410.0</ele><time>2026-04-11T12:00:11.969Z</time></trkpt><trkpt lat="45.8064832" lon="11.7532329"><ele>410.0</ele><time>2026-04-11T12:00:12.968Z</time></trkpt><trkpt lat="45.8066247" lon="11.7533225"><ele>410.0</ele><time>2026-04-11T12:00:13.973Z</time></trkpt><trkpt lat="45.8067743" lon="11.7533792"><ele>410.0</ele><time>2026-04-11T12:00:14.97Z</time></trkpt><trkpt lat="45.8069254" lon="11.7534173"><ele>416.66666666666663</ele><time>2026-04-11T12:00:15.97Z</time></trkpt><trkpt lat="45.8070739" lon="11.7534225"><ele>423.33333333333337</ele><time>2026-04-11T12:00:16.978Z</time></trkpt><trkpt lat="45.8072125" lon="11.7533893"><ele>430.0</ele><time>2026-04-11T12:00:17.972Z</time></trkpt><trkpt lat="45.8073641" lon="11.7533064"><ele>430.0</ele><time>2026-04-11T12:00:18.972Z</time></trkpt><trkpt lat="45.8075114" lon="11.7532718"><ele>430.0</ele><time>2026-04-11T12:00:19.977Z</time></trkpt><trkpt lat="45.8076658" lon="11.7532418"><ele>430.0</ele><time>2026-04-11T12:00:20.976Z</time></trkpt><trkpt lat="45.8078277" lon="11.7532161"><ele>427.0</ele><time>2026-04-11T12:00:21.976Z</time></trkpt><trkpt lat="45.8080089" lon="11.7532007"><ele>424.0</ele><time>2026-04-11T12:00:22.967Z</time></trkpt><trkpt lat="45.8081978" lon="11.7531499"><ele>421.0</ele><time>2026-04-11T12:00:23.966Z</time></trkpt><trkpt lat="45.808387" lon="11.7530926"><ele>419.0</ele><time>2026-04-11T12:00:24.963Z</time></trkpt><trkpt lat="45.808569" lon="11.7530405"><ele>417.0</ele><time>2026-04-11T12:00:25.98Z</time></trkpt><trkpt lat="45.8087439" lon="11.7529558"><ele>415.0</ele><time>2026-04-11T12:00:26.97Z</time></trkpt><trkpt lat="45.8089028" lon="11.7528743"><ele>415.0</ele><time>2026-04-11T12:00:27.974Z</time></trkpt><trkpt lat="45.809058" lon="11.7527929"><ele>415.0</ele><time>2026-04-11T12:00:28.975Z</time></trkpt><trkpt lat="45.8092013" lon="11.7527385"><ele>415.0</ele><time>2026-04-11T12:00:29.968Z</time></trkpt><trkpt lat="45.8093235" lon="11.7526968"><ele>415.0</ele><time>2026-04-11T12:00:31.013Z</time></trkpt><trkpt lat="45.8094331" lon="11.7526544"><ele>419.6</ele><time>2026-04-11T12:00:31.975Z</time></trkpt><trkpt lat="45.809532" lon="11.7526056"><ele>424.2</ele><time>2026-04-11T12:00:32.973Z</time></trkpt><trkpt lat="45.8096349" lon="11.7525327"><ele>428.79999999999995</ele><time>2026-04-11T12:00:33.97Z</time></trkpt><trkpt lat="45.8097184" lon="11.7524481"><ele>433.4</ele><time>2026-04-11T12:00:34.977Z</time></trkpt><trkpt lat="45.8097894" lon="11.752353"><ele>438.0</ele><time>2026-04-11T12:00:35.962Z</time></trkpt><trkpt lat="45.8098636" lon="11.7522496"><ele>438.0</ele><time>2026-04-11T12:00:36.978Z</time></trkpt><trkpt lat="45.8099356" lon="11.7521493"><ele>437.99999999999994</ele><time>2026-04-11T12:00:37.972Z</time></trkpt><trkpt lat="45.8100123" lon="11.7520445"><ele>437.99999999999994</ele><time>2026-04-11T12:00:38.973Z</time></trkpt><trkpt lat="45.8101152" lon="11.7519999"><ele>438.0</ele><time>2026-04-11T12:00:39.971Z</time></trkpt><trkpt lat="45.8102457" lon="11.751963"><ele>438.0</ele><time>2026-04-11T12:00:40.966Z</time></trkpt><trkpt lat="45.8103983" lon="11.751961"><ele>441.4</ele><time>2026-04-11T12:00:41.976Z</time></trkpt><trkpt lat="45.8105122" lon="11.7519458"><ele>444.79999999999995</ele><time>2026-04-11T12:00:42.972Z</time></trkpt><trkpt lat="45.810608" lon="11.7519339"><ele>448.2</ele><time>2026-04-11T12:00:43.977Z</time></trkpt><trkpt lat="45.8106723" lon="11.7519102"><ele>451.6</ele><time>2026-04-11T12:00:44.975Z</time></trkpt><trkpt lat="45.8107071" lon="11.7517788"><ele>455.0</ele><time>2026-04-11T12:00:46.974Z</time></trkpt><trkpt lat="45.8106058" lon="11.7517046"><ele>455.0</ele><time>2026-04-11T12:00:48.978Z</time></trkpt><trkpt lat="45.8105235" lon="11.7516959"><ele>455.0</ele><time>2026-04-11T12:00:49.972Z</time></trkpt><trkpt lat="45.8104211" lon="11.7517595"><ele>455.0</ele><time>2026-04-11T12:00:50.971Z</time></trkpt><trkpt lat="45.8102929" lon="11.7518229"><ele>455.0</ele><time>2026-04-11T12:00:51.972Z</time></trkpt><trkpt lat="45.8101384" lon="11.7518816"><ele>449.3333333333333</ele><time>2026-04-11T12:00:52.975Z</time></trkpt><trkpt lat="45.809972" lon="11.7518868"><ele>443.66666666666663</ele><time>2026-04-11T12:00:53.973Z</time></trkpt><trkpt lat="45.809808" lon="11.7519326"><ele>438.0</ele><time>2026-04-11T12:00:54.969Z</time></trkpt><trkpt lat="45.8096542" lon="11.7519933"><ele>438.0</ele><time>2026-04-11T12:00:55.979Z</time></trkpt><trkpt lat="45.8095171" lon="11.7521246"><ele>438.0</ele><time>2026-04-11T12:00:56.97Z</time></trkpt><trkpt lat="45.809407" lon="11.7522508"><ele>438.0</ele><time>2026-04-11T12:00:57.98Z</time></trkpt><trkpt lat="45.8092611" lon="11.7523059"><ele>444.33333333333337</ele><time>2026-04-11T12:00:58.975Z</time></trkpt><trkpt lat="45.8091038" lon="11.7523197"><ele>450.6666666666667</ele><time>2026-04-11T12:00:59.973Z</time></trkpt><trkpt lat="45.8089475" lon="11.7523598"><ele>457.0</ele><time>2026-04-11T12:01:00.98Z</time></trkpt><trkpt lat="45.8087951" lon="11.7523781"><ele>457.0</ele><time>2026-04-11T12:01:01.97Z</time></trkpt><trkpt lat="45.8086454" lon="11.7523992"><ele>457.0</ele><time>2026-04-11T12:01:02.972Z</time></trkpt><trkpt lat="45.8084932" lon="11.7524122"><ele>457.0</ele><time>2026-04-11T12:01:03.968Z</time></trkpt><trkpt lat="45.8083297" lon="11.7524174"><ele>460.6666666666667</ele><time>2026-04-11T12:01:04.975Z</time></trkpt><trkpt lat="45.808172" lon="11.7524117"><ele>464.33333333333337</ele><time>2026-04-11T12:01:05.977Z</time></trkpt><trkpt lat="45.8080125" lon="11.7523907"><ele>468.0</ele><time>2026-04-11T12:01:06.977Z</time></trkpt><trkpt lat="45.8078461" lon="11.7523684"><ele>468.0</ele><time>2026-04-11T12:01:07.976Z</time></trkpt><trkpt lat="45.8076866" lon="11.7523523"><ele>468.0</ele><time>2026-04-11T12:01:08.969Z</time></trkpt><trkpt lat="45.8075366" lon="11.7523345"><ele>468.0</ele><time>2026-04-11T12:01:09.98Z</time></trkpt><trkpt lat="45.807397" lon="11.7523133"><ele>467.75</ele><time>2026-04-11T12:01:10.971Z</time></trkpt><trkpt lat="45.8072705" lon="11.7522813"><ele>467.5</ele><time>2026-04-11T12:01:11.972Z</time></trkpt><trkpt lat="45.8071515" lon="11.7522184"><ele>467.25</ele><time>2026-04-11T12:01:12.977Z</time></trkpt><trkpt lat="45.8070352" lon="11.752128"><ele>467.0</ele><time>2026-04-11T12:01:13.974Z</time></trkpt><trkpt lat="45.8069173" lon="11.7520262"><ele>463.75</ele><time>2026-04-11T12:01:14.976Z</time></trkpt><trkpt lat="45.8068043" lon="11.7519243"><ele>460.5</ele><time>2026-04-11T12:01:15.975Z</time></trkpt><trkpt lat="45.8066987" lon="11.7518146"><ele>457.25</ele><time>2026-04-11T12:01:16.97Z</time></trkpt><trkpt lat="45.8066131" lon="11.7517008"><ele>454.0</ele><time>2026-04-11T12:01:17.986Z</time></trkpt><trkpt lat="45.8065421" lon="11.7515444"><ele>467.33333333333337</ele><time>2026-04-11T12:01:18.972Z</time></trkpt><trkpt lat="45.8064617" lon="11.7513521"><ele>480.66666666666663</ele><time>2026-04-11T12:01:19.968Z</time></trkpt><trkpt lat="45.8063748" lon="11.7511528"><ele>494.0</ele><time>2026-04-11T12:01:20.973Z</time></trkpt><trkpt lat="45.806251" lon="11.750966"><ele>492.75</ele><time>2026-04-11T12:01:21.981Z</time></trkpt><trkpt lat="45.806161" lon="11.7508183"><ele>491.5</ele><time>2026-04-11T12:01:22.975Z</time></trkpt><trkpt lat="45.8060584" lon="11.7506751"><ele>490.25</ele><time>2026-04-11T12:01:23.976Z</time></trkpt><trkpt lat="45.8059439" lon="11.750546"><ele>489.0</ele><time>2026-04-11T12:01:24.97Z</time></trkpt><trkpt lat="45.8058231" lon="11.7504286"><ele>489.0</ele><time>2026-04-11T12:01:25.982Z</time></trkpt><trkpt lat="45.8057192" lon="11.7503403"><ele>489.0</ele><time>2026-04-11T12:01:26.98Z</time></trkpt><trkpt lat="45.8056225" lon="11.7502559"><ele>489.0</ele><time>2026-04-11T12:01:27.978Z</time></trkpt><trkpt lat="45.8055431" lon="11.7501733"><ele>489.0</ele><time>2026-04-11T12:01:28.974Z</time></trkpt><trkpt lat="45.8054701" lon="11.7500834"><ele>489.0</ele><time>2026-04-11T12:01:29.975Z</time></trkpt><trkpt lat="45.8054161" lon="11.749973"><ele>497.25</ele><time>2026-04-11T12:01:30.976Z</time></trkpt><trkpt lat="45.805398" lon="11.7498097"><ele>505.5</ele><time>2026-04-11T12:01:31.987Z</time></trkpt><trkpt lat="45.8053679" lon="11.7496261"><ele>513.75</ele><time>2026-04-11T12:01:32.984Z</time></trkpt><trkpt lat="45.8053134" lon="11.7494214"><ele>522.0</ele><time>2026-04-11T12:01:33.978Z</time></trkpt><trkpt lat="45.8052468" lon="11.7492107"><ele>514.0</ele><time>2026-04-11T12:01:34.969Z</time></trkpt><trkpt lat="45.8051824" lon="11.7489802"><ele>506.0</ele><time>2026-04-11T12:01:35.976Z</time></trkpt><trkpt lat="45.8051205" lon="11.7487598"><ele>498.0</ele><time>2026-04-11T12:01:36.973Z</time></trkpt><trkpt lat="45.8050578" lon="11.7485513"><ele>506.0</ele><time>2026-04-11T12:01:37.969Z</time></trkpt><trkpt lat="45.8049942" lon="11.7483407"><ele>514.0</ele><time>2026-04-11T12:01:38.974Z</time></trkpt><trkpt lat="45.8049324" lon="11.7481177"><ele>522.0</ele><time>2026-04-11T12:01:39.971Z</time></trkpt><trkpt lat="45.8048654" lon="11.7479085"><ele>530.3333333333334</ele><time>2026-04-11T12:01:40.976Z</time></trkpt><trkpt lat="45.8047916" lon="11.7477029"><ele>538.6666666666667</ele><time>2026-04-11T12:01:41.979Z</time></trkpt><trkpt lat="45.8047085" lon="11.7474982"><ele>547.0</ele><time>2026-04-11T12:01:42.972Z</time></trkpt><trkpt lat="45.8046253" lon="11.7472975"><ele>547.0</ele><time>2026-04-11T12:01:43.976Z</time></trkpt><trkpt lat="45.8045179" lon="11.7471188"><ele>547.0</ele><time>2026-04-11T12:01:44.966Z</time></trkpt><trkpt lat="45.8044061" lon="11.7469383"><ele>547.0</ele><time>2026-04-11T12:01:45.968Z</time></trkpt><trkpt lat="45.8042892" lon="11.7467657"><ele>540.0</ele><time>2026-04-11T12:01:46.968Z</time></trkpt><trkpt lat="45.8041728" lon="11.746593"><ele>533.0</ele><time>2026-04-11T12:01:47.973Z</time></trkpt><trkpt lat="45.8040577" lon="11.746416"><ele>526.0</ele><time>2026-04-11T12:01:48.972Z</time></trkpt><trkpt lat="45.8039513" lon="11.7462422"><ele>526.0</ele><time>2026-04-11T12:01:49.975Z</time></trkpt><trkpt lat="45.8038697" lon="11.7460683"><ele>526.0</ele><time>2026-04-11T12:01:50.97Z</time></trkpt><trkpt lat="45.8038103" lon="11.7458881"><ele>526.0</ele><time>2026-04-11T12:01:51.978Z</time></trkpt><trkpt lat="45.80378" lon="11.7457058"><ele>526.0</ele><time>2026-04-11T12:01:52.971Z</time></trkpt><trkpt lat="45.8037706" lon="11.7455214"><ele>531.5</ele><time>2026-04-11T12:01:53.975Z</time></trkpt><trkpt lat="45.8038164" lon="11.7453429"><ele>537.0</ele><time>2026-04-11T12:01:54.978Z</time></trkpt><trkpt lat="45.8038711" lon="11.7451789"><ele>542.5</ele><time>2026-04-11T12:01:55.978Z</time></trkpt><trkpt lat="45.8039161" lon="11.7450164"><ele>548.0</ele><time>2026-04-11T12:01:56.978Z</time></trkpt><trkpt lat="45.8039434" lon="11.7448473"><ele>549.6666666666666</ele><time>2026-04-11T12:01:57.983Z</time></trkpt><trkpt lat="45.80395" lon="11.7447001"><ele>551.3333333333333</ele><time>2026-04-11T12:01:58.973Z</time></trkpt><trkpt lat="45.8039503" lon="11.7445715"><ele>553.0</ele><time>2026-04-11T12:01:59.987Z</time></trkpt><trkpt lat="45.8039386" lon="11.7444686"><ele>554.6666666666666</ele><time>2026-04-11T12:02:00.973Z</time></trkpt><trkpt lat="45.8038622" lon="11.7443948"><ele>556.3333333333334</ele><time>2026-04-11T12:02:01.984Z</time></trkpt><trkpt lat="45.8037715" lon="11.7444088"><ele>558.0</ele><time>2026-04-11T12:02:02.972Z</time></trkpt><trkpt lat="45.8036785" lon="11.7444696"><ele>558.0</ele><time>2026-04-11T12:02:03.975Z</time></trkpt><trkpt lat="45.8035783" lon="11.7445474"><ele>558.0</ele><time>2026-04-11T12:02:04.981Z</time></trkpt><trkpt lat="45.8034735" lon="11.7445665"><ele>558.0</ele><time>2026-04-11T12:02:05.979Z</time></trkpt><trkpt lat="45.8033657" lon="11.7445582"><ele>558.0</ele><time>2026-04-11T12:02:06.976Z</time></trkpt><trkpt lat="45.8032607" lon="11.7444519"><ele>557.0</ele><time>2026-04-11T12:02:07.976Z</time></trkpt><trkpt lat="45.8031494" lon="11.7443196"><ele>556.0</ele><time>2026-04-11T12:02:08.976Z</time></trkpt><trkpt lat="45.8030291" lon="11.7442027"><ele>555.0</ele><time>2026-04-11T12:02:09.977Z</time></trkpt><trkpt lat="45.8029237" lon="11.7441263"><ele>554.0</ele><time>2026-04-11T12:02:10.972Z</time></trkpt><trkpt lat="45.8028367" lon="11.744071"><ele>554.0</ele><time>2026-04-11T12:02:11.972Z</time></trkpt><trkpt lat="45.8027635" lon="11.7440229"><ele>554.0</ele><time>2026-04-11T12:02:12.972Z</time></trkpt><trkpt lat="45.8027187" lon="11.7439576"><ele>554.0</ele><time>2026-04-11T12:02:13.973Z</time></trkpt><trkpt lat="45.80273" lon="11.7438543"><ele>554.0</ele><time>2026-04-11T12:02:14.983Z</time></trkpt><trkpt lat="45.8028551" lon="11.7437543"><ele>554.0</ele><time>2026-04-11T12:02:16.968Z</time></trkpt><trkpt lat="45.8029685" lon="11.7438172"><ele>554.0</ele><time>2026-04-11T12:02:17.973Z</time></trkpt><trkpt lat="45.8030694" lon="11.7438915"><ele>554.0</ele><time>2026-04-11T12:02:18.968Z</time></trkpt><trkpt lat="45.8031627" lon="11.7439554"><ele>554.0</ele><time>2026-04-11T12:02:19.981Z</time></trkpt><trkpt lat="45.8032692" lon="11.7440026"><ele>554.0</ele><time>2026-04-11T12:02:20.972Z</time></trkpt><trkpt lat="45.8033788" lon="11.7440228"><ele>554.0</ele><time>2026-04-11T12:02:21.977Z</time></trkpt><trkpt lat="45.8034895" lon="11.7440178"><ele>556.5</ele><time>2026-04-11T12:02:22.975Z</time></trkpt><trkpt lat="45.8036025" lon="11.7439882"><ele>559.0</ele><time>2026-04-11T12:02:23.976Z</time></trkpt><trkpt lat="45.8037223" lon="11.7439371"><ele>561.5</ele><time>2026-04-11T12:02:24.972Z</time></trkpt><trkpt lat="45.8038441" lon="11.7438721"><ele>564.0</ele><time>2026-04-11T12:02:25.983Z</time></trkpt><trkpt lat="45.8039643" lon="11.7438029"><ele>564.0</ele><time>2026-04-11T12:02:26.973Z</time></trkpt><trkpt lat="45.8040741" lon="11.7437444"><ele>564.0</ele><time>2026-04-11T12:02:27.97Z</time></trkpt><trkpt lat="45.8041704" lon="11.7436975"><ele>564.0</ele><time>2026-04-11T12:02:28.973Z</time></trkpt><trkpt lat="45.804261" lon="11.7436618"><ele>564.0</ele><time>2026-04-11T12:02:29.968Z</time></trkpt><trkpt lat="45.8043312" lon="11.7436858"><ele>564.0</ele><time>2026-04-11T12:02:30.972Z</time></trkpt><trkpt lat="45.8043857" lon="11.7438228"><ele>571.25</ele><time>2026-04-11T12:02:31.98Z</time></trkpt><trkpt lat="45.8044137" lon="11.7439841"><ele>578.5</ele><time>2026-04-11T12:02:32.974Z</time></trkpt><trkpt lat="45.8044248" lon="11.7441547"><ele>585.75</ele><time>2026-04-11T12:02:33.974Z</time></trkpt><trkpt lat="45.8044444" lon="11.7443405"><ele>593.0</ele><time>2026-04-11T12:02:34.971Z</time></trkpt><trkpt lat="45.804477" lon="11.7445257"><ele>593.0</ele><time>2026-04-11T12:02:35.973Z</time></trkpt><trkpt lat="45.8045231" lon="11.7447195"><ele>593.0</ele><time>2026-04-11T12:02:36.977Z</time></trkpt><trkpt lat="45.8045967" lon="11.7449063"><ele>593.0</ele><time>2026-04-11T12:02:37.98Z</time></trkpt><trkpt lat="45.8046838" lon="11.7450862"><ele>593.0</ele><time>2026-04-11T12:02:38.978Z</time></trkpt><trkpt lat="45.80477" lon="11.7452473"><ele>591.25</ele><time>2026-04-11T12:02:39.979Z</time></trkpt><trkpt lat="45.8048505" lon="11.7454183"><ele>589.5</ele><time>2026-04-11T12:02:40.971Z</time></trkpt><trkpt lat="45.8049031" lon="11.7456144"><ele>587.75</ele><time>2026-04-11T12:02:41.978Z</time></trkpt><trkpt lat="45.8049546" lon="11.745821"><ele>586.0</ele><time>2026-04-11T12:02:42.972Z</time></trkpt><trkpt lat="45.8050042" lon="11.7460317"><ele>581.3333333333334</ele><time>2026-04-11T12:02:43.975Z</time></trkpt><trkpt lat="45.8050535" lon="11.7462439"><ele>576.6666666666666</ele><time>2026-04-11T12:02:44.982Z</time></trkpt><trkpt lat="45.805113" lon="11.7464445"><ele>572.0</ele><time>2026-04-11T12:02:45.977Z</time></trkpt><trkpt lat="45.8051876" lon="11.746635"><ele>578.0</ele><time>2026-04-11T12:02:46.969Z</time></trkpt><trkpt lat="45.8052727" lon="11.7468139"><ele>584.0</ele><time>2026-04-11T12:02:47.975Z</time></trkpt><trkpt lat="45.8053581" lon="11.7469893"><ele>590.0</ele><time>2026-04-11T12:02:48.973Z</time></trkpt><trkpt lat="45.8054349" lon="11.7471694"><ele>596.0</ele><time>2026-04-11T12:02:49.977Z</time></trkpt><trkpt lat="45.8055033" lon="11.7473554"><ele>596.0</ele><time>2026-04-11T12:02:50.972Z</time></trkpt><trkpt lat="45.8055724" lon="11.7475407"><ele>596.0</ele><time>2026-04-11T12:02:51.972Z</time></trkpt><trkpt lat="45.8056539" lon="11.7477168"><ele>596.0</ele><time>2026-04-11T12:02:52.972Z</time></trkpt><trkpt lat="45.8057603" lon="11.7478741"><ele>596.0</ele><time>2026-04-11T12:02:53.975Z</time></trkpt><trkpt lat="45.8058819" lon="11.7480142"><ele>596.75</ele><time>2026-04-11T12:02:54.967Z</time></trkpt><trkpt lat="45.8059914" lon="11.7481379"><ele>597.5</ele><time>2026-04-11T12:02:55.98Z</time></trkpt><trkpt lat="45.8060856" lon="11.7482492"><ele>598.25</ele><time>2026-04-11T12:02:56.981Z</time></trkpt><trkpt lat="45.8061704" lon="11.7483385"><ele>599.0</ele><time>2026-04-11T12:02:57.984Z</time></trkpt><trkpt lat="45.8062542" lon="11.7484063"><ele>599.0</ele><time>2026-04-11T12:02:58.979Z</time></trkpt><trkpt lat="45.8063371" lon="11.7484271"><ele>599.0</ele><time>2026-04-11T12:02:59.983Z</time></trkpt><trkpt lat="45.8064124" lon="11.7484176"><ele>599.0</ele><time>2026-04-11T12:03:00.985Z</time></trkpt><trkpt lat="45.8064521" lon="11.7483098"><ele>599.0</ele><time>2026-04-11T12:03:01.977Z</time></trkpt><trkpt lat="45.8064868" lon="11.7481879"><ele>599.0</ele><time>2026-04-11T12:03:02.97Z</time></trkpt><trkpt lat="45.806419" lon="11.7480778"><ele>599.0</ele><time>2026-04-11T12:03:03.971Z</time></trkpt><trkpt lat="45.806316" lon="11.7479921"><ele>599.0</ele><time>2026-04-11T12:03:04.977Z</time></trkpt><trkpt lat="45.8061885" lon="11.7478898"><ele>599.0</ele><time>2026-04-11T12:03:05.98Z</time></trkpt><trkpt lat="45.8060793" lon="11.7477338"><ele>599.0</ele><time>2026-04-11T12:03:06.975Z</time></trkpt><trkpt lat="45.8059914" lon="11.7475266"><ele>598.0</ele><time>2026-04-11T12:03:07.973Z</time></trkpt><trkpt lat="45.8059158" lon="11.7473233"><ele>597.0</ele><time>2026-04-11T12:03:08.976Z</time></trkpt><trkpt lat="45.8058517" lon="11.7471241"><ele>596.0</ele><time>2026-04-11T12:03:09.985Z</time></trkpt><trkpt lat="45.8057996" lon="11.7469206"><ele>602.0</ele><time>2026-04-11T12:03:10.98Z</time></trkpt><trkpt lat="45.8057531" lon="11.746712"><ele>608.0</ele><time>2026-04-11T12:03:11.979Z</time></trkpt><trkpt lat="45.8057373" lon="11.7464905"><ele>614.0</ele><time>2026-04-11T12:03:12.981Z</time></trkpt><trkpt lat="45.8057346" lon="11.7462568"><ele>615.6666666666666</ele><time>2026-04-11T12:03:13.983Z</time></trkpt><trkpt lat="45.8057466" lon="11.7460246"><ele>617.3333333333334</ele><time>2026-04-11T12:03:14.976Z</time></trkpt><trkpt lat="45.8057662" lon="11.7458001"><ele>619.0</ele><time>2026-04-11T12:03:15.972Z</time></trkpt><trkpt lat="45.8058037" lon="11.7455859"><ele>619.0</ele><time>2026-04-11T12:03:16.98Z</time></trkpt><trkpt lat="45.8058405" lon="11.7453958"><ele>619.0</ele><time>2026-04-11T12:03:17.976Z</time></trkpt><trkpt lat="45.8058323" lon="11.745198"><ele>619.0</ele><time>2026-04-11T12:03:18.972Z</time></trkpt><trkpt lat="45.80579" lon="11.7450021"><ele>619.0</ele><time>2026-04-11T12:03:19.967Z</time></trkpt><trkpt lat="45.8057396" lon="11.7447855"><ele>621.0</ele><time>2026-04-11T12:03:20.984Z</time></trkpt><trkpt lat="45.8057134" lon="11.7445713"><ele>623.0</ele><time>2026-04-11T12:03:21.98Z</time></trkpt><trkpt lat="45.8057021" lon="11.7443573"><ele>625.0</ele><time>2026-04-11T12:03:22.967Z</time></trkpt><trkpt lat="45.8057047" lon="11.7441428"><ele>627.3333333333334</ele><time>2026-04-11T12:03:23.976Z</time></trkpt><trkpt lat="45.8057237" lon="11.7439297"><ele>629.6666666666666</ele><time>2026-04-11T12:03:24.975Z</time></trkpt><trkpt lat="45.80576" lon="11.7437142"><ele>632.0</ele><time>2026-04-11T12:03:25.99Z</time></trkpt><trkpt lat="45.8058147" lon="11.7434975"><ele>632.0</ele><time>2026-04-11T12:03:26.982Z</time></trkpt><trkpt lat="45.8058766" lon="11.7432883"><ele>632.0</ele><time>2026-04-11T12:03:27.974Z</time></trkpt><trkpt lat="45.8059374" lon="11.7430845"><ele>632.0</ele><time>2026-04-11T12:03:28.972Z</time></trkpt><trkpt lat="45.8059913" lon="11.7429041"><ele>638.4000000000001</ele><time>2026-04-11T12:03:29.976Z</time></trkpt><trkpt lat="45.8060319" lon="11.7427575"><ele>644.8000000000001</ele><time>2026-04-11T12:03:30.978Z</time></trkpt><trkpt lat="45.8060602" lon="11.7426414"><ele>651.2</ele><time>2026-04-11T12:03:31.977Z</time></trkpt><trkpt lat="45.8060781" lon="11.7425489"><ele>657.6</ele><time>2026-04-11T12:03:32.973Z</time></trkpt><trkpt lat="45.8061227" lon="11.7424113"><ele>664.0</ele><time>2026-04-11T12:03:34.98Z</time></trkpt><trkpt lat="45.8062111" lon="11.7423834"><ele>664.0</ele><time>2026-04-11T12:03:36.971Z</time></trkpt><trkpt lat="45.8062506" lon="11.7425299"><ele>664.0</ele><time>2026-04-11T12:03:38.978Z</time></trkpt><trkpt lat="45.806224" lon="11.7427087"><ele>664.0</ele><time>2026-04-11T12:03:39.972Z</time></trkpt><trkpt lat="45.8061574" lon="11.7429233"><ele>664.0</ele><time>2026-04-11T12:03:40.988Z</time></trkpt><trkpt lat="45.8061256" lon="11.743126"><ele>664.0</ele><time>2026-04-11T12:03:41.973Z</time></trkpt><trkpt lat="45.8060963" lon="11.7433196"><ele>664.0</ele><time>2026-04-11T12:03:42.971Z</time></trkpt><trkpt lat="45.8061163" lon="11.7435054"><ele>664.0</ele><time>2026-04-11T12:03:43.974Z</time></trkpt><trkpt lat="45.8061627" lon="11.743683"><ele>664.0</ele><time>2026-04-11T12:03:44.972Z</time></trkpt><trkpt lat="45.8062175" lon="11.7438382"><ele>662.5</ele><time>2026-04-11T12:03:45.971Z</time></trkpt><trkpt lat="45.8062758" lon="11.7439876"><ele>661.0</ele><time>2026-04-11T12:03:46.977Z</time></trkpt><trkpt lat="45.806336" lon="11.74413"><ele>659.5</ele><time>2026-04-11T12:03:47.969Z</time></trkpt><trkpt lat="45.8063992" lon="11.7442688"><ele>658.0</ele><time>2026-04-11T12:03:48.985Z</time></trkpt><trkpt lat="45.8064604" lon="11.7443864"><ele>658.5999999999999</ele><time>2026-04-11T12:03:49.979Z</time></trkpt><trkpt lat="45.8065318" lon="11.7444942"><ele>659.1999999999999</ele><time>2026-04-11T12:03:50.981Z</time></trkpt><trkpt lat="45.8066164" lon="11.7445867"><ele>659.8</ele><time>2026-04-11T12:03:51.975Z</time></trkpt><trkpt lat="45.8067064" lon="11.7446633"><ele>660.4</ele><time>2026-04-11T12:03:52.991Z</time></trkpt><trkpt lat="45.8067993" lon="11.7447291"><ele>661.0</ele><time>2026-04-11T12:03:53.968Z</time></trkpt><trkpt lat="45.8068976" lon="11.7447793"><ele>661.0</ele><time>2026-04-11T12:03:54.977Z</time></trkpt><trkpt lat="45.8069974" lon="11.7448097"><ele>661.0</ele><time>2026-04-11T12:03:55.984Z</time></trkpt><trkpt lat="45.8070991" lon="11.7448233"><ele>661.0</ele><time>2026-04-11T12:03:56.973Z</time></trkpt><trkpt lat="45.8072022" lon="11.7448222"><ele>661.0</ele><time>2026-04-11T12:03:57.973Z</time></trkpt><trkpt lat="45.807307" lon="11.7447979"><ele>661.0</ele><time>2026-04-11T12:03:58.976Z</time></trkpt><trkpt lat="45.807411" lon="11.7447441"><ele>661.0</ele><time>2026-04-11T12:03:59.977Z</time></trkpt><trkpt lat="45.8075157" lon="11.744671"><ele>661.0</ele><time>2026-04-11T12:04:00.981Z</time></trkpt><trkpt lat="45.8076206" lon="11.7445737"><ele>661.0</ele><time>2026-04-11T12:04:01.981Z</time></trkpt><trkpt lat="45.8077283" lon="11.7444551"><ele>661.0</ele><time>2026-04-11T12:04:02.979Z</time></trkpt><trkpt lat="45.8078379" lon="11.7443297"><ele>663.0</ele><time>2026-04-11T12:04:03.968Z</time></trkpt><trkpt lat="45.8079453" lon="11.7442068"><ele>665.0</ele><time>2026-04-11T12:04:04.977Z</time></trkpt><trkpt lat="45.808049" lon="11.7440829"><ele>667.0</ele><time>2026-04-11T12:04:05.984Z</time></trkpt><trkpt lat="45.8081536" lon="11.7439603"><ele>669.0</ele><time>2026-04-11T12:04:06.98Z</time></trkpt><trkpt lat="45.8082529" lon="11.7438456"><ele>669.0</ele><time>2026-04-11T12:04:07.969Z</time></trkpt><trkpt lat="45.8083469" lon="11.7437406"><ele>669.0</ele><time>2026-04-11T12:04:08.975Z</time></trkpt><trkpt lat="45.8084447" lon="11.743643"><ele>669.0</ele><time>2026-04-11T12:04:09.985Z</time></trkpt><trkpt lat="45.80855" lon="11.7435588"><ele>669.0</ele><time>2026-04-11T12:04:10.966Z</time></trkpt><trkpt lat="45.8086599" lon="11.7434886"><ele>674.75</ele><time>2026-04-11T12:04:11.974Z</time></trkpt><trkpt lat="45.8087711" lon="11.7434304"><ele>680.5</ele><time>2026-04-11T12:04:12.979Z</time></trkpt><trkpt lat="45.8088837" lon="11.7433804"><ele>686.25</ele><time>2026-04-11T12:04:13.983Z</time></trkpt><trkpt lat="45.8089983" lon="11.7433359"><ele>692.0</ele><time>2026-04-11T12:04:14.978Z</time></trkpt><trkpt lat="45.8091124" lon="11.7433011"><ele>692.0</ele><time>2026-04-11T12:04:15.975Z</time></trkpt><trkpt lat="45.80922" lon="11.7432799"><ele>692.0</ele><time>2026-04-11T12:04:16.98Z</time></trkpt><trkpt lat="45.8093119" lon="11.7432674"><ele>692.0</ele><time>2026-04-11T12:04:17.976Z</time></trkpt><trkpt lat="45.8093861" lon="11.7432554"><ele>692.0</ele><time>2026-04-11T12:04:18.979Z</time></trkpt><trkpt lat="45.8094623" lon="11.7432705"><ele>692.0</ele><time>2026-04-11T12:04:19.974Z</time></trkpt><trkpt lat="45.8095352" lon="11.7433122"><ele>692.0</ele><time>2026-04-11T12:04:20.978Z</time></trkpt><trkpt lat="45.8095993" lon="11.7434117"><ele>694.0</ele><time>2026-04-11T12:04:21.977Z</time></trkpt><trkpt lat="45.8096228" lon="11.7435263"><ele>696.0</ele><time>2026-04-11T12:04:22.97Z</time></trkpt><trkpt lat="45.8096338" lon="11.7436555"><ele>698.0</ele><time>2026-04-11T12:04:23.976Z</time></trkpt><trkpt lat="45.8096457" lon="11.7437885"><ele>700.0</ele><time>2026-04-11T12:04:24.975Z</time></trkpt><trkpt lat="45.8096719" lon="11.7439166"><ele>702.0</ele><time>2026-04-11T12:04:25.977Z</time></trkpt><trkpt lat="45.8097198" lon="11.744029"><ele>702.0</ele><time>2026-04-11T12:04:26.978Z</time></trkpt><trkpt lat="45.8097754" lon="11.7441272"><ele>702.0</ele><time>2026-04-11T12:04:27.988Z</time></trkpt><trkpt lat="45.8098426" lon="11.7442156"><ele>702.0</ele><time>2026-04-11T12:04:28.976Z</time></trkpt><trkpt lat="45.8099025" lon="11.7442948"><ele>702.0</ele><time>2026-04-11T12:04:29.987Z</time></trkpt><trkpt lat="45.8099593" lon="11.74437"><ele>702.0</ele><time>2026-04-11T12:04:30.979Z</time></trkpt><trkpt lat="45.8100141" lon="11.7444463"><ele>702.0</ele><time>2026-04-11T12:04:31.974Z</time></trkpt><trkpt lat="45.8100572" lon="11.7445261"><ele>701.1666666666666</ele><time>2026-04-11T12:04:32.982Z</time></trkpt><trkpt lat="45.8100828" lon="11.7446176"><ele>700.3333333333334</ele><time>2026-04-11T12:04:33.986Z</time></trkpt><trkpt lat="45.8100889" lon="11.7447309"><ele>699.5</ele><time>2026-04-11T12:04:34.982Z</time></trkpt><trkpt lat="45.810079" lon="11.7448663"><ele>698.6666666666667</ele><time>2026-04-11T12:04:35.97Z</time></trkpt><trkpt lat="45.8100622" lon="11.7450084"><ele>697.8333333333334</ele><time>2026-04-11T12:04:36.971Z</time></trkpt><trkpt lat="45.8100513" lon="11.7451553"><ele>697.0</ele><time>2026-04-11T12:04:37.975Z</time></trkpt><trkpt lat="45.8100566" lon="11.7453049"><ele>696.8</ele><time>2026-04-11T12:04:38.971Z</time></trkpt><trkpt lat="45.8100857" lon="11.7454583"><ele>696.6</ele><time>2026-04-11T12:04:39.977Z</time></trkpt><trkpt lat="45.8101333" lon="11.7455989"><ele>696.4</ele><time>2026-04-11T12:04:40.968Z</time></trkpt><trkpt lat="45.8101929" lon="11.7457226"><ele>696.1999999999999</ele><time>2026-04-11T12:04:41.983Z</time></trkpt><trkpt lat="45.8102597" lon="11.7458207"><ele>696.0</ele><time>2026-04-11T12:04:42.98Z</time></trkpt><trkpt lat="45.810339" lon="11.7458972"><ele>699.5</ele><time>2026-04-11T12:04:43.977Z</time></trkpt><trkpt lat="45.8104256" lon="11.7459442"><ele>703.0</ele><time>2026-04-11T12:04:44.979Z</time></trkpt><trkpt lat="45.8105284" lon="11.7459676"><ele>706.5</ele><time>2026-04-11T12:04:45.977Z</time></trkpt><trkpt lat="45.8106548" lon="11.7459702"><ele>710.0</ele><time>2026-04-11T12:04:46.982Z</time></trkpt><trkpt lat="45.8108014" lon="11.7459582"><ele>710.0</ele><time>2026-04-11T12:04:47.976Z</time></trkpt><trkpt lat="45.8109796" lon="11.7459275"><ele>710.0</ele><time>2026-04-11T12:04:48.99Z</time></trkpt><trkpt lat="45.8111766" lon="11.7458899"><ele>710.0</ele><time>2026-04-11T12:04:49.983Z</time></trkpt><trkpt lat="45.8114018" lon="11.7458737"><ele>714.0</ele><time>2026-04-11T12:04:50.979Z</time></trkpt><trkpt lat="45.8116461" lon="11.7458787"><ele>718.0</ele><time>2026-04-11T12:04:51.975Z</time></trkpt><trkpt lat="45.8119014" lon="11.7458727"><ele>722.5</ele><time>2026-04-11T12:04:52.98Z</time></trkpt><trkpt lat="45.8121346" lon="11.7458679"><ele>727.0</ele><time>2026-04-11T12:04:53.98Z</time></trkpt><trkpt lat="45.8123517" lon="11.7458733"><ele>727.0</ele><time>2026-04-11T12:04:54.976Z</time></trkpt><trkpt lat="45.812538" lon="11.7458997"><ele>727.0</ele><time>2026-04-11T12:04:55.979Z</time></trkpt><trkpt lat="45.8127098" lon="11.7459325"><ele>727.0</ele><time>2026-04-11T12:04:56.981Z</time></trkpt><trkpt lat="45.8128744" lon="11.7459396"><ele>728.25</ele><time>2026-04-11T12:04:57.979Z</time></trkpt><trkpt lat="45.8130306" lon="11.7459062"><ele>729.5</ele><time>2026-04-11T12:04:58.981Z</time></trkpt><trkpt lat="45.8131685" lon="11.7458406"><ele>730.75</ele><time>2026-04-11T12:04:59.99Z</time></trkpt><trkpt lat="45.8132932" lon="11.745779"><ele>732.0</ele><time>2026-04-11T12:05:00.983Z</time></trkpt><trkpt lat="45.8134243" lon="11.7457489"><ele>730.0</ele><time>2026-04-11T12:05:01.972Z</time></trkpt><trkpt lat="45.8135616" lon="11.7457601"><ele>728.0</ele><time>2026-04-11T12:05:02.977Z</time></trkpt><trkpt lat="45.8136984" lon="11.7457986"><ele>726.0</ele><time>2026-04-11T12:05:03.976Z</time></trkpt><trkpt lat="45.8138222" lon="11.7458409"><ele>724.0</ele><time>2026-04-11T12:05:04.979Z</time></trkpt><trkpt lat="45.8139266" lon="11.7458779"><ele>724.0</ele><time>2026-04-11T12:05:05.974Z</time></trkpt><trkpt lat="45.8140171" lon="11.7459226"><ele>724.0</ele><time>2026-04-11T12:05:06.975Z</time></trkpt><trkpt lat="45.8141038" lon="11.7459731"><ele>724.0</ele><time>2026-04-11T12:05:07.971Z</time></trkpt><trkpt lat="45.8141751" lon="11.7459684"><ele>724.0</ele><time>2026-04-11T12:05:08.976Z</time></trkpt><trkpt lat="45.8142452" lon="11.7458563"><ele>724.0</ele><time>2026-04-11T12:05:10.969Z</time></trkpt><trkpt lat="45.8142174" lon="11.7457711"><ele>724.0</ele><time>2026-04-11T12:05:11.986Z</time></trkpt><trkpt lat="45.8141489" lon="11.7457168"><ele>724.0</ele><time>2026-04-11T12:05:12.968Z</time></trkpt><trkpt lat="45.8140552" lon="11.7456574"><ele>724.0</ele><time>2026-04-11T12:05:13.984Z</time></trkpt><trkpt lat="45.8139277" lon="11.7456653"><ele>724.0</ele><time>2026-04-11T12:05:14.971Z</time></trkpt><trkpt lat="45.8137892" lon="11.7456202"><ele>724.0</ele><time>2026-04-11T12:05:15.976Z</time></trkpt><trkpt lat="45.8136528" lon="11.7455714"><ele>724.0</ele><time>2026-04-11T12:05:16.976Z</time></trkpt><trkpt lat="45.8135169" lon="11.7455284"><ele>724.0</ele><time>2026-04-11T12:05:17.971Z</time></trkpt><trkpt lat="45.8133723" lon="11.7455066"><ele>724.0</ele><time>2026-04-11T12:05:18.979Z</time></trkpt><trkpt lat="45.8132313" lon="11.7454844"><ele>724.0</ele><time>2026-04-11T12:05:19.979Z</time></trkpt><trkpt lat="45.8130961" lon="11.7454497"><ele>726.6666666666667</ele><time>2026-04-11T12:05:20.981Z</time></trkpt><trkpt lat="45.8129591" lon="11.7453867"><ele>729.3333333333334</ele><time>2026-04-11T12:05:21.984Z</time></trkpt><trkpt lat="45.8128182" lon="11.7452892"><ele>732.0</ele><time>2026-04-11T12:05:22.978Z</time></trkpt><trkpt lat="45.8126694" lon="11.7451839"><ele>739.0</ele><time>2026-04-11T12:05:23.969Z</time></trkpt><trkpt lat="45.8125292" lon="11.745085"><ele>746.0</ele><time>2026-04-11T12:05:24.991Z</time></trkpt><trkpt lat="45.8123927" lon="11.7449939"><ele>753.0</ele><time>2026-04-11T12:05:25.976Z</time></trkpt><trkpt lat="45.8122627" lon="11.744901"><ele>753.0</ele><time>2026-04-11T12:05:26.975Z</time></trkpt><trkpt lat="45.8121459" lon="11.7448187"><ele>753.0</ele><time>2026-04-11T12:05:27.98Z</time></trkpt><trkpt lat="45.8120404" lon="11.7447378"><ele>753.0</ele><time>2026-04-11T12:05:28.997Z</time></trkpt><trkpt lat="45.8119375" lon="11.7446472"><ele>753.0</ele><time>2026-04-11T12:05:29.978Z</time></trkpt><trkpt lat="45.8118466" lon="11.7445356"><ele>753.75</ele><time>2026-04-11T12:05:30.98Z</time></trkpt><trkpt lat="45.8117743" lon="11.7444026"><ele>754.5</ele><time>2026-04-11T12:05:31.985Z</time></trkpt><trkpt lat="45.8117326" lon="11.7442448"><ele>755.25</ele><time>2026-04-11T12:05:32.98Z</time></trkpt><trkpt lat="45.8117112" lon="11.7440681"><ele>756.0</ele><time>2026-04-11T12:05:33.977Z</time></trkpt><trkpt lat="45.8117036" lon="11.74388"><ele>756.0</ele><time>2026-04-11T12:05:34.987Z</time></trkpt><trkpt lat="45.8117043" lon="11.7436955"><ele>756.0</ele><time>2026-04-11T12:05:35.977Z</time></trkpt><trkpt lat="45.8117157" lon="11.7435325"><ele>756.0</ele><time>2026-04-11T12:05:36.973Z</time></trkpt><trkpt lat="45.8117577" lon="11.7433714"><ele>756.0</ele><time>2026-04-11T12:05:37.98Z</time></trkpt><trkpt lat="45.8118022" lon="11.7432"><ele>758.25</ele><time>2026-04-11T12:05:38.983Z</time></trkpt><trkpt lat="45.8118239" lon="11.7430182"><ele>760.5</ele><time>2026-04-11T12:05:39.984Z</time></trkpt><trkpt lat="45.8118125" lon="11.7428397"><ele>762.75</ele><time>2026-04-11T12:05:40.975Z</time></trkpt><trkpt lat="45.8117644" lon="11.7426646"><ele>765.0</ele><time>2026-04-11T12:05:41.969Z</time></trkpt><trkpt lat="45.8116901" lon="11.7424782"><ele>766.25</ele><time>2026-04-11T12:05:42.97Z</time></trkpt><trkpt lat="45.8116095" lon="11.7422852"><ele>767.5</ele><time>2026-04-11T12:05:43.978Z</time></trkpt><trkpt lat="45.8115372" lon="11.7421188"><ele>768.75</ele><time>2026-04-11T12:05:45.031Z</time></trkpt><trkpt lat="45.8114802" lon="11.7419566"><ele>770.0</ele><time>2026-04-11T12:05:45.976Z</time></trkpt><trkpt lat="45.8114542" lon="11.7417746"><ele>771.5</ele><time>2026-04-11T12:05:46.971Z</time></trkpt><trkpt lat="45.8114529" lon="11.7415799"><ele>773.0</ele><time>2026-04-11T12:05:47.97Z</time></trkpt><trkpt lat="45.8114604" lon="11.7413904"><ele>774.5</ele><time>2026-04-11T12:05:48.97Z</time></trkpt><trkpt lat="45.8115175" lon="11.7412136"><ele>776.0</ele><time>2026-04-11T12:05:49.975Z</time></trkpt><trkpt lat="45.8116108" lon="11.7410501"><ele>777.75</ele><time>2026-04-11T12:05:50.984Z</time></trkpt><trkpt lat="45.8117023" lon="11.7409094"><ele>779.5</ele><time>2026-04-11T12:05:51.982Z</time></trkpt><trkpt lat="45.8117939" lon="11.7407695"><ele>781.25</ele><time>2026-04-11T12:05:52.98Z</time></trkpt><trkpt lat="45.8118775" lon="11.7406542"><ele>783.0</ele><time>2026-04-11T12:05:53.977Z</time></trkpt><trkpt lat="45.8119708" lon="11.7405779"><ele>785.5</ele><time>2026-04-11T12:05:54.981Z</time></trkpt><trkpt lat="45.8120828" lon="11.7405373"><ele>788.0</ele><time>2026-04-11T12:05:55.973Z</time></trkpt><trkpt lat="45.8121988" lon="11.7405151"><ele>790.5</ele><time>2026-04-11T12:05:56.975Z</time></trkpt><trkpt lat="45.8123339" lon="11.7405415"><ele>793.0</ele><time>2026-04-11T12:05:57.976Z</time></trkpt><trkpt lat="45.8124814" lon="11.7405877"><ele>793.0</ele><time>2026-04-11T12:05:58.971Z</time></trkpt><trkpt lat="45.8126319" lon="11.7406736"><ele>793.0</ele><time>2026-04-11T12:05:59.976Z</time></trkpt><trkpt lat="45.8127815" lon="11.7407788"><ele>793.0</ele><time>2026-04-11T12:06:00.98Z</time></trkpt><trkpt lat="45.8129314" lon="11.7408971"><ele>792.6666666666666</ele><time>2026-04-11T12:06:01.979Z</time></trkpt><trkpt lat="45.8130787" lon="11.741011"><ele>792.3333333333333</ele><time>2026-04-11T12:06:02.972Z</time></trkpt><trkpt lat="45.8132247" lon="11.7411047"><ele>792.0</ele><time>2026-04-11T12:06:03.975Z</time></trkpt><trkpt lat="45.8133655" lon="11.7411818"><ele>786.75</ele><time>2026-04-11T12:06:04.981Z</time></trkpt><trkpt lat="45.8134957" lon="11.741253"><ele>781.5</ele><time>2026-04-11T12:06:05.975Z</time></trkpt><trkpt lat="45.8136336" lon="11.7412903"><ele>776.25</ele><time>2026-04-11T12:06:06.968Z</time></trkpt><trkpt lat="45.8137854" lon="11.7412736"><ele>771.0</ele><time>2026-04-11T12:06:08.01Z</time></trkpt><trkpt lat="45.8139332" lon="11.7412398"><ele>771.0</ele><time>2026-04-11T12:06:09.018Z</time></trkpt><trkpt lat="45.8140846" lon="11.7411937"><ele>771.0</ele><time>2026-04-11T12:06:09.97Z</time></trkpt><trkpt lat="45.8142326" lon="11.7411312"><ele>771.0</ele><time>2026-04-11T12:06:10.973Z</time></trkpt><trkpt lat="45.8143638" lon="11.7410443"><ele>773.0</ele><time>2026-04-11T12:06:11.979Z</time></trkpt><trkpt lat="45.8144895" lon="11.7409535"><ele>775.0</ele><time>2026-04-11T12:06:12.976Z</time></trkpt><trkpt lat="45.8145799" lon="11.7408004"><ele>777.0</ele><time>2026-04-11T12:06:13.978Z</time></trkpt><trkpt lat="45.8146632" lon="11.7406286"><ele>779.0</ele><time>2026-04-11T12:06:14.977Z</time></trkpt><trkpt lat="45.8147429" lon="11.740453"><ele>779.0</ele><time>2026-04-11T12:06:15.974Z</time></trkpt><trkpt lat="45.814823" lon="11.7402926"><ele>779.0</ele><time>2026-04-11T12:06:16.977Z</time></trkpt><trkpt lat="45.8149009" lon="11.7401389"><ele>779.0</ele><time>2026-04-11T12:06:17.975Z</time></trkpt><trkpt lat="45.8149977" lon="11.7400178"><ele>779.0</ele><time>2026-04-11T12:06:18.969Z</time></trkpt><trkpt lat="45.8150944" lon="11.7399224"><ele>783.2</ele><time>2026-04-11T12:06:19.992Z</time></trkpt><trkpt lat="45.8152008" lon="11.7398651"><ele>787.4000000000001</ele><time>2026-04-11T12:06:20.98Z</time></trkpt><trkpt lat="45.815312" lon="11.7398428"><ele>791.6</ele><time>2026-04-11T12:06:21.966Z</time></trkpt><trkpt lat="45.8154197" lon="11.7398367"><ele>795.8</ele><time>2026-04-11T12:06:22.976Z</time></trkpt><trkpt lat="45.815524" lon="11.7398856"><ele>800.0</ele><time>2026-04-11T12:06:23.973Z</time></trkpt><trkpt lat="45.8156043" lon="11.7399828"><ele>800.0</ele><time>2026-04-11T12:06:24.972Z</time></trkpt><trkpt lat="45.8156608" lon="11.7401218"><ele>800.0</ele><time>2026-04-11T12:06:25.971Z</time></trkpt><trkpt lat="45.815681" lon="11.7402777"><ele>800.0</ele><time>2026-04-11T12:06:26.993Z</time></trkpt><trkpt lat="45.8157028" lon="11.7404463"><ele>800.0</ele><time>2026-04-11T12:06:27.976Z</time></trkpt><trkpt lat="45.8157228" lon="11.7406221"><ele>800.0</ele><time>2026-04-11T12:06:28.988Z</time></trkpt><trkpt lat="45.8157435" lon="11.7408011"><ele>800.0</ele><time>2026-04-11T12:06:29.993Z</time></trkpt><trkpt lat="45.8157513" lon="11.740978"><ele>800.0</ele><time>2026-04-11T12:06:30.998Z</time></trkpt><trkpt lat="45.8157338" lon="11.7411492"><ele>800.0</ele><time>2026-04-11T12:06:31.975Z</time></trkpt><trkpt lat="45.8157256" lon="11.7413176"><ele>800.0</ele><time>2026-04-11T12:06:32.987Z</time></trkpt><trkpt lat="45.8157222" lon="11.7414873"><ele>800.0</ele><time>2026-04-11T12:06:33.97Z</time></trkpt><trkpt lat="45.8157829" lon="11.7416442"><ele>800.0</ele><time>2026-04-11T12:06:34.98Z</time></trkpt><trkpt lat="45.8158451" lon="11.7417937"><ele>800.0</ele><time>2026-04-11T12:06:35.973Z</time></trkpt><trkpt lat="45.8159059" lon="11.7419251"><ele>797.25</ele><time>2026-04-11T12:06:36.972Z</time></trkpt><trkpt lat="45.815975" lon="11.742044"><ele>794.5</ele><time>2026-04-11T12:06:37.983Z</time></trkpt><trkpt lat="45.8160782" lon="11.7420957"><ele>791.75</ele><time>2026-04-11T12:06:38.975Z</time></trkpt><trkpt lat="45.8161984" lon="11.7421166"><ele>789.0</ele><time>2026-04-11T12:06:39.97Z</time></trkpt><trkpt lat="45.8163256" lon="11.7421275"><ele>789.0</ele><time>2026-04-11T12:06:40.968Z</time></trkpt><trkpt lat="45.8164695" lon="11.74214"><ele>789.0</ele><time>2026-04-11T12:06:41.975Z</time></trkpt><trkpt lat="45.8166112" lon="11.7421595"><ele>789.0</ele><time>2026-04-11T12:06:42.976Z</time></trkpt><trkpt lat="45.8167391" lon="11.7421691"><ele>789.0</ele><time>2026-04-11T12:06:43.978Z</time></trkpt><trkpt lat="45.8168487" lon="11.7421479"><ele>785.75</ele><time>2026-04-11T12:06:44.982Z</time></trkpt><trkpt lat="45.8169466" lon="11.7420669"><ele>782.5</ele><time>2026-04-11T12:06:45.986Z</time></trkpt><trkpt lat="45.8170269" lon="11.7419449"><ele>779.25</ele><time>2026-04-11T12:06:46.985Z</time></trkpt><trkpt lat="45.8170967" lon="11.7417963"><ele>776.0</ele><time>2026-04-11T12:06:47.977Z</time></trkpt><trkpt lat="45.8171585" lon="11.7416374"><ele>783.8</ele><time>2026-04-11T12:06:48.98Z</time></trkpt><trkpt lat="45.8172169" lon="11.7414927"><ele>791.5999999999999</ele><time>2026-04-11T12:06:49.969Z</time></trkpt><trkpt lat="45.8172741" lon="11.7413754"><ele>799.4</ele><time>2026-04-11T12:06:50.978Z</time></trkpt><trkpt lat="45.817341" lon="11.7412853"><ele>807.2</ele><time>2026-04-11T12:06:51.969Z</time></trkpt><trkpt lat="45.8174025" lon="11.741199"><ele>815.0</ele><time>2026-04-11T12:06:52.968Z</time></trkpt><trkpt lat="45.81751" lon="11.7411858"><ele>815.0</ele><time>2026-04-11T12:06:53.98Z</time></trkpt><trkpt lat="45.8176218" lon="11.7412438"><ele>815.0</ele><time>2026-04-11T12:06:54.967Z</time></trkpt><trkpt lat="45.8177275" lon="11.7413107"><ele>815.0</ele><time>2026-04-11T12:06:55.968Z</time></trkpt><trkpt lat="45.8178361" lon="11.7413719"><ele>815.0</ele><time>2026-04-11T12:06:56.984Z</time></trkpt><trkpt lat="45.8179115" lon="11.7414671"><ele>815.8571428571429</ele><time>2026-04-11T12:06:57.973Z</time></trkpt><trkpt lat="45.8179772" lon="11.7415463"><ele>816.7142857142857</ele><time>2026-04-11T12:06:58.984Z</time></trkpt><trkpt lat="45.8180201" lon="11.7416226"><ele>817.5714285714287</ele><time>2026-04-11T12:06:59.98Z</time></trkpt><trkpt lat="45.8180589" lon="11.7416998"><ele>818.4285714285714</ele><time>2026-04-11T12:07:00.971Z</time></trkpt><trkpt lat="45.8181109" lon="11.7417739"><ele>819.2857142857143</ele><time>2026-04-11T12:07:01.967Z</time></trkpt><trkpt lat="45.8181645" lon="11.7418337"><ele>820.1428571428572</ele><time>2026-04-11T12:07:02.978Z</time></trkpt><trkpt lat="45.8182516" lon="11.7418267"><ele>821.0</ele><time>2026-04-11T12:07:03.97Z</time></trkpt><trkpt lat="45.8183359" lon="11.7417591"><ele>821.0</ele><time>2026-04-11T12:07:04.971Z</time></trkpt><trkpt lat="45.818432" lon="11.7416321"><ele>821.0</ele><time>2026-04-11T12:07:05.98Z</time></trkpt><trkpt lat="45.8185352" lon="11.7415072"><ele>821.0</ele><time>2026-04-11T12:07:06.986Z</time></trkpt><trkpt lat="45.8186395" lon="11.7413712"><ele>821.0</ele><time>2026-04-11T12:07:07.979Z</time></trkpt><trkpt lat="45.8187401" lon="11.7412345"><ele>819.75</ele><time>2026-04-11T12:07:08.971Z</time></trkpt><trkpt lat="45.818833" lon="11.741113"><ele>818.5</ele><time>2026-04-11T12:07:09.99Z</time></trkpt><trkpt lat="45.8189168" lon="11.7410078"><ele>817.25</ele><time>2026-04-11T12:07:10.993Z</time></trkpt><trkpt lat="45.819019" lon="11.740968"><ele>816.0</ele><time>2026-04-11T12:07:11.974Z</time></trkpt><trkpt lat="45.8191388" lon="11.740979"><ele>819.25</ele><time>2026-04-11T12:07:12.973Z</time></trkpt><trkpt lat="45.8192664" lon="11.7410064"><ele>822.5</ele><time>2026-04-11T12:07:13.976Z</time></trkpt><trkpt lat="45.8193906" lon="11.7410374"><ele>825.75</ele><time>2026-04-11T12:07:14.983Z</time></trkpt><trkpt lat="45.8195107" lon="11.7410791"><ele>829.0</ele><time>2026-04-11T12:07:15.972Z</time></trkpt><trkpt lat="45.8196197" lon="11.7411372"><ele>830.4000000000001</ele><time>2026-04-11T12:07:16.979Z</time></trkpt><trkpt lat="45.8197129" lon="11.7412249"><ele>831.8</ele><time>2026-04-11T12:07:17.98Z</time></trkpt><trkpt lat="45.8197866" lon="11.7413416"><ele>833.2</ele><time>2026-04-11T12:07:18.975Z</time></trkpt><trkpt lat="45.8198492" lon="11.7414715"><ele>834.5999999999999</ele><time>2026-04-11T12:07:19.98Z</time></trkpt><trkpt lat="45.8199169" lon="11.7416018"><ele>836.0</ele><time>2026-04-11T12:07:20.975Z</time></trkpt><trkpt lat="45.8199989" lon="11.7417208"><ele>836.0</ele><time>2026-04-11T12:07:21.982Z</time></trkpt><trkpt lat="45.820099" lon="11.7418015"><ele>836.0</ele><time>2026-04-11T12:07:22.978Z</time></trkpt><trkpt lat="45.8202152" lon="11.7418378"><ele>836.0</ele><time>2026-04-11T12:07:23.986Z</time></trkpt><trkpt lat="45.8203434" lon="11.7418551"><ele>836.0</ele><time>2026-04-11T12:07:24.986Z</time></trkpt><trkpt lat="45.8204775" lon="11.7418908"><ele>833.75</ele><time>2026-04-11T12:07:25.977Z</time></trkpt><trkpt lat="45.8206081" lon="11.7419647"><ele>831.5</ele><time>2026-04-11T12:07:26.979Z</time></trkpt><trkpt lat="45.8207272" lon="11.7420561"><ele>829.25</ele><time>2026-04-11T12:07:27.978Z</time></trkpt><trkpt lat="45.8208468" lon="11.7421329"><ele>827.0</ele><time>2026-04-11T12:07:28.982Z</time></trkpt><trkpt lat="45.8209753" lon="11.7421596"><ele>831.2</ele><time>2026-04-11T12:07:29.965Z</time></trkpt><trkpt lat="45.8211003" lon="11.7421258"><ele>835.4000000000001</ele><time>2026-04-11T12:07:30.968Z</time></trkpt><trkpt lat="45.8212037" lon="11.7420552"><ele>839.5999999999999</ele><time>2026-04-11T12:07:31.977Z</time></trkpt><trkpt lat="45.821298" lon="11.741998"><ele>843.8</ele><time>2026-04-11T12:07:32.98Z</time></trkpt><trkpt lat="45.8213843" lon="11.7419452"><ele>848.0</ele><time>2026-04-11T12:07:33.979Z</time></trkpt><trkpt lat="45.8214902" lon="11.7420258"><ele>848.0</ele><time>2026-04-11T12:07:34.975Z</time></trkpt><trkpt lat="45.8215914" lon="11.7421294"><ele>848.0</ele><time>2026-04-11T12:07:35.985Z</time></trkpt><trkpt lat="45.8216979" lon="11.7422241"><ele>848.0</ele><time>2026-04-11T12:07:36.987Z</time></trkpt><trkpt lat="45.82181" lon="11.7422586"><ele>848.0</ele><time>2026-04-11T12:07:37.983Z</time></trkpt><trkpt lat="45.821922" lon="11.7422801"><ele>850.0</ele><time>2026-04-11T12:07:38.967Z</time></trkpt><trkpt lat="45.8220591" lon="11.7422745"><ele>852.0</ele><time>2026-04-11T12:07:39.969Z</time></trkpt><trkpt lat="45.8221914" lon="11.7422959"><ele>854.0</ele><time>2026-04-11T12:07:40.976Z</time></trkpt><trkpt lat="45.8223287" lon="11.7424033"><ele>856.0</ele><time>2026-04-11T12:07:41.976Z</time></trkpt><trkpt lat="45.8224666" lon="11.7425168"><ele>856.0</ele><time>2026-04-11T12:07:42.969Z</time></trkpt><trkpt lat="45.8225923" lon="11.742601"><ele>856.0</ele><time>2026-04-11T12:07:43.976Z</time></trkpt><trkpt lat="45.8227209" lon="11.7426683"><ele>856.0</ele><time>2026-04-11T12:07:44.983Z</time></trkpt><trkpt lat="45.8228665" lon="11.7427015"><ele>856.0</ele><time>2026-04-11T12:07:45.978Z</time></trkpt><trkpt lat="45.8230136" lon="11.7427083"><ele>857.25</ele><time>2026-04-11T12:07:46.971Z</time></trkpt><trkpt lat="45.8231497" lon="11.7427008"><ele>858.5</ele><time>2026-04-11T12:07:47.982Z</time></trkpt><trkpt lat="45.8232704" lon="11.7426699"><ele>859.75</ele><time>2026-04-11T12:07:48.976Z</time></trkpt><trkpt lat="45.8233777" lon="11.7425873"><ele>861.0</ele><time>2026-04-11T12:07:49.977Z</time></trkpt><trkpt lat="45.8234703" lon="11.7424502"><ele>856.3333333333333</ele><time>2026-04-11T12:07:50.985Z</time></trkpt><trkpt lat="45.8235645" lon="11.742289"><ele>851.6666666666666</ele><time>2026-04-11T12:07:51.972Z</time></trkpt><trkpt lat="45.8236309" lon="11.7420681"><ele>847.0</ele><time>2026-04-11T12:07:52.983Z</time></trkpt><trkpt lat="45.8237135" lon="11.7418473"><ele>847.0</ele><time>2026-04-11T12:07:53.981Z</time></trkpt><trkpt lat="45.823829" lon="11.7416679"><ele>847.0</ele><time>2026-04-11T12:07:54.973Z</time></trkpt><trkpt lat="45.8239426" lon="11.7414936"><ele>847.0</ele><time>2026-04-11T12:07:55.968Z</time></trkpt><trkpt lat="45.8240045" lon="11.7412484"><ele>847.6666666666666</ele><time>2026-04-11T12:07:56.977Z</time></trkpt><trkpt lat="45.8240083" lon="11.7409629"><ele>848.3333333333333</ele><time>2026-04-11T12:07:57.976Z</time></trkpt><trkpt lat="45.8240193" lon="11.7406849"><ele>849.0</ele><time>2026-04-11T12:07:58.966Z</time></trkpt><trkpt lat="45.8240302" lon="11.7404016"><ele>852.0</ele><time>2026-04-11T12:07:59.973Z</time></trkpt><trkpt lat="45.8240589" lon="11.7401127"><ele>855.0</ele><time>2026-04-11T12:08:00.977Z</time></trkpt><trkpt lat="45.8241327" lon="11.7398466"><ele>858.0</ele><time>2026-04-11T12:08:01.98Z</time></trkpt><trkpt lat="45.8241878" lon="11.7395406"><ele>859.0</ele><time>2026-04-11T12:08:02.97Z</time></trkpt><trkpt lat="45.8241928" lon="11.739266"><ele>860.0</ele><time>2026-04-11T12:08:03.977Z</time></trkpt><trkpt lat="45.8242207" lon="11.7390274"><ele>861.0</ele><time>2026-04-11T12:08:04.967Z</time></trkpt><trkpt lat="45.8242708" lon="11.7388071"><ele>861.0</ele><time>2026-04-11T12:08:05.97Z</time></trkpt><trkpt lat="45.8243225" lon="11.7386192"><ele>861.0</ele><time>2026-04-11T12:08:06.977Z</time></trkpt><trkpt lat="45.8243586" lon="11.7384427"><ele>861.0</ele><time>2026-04-11T12:08:07.974Z</time></trkpt><trkpt lat="45.8243576" lon="11.7382734"><ele>861.0</ele><time>2026-04-11T12:08:08.978Z</time></trkpt><trkpt lat="45.8243082" lon="11.7381074"><ele>861.0</ele><time>2026-04-11T12:08:09.987Z</time></trkpt><trkpt lat="45.8242319" lon="11.737952"><ele>861.0</ele><time>2026-04-11T12:08:10.972Z</time></trkpt><trkpt lat="45.8241337" lon="11.7377968"><ele>861.0</ele><time>2026-04-11T12:08:11.968Z</time></trkpt><trkpt lat="45.8240424" lon="11.7376591"><ele>861.0</ele><time>2026-04-11T12:08:12.972Z</time></trkpt><trkpt lat="45.8239375" lon="11.7375286"><ele>860.0</ele><time>2026-04-11T12:08:13.971Z</time></trkpt><trkpt lat="45.823853" lon="11.7374314"><ele>858.9999999999999</ele><time>2026-04-11T12:08:14.985Z</time></trkpt><trkpt lat="45.8238153" lon="11.73732"><ele>857.9999999999999</ele><time>2026-04-11T12:08:15.968Z</time></trkpt><trkpt lat="45.8237955" lon="11.7372094"><ele>857.0</ele><time>2026-04-11T12:08:16.974Z</time></trkpt><trkpt lat="45.8238709" lon="11.7371005"><ele>856.0</ele><time>2026-04-11T12:08:17.977Z</time></trkpt><trkpt lat="45.8239817" lon="11.7370154"><ele>856.0</ele><time>2026-04-11T12:08:18.977Z</time></trkpt><trkpt lat="45.8240974" lon="11.7369451"><ele>856.0</ele><time>2026-04-11T12:08:19.97Z</time></trkpt><trkpt lat="45.8242224" lon="11.7368909"><ele>856.0</ele><time>2026-04-11T12:08:20.977Z</time></trkpt><trkpt lat="45.8243385" lon="11.736919"><ele>856.0</ele><time>2026-04-11T12:08:21.983Z</time></trkpt><trkpt lat="45.8244511" lon="11.7370094"><ele>856.5</ele><time>2026-04-11T12:08:22.974Z</time></trkpt><trkpt lat="45.8245771" lon="11.7371153"><ele>857.0</ele><time>2026-04-11T12:08:23.968Z</time></trkpt><trkpt lat="45.8246914" lon="11.7372214"><ele>857.5</ele><time>2026-04-11T12:08:24.974Z</time></trkpt><trkpt lat="45.8248118" lon="11.7373304"><ele>858.0</ele><time>2026-04-11T12:08:25.982Z</time></trkpt><trkpt lat="45.8249269" lon="11.7374425"><ele>858.0</ele><time>2026-04-11T12:08:26.977Z</time></trkpt><trkpt lat="45.8250251" lon="11.7375818"><ele>858.0</ele><time>2026-04-11T12:08:27.965Z</time></trkpt><trkpt lat="45.8250986" lon="11.7377412"><ele>858.0</ele><time>2026-04-11T12:08:28.974Z</time></trkpt><trkpt lat="45.8251569" lon="11.7379051"><ele>858.0</ele><time>2026-04-11T12:08:29.981Z</time></trkpt><trkpt lat="45.8252264" lon="11.7380559"><ele>862.25</ele><time>2026-04-11T12:08:30.98Z</time></trkpt><trkpt lat="45.8253217" lon="11.7381735"><ele>866.5</ele><time>2026-04-11T12:08:31.965Z</time></trkpt><trkpt lat="45.8254363" lon="11.7382577"><ele>870.75</ele><time>2026-04-11T12:08:32.986Z</time></trkpt><trkpt lat="45.8255508" lon="11.738336"><ele>875.0</ele><time>2026-04-11T12:08:33.98Z</time></trkpt><trkpt lat="45.8256676" lon="11.7384249"><ele>874.25</ele><time>2026-04-11T12:08:34.986Z</time></trkpt><trkpt lat="45.8257433" lon="11.7385969"><ele>873.5</ele><time>2026-04-11T12:08:35.97Z</time></trkpt><trkpt lat="45.8258009" lon="11.7387699"><ele>872.75</ele><time>2026-04-11T12:08:36.989Z</time></trkpt><trkpt lat="45.8258595" lon="11.7389479"><ele>872.0</ele><time>2026-04-11T12:08:37.98Z</time></trkpt><trkpt lat="45.8259321" lon="11.7391061"><ele>883.3333333333334</ele><time>2026-04-11T12:08:38.979Z</time></trkpt><trkpt lat="45.8260181" lon="11.7392743"><ele>894.6666666666667</ele><time>2026-04-11T12:08:39.973Z</time></trkpt><trkpt lat="45.8260706" lon="11.739475"><ele>906.0</ele><time>2026-04-11T12:08:40.987Z</time></trkpt><trkpt lat="45.8260828" lon="11.7397047"><ele>907.0</ele><time>2026-04-11T12:08:41.976Z</time></trkpt><trkpt lat="45.8260959" lon="11.7399392"><ele>908.0</ele><time>2026-04-11T12:08:42.968Z</time></trkpt><trkpt lat="45.8261124" lon="11.7401746"><ele>909.0</ele><time>2026-04-11T12:08:43.986Z</time></trkpt><trkpt lat="45.8261386" lon="11.7404009"><ele>910.0</ele><time>2026-04-11T12:08:44.976Z</time></trkpt><trkpt lat="45.8261696" lon="11.7406208"><ele>911.0</ele><time>2026-04-11T12:08:45.976Z</time></trkpt><trkpt lat="45.8261974" lon="11.7408414"><ele>912.0</ele><time>2026-04-11T12:08:46.974Z</time></trkpt><trkpt lat="45.8262331" lon="11.7410617"><ele>909.6666666666667</ele><time>2026-04-11T12:08:47.974Z</time></trkpt><trkpt lat="45.8262837" lon="11.7412764"><ele>907.3333333333334</ele><time>2026-04-11T12:08:48.985Z</time></trkpt><trkpt lat="45.8263506" lon="11.7414826"><ele>905.0</ele><time>2026-04-11T12:08:49.996Z</time></trkpt><trkpt lat="45.8264261" lon="11.7416841"><ele>905.0</ele><time>2026-04-11T12:08:50.982Z</time></trkpt><trkpt lat="45.8265008" lon="11.7418765"><ele>905.0</ele><time>2026-04-11T12:08:51.97Z</time></trkpt><trkpt lat="45.8265763" lon="11.7420606"><ele>905.0</ele><time>2026-04-11T12:08:52.978Z</time></trkpt><trkpt lat="45.8266629" lon="11.7422294"><ele>905.0</ele><time>2026-04-11T12:08:53.977Z</time></trkpt><trkpt lat="45.8267678" lon="11.7423697"><ele>906.25</ele><time>2026-04-11T12:08:54.976Z</time></trkpt><trkpt lat="45.8268875" lon="11.7424823"><ele>907.5</ele><time>2026-04-11T12:08:55.968Z</time></trkpt><trkpt lat="45.8270055" lon="11.7425939"><ele>908.75</ele><time>2026-04-11T12:08:56.966Z</time></trkpt><trkpt lat="45.8271442" lon="11.7426666"><ele>910.0</ele><time>2026-04-11T12:08:57.976Z</time></trkpt><trkpt lat="45.8272881" lon="11.7427088"><ele>910.0</ele><time>2026-04-11T12:08:58.974Z</time></trkpt><trkpt lat="45.8274405" lon="11.742698"><ele>910.0</ele><time>2026-04-11T12:08:59.972Z</time></trkpt><trkpt lat="45.8275956" lon="11.7426696"><ele>910.0</ele><time>2026-04-11T12:09:00.973Z</time></trkpt><trkpt lat="45.8277488" lon="11.7426232"><ele>914.0</ele><time>2026-04-11T12:09:01.972Z</time></trkpt><trkpt lat="45.8278931" lon="11.7425828"><ele>918.0</ele><time>2026-04-11T12:09:02.967Z</time></trkpt><trkpt lat="45.8280027" lon="11.7425433"><ele>922.0</ele><time>2026-04-11T12:09:03.972Z</time></trkpt><trkpt lat="45.8281129" lon="11.7425386"><ele>926.0</ele><time>2026-04-11T12:09:04.965Z</time></trkpt><trkpt lat="45.8282015" lon="11.7425528"><ele>926.0</ele><time>2026-04-11T12:09:05.979Z</time></trkpt><trkpt lat="45.8282861" lon="11.7426167"><ele>925.9999999999999</ele><time>2026-04-11T12:09:06.967Z</time></trkpt><trkpt lat="45.8283556" lon="11.7427456"><ele>925.9999999999999</ele><time>2026-04-11T12:09:07.975Z</time></trkpt><trkpt lat="45.8284017" lon="11.7428822"><ele>926.0</ele><time>2026-04-11T12:09:08.976Z</time></trkpt><trkpt lat="45.8284198" lon="11.7430442"><ele>926.0</ele><time>2026-04-11T12:09:09.968Z</time></trkpt><trkpt lat="45.8284341" lon="11.7432099"><ele>925.25</ele><time>2026-04-11T12:09:10.977Z</time></trkpt><trkpt lat="45.82844" lon="11.7433936"><ele>924.5</ele><time>2026-04-11T12:09:11.977Z</time></trkpt><trkpt lat="45.8284392" lon="11.7435802"><ele>923.75</ele><time>2026-04-11T12:09:12.983Z</time></trkpt><trkpt lat="45.828439" lon="11.7437702"><ele>923.0</ele><time>2026-04-11T12:09:13.989Z</time></trkpt><trkpt lat="45.8284373" lon="11.743954"><ele>922.75</ele><time>2026-04-11T12:09:14.98Z</time></trkpt><trkpt lat="45.828455" lon="11.7441483"><ele>922.5</ele><time>2026-04-11T12:09:15.971Z</time></trkpt><trkpt lat="45.8284895" lon="11.7443428"><ele>922.25</ele><time>2026-04-11T12:09:16.968Z</time></trkpt><trkpt lat="45.8285307" lon="11.744542"><ele>922.0</ele><time>2026-04-11T12:09:17.977Z</time></trkpt><trkpt lat="45.8285872" lon="11.7447179"><ele>921.5</ele><time>2026-04-11T12:09:18.978Z</time></trkpt><trkpt lat="45.8286691" lon="11.7448825"><ele>921.0</ele><time>2026-04-11T12:09:19.976Z</time></trkpt><trkpt lat="45.8287697" lon="11.7450217"><ele>920.5</ele><time>2026-04-11T12:09:20.971Z</time></trkpt><trkpt lat="45.8288702" lon="11.7451482"><ele>920.0</ele><time>2026-04-11T12:09:21.984Z</time></trkpt><trkpt lat="45.8289994" lon="11.7452427"><ele>920.0</ele><time>2026-04-11T12:09:22.974Z</time></trkpt><trkpt lat="45.829134" lon="11.7453045"><ele>920.0</ele><time>2026-04-11T12:09:23.971Z</time></trkpt><trkpt lat="45.8292709" lon="11.7453605"><ele>920.0</ele><time>2026-04-11T12:09:24.976Z</time></trkpt><trkpt lat="45.8294125" lon="11.7453414"><ele>920.0</ele><time>2026-04-11T12:09:25.972Z</time></trkpt><trkpt lat="45.8295301" lon="11.7453123"><ele>922.4</ele><time>2026-04-11T12:09:26.986Z</time></trkpt><trkpt lat="45.8296326" lon="11.7453247"><ele>924.8</ele><time>2026-04-11T12:09:27.981Z</time></trkpt><trkpt lat="45.829726" lon="11.7453318"><ele>927.2</ele><time>2026-04-11T12:09:28.976Z</time></trkpt><trkpt lat="45.8297905" lon="11.7453716"><ele>929.6</ele><time>2026-04-11T12:09:29.986Z</time></trkpt><trkpt lat="45.8298549" lon="11.7454087"><ele>932.0</ele><time>2026-04-11T12:09:30.97Z</time></trkpt><trkpt lat="45.8299668" lon="11.745364"><ele>932.0</ele><time>2026-04-11T12:09:32.973Z</time></trkpt><trkpt lat="45.8299571" lon="11.7452728"><ele>932.0</ele><time>2026-04-11T12:09:33.972Z</time></trkpt><trkpt lat="45.829907" lon="11.7451999"><ele>932.0</ele><time>2026-04-11T12:09:34.98Z</time></trkpt><trkpt lat="45.8298131" lon="11.7451787"><ele>932.0</ele><time>2026-04-11T12:09:35.983Z</time></trkpt><trkpt lat="45.8296911" lon="11.7451598"><ele>932.0</ele><time>2026-04-11T12:09:36.969Z</time></trkpt><trkpt lat="45.8295483" lon="11.7451273"><ele>935.0</ele><time>2026-04-11T12:09:37.968Z</time></trkpt><trkpt lat="45.8294115" lon="11.7450631"><ele>938.0</ele><time>2026-04-11T12:09:38.981Z</time></trkpt><trkpt lat="45.8292844" lon="11.7449648"><ele>941.0</ele><time>2026-04-11T12:09:39.978Z</time></trkpt><trkpt lat="45.8291669" lon="11.7448708"><ele>944.0</ele><time>2026-04-11T12:09:40.972Z</time></trkpt><trkpt lat="45.8290663" lon="11.7447459"><ele>944.0</ele><time>2026-04-11T12:09:41.975Z</time></trkpt><trkpt lat="45.8289905" lon="11.7446096"><ele>944.0</ele><time>2026-04-11T12:09:42.971Z</time></trkpt><trkpt lat="45.8289789" lon="11.7444501"><ele>944.0</ele><time>2026-04-11T12:09:43.984Z</time></trkpt><trkpt lat="45.8289881" lon="11.7442674"><ele>944.0</ele><time>2026-04-11T12:09:44.988Z</time></trkpt><trkpt lat="45.8290014" lon="11.7440693"><ele>948.5</ele><time>2026-04-11T12:09:45.979Z</time></trkpt><trkpt lat="45.829012" lon="11.7438653"><ele>953.0</ele><time>2026-04-11T12:09:46.979Z</time></trkpt><trkpt lat="45.8290256" lon="11.7436612"><ele>957.5</ele><time>2026-04-11T12:09:47.986Z</time></trkpt><trkpt lat="45.8290517" lon="11.7434508"><ele>962.0</ele><time>2026-04-11T12:09:48.976Z</time></trkpt><trkpt lat="45.8290826" lon="11.7432547"><ele>962.5</ele><time>2026-04-11T12:09:49.971Z</time></trkpt><trkpt lat="45.829123" lon="11.7430655"><ele>963.0</ele><time>2026-04-11T12:09:50.976Z</time></trkpt><trkpt lat="45.8291728" lon="11.7428778"><ele>963.5</ele><time>2026-04-11T12:09:51.975Z</time></trkpt><trkpt lat="45.8292415" lon="11.7426851"><ele>964.0</ele><time>2026-04-11T12:09:52.987Z</time></trkpt><trkpt lat="45.8293135" lon="11.7424874"><ele>973.3333333333333</ele><time>2026-04-11T12:09:53.976Z</time></trkpt><trkpt lat="45.8293772" lon="11.7422709"><ele>982.6666666666667</ele><time>2026-04-11T12:09:54.979Z</time></trkpt><trkpt lat="45.8294347" lon="11.7420488"><ele>992.0</ele><time>2026-04-11T12:09:55.974Z</time></trkpt><trkpt lat="45.8294926" lon="11.7418299"><ele>992.0</ele><time>2026-04-11T12:09:56.983Z</time></trkpt><trkpt lat="45.8295551" lon="11.7416304"><ele>992.0</ele><time>2026-04-11T12:09:57.969Z</time></trkpt><trkpt lat="45.8296238" lon="11.7414633"><ele>992.0</ele><time>2026-04-11T12:09:58.974Z</time></trkpt><trkpt lat="45.8296902" lon="11.7413303"><ele>992.0</ele><time>2026-04-11T12:09:59.982Z</time></trkpt><trkpt lat="45.8297448" lon="11.741211"><ele>992.0</ele><time>2026-04-11T12:10:00.971Z</time></trkpt><trkpt lat="45.8297791" lon="11.7411018"><ele>992.0</ele><time>2026-04-11T12:10:01.978Z</time></trkpt><trkpt lat="45.829783" lon="11.7409889"><ele>992.0</ele><time>2026-04-11T12:10:02.972Z</time></trkpt><trkpt lat="45.8297506" lon="11.7408742"><ele>992.0</ele><time>2026-04-11T12:10:03.971Z</time></trkpt><trkpt lat="45.8296961" lon="11.7407557"><ele>992.0</ele><time>2026-04-11T12:10:04.972Z</time></trkpt><trkpt lat="45.8295908" lon="11.7407242"><ele>991.0</ele><time>2026-04-11T12:10:05.977Z</time></trkpt><trkpt lat="45.82946" lon="11.7406957"><ele>990.0</ele><time>2026-04-11T12:10:06.97Z</time></trkpt><trkpt lat="45.8292972" lon="11.7406972"><ele>989.0</ele><time>2026-04-11T12:10:07.978Z</time></trkpt><trkpt lat="45.8291133" lon="11.7406877"><ele>984.0</ele><time>2026-04-11T12:10:08.968Z</time></trkpt><trkpt lat="45.828918" lon="11.7406747"><ele>979.0</ele><time>2026-04-11T12:10:09.975Z</time></trkpt><trkpt lat="45.8287419" lon="11.7406833"><ele>974.0</ele><time>2026-04-11T12:10:10.975Z</time></trkpt><trkpt lat="45.8285889" lon="11.7406618"><ele>973.75</ele><time>2026-04-11T12:10:11.985Z</time></trkpt><trkpt lat="45.8284577" lon="11.7406303"><ele>973.5</ele><time>2026-04-11T12:10:12.971Z</time></trkpt><trkpt lat="45.8283357" lon="11.7405985"><ele>973.25</ele><time>2026-04-11T12:10:13.977Z</time></trkpt><trkpt lat="45.8282441" lon="11.7405332"><ele>973.0</ele><time>2026-04-11T12:10:14.979Z</time></trkpt><trkpt lat="45.8281748" lon="11.7404166"><ele>973.0</ele><time>2026-04-11T12:10:15.976Z</time></trkpt><trkpt lat="45.8281355" lon="11.7402852"><ele>973.0</ele><time>2026-04-11T12:10:16.984Z</time></trkpt><trkpt lat="45.8281042" lon="11.7401609"><ele>973.0</ele><time>2026-04-11T12:10:17.985Z</time></trkpt><trkpt lat="45.8281259" lon="11.7400164"><ele>973.0</ele><time>2026-04-11T12:10:18.984Z</time></trkpt><trkpt lat="45.8281623" lon="11.7398777"><ele>973.0</ele><time>2026-04-11T12:10:19.985Z</time></trkpt><trkpt lat="45.8282201" lon="11.7397478"><ele>975.25</ele><time>2026-04-11T12:10:20.97Z</time></trkpt><trkpt lat="45.8282913" lon="11.7396279"><ele>977.5</ele><time>2026-04-11T12:10:21.984Z</time></trkpt><trkpt lat="45.8283592" lon="11.7394864"><ele>979.75</ele><time>2026-04-11T12:10:22.982Z</time></trkpt><trkpt lat="45.8283954" lon="11.7393199"><ele>982.0</ele><time>2026-04-11T12:10:23.977Z</time></trkpt><trkpt lat="45.8283985" lon="11.7391365"><ele>983.75</ele><time>2026-04-11T12:10:24.982Z</time></trkpt><trkpt lat="45.8283716" lon="11.7389467"><ele>985.5</ele><time>2026-04-11T12:10:25.975Z</time></trkpt><trkpt lat="45.8283236" lon="11.7387605"><ele>987.25</ele><time>2026-04-11T12:10:26.972Z</time></trkpt><trkpt lat="45.8282656" lon="11.7385729"><ele>989.0</ele><time>2026-04-11T12:10:27.981Z</time></trkpt><trkpt lat="45.8282144" lon="11.7383771"><ele>991.5</ele><time>2026-04-11T12:10:28.975Z</time></trkpt><trkpt lat="45.8281627" lon="11.7381885"><ele>994.0</ele><time>2026-04-11T12:10:29.97Z</time></trkpt><trkpt lat="45.8281456" lon="11.737985"><ele>996.5</ele><time>2026-04-11T12:10:30.985Z</time></trkpt><trkpt lat="45.8281456" lon="11.7377844"><ele>999.0</ele><time>2026-04-11T12:10:31.977Z</time></trkpt><trkpt lat="45.8281613" lon="11.7375827"><ele>999.75</ele><time>2026-04-11T12:10:32.972Z</time></trkpt><trkpt lat="45.828198" lon="11.7373843"><ele>1000.5</ele><time>2026-04-11T12:10:33.989Z</time></trkpt><trkpt lat="45.8282461" lon="11.7372058"><ele>1001.25</ele><time>2026-04-11T12:10:34.992Z</time></trkpt><trkpt lat="45.8282985" lon="11.7370634"><ele>1002.0</ele><time>2026-04-11T12:10:35.981Z</time></trkpt><trkpt lat="45.8283671" lon="11.736944"><ele>1001.75</ele><time>2026-04-11T12:10:37.004Z</time></trkpt><trkpt lat="45.8284566" lon="11.7368538"><ele>1001.5</ele><time>2026-04-11T12:10:37.98Z</time></trkpt><trkpt lat="45.828567" lon="11.7367936"><ele>1001.25</ele><time>2026-04-11T12:10:38.974Z</time></trkpt><trkpt lat="45.8287016" lon="11.736765"><ele>1001.0</ele><time>2026-04-11T12:10:39.983Z</time></trkpt><trkpt lat="45.8288432" lon="11.7367512"><ele>1001.0</ele><time>2026-04-11T12:10:40.98Z</time></trkpt><trkpt lat="45.8289858" lon="11.7367487"><ele>1001.0</ele><time>2026-04-11T12:10:41.978Z</time></trkpt><trkpt lat="45.8291279" lon="11.7367591"><ele>1001.0</ele><time>2026-04-11T12:10:42.976Z</time></trkpt><trkpt lat="45.8292736" lon="11.736785"><ele>1001.0</ele><time>2026-04-11T12:10:43.973Z</time></trkpt><trkpt lat="45.8294222" lon="11.7368286"><ele>999.0</ele><time>2026-04-11T12:10:44.988Z</time></trkpt><trkpt lat="45.8295738" lon="11.7368757"><ele>997.0</ele><time>2026-04-11T12:10:45.987Z</time></trkpt><trkpt lat="45.8297313" lon="11.7369097"><ele>995.0</ele><time>2026-04-11T12:10:46.991Z</time></trkpt><trkpt lat="45.82989" lon="11.7369363"><ele>1004.6666666666667</ele><time>2026-04-11T12:10:47.972Z</time></trkpt><trkpt lat="45.8300429" lon="11.7369619"><ele>1014.3333333333333</ele><time>2026-04-11T12:10:48.981Z</time></trkpt><trkpt lat="45.8301918" lon="11.7369938"><ele>1024.0</ele><time>2026-04-11T12:10:49.982Z</time></trkpt><trkpt lat="45.8303408" lon="11.7370274"><ele>1026.3333333333333</ele><time>2026-04-11T12:10:50.987Z</time></trkpt><trkpt lat="45.8304998" lon="11.7370407"><ele>1028.6666666666667</ele><time>2026-04-11T12:10:51.984Z</time></trkpt><trkpt lat="45.8306581" lon="11.7370223"><ele>1031.0</ele><time>2026-04-11T12:10:52.983Z</time></trkpt><trkpt lat="45.83082" lon="11.7369943"><ele>1031.0</ele><time>2026-04-11T12:10:53.983Z</time></trkpt><trkpt lat="45.8309726" lon="11.7369588"><ele>1031.0</ele><time>2026-04-11T12:10:54.981Z</time></trkpt><trkpt lat="45.8311103" lon="11.7369291"><ele>1031.0</ele><time>2026-04-11T12:10:55.987Z</time></trkpt><trkpt lat="45.8312396" lon="11.7369334"><ele>1031.0</ele><time>2026-04-11T12:10:57.009Z</time></trkpt><trkpt lat="45.8313528" lon="11.7369155"><ele>1028.0</ele><time>2026-04-11T12:10:57.978Z</time></trkpt><trkpt lat="45.8314643" lon="11.736886"><ele>1025.0</ele><time>2026-04-11T12:10:58.974Z</time></trkpt><trkpt lat="45.8315475" lon="11.7367632"><ele>1022.0</ele><time>2026-04-11T12:10:59.986Z</time></trkpt><trkpt lat="45.8316187" lon="11.736617"><ele>1019.0</ele><time>2026-04-11T12:11:00.985Z</time></trkpt><trkpt lat="45.8316652" lon="11.7364352"><ele>1019.0</ele><time>2026-04-11T12:11:01.976Z</time></trkpt><trkpt lat="45.8317111" lon="11.7362704"><ele>1019.0</ele><time>2026-04-11T12:11:02.989Z</time></trkpt><trkpt lat="45.8317519" lon="11.7361142"><ele>1019.0</ele><time>2026-04-11T12:11:03.978Z</time></trkpt><trkpt lat="45.8318342" lon="11.7360177"><ele>1019.0</ele><time>2026-04-11T12:11:04.974Z</time></trkpt><trkpt lat="45.8319264" lon="11.7359319"><ele>1019.75</ele><time>2026-04-11T12:11:05.993Z</time></trkpt><trkpt lat="45.8320461" lon="11.7359472"><ele>1020.5</ele><time>2026-04-11T12:11:06.983Z</time></trkpt><trkpt lat="45.8321624" lon="11.7359667"><ele>1021.25</ele><time>2026-04-11T12:11:07.975Z</time></trkpt><trkpt lat="45.832301" lon="11.7359512"><ele>1022.0</ele><time>2026-04-11T12:11:08.984Z</time></trkpt><trkpt lat="45.8324226" lon="11.7359176"><ele>1022.0</ele><time>2026-04-11T12:11:09.984Z</time></trkpt><trkpt lat="45.8325395" lon="11.7358472"><ele>1022.0</ele><time>2026-04-11T12:11:10.984Z</time></trkpt><trkpt lat="45.8326293" lon="11.7357287"><ele>1022.0</ele><time>2026-04-11T12:11:11.976Z</time></trkpt><trkpt lat="45.8327034" lon="11.7355861"><ele>1022.0</ele><time>2026-04-11T12:11:12.976Z</time></trkpt><trkpt lat="45.8327651" lon="11.7354416"><ele>1021.4000000000001</ele><time>2026-04-11T12:11:13.977Z</time></trkpt><trkpt lat="45.8328262" lon="11.7353299"><ele>1020.8000000000001</ele><time>2026-04-11T12:11:14.976Z</time></trkpt><trkpt lat="45.8329028" lon="11.7352456"><ele>1020.2</ele><time>2026-04-11T12:11:15.991Z</time></trkpt><trkpt lat="45.8330045" lon="11.7351994"><ele>1019.6</ele><time>2026-04-11T12:11:16.972Z</time></trkpt><trkpt lat="45.8331267" lon="11.7351731"><ele>1019.0</ele><time>2026-04-11T12:11:17.97Z</time></trkpt><trkpt lat="45.8332545" lon="11.7351367"><ele>1019.0</ele><time>2026-04-11T12:11:18.97Z</time></trkpt><trkpt lat="45.8333886" lon="11.7351061"><ele>1019.0</ele><time>2026-04-11T12:11:19.976Z</time></trkpt><trkpt lat="45.8335171" lon="11.7350729"><ele>1019.0</ele><time>2026-04-11T12:11:20.962Z</time></trkpt><trkpt lat="45.8336381" lon="11.7350146"><ele>1019.0</ele><time>2026-04-11T12:11:21.967Z</time></trkpt><trkpt lat="45.833748" lon="11.7349422"><ele>1019.6</ele><time>2026-04-11T12:11:22.98Z</time></trkpt><trkpt lat="45.8338473" lon="11.7348456"><ele>1020.2</ele><time>2026-04-11T12:11:23.993Z</time></trkpt><trkpt lat="45.8339453" lon="11.7347507"><ele>1020.8000000000001</ele><time>2026-04-11T12:11:24.997Z</time></trkpt><trkpt lat="45.8340256" lon="11.734647"><ele>1021.4000000000001</ele><time>2026-04-11T12:11:25.974Z</time></trkpt><trkpt lat="45.8340958" lon="11.7345477"><ele>1022.0</ele><time>2026-04-11T12:11:26.984Z</time></trkpt><trkpt lat="45.8341657" lon="11.734452"><ele>1022.0000000000001</ele><time>2026-04-11T12:11:27.987Z</time></trkpt><trkpt lat="45.8342311" lon="11.7343556"><ele>1022.0</ele><time>2026-04-11T12:11:28.982Z</time></trkpt><trkpt lat="45.8342948" lon="11.734266"><ele>1022.0</ele><time>2026-04-11T12:11:29.996Z</time></trkpt><trkpt lat="45.834354" lon="11.7341962"><ele>1022.0</ele><time>2026-04-11T12:11:30.988Z</time></trkpt><trkpt lat="45.8344038" lon="11.7341398"><ele>1022.0000000000001</ele><time>2026-04-11T12:11:31.989Z</time></trkpt><trkpt lat="45.8344983" lon="11.7340489"><ele>1022.0</ele><time>2026-04-11T12:11:33.974Z</time></trkpt><trkpt lat="45.8345344" lon="11.7339738"><ele>1022.0000000000001</ele><time>2026-04-11T12:11:34.988Z</time></trkpt><trkpt lat="45.8345881" lon="11.7338238"><ele>1022.0</ele><time>2026-04-11T12:11:36.985Z</time></trkpt><trkpt lat="45.8346148" lon="11.7337323"><ele>1022.0</ele><time>2026-04-11T12:11:37.994Z</time></trkpt><trkpt lat="45.8346306" lon="11.7336209"><ele>1022.0</ele><time>2026-04-11T12:11:38.973Z</time></trkpt><trkpt lat="45.8346333" lon="11.733499"><ele>1022.0000000000001</ele><time>2026-04-11T12:11:39.977Z</time></trkpt><trkpt lat="45.8346317" lon="11.7333699"><ele>1022.0</ele><time>2026-04-11T12:11:40.983Z</time></trkpt><trkpt lat="45.8346259" lon="11.7332418"><ele>1023.8</ele><time>2026-04-11T12:11:41.975Z</time></trkpt><trkpt lat="45.8346509" lon="11.733111"><ele>1025.6</ele><time>2026-04-11T12:11:42.986Z</time></trkpt><trkpt lat="45.834679" lon="11.7329971"><ele>1027.3999999999999</ele><time>2026-04-11T12:11:43.985Z</time></trkpt><trkpt lat="45.8347557" lon="11.7329012"><ele>1029.2</ele><time>2026-04-11T12:11:44.978Z</time></trkpt><trkpt lat="45.8348294" lon="11.7328055"><ele>1031.0</ele><time>2026-04-11T12:11:45.976Z</time></trkpt><trkpt lat="45.8349002" lon="11.7326934"><ele>1031.8</ele><time>2026-04-11T12:11:46.985Z</time></trkpt><trkpt lat="45.834966" lon="11.732586"><ele>1032.6</ele><time>2026-04-11T12:11:47.977Z</time></trkpt><trkpt lat="45.834985" lon="11.7324439"><ele>1033.4</ele><time>2026-04-11T12:11:48.976Z</time></trkpt><trkpt lat="45.8350147" lon="11.7322965"><ele>1034.2</ele><time>2026-04-11T12:11:49.988Z</time></trkpt><trkpt lat="45.8350432" lon="11.7321657"><ele>1035.0</ele><time>2026-04-11T12:11:50.98Z</time></trkpt><trkpt lat="45.8351109" lon="11.7320403"><ele>1042.5</ele><time>2026-04-11T12:11:51.971Z</time></trkpt><trkpt lat="45.8351631" lon="11.7318642"><ele>1050.0</ele><time>2026-04-11T12:11:52.967Z</time></trkpt><trkpt lat="45.8352159" lon="11.7316923"><ele>1057.5</ele><time>2026-04-11T12:11:53.989Z</time></trkpt><trkpt lat="45.8352418" lon="11.731502"><ele>1065.0</ele><time>2026-04-11T12:11:54.982Z</time></trkpt><trkpt lat="45.8352896" lon="11.7313496"><ele>1065.0</ele><time>2026-04-11T12:11:55.973Z</time></trkpt><trkpt lat="45.8353324" lon="11.7312182"><ele>1065.0</ele><time>2026-04-11T12:11:56.98Z</time></trkpt><trkpt lat="45.8353652" lon="11.7310951"><ele>1065.0</ele><time>2026-04-11T12:11:57.992Z</time></trkpt><trkpt lat="45.8354225" lon="11.7310054"><ele>1065.0</ele><time>2026-04-11T12:11:58.988Z</time></trkpt><trkpt lat="45.8354808" lon="11.7309278"><ele>1065.0</ele><time>2026-04-11T12:11:59.976Z</time></trkpt><trkpt lat="45.8355607" lon="11.7308851"><ele>1065.0</ele><time>2026-04-11T12:12:00.984Z</time></trkpt><trkpt lat="45.8356716" lon="11.7308923"><ele>1067.8</ele><time>2026-04-11T12:12:01.974Z</time></trkpt><trkpt lat="45.835796" lon="11.7308681"><ele>1070.6</ele><time>2026-04-11T12:12:02.979Z</time></trkpt><trkpt lat="45.8359078" lon="11.7308508"><ele>1073.4</ele><time>2026-04-11T12:12:03.974Z</time></trkpt><trkpt lat="45.8360181" lon="11.7308241"><ele>1076.2</ele><time>2026-04-11T12:12:04.997Z</time></trkpt><trkpt lat="45.8361133" lon="11.7308079"><ele>1079.0</ele><time>2026-04-11T12:12:05.975Z</time></trkpt><trkpt lat="45.8362006" lon="11.7307762"><ele>1079.0</ele><time>2026-04-11T12:12:06.977Z</time></trkpt><trkpt lat="45.8362789" lon="11.7307012"><ele>1079.0</ele><time>2026-04-11T12:12:07.984Z</time></trkpt><trkpt lat="45.8363528" lon="11.7305768"><ele>1079.0</ele><time>2026-04-11T12:12:08.979Z</time></trkpt><trkpt lat="45.8363991" lon="11.7303869"><ele>1079.0</ele><time>2026-04-11T12:12:09.974Z</time></trkpt><trkpt lat="45.8364437" lon="11.7302161"><ele>1075.5</ele><time>2026-04-11T12:12:10.977Z</time></trkpt><trkpt lat="45.8364953" lon="11.7300402"><ele>1072.0</ele><time>2026-04-11T12:12:11.995Z</time></trkpt><trkpt lat="45.8365424" lon="11.7298643"><ele>1068.5</ele><time>2026-04-11T12:12:12.979Z</time></trkpt><trkpt lat="45.8365793" lon="11.7297163"><ele>1065.0</ele><time>2026-04-11T12:12:13.969Z</time></trkpt><trkpt lat="45.836638" lon="11.7295632"><ele>1065.0</ele><time>2026-04-11T12:12:14.979Z</time></trkpt><trkpt lat="45.8367043" lon="11.7294248"><ele>1065.0</ele><time>2026-04-11T12:12:15.971Z</time></trkpt><trkpt lat="45.8367992" lon="11.7292868"><ele>1065.0</ele><time>2026-04-11T12:12:16.975Z</time></trkpt><trkpt lat="45.8368936" lon="11.7291645"><ele>1065.0</ele><time>2026-04-11T12:12:18.005Z</time></trkpt><trkpt lat="45.8369993" lon="11.7290462"><ele>1067.25</ele><time>2026-04-11T12:12:18.97Z</time></trkpt><trkpt lat="45.8371041" lon="11.7289208"><ele>1069.5</ele><time>2026-04-11T12:12:19.97Z</time></trkpt><trkpt lat="45.8372018" lon="11.7288041"><ele>1071.75</ele><time>2026-04-11T12:12:20.978Z</time></trkpt><trkpt lat="45.8372934" lon="11.7286887"><ele>1074.0</ele><time>2026-04-11T12:12:21.983Z</time></trkpt><trkpt lat="45.8373596" lon="11.7285553"><ele>1074.0</ele><time>2026-04-11T12:12:22.98Z</time></trkpt><trkpt lat="45.8374167" lon="11.728435"><ele>1074.0</ele><time>2026-04-11T12:12:23.99Z</time></trkpt><trkpt lat="45.8374509" lon="11.7283174"><ele>1074.0</ele><time>2026-04-11T12:12:24.98Z</time></trkpt><trkpt lat="45.8374903" lon="11.7282222"><ele>1074.0</ele><time>2026-04-11T12:12:25.985Z</time></trkpt><trkpt lat="45.8375372" lon="11.7281016"><ele>1074.0</ele><time>2026-04-11T12:12:27.981Z</time></trkpt><trkpt lat="45.8375787" lon="11.7280208"><ele>1074.0</ele><time>2026-04-11T12:12:29.989Z</time></trkpt><trkpt lat="45.8376028" lon="11.7279331"><ele>1074.0</ele><time>2026-04-11T12:13:16.992Z</time></trkpt><trkpt lat="45.837629" lon="11.7278386"><ele>1074.0</ele><time>2026-04-11T12:13:18.985Z</time></trkpt><trkpt lat="45.8376619" lon="11.7276744"><ele>1074.0</ele><time>2026-04-11T12:13:20.986Z</time></trkpt><trkpt lat="45.8376827" lon="11.7275826"><ele>1074.0</ele><time>2026-04-11T12:13:21.969Z</time></trkpt><trkpt lat="45.8377177" lon="11.7274373"><ele>1074.0</ele><time>2026-04-11T12:13:23.986Z</time></trkpt><trkpt lat="45.8377425" lon="11.7273469"><ele>1074.0</ele><time>2026-04-11T12:13:25.996Z</time></trkpt><trkpt lat="45.8377775" lon="11.7272461"><ele>1074.6666666666667</ele><time>2026-04-11T12:13:27.985Z</time></trkpt><trkpt lat="45.8378273" lon="11.727121"><ele>1075.3333333333333</ele><time>2026-04-11T12:13:29.977Z</time></trkpt><trkpt lat="45.837873" lon="11.7270584"><ele>1076.0</ele><time>2026-04-11T12:13:30.971Z</time></trkpt><trkpt lat="45.8379407" lon="11.726995"><ele>1076.6666666666665</ele><time>2026-04-11T12:13:31.98Z</time></trkpt><trkpt lat="45.8380136" lon="11.7269323"><ele>1077.3333333333333</ele><time>2026-04-11T12:13:32.976Z</time></trkpt><trkpt lat="45.8380987" lon="11.7268648"><ele>1078.0</ele><time>2026-04-11T12:13:33.967Z</time></trkpt><trkpt lat="45.8381818" lon="11.7268012"><ele>1078.0</ele><time>2026-04-11T12:13:34.976Z</time></trkpt><trkpt lat="45.8382662" lon="11.7267337"><ele>1078.0</ele><time>2026-04-11T12:13:35.987Z</time></trkpt><trkpt lat="45.8383543" lon="11.7266534"><ele>1078.0</ele><time>2026-04-11T12:13:36.98Z</time></trkpt><trkpt lat="45.8384439" lon="11.7265653"><ele>1078.0</ele><time>2026-04-11T12:13:37.975Z</time></trkpt><trkpt lat="45.8385245" lon="11.7264611"><ele>1078.0</ele><time>2026-04-11T12:13:38.982Z</time></trkpt><trkpt lat="45.8385949" lon="11.7263482"><ele>1078.5</ele><time>2026-04-11T12:13:39.972Z</time></trkpt><trkpt lat="45.8386623" lon="11.7262417"><ele>1079.0</ele><time>2026-04-11T12:13:40.97Z</time></trkpt><trkpt lat="45.8387236" lon="11.7261381"><ele>1079.5</ele><time>2026-04-11T12:13:41.983Z</time></trkpt><trkpt lat="45.8387669" lon="11.7260281"><ele>1080.0</ele><time>2026-04-11T12:13:42.979Z</time></trkpt><trkpt lat="45.8387924" lon="11.7259152"><ele>1080.5</ele><time>2026-04-11T12:13:43.975Z</time></trkpt><trkpt lat="45.8388109" lon="11.725814"><ele>1081.0</ele><time>2026-04-11T12:13:44.976Z</time></trkpt><trkpt lat="45.8388295" lon="11.7257216"><ele>1081.0</ele><time>2026-04-11T12:13:45.982Z</time></trkpt><trkpt lat="45.8388729" lon="11.7255979"><ele>1081.0</ele><time>2026-04-11T12:13:47.981Z</time></trkpt><trkpt lat="45.8389556" lon="11.7255626"><ele>1081.0</ele><time>2026-04-11T12:13:49.977Z</time></trkpt><trkpt lat="45.8390212" lon="11.7256108"><ele>1081.0</ele><time>2026-04-11T12:13:50.978Z</time></trkpt><trkpt lat="45.8390965" lon="11.7256862"><ele>1081.0</ele><time>2026-04-11T12:13:51.981Z</time></trkpt><trkpt lat="45.8391814" lon="11.7257736"><ele>1081.0</ele><time>2026-04-11T12:13:52.975Z</time></trkpt><trkpt lat="45.8392628" lon="11.7258276"><ele>1081.0</ele><time>2026-04-11T12:13:53.98Z</time></trkpt><trkpt lat="45.8393574" lon="11.7258685"><ele>1081.0</ele><time>2026-04-11T12:13:54.976Z</time></trkpt><trkpt lat="45.8394577" lon="11.7259083"><ele>1081.0</ele><time>2026-04-11T12:13:55.974Z</time></trkpt><trkpt lat="45.8395653" lon="11.7259266"><ele>1081.0</ele><time>2026-04-11T12:13:56.976Z</time></trkpt><trkpt lat="45.8396819" lon="11.7259339"><ele>1081.25</ele><time>2026-04-11T12:13:57.971Z</time></trkpt><trkpt lat="45.8398086" lon="11.725932"><ele>1081.5</ele><time>2026-04-11T12:13:58.975Z</time></trkpt><trkpt lat="45.8399282" lon="11.7259418"><ele>1081.75</ele><time>2026-04-11T12:13:59.975Z</time></trkpt><trkpt lat="45.8400506" lon="11.7259525"><ele>1082.0</ele><time>2026-04-11T12:14:00.974Z</time></trkpt><trkpt lat="45.8401739" lon="11.7259659"><ele>1082.1666666666667</ele><time>2026-04-11T12:14:01.976Z</time></trkpt><trkpt lat="45.8402754" lon="11.7259784"><ele>1082.3333333333335</ele><time>2026-04-11T12:14:02.971Z</time></trkpt><trkpt lat="45.8403448" lon="11.7259813"><ele>1082.5</ele><time>2026-04-11T12:14:03.985Z</time></trkpt><trkpt lat="45.840417" lon="11.7260016"><ele>1082.6666666666667</ele><time>2026-04-11T12:14:04.979Z</time></trkpt><trkpt lat="45.8404891" lon="11.7260368"><ele>1082.8333333333333</ele><time>2026-04-11T12:14:05.98Z</time></trkpt><trkpt lat="45.840552" lon="11.7261075"><ele>1083.0</ele><time>2026-04-11T12:14:06.985Z</time></trkpt><trkpt lat="45.8405915" lon="11.726199"><ele>1083.0</ele><time>2026-04-11T12:14:07.982Z</time></trkpt><trkpt lat="45.8406204" lon="11.726311"><ele>1083.0</ele><time>2026-04-11T12:14:08.992Z</time></trkpt><trkpt lat="45.840637" lon="11.7264337"><ele>1083.0</ele><time>2026-04-11T12:14:09.974Z</time></trkpt><trkpt lat="45.8406511" lon="11.7265444"><ele>1083.0</ele><time>2026-04-11T12:14:10.975Z</time></trkpt><trkpt lat="45.840663" lon="11.7266396"><ele>1083.0</ele><time>2026-04-11T12:14:11.978Z</time></trkpt><trkpt lat="45.8406808" lon="11.7268018"><ele>1083.0</ele><time>2026-04-11T12:14:13.981Z</time></trkpt><trkpt lat="45.8406955" lon="11.7269307"><ele>1084.3333333333333</ele><time>2026-04-11T12:14:15.985Z</time></trkpt><trkpt lat="45.8407701" lon="11.72705"><ele>1085.6666666666667</ele><time>2026-04-11T12:14:17.978Z</time></trkpt><trkpt lat="45.8408385" lon="11.7270677"><ele>1087.0</ele><time>2026-04-11T12:14:18.98Z</time></trkpt><trkpt lat="45.8409135" lon="11.727065"><ele>1088.3333333333335</ele><time>2026-04-11T12:14:19.984Z</time></trkpt><trkpt lat="45.8409862" lon="11.7270669"><ele>1089.6666666666667</ele><time>2026-04-11T12:14:20.984Z</time></trkpt><trkpt lat="45.8410597" lon="11.7270953"><ele>1091.0</ele><time>2026-04-11T12:14:21.978Z</time></trkpt><trkpt lat="45.8411273" lon="11.7271276"><ele>1091.0</ele><time>2026-04-11T12:14:22.979Z</time></trkpt><trkpt lat="45.8411886" lon="11.7272099"><ele>1091.0</ele><time>2026-04-11T12:14:23.991Z</time></trkpt><trkpt lat="45.8412408" lon="11.7273177"><ele>1091.0</ele><time>2026-04-11T12:14:24.973Z</time></trkpt><trkpt lat="45.8412854" lon="11.7274185"><ele>1091.0</ele><time>2026-04-11T12:14:25.979Z</time></trkpt><trkpt lat="45.8413547" lon="11.7274789"><ele>1091.0</ele><time>2026-04-11T12:14:26.974Z</time></trkpt><trkpt lat="45.8414204" lon="11.727533"><ele>1091.0</ele><time>2026-04-11T12:14:27.975Z</time></trkpt><trkpt lat="45.8414977" lon="11.7275045"><ele>1091.0</ele><time>2026-04-11T12:14:28.986Z</time></trkpt><trkpt lat="45.8415731" lon="11.7274666"><ele>1091.0</ele><time>2026-04-11T12:14:29.977Z</time></trkpt><trkpt lat="45.8416187" lon="11.7273576"><ele>1091.0</ele><time>2026-04-11T12:14:30.982Z</time></trkpt><trkpt lat="45.8416701" lon="11.7272444"><ele>1091.0</ele><time>2026-04-11T12:14:31.975Z</time></trkpt><trkpt lat="45.8417044" lon="11.7271072"><ele>1091.0</ele><time>2026-04-11T12:14:32.967Z</time></trkpt><trkpt lat="45.8417455" lon="11.7269737"><ele>1089.3999999999999</ele><time>2026-04-11T12:14:33.975Z</time></trkpt><trkpt lat="45.8417916" lon="11.7268431"><ele>1087.8</ele><time>2026-04-11T12:14:34.983Z</time></trkpt><trkpt lat="45.8418253" lon="11.7267128"><ele>1086.1999999999998</ele><time>2026-04-11T12:14:35.98Z</time></trkpt><trkpt lat="45.8418386" lon="11.7265726"><ele>1084.6</ele><time>2026-04-11T12:14:36.973Z</time></trkpt><trkpt lat="45.8418258" lon="11.7264206"><ele>1083.0</ele><time>2026-04-11T12:14:37.982Z</time></trkpt><trkpt lat="45.8418132" lon="11.7262757"><ele>1083.0</ele><time>2026-04-11T12:14:38.967Z</time></trkpt><trkpt lat="45.8418261" lon="11.7261449"><ele>1083.0</ele><time>2026-04-11T12:14:39.971Z</time></trkpt><trkpt lat="45.8418471" lon="11.7260478"><ele>1083.0</ele><time>2026-04-11T12:14:40.973Z</time></trkpt><trkpt lat="45.8419458" lon="11.725969"><ele>1083.0</ele><time>2026-04-11T12:14:42.974Z</time></trkpt><trkpt lat="45.8420229" lon="11.7259552"><ele>1083.0</ele><time>2026-04-11T12:14:43.977Z</time></trkpt><trkpt lat="45.8421254" lon="11.7259527"><ele>1083.0</ele><time>2026-04-11T12:14:44.986Z</time></trkpt><trkpt lat="45.8422466" lon="11.7259471"><ele>1083.0</ele><time>2026-04-11T12:14:45.969Z</time></trkpt><trkpt lat="45.8423624" lon="11.7259355"><ele>1083.0</ele><time>2026-04-11T12:14:46.977Z</time></trkpt><trkpt lat="45.8424814" lon="11.7259234"><ele>1083.0</ele><time>2026-04-11T12:14:47.977Z</time></trkpt><trkpt lat="45.8425993" lon="11.7259134"><ele>1085.6</ele><time>2026-04-11T12:14:48.975Z</time></trkpt><trkpt lat="45.8427106" lon="11.7259047"><ele>1088.1999999999998</ele><time>2026-04-11T12:14:49.972Z</time></trkpt><trkpt lat="45.8428188" lon="11.725894"><ele>1090.8</ele><time>2026-04-11T12:14:50.978Z</time></trkpt><trkpt lat="45.8429349" lon="11.725892"><ele>1093.3999999999999</ele><time>2026-04-11T12:14:51.976Z</time></trkpt><trkpt lat="45.8430475" lon="11.7258893"><ele>1096.0</ele><time>2026-04-11T12:14:52.971Z</time></trkpt><trkpt lat="45.8431542" lon="11.7258599"><ele>1096.0</ele><time>2026-04-11T12:14:53.968Z</time></trkpt><trkpt lat="45.8432497" lon="11.725823"><ele>1096.0</ele><time>2026-04-11T12:14:54.972Z</time></trkpt><trkpt lat="45.8433399" lon="11.7257889"><ele>1096.0</ele><time>2026-04-11T12:14:55.975Z</time></trkpt><trkpt lat="45.8434018" lon="11.7257476"><ele>1096.0</ele><time>2026-04-11T12:14:56.971Z</time></trkpt><trkpt lat="45.8434375" lon="11.7256698"><ele>1096.0</ele><time>2026-04-11T12:14:57.976Z</time></trkpt><trkpt lat="45.843416" lon="11.7255688"><ele>1096.0</ele><time>2026-04-11T12:14:58.965Z</time></trkpt><trkpt lat="45.8433999" lon="11.7254529"><ele>1096.0</ele><time>2026-04-11T12:14:59.967Z</time></trkpt><trkpt lat="45.8433792" lon="11.7253078"><ele>1096.0</ele><time>2026-04-11T12:15:00.987Z</time></trkpt><trkpt lat="45.8433419" lon="11.7251624"><ele>1096.0</ele><time>2026-04-11T12:15:01.972Z</time></trkpt><trkpt lat="45.8432975" lon="11.7250143"><ele>1096.0</ele><time>2026-04-11T12:15:02.981Z</time></trkpt><trkpt lat="45.8432311" lon="11.7248768"><ele>1096.0</ele><time>2026-04-11T12:15:03.972Z</time></trkpt><trkpt lat="45.8431601" lon="11.7247396"><ele>1095.2</ele><time>2026-04-11T12:15:04.969Z</time></trkpt><trkpt lat="45.8430954" lon="11.7246043"><ele>1094.3999999999999</ele><time>2026-04-11T12:15:05.979Z</time></trkpt><trkpt lat="45.8430326" lon="11.724468"><ele>1093.6</ele><time>2026-04-11T12:15:06.977Z</time></trkpt><trkpt lat="45.8429722" lon="11.7243466"><ele>1092.8</ele><time>2026-04-11T12:15:07.97Z</time></trkpt><trkpt lat="45.8429223" lon="11.7242508"><ele>1092.0</ele><time>2026-04-11T12:15:08.97Z</time></trkpt><trkpt lat="45.8428807" lon="11.7241531"><ele>1092.0</ele><time>2026-04-11T12:15:09.975Z</time></trkpt><trkpt lat="45.8428538" lon="11.7240548"><ele>1092.0</ele><time>2026-04-11T12:15:10.976Z</time></trkpt><trkpt lat="45.8428305" lon="11.723934"><ele>1092.0</ele><time>2026-04-11T12:15:11.967Z</time></trkpt><trkpt lat="45.8428464" lon="11.7237945"><ele>1092.0</ele><time>2026-04-11T12:15:12.976Z</time></trkpt><trkpt lat="45.8428843" lon="11.723635"><ele>1092.0</ele><time>2026-04-11T12:15:13.982Z</time></trkpt><trkpt lat="45.8429233" lon="11.7234737"><ele>1090.8333333333333</ele><time>2026-04-11T12:15:14.975Z</time></trkpt><trkpt lat="45.8429556" lon="11.7233386"><ele>1089.6666666666667</ele><time>2026-04-11T12:15:15.976Z</time></trkpt><trkpt lat="45.8429847" lon="11.7232297"><ele>1088.5</ele><time>2026-04-11T12:15:16.975Z</time></trkpt><trkpt lat="45.8430223" lon="11.7231423"><ele>1087.3333333333335</ele><time>2026-04-11T12:15:17.969Z</time></trkpt><trkpt lat="45.8430667" lon="11.7230779"><ele>1086.1666666666667</ele><time>2026-04-11T12:15:18.982Z</time></trkpt><trkpt lat="45.8431891" lon="11.7230327"><ele>1085.0</ele><time>2026-04-11T12:15:20.98Z</time></trkpt><trkpt lat="45.8432562" lon="11.7230296"><ele>1085.0</ele><time>2026-04-11T12:15:21.976Z</time></trkpt><trkpt lat="45.8433406" lon="11.7230594"><ele>1085.0</ele><time>2026-04-11T12:15:22.974Z</time></trkpt><trkpt lat="45.8434385" lon="11.7231017"><ele>1085.0</ele><time>2026-04-11T12:15:23.972Z</time></trkpt><trkpt lat="45.8435397" lon="11.7231671"><ele>1085.0</ele><time>2026-04-11T12:15:24.986Z</time></trkpt><trkpt lat="45.843643" lon="11.723243"><ele>1085.0</ele><time>2026-04-11T12:15:25.973Z</time></trkpt><trkpt lat="45.8437211" lon="11.7233248"><ele>1086.8</ele><time>2026-04-11T12:15:26.975Z</time></trkpt><trkpt lat="45.8437965" lon="11.7233869"><ele>1088.6</ele><time>2026-04-11T12:15:27.965Z</time></trkpt><trkpt lat="45.8438732" lon="11.723407"><ele>1090.4</ele><time>2026-04-11T12:15:28.977Z</time></trkpt><trkpt lat="45.8439434" lon="11.723356"><ele>1092.2</ele><time>2026-04-11T12:15:29.968Z</time></trkpt><trkpt lat="45.8440238" lon="11.7232753"><ele>1094.0</ele><time>2026-04-11T12:15:30.966Z</time></trkpt><trkpt lat="45.8441115" lon="11.723173"><ele>1094.0</ele><time>2026-04-11T12:15:31.975Z</time></trkpt><trkpt lat="45.844205" lon="11.7230753"><ele>1094.0</ele><time>2026-04-11T12:15:32.975Z</time></trkpt><trkpt lat="45.8442989" lon="11.7229952"><ele>1094.0</ele><time>2026-04-11T12:15:33.967Z</time></trkpt><trkpt lat="45.8443921" lon="11.7229334"><ele>1094.0</ele><time>2026-04-11T12:15:34.974Z</time></trkpt><trkpt lat="45.8444766" lon="11.7228789"><ele>1094.0</ele><time>2026-04-11T12:15:35.967Z</time></trkpt><trkpt lat="45.8445481" lon="11.7228497"><ele>1096.6000000000001</ele><time>2026-04-11T12:15:36.971Z</time></trkpt><trkpt lat="45.8446411" lon="11.7227826"><ele>1099.2</ele><time>2026-04-11T12:15:38.969Z</time></trkpt><trkpt lat="45.8446204" lon="11.7226484"><ele>1101.8000000000002</ele><time>2026-04-11T12:15:40.973Z</time></trkpt><trkpt lat="45.8445615" lon="11.7225625"><ele>1104.4</ele><time>2026-04-11T12:15:41.975Z</time></trkpt><trkpt lat="45.8444794" lon="11.7224561"><ele>1107.0</ele><time>2026-04-11T12:15:42.969Z</time></trkpt><trkpt lat="45.8443919" lon="11.7223351"><ele>1108.0</ele><time>2026-04-11T12:15:43.974Z</time></trkpt><trkpt lat="45.8443305" lon="11.7221961"><ele>1109.0</ele><time>2026-04-11T12:15:44.974Z</time></trkpt><trkpt lat="45.8442608" lon="11.7220546"><ele>1110.0</ele><time>2026-04-11T12:15:45.974Z</time></trkpt><trkpt lat="45.844198" lon="11.7219244"><ele>1111.0</ele><time>2026-04-11T12:15:46.977Z</time></trkpt><trkpt lat="45.8441336" lon="11.7217823"><ele>1105.25</ele><time>2026-04-11T12:15:47.98Z</time></trkpt><trkpt lat="45.8440711" lon="11.7216429"><ele>1099.5</ele><time>2026-04-11T12:15:48.971Z</time></trkpt><trkpt lat="45.8440146" lon="11.7215034"><ele>1093.75</ele><time>2026-04-11T12:15:49.971Z</time></trkpt><trkpt lat="45.8439486" lon="11.7213605"><ele>1088.0</ele><time>2026-04-11T12:15:50.97Z</time></trkpt><trkpt lat="45.843887" lon="11.7212148"><ele>1090.75</ele><time>2026-04-11T12:15:51.974Z</time></trkpt><trkpt lat="45.84383" lon="11.7210628"><ele>1093.5</ele><time>2026-04-11T12:15:52.972Z</time></trkpt><trkpt lat="45.8437672" lon="11.7209138"><ele>1096.25</ele><time>2026-04-11T12:15:53.982Z</time></trkpt><trkpt lat="45.8437064" lon="11.7207635"><ele>1099.0</ele><time>2026-04-11T12:15:54.983Z</time></trkpt><trkpt lat="45.8436504" lon="11.7206223"><ele>1099.0</ele><time>2026-04-11T12:15:55.974Z</time></trkpt><trkpt lat="45.8436025" lon="11.7204931"><ele>1099.0</ele><time>2026-04-11T12:15:56.972Z</time></trkpt><trkpt lat="45.8435631" lon="11.7203821"><ele>1099.0</ele><time>2026-04-11T12:15:57.981Z</time></trkpt><trkpt lat="45.8435409" lon="11.7202839"><ele>1099.0</ele><time>2026-04-11T12:15:58.978Z</time></trkpt><trkpt lat="45.843527" lon="11.7201912"><ele>1099.0</ele><time>2026-04-11T12:15:59.966Z</time></trkpt><trkpt lat="45.8435437" lon="11.7200955"><ele>1099.0</ele><time>2026-04-11T12:16:00.969Z</time></trkpt><trkpt lat="45.8435948" lon="11.7199827"><ele>1098.6666666666665</ele><time>2026-04-11T12:16:01.972Z</time></trkpt><trkpt lat="45.8436509" lon="11.7198562"><ele>1098.3333333333333</ele><time>2026-04-11T12:16:02.985Z</time></trkpt><trkpt lat="45.843685" lon="11.7197208"><ele>1098.0</ele><time>2026-04-11T12:16:03.976Z</time></trkpt><trkpt lat="45.8437105" lon="11.7196005"><ele>1097.6666666666667</ele><time>2026-04-11T12:16:04.978Z</time></trkpt><trkpt lat="45.8437396" lon="11.7195007"><ele>1097.3333333333335</ele><time>2026-04-11T12:16:05.984Z</time></trkpt><trkpt lat="45.8437756" lon="11.7194226"><ele>1097.0</ele><time>2026-04-11T12:16:06.973Z</time></trkpt><trkpt lat="45.8438388" lon="11.7193624"><ele>1097.0</ele><time>2026-04-11T12:16:07.98Z</time></trkpt><trkpt lat="45.8438951" lon="11.7193176"><ele>1097.0</ele><time>2026-04-11T12:16:09.018Z</time></trkpt><trkpt lat="45.8439581" lon="11.7193348"><ele>1097.0</ele><time>2026-04-11T12:16:09.978Z</time></trkpt><trkpt lat="45.844023" lon="11.7193889"><ele>1097.0</ele><time>2026-04-11T12:16:10.97Z</time></trkpt><trkpt lat="45.8441032" lon="11.7194636"><ele>1097.0</ele><time>2026-04-11T12:16:11.983Z</time></trkpt><trkpt lat="45.844194" lon="11.7195426"><ele>1097.0</ele><time>2026-04-11T12:16:12.973Z</time></trkpt><trkpt lat="45.8442955" lon="11.7196098"><ele>1096.8</ele><time>2026-04-11T12:16:13.97Z</time></trkpt><trkpt lat="45.8443941" lon="11.7196693"><ele>1096.6</ele><time>2026-04-11T12:16:14.974Z</time></trkpt><trkpt lat="45.8444896" lon="11.7197298"><ele>1096.3999999999999</ele><time>2026-04-11T12:16:15.974Z</time></trkpt><trkpt lat="45.8445875" lon="11.7198037"><ele>1096.2</ele><time>2026-04-11T12:16:16.977Z</time></trkpt><trkpt lat="45.8446691" lon="11.7198839"><ele>1096.0</ele><time>2026-04-11T12:16:17.969Z</time></trkpt><trkpt lat="45.8447411" lon="11.7199727"><ele>1096.0</ele><time>2026-04-11T12:16:18.973Z</time></trkpt><trkpt lat="45.8448113" lon="11.7200415"><ele>1096.0</ele><time>2026-04-11T12:16:19.983Z</time></trkpt><trkpt lat="45.8448822" lon="11.720083"><ele>1096.0</ele><time>2026-04-11T12:16:20.974Z</time></trkpt><trkpt lat="45.8449636" lon="11.7201075"><ele>1096.0</ele><time>2026-04-11T12:16:21.977Z</time></trkpt><trkpt lat="45.8450548" lon="11.7201082"><ele>1096.0</ele><time>2026-04-11T12:16:22.971Z</time></trkpt><trkpt lat="45.8451604" lon="11.7200898"><ele>1096.0</ele><time>2026-04-11T12:16:23.978Z</time></trkpt><trkpt lat="45.8452742" lon="11.7200377"><ele>1100.75</ele><time>2026-04-11T12:16:24.972Z</time></trkpt><trkpt lat="45.8453889" lon="11.7199412"><ele>1105.5</ele><time>2026-04-11T12:16:25.973Z</time></trkpt><trkpt lat="45.8455001" lon="11.7198559"><ele>1110.25</ele><time>2026-04-11T12:16:26.974Z</time></trkpt><trkpt lat="45.8456068" lon="11.719762"><ele>1115.0</ele><time>2026-04-11T12:16:27.98Z</time></trkpt><trkpt lat="45.8457112" lon="11.7196598"><ele>1115.0</ele><time>2026-04-11T12:16:28.983Z</time></trkpt><trkpt lat="45.8458095" lon="11.7195709"><ele>1115.0</ele><time>2026-04-11T12:16:29.971Z</time></trkpt><trkpt lat="45.8458873" lon="11.7194846"><ele>1115.0</ele><time>2026-04-11T12:16:30.983Z</time></trkpt><trkpt lat="45.84596" lon="11.7194027"><ele>1115.0</ele><time>2026-04-11T12:16:31.972Z</time></trkpt><trkpt lat="45.8460051" lon="11.7192777"><ele>1115.0</ele><time>2026-04-11T12:16:32.971Z</time></trkpt><trkpt lat="45.8460527" lon="11.7191501"><ele>1116.5</ele><time>2026-04-11T12:16:33.975Z</time></trkpt><trkpt lat="45.8460772" lon="11.7189925"><ele>1118.0</ele><time>2026-04-11T12:16:34.971Z</time></trkpt><trkpt lat="45.8461024" lon="11.7188307"><ele>1119.5</ele><time>2026-04-11T12:16:35.972Z</time></trkpt><trkpt lat="45.846113" lon="11.7186595"><ele>1121.0</ele><time>2026-04-11T12:16:36.97Z</time></trkpt><trkpt lat="45.8461122" lon="11.7184943"><ele>1117.3999999999999</ele><time>2026-04-11T12:16:37.982Z</time></trkpt><trkpt lat="45.8461148" lon="11.718331"><ele>1113.8</ele><time>2026-04-11T12:16:38.974Z</time></trkpt><trkpt lat="45.8461193" lon="11.7181747"><ele>1110.1999999999998</ele><time>2026-04-11T12:16:39.981Z</time></trkpt><trkpt lat="45.846123" lon="11.7180307"><ele>1106.6</ele><time>2026-04-11T12:16:40.966Z</time></trkpt><trkpt lat="45.84613" lon="11.717911"><ele>1103.0</ele><time>2026-04-11T12:16:41.967Z</time></trkpt><trkpt lat="45.846141" lon="11.7178093"><ele>1099.3333333333335</ele><time>2026-04-11T12:16:42.972Z</time></trkpt><trkpt lat="45.8461633" lon="11.7177243"><ele>1095.6666666666667</ele><time>2026-04-11T12:16:43.977Z</time></trkpt><trkpt lat="45.8462537" lon="11.7176123"><ele>1092.0</ele><time>2026-04-11T12:16:45.977Z</time></trkpt><trkpt lat="45.8463111" lon="11.717571"><ele>1088.3333333333333</ele><time>2026-04-11T12:16:46.979Z</time></trkpt><trkpt lat="45.8463784" lon="11.7175253"><ele>1084.6666666666665</ele><time>2026-04-11T12:16:47.983Z</time></trkpt><trkpt lat="45.8464664" lon="11.7175175"><ele>1081.0</ele><time>2026-04-11T12:16:48.987Z</time></trkpt><trkpt lat="45.8465401" lon="11.7175334"><ele>1081.0</ele><time>2026-04-11T12:16:49.97Z</time></trkpt><trkpt lat="45.8466128" lon="11.7175698"><ele>1081.0</ele><time>2026-04-11T12:16:50.974Z</time></trkpt><trkpt lat="45.8466866" lon="11.7176244"><ele>1081.0</ele><time>2026-04-11T12:16:51.978Z</time></trkpt><trkpt lat="45.8467622" lon="11.717695"><ele>1081.0</ele><time>2026-04-11T12:16:52.981Z</time></trkpt><trkpt lat="45.8468452" lon="11.7177835"><ele>1081.0</ele><time>2026-04-11T12:16:53.974Z</time></trkpt><trkpt lat="45.8469255" lon="11.7178572"><ele>1081.0</ele><time>2026-04-11T12:16:54.982Z</time></trkpt><trkpt lat="45.8470007" lon="11.7179266"><ele>1087.6</ele><time>2026-04-11T12:16:55.986Z</time></trkpt><trkpt lat="45.847085" lon="11.7179551"><ele>1094.1999999999998</ele><time>2026-04-11T12:16:56.981Z</time></trkpt><trkpt lat="45.8471651" lon="11.717979"><ele>1100.8000000000002</ele><time>2026-04-11T12:16:57.978Z</time></trkpt><trkpt lat="45.8472511" lon="11.7179561"><ele>1107.4</ele><time>2026-04-11T12:16:58.985Z</time></trkpt><trkpt lat="45.8473425" lon="11.7179033"><ele>1114.0</ele><time>2026-04-11T12:16:59.977Z</time></trkpt><trkpt lat="45.8474281" lon="11.717839"><ele>1114.0</ele><time>2026-04-11T12:17:00.972Z</time></trkpt><trkpt lat="45.8474982" lon="11.7177443"><ele>1114.0</ele><time>2026-04-11T12:17:01.982Z</time></trkpt><trkpt lat="45.8475629" lon="11.7176179"><ele>1114.0</ele><time>2026-04-11T12:17:02.985Z</time></trkpt><trkpt lat="45.8476173" lon="11.7174583"><ele>1114.0</ele><time>2026-04-11T12:17:03.976Z</time></trkpt><trkpt lat="45.8476686" lon="11.7173027"><ele>1114.0</ele><time>2026-04-11T12:17:04.974Z</time></trkpt><trkpt lat="45.8477131" lon="11.7171503"><ele>1114.8333333333333</ele><time>2026-04-11T12:17:05.98Z</time></trkpt><trkpt lat="45.8477532" lon="11.7170219"><ele>1115.6666666666665</ele><time>2026-04-11T12:17:06.981Z</time></trkpt><trkpt lat="45.8477863" lon="11.7169114"><ele>1116.5</ele><time>2026-04-11T12:17:07.98Z</time></trkpt><trkpt lat="45.8478376" lon="11.7168163"><ele>1117.3333333333333</ele><time>2026-04-11T12:17:08.979Z</time></trkpt><trkpt lat="45.847907" lon="11.7167405"><ele>1118.1666666666667</ele><time>2026-04-11T12:17:09.981Z</time></trkpt><trkpt lat="45.8479873" lon="11.716685"><ele>1119.0</ele><time>2026-04-11T12:17:10.97Z</time></trkpt><trkpt lat="45.8480704" lon="11.716631"><ele>1116.8</ele><time>2026-04-11T12:17:11.981Z</time></trkpt><trkpt lat="45.84817" lon="11.7165958"><ele>1114.6000000000001</ele><time>2026-04-11T12:17:12.981Z</time></trkpt><trkpt lat="45.848266" lon="11.7165636"><ele>1112.4</ele><time>2026-04-11T12:17:13.974Z</time></trkpt><trkpt lat="45.8483695" lon="11.7165449"><ele>1110.2</ele><time>2026-04-11T12:17:14.979Z</time></trkpt><trkpt lat="45.8484734" lon="11.7165422"><ele>1108.0</ele><time>2026-04-11T12:17:15.974Z</time></trkpt><trkpt lat="45.8485764" lon="11.7165529"><ele>1108.0</ele><time>2026-04-11T12:17:16.973Z</time></trkpt><trkpt lat="45.848679" lon="11.7165775"><ele>1108.0</ele><time>2026-04-11T12:17:17.975Z</time></trkpt><trkpt lat="45.8487806" lon="11.7166173"><ele>1108.0</ele><time>2026-04-11T12:17:18.979Z</time></trkpt><trkpt lat="45.8488715" lon="11.7166576"><ele>1108.0</ele><time>2026-04-11T12:17:19.976Z</time></trkpt><trkpt lat="45.8489341" lon="11.7166787"><ele>1108.0</ele><time>2026-04-11T12:17:20.973Z</time></trkpt><trkpt lat="45.8490508" lon="11.7166496"><ele>1108.0</ele><time>2026-04-11T12:17:22.974Z</time></trkpt><trkpt lat="45.8491498" lon="11.7165579"><ele>1108.0</ele><time>2026-04-11T12:17:24.977Z</time></trkpt><trkpt lat="45.849219" lon="11.7164281"><ele>1108.0</ele><time>2026-04-11T12:17:26.997Z</time></trkpt><trkpt lat="45.8492851" lon="11.7162992"><ele>1108.0</ele><time>2026-04-11T12:17:28.975Z</time></trkpt><trkpt lat="45.849358" lon="11.7161636"><ele>1108.0</ele><time>2026-04-11T12:17:30.981Z</time></trkpt><trkpt lat="45.8494261" lon="11.7160311"><ele>1108.0</ele><time>2026-04-11T12:17:32.974Z</time></trkpt><trkpt lat="45.8495133" lon="11.7158974"><ele>1108.0</ele><time>2026-04-11T12:17:34.97Z</time></trkpt><trkpt lat="45.8495673" lon="11.7158417"><ele>1108.0</ele><time>2026-04-11T12:17:35.976Z</time></trkpt><trkpt lat="45.8496298" lon="11.7157945"><ele>1108.0</ele><time>2026-04-11T12:17:36.972Z</time></trkpt><trkpt lat="45.8497042" lon="11.7157563"><ele>1108.0</ele><time>2026-04-11T12:17:37.971Z</time></trkpt><trkpt lat="45.8497913" lon="11.7157269"><ele>1108.0</ele><time>2026-04-11T12:17:38.983Z</time></trkpt><trkpt lat="45.8498852" lon="11.7157083"><ele>1108.0</ele><time>2026-04-11T12:17:39.986Z</time></trkpt><trkpt lat="45.8499768" lon="11.715695"><ele>1108.0</ele><time>2026-04-11T12:17:40.985Z</time></trkpt><trkpt lat="45.8500587" lon="11.7156823"><ele>1108.0</ele><time>2026-04-11T12:17:41.971Z</time></trkpt><trkpt lat="45.8501262" lon="11.7156602"><ele>1108.0</ele><time>2026-04-11T12:17:42.974Z</time></trkpt><trkpt lat="45.8501844" lon="11.7156128"><ele>1109.7142857142858</ele><time>2026-04-11T12:17:43.979Z</time></trkpt><trkpt lat="45.8502246" lon="11.7155424"><ele>1111.4285714285713</ele><time>2026-04-11T12:17:44.969Z</time></trkpt><trkpt lat="45.8502567" lon="11.7154587"><ele>1113.142857142857</ele><time>2026-04-11T12:17:45.971Z</time></trkpt><trkpt lat="45.8502624" lon="11.7153563"><ele>1114.857142857143</ele><time>2026-04-11T12:17:46.972Z</time></trkpt><trkpt lat="45.8502689" lon="11.7152541"><ele>1116.5714285714284</ele><time>2026-04-11T12:17:47.979Z</time></trkpt><trkpt lat="45.8502948" lon="11.7151557"><ele>1118.2857142857142</ele><time>2026-04-11T12:17:48.983Z</time></trkpt><trkpt lat="45.8503361" lon="11.7150751"><ele>1120.0</ele><time>2026-04-11T12:17:49.99Z</time></trkpt><trkpt lat="45.8503996" lon="11.7150177"><ele>1120.0</ele><time>2026-04-11T12:17:50.979Z</time></trkpt><trkpt lat="45.8504614" lon="11.7149604"><ele>1120.0</ele><time>2026-04-11T12:17:51.974Z</time></trkpt><trkpt lat="45.8505211" lon="11.7149156"><ele>1120.0</ele><time>2026-04-11T12:17:52.978Z</time></trkpt><trkpt lat="45.8505549" lon="11.7148374"><ele>1120.0</ele><time>2026-04-11T12:17:53.985Z</time></trkpt><trkpt lat="45.8505682" lon="11.7147377"><ele>1120.0</ele><time>2026-04-11T12:17:54.975Z</time></trkpt><trkpt lat="45.8505621" lon="11.7146351"><ele>1120.0</ele><time>2026-04-11T12:17:55.972Z</time></trkpt><trkpt lat="45.8505458" lon="11.7145247"><ele>1120.0</ele><time>2026-04-11T12:17:56.98Z</time></trkpt><trkpt lat="45.8505241" lon="11.7144166"><ele>1120.857142857143</ele><time>2026-04-11T12:17:58.007Z</time></trkpt><trkpt lat="45.8505037" lon="11.7143243"><ele>1121.7142857142858</ele><time>2026-04-11T12:17:58.974Z</time></trkpt><trkpt lat="45.8504733" lon="11.7142397"><ele>1122.5714285714284</ele><time>2026-04-11T12:17:59.977Z</time></trkpt><trkpt lat="45.8504427" lon="11.7141578"><ele>1123.4285714285716</ele><time>2026-04-11T12:18:00.975Z</time></trkpt><trkpt lat="45.8503931" lon="11.7140939"><ele>1124.2857142857142</ele><time>2026-04-11T12:18:01.981Z</time></trkpt><trkpt lat="45.8503375" lon="11.714034"><ele>1125.142857142857</ele><time>2026-04-11T12:18:02.979Z</time></trkpt><trkpt lat="45.8502783" lon="11.7139737"><ele>1126.0</ele><time>2026-04-11T12:18:03.973Z</time></trkpt><trkpt lat="45.8502134" lon="11.7139152"><ele>1126.0</ele><time>2026-04-11T12:18:04.974Z</time></trkpt><trkpt lat="45.8501389" lon="11.7138584"><ele>1126.0</ele><time>2026-04-11T12:18:05.984Z</time></trkpt><trkpt lat="45.8500554" lon="11.7138031"><ele>1126.0</ele><time>2026-04-11T12:18:06.982Z</time></trkpt><trkpt lat="45.8499675" lon="11.7137455"><ele>1126.0</ele><time>2026-04-11T12:18:07.979Z</time></trkpt><trkpt lat="45.8498802" lon="11.713681"><ele>1126.0</ele><time>2026-04-11T12:18:08.977Z</time></trkpt><trkpt lat="45.8497911" lon="11.7136167"><ele>1125.3999999999999</ele><time>2026-04-11T12:18:09.985Z</time></trkpt><trkpt lat="45.8497067" lon="11.713538"><ele>1124.8</ele><time>2026-04-11T12:18:10.978Z</time></trkpt><trkpt lat="45.8496272" lon="11.7134668"><ele>1124.1999999999998</ele><time>2026-04-11T12:18:11.994Z</time></trkpt><trkpt lat="45.8495607" lon="11.7133829"><ele>1123.6</ele><time>2026-04-11T12:18:12.981Z</time></trkpt><trkpt lat="45.8494973" lon="11.7132928"><ele>1123.0</ele><time>2026-04-11T12:18:13.972Z</time></trkpt><trkpt lat="45.8494434" lon="11.7132056"><ele>1123.0</ele><time>2026-04-11T12:18:14.984Z</time></trkpt><trkpt lat="45.8493959" lon="11.7131104"><ele>1123.0</ele><time>2026-04-11T12:18:15.991Z</time></trkpt><trkpt lat="45.849361" lon="11.7130023"><ele>1123.0</ele><time>2026-04-11T12:18:16.984Z</time></trkpt><trkpt lat="45.8493435" lon="11.7128777"><ele>1123.0</ele><time>2026-04-11T12:18:17.995Z</time></trkpt><trkpt lat="45.8493285" lon="11.7127525"><ele>1123.0</ele><time>2026-04-11T12:18:18.977Z</time></trkpt><trkpt lat="45.8493474" lon="11.7126079"><ele>1123.0</ele><time>2026-04-11T12:18:19.978Z</time></trkpt><trkpt lat="45.849369" lon="11.7124677"><ele>1126.4</ele><time>2026-04-11T12:18:20.976Z</time></trkpt><trkpt lat="45.8493904" lon="11.7123101"><ele>1129.8</ele><time>2026-04-11T12:18:21.982Z</time></trkpt><trkpt lat="45.8493987" lon="11.7121585"><ele>1133.2</ele><time>2026-04-11T12:18:22.976Z</time></trkpt><trkpt lat="45.849398" lon="11.7120205"><ele>1136.6</ele><time>2026-04-11T12:18:23.983Z</time></trkpt><trkpt lat="45.8493767" lon="11.7118913"><ele>1140.0</ele><time>2026-04-11T12:18:24.981Z</time></trkpt><trkpt lat="45.8493223" lon="11.7117814"><ele>1136.8</ele><time>2026-04-11T12:18:25.973Z</time></trkpt><trkpt lat="45.8492362" lon="11.7116754"><ele>1133.6</ele><time>2026-04-11T12:18:26.977Z</time></trkpt><trkpt lat="45.8491342" lon="11.7115767"><ele>1130.4</ele><time>2026-04-11T12:18:27.98Z</time></trkpt><trkpt lat="45.8490436" lon="11.7114905"><ele>1127.2</ele><time>2026-04-11T12:18:28.974Z</time></trkpt><trkpt lat="45.8489634" lon="11.7114147"><ele>1124.0</ele><time>2026-04-11T12:18:29.975Z</time></trkpt><trkpt lat="45.8489119" lon="11.7113395"><ele>1124.0</ele><time>2026-04-11T12:18:30.976Z</time></trkpt><trkpt lat="45.8488826" lon="11.711209"><ele>1124.0</ele><time>2026-04-11T12:18:32.98Z</time></trkpt><trkpt lat="45.8489103" lon="11.7111135"><ele>1124.0</ele><time>2026-04-11T12:18:35.984Z</time></trkpt><trkpt lat="45.8489783" lon="11.7110592"><ele>1124.0</ele><time>2026-04-11T12:22:17.98Z</time></trkpt><trkpt lat="45.8490607" lon="11.7109624"><ele>1124.0</ele><time>2026-04-11T12:22:19.976Z</time></trkpt><trkpt lat="45.8491078" lon="11.7108905"><ele>1124.0</ele><time>2026-04-11T12:22:20.99Z</time></trkpt><trkpt lat="45.8491591" lon="11.7108085"><ele>1124.0</ele><time>2026-04-11T12:22:21.975Z</time></trkpt><trkpt lat="45.8492124" lon="11.7107203"><ele>1124.0</ele><time>2026-04-11T12:22:22.984Z</time></trkpt><trkpt lat="45.8492678" lon="11.710637"><ele>1124.0</ele><time>2026-04-11T12:22:23.979Z</time></trkpt><trkpt lat="45.8493354" lon="11.7105576"><ele>1124.0</ele><time>2026-04-11T12:22:24.977Z</time></trkpt><trkpt lat="45.8494226" lon="11.7104961"><ele>1124.0</ele><time>2026-04-11T12:22:25.973Z</time></trkpt><trkpt lat="45.8495143" lon="11.710448"><ele>1124.0</ele><time>2026-04-11T12:22:26.984Z</time></trkpt><trkpt lat="45.8495985" lon="11.7104076"><ele>1127.8333333333335</ele><time>2026-04-11T12:22:27.981Z</time></trkpt><trkpt lat="45.8496765" lon="11.7103894"><ele>1131.6666666666667</ele><time>2026-04-11T12:22:28.982Z</time></trkpt><trkpt lat="45.8497493" lon="11.7103732"><ele>1135.5</ele><time>2026-04-11T12:22:29.984Z</time></trkpt><trkpt lat="45.8498196" lon="11.7103795"><ele>1139.3333333333333</ele><time>2026-04-11T12:22:30.998Z</time></trkpt><trkpt lat="45.8498959" lon="11.7104069"><ele>1143.1666666666665</ele><time>2026-04-11T12:22:31.98Z</time></trkpt><trkpt lat="45.8499858" lon="11.7104328"><ele>1147.0</ele><time>2026-04-11T12:22:32.969Z</time></trkpt><trkpt lat="45.8500715" lon="11.7104501"><ele>1146.8</ele><time>2026-04-11T12:22:33.977Z</time></trkpt><trkpt lat="45.8501554" lon="11.7104292"><ele>1146.6</ele><time>2026-04-11T12:22:34.965Z</time></trkpt><trkpt lat="45.8502435" lon="11.7103652"><ele>1146.3999999999999</ele><time>2026-04-11T12:22:35.973Z</time></trkpt><trkpt lat="45.8503331" lon="11.7102732"><ele>1146.2</ele><time>2026-04-11T12:22:36.971Z</time></trkpt><trkpt lat="45.8504262" lon="11.7101767"><ele>1146.0</ele><time>2026-04-11T12:22:37.975Z</time></trkpt><trkpt lat="45.8505152" lon="11.7100798"><ele>1146.0</ele><time>2026-04-11T12:22:38.965Z</time></trkpt><trkpt lat="45.8505873" lon="11.7099554"><ele>1146.0</ele><time>2026-04-11T12:22:39.976Z</time></trkpt><trkpt lat="45.8506522" lon="11.7098179"><ele>1146.0</ele><time>2026-04-11T12:22:40.987Z</time></trkpt><trkpt lat="45.8507118" lon="11.7096898"><ele>1146.0</ele><time>2026-04-11T12:22:41.975Z</time></trkpt><trkpt lat="45.8507588" lon="11.7095716"><ele>1146.0</ele><time>2026-04-11T12:22:42.987Z</time></trkpt><trkpt lat="45.8508039" lon="11.7094608"><ele>1145.6666666666667</ele><time>2026-04-11T12:22:43.977Z</time></trkpt><trkpt lat="45.8508577" lon="11.7093717"><ele>1145.3333333333333</ele><time>2026-04-11T12:22:44.985Z</time></trkpt><trkpt lat="45.8509345" lon="11.7093098"><ele>1145.0</ele><time>2026-04-11T12:22:45.982Z</time></trkpt><trkpt lat="45.8510221" lon="11.7092704"><ele>1144.6666666666665</ele><time>2026-04-11T12:22:46.974Z</time></trkpt><trkpt lat="45.8511085" lon="11.7092543"><ele>1144.3333333333333</ele><time>2026-04-11T12:22:47.973Z</time></trkpt><trkpt lat="45.8511875" lon="11.7092407"><ele>1144.0</ele><time>2026-04-11T12:22:48.972Z</time></trkpt><trkpt lat="45.851256" lon="11.7092629"><ele>1144.0</ele><time>2026-04-11T12:22:49.972Z</time></trkpt><trkpt lat="45.8513208" lon="11.7093206"><ele>1144.0</ele><time>2026-04-11T12:22:50.974Z</time></trkpt><trkpt lat="45.8513704" lon="11.7093812"><ele>1144.0</ele><time>2026-04-11T12:22:51.978Z</time></trkpt><trkpt lat="45.8514691" lon="11.7094153"><ele>1144.0</ele><time>2026-04-11T12:22:53.964Z</time></trkpt><trkpt lat="45.851551" lon="11.7093633"><ele>1144.0</ele><time>2026-04-11T12:22:55.986Z</time></trkpt><trkpt lat="45.8516081" lon="11.7092389"><ele>1144.0</ele><time>2026-04-11T12:22:57.982Z</time></trkpt><trkpt lat="45.8516759" lon="11.7090845"><ele>1144.0</ele><time>2026-04-11T12:22:59.97Z</time></trkpt><trkpt lat="45.8517528" lon="11.7089433"><ele>1144.0</ele><time>2026-04-11T12:23:01.969Z</time></trkpt><trkpt lat="45.8498959" lon="11.7104069"><ele>1144.6000000000001</ele><time>2026-04-11T12:22:31.98Z</time></trkpt><trkpt lat="45.8499858" lon="11.7104328"><ele>1145.2</ele><time>2026-04-11T12:22:32.969Z</time></trkpt><trkpt lat="45.8500715" lon="11.7104501"><ele>1145.8000000000002</ele><time>2026-04-11T12:22:33.977Z</time></trkpt><trkpt lat="45.8501554" lon="11.7104292"><ele>1146.4</ele><time>2026-04-11T12:22:34.965Z</time></trkpt><trkpt lat="45.8502435" lon="11.7103652"><ele>1147.0</ele><time>2026-04-11T12:22:35.973Z</time></trkpt><trkpt lat="45.8503331" lon="11.7102732"><ele>1146.75</ele><time>2026-04-11T12:22:36.971Z</time></trkpt><trkpt lat="45.8504262" lon="11.7101767"><ele>1146.5</ele><time>2026-04-11T12:22:37.975Z</time></trkpt><trkpt lat="45.8505152" lon="11.7100798"><ele>1146.25</ele><time>2026-04-11T12:22:38.965Z</time></trkpt><trkpt lat="45.8505873" lon="11.7099554"><ele>1146.0</ele><time>2026-04-11T12:22:39.976Z</time></trkpt><trkpt lat="45.8506522" lon="11.7098179"><ele>1146.0</ele><time>2026-04-11T12:22:40.987Z</time></trkpt><trkpt lat="45.8507118" lon="11.7096898"><ele>1146.0</ele><time>2026-04-11T12:22:41.975Z</time></trkpt><trkpt lat="45.8507588" lon="11.7095716"><ele>1146.0</ele><time>2026-04-11T12:22:42.987Z</time></trkpt><trkpt lat="45.8508039" lon="11.7094608"><ele>1146.0</ele><time>2026-04-11T12:22:43.977Z</time></trkpt><trkpt lat="45.8508577" lon="11.7093717"><ele>1146.0</ele><time>2026-04-11T12:22:44.985Z</time></trkpt><trkpt lat="45.8509345" lon="11.7093098"><ele>1145.6666666666667</ele><time>2026-04-11T12:22:45.982Z</time></trkpt><trkpt lat="45.8510221" lon="11.7092704"><ele>1145.3333333333333</ele><time>2026-04-11T12:22:46.974Z</time></trkpt><trkpt lat="45.8511085" lon="11.7092543"><ele>1145.0</ele><time>2026-04-11T12:22:47.973Z</time></trkpt><trkpt lat="45.8511875" lon="11.7092407"><ele>1144.6666666666665</ele><time>2026-04-11T12:22:48.972Z</time></trkpt><trkpt lat="45.851256" lon="11.7092629"><ele>1144.3333333333333</ele><time>2026-04-11T12:22:49.972Z</time></trkpt><trkpt lat="45.8513208" lon="11.7093206"><ele>1144.0</ele><time>2026-04-11T12:22:50.974Z</time></trkpt><trkpt lat="45.8513704" lon="11.7093812"><ele>1144.0</ele><time>2026-04-11T12:22:51.978Z</time></trkpt><trkpt lat="45.8514691" lon="11.7094153"><ele>1144.0</ele><time>2026-04-11T12:22:53.964Z</time></trkpt><trkpt lat="45.851551" lon="11.7093633"><ele>1144.0</ele><time>2026-04-11T12:22:55.986Z</time></trkpt><trkpt lat="45.8516081" lon="11.7092389"><ele>1144.0</ele><time>2026-04-11T12:22:57.982Z</time></trkpt><trkpt lat="45.8516759" lon="11.7090845"><ele>1144.0</ele><time>2026-04-11T12:22:59.97Z</time></trkpt><trkpt lat="45.8517528" lon="11.7089433"><ele>1149.8</ele><time>2026-04-11T12:23:01.969Z</time></trkpt><trkpt lat="45.8518226" lon="11.7088053"><ele>1155.6000000000001</ele><time>2026-04-11T12:23:03.971Z</time></trkpt><trkpt lat="45.8518804" lon="11.7086403"><ele>1161.4</ele><time>2026-04-11T12:23:05.98Z</time></trkpt><trkpt lat="45.8518968" lon="11.7085336"><ele>1167.2</ele><time>2026-04-11T12:23:06.974Z</time></trkpt><trkpt lat="45.8519109" lon="11.708416"><ele>1173.0</ele><time>2026-04-11T12:23:07.969Z</time></trkpt><trkpt lat="45.851907" lon="11.7082689"><ele>1173.0</ele><time>2026-04-11T12:23:08.977Z</time></trkpt><trkpt lat="45.8519077" lon="11.7081165"><ele>1173.0</ele><time>2026-04-11T12:23:09.977Z</time></trkpt><trkpt lat="45.8519112" lon="11.7079596"><ele>1173.0</ele><time>2026-04-11T12:23:10.972Z</time></trkpt><trkpt lat="45.8519062" lon="11.7077968"><ele>1173.0</ele><time>2026-04-11T12:23:11.975Z</time></trkpt><trkpt lat="45.8518955" lon="11.7076341"><ele>1173.0</ele><time>2026-04-11T12:23:12.974Z</time></trkpt><trkpt lat="45.8518854" lon="11.7074763"><ele>1171.0</ele><time>2026-04-11T12:23:13.991Z</time></trkpt><trkpt lat="45.8518941" lon="11.7073045"><ele>1169.0</ele><time>2026-04-11T12:23:14.986Z</time></trkpt><trkpt lat="45.8519031" lon="11.7071408"><ele>1167.0</ele><time>2026-04-11T12:23:15.971Z</time></trkpt><trkpt lat="45.8519252" lon="11.7069878"><ele>1165.0</ele><time>2026-04-11T12:23:16.979Z</time></trkpt><trkpt lat="45.8519764" lon="11.7068502"><ele>1160.8</ele><time>2026-04-11T12:23:17.984Z</time></trkpt><trkpt lat="45.8520422" lon="11.7067194"><ele>1156.6</ele><time>2026-04-11T12:23:18.989Z</time></trkpt><trkpt lat="45.8521126" lon="11.7065948"><ele>1152.4</ele><time>2026-04-11T12:23:19.985Z</time></trkpt><trkpt lat="45.8521776" lon="11.7064847"><ele>1148.2</ele><time>2026-04-11T12:23:20.98Z</time></trkpt><trkpt lat="45.8522429" lon="11.7064052"><ele>1144.0</ele><time>2026-04-11T12:23:21.977Z</time></trkpt><trkpt lat="45.8523093" lon="11.7063494"><ele>1144.0</ele><time>2026-04-11T12:23:22.978Z</time></trkpt><trkpt lat="45.8523781" lon="11.7063246"><ele>1144.0</ele><time>2026-04-11T12:23:23.971Z</time></trkpt><trkpt lat="45.8524546" lon="11.7063069"><ele>1144.0</ele><time>2026-04-11T12:23:24.97Z</time></trkpt><trkpt lat="45.8525392" lon="11.7063288"><ele>1144.0</ele><time>2026-04-11T12:23:25.98Z</time></trkpt><trkpt lat="45.8526376" lon="11.7063705"><ele>1144.0</ele><time>2026-04-11T12:23:26.97Z</time></trkpt><trkpt lat="45.8527318" lon="11.7064128"><ele>1144.0</ele><time>2026-04-11T12:23:27.974Z</time></trkpt><trkpt lat="45.8528338" lon="11.7064564"><ele>1142.4</ele><time>2026-04-11T12:23:28.978Z</time></trkpt><trkpt lat="45.8529386" lon="11.7065213"><ele>1140.8000000000002</ele><time>2026-04-11T12:23:29.978Z</time></trkpt><trkpt lat="45.8530248" lon="11.7065771"><ele>1139.1999999999998</ele><time>2026-04-11T12:23:30.982Z</time></trkpt><trkpt lat="45.8531016" lon="11.7066421"><ele>1137.6</ele><time>2026-04-11T12:23:31.982Z</time></trkpt><trkpt lat="45.8531735" lon="11.706705"><ele>1136.0</ele><time>2026-04-11T12:23:32.98Z</time></trkpt><trkpt lat="45.8532432" lon="11.7067808"><ele>1136.0</ele><time>2026-04-11T12:23:33.972Z</time></trkpt><trkpt lat="45.8533146" lon="11.7068715"><ele>1136.0</ele><time>2026-04-11T12:23:34.977Z</time></trkpt><trkpt lat="45.8533965" lon="11.706925"><ele>1136.0</ele><time>2026-04-11T12:23:35.972Z</time></trkpt><trkpt lat="45.8534744" lon="11.7069665"><ele>1136.0</ele><time>2026-04-11T12:23:36.977Z</time></trkpt><trkpt lat="45.8535616" lon="11.7069996"><ele>1136.0</ele><time>2026-04-11T12:23:37.981Z</time></trkpt><trkpt lat="45.8536353" lon="11.7070063"><ele>1136.0</ele><time>2026-04-11T12:23:38.971Z</time></trkpt><trkpt lat="45.8537132" lon="11.707"><ele>1138.3999999999999</ele><time>2026-04-11T12:23:39.972Z</time></trkpt><trkpt lat="45.8537711" lon="11.7069184"><ele>1140.8</ele><time>2026-04-11T12:23:40.981Z</time></trkpt><trkpt lat="45.8538265" lon="11.7068123"><ele>1143.1999999999998</ele><time>2026-04-11T12:23:41.969Z</time></trkpt><trkpt lat="45.8538721" lon="11.706715"><ele>1145.6</ele><time>2026-04-11T12:23:42.97Z</time></trkpt><trkpt lat="45.8539353" lon="11.7066135"><ele>1148.0</ele><time>2026-04-11T12:23:43.987Z</time></trkpt><trkpt lat="45.8540364" lon="11.7065611"><ele>1148.0</ele><time>2026-04-11T12:23:44.978Z</time></trkpt><trkpt lat="45.8541399" lon="11.7065011"><ele>1148.0</ele><time>2026-04-11T12:23:45.974Z</time></trkpt><trkpt lat="45.8542397" lon="11.7064277"><ele>1148.0</ele><time>2026-04-11T12:23:46.981Z</time></trkpt><trkpt lat="45.854339" lon="11.7063491"><ele>1148.0</ele><time>2026-04-11T12:23:47.975Z</time></trkpt><trkpt lat="45.8544297" lon="11.7062784"><ele>1148.0</ele><time>2026-04-11T12:23:48.977Z</time></trkpt><trkpt lat="45.8545147" lon="11.7062157"><ele>1151.2</ele><time>2026-04-11T12:23:49.981Z</time></trkpt><trkpt lat="45.8545932" lon="11.7061563"><ele>1154.4</ele><time>2026-04-11T12:23:50.971Z</time></trkpt><trkpt lat="45.8546509" lon="11.7060484"><ele>1157.6000000000001</ele><time>2026-04-11T12:23:51.972Z</time></trkpt><trkpt lat="45.8547076" lon="11.7059318"><ele>1160.8</ele><time>2026-04-11T12:23:52.964Z</time></trkpt><trkpt lat="45.854729" lon="11.7057801"><ele>1164.0</ele><time>2026-04-11T12:23:53.972Z</time></trkpt><trkpt lat="45.8547427" lon="11.7056264"><ele>1164.0</ele><time>2026-04-11T12:23:54.973Z</time></trkpt><trkpt lat="45.8547375" lon="11.7054599"><ele>1164.0</ele><time>2026-04-11T12:23:55.978Z</time></trkpt><trkpt lat="45.8547342" lon="11.7052989"><ele>1164.0</ele><time>2026-04-11T12:23:56.969Z</time></trkpt><trkpt lat="45.8547184" lon="11.7051289"><ele>1164.0</ele><time>2026-04-11T12:23:57.966Z</time></trkpt><trkpt lat="45.8547024" lon="11.7049663"><ele>1162.3333333333333</ele><time>2026-04-11T12:23:58.971Z</time></trkpt><trkpt lat="45.8546948" lon="11.704828"><ele>1160.6666666666667</ele><time>2026-04-11T12:23:59.97Z</time></trkpt><trkpt lat="45.8546923" lon="11.7047019"><ele>1159.0</ele><time>2026-04-11T12:24:00.964Z</time></trkpt><trkpt lat="45.8547023" lon="11.7045895"><ele>1157.3333333333335</ele><time>2026-04-11T12:24:01.975Z</time></trkpt><trkpt lat="45.8547258" lon="11.7044816"><ele>1155.6666666666667</ele><time>2026-04-11T12:24:02.976Z</time></trkpt><trkpt lat="45.8547535" lon="11.7043942"><ele>1154.0</ele><time>2026-04-11T12:24:03.969Z</time></trkpt><trkpt lat="45.8548294" lon="11.7042653"><ele>1154.0</ele><time>2026-04-11T12:24:05.974Z</time></trkpt><trkpt lat="45.854933" lon="11.7042832"><ele>1154.0</ele><time>2026-04-11T12:24:07.975Z</time></trkpt><trkpt lat="45.8550164" lon="11.7044263"><ele>1154.0</ele><time>2026-04-11T12:24:09.972Z</time></trkpt><trkpt lat="45.8550547" lon="11.7045173"><ele>1154.0</ele><time>2026-04-11T12:24:10.975Z</time></trkpt><trkpt lat="45.8550984" lon="11.7045965"><ele>1154.0</ele><time>2026-04-11T12:24:11.978Z</time></trkpt><trkpt lat="45.8551449" lon="11.7046728"><ele>1154.0</ele><time>2026-04-11T12:24:12.967Z</time></trkpt><trkpt lat="45.8552729" lon="11.7047457"><ele>1161.1666666666667</ele><time>2026-04-11T12:24:14.972Z</time></trkpt><trkpt lat="45.8553537" lon="11.7047626"><ele>1168.3333333333335</ele><time>2026-04-11T12:24:15.965Z</time></trkpt><trkpt lat="45.8554242" lon="11.7047806"><ele>1175.5</ele><time>2026-04-11T12:24:16.972Z</time></trkpt><trkpt lat="45.8555015" lon="11.7047928"><ele>1182.6666666666667</ele><time>2026-04-11T12:24:17.978Z</time></trkpt><trkpt lat="45.8555899" lon="11.7047994"><ele>1189.8333333333333</ele><time>2026-04-11T12:24:18.971Z</time></trkpt><trkpt lat="45.8556837" lon="11.7047539"><ele>1197.0</ele><time>2026-04-11T12:24:19.977Z</time></trkpt><trkpt lat="45.85577" lon="11.7046802"><ele>1197.0</ele><time>2026-04-11T12:24:20.975Z</time></trkpt><trkpt lat="45.8558443" lon="11.7045655"><ele>1197.0</ele><time>2026-04-11T12:24:21.971Z</time></trkpt><trkpt lat="45.8559144" lon="11.7044319"><ele>1197.0</ele><time>2026-04-11T12:24:22.975Z</time></trkpt><trkpt lat="45.8559845" lon="11.704314"><ele>1197.0</ele><time>2026-04-11T12:24:23.973Z</time></trkpt><trkpt lat="45.8560475" lon="11.7042049"><ele>1197.0</ele><time>2026-04-11T12:24:24.972Z</time></trkpt><trkpt lat="45.8560948" lon="11.7041004"><ele>1196.6666666666667</ele><time>2026-04-11T12:24:25.984Z</time></trkpt><trkpt lat="45.8561461" lon="11.7040303"><ele>1196.3333333333333</ele><time>2026-04-11T12:24:26.975Z</time></trkpt><trkpt lat="45.8562236" lon="11.7039889"><ele>1196.0</ele><time>2026-04-11T12:24:27.976Z</time></trkpt><trkpt lat="45.8563119" lon="11.7039228"><ele>1195.6666666666665</ele><time>2026-04-11T12:24:28.971Z</time></trkpt><trkpt lat="45.8563816" lon="11.7038297"><ele>1195.3333333333333</ele><time>2026-04-11T12:24:29.972Z</time></trkpt><trkpt lat="45.8564399" lon="11.7037401"><ele>1195.0</ele><time>2026-04-11T12:24:30.97Z</time></trkpt><trkpt lat="45.8564894" lon="11.7036771"><ele>1195.0</ele><time>2026-04-11T12:24:31.976Z</time></trkpt><trkpt lat="45.856528" lon="11.7036031"><ele>1195.0</ele><time>2026-04-11T12:24:32.97Z</time></trkpt><trkpt lat="45.8565558" lon="11.7035088"><ele>1195.0</ele><time>2026-04-11T12:24:33.976Z</time></trkpt><trkpt lat="45.8565619" lon="11.7033842"><ele>1195.0</ele><time>2026-04-11T12:24:34.974Z</time></trkpt><trkpt lat="45.8565706" lon="11.7032513"><ele>1195.0</ele><time>2026-04-11T12:24:35.979Z</time></trkpt><trkpt lat="45.8565785" lon="11.7031165"><ele>1195.0</ele><time>2026-04-11T12:24:36.977Z</time></trkpt><trkpt lat="45.8565882" lon="11.7029747"><ele>1190.8</ele><time>2026-04-11T12:24:37.974Z</time></trkpt><trkpt lat="45.856593" lon="11.7028396"><ele>1186.6</ele><time>2026-04-11T12:24:38.972Z</time></trkpt><trkpt lat="45.8565904" lon="11.7026903"><ele>1182.4</ele><time>2026-04-11T12:24:39.979Z</time></trkpt><trkpt lat="45.8565843" lon="11.7025381"><ele>1178.2</ele><time>2026-04-11T12:24:40.976Z</time></trkpt><trkpt lat="45.8565777" lon="11.7023897"><ele>1174.0</ele><time>2026-04-11T12:24:41.971Z</time></trkpt><trkpt lat="45.85658" lon="11.702263"><ele>1172.4</ele><time>2026-04-11T12:24:42.973Z</time></trkpt><trkpt lat="45.8565788" lon="11.7021489"><ele>1170.8000000000002</ele><time>2026-04-11T12:24:43.974Z</time></trkpt><trkpt lat="45.8565883" lon="11.7020503"><ele>1169.1999999999998</ele><time>2026-04-11T12:24:44.965Z</time></trkpt><trkpt lat="45.8566406" lon="11.7019164"><ele>1167.6</ele><time>2026-04-11T12:24:46.977Z</time></trkpt><trkpt lat="45.8567416" lon="11.701874"><ele>1166.0</ele><time>2026-04-11T12:24:48.979Z</time></trkpt><trkpt lat="45.8568609" lon="11.7019246"><ele>1169.5714285714287</ele><time>2026-04-11T12:24:50.981Z</time></trkpt><trkpt lat="45.8569265" lon="11.7019777"><ele>1173.142857142857</ele><time>2026-04-11T12:24:51.974Z</time></trkpt><trkpt lat="45.8569883" lon="11.7020084"><ele>1176.7142857142858</ele><time>2026-04-11T12:24:52.976Z</time></trkpt><trkpt lat="45.8570517" lon="11.7020064"><ele>1180.2857142857142</ele><time>2026-04-11T12:24:53.971Z</time></trkpt><trkpt lat="45.8571152" lon="11.7019983"><ele>1183.857142857143</ele><time>2026-04-11T12:24:54.978Z</time></trkpt><trkpt lat="45.8571646" lon="11.7019187"><ele>1187.4285714285716</ele><time>2026-04-11T12:24:55.973Z</time></trkpt><trkpt lat="45.8571992" lon="11.7018173"><ele>1191.0</ele><time>2026-04-11T12:24:56.973Z</time></trkpt><trkpt lat="45.8572221" lon="11.7017074"><ele>1191.0</ele><time>2026-04-11T12:24:57.974Z</time></trkpt><trkpt lat="45.8572467" lon="11.7015868"><ele>1191.0</ele><time>2026-04-11T12:24:58.974Z</time></trkpt><trkpt lat="45.857274" lon="11.7014674"><ele>1191.0</ele><time>2026-04-11T12:24:59.971Z</time></trkpt><trkpt lat="45.8573021" lon="11.7013662"><ele>1191.0</ele><time>2026-04-11T12:25:00.977Z</time></trkpt><trkpt lat="45.8573277" lon="11.7012798"><ele>1191.0</ele><time>2026-04-11T12:25:01.978Z</time></trkpt><trkpt lat="45.8574285" lon="11.7011794"><ele>1191.0</ele><time>2026-04-11T12:25:03.986Z</time></trkpt><trkpt lat="45.8574944" lon="11.701144"><ele>1191.0</ele><time>2026-04-11T12:25:04.977Z</time></trkpt><trkpt lat="45.8575876" lon="11.7011038"><ele>1191.0</ele><time>2026-04-11T12:25:05.978Z</time></trkpt><trkpt lat="45.8576894" lon="11.7010505"><ele>1191.0</ele><time>2026-04-11T12:25:06.972Z</time></trkpt><trkpt lat="45.8577833" lon="11.7010004"><ele>1191.0</ele><time>2026-04-11T12:25:07.978Z</time></trkpt><trkpt lat="45.8578818" lon="11.7009245"><ele>1191.0</ele><time>2026-04-11T12:25:08.981Z</time></trkpt><trkpt lat="45.8579747" lon="11.7008496"><ele>1191.8</ele><time>2026-04-11T12:25:09.979Z</time></trkpt><trkpt lat="45.8580504" lon="11.7007468"><ele>1192.6</ele><time>2026-04-11T12:25:10.964Z</time></trkpt><trkpt lat="45.8581156" lon="11.7006274"><ele>1193.4</ele><time>2026-04-11T12:25:11.989Z</time></trkpt><trkpt lat="45.858165" lon="11.7005129"><ele>1194.2</ele><time>2026-04-11T12:25:12.969Z</time></trkpt><trkpt lat="45.8581891" lon="11.7003868"><ele>1195.0</ele><time>2026-04-11T12:25:13.972Z</time></trkpt><trkpt lat="45.858202" lon="11.7002357"><ele>1195.0</ele><time>2026-04-11T12:25:14.973Z</time></trkpt><trkpt lat="45.8582113" lon="11.7000723"><ele>1195.0</ele><time>2026-04-11T12:25:15.976Z</time></trkpt><trkpt lat="45.8582221" lon="11.6999075"><ele>1195.0</ele><time>2026-04-11T12:25:16.97Z</time></trkpt><trkpt lat="45.858234" lon="11.6997558"><ele>1195.0</ele><time>2026-04-11T12:25:17.973Z</time></trkpt><trkpt lat="45.8582476" lon="11.6996367"><ele>1195.0</ele><time>2026-04-11T12:25:18.973Z</time></trkpt><trkpt lat="45.8582413" lon="11.6995359"><ele>1195.0</ele><time>2026-04-11T12:25:19.973Z</time></trkpt><trkpt lat="45.8582013" lon="11.6994236"><ele>1195.0</ele><time>2026-04-11T12:25:20.979Z</time></trkpt><trkpt lat="45.8581407" lon="11.699316"><ele>1195.0</ele><time>2026-04-11T12:25:21.975Z</time></trkpt><trkpt lat="45.8580809" lon="11.6991974"><ele>1195.0</ele><time>2026-04-11T12:25:22.974Z</time></trkpt><trkpt lat="45.8580317" lon="11.6990692"><ele>1195.0</ele><time>2026-04-11T12:25:23.982Z</time></trkpt><trkpt lat="45.8579678" lon="11.6989451"><ele>1197.0</ele><time>2026-04-11T12:25:24.971Z</time></trkpt><trkpt lat="45.8578928" lon="11.6988064"><ele>1199.0</ele><time>2026-04-11T12:25:25.977Z</time></trkpt><trkpt lat="45.8578327" lon="11.6986854"><ele>1201.0</ele><time>2026-04-11T12:25:26.976Z</time></trkpt><trkpt lat="45.8577888" lon="11.6985688"><ele>1203.0</ele><time>2026-04-11T12:25:27.972Z</time></trkpt><trkpt lat="45.8577587" lon="11.698442"><ele>1205.0</ele><time>2026-04-11T12:25:28.967Z</time></trkpt><trkpt lat="45.857729" lon="11.6983099"><ele>1208.2</ele><time>2026-04-11T12:25:29.97Z</time></trkpt><trkpt lat="45.857701" lon="11.6981904"><ele>1211.4</ele><time>2026-04-11T12:25:30.987Z</time></trkpt><trkpt lat="45.8576714" lon="11.6980739"><ele>1214.6</ele><time>2026-04-11T12:25:31.973Z</time></trkpt><trkpt lat="45.8576166" lon="11.6979665"><ele>1217.8</ele><time>2026-04-11T12:25:32.973Z</time></trkpt><trkpt lat="45.8575317" lon="11.6978781"><ele>1221.0</ele><time>2026-04-11T12:25:33.986Z</time></trkpt><trkpt lat="45.8574566" lon="11.6978096"><ele>1216.6666666666667</ele><time>2026-04-11T12:25:34.985Z</time></trkpt><trkpt lat="45.8574008" lon="11.6977555"><ele>1212.3333333333333</ele><time>2026-04-11T12:25:35.972Z</time></trkpt><trkpt lat="45.857356" lon="11.6976769"><ele>1208.0</ele><time>2026-04-11T12:25:36.984Z</time></trkpt><trkpt lat="45.8573313" lon="11.6975934"><ele>1203.6666666666665</ele><time>2026-04-11T12:25:37.972Z</time></trkpt><trkpt lat="45.8573339" lon="11.6974049"><ele>1199.3333333333333</ele><time>2026-04-11T12:25:39.977Z</time></trkpt><trkpt lat="45.8573488" lon="11.697312"><ele>1195.0</ele><time>2026-04-11T12:25:40.988Z</time></trkpt><trkpt lat="45.8573628" lon="11.6972185"><ele>1195.0</ele><time>2026-04-11T12:25:41.995Z</time></trkpt><trkpt lat="45.8573766" lon="11.6971256"><ele>1195.0</ele><time>2026-04-11T12:25:42.972Z</time></trkpt><trkpt lat="45.857389" lon="11.6970351"><ele>1195.0</ele><time>2026-04-11T12:25:43.98Z</time></trkpt><trkpt lat="45.8574019" lon="11.6969397"><ele>1195.0</ele><time>2026-04-11T12:25:44.977Z</time></trkpt><trkpt lat="45.8574139" lon="11.6968399"><ele>1195.0</ele><time>2026-04-11T12:25:45.99Z</time></trkpt><trkpt lat="45.8574259" lon="11.6967296"><ele>1195.0</ele><time>2026-04-11T12:25:46.972Z</time></trkpt><trkpt lat="45.8574369" lon="11.6966113"><ele>1195.0</ele><time>2026-04-11T12:25:47.98Z</time></trkpt><trkpt lat="45.8574413" lon="11.6964984"><ele>1195.8</ele><time>2026-04-11T12:25:48.979Z</time></trkpt><trkpt lat="45.8574433" lon="11.6964021"><ele>1196.6</ele><time>2026-04-11T12:25:49.978Z</time></trkpt><trkpt lat="45.8574392" lon="11.6962672"><ele>1197.4</ele><time>2026-04-11T12:25:51.979Z</time></trkpt><trkpt lat="45.8574137" lon="11.6961537"><ele>1198.2</ele><time>2026-04-11T12:25:53.98Z</time></trkpt><trkpt lat="45.8573525" lon="11.69604"><ele>1199.0</ele><time>2026-04-11T12:25:55.976Z</time></trkpt><trkpt lat="45.8572802" lon="11.695925"><ele>1199.0</ele><time>2026-04-11T12:25:57.976Z</time></trkpt><trkpt lat="45.8572137" lon="11.6958123"><ele>1199.0</ele><time>2026-04-11T12:25:59.982Z</time></trkpt><trkpt lat="45.8571413" lon="11.6956992"><ele>1199.0</ele><time>2026-04-11T12:26:01.978Z</time></trkpt><trkpt lat="45.8570699" lon="11.6955834"><ele>1199.0</ele><time>2026-04-11T12:26:03.972Z</time></trkpt><trkpt lat="45.8570062" lon="11.6954779"><ele>1199.0</ele><time>2026-04-11T12:26:05.983Z</time></trkpt><trkpt lat="45.85696" lon="11.695374"><ele>1196.8</ele><time>2026-04-11T12:26:07.972Z</time></trkpt><trkpt lat="45.8569445" lon="11.6952351"><ele>1194.6000000000001</ele><time>2026-04-11T12:26:09.976Z</time></trkpt><trkpt lat="45.8569882" lon="11.6951082"><ele>1192.4</ele><time>2026-04-11T12:26:11.97Z</time></trkpt><trkpt lat="45.8570868" lon="11.6950039"><ele>1190.2</ele><time>2026-04-11T12:26:13.975Z</time></trkpt><trkpt lat="45.8571429" lon="11.6949594"><ele>1188.0</ele><time>2026-04-11T12:26:14.978Z</time></trkpt><trkpt lat="45.8572153" lon="11.6949122"><ele>1188.0</ele><time>2026-04-11T12:26:15.967Z</time></trkpt><trkpt lat="45.8572862" lon="11.6948599"><ele>1188.0</ele><time>2026-04-11T12:26:16.972Z</time></trkpt><trkpt lat="45.8573657" lon="11.6948056"><ele>1188.0</ele><time>2026-04-11T12:26:17.977Z</time></trkpt><trkpt lat="45.8574459" lon="11.6947461"><ele>1188.0</ele><time>2026-04-11T12:26:18.966Z</time></trkpt><trkpt lat="45.8575241" lon="11.6946789"><ele>1188.0</ele><time>2026-04-11T12:26:19.972Z</time></trkpt><trkpt lat="45.8575985" lon="11.6946186"><ele>1188.0</ele><time>2026-04-11T12:26:20.969Z</time></trkpt><trkpt lat="45.8576747" lon="11.6945578"><ele>1190.4</ele><time>2026-04-11T12:26:21.983Z</time></trkpt><trkpt lat="45.8577451" lon="11.6944761"><ele>1192.8</ele><time>2026-04-11T12:26:22.982Z</time></trkpt><trkpt lat="45.8578148" lon="11.6943941"><ele>1195.2</ele><time>2026-04-11T12:26:23.968Z</time></trkpt><trkpt lat="45.8578875" lon="11.6943027"><ele>1197.6</ele><time>2026-04-11T12:26:24.975Z</time></trkpt><trkpt lat="45.8579616" lon="11.6942151"><ele>1200.0</ele><time>2026-04-11T12:26:25.98Z</time></trkpt><trkpt lat="45.8580344" lon="11.6941332"><ele>1200.0</ele><time>2026-04-11T12:26:26.968Z</time></trkpt><trkpt lat="45.8581074" lon="11.6940489"><ele>1200.0</ele><time>2026-04-11T12:26:27.975Z</time></trkpt><trkpt lat="45.8581777" lon="11.6939688"><ele>1200.0</ele><time>2026-04-11T12:26:28.979Z</time></trkpt><trkpt lat="45.8582384" lon="11.6938845"><ele>1200.0</ele><time>2026-04-11T12:26:29.977Z</time></trkpt><trkpt lat="45.8582881" lon="11.6937833"><ele>1200.0</ele><time>2026-04-11T12:26:30.976Z</time></trkpt><trkpt lat="45.8583306" lon="11.6936783"><ele>1200.0</ele><time>2026-04-11T12:26:31.979Z</time></trkpt><trkpt lat="45.8583718" lon="11.6935607"><ele>1203.6666666666667</ele><time>2026-04-11T12:26:32.973Z</time></trkpt><trkpt lat="45.8584066" lon="11.6934539"><ele>1207.3333333333333</ele><time>2026-04-11T12:26:33.979Z</time></trkpt><trkpt lat="45.8584368" lon="11.693374"><ele>1211.0</ele><time>2026-04-11T12:26:34.971Z</time></trkpt><trkpt lat="45.8584971" lon="11.6932165"><ele>1214.6666666666665</ele><time>2026-04-11T12:26:36.974Z</time></trkpt><trkpt lat="45.8585547" lon="11.6931483"><ele>1218.3333333333333</ele><time>2026-04-11T12:26:37.971Z</time></trkpt><trkpt lat="45.8586256" lon="11.6930689"><ele>1222.0</ele><time>2026-04-11T12:26:38.975Z</time></trkpt><trkpt lat="45.8586926" lon="11.6929922"><ele>1222.0</ele><time>2026-04-11T12:26:39.977Z</time></trkpt><trkpt lat="45.8587497" lon="11.6929198"><ele>1222.0</ele><time>2026-04-11T12:26:40.977Z</time></trkpt><trkpt lat="45.8587923" lon="11.6928384"><ele>1222.0</ele><time>2026-04-11T12:26:41.978Z</time></trkpt><trkpt lat="45.8588142" lon="11.6927357"><ele>1222.0</ele><time>2026-04-11T12:26:42.974Z</time></trkpt><trkpt lat="45.8588203" lon="11.6926116"><ele>1222.0</ele><time>2026-04-11T12:26:43.973Z</time></trkpt><trkpt lat="45.8588196" lon="11.6924666"><ele>1222.0</ele><time>2026-04-11T12:26:44.971Z</time></trkpt><trkpt lat="45.8588228" lon="11.6923099"><ele>1219.2</ele><time>2026-04-11T12:26:45.962Z</time></trkpt><trkpt lat="45.8588227" lon="11.6921603"><ele>1216.4</ele><time>2026-04-11T12:26:46.983Z</time></trkpt><trkpt lat="45.8588303" lon="11.6920161"><ele>1213.6</ele><time>2026-04-11T12:26:47.975Z</time></trkpt><trkpt lat="45.8588209" lon="11.6918735"><ele>1210.8</ele><time>2026-04-11T12:26:48.973Z</time></trkpt><trkpt lat="45.8588032" lon="11.6917351"><ele>1208.0</ele><time>2026-04-11T12:26:49.97Z</time></trkpt><trkpt lat="45.8587804" lon="11.6915977"><ele>1206.6666666666667</ele><time>2026-04-11T12:26:50.972Z</time></trkpt><trkpt lat="45.8587536" lon="11.6914657"><ele>1205.3333333333335</ele><time>2026-04-11T12:26:51.968Z</time></trkpt><trkpt lat="45.8587348" lon="11.6913475"><ele>1204.0</ele><time>2026-04-11T12:26:52.978Z</time></trkpt><trkpt lat="45.8587159" lon="11.6912344"><ele>1202.6666666666667</ele><time>2026-04-11T12:26:53.981Z</time></trkpt><trkpt lat="45.8587137" lon="11.6911215"><ele>1201.3333333333333</ele><time>2026-04-11T12:26:54.968Z</time></trkpt><trkpt lat="45.8587295" lon="11.6910213"><ele>1200.0</ele><time>2026-04-11T12:26:55.972Z</time></trkpt><trkpt lat="45.8587506" lon="11.6909165"><ele>1198.0</ele><time>2026-04-11T12:26:56.975Z</time></trkpt><trkpt lat="45.8587842" lon="11.6908103"><ele>1196.0</ele><time>2026-04-11T12:26:57.977Z</time></trkpt><trkpt lat="45.8588359" lon="11.6906926"><ele>1194.0</ele><time>2026-04-11T12:26:58.974Z</time></trkpt><trkpt lat="45.858886" lon="11.6905863"><ele>1192.0</ele><time>2026-04-11T12:26:59.972Z</time></trkpt><trkpt lat="45.8589328" lon="11.6904899"><ele>1190.0</ele><time>2026-04-11T12:27:00.974Z</time></trkpt><trkpt lat="45.85898" lon="11.6904066"><ele>1188.0</ele><time>2026-04-11T12:27:01.971Z</time></trkpt><trkpt lat="45.8590317" lon="11.6903322"><ele>1188.0</ele><time>2026-04-11T12:27:02.973Z</time></trkpt><trkpt lat="45.8590866" lon="11.6902596"><ele>1188.0</ele><time>2026-04-11T12:27:03.975Z</time></trkpt><trkpt lat="45.8591473" lon="11.6902019"><ele>1188.0</ele><time>2026-04-11T12:27:04.973Z</time></trkpt><trkpt lat="45.8592193" lon="11.6901511"><ele>1188.0</ele><time>2026-04-11T12:27:05.963Z</time></trkpt><trkpt lat="45.8592956" lon="11.6900991"><ele>1188.0</ele><time>2026-04-11T12:27:06.981Z</time></trkpt><trkpt lat="45.8593841" lon="11.6900515"><ele>1188.0</ele><time>2026-04-11T12:27:07.973Z</time></trkpt><trkpt lat="45.8594754" lon="11.6900078"><ele>1188.4</ele><time>2026-04-11T12:27:08.987Z</time></trkpt><trkpt lat="45.8595679" lon="11.6899532"><ele>1188.8</ele><time>2026-04-11T12:27:09.974Z</time></trkpt><trkpt lat="45.8596483" lon="11.6898724"><ele>1189.2</ele><time>2026-04-11T12:27:10.98Z</time></trkpt><trkpt lat="45.8597335" lon="11.6897899"><ele>1189.6</ele><time>2026-04-11T12:27:11.975Z</time></trkpt><trkpt lat="45.859821" lon="11.689705"><ele>1190.0</ele><time>2026-04-11T12:27:13.02Z</time></trkpt><trkpt lat="45.8598961" lon="11.689629"><ele>1190.0</ele><time>2026-04-11T12:27:13.969Z</time></trkpt><trkpt lat="45.8599615" lon="11.6895548"><ele>1190.0</ele><time>2026-04-11T12:27:14.982Z</time></trkpt><trkpt lat="45.860017" lon="11.689466"><ele>1190.0</ele><time>2026-04-11T12:27:15.979Z</time></trkpt><trkpt lat="45.8600602" lon="11.6893656"><ele>1190.0</ele><time>2026-04-11T12:27:16.984Z</time></trkpt><trkpt lat="45.8600949" lon="11.6892436"><ele>1190.0</ele><time>2026-04-11T12:27:17.969Z</time></trkpt><trkpt lat="45.8601237" lon="11.6891164"><ele>1190.0</ele><time>2026-04-11T12:27:18.979Z</time></trkpt><trkpt lat="45.8601409" lon="11.6889827"><ele>1191.5</ele><time>2026-04-11T12:27:19.976Z</time></trkpt><trkpt lat="45.8601447" lon="11.6888372"><ele>1193.0</ele><time>2026-04-11T12:27:20.97Z</time></trkpt><trkpt lat="45.8601358" lon="11.6886942"><ele>1194.5</ele><time>2026-04-11T12:27:21.986Z</time></trkpt><trkpt lat="45.8601183" lon="11.688561"><ele>1196.0</ele><time>2026-04-11T12:27:22.982Z</time></trkpt><trkpt lat="45.8601061" lon="11.6884534"><ele>1197.5</ele><time>2026-04-11T12:27:23.979Z</time></trkpt><trkpt lat="45.8601048" lon="11.6883618"><ele>1199.0</ele><time>2026-04-11T12:27:24.984Z</time></trkpt><trkpt lat="45.8601516" lon="11.6882472"><ele>1194.6666666666667</ele><time>2026-04-11T12:27:26.973Z</time></trkpt><trkpt lat="45.8602376" lon="11.6882003"><ele>1190.3333333333335</ele><time>2026-04-11T12:27:28.986Z</time></trkpt><trkpt lat="45.8603724" lon="11.6882098"><ele>1186.0</ele><time>2026-04-11T12:27:30.981Z</time></trkpt><trkpt lat="45.8604399" lon="11.6882025"><ele>1181.6666666666667</ele><time>2026-04-11T12:27:31.989Z</time></trkpt><trkpt lat="45.8605112" lon="11.6881881"><ele>1177.3333333333333</ele><time>2026-04-11T12:27:32.97Z</time></trkpt><trkpt lat="45.8605742" lon="11.6881884"><ele>1173.0</ele><time>2026-04-11T12:27:33.979Z</time></trkpt><trkpt lat="45.8606919" lon="11.6882088"><ele>1173.0</ele><time>2026-04-11T12:27:35.977Z</time></trkpt><trkpt lat="45.8607911" lon="11.6882394"><ele>1173.0</ele><time>2026-04-11T12:27:37.994Z</time></trkpt><trkpt lat="45.8608662" lon="11.6882382"><ele>1173.0</ele><time>2026-04-11T12:28:19.978Z</time></trkpt><trkpt lat="45.8609578" lon="11.688283"><ele>1173.0</ele><time>2026-04-11T12:28:53.977Z</time></trkpt><trkpt lat="45.8610205" lon="11.6882956"><ele>1173.0</ele><time>2026-04-11T12:28:55.977Z</time></trkpt><trkpt lat="45.861115" lon="11.6883061"><ele>1173.0</ele><time>2026-04-11T12:28:57.98Z</time></trkpt><trkpt lat="45.8612328" lon="11.6883232"><ele>1174.3333333333333</ele><time>2026-04-11T12:28:59.973Z</time></trkpt><trkpt lat="45.8613039" lon="11.6883117"><ele>1175.6666666666667</ele><time>2026-04-11T12:29:00.972Z</time></trkpt><trkpt lat="45.861372" lon="11.688297"><ele>1177.0</ele><time>2026-04-11T12:29:01.98Z</time></trkpt><trkpt lat="45.8614484" lon="11.6882924"><ele>1178.3333333333335</ele><time>2026-04-11T12:29:02.979Z</time></trkpt><trkpt lat="45.8615309" lon="11.6882833"><ele>1179.6666666666667</ele><time>2026-04-11T12:29:03.981Z</time></trkpt><trkpt lat="45.8615945" lon="11.688272"><ele>1181.0</ele><time>2026-04-11T12:29:04.967Z</time></trkpt><trkpt lat="45.8617112" lon="11.6882292"><ele>1181.0</ele><time>2026-04-11T12:29:06.971Z</time></trkpt><trkpt lat="45.8617732" lon="11.688208"><ele>1181.0</ele><time>2026-04-11T12:29:07.972Z</time></trkpt><trkpt lat="45.8618734" lon="11.6882046"><ele>1181.0</ele><time>2026-04-11T12:29:09.979Z</time></trkpt><trkpt lat="45.8619363" lon="11.6882448"><ele>1181.0</ele><time>2026-04-11T12:29:11.982Z</time></trkpt><trkpt lat="45.8619745" lon="11.6883292"><ele>1181.0</ele><time>2026-04-11T12:29:14.05Z</time></trkpt><trkpt lat="45.8620134" lon="11.6884186"><ele>1181.0</ele><time>2026-04-11T12:29:17.99Z</time></trkpt><trkpt lat="45.8620448" lon="11.688338"><ele>1181.0</ele><time>2026-04-11T12:29:35.982Z</time></trkpt><trkpt lat="45.8620494" lon="11.6882107"><ele>1179.0</ele><time>2026-04-11T12:29:38.977Z</time></trkpt><trkpt lat="45.8620615" lon="11.6880646"><ele>1177.0</ele><time>2026-04-11T12:29:40.976Z</time></trkpt><trkpt lat="45.86208" lon="11.6879154"><ele>1175.0</ele><time>2026-04-11T12:29:42.984Z</time></trkpt><trkpt lat="45.8621003" lon="11.6877756"><ele>1173.0</ele><time>2026-04-11T12:29:44.977Z</time></trkpt><trkpt lat="45.862113" lon="11.6876471"><ele>1171.0</ele><time>2026-04-11T12:29:46.984Z</time></trkpt><trkpt lat="45.8621493" lon="11.6875441"><ele>1168.8</ele><time>2026-04-11T12:29:48.976Z</time></trkpt><trkpt lat="45.862225" lon="11.6874852"><ele>1166.6</ele><time>2026-04-11T12:29:50.98Z</time></trkpt><trkpt lat="45.8623095" lon="11.6874485"><ele>1164.4</ele><time>2026-04-11T12:29:52.994Z</time></trkpt><trkpt lat="45.8624065" lon="11.6874339"><ele>1162.2</ele><time>2026-04-11T12:29:54.971Z</time></trkpt><trkpt lat="45.8625043" lon="11.6874491"><ele>1160.0</ele><time>2026-04-11T12:29:56.982Z</time></trkpt><trkpt lat="45.8626038" lon="11.6874912"><ele>1157.2</ele><time>2026-04-11T12:29:58.974Z</time></trkpt><trkpt lat="45.8627025" lon="11.6875625"><ele>1154.4</ele><time>2026-04-11T12:30:00.992Z</time></trkpt><trkpt lat="45.862765" lon="11.6876812"><ele>1151.6</ele><time>2026-04-11T12:30:02.972Z</time></trkpt><trkpt lat="45.8627957" lon="11.6878185"><ele>1148.8</ele><time>2026-04-11T12:30:04.975Z</time></trkpt><trkpt lat="45.8628215" lon="11.6879362"><ele>1146.0</ele><time>2026-04-11T12:30:06.982Z</time></trkpt><trkpt lat="45.8628868" lon="11.6879784"><ele>1146.0</ele><time>2026-04-11T12:30:08.981Z</time></trkpt><trkpt lat="45.8629401" lon="11.6879257"><ele>1146.0</ele><time>2026-04-11T12:30:10.99Z</time></trkpt><trkpt lat="45.8629919" lon="11.6878179"><ele>1146.0</ele><time>2026-04-11T12:30:12.987Z</time></trkpt><trkpt lat="45.8630567" lon="11.6876786"><ele>1146.0</ele><time>2026-04-11T12:30:14.978Z</time></trkpt><trkpt lat="45.8631142" lon="11.6875496"><ele>1146.0</ele><time>2026-04-11T12:30:16.976Z</time></trkpt><trkpt lat="45.8631741" lon="11.6873997"><ele>1146.0</ele><time>2026-04-11T12:30:18.979Z</time></trkpt><trkpt lat="45.8632408" lon="11.6872579"><ele>1146.0</ele><time>2026-04-11T12:30:20.982Z</time></trkpt><trkpt lat="45.8632991" lon="11.6871331"><ele>1146.0</ele><time>2026-04-11T12:30:22.965Z</time></trkpt><trkpt lat="45.8633494" lon="11.687033"><ele>1146.0</ele><time>2026-04-11T12:30:24.989Z</time></trkpt><trkpt lat="45.8634108" lon="11.6869389"><ele>1146.0</ele><time>2026-04-11T12:30:26.986Z</time></trkpt><trkpt lat="45.8634802" lon="11.6868992"><ele>1140.0</ele><time>2026-04-11T12:30:28.965Z</time></trkpt><trkpt lat="45.8635557" lon="11.6869538"><ele>1134.0</ele><time>2026-04-11T12:30:30.978Z</time></trkpt><trkpt lat="45.8635897" lon="11.6870545"><ele>1128.0</ele><time>2026-04-11T12:30:32.979Z</time></trkpt><trkpt lat="45.8635796" lon="11.6872016"><ele>1122.0</ele><time>2026-04-11T12:30:34.968Z</time></trkpt><trkpt lat="45.8635715" lon="11.6873769"><ele>1116.0</ele><time>2026-04-11T12:30:36.983Z</time></trkpt><trkpt lat="45.8635779" lon="11.6874799"><ele>1115.9999999999998</ele><time>2026-04-11T12:30:37.975Z</time></trkpt><trkpt lat="45.8635856" lon="11.6875788"><ele>1116.0</ele><time>2026-04-11T12:30:38.98Z</time></trkpt><trkpt lat="45.8635908" lon="11.6876746"><ele>1116.0</ele><time>2026-04-11T12:30:39.982Z</time></trkpt><trkpt lat="45.8636001" lon="11.6877669"><ele>1116.0</ele><time>2026-04-11T12:30:40.974Z</time></trkpt><trkpt lat="45.8636092" lon="11.6878678"><ele>1116.0</ele><time>2026-04-11T12:30:41.965Z</time></trkpt><trkpt lat="45.8636155" lon="11.6879642"><ele>1115.9999999999998</ele><time>2026-04-11T12:30:42.981Z</time></trkpt><trkpt lat="45.8636193" lon="11.6880566"><ele>1116.0</ele><time>2026-04-11T12:30:43.97Z</time></trkpt><trkpt lat="45.863616" lon="11.688216"><ele>1115.0</ele><time>2026-04-11T12:30:45.979Z</time></trkpt><trkpt lat="45.8636182" lon="11.68838"><ele>1114.0</ele><time>2026-04-11T12:30:47.965Z</time></trkpt><trkpt lat="45.8636994" lon="11.6884938"><ele>1113.0</ele><time>2026-04-11T12:30:49.97Z</time></trkpt><trkpt lat="45.8637656" lon="11.6885279"><ele>1112.0</ele><time>2026-04-11T12:30:50.968Z</time></trkpt><trkpt lat="45.8638274" lon="11.6885659"><ele>1111.0</ele><time>2026-04-11T12:30:51.97Z</time></trkpt><trkpt lat="45.8638993" lon="11.6886163"><ele>1110.0</ele><time>2026-04-11T12:30:52.969Z</time></trkpt><trkpt lat="45.8639825" lon="11.6886898"><ele>1112.4</ele><time>2026-04-11T12:30:53.973Z</time></trkpt><trkpt lat="45.8640527" lon="11.6887627"><ele>1114.8</ele><time>2026-04-11T12:30:54.969Z</time></trkpt><trkpt lat="45.8641277" lon="11.6888755"><ele>1117.2</ele><time>2026-04-11T12:30:55.974Z</time></trkpt><trkpt lat="45.8641773" lon="11.6889969"><ele>1119.6</ele><time>2026-04-11T12:30:56.989Z</time></trkpt><trkpt lat="45.8642149" lon="11.6891593"><ele>1122.0</ele><time>2026-04-11T12:30:57.968Z</time></trkpt><trkpt lat="45.8642347" lon="11.6893075"><ele>1122.4</ele><time>2026-04-11T12:30:58.974Z</time></trkpt><trkpt lat="45.8642602" lon="11.6894311"><ele>1122.8000000000002</ele><time>2026-04-11T12:30:59.98Z</time></trkpt><trkpt lat="45.864283" lon="11.6895339"><ele>1123.2</ele><time>2026-04-11T12:31:00.98Z</time></trkpt><trkpt lat="45.8642772" lon="11.689644"><ele>1123.6000000000001</ele><time>2026-04-11T12:31:02.989Z</time></trkpt><trkpt lat="45.8641873" lon="11.6897463"><ele>1124.0</ele><time>2026-04-11T12:31:04.975Z</time></trkpt><trkpt lat="45.8641008" lon="11.6898373"><ele>1124.0</ele><time>2026-04-11T12:31:06.962Z</time></trkpt><trkpt lat="45.8640829" lon="11.6899989"><ele>1124.0</ele><time>2026-04-11T12:31:08.975Z</time></trkpt><trkpt lat="45.8641094" lon="11.6900977"><ele>1124.0</ele><time>2026-04-11T12:31:09.98Z</time></trkpt><trkpt lat="45.8641451" lon="11.690203"><ele>1124.0</ele><time>2026-04-11T12:31:10.966Z</time></trkpt><trkpt lat="45.8641997" lon="11.690295"><ele>1124.0</ele><time>2026-04-11T12:31:11.969Z</time></trkpt><trkpt lat="45.864268" lon="11.6903609"><ele>1124.0</ele><time>2026-04-11T12:31:12.972Z</time></trkpt><trkpt lat="45.8643631" lon="11.6903994"><ele>1123.5</ele><time>2026-04-11T12:31:13.97Z</time></trkpt><trkpt lat="45.8644732" lon="11.6904576"><ele>1123.0</ele><time>2026-04-11T12:31:14.98Z</time></trkpt><trkpt lat="45.8645863" lon="11.6905132"><ele>1122.5</ele><time>2026-04-11T12:31:15.983Z</time></trkpt><trkpt lat="45.8646874" lon="11.6905823"><ele>1122.0</ele><time>2026-04-11T12:31:16.972Z</time></trkpt><trkpt lat="45.8647824" lon="11.6906568"><ele>1122.0</ele><time>2026-04-11T12:31:17.97Z</time></trkpt><trkpt lat="45.8648661" lon="11.6907362"><ele>1122.0</ele><time>2026-04-11T12:31:18.975Z</time></trkpt><trkpt lat="45.8649408" lon="11.6908093"><ele>1122.0</ele><time>2026-04-11T12:31:19.973Z</time></trkpt><trkpt lat="45.8649889" lon="11.6908911"><ele>1122.0</ele><time>2026-04-11T12:31:20.971Z</time></trkpt><trkpt lat="45.8650313" lon="11.6909756"><ele>1122.0</ele><time>2026-04-11T12:31:21.979Z</time></trkpt><trkpt lat="45.8650596" lon="11.6910619"><ele>1122.0</ele><time>2026-04-11T12:31:22.987Z</time></trkpt><trkpt lat="45.8650646" lon="11.6911645"><ele>1124.2</ele><time>2026-04-11T12:31:23.964Z</time></trkpt><trkpt lat="45.8650717" lon="11.6912982"><ele>1126.4</ele><time>2026-04-11T12:31:24.974Z</time></trkpt><trkpt lat="45.8650782" lon="11.6914373"><ele>1128.6</ele><time>2026-04-11T12:31:25.979Z</time></trkpt><trkpt lat="45.8650766" lon="11.6915705"><ele>1130.8</ele><time>2026-04-11T12:31:26.974Z</time></trkpt><trkpt lat="45.8650765" lon="11.6917204"><ele>1133.0</ele><time>2026-04-11T12:31:27.974Z</time></trkpt><trkpt lat="45.8650773" lon="11.69185"><ele>1131.8333333333335</ele><time>2026-04-11T12:31:28.979Z</time></trkpt><trkpt lat="45.8650533" lon="11.6920001"><ele>1130.6666666666667</ele><time>2026-04-11T12:31:30.984Z</time></trkpt><trkpt lat="45.8650024" lon="11.6920798"><ele>1129.5</ele><time>2026-04-11T12:31:31.978Z</time></trkpt><trkpt lat="45.8649514" lon="11.6921573"><ele>1128.3333333333333</ele><time>2026-04-11T12:31:32.983Z</time></trkpt><trkpt lat="45.8649059" lon="11.6922529"><ele>1127.1666666666665</ele><time>2026-04-11T12:31:33.986Z</time></trkpt><trkpt lat="45.8648849" lon="11.6923756"><ele>1126.0</ele><time>2026-04-11T12:31:34.982Z</time></trkpt><trkpt lat="45.8648722" lon="11.6925142"><ele>1126.0</ele><time>2026-04-11T12:31:35.983Z</time></trkpt><trkpt lat="45.8648622" lon="11.6926591"><ele>1126.0</ele><time>2026-04-11T12:31:36.972Z</time></trkpt><trkpt lat="45.8648382" lon="11.6927888"><ele>1126.0</ele><time>2026-04-11T12:31:37.977Z</time></trkpt><trkpt lat="45.8648166" lon="11.6929215"><ele>1126.0</ele><time>2026-04-11T12:31:38.973Z</time></trkpt><trkpt lat="45.8647986" lon="11.6930679"><ele>1126.0</ele><time>2026-04-11T12:31:39.978Z</time></trkpt><trkpt lat="45.8647901" lon="11.6931891"><ele>1125.3333333333333</ele><time>2026-04-11T12:31:40.976Z</time></trkpt><trkpt lat="45.8647744" lon="11.6932975"><ele>1124.6666666666665</ele><time>2026-04-11T12:31:41.986Z</time></trkpt><trkpt lat="45.8647375" lon="11.6933809"><ele>1124.0</ele><time>2026-04-11T12:31:42.973Z</time></trkpt><trkpt lat="45.8646852" lon="11.6934603"><ele>1123.3333333333333</ele><time>2026-04-11T12:31:43.989Z</time></trkpt><trkpt lat="45.8646359" lon="11.6935412"><ele>1122.6666666666667</ele><time>2026-04-11T12:31:44.981Z</time></trkpt><trkpt lat="45.8645606" lon="11.6936781"><ele>1122.0</ele><time>2026-04-11T12:31:46.978Z</time></trkpt><trkpt lat="45.8645398" lon="11.6937711"><ele>1122.0</ele><time>2026-04-11T12:31:47.971Z</time></trkpt><trkpt lat="45.8645643" lon="11.6938849"><ele>1122.0</ele><time>2026-04-11T12:31:48.968Z</time></trkpt><trkpt lat="45.8646167" lon="11.6939783"><ele>1122.0</ele><time>2026-04-11T12:31:49.979Z</time></trkpt><trkpt lat="45.8647058" lon="11.6941003"><ele>1122.0</ele><time>2026-04-11T12:31:50.982Z</time></trkpt><trkpt lat="45.8648053" lon="11.6942028"><ele>1122.0</ele><time>2026-04-11T12:31:51.967Z</time></trkpt><trkpt lat="45.8649128" lon="11.6943569"><ele>1126.0</ele><time>2026-04-11T12:31:52.973Z</time></trkpt><trkpt lat="45.865006" lon="11.6945033"><ele>1130.0</ele><time>2026-04-11T12:31:53.979Z</time></trkpt><trkpt lat="45.8650978" lon="11.6946343"><ele>1134.0</ele><time>2026-04-11T12:31:54.976Z</time></trkpt><trkpt lat="45.8651715" lon="11.6947569"><ele>1138.0</ele><time>2026-04-11T12:31:55.98Z</time></trkpt><trkpt lat="45.8652123" lon="11.6948777"><ele>1129.5</ele><time>2026-04-11T12:31:56.992Z</time></trkpt><trkpt lat="45.8652503" lon="11.6950198"><ele>1121.0</ele><time>2026-04-11T12:31:57.984Z</time></trkpt><trkpt lat="45.8652602" lon="11.695183"><ele>1112.5</ele><time>2026-04-11T12:31:58.964Z</time></trkpt><trkpt lat="45.8652545" lon="11.6953478"><ele>1104.0</ele><time>2026-04-11T12:31:59.976Z</time></trkpt><trkpt lat="45.8652597" lon="11.6955261"><ele>1103.2</ele><time>2026-04-11T12:32:00.983Z</time></trkpt><trkpt lat="45.8652704" lon="11.6957109"><ele>1102.4</ele><time>2026-04-11T12:32:01.973Z</time></trkpt><trkpt lat="45.8652671" lon="11.6958718"><ele>1101.6</ele><time>2026-04-11T12:32:02.976Z</time></trkpt><trkpt lat="45.8652631" lon="11.6960087"><ele>1100.8</ele><time>2026-04-11T12:32:03.973Z</time></trkpt><trkpt lat="45.8652415" lon="11.6961639"><ele>1100.0</ele><time>2026-04-11T12:32:04.975Z</time></trkpt><trkpt lat="45.8652089" lon="11.6963233"><ele>1098.8</ele><time>2026-04-11T12:32:05.983Z</time></trkpt><trkpt lat="45.865176" lon="11.6964646"><ele>1097.6</ele><time>2026-04-11T12:32:06.975Z</time></trkpt><trkpt lat="45.8651354" lon="11.6966138"><ele>1096.4</ele><time>2026-04-11T12:32:07.974Z</time></trkpt><trkpt lat="45.8650958" lon="11.6967683"><ele>1095.2</ele><time>2026-04-11T12:32:08.969Z</time></trkpt><trkpt lat="45.8650531" lon="11.6969222"><ele>1094.0</ele><time>2026-04-11T12:32:09.972Z</time></trkpt><trkpt lat="45.8650092" lon="11.6970456"><ele>1097.0</ele><time>2026-04-11T12:32:10.974Z</time></trkpt><trkpt lat="45.8649587" lon="11.6971527"><ele>1100.0</ele><time>2026-04-11T12:32:11.969Z</time></trkpt><trkpt lat="45.8648907" lon="11.6972479"><ele>1103.0</ele><time>2026-04-11T12:32:12.964Z</time></trkpt><trkpt lat="45.8648135" lon="11.6973367"><ele>1106.0</ele><time>2026-04-11T12:32:13.975Z</time></trkpt><trkpt lat="45.8647351" lon="11.6974101"><ele>1109.0</ele><time>2026-04-11T12:32:14.972Z</time></trkpt><trkpt lat="45.8646656" lon="11.6974906"><ele>1109.0</ele><time>2026-04-11T12:32:15.98Z</time></trkpt><trkpt lat="45.8646159" lon="11.6975985"><ele>1109.0</ele><time>2026-04-11T12:32:16.971Z</time></trkpt><trkpt lat="45.8645885" lon="11.6977389"><ele>1109.0</ele><time>2026-04-11T12:32:17.962Z</time></trkpt><trkpt lat="45.8645852" lon="11.6978555"><ele>1109.0</ele><time>2026-04-11T12:32:18.967Z</time></trkpt><trkpt lat="45.8645221" lon="11.698021"><ele>1109.0</ele><time>2026-04-11T12:32:20.976Z</time></trkpt><trkpt lat="45.864451" lon="11.6980581"><ele>1107.6666666666667</ele><time>2026-04-11T12:32:21.961Z</time></trkpt><trkpt lat="45.8643571" lon="11.6980885"><ele>1106.3333333333335</ele><time>2026-04-11T12:32:22.971Z</time></trkpt><trkpt lat="45.8642788" lon="11.6981275"><ele>1105.0</ele><time>2026-04-11T12:32:23.968Z</time></trkpt><trkpt lat="45.8642263" lon="11.6981792"><ele>1103.6666666666667</ele><time>2026-04-11T12:32:24.971Z</time></trkpt><trkpt lat="45.8641889" lon="11.6982828"><ele>1102.3333333333333</ele><time>2026-04-11T12:32:25.971Z</time></trkpt><trkpt lat="45.864175" lon="11.6983764"><ele>1101.0</ele><time>2026-04-11T12:32:26.972Z</time></trkpt><trkpt lat="45.8641877" lon="11.6985249"><ele>1101.6</ele><time>2026-04-11T12:32:28.982Z</time></trkpt><trkpt lat="45.8642729" lon="11.6985888"><ele>1102.1999999999998</ele><time>2026-04-11T12:32:30.972Z</time></trkpt><trkpt lat="45.8644004" lon="11.6986443"><ele>1102.8000000000002</ele><time>2026-04-11T12:32:32.976Z</time></trkpt><trkpt lat="45.8644777" lon="11.6986708"><ele>1103.4</ele><time>2026-04-11T12:32:33.969Z</time></trkpt><trkpt lat="45.8645594" lon="11.6987112"><ele>1104.0</ele><time>2026-04-11T12:32:34.972Z</time></trkpt><trkpt lat="45.8646284" lon="11.6987573"><ele>1104.0</ele><time>2026-04-11T12:32:35.972Z</time></trkpt><trkpt lat="45.8646918" lon="11.6988094"><ele>1104.0</ele><time>2026-04-11T12:32:36.97Z</time></trkpt><trkpt lat="45.8647509" lon="11.6988886"><ele>1104.0</ele><time>2026-04-11T12:32:37.979Z</time></trkpt><trkpt lat="45.864804" lon="11.6989992"><ele>1104.0</ele><time>2026-04-11T12:32:38.982Z</time></trkpt><trkpt lat="45.8648463" lon="11.6991361"><ele>1104.0</ele><time>2026-04-11T12:32:39.974Z</time></trkpt><trkpt lat="45.8648881" lon="11.6992586"><ele>1104.0</ele><time>2026-04-11T12:32:40.98Z</time></trkpt><trkpt lat="45.864937" lon="11.6993693"><ele>1105.6666666666667</ele><time>2026-04-11T12:32:41.982Z</time></trkpt><trkpt lat="45.8649799" lon="11.6994672"><ele>1107.3333333333333</ele><time>2026-04-11T12:32:42.97Z</time></trkpt><trkpt lat="45.8650157" lon="11.6995609"><ele>1109.0</ele><time>2026-04-11T12:32:43.97Z</time></trkpt><trkpt lat="45.8650549" lon="11.6996455"><ele>1110.6666666666665</ele><time>2026-04-11T12:32:44.976Z</time></trkpt><trkpt lat="45.8650795" lon="11.6997379"><ele>1112.3333333333333</ele><time>2026-04-11T12:32:45.973Z</time></trkpt><trkpt lat="45.865106" lon="11.6998377"><ele>1114.0</ele><time>2026-04-11T12:32:46.98Z</time></trkpt><trkpt lat="45.8651239" lon="11.6999582"><ele>1114.0</ele><time>2026-04-11T12:32:47.97Z</time></trkpt><trkpt lat="45.8651607" lon="11.7000666"><ele>1114.0</ele><time>2026-04-11T12:32:48.977Z</time></trkpt><trkpt lat="45.8651884" lon="11.7001688"><ele>1114.0</ele><time>2026-04-11T12:32:49.977Z</time></trkpt><trkpt lat="45.8652502" lon="11.700225"><ele>1114.0</ele><time>2026-04-11T12:32:50.97Z</time></trkpt><trkpt lat="45.8653177" lon="11.700245"><ele>1114.0</ele><time>2026-04-11T12:32:51.978Z</time></trkpt><trkpt lat="45.8653928" lon="11.7002306"><ele>1114.0</ele><time>2026-04-11T12:32:52.976Z</time></trkpt><trkpt lat="45.8654792" lon="11.7001879"><ele>1114.0</ele><time>2026-04-11T12:32:53.972Z</time></trkpt><trkpt lat="45.8655662" lon="11.7001432"><ele>1114.0</ele><time>2026-04-11T12:32:54.969Z</time></trkpt><trkpt lat="45.8656567" lon="11.7000978"><ele>1114.0</ele><time>2026-04-11T12:32:55.979Z</time></trkpt><trkpt lat="45.8657584" lon="11.7000798"><ele>1114.0</ele><time>2026-04-11T12:32:56.972Z</time></trkpt><trkpt lat="45.8658641" lon="11.7000616"><ele>1114.0</ele><time>2026-04-11T12:32:57.981Z</time></trkpt><trkpt lat="45.8659824" lon="11.7000628"><ele>1117.25</ele><time>2026-04-11T12:32:58.983Z</time></trkpt><trkpt lat="45.8660986" lon="11.7000636"><ele>1120.5</ele><time>2026-04-11T12:32:59.972Z</time></trkpt><trkpt lat="45.8662153" lon="11.7000638"><ele>1123.75</ele><time>2026-04-11T12:33:00.971Z</time></trkpt><trkpt lat="45.8663365" lon="11.7000359"><ele>1127.0</ele><time>2026-04-11T12:33:01.982Z</time></trkpt><trkpt lat="45.8664633" lon="11.700026"><ele>1127.0</ele><time>2026-04-11T12:33:02.966Z</time></trkpt><trkpt lat="45.8665863" lon="11.6999878"><ele>1127.0</ele><time>2026-04-11T12:33:03.965Z</time></trkpt><trkpt lat="45.8667077" lon="11.6999377"><ele>1127.0</ele><time>2026-04-11T12:33:04.969Z</time></trkpt><trkpt lat="45.8668232" lon="11.6998726"><ele>1127.0</ele><time>2026-04-11T12:33:05.977Z</time></trkpt><trkpt lat="45.8669361" lon="11.6998038"><ele>1128.4</ele><time>2026-04-11T12:33:06.966Z</time></trkpt><trkpt lat="45.8670361" lon="11.6997402"><ele>1129.8000000000002</ele><time>2026-04-11T12:33:07.969Z</time></trkpt><trkpt lat="45.8671233" lon="11.699695"><ele>1131.2</ele><time>2026-04-11T12:33:08.968Z</time></trkpt><trkpt lat="45.8672031" lon="11.6996682"><ele>1132.6000000000001</ele><time>2026-04-11T12:33:09.974Z</time></trkpt><trkpt lat="45.8672852" lon="11.6996737"><ele>1134.0</ele><time>2026-04-11T12:33:10.975Z</time></trkpt><trkpt lat="45.8673803" lon="11.6997172"><ele>1134.0</ele><time>2026-04-11T12:33:11.976Z</time></trkpt><trkpt lat="45.8674645" lon="11.6997782"><ele>1134.0</ele><time>2026-04-11T12:33:12.969Z</time></trkpt><trkpt lat="45.8675375" lon="11.6998681"><ele>1134.0</ele><time>2026-04-11T12:33:13.962Z</time></trkpt><trkpt lat="45.8676174" lon="11.6999767"><ele>1134.0</ele><time>2026-04-11T12:33:14.982Z</time></trkpt><trkpt lat="45.867701" lon="11.7000775"><ele>1134.0</ele><time>2026-04-11T12:33:15.978Z</time></trkpt><trkpt lat="45.8677812" lon="11.7001467"><ele>1134.7142857142858</ele><time>2026-04-11T12:33:16.968Z</time></trkpt><trkpt lat="45.8678347" lon="11.7002131"><ele>1135.4285714285716</ele><time>2026-04-11T12:33:17.972Z</time></trkpt><trkpt lat="45.8678853" lon="11.7002826"><ele>1136.142857142857</ele><time>2026-04-11T12:33:18.98Z</time></trkpt><trkpt lat="45.8679241" lon="11.7003685"><ele>1136.857142857143</ele><time>2026-04-11T12:33:19.97Z</time></trkpt><trkpt lat="45.8679599" lon="11.7004701"><ele>1137.5714285714287</ele><time>2026-04-11T12:33:20.967Z</time></trkpt><trkpt lat="45.8679794" lon="11.700583"><ele>1138.2857142857142</ele><time>2026-04-11T12:33:21.966Z</time></trkpt><trkpt lat="45.8679917" lon="11.7006817"><ele>1139.0</ele><time>2026-04-11T12:33:22.973Z</time></trkpt><trkpt lat="45.8680071" lon="11.7007809"><ele>1139.0</ele><time>2026-04-11T12:33:23.971Z</time></trkpt><trkpt lat="45.8680886" lon="11.7008789"><ele>1139.0</ele><time>2026-04-11T12:33:25.977Z</time></trkpt><trkpt lat="45.8681702" lon="11.7009164"><ele>1139.0</ele><time>2026-04-11T12:33:26.974Z</time></trkpt><trkpt lat="45.8682518" lon="11.7009463"><ele>1139.0</ele><time>2026-04-11T12:33:27.969Z</time></trkpt><trkpt lat="45.868331" lon="11.7009904"><ele>1139.0</ele><time>2026-04-11T12:33:28.971Z</time></trkpt><trkpt lat="45.868391" lon="11.7010346"><ele>1139.0</ele><time>2026-04-11T12:33:29.974Z</time></trkpt><trkpt lat="45.8684424" lon="11.7010926"><ele>1145.6000000000001</ele><time>2026-04-11T12:33:30.982Z</time></trkpt><trkpt lat="45.86854" lon="11.7011792"><ele>1152.2</ele><time>2026-04-11T12:33:39.972Z</time></trkpt><trkpt lat="45.8686133" lon="11.7012218"><ele>1158.8000000000002</ele><time>2026-04-11T12:33:41.978Z</time></trkpt><trkpt lat="45.8687324" lon="11.7012758"><ele>1165.4</ele><time>2026-04-11T12:33:43.965Z</time></trkpt><trkpt lat="45.868807" lon="11.7012854"><ele>1172.0</ele><time>2026-04-11T12:33:44.966Z</time></trkpt><trkpt lat="45.8688741" lon="11.7012474"><ele>1172.0</ele><time>2026-04-11T12:33:45.974Z</time></trkpt><trkpt lat="45.8689297" lon="11.7011668"><ele>1172.0</ele><time>2026-04-11T12:33:46.984Z</time></trkpt><trkpt lat="45.8690034" lon="11.7010802"><ele>1172.0</ele><time>2026-04-11T12:33:47.967Z</time></trkpt><trkpt lat="45.8690766" lon="11.7009768"><ele>1172.0</ele><time>2026-04-11T12:33:48.976Z</time></trkpt><trkpt lat="45.8691398" lon="11.7008634"><ele>1172.0</ele><time>2026-04-11T12:33:49.97Z</time></trkpt><trkpt lat="45.8691957" lon="11.700727"><ele>1171.0</ele><time>2026-04-11T12:33:50.979Z</time></trkpt><trkpt lat="45.8692299" lon="11.7005632"><ele>1170.0</ele><time>2026-04-11T12:33:51.971Z</time></trkpt><trkpt lat="45.8692609" lon="11.7004016"><ele>1169.0</ele><time>2026-04-11T12:33:52.975Z</time></trkpt><trkpt lat="45.8692906" lon="11.7002463"><ele>1168.0</ele><time>2026-04-11T12:33:53.994Z</time></trkpt><trkpt lat="45.8693119" lon="11.7000961"><ele>1168.0</ele><time>2026-04-11T12:33:54.967Z</time></trkpt><trkpt lat="45.8693353" lon="11.6999443"><ele>1168.0</ele><time>2026-04-11T12:33:55.967Z</time></trkpt><trkpt lat="45.8693628" lon="11.6997985"><ele>1168.0</ele><time>2026-04-11T12:33:56.973Z</time></trkpt><trkpt lat="45.8694154" lon="11.6996626"><ele>1168.0</ele><time>2026-04-11T12:33:57.971Z</time></trkpt><trkpt lat="45.8694774" lon="11.6995297"><ele>1168.0</ele><time>2026-04-11T12:33:58.973Z</time></trkpt><trkpt lat="45.8695456" lon="11.6993785"><ele>1164.2</ele><time>2026-04-11T12:33:59.967Z</time></trkpt><trkpt lat="45.8696001" lon="11.6992313"><ele>1160.4</ele><time>2026-04-11T12:34:00.975Z</time></trkpt><trkpt lat="45.8696491" lon="11.6990905"><ele>1156.6000000000001</ele><time>2026-04-11T12:34:01.98Z</time></trkpt><trkpt lat="45.869671" lon="11.6989588"><ele>1152.8</ele><time>2026-04-11T12:34:02.969Z</time></trkpt><trkpt lat="45.8696957" lon="11.6988608"><ele>1149.0</ele><time>2026-04-11T12:34:03.969Z</time></trkpt><trkpt lat="45.8697355" lon="11.6987786"><ele>1149.0</ele><time>2026-04-11T12:34:04.976Z</time></trkpt><trkpt lat="45.8697849" lon="11.6987029"><ele>1149.0</ele><time>2026-04-11T12:34:05.983Z</time></trkpt><trkpt lat="45.8698499" lon="11.6986306"><ele>1149.0</ele><time>2026-04-11T12:34:06.964Z</time></trkpt><trkpt lat="45.869928" lon="11.6985725"><ele>1149.0</ele><time>2026-04-11T12:34:07.984Z</time></trkpt><trkpt lat="45.87001" lon="11.6985077"><ele>1149.0</ele><time>2026-04-11T12:34:08.971Z</time></trkpt><trkpt lat="45.8700989" lon="11.698447"><ele>1149.0</ele><time>2026-04-11T12:34:09.97Z</time></trkpt><trkpt lat="45.8701968" lon="11.6983899"><ele>1145.8</ele><time>2026-04-11T12:34:10.97Z</time></trkpt><trkpt lat="45.8702953" lon="11.6983319"><ele>1142.6000000000001</ele><time>2026-04-11T12:34:11.973Z</time></trkpt><trkpt lat="45.8703957" lon="11.6982672"><ele>1139.4</ele><time>2026-04-11T12:34:12.975Z</time></trkpt><trkpt lat="45.8704882" lon="11.6982002"><ele>1136.2</ele><time>2026-04-11T12:34:13.981Z</time></trkpt><trkpt lat="45.8705583" lon="11.698143"><ele>1133.0</ele><time>2026-04-11T12:34:14.972Z</time></trkpt><trkpt lat="45.8706294" lon="11.6981203"><ele>1133.0</ele><time>2026-04-11T12:34:15.976Z</time></trkpt><trkpt lat="45.8706955" lon="11.6981043"><ele>1133.0</ele><time>2026-04-11T12:34:16.973Z</time></trkpt><trkpt lat="45.8707616" lon="11.6981228"><ele>1133.0</ele><time>2026-04-11T12:34:17.974Z</time></trkpt><trkpt lat="45.8708237" lon="11.6981736"><ele>1133.0</ele><time>2026-04-11T12:34:18.977Z</time></trkpt><trkpt lat="45.8708862" lon="11.6982497"><ele>1133.0</ele><time>2026-04-11T12:34:19.975Z</time></trkpt><trkpt lat="45.8709575" lon="11.6983406"><ele>1133.0</ele><time>2026-04-11T12:34:20.975Z</time></trkpt><trkpt lat="45.8710547" lon="11.6984024"><ele>1131.0</ele><time>2026-04-11T12:34:21.973Z</time></trkpt><trkpt lat="45.8711598" lon="11.6984633"><ele>1129.0</ele><time>2026-04-11T12:34:22.976Z</time></trkpt><trkpt lat="45.8712768" lon="11.6984934"><ele>1127.0</ele><time>2026-04-11T12:34:23.97Z</time></trkpt><trkpt lat="45.8713906" lon="11.6985059"><ele>1125.0</ele><time>2026-04-11T12:34:24.97Z</time></trkpt><trkpt lat="45.8715024" lon="11.6985176"><ele>1125.0</ele><time>2026-04-11T12:34:25.976Z</time></trkpt><trkpt lat="45.8716083" lon="11.6985256"><ele>1125.0</ele><time>2026-04-11T12:34:26.97Z</time></trkpt><trkpt lat="45.8717035" lon="11.6985262"><ele>1125.0</ele><time>2026-04-11T12:34:27.975Z</time></trkpt><trkpt lat="45.8717862" lon="11.6985258"><ele>1125.0</ele><time>2026-04-11T12:34:28.961Z</time></trkpt><trkpt lat="45.8718666" lon="11.6985414"><ele>1125.0</ele><time>2026-04-11T12:34:29.975Z</time></trkpt><trkpt lat="45.871957" lon="11.698579"><ele>1128.1666666666667</ele><time>2026-04-11T12:34:30.967Z</time></trkpt><trkpt lat="45.8720416" lon="11.6986216"><ele>1131.3333333333333</ele><time>2026-04-11T12:34:31.972Z</time></trkpt><trkpt lat="45.8721204" lon="11.6986674"><ele>1134.5</ele><time>2026-04-11T12:34:32.968Z</time></trkpt><trkpt lat="45.8722005" lon="11.6987158"><ele>1137.6666666666665</ele><time>2026-04-11T12:34:33.976Z</time></trkpt><trkpt lat="45.8722762" lon="11.6987681"><ele>1140.8333333333333</ele><time>2026-04-11T12:34:34.982Z</time></trkpt><trkpt lat="45.8723591" lon="11.6988328"><ele>1144.0</ele><time>2026-04-11T12:34:35.968Z</time></trkpt><trkpt lat="45.8724318" lon="11.6988962"><ele>1144.0</ele><time>2026-04-11T12:34:36.971Z</time></trkpt><trkpt lat="45.8724907" lon="11.6989457"><ele>1144.0</ele><time>2026-04-11T12:34:37.979Z</time></trkpt><trkpt lat="45.8725764" lon="11.6989868"><ele>1144.0</ele><time>2026-04-11T12:34:39.975Z</time></trkpt><trkpt lat="45.872648" lon="11.6988699"><ele>1144.0</ele><time>2026-04-11T12:34:41.973Z</time></trkpt><trkpt lat="45.8726483" lon="11.6987672"><ele>1144.0</ele><time>2026-04-11T12:34:42.973Z</time></trkpt><trkpt lat="45.8726473" lon="11.6986523"><ele>1144.0</ele><time>2026-04-11T12:34:43.972Z</time></trkpt><trkpt lat="45.8726214" lon="11.6985354"><ele>1142.1666666666665</ele><time>2026-04-11T12:34:44.98Z</time></trkpt><trkpt lat="45.8726072" lon="11.6984262"><ele>1140.3333333333333</ele><time>2026-04-11T12:34:45.98Z</time></trkpt><trkpt lat="45.8726168" lon="11.698256"><ele>1138.5</ele><time>2026-04-11T12:34:47.968Z</time></trkpt><trkpt lat="45.8726964" lon="11.6981754"><ele>1136.6666666666667</ele><time>2026-04-11T12:34:49.987Z</time></trkpt><trkpt lat="45.8727658" lon="11.6981579"><ele>1134.8333333333335</ele><time>2026-04-11T12:34:50.976Z</time></trkpt><trkpt lat="45.8728458" lon="11.698148"><ele>1133.0</ele><time>2026-04-11T12:34:51.971Z</time></trkpt><trkpt lat="45.8729341" lon="11.6981437"><ele>1133.0</ele><time>2026-04-11T12:34:52.968Z</time></trkpt><trkpt lat="45.8730139" lon="11.6981452"><ele>1133.0</ele><time>2026-04-11T12:34:53.974Z</time></trkpt><trkpt lat="45.8731071" lon="11.6981451"><ele>1133.0</ele><time>2026-04-11T12:34:54.974Z</time></trkpt><trkpt lat="45.8731872" lon="11.6981497"><ele>1133.0</ele><time>2026-04-11T12:34:55.965Z</time></trkpt><trkpt lat="45.8732702" lon="11.69815"><ele>1133.0</ele><time>2026-04-11T12:34:56.978Z</time></trkpt><trkpt lat="45.8733614" lon="11.6981327"><ele>1133.0</ele><time>2026-04-11T12:34:57.974Z</time></trkpt><trkpt lat="45.8734404" lon="11.6980825"><ele>1133.0</ele><time>2026-04-11T12:34:58.973Z</time></trkpt><trkpt lat="45.8735089" lon="11.698049"><ele>1133.0</ele><time>2026-04-11T12:34:59.987Z</time></trkpt><trkpt lat="45.8736439" lon="11.6980516"><ele>1133.0</ele><time>2026-04-11T12:35:01.973Z</time></trkpt><trkpt lat="45.8737286" lon="11.6980739"><ele>1133.0</ele><time>2026-04-11T12:35:02.966Z</time></trkpt><trkpt lat="45.8738219" lon="11.6980959"><ele>1133.0</ele><time>2026-04-11T12:35:03.978Z</time></trkpt><trkpt lat="45.8739135" lon="11.6981053"><ele>1133.0</ele><time>2026-04-11T12:35:04.969Z</time></trkpt><trkpt lat="45.8739911" lon="11.6980875"><ele>1133.0</ele><time>2026-04-11T12:35:05.968Z</time></trkpt><trkpt lat="45.8740575" lon="11.6980495"><ele>1133.0</ele><time>2026-04-11T12:35:06.971Z</time></trkpt><trkpt lat="45.8741306" lon="11.6980333"><ele>1133.0</ele><time>2026-04-11T12:35:07.97Z</time></trkpt><trkpt lat="45.8742108" lon="11.6980226"><ele>1133.0</ele><time>2026-04-11T12:35:08.968Z</time></trkpt><trkpt lat="45.8742913" lon="11.69804"><ele>1133.0</ele><time>2026-04-11T12:35:09.996Z</time></trkpt><trkpt lat="45.8743772" lon="11.6980841"><ele>1131.2</ele><time>2026-04-11T12:35:10.974Z</time></trkpt><trkpt lat="45.8744684" lon="11.6981412"><ele>1129.4</ele><time>2026-04-11T12:35:11.971Z</time></trkpt><trkpt lat="45.8745661" lon="11.6981986"><ele>1127.6000000000001</ele><time>2026-04-11T12:35:12.976Z</time></trkpt><trkpt lat="45.8746726" lon="11.6982553"><ele>1125.8</ele><time>2026-04-11T12:35:13.963Z</time></trkpt><trkpt lat="45.8747884" lon="11.6983013"><ele>1124.0</ele><time>2026-04-11T12:35:14.968Z</time></trkpt><trkpt lat="45.8749075" lon="11.6983289"><ele>1124.0</ele><time>2026-04-11T12:35:15.968Z</time></trkpt><trkpt lat="45.8750187" lon="11.6983583"><ele>1124.0</ele><time>2026-04-11T12:35:16.98Z</time></trkpt><trkpt lat="45.8751229" lon="11.6983817"><ele>1124.0</ele><time>2026-04-11T12:35:17.976Z</time></trkpt><trkpt lat="45.8752273" lon="11.69839"><ele>1124.0</ele><time>2026-04-11T12:35:18.963Z</time></trkpt><trkpt lat="45.8753401" lon="11.6983513"><ele>1124.0</ele><time>2026-04-11T12:35:19.969Z</time></trkpt><trkpt lat="45.8754339" lon="11.6983224"><ele>1121.0</ele><time>2026-04-11T12:35:20.985Z</time></trkpt><trkpt lat="45.8755225" lon="11.6983083"><ele>1118.0</ele><time>2026-04-11T12:35:21.966Z</time></trkpt><trkpt lat="45.875621" lon="11.6982836"><ele>1115.0</ele><time>2026-04-11T12:35:22.968Z</time></trkpt><trkpt lat="45.8757197" lon="11.6982498"><ele>1112.0</ele><time>2026-04-11T12:35:23.976Z</time></trkpt><trkpt lat="45.8757964" lon="11.6982274"><ele>1109.0</ele><time>2026-04-11T12:35:24.979Z</time></trkpt><trkpt lat="45.875899" lon="11.6982299"><ele>1109.0</ele><time>2026-04-11T12:35:26.976Z</time></trkpt><trkpt lat="45.8759904" lon="11.6983514"><ele>1109.0</ele><time>2026-04-11T12:35:28.972Z</time></trkpt><trkpt lat="45.876022" lon="11.698476"><ele>1109.0</ele><time>2026-04-11T12:35:29.971Z</time></trkpt><trkpt lat="45.8760729" lon="11.6986127"><ele>1109.0</ele><time>2026-04-11T12:35:30.97Z</time></trkpt><trkpt lat="45.8761304" lon="11.6987499"><ele>1109.0</ele><time>2026-04-11T12:35:31.975Z</time></trkpt><trkpt lat="45.8761713" lon="11.698878"><ele>1109.0</ele><time>2026-04-11T12:35:32.961Z</time></trkpt><trkpt lat="45.8762169" lon="11.6990021"><ele>1109.0</ele><time>2026-04-11T12:35:33.967Z</time></trkpt><trkpt lat="45.8762827" lon="11.6991156"><ele>1109.0</ele><time>2026-04-11T12:35:34.97Z</time></trkpt><trkpt lat="45.8763627" lon="11.6992029"><ele>1109.0</ele><time>2026-04-11T12:35:35.974Z</time></trkpt><trkpt lat="45.8764544" lon="11.6992892"><ele>1109.0</ele><time>2026-04-11T12:35:36.974Z</time></trkpt><trkpt lat="45.8765321" lon="11.6993673"><ele>1114.6666666666667</ele><time>2026-04-11T12:35:37.968Z</time></trkpt><trkpt lat="45.8766137" lon="11.6994421"><ele>1120.3333333333335</ele><time>2026-04-11T12:35:38.971Z</time></trkpt><trkpt lat="45.876713" lon="11.6994891"><ele>1126.0</ele><time>2026-04-11T12:35:39.975Z</time></trkpt><trkpt lat="45.8768066" lon="11.6995255"><ele>1131.6666666666667</ele><time>2026-04-11T12:35:40.983Z</time></trkpt><trkpt lat="45.8768829" lon="11.6995327"><ele>1137.3333333333333</ele><time>2026-04-11T12:35:41.971Z</time></trkpt><trkpt lat="45.8769513" lon="11.6995253"><ele>1143.0</ele><time>2026-04-11T12:35:42.964Z</time></trkpt><trkpt lat="45.8770419" lon="11.6994695"><ele>1136.2</ele><time>2026-04-11T12:35:43.964Z</time></trkpt><trkpt lat="45.877146" lon="11.699371"><ele>1129.4</ele><time>2026-04-11T12:35:44.972Z</time></trkpt><trkpt lat="45.8772432" lon="11.6992905"><ele>1122.6000000000001</ele><time>2026-04-11T12:35:45.969Z</time></trkpt><trkpt lat="45.8773392" lon="11.6992569"><ele>1115.8</ele><time>2026-04-11T12:35:46.971Z</time></trkpt><trkpt lat="45.8774149" lon="11.6992215"><ele>1109.0</ele><time>2026-04-11T12:35:47.966Z</time></trkpt><trkpt lat="45.8774905" lon="11.6991655"><ele>1109.0</ele><time>2026-04-11T12:35:48.975Z</time></trkpt><trkpt lat="45.8775614" lon="11.6990795"><ele>1109.0</ele><time>2026-04-11T12:35:49.969Z</time></trkpt><trkpt lat="45.8776176" lon="11.6989407"><ele>1109.0</ele><time>2026-04-11T12:35:50.961Z</time></trkpt><trkpt lat="45.8776451" lon="11.6987927"><ele>1109.0</ele><time>2026-04-11T12:35:51.966Z</time></trkpt><trkpt lat="45.8776643" lon="11.6986535"><ele>1109.0</ele><time>2026-04-11T12:35:52.978Z</time></trkpt><trkpt lat="45.8777044" lon="11.6985343"><ele>1106.4</ele><time>2026-04-11T12:35:53.979Z</time></trkpt><trkpt lat="45.8777756" lon="11.6984488"><ele>1103.8000000000002</ele><time>2026-04-11T12:35:54.968Z</time></trkpt><trkpt lat="45.877867" lon="11.698383"><ele>1101.1999999999998</ele><time>2026-04-11T12:35:55.979Z</time></trkpt><trkpt lat="45.877976" lon="11.6983186"><ele>1098.6</ele><time>2026-04-11T12:35:56.979Z</time></trkpt><trkpt lat="45.8780781" lon="11.6982595"><ele>1096.0</ele><time>2026-04-11T12:35:57.972Z</time></trkpt><trkpt lat="45.8781591" lon="11.6982017"><ele>1096.0</ele><time>2026-04-11T12:35:58.977Z</time></trkpt><trkpt lat="45.8782391" lon="11.6981621"><ele>1096.0</ele><time>2026-04-11T12:35:59.98Z</time></trkpt><trkpt lat="45.8783107" lon="11.6981285"><ele>1096.0</ele><time>2026-04-11T12:36:00.97Z</time></trkpt><trkpt lat="45.8783846" lon="11.6981313"><ele>1096.0</ele><time>2026-04-11T12:36:02.011Z</time></trkpt><trkpt lat="45.8784603" lon="11.6981489"><ele>1096.0</ele><time>2026-04-11T12:36:02.976Z</time></trkpt><trkpt lat="45.8785267" lon="11.6981734"><ele>1096.0</ele><time>2026-04-11T12:36:03.974Z</time></trkpt><trkpt lat="45.8786157" lon="11.6982274"><ele>1098.3333333333333</ele><time>2026-04-11T12:36:05.977Z</time></trkpt><trkpt lat="45.8786522" lon="11.6983053"><ele>1100.6666666666665</ele><time>2026-04-11T12:36:06.973Z</time></trkpt><trkpt lat="45.878691" lon="11.6984042"><ele>1103.0</ele><time>2026-04-11T12:36:07.972Z</time></trkpt><trkpt lat="45.8787543" lon="11.6985057"><ele>1105.3333333333333</ele><time>2026-04-11T12:36:08.976Z</time></trkpt><trkpt lat="45.8788382" lon="11.69859"><ele>1107.6666666666667</ele><time>2026-04-11T12:36:09.985Z</time></trkpt><trkpt lat="45.8789313" lon="11.6986609"><ele>1110.0</ele><time>2026-04-11T12:36:10.992Z</time></trkpt><trkpt lat="45.8790307" lon="11.698724"><ele>1110.0</ele><time>2026-04-11T12:36:11.981Z</time></trkpt><trkpt lat="45.8791356" lon="11.6987796"><ele>1110.0</ele><time>2026-04-11T12:36:12.969Z</time></trkpt><trkpt lat="45.8792431" lon="11.6988096"><ele>1110.0</ele><time>2026-04-11T12:36:13.973Z</time></trkpt><trkpt lat="45.8793272" lon="11.6988439"><ele>1110.0</ele><time>2026-04-11T12:36:14.974Z</time></trkpt><trkpt lat="45.879405" lon="11.6988741"><ele>1110.0</ele><time>2026-04-11T12:36:15.966Z</time></trkpt><trkpt lat="45.8794834" lon="11.6988979"><ele>1106.8</ele><time>2026-04-11T12:36:16.969Z</time></trkpt><trkpt lat="45.8795755" lon="11.6989041"><ele>1103.6</ele><time>2026-04-11T12:36:17.975Z</time></trkpt><trkpt lat="45.8796703" lon="11.6988959"><ele>1100.4</ele><time>2026-04-11T12:36:18.97Z</time></trkpt><trkpt lat="45.8797617" lon="11.6988855"><ele>1097.2</ele><time>2026-04-11T12:36:19.975Z</time></trkpt><trkpt lat="45.8798516" lon="11.6988798"><ele>1094.0</ele><time>2026-04-11T12:36:20.973Z</time></trkpt><trkpt lat="45.8799432" lon="11.6988735"><ele>1094.0</ele><time>2026-04-11T12:36:21.965Z</time></trkpt><trkpt lat="45.8800441" lon="11.6988636"><ele>1094.0</ele><time>2026-04-11T12:36:22.979Z</time></trkpt><trkpt lat="45.8801457" lon="11.6988319"><ele>1094.0</ele><time>2026-04-11T12:36:23.98Z</time></trkpt><trkpt lat="45.8802432" lon="11.698793"><ele>1094.0</ele><time>2026-04-11T12:36:24.969Z</time></trkpt><trkpt lat="45.8803278" lon="11.6987514"><ele>1094.0</ele><time>2026-04-11T12:36:25.98Z</time></trkpt><trkpt lat="45.8804017" lon="11.6987219"><ele>1089.5</ele><time>2026-04-11T12:36:26.979Z</time></trkpt><trkpt lat="45.8804647" lon="11.6987105"><ele>1085.0</ele><time>2026-04-11T12:36:27.981Z</time></trkpt><trkpt lat="45.8805766" lon="11.6987263"><ele>1080.5</ele><time>2026-04-11T12:36:29.988Z</time></trkpt><trkpt lat="45.8806536" lon="11.6987939"><ele>1076.0</ele><time>2026-04-11T12:36:31.977Z</time></trkpt><trkpt lat="45.8806988" lon="11.6989253"><ele>1071.5</ele><time>2026-04-11T12:36:33.982Z</time></trkpt><trkpt lat="45.8807087" lon="11.6990197"><ele>1067.0</ele><time>2026-04-11T12:36:34.975Z</time></trkpt><trkpt lat="45.8807124" lon="11.6991149"><ele>1066.9999999999998</ele><time>2026-04-11T12:36:35.971Z</time></trkpt><trkpt lat="45.8807157" lon="11.6992134"><ele>1067.0</ele><time>2026-04-11T12:36:36.974Z</time></trkpt><trkpt lat="45.8807202" lon="11.6993152"><ele>1067.0</ele><time>2026-04-11T12:36:37.97Z</time></trkpt><trkpt lat="45.8807261" lon="11.6994154"><ele>1067.0</ele><time>2026-04-11T12:36:38.973Z</time></trkpt><trkpt lat="45.8807306" lon="11.6995158"><ele>1067.0</ele><time>2026-04-11T12:36:39.977Z</time></trkpt><trkpt lat="45.8807337" lon="11.6996219"><ele>1066.9999999999998</ele><time>2026-04-11T12:36:40.968Z</time></trkpt><trkpt lat="45.8807312" lon="11.69973"><ele>1067.0</ele><time>2026-04-11T12:36:41.971Z</time></trkpt><trkpt lat="45.8807177" lon="11.6998469"><ele>1067.1666666666667</ele><time>2026-04-11T12:36:42.963Z</time></trkpt><trkpt lat="45.8807032" lon="11.6999586"><ele>1067.3333333333335</ele><time>2026-04-11T12:36:43.974Z</time></trkpt><trkpt lat="45.8806843" lon="11.7000792"><ele>1067.5</ele><time>2026-04-11T12:36:44.976Z</time></trkpt><trkpt lat="45.8806635" lon="11.7001998"><ele>1067.6666666666667</ele><time>2026-04-11T12:36:45.969Z</time></trkpt><trkpt lat="45.8806481" lon="11.7003302"><ele>1067.8333333333333</ele><time>2026-04-11T12:36:46.972Z</time></trkpt><trkpt lat="45.8806339" lon="11.7004601"><ele>1068.0</ele><time>2026-04-11T12:36:47.972Z</time></trkpt><trkpt lat="45.8806414" lon="11.7005794"><ele>1066.4</ele><time>2026-04-11T12:36:48.975Z</time></trkpt><trkpt lat="45.8806587" lon="11.7007105"><ele>1064.8</ele><time>2026-04-11T12:36:49.979Z</time></trkpt><trkpt lat="45.8806645" lon="11.700846"><ele>1063.2</ele><time>2026-04-11T12:36:50.992Z</time></trkpt><trkpt lat="45.8806595" lon="11.7009778"><ele>1061.6</ele><time>2026-04-11T12:36:51.983Z</time></trkpt><trkpt lat="45.8806512" lon="11.7011081"><ele>1060.0</ele><time>2026-04-11T12:36:52.974Z</time></trkpt><trkpt lat="45.880635" lon="11.7012237"><ele>1058.4</ele><time>2026-04-11T12:36:53.97Z</time></trkpt><trkpt lat="45.8806024" lon="11.701336"><ele>1056.8</ele><time>2026-04-11T12:36:54.974Z</time></trkpt><trkpt lat="45.8805568" lon="11.7014566"><ele>1055.2</ele><time>2026-04-11T12:36:55.982Z</time></trkpt><trkpt lat="45.8805093" lon="11.7015736"><ele>1053.6</ele><time>2026-04-11T12:36:56.976Z</time></trkpt><trkpt lat="45.8804661" lon="11.7016864"><ele>1052.0</ele><time>2026-04-11T12:36:57.971Z</time></trkpt><trkpt lat="45.8804057" lon="11.7017965"><ele>1052.0</ele><time>2026-04-11T12:36:58.974Z</time></trkpt><trkpt lat="45.8803329" lon="11.7018933"><ele>1052.0</ele><time>2026-04-11T12:36:59.971Z</time></trkpt><trkpt lat="45.880252" lon="11.7019994"><ele>1052.0</ele><time>2026-04-11T12:37:00.971Z</time></trkpt><trkpt lat="45.8801719" lon="11.7020993"><ele>1052.0</ele><time>2026-04-11T12:37:01.969Z</time></trkpt><trkpt lat="45.8800855" lon="11.7021952"><ele>1052.0</ele><time>2026-04-11T12:37:02.974Z</time></trkpt><trkpt lat="45.8799893" lon="11.7022895"><ele>1055.75</ele><time>2026-04-11T12:37:03.973Z</time></trkpt><trkpt lat="45.8798838" lon="11.7023864"><ele>1059.5</ele><time>2026-04-11T12:37:04.971Z</time></trkpt><trkpt lat="45.8797791" lon="11.7024739"><ele>1063.25</ele><time>2026-04-11T12:37:05.983Z</time></trkpt><trkpt lat="45.8796752" lon="11.7025541"><ele>1067.0</ele><time>2026-04-11T12:37:06.976Z</time></trkpt><trkpt lat="45.8795842" lon="11.7026423"><ele>1067.0</ele><time>2026-04-11T12:37:07.969Z</time></trkpt><trkpt lat="45.8795172" lon="11.702724"><ele>1067.0</ele><time>2026-04-11T12:37:08.974Z</time></trkpt><trkpt lat="45.8794574" lon="11.7028627"><ele>1067.0</ele><time>2026-04-11T12:37:10.973Z</time></trkpt><trkpt lat="45.879491" lon="11.7030235"><ele>1067.0</ele><time>2026-04-11T12:37:12.958Z</time></trkpt><trkpt lat="45.8796102" lon="11.7030904"><ele>1067.0</ele><time>2026-04-11T12:37:14.977Z</time></trkpt><trkpt lat="45.8796921" lon="11.7031119"><ele>1068.8</ele><time>2026-04-11T12:37:15.974Z</time></trkpt><trkpt lat="45.8797726" lon="11.7031169"><ele>1070.6</ele><time>2026-04-11T12:37:16.969Z</time></trkpt><trkpt lat="45.879866" lon="11.7031106"><ele>1072.3999999999999</ele><time>2026-04-11T12:37:17.971Z</time></trkpt><trkpt lat="45.8799747" lon="11.7030874"><ele>1074.2</ele><time>2026-04-11T12:37:18.988Z</time></trkpt><trkpt lat="45.8800875" lon="11.7030711"><ele>1076.0</ele><time>2026-04-11T12:37:19.963Z</time></trkpt><trkpt lat="45.8802085" lon="11.7030498"><ele>1078.25</ele><time>2026-04-11T12:37:20.97Z</time></trkpt><trkpt lat="45.8803267" lon="11.7030125"><ele>1080.5</ele><time>2026-04-11T12:37:21.972Z</time></trkpt><trkpt lat="45.8804545" lon="11.7029729"><ele>1082.75</ele><time>2026-04-11T12:37:22.971Z</time></trkpt><trkpt lat="45.8805856" lon="11.7029363"><ele>1085.0</ele><time>2026-04-11T12:37:23.964Z</time></trkpt><trkpt lat="45.8807159" lon="11.7029031"><ele>1085.0</ele><time>2026-04-11T12:37:24.967Z</time></trkpt><trkpt lat="45.8808408" lon="11.7028686"><ele>1085.0</ele><time>2026-04-11T12:37:25.965Z</time></trkpt><trkpt lat="45.880946" lon="11.7028495"><ele>1085.0</ele><time>2026-04-11T12:37:26.961Z</time></trkpt><trkpt lat="45.8810534" lon="11.7028316"><ele>1085.0</ele><time>2026-04-11T12:37:27.977Z</time></trkpt><trkpt lat="45.8811267" lon="11.7028181"><ele>1085.0</ele><time>2026-04-11T12:37:28.968Z</time></trkpt><trkpt lat="45.8812134" lon="11.7028059"><ele>1085.6</ele><time>2026-04-11T12:37:29.965Z</time></trkpt><trkpt lat="45.8813101" lon="11.702796"><ele>1086.2</ele><time>2026-04-11T12:37:30.976Z</time></trkpt><trkpt lat="45.8814202" lon="11.7028006"><ele>1086.8</ele><time>2026-04-11T12:37:31.984Z</time></trkpt><trkpt lat="45.8815195" lon="11.7028131"><ele>1087.4</ele><time>2026-04-11T12:37:32.972Z</time></trkpt><trkpt lat="45.8815954" lon="11.7028459"><ele>1088.0</ele><time>2026-04-11T12:37:33.963Z</time></trkpt><trkpt lat="45.881677" lon="11.7028858"><ele>1088.0</ele><time>2026-04-11T12:37:34.968Z</time></trkpt><trkpt lat="45.8817449" lon="11.7029199"><ele>1088.0</ele><time>2026-04-11T12:37:35.969Z</time></trkpt><trkpt lat="45.8818174" lon="11.7029106"><ele>1088.0</ele><time>2026-04-11T12:37:36.972Z</time></trkpt><trkpt lat="45.8818781" lon="11.7028653"><ele>1088.0</ele><time>2026-04-11T12:37:37.973Z</time></trkpt><trkpt lat="45.8819217" lon="11.7027968"><ele>1088.0</ele><time>2026-04-11T12:37:38.976Z</time></trkpt><trkpt lat="45.8819828" lon="11.7027278"><ele>1088.0</ele><time>2026-04-11T12:37:39.984Z</time></trkpt><trkpt lat="45.8820848" lon="11.7026687"><ele>1083.0</ele><time>2026-04-11T12:37:41.972Z</time></trkpt><trkpt lat="45.8822013" lon="11.7026678"><ele>1078.0</ele><time>2026-04-11T12:37:43.97Z</time></trkpt><trkpt lat="45.8822939" lon="11.7025719"><ele>1073.0</ele><time>2026-04-11T12:37:45.976Z</time></trkpt><trkpt lat="45.8823314" lon="11.7024971"><ele>1068.0</ele><time>2026-04-11T12:37:46.972Z</time></trkpt><trkpt lat="45.8823994" lon="11.7023486"><ele>1063.0</ele><time>2026-04-11T12:37:48.981Z</time></trkpt><trkpt lat="45.882461" lon="11.7023012"><ele>1063.0</ele><time>2026-04-11T12:37:49.984Z</time></trkpt><trkpt lat="45.8825314" lon="11.7022684"><ele>1063.0</ele><time>2026-04-11T12:37:50.975Z</time></trkpt><trkpt lat="45.8826088" lon="11.7022388"><ele>1063.0</ele><time>2026-04-11T12:37:51.972Z</time></trkpt><trkpt lat="45.8826979" lon="11.7022102"><ele>1063.0</ele><time>2026-04-11T12:37:52.974Z</time></trkpt><trkpt lat="45.8828001" lon="11.7021873"><ele>1063.0</ele><time>2026-04-11T12:37:53.971Z</time></trkpt><trkpt lat="45.8828967" lon="11.7021716"><ele>1063.0</ele><time>2026-04-11T12:37:54.967Z</time></trkpt><trkpt lat="45.8829928" lon="11.7021718"><ele>1064.4</ele><time>2026-04-11T12:37:55.97Z</time></trkpt><trkpt lat="45.8830826" lon="11.7021741"><ele>1065.8</ele><time>2026-04-11T12:37:56.977Z</time></trkpt><trkpt lat="45.8831736" lon="11.702146"><ele>1067.2</ele><time>2026-04-11T12:37:57.968Z</time></trkpt><trkpt lat="45.8832921" lon="11.7021244"><ele>1068.6</ele><time>2026-04-11T12:37:58.972Z</time></trkpt><trkpt lat="45.8833991" lon="11.7021043"><ele>1070.0</ele><time>2026-04-11T12:37:59.967Z</time></trkpt><trkpt lat="45.8835173" lon="11.7020733"><ele>1070.2</ele><time>2026-04-11T12:38:00.962Z</time></trkpt><trkpt lat="45.8836396" lon="11.7020455"><ele>1070.4</ele><time>2026-04-11T12:38:01.964Z</time></trkpt><trkpt lat="45.8837512" lon="11.7020173"><ele>1070.6</ele><time>2026-04-11T12:38:02.965Z</time></trkpt><trkpt lat="45.8838614" lon="11.7019966"><ele>1070.8</ele><time>2026-04-11T12:38:03.969Z</time></trkpt><trkpt lat="45.8839595" lon="11.7019672"><ele>1071.0</ele><time>2026-04-11T12:38:04.986Z</time></trkpt><trkpt lat="45.8840688" lon="11.701949"><ele>1071.0</ele><time>2026-04-11T12:38:05.965Z</time></trkpt><trkpt lat="45.8841638" lon="11.7019366"><ele>1071.0</ele><time>2026-04-11T12:38:06.976Z</time></trkpt><trkpt lat="45.8842525" lon="11.7019449"><ele>1071.0</ele><time>2026-04-11T12:38:07.978Z</time></trkpt><trkpt lat="45.8843436" lon="11.7019865"><ele>1071.0</ele><time>2026-04-11T12:38:08.974Z</time></trkpt><trkpt lat="45.8844417" lon="11.7020592"><ele>1071.0</ele><time>2026-04-11T12:38:09.97Z</time></trkpt><trkpt lat="45.8845501" lon="11.7021432"><ele>1066.5</ele><time>2026-04-11T12:38:10.965Z</time></trkpt><trkpt lat="45.8846604" lon="11.7022211"><ele>1062.0</ele><time>2026-04-11T12:38:11.976Z</time></trkpt><trkpt lat="45.8847731" lon="11.7023006"><ele>1057.5</ele><time>2026-04-11T12:38:12.966Z</time></trkpt><trkpt lat="45.8848766" lon="11.702377"><ele>1053.0</ele><time>2026-04-11T12:38:13.969Z</time></trkpt><trkpt lat="45.8849843" lon="11.7024514"><ele>1048.25</ele><time>2026-04-11T12:38:14.969Z</time></trkpt><trkpt lat="45.8851007" lon="11.7025152"><ele>1043.5</ele><time>2026-04-11T12:38:15.979Z</time></trkpt><trkpt lat="45.8852077" lon="11.7025692"><ele>1038.75</ele><time>2026-04-11T12:38:16.969Z</time></trkpt><trkpt lat="45.8853006" lon="11.7026263"><ele>1034.0</ele><time>2026-04-11T12:38:17.967Z</time></trkpt><trkpt lat="45.8853996" lon="11.7026972"><ele>1040.2</ele><time>2026-04-11T12:38:18.966Z</time></trkpt><trkpt lat="45.8854869" lon="11.702786"><ele>1046.4</ele><time>2026-04-11T12:38:19.971Z</time></trkpt><trkpt lat="45.8855745" lon="11.7028767"><ele>1052.6</ele><time>2026-04-11T12:38:20.972Z</time></trkpt><trkpt lat="45.8856521" lon="11.7029586"><ele>1058.8</ele><time>2026-04-11T12:38:21.978Z</time></trkpt><trkpt lat="45.8857318" lon="11.7030269"><ele>1065.0</ele><time>2026-04-11T12:38:22.974Z</time></trkpt><trkpt lat="45.8858231" lon="11.7030575"><ele>1065.0</ele><time>2026-04-11T12:38:23.97Z</time></trkpt><trkpt lat="45.8858919" lon="11.7030721"><ele>1065.0</ele><time>2026-04-11T12:38:24.965Z</time></trkpt><trkpt lat="45.8859873" lon="11.7030755"><ele>1065.0</ele><time>2026-04-11T12:38:25.983Z</time></trkpt><trkpt lat="45.8860803" lon="11.7031114"><ele>1065.0</ele><time>2026-04-11T12:38:26.984Z</time></trkpt><trkpt lat="45.8861786" lon="11.7031772"><ele>1065.0</ele><time>2026-04-11T12:38:27.974Z</time></trkpt><trkpt lat="45.88627" lon="11.7032477"><ele>1068.0</ele><time>2026-04-11T12:38:28.98Z</time></trkpt><trkpt lat="45.8863594" lon="11.7033172"><ele>1071.0</ele><time>2026-04-11T12:38:29.973Z</time></trkpt><trkpt lat="45.8864325" lon="11.7033883"><ele>1074.0</ele><time>2026-04-11T12:38:30.968Z</time></trkpt><trkpt lat="45.886509" lon="11.7034731"><ele>1077.0</ele><time>2026-04-11T12:38:31.978Z</time></trkpt><trkpt lat="45.88655" lon="11.7035834"><ele>1080.0</ele><time>2026-04-11T12:38:32.991Z</time></trkpt><trkpt lat="45.8865973" lon="11.7036906"><ele>1080.0</ele><time>2026-04-11T12:38:33.974Z</time></trkpt><trkpt lat="45.886652" lon="11.7037922"><ele>1080.0</ele><time>2026-04-11T12:38:34.969Z</time></trkpt><trkpt lat="45.8867152" lon="11.7038721"><ele>1080.0</ele><time>2026-04-11T12:38:35.978Z</time></trkpt><trkpt lat="45.8867931" lon="11.7039217"><ele>1080.0</ele><time>2026-04-11T12:38:36.972Z</time></trkpt><trkpt lat="45.8868693" lon="11.7039609"><ele>1080.0</ele><time>2026-04-11T12:38:37.96Z</time></trkpt><trkpt lat="45.8869528" lon="11.7039823"><ele>1080.0</ele><time>2026-04-11T12:38:38.981Z</time></trkpt><trkpt lat="45.8870333" lon="11.7039969"><ele>1076.6</ele><time>2026-04-11T12:38:39.994Z</time></trkpt><trkpt lat="45.8871109" lon="11.7039792"><ele>1073.2</ele><time>2026-04-11T12:38:40.973Z</time></trkpt><trkpt lat="45.8871773" lon="11.7039659"><ele>1069.8</ele><time>2026-04-11T12:38:41.97Z</time></trkpt><trkpt lat="45.8872864" lon="11.7039884"><ele>1066.4</ele><time>2026-04-11T12:38:43.978Z</time></trkpt><trkpt lat="45.8873938" lon="11.7041115"><ele>1063.0</ele><time>2026-04-11T12:38:45.98Z</time></trkpt><trkpt lat="45.8874603" lon="11.7042029"><ele>1063.0</ele><time>2026-04-11T12:38:46.984Z</time></trkpt><trkpt lat="45.8875362" lon="11.7042504"><ele>1063.0</ele><time>2026-04-11T12:38:47.972Z</time></trkpt><trkpt lat="45.8876425" lon="11.7043135"><ele>1063.0</ele><time>2026-04-11T12:38:49.979Z</time></trkpt><trkpt lat="45.8877055" lon="11.7044564"><ele>1063.0</ele><time>2026-04-11T12:38:51.97Z</time></trkpt><trkpt lat="45.8877154" lon="11.7045686"><ele>1063.0</ele><time>2026-04-11T12:38:52.973Z</time></trkpt><trkpt lat="45.8877225" lon="11.7047121"><ele>1063.2</ele><time>2026-04-11T12:38:53.977Z</time></trkpt><trkpt lat="45.8877344" lon="11.7048531"><ele>1063.4</ele><time>2026-04-11T12:38:54.972Z</time></trkpt><trkpt lat="45.8877578" lon="11.7049803"><ele>1063.6000000000001</ele><time>2026-04-11T12:38:55.971Z</time></trkpt><trkpt lat="45.8877809" lon="11.7051083"><ele>1063.8</ele><time>2026-04-11T12:38:56.97Z</time></trkpt><trkpt lat="45.8878392" lon="11.7052299"><ele>1064.0</ele><time>2026-04-11T12:38:57.973Z</time></trkpt><trkpt lat="45.8878927" lon="11.7053409"><ele>1064.0</ele><time>2026-04-11T12:38:58.969Z</time></trkpt><trkpt lat="45.8879501" lon="11.7054446"><ele>1064.0</ele><time>2026-04-11T12:38:59.976Z</time></trkpt><trkpt lat="45.8880083" lon="11.705552"><ele>1064.0</ele><time>2026-04-11T12:39:00.97Z</time></trkpt><trkpt lat="45.8880596" lon="11.7056747"><ele>1064.0</ele><time>2026-04-11T12:39:01.978Z</time></trkpt><trkpt lat="45.8881266" lon="11.7058092"><ele>1064.0</ele><time>2026-04-11T12:39:02.974Z</time></trkpt><trkpt lat="45.8881863" lon="11.7059314"><ele>1064.0</ele><time>2026-04-11T12:39:03.962Z</time></trkpt><trkpt lat="45.8882615" lon="11.7060396"><ele>1064.0</ele><time>2026-04-11T12:39:04.976Z</time></trkpt><trkpt lat="45.8883354" lon="11.7061405"><ele>1064.0</ele><time>2026-04-11T12:39:05.981Z</time></trkpt><trkpt lat="45.8884028" lon="11.7062367"><ele>1064.0</ele><time>2026-04-11T12:39:06.969Z</time></trkpt><trkpt lat="45.8884625" lon="11.7063424"><ele>1064.0</ele><time>2026-04-11T12:39:07.979Z</time></trkpt><trkpt lat="45.8885117" lon="11.7064678"><ele>1063.8</ele><time>2026-04-11T12:39:08.979Z</time></trkpt><trkpt lat="45.8885702" lon="11.7066051"><ele>1063.6000000000001</ele><time>2026-04-11T12:39:09.962Z</time></trkpt><trkpt lat="45.8886174" lon="11.7067394"><ele>1063.4</ele><time>2026-04-11T12:39:10.979Z</time></trkpt><trkpt lat="45.8886578" lon="11.7068649"><ele>1063.2</ele><time>2026-04-11T12:39:11.981Z</time></trkpt><trkpt lat="45.8886942" lon="11.7069765"><ele>1063.0</ele><time>2026-04-11T12:39:12.961Z</time></trkpt><trkpt lat="45.8887158" lon="11.7070873"><ele>1063.0</ele><time>2026-04-11T12:39:13.973Z</time></trkpt><trkpt lat="45.88872" lon="11.7072024"><ele>1063.0</ele><time>2026-04-11T12:39:14.966Z</time></trkpt><trkpt lat="45.8887135" lon="11.7073204"><ele>1063.0</ele><time>2026-04-11T12:39:15.965Z</time></trkpt><trkpt lat="45.8887032" lon="11.7074363"><ele>1063.0</ele><time>2026-04-11T12:39:16.969Z</time></trkpt><trkpt lat="45.8887151" lon="11.7075392"><ele>1063.0</ele><time>2026-04-11T12:39:17.976Z</time></trkpt><trkpt lat="45.8887441" lon="11.7076425"><ele>1063.0</ele><time>2026-04-11T12:39:18.963Z</time></trkpt><trkpt lat="45.8887911" lon="11.707735"><ele>1070.0</ele><time>2026-04-11T12:39:19.971Z</time></trkpt><trkpt lat="45.8888358" lon="11.7078268"><ele>1077.0</ele><time>2026-04-11T12:39:20.967Z</time></trkpt><trkpt lat="45.8888829" lon="11.7079143"><ele>1084.0</ele><time>2026-04-11T12:39:21.971Z</time></trkpt><trkpt lat="45.8889439" lon="11.7079816"><ele>1091.0</ele><time>2026-04-11T12:39:22.977Z</time></trkpt><trkpt lat="45.8890144" lon="11.7080347"><ele>1098.0</ele><time>2026-04-11T12:39:23.97Z</time></trkpt><trkpt lat="45.8891016" lon="11.7080678"><ele>1105.0</ele><time>2026-04-11T12:39:24.968Z</time></trkpt><trkpt lat="45.889192" lon="11.7080958"><ele>1102.8</ele><time>2026-04-11T12:39:25.973Z</time></trkpt><trkpt lat="45.8893001" lon="11.7081116"><ele>1100.6</ele><time>2026-04-11T12:39:26.964Z</time></trkpt><trkpt lat="45.8894091" lon="11.7081103"><ele>1098.4</ele><time>2026-04-11T12:39:27.962Z</time></trkpt><trkpt lat="45.8895125" lon="11.7081205"><ele>1096.2</ele><time>2026-04-11T12:39:28.971Z</time></trkpt><trkpt lat="45.8896211" lon="11.7081195"><ele>1094.0</ele><time>2026-04-11T12:39:29.972Z</time></trkpt><trkpt lat="45.8897136" lon="11.7081173"><ele>1094.0</ele><time>2026-04-11T12:39:30.969Z</time></trkpt><trkpt lat="45.8897963" lon="11.7081155"><ele>1094.0</ele><time>2026-04-11T12:39:31.975Z</time></trkpt><trkpt lat="45.8898743" lon="11.7081115"><ele>1094.0</ele><time>2026-04-11T12:39:32.973Z</time></trkpt><trkpt lat="45.8899605" lon="11.7080918"><ele>1094.0</ele><time>2026-04-11T12:39:33.969Z</time></trkpt><trkpt lat="45.890032" lon="11.7080415"><ele>1094.0</ele><time>2026-04-11T12:39:34.966Z</time></trkpt><trkpt lat="45.8900969" lon="11.7079796"><ele>1094.0</ele><time>2026-04-11T12:39:35.968Z</time></trkpt><trkpt lat="45.89018" lon="11.7078931"><ele>1086.4</ele><time>2026-04-11T12:39:37.97Z</time></trkpt><trkpt lat="45.8902389" lon="11.7078493"><ele>1078.8000000000002</ele><time>2026-04-11T12:39:39.97Z</time></trkpt><trkpt lat="45.8903117" lon="11.7079194"><ele>1071.1999999999998</ele><time>2026-04-11T12:39:41.975Z</time></trkpt><trkpt lat="45.890414" lon="11.7080198"><ele>1063.6</ele><time>2026-04-11T12:39:43.974Z</time></trkpt><trkpt lat="45.8904712" lon="11.7080576"><ele>1056.0</ele><time>2026-04-11T12:39:44.975Z</time></trkpt><trkpt lat="45.8905756" lon="11.7081392"><ele>1056.0</ele><time>2026-04-11T12:39:46.975Z</time></trkpt><trkpt lat="45.8906489" lon="11.7082843"><ele>1056.0</ele><time>2026-04-11T12:39:48.973Z</time></trkpt><trkpt lat="45.8906715" lon="11.7083761"><ele>1056.0</ele><time>2026-04-11T12:39:49.979Z</time></trkpt><trkpt lat="45.8906774" lon="11.7085349"><ele>1056.0</ele><time>2026-04-11T12:39:51.973Z</time></trkpt><trkpt lat="45.8906063" lon="11.7086778"><ele>1056.0</ele><time>2026-04-11T12:39:53.981Z</time></trkpt><trkpt lat="45.8905706" lon="11.7087684"><ele>1057.2857142857142</ele><time>2026-04-11T12:39:54.979Z</time></trkpt><trkpt lat="45.890545" lon="11.7088612"><ele>1058.5714285714287</ele><time>2026-04-11T12:39:55.973Z</time></trkpt><trkpt lat="45.8905282" lon="11.7089596"><ele>1059.857142857143</ele><time>2026-04-11T12:39:56.977Z</time></trkpt><trkpt lat="45.8905137" lon="11.7090602"><ele>1061.142857142857</ele><time>2026-04-11T12:39:57.972Z</time></trkpt><trkpt lat="45.8905151" lon="11.7091679"><ele>1062.4285714285713</ele><time>2026-04-11T12:39:58.97Z</time></trkpt><trkpt lat="45.8905205" lon="11.7092751"><ele>1063.7142857142858</ele><time>2026-04-11T12:39:59.969Z</time></trkpt><trkpt lat="45.8905253" lon="11.709387"><ele>1065.0</ele><time>2026-04-11T12:40:00.973Z</time></trkpt><trkpt lat="45.8905318" lon="11.7095005"><ele>1054.1666666666667</ele><time>2026-04-11T12:40:01.977Z</time></trkpt><trkpt lat="45.8905474" lon="11.7096078"><ele>1043.3333333333333</ele><time>2026-04-11T12:40:02.969Z</time></trkpt><trkpt lat="45.8905661" lon="11.7096985"><ele>1032.5</ele><time>2026-04-11T12:40:03.971Z</time></trkpt><trkpt lat="45.8905902" lon="11.7098418"><ele>1021.6666666666666</ele><time>2026-04-11T12:40:05.967Z</time></trkpt><trkpt lat="45.8905508" lon="11.709981"><ele>1010.8333333333333</ele><time>2026-04-11T12:40:07.979Z</time></trkpt><trkpt lat="45.8905202" lon="11.7100605"><ele>1000.0</ele><time>2026-04-11T12:40:08.978Z</time></trkpt><trkpt lat="45.8904531" lon="11.7102056"><ele>1012.4</ele><time>2026-04-11T12:40:10.97Z</time></trkpt><trkpt lat="45.890377" lon="11.7102884"><ele>1024.8</ele><time>2026-04-11T12:40:12.971Z</time></trkpt><trkpt lat="45.8903029" lon="11.7102943"><ele>1037.2</ele><time>2026-04-11T12:40:14.976Z</time></trkpt><trkpt lat="45.8901781" lon="11.7102623"><ele>1049.6</ele><time>2026-04-11T12:40:16.957Z</time></trkpt><trkpt lat="45.8901149" lon="11.7102545"><ele>1062.0</ele><time>2026-04-11T12:40:17.959Z</time></trkpt><trkpt lat="45.8900136" lon="11.7102586"><ele>1062.0</ele><time>2026-04-11T12:40:19.969Z</time></trkpt><trkpt lat="45.889858" lon="11.7102652"><ele>1062.0</ele><time>2026-04-11T12:40:21.967Z</time></trkpt><trkpt lat="45.8897981" lon="11.710304"><ele>1062.0</ele><time>2026-04-11T12:40:22.964Z</time></trkpt><trkpt lat="45.8896959" lon="11.7103996"><ele>1062.0</ele><time>2026-04-11T12:40:24.974Z</time></trkpt><trkpt lat="45.889613" lon="11.7105035"><ele>1062.0</ele><time>2026-04-11T12:40:26.966Z</time></trkpt><trkpt lat="45.8895545" lon="11.7106402"><ele>1062.0</ele><time>2026-04-11T12:40:28.968Z</time></trkpt><trkpt lat="45.8895207" lon="11.7107683"><ele>1062.0</ele><time>2026-04-11T12:40:30.98Z</time></trkpt><trkpt lat="45.8894768" lon="11.7108434"><ele>1062.0</ele><time>2026-04-11T12:40:32.966Z</time></trkpt><trkpt lat="45.8893948" lon="11.7108767"><ele>1062.0</ele><time>2026-04-11T12:40:35.975Z</time></trkpt><trkpt lat="45.8892876" lon="11.7108625"><ele>1066.7142857142858</ele><time>2026-04-11T12:40:37.981Z</time></trkpt><trkpt lat="45.8892203" lon="11.7108584"><ele>1071.4285714285716</ele><time>2026-04-11T12:40:38.974Z</time></trkpt><trkpt lat="45.8891446" lon="11.7108484"><ele>1076.142857142857</ele><time>2026-04-11T12:40:39.977Z</time></trkpt><trkpt lat="45.8890676" lon="11.7108584"><ele>1080.857142857143</ele><time>2026-04-11T12:40:40.978Z</time></trkpt><trkpt lat="45.8889849" lon="11.7108755"><ele>1085.5714285714284</ele><time>2026-04-11T12:40:41.972Z</time></trkpt><trkpt lat="45.8889189" lon="11.7109059"><ele>1090.2857142857142</ele><time>2026-04-11T12:40:42.966Z</time></trkpt><trkpt lat="45.8888547" lon="11.7109166"><ele>1095.0</ele><time>2026-04-11T12:40:43.983Z</time></trkpt><trkpt lat="45.8887859" lon="11.7109206"><ele>1095.0</ele><time>2026-04-11T12:40:44.971Z</time></trkpt><trkpt lat="45.8887122" lon="11.7109486"><ele>1095.0</ele><time>2026-04-11T12:40:45.964Z</time></trkpt><trkpt lat="45.8886444" lon="11.7109965"><ele>1095.0</ele><time>2026-04-11T12:40:46.971Z</time></trkpt><trkpt lat="45.8885619" lon="11.7110571"><ele>1095.0</ele><time>2026-04-11T12:40:47.965Z</time></trkpt><trkpt lat="45.8884974" lon="11.7111428"><ele>1095.0</ele><time>2026-04-11T12:40:48.976Z</time></trkpt><trkpt lat="45.8884316" lon="11.7112495"><ele>1095.0</ele><time>2026-04-11T12:40:49.977Z</time></trkpt><trkpt lat="45.8883704" lon="11.711374"><ele>1095.8</ele><time>2026-04-11T12:40:50.966Z</time></trkpt><trkpt lat="45.8883141" lon="11.7115014"><ele>1096.6</ele><time>2026-04-11T12:40:51.966Z</time></trkpt><trkpt lat="45.8882591" lon="11.7116171"><ele>1097.4</ele><time>2026-04-11T12:40:52.969Z</time></trkpt><trkpt lat="45.8882093" lon="11.7117319"><ele>1098.2</ele><time>2026-04-11T12:40:53.969Z</time></trkpt><trkpt lat="45.8881711" lon="11.7118419"><ele>1099.0</ele><time>2026-04-11T12:40:54.967Z</time></trkpt><trkpt lat="45.888132" lon="11.7119588"><ele>1095.0</ele><time>2026-04-11T12:40:55.972Z</time></trkpt><trkpt lat="45.8880926" lon="11.7120697"><ele>1091.0</ele><time>2026-04-11T12:40:56.972Z</time></trkpt><trkpt lat="45.8880498" lon="11.7121739"><ele>1087.0</ele><time>2026-04-11T12:40:57.972Z</time></trkpt><trkpt lat="45.8879977" lon="11.7122665"><ele>1083.0</ele><time>2026-04-11T12:40:58.972Z</time></trkpt><trkpt lat="45.8879435" lon="11.7123643"><ele>1079.0</ele><time>2026-04-11T12:40:59.97Z</time></trkpt><trkpt lat="45.8878929" lon="11.7124556"><ele>1075.0</ele><time>2026-04-11T12:41:00.969Z</time></trkpt><trkpt lat="45.8878375" lon="11.7125465"><ele>1075.0</ele><time>2026-04-11T12:41:01.976Z</time></trkpt><trkpt lat="45.8877817" lon="11.712639"><ele>1075.0</ele><time>2026-04-11T12:41:02.968Z</time></trkpt><trkpt lat="45.8877305" lon="11.7127252"><ele>1075.0</ele><time>2026-04-11T12:41:03.974Z</time></trkpt><trkpt lat="45.8876811" lon="11.7128142"><ele>1075.0</ele><time>2026-04-11T12:41:04.967Z</time></trkpt><trkpt lat="45.8876471" lon="11.7129054"><ele>1075.0</ele><time>2026-04-11T12:41:05.969Z</time></trkpt><trkpt lat="45.8876324" lon="11.7130018"><ele>1075.0</ele><time>2026-04-11T12:41:06.971Z</time></trkpt><trkpt lat="45.8876146" lon="11.7131036"><ele>1074.0</ele><time>2026-04-11T12:41:07.972Z</time></trkpt><trkpt lat="45.8876074" lon="11.7132157"><ele>1073.0</ele><time>2026-04-11T12:41:08.972Z</time></trkpt><trkpt lat="45.8876193" lon="11.7133449"><ele>1072.0</ele><time>2026-04-11T12:41:09.969Z</time></trkpt><trkpt lat="45.8876431" lon="11.7134608"><ele>1071.0</ele><time>2026-04-11T12:41:10.966Z</time></trkpt><trkpt lat="45.8876663" lon="11.7135733"><ele>1070.0</ele><time>2026-04-11T12:41:11.969Z</time></trkpt><trkpt lat="45.8876805" lon="11.7136837"><ele>1069.0</ele><time>2026-04-11T12:41:12.979Z</time></trkpt><trkpt lat="45.8876686" lon="11.7138534"><ele>1068.8333333333333</ele><time>2026-04-11T12:41:14.976Z</time></trkpt><trkpt lat="45.8876386" lon="11.713971"><ele>1068.6666666666665</ele><time>2026-04-11T12:41:15.974Z</time></trkpt><trkpt lat="45.8876271" lon="11.7140836"><ele>1068.5</ele><time>2026-04-11T12:41:16.978Z</time></trkpt><trkpt lat="45.8876296" lon="11.7142105"><ele>1068.3333333333333</ele><time>2026-04-11T12:41:17.972Z</time></trkpt><trkpt lat="45.8876387" lon="11.7143303"><ele>1068.1666666666667</ele><time>2026-04-11T12:41:18.988Z</time></trkpt><trkpt lat="45.8876418" lon="11.7144271"><ele>1068.0</ele><time>2026-04-11T12:41:19.974Z</time></trkpt><trkpt lat="45.8876405" lon="11.7145215"><ele>1068.0</ele><time>2026-04-11T12:41:20.968Z</time></trkpt><trkpt lat="45.8876104" lon="11.714619"><ele>1068.0</ele><time>2026-04-11T12:41:21.976Z</time></trkpt><trkpt lat="45.8875621" lon="11.7147192"><ele>1068.0</ele><time>2026-04-11T12:41:22.968Z</time></trkpt><trkpt lat="45.8875265" lon="11.7148303"><ele>1068.0</ele><time>2026-04-11T12:41:23.968Z</time></trkpt><trkpt lat="45.8875009" lon="11.7149491"><ele>1068.0</ele><time>2026-04-11T12:41:24.982Z</time></trkpt><trkpt lat="45.8874857" lon="11.7150701"><ele>1068.0</ele><time>2026-04-11T12:41:25.982Z</time></trkpt><trkpt lat="45.887457" lon="11.7152068"><ele>1082.6</ele><time>2026-04-11T12:41:26.969Z</time></trkpt><trkpt lat="45.887438" lon="11.7153289"><ele>1097.1999999999998</ele><time>2026-04-11T12:41:27.974Z</time></trkpt><trkpt lat="45.8874295" lon="11.7154532"><ele>1111.8</ele><time>2026-04-11T12:41:28.973Z</time></trkpt><trkpt lat="45.8874521" lon="11.7155873"><ele>1126.3999999999999</ele><time>2026-04-11T12:41:29.962Z</time></trkpt><trkpt lat="45.8874878" lon="11.7157071"><ele>1141.0</ele><time>2026-04-11T12:41:30.975Z</time></trkpt><trkpt lat="45.8875401" lon="11.7158214"><ele>1141.0</ele><time>2026-04-11T12:41:31.973Z</time></trkpt><trkpt lat="45.8875979" lon="11.7159342"><ele>1141.0</ele><time>2026-04-11T12:41:32.977Z</time></trkpt><trkpt lat="45.8876601" lon="11.7160401"><ele>1141.0</ele><time>2026-04-11T12:41:33.965Z</time></trkpt><trkpt lat="45.8877458" lon="11.7161405"><ele>1141.0</ele><time>2026-04-11T12:41:34.968Z</time></trkpt><trkpt lat="45.8878171" lon="11.71623"><ele>1141.0</ele><time>2026-04-11T12:41:35.968Z</time></trkpt><trkpt lat="45.8878894" lon="11.7162999"><ele>1141.0</ele><time>2026-04-11T12:41:36.965Z</time></trkpt><trkpt lat="45.8879478" lon="11.7163639"><ele>1141.0</ele><time>2026-04-11T12:41:37.97Z</time></trkpt><trkpt lat="45.8879928" lon="11.7164375"><ele>1141.0</ele><time>2026-04-11T12:41:38.972Z</time></trkpt><trkpt lat="45.8880158" lon="11.7165296"><ele>1141.0</ele><time>2026-04-11T12:41:39.98Z</time></trkpt><trkpt lat="45.8880655" lon="11.7166046"><ele>1141.0</ele><time>2026-04-11T12:41:40.967Z</time></trkpt><trkpt lat="45.8881363" lon="11.7166573"><ele>1141.0</ele><time>2026-04-11T12:41:41.977Z</time></trkpt><trkpt lat="45.88822" lon="11.7166565"><ele>1141.0</ele><time>2026-04-11T12:41:42.976Z</time></trkpt><trkpt lat="45.8883082" lon="11.7166656"><ele>1141.0</ele><time>2026-04-11T12:41:43.962Z</time></trkpt><trkpt lat="45.8883961" lon="11.7166813"><ele>1141.0</ele><time>2026-04-11T12:41:44.968Z</time></trkpt><trkpt lat="45.8884755" lon="11.7167069"><ele>1141.0</ele><time>2026-04-11T12:41:45.969Z</time></trkpt><trkpt lat="45.8885545" lon="11.7167418"><ele>1141.0</ele><time>2026-04-11T12:41:46.976Z</time></trkpt><trkpt lat="45.8886368" lon="11.7167767"><ele>1141.0</ele><time>2026-04-11T12:41:47.977Z</time></trkpt><trkpt lat="45.888729" lon="11.716809"><ele>1141.0</ele><time>2026-04-11T12:41:48.967Z</time></trkpt><trkpt lat="45.8888198" lon="11.7168213"><ele>1138.6</ele><time>2026-04-11T12:41:49.969Z</time></trkpt><trkpt lat="45.8889142" lon="11.7168291"><ele>1136.1999999999998</ele><time>2026-04-11T12:41:50.972Z</time></trkpt><trkpt lat="45.8889945" lon="11.7168384"><ele>1133.8000000000002</ele><time>2026-04-11T12:41:51.975Z</time></trkpt><trkpt lat="45.8890865" lon="11.7168766"><ele>1131.4</ele><time>2026-04-11T12:41:53.976Z</time></trkpt><trkpt lat="45.8891676" lon="11.7169506"><ele>1129.0</ele><time>2026-04-11T12:41:55.974Z</time></trkpt><trkpt lat="45.8892394" lon="11.717107"><ele>1130.2857142857142</ele><time>2026-04-11T12:41:57.974Z</time></trkpt><trkpt lat="45.8892707" lon="11.7171907"><ele>1131.5714285714284</ele><time>2026-04-11T12:41:58.97Z</time></trkpt><trkpt lat="45.889301" lon="11.7172782"><ele>1132.857142857143</ele><time>2026-04-11T12:41:59.974Z</time></trkpt><trkpt lat="45.8893538" lon="11.7173693"><ele>1134.142857142857</ele><time>2026-04-11T12:42:00.967Z</time></trkpt><trkpt lat="45.8893894" lon="11.7174576"><ele>1135.4285714285716</ele><time>2026-04-11T12:42:01.967Z</time></trkpt><trkpt lat="45.8894335" lon="11.7175352"><ele>1136.7142857142858</ele><time>2026-04-11T12:42:02.976Z</time></trkpt><trkpt lat="45.8894821" lon="11.7176085"><ele>1138.0</ele><time>2026-04-11T12:42:03.983Z</time></trkpt><trkpt lat="45.8895314" lon="11.7176919"><ele>1144.8</ele><time>2026-04-11T12:42:04.978Z</time></trkpt><trkpt lat="45.8895801" lon="11.7177634"><ele>1151.6</ele><time>2026-04-11T12:42:05.969Z</time></trkpt><trkpt lat="45.8896255" lon="11.717829"><ele>1158.4</ele><time>2026-04-11T12:42:06.967Z</time></trkpt><trkpt lat="45.8897337" lon="11.7179033"><ele>1165.2</ele><time>2026-04-11T12:42:08.982Z</time></trkpt><trkpt lat="45.889839" lon="11.7179331"><ele>1172.0</ele><time>2026-04-11T12:42:10.966Z</time></trkpt><trkpt lat="45.8899191" lon="11.7180519"><ele>1172.0</ele><time>2026-04-11T12:42:12.983Z</time></trkpt><trkpt lat="45.8899884" lon="11.7182144"><ele>1172.0</ele><time>2026-04-11T12:42:14.977Z</time></trkpt><trkpt lat="45.8900337" lon="11.7182885"><ele>1172.0</ele><time>2026-04-11T12:42:15.978Z</time></trkpt><trkpt lat="45.8900925" lon="11.7183486"><ele>1172.0</ele><time>2026-04-11T12:42:16.966Z</time></trkpt><trkpt lat="45.8901552" lon="11.7183908"><ele>1172.0</ele><time>2026-04-11T12:42:17.976Z</time></trkpt><trkpt lat="45.8902229" lon="11.7184246"><ele>1172.0</ele><time>2026-04-11T12:42:18.97Z</time></trkpt><trkpt lat="45.8903027" lon="11.7184497"><ele>1168.3333333333335</ele><time>2026-04-11T12:42:19.967Z</time></trkpt><trkpt lat="45.8903887" lon="11.7184667"><ele>1164.6666666666667</ele><time>2026-04-11T12:42:20.973Z</time></trkpt><trkpt lat="45.8904768" lon="11.7184828"><ele>1161.0</ele><time>2026-04-11T12:42:21.981Z</time></trkpt><trkpt lat="45.8905644" lon="11.7184992"><ele>1157.3333333333333</ele><time>2026-04-11T12:42:22.964Z</time></trkpt><trkpt lat="45.8906422" lon="11.7185219"><ele>1153.6666666666665</ele><time>2026-04-11T12:42:23.968Z</time></trkpt><trkpt lat="45.8907184" lon="11.7185455"><ele>1150.0</ele><time>2026-04-11T12:42:24.968Z</time></trkpt><trkpt lat="45.8908065" lon="11.7185976"><ele>1155.4</ele><time>2026-04-11T12:42:25.971Z</time></trkpt><trkpt lat="45.8908794" lon="11.7186531"><ele>1160.8</ele><time>2026-04-11T12:42:26.969Z</time></trkpt><trkpt lat="45.8909671" lon="11.7187218"><ele>1166.2</ele><time>2026-04-11T12:42:27.975Z</time></trkpt><trkpt lat="45.8910481" lon="11.7187986"><ele>1171.6</ele><time>2026-04-11T12:42:28.972Z</time></trkpt><trkpt lat="45.8911195" lon="11.7188761"><ele>1177.0</ele><time>2026-04-11T12:42:29.968Z</time></trkpt><trkpt lat="45.8911942" lon="11.7189445"><ele>1177.0</ele><time>2026-04-11T12:42:30.973Z</time></trkpt><trkpt lat="45.8912644" lon="11.719013"><ele>1177.0</ele><time>2026-04-11T12:42:31.972Z</time></trkpt><trkpt lat="45.8913262" lon="11.7191062"><ele>1177.0</ele><time>2026-04-11T12:42:32.968Z</time></trkpt><trkpt lat="45.891395" lon="11.7191828"><ele>1177.0</ele><time>2026-04-11T12:42:33.965Z</time></trkpt><trkpt lat="45.8914667" lon="11.7192417"><ele>1177.0</ele><time>2026-04-11T12:42:34.969Z</time></trkpt><trkpt lat="45.8915407" lon="11.7192771"><ele>1177.0</ele><time>2026-04-11T12:42:35.972Z</time></trkpt><trkpt lat="45.8916255" lon="11.7193149"><ele>1177.0</ele><time>2026-04-11T12:42:36.971Z</time></trkpt><trkpt lat="45.8917125" lon="11.719319"><ele>1177.0</ele><time>2026-04-11T12:42:37.963Z</time></trkpt><trkpt lat="45.8918015" lon="11.7193092"><ele>1177.0</ele><time>2026-04-11T12:42:38.969Z</time></trkpt><trkpt lat="45.8918958" lon="11.7192681"><ele>1177.0</ele><time>2026-04-11T12:42:39.964Z</time></trkpt><trkpt lat="45.8919914" lon="11.7192294"><ele>1177.0</ele><time>2026-04-11T12:42:40.966Z</time></trkpt><trkpt lat="45.8920747" lon="11.7192038"><ele>1177.6666666666665</ele><time>2026-04-11T12:42:41.964Z</time></trkpt><trkpt lat="45.8921521" lon="11.7191923"><ele>1178.3333333333333</ele><time>2026-04-11T12:42:42.973Z</time></trkpt><trkpt lat="45.8922431" lon="11.7191683"><ele>1179.0</ele><time>2026-04-11T12:42:43.967Z</time></trkpt><trkpt lat="45.8923217" lon="11.7191683"><ele>1179.6666666666667</ele><time>2026-04-11T12:42:44.964Z</time></trkpt><trkpt lat="45.8923856" lon="11.7191895"><ele>1180.3333333333335</ele><time>2026-04-11T12:42:45.965Z</time></trkpt><trkpt lat="45.8924565" lon="11.7192312"><ele>1181.0</ele><time>2026-04-11T12:42:46.97Z</time></trkpt><trkpt lat="45.8925334" lon="11.7192737"><ele>1184.5</ele><time>2026-04-11T12:42:47.959Z</time></trkpt><trkpt lat="45.892596" lon="11.7193146"><ele>1188.0</ele><time>2026-04-11T12:42:48.969Z</time></trkpt><trkpt lat="45.8926829" lon="11.7193873"><ele>1191.5</ele><time>2026-04-11T12:42:50.989Z</time></trkpt><trkpt lat="45.8927077" lon="11.7194814"><ele>1195.0</ele><time>2026-04-11T12:42:52.973Z</time></trkpt><trkpt lat="45.8926234" lon="11.7195371"><ele>1198.5</ele><time>2026-04-11T12:42:56.978Z</time></trkpt><trkpt lat="45.8925435" lon="11.7194863"><ele>1202.0</ele><time>2026-04-11T12:42:58.97Z</time></trkpt><trkpt lat="45.8924285" lon="11.7194635"><ele>1202.0</ele><time>2026-04-11T12:43:00.975Z</time></trkpt><trkpt lat="45.8923618" lon="11.7194717"><ele>1202.0</ele><time>2026-04-11T12:43:01.973Z</time></trkpt><trkpt lat="45.8922869" lon="11.7194833"><ele>1202.0</ele><time>2026-04-11T12:43:02.975Z</time></trkpt><trkpt lat="45.8922175" lon="11.7195029"><ele>1202.0</ele><time>2026-04-11T12:43:03.978Z</time></trkpt><trkpt lat="45.8921484" lon="11.7195427"><ele>1202.0</ele><time>2026-04-11T12:43:04.972Z</time></trkpt><trkpt lat="45.8920735" lon="11.7196021"><ele>1202.0</ele><time>2026-04-11T12:43:05.978Z</time></trkpt><trkpt lat="45.8919882" lon="11.7196624"><ele>1202.0</ele><time>2026-04-11T12:43:06.977Z</time></trkpt><trkpt lat="45.8919081" lon="11.7197135"><ele>1202.0</ele><time>2026-04-11T12:43:07.965Z</time></trkpt><trkpt lat="45.8918194" lon="11.719758"><ele>1202.0</ele><time>2026-04-11T12:43:08.978Z</time></trkpt><trkpt lat="45.8917284" lon="11.719783"><ele>1202.0</ele><time>2026-04-11T12:43:09.987Z</time></trkpt><trkpt lat="45.8916362" lon="11.7198063"><ele>1202.0</ele><time>2026-04-11T12:43:10.966Z</time></trkpt><trkpt lat="45.8915562" lon="11.7198267"><ele>1202.0</ele><time>2026-04-11T12:43:11.973Z</time></trkpt><trkpt lat="45.8914833" lon="11.7198317"><ele>1205.6666666666667</ele><time>2026-04-11T12:43:12.976Z</time></trkpt><trkpt lat="45.8914116" lon="11.7198307"><ele>1209.3333333333335</ele><time>2026-04-11T12:43:13.965Z</time></trkpt><trkpt lat="45.8913438" lon="11.7198261"><ele>1213.0</ele><time>2026-04-11T12:43:14.973Z</time></trkpt><trkpt lat="45.8912703" lon="11.719792"><ele>1216.6666666666667</ele><time>2026-04-11T12:43:15.979Z</time></trkpt><trkpt lat="45.8911895" lon="11.7197563"><ele>1220.3333333333333</ele><time>2026-04-11T12:43:16.977Z</time></trkpt><trkpt lat="45.8911065" lon="11.7196861"><ele>1224.0</ele><time>2026-04-11T12:43:17.975Z</time></trkpt><trkpt lat="45.8910318" lon="11.7196204"><ele>1224.0</ele><time>2026-04-11T12:43:18.968Z</time></trkpt><trkpt lat="45.890958" lon="11.7195619"><ele>1224.0</ele><time>2026-04-11T12:43:19.977Z</time></trkpt><trkpt lat="45.8908887" lon="11.71954"><ele>1224.0</ele><time>2026-04-11T12:43:20.975Z</time></trkpt><trkpt lat="45.8908085" lon="11.7195071"><ele>1224.0</ele><time>2026-04-11T12:43:21.981Z</time></trkpt><trkpt lat="45.8907202" lon="11.7194757"><ele>1224.0</ele><time>2026-04-11T12:43:22.963Z</time></trkpt><trkpt lat="45.8906293" lon="11.7194531"><ele>1224.0</ele><time>2026-04-11T12:43:23.976Z</time></trkpt><trkpt lat="45.8905315" lon="11.7194391"><ele>1226.3333333333333</ele><time>2026-04-11T12:43:24.975Z</time></trkpt><trkpt lat="45.8904358" lon="11.7194316"><ele>1228.6666666666667</ele><time>2026-04-11T12:43:25.964Z</time></trkpt><trkpt lat="45.8903433" lon="11.7194343"><ele>1231.0</ele><time>2026-04-11T12:43:26.979Z</time></trkpt><trkpt lat="45.8902571" lon="11.7194347"><ele>1233.3333333333335</ele><time>2026-04-11T12:43:27.975Z</time></trkpt><trkpt lat="45.8901805" lon="11.7194435"><ele>1235.6666666666667</ele><time>2026-04-11T12:43:28.967Z</time></trkpt><trkpt lat="45.8901029" lon="11.7194545"><ele>1238.0</ele><time>2026-04-11T12:43:29.981Z</time></trkpt><trkpt lat="45.8900325" lon="11.7194726"><ele>1240.0</ele><time>2026-04-11T12:43:30.976Z</time></trkpt><trkpt lat="45.8899606" lon="11.7194736"><ele>1242.0</ele><time>2026-04-11T12:43:31.972Z</time></trkpt><trkpt lat="45.8898844" lon="11.7194545"><ele>1244.0</ele><time>2026-04-11T12:43:32.968Z</time></trkpt><trkpt lat="45.8898152" lon="11.7194225"><ele>1246.0</ele><time>2026-04-11T12:43:33.966Z</time></trkpt><trkpt lat="45.8897439" lon="11.7193728"><ele>1248.0</ele><time>2026-04-11T12:43:34.965Z</time></trkpt><trkpt lat="45.8896779" lon="11.7192974"><ele>1250.0</ele><time>2026-04-11T12:43:35.984Z</time></trkpt><trkpt lat="45.8896108" lon="11.7191981"><ele>1250.8</ele><time>2026-04-11T12:43:36.976Z</time></trkpt><trkpt lat="45.8895445" lon="11.719103"><ele>1251.6</ele><time>2026-04-11T12:43:37.968Z</time></trkpt><trkpt lat="45.8894717" lon="11.7190128"><ele>1252.4</ele><time>2026-04-11T12:43:38.972Z</time></trkpt><trkpt lat="45.8893902" lon="11.7189391"><ele>1253.2</ele><time>2026-04-11T12:43:39.979Z</time></trkpt><trkpt lat="45.8893041" lon="11.7188637"><ele>1254.0</ele><time>2026-04-11T12:43:40.965Z</time></trkpt><trkpt lat="45.8892189" lon="11.7188001"><ele>1254.0</ele><time>2026-04-11T12:43:41.963Z</time></trkpt><trkpt lat="45.8891414" lon="11.7187563"><ele>1254.0</ele><time>2026-04-11T12:43:42.966Z</time></trkpt><trkpt lat="45.889067" lon="11.7187034"><ele>1254.0</ele><time>2026-04-11T12:43:43.968Z</time></trkpt><trkpt lat="45.8890078" lon="11.7186276"><ele>1254.0</ele><time>2026-04-11T12:43:44.966Z</time></trkpt><trkpt lat="45.8889573" lon="11.7185547"><ele>1254.0</ele><time>2026-04-11T12:43:45.967Z</time></trkpt><trkpt lat="45.8888898" lon="11.7185221"><ele>1254.0</ele><time>2026-04-11T12:43:46.978Z</time></trkpt><trkpt lat="45.8888066" lon="11.7184985"><ele>1249.0</ele><time>2026-04-11T12:43:47.97Z</time></trkpt><trkpt lat="45.8887171" lon="11.7185061"><ele>1244.0</ele><time>2026-04-11T12:43:48.969Z</time></trkpt><trkpt lat="45.8886088" lon="11.7185167"><ele>1239.0</ele><time>2026-04-11T12:43:49.971Z</time></trkpt><trkpt lat="45.8885048" lon="11.7185211"><ele>1234.0</ele><time>2026-04-11T12:43:50.976Z</time></trkpt><trkpt lat="45.8884149" lon="11.7185216"><ele>1229.0</ele><time>2026-04-11T12:43:51.97Z</time></trkpt><trkpt lat="45.8883473" lon="11.7185364"><ele>1229.0</ele><time>2026-04-11T12:43:52.979Z</time></trkpt><trkpt lat="45.8882555" lon="11.7185674"><ele>1229.0</ele><time>2026-04-11T12:43:54.973Z</time></trkpt><trkpt lat="45.8881912" lon="11.718657"><ele>1229.0</ele><time>2026-04-11T12:43:56.972Z</time></trkpt><trkpt lat="45.8881848" lon="11.718842"><ele>1229.0</ele><time>2026-04-11T12:43:58.979Z</time></trkpt><trkpt lat="45.8881744" lon="11.7189539"><ele>1229.0</ele><time>2026-04-11T12:43:59.973Z</time></trkpt><trkpt lat="45.8881614" lon="11.7190606"><ele>1232.2</ele><time>2026-04-11T12:44:00.97Z</time></trkpt><trkpt lat="45.8881563" lon="11.7191656"><ele>1235.4</ele><time>2026-04-11T12:44:01.981Z</time></trkpt><trkpt lat="45.8881513" lon="11.7193327"><ele>1238.6</ele><time>2026-04-11T12:44:03.964Z</time></trkpt><trkpt lat="45.8881502" lon="11.7195009"><ele>1241.8</ele><time>2026-04-11T12:44:05.974Z</time></trkpt><trkpt lat="45.8881505" lon="11.7196515"><ele>1245.0</ele><time>2026-04-11T12:44:07.979Z</time></trkpt><trkpt lat="45.8881449" lon="11.7197907"><ele>1245.0</ele><time>2026-04-11T12:44:09.968Z</time></trkpt><trkpt lat="45.8881387" lon="11.7199326"><ele>1245.0</ele><time>2026-04-11T12:44:11.982Z</time></trkpt><trkpt lat="45.8881333" lon="11.7201006"><ele>1245.0</ele><time>2026-04-11T12:44:13.981Z</time></trkpt><trkpt lat="45.888126" lon="11.7202605"><ele>1245.0</ele><time>2026-04-11T12:44:15.974Z</time></trkpt><trkpt lat="45.888117" lon="11.7204003"><ele>1245.0</ele><time>2026-04-11T12:44:17.975Z</time></trkpt><trkpt lat="45.8881104" lon="11.7205339"><ele>1243.8</ele><time>2026-04-11T12:44:19.981Z</time></trkpt><trkpt lat="45.8881007" lon="11.7206549"><ele>1242.6</ele><time>2026-04-11T12:44:21.992Z</time></trkpt><trkpt lat="45.8880876" lon="11.7207588"><ele>1241.4</ele><time>2026-04-11T12:44:23.975Z</time></trkpt><trkpt lat="45.8880809" lon="11.7208979"><ele>1240.2</ele><time>2026-04-11T12:47:53.989Z</time></trkpt><trkpt lat="45.8881012" lon="11.7210398"><ele>1239.0</ele><time>2026-04-11T12:47:55.987Z</time></trkpt><trkpt lat="45.8881027" lon="11.7212077"><ele>1238.4</ele><time>2026-04-11T12:47:57.973Z</time></trkpt><trkpt lat="45.8880707" lon="11.7213474"><ele>1237.8000000000002</ele><time>2026-04-11T12:47:59.982Z</time></trkpt><trkpt lat="45.8879636" lon="11.7213896"><ele>1237.1999999999998</ele><time>2026-04-11T12:48:01.971Z</time></trkpt><trkpt lat="45.8878785" lon="11.721384"><ele>1236.6</ele><time>2026-04-11T12:48:02.975Z</time></trkpt><trkpt lat="45.8877861" lon="11.7213795"><ele>1236.0</ele><time>2026-04-11T12:48:03.978Z</time></trkpt><trkpt lat="45.88769" lon="11.721382"><ele>1234.8</ele><time>2026-04-11T12:48:04.978Z</time></trkpt><trkpt lat="45.8875915" lon="11.7213874"><ele>1233.6</ele><time>2026-04-11T12:48:05.969Z</time></trkpt><trkpt lat="45.8874915" lon="11.7213997"><ele>1232.4</ele><time>2026-04-11T12:48:06.978Z</time></trkpt><trkpt lat="45.887383" lon="11.7214202"><ele>1231.2</ele><time>2026-04-11T12:48:07.987Z</time></trkpt><trkpt lat="45.8872578" lon="11.7214481"><ele>1230.0</ele><time>2026-04-11T12:48:08.976Z</time></trkpt><trkpt lat="45.8871398" lon="11.7214628"><ele>1230.0</ele><time>2026-04-11T12:48:09.981Z</time></trkpt><trkpt lat="45.8870317" lon="11.7214525"><ele>1230.0</ele><time>2026-04-11T12:48:10.984Z</time></trkpt><trkpt lat="45.886929" lon="11.7214411"><ele>1230.0</ele><time>2026-04-11T12:48:11.984Z</time></trkpt><trkpt lat="45.8868394" lon="11.7213972"><ele>1230.0</ele><time>2026-04-11T12:48:12.978Z</time></trkpt><trkpt lat="45.8867517" lon="11.7213482"><ele>1230.0</ele><time>2026-04-11T12:48:13.987Z</time></trkpt><trkpt lat="45.8866571" lon="11.721297"><ele>1230.5</ele><time>2026-04-11T12:48:14.976Z</time></trkpt><trkpt lat="45.8865545" lon="11.7212419"><ele>1231.0</ele><time>2026-04-11T12:48:15.983Z</time></trkpt><trkpt lat="45.88645" lon="11.721184"><ele>1231.5</ele><time>2026-04-11T12:48:16.974Z</time></trkpt><trkpt lat="45.8863414" lon="11.7211216"><ele>1232.0</ele><time>2026-04-11T12:48:17.978Z</time></trkpt><trkpt lat="45.8862342" lon="11.7210509"><ele>1232.0</ele><time>2026-04-11T12:48:18.978Z</time></trkpt><trkpt lat="45.8861295" lon="11.7209715"><ele>1232.0</ele><time>2026-04-11T12:48:19.974Z</time></trkpt><trkpt lat="45.8860255" lon="11.7208824"><ele>1232.0</ele><time>2026-04-11T12:48:20.976Z</time></trkpt><trkpt lat="45.8859291" lon="11.7207788"><ele>1232.0</ele><time>2026-04-11T12:48:21.97Z</time></trkpt><trkpt lat="45.8858432" lon="11.7206591"><ele>1230.3333333333335</ele><time>2026-04-11T12:48:22.97Z</time></trkpt><trkpt lat="45.8857611" lon="11.7205182"><ele>1228.6666666666667</ele><time>2026-04-11T12:48:23.976Z</time></trkpt><trkpt lat="45.8856625" lon="11.7203379"><ele>1227.0</ele><time>2026-04-11T12:48:24.976Z</time></trkpt><trkpt lat="45.8855602" lon="11.7201574"><ele>1227.0</ele><time>2026-04-11T12:48:25.973Z</time></trkpt><trkpt lat="45.8854668" lon="11.7199898"><ele>1227.0</ele><time>2026-04-11T12:48:26.976Z</time></trkpt><trkpt lat="45.8853772" lon="11.7198293"><ele>1227.0</ele><time>2026-04-11T12:48:27.978Z</time></trkpt><trkpt lat="45.885293" lon="11.7196829"><ele>1227.0</ele><time>2026-04-11T12:48:28.984Z</time></trkpt><trkpt lat="45.8852153" lon="11.7195501"><ele>1227.0</ele><time>2026-04-11T12:48:29.991Z</time></trkpt><trkpt lat="45.8851395" lon="11.7194207"><ele>1227.0</ele><time>2026-04-11T12:48:30.973Z</time></trkpt><trkpt lat="45.8850691" lon="11.7192907"><ele>1227.0</ele><time>2026-04-11T12:48:31.98Z</time></trkpt><trkpt lat="45.8849961" lon="11.7191617"><ele>1227.0</ele><time>2026-04-11T12:48:32.983Z</time></trkpt><trkpt lat="45.8849202" lon="11.7190325"><ele>1227.25</ele><time>2026-04-11T12:48:33.982Z</time></trkpt><trkpt lat="45.8848415" lon="11.7189027"><ele>1227.5</ele><time>2026-04-11T12:48:34.974Z</time></trkpt><trkpt lat="45.8847586" lon="11.7187809"><ele>1227.75</ele><time>2026-04-11T12:48:35.974Z</time></trkpt><trkpt lat="45.8846717" lon="11.7186671"><ele>1228.0</ele><time>2026-04-11T12:48:36.987Z</time></trkpt><trkpt lat="45.8845861" lon="11.7185536"><ele>1228.0</ele><time>2026-04-11T12:48:37.977Z</time></trkpt><trkpt lat="45.884501" lon="11.7184417"><ele>1228.0</ele><time>2026-04-11T12:48:38.972Z</time></trkpt><trkpt lat="45.8844146" lon="11.718336"><ele>1228.0</ele><time>2026-04-11T12:48:39.979Z</time></trkpt><trkpt lat="45.8843192" lon="11.7182491"><ele>1228.0</ele><time>2026-04-11T12:48:40.976Z</time></trkpt><trkpt lat="45.8842222" lon="11.7181653"><ele>1224.5</ele><time>2026-04-11T12:48:41.972Z</time></trkpt><trkpt lat="45.8841037" lon="11.7181483"><ele>1221.0</ele><time>2026-04-11T12:48:42.984Z</time></trkpt><trkpt lat="45.8839862" lon="11.7181542"><ele>1217.5</ele><time>2026-04-11T12:48:43.976Z</time></trkpt><trkpt lat="45.8838671" lon="11.7181682"><ele>1214.0</ele><time>2026-04-11T12:48:44.963Z</time></trkpt><trkpt lat="45.8837399" lon="11.7181913"><ele>1214.0</ele><time>2026-04-11T12:48:45.996Z</time></trkpt><trkpt lat="45.883607" lon="11.7182283"><ele>1214.0</ele><time>2026-04-11T12:48:46.971Z</time></trkpt><trkpt lat="45.883468" lon="11.718283"><ele>1214.0</ele><time>2026-04-11T12:48:47.977Z</time></trkpt><trkpt lat="45.8833237" lon="11.7183473"><ele>1214.0</ele><time>2026-04-11T12:48:48.97Z</time></trkpt><trkpt lat="45.8831804" lon="11.7184162"><ele>1214.0</ele><time>2026-04-11T12:48:49.979Z</time></trkpt><trkpt lat="45.8830361" lon="11.7184907"><ele>1214.0</ele><time>2026-04-11T12:48:50.969Z</time></trkpt><trkpt lat="45.8828945" lon="11.7185734"><ele>1214.0</ele><time>2026-04-11T12:48:51.976Z</time></trkpt><trkpt lat="45.8827581" lon="11.7186663"><ele>1213.5</ele><time>2026-04-11T12:48:52.974Z</time></trkpt><trkpt lat="45.8826229" lon="11.7187615"><ele>1213.0</ele><time>2026-04-11T12:48:53.981Z</time></trkpt><trkpt lat="45.8824873" lon="11.7188541"><ele>1212.5</ele><time>2026-04-11T12:48:54.968Z</time></trkpt><trkpt lat="45.8823522" lon="11.7189371"><ele>1212.0</ele><time>2026-04-11T12:48:55.98Z</time></trkpt><trkpt lat="45.8822177" lon="11.7190263"><ele>1211.5</ele><time>2026-04-11T12:48:57Z</time></trkpt><trkpt lat="45.8820801" lon="11.7190866"><ele>1211.0</ele><time>2026-04-11T12:48:57.978Z</time></trkpt><trkpt lat="45.8819546" lon="11.7191363"><ele>1210.5</ele><time>2026-04-11T12:48:58.972Z</time></trkpt><trkpt lat="45.8818336" lon="11.7191706"><ele>1210.0</ele><time>2026-04-11T12:48:59.986Z</time></trkpt><trkpt lat="45.8817117" lon="11.7191644"><ele>1209.0</ele><time>2026-04-11T12:49:00.971Z</time></trkpt><trkpt lat="45.8815964" lon="11.7191592"><ele>1208.0</ele><time>2026-04-11T12:49:01.976Z</time></trkpt><trkpt lat="45.8814925" lon="11.7191774"><ele>1207.0</ele><time>2026-04-11T12:49:02.977Z</time></trkpt><trkpt lat="45.881383" lon="11.7192217"><ele>1206.0</ele><time>2026-04-11T12:49:03.977Z</time></trkpt><trkpt lat="45.8812706" lon="11.7192802"><ele>1206.0</ele><time>2026-04-11T12:49:04.974Z</time></trkpt><trkpt lat="45.881157" lon="11.7193381"><ele>1206.0</ele><time>2026-04-11T12:49:05.977Z</time></trkpt><trkpt lat="45.8810447" lon="11.7193846"><ele>1206.0</ele><time>2026-04-11T12:49:06.973Z</time></trkpt><trkpt lat="45.8809306" lon="11.7194353"><ele>1206.0</ele><time>2026-04-11T12:49:07.97Z</time></trkpt><trkpt lat="45.8808198" lon="11.7195025"><ele>1207.0</ele><time>2026-04-11T12:49:08.97Z</time></trkpt><trkpt lat="45.8807182" lon="11.7195998"><ele>1208.0</ele><time>2026-04-11T12:49:09.985Z</time></trkpt><trkpt lat="45.8806242" lon="11.719713"><ele>1209.0</ele><time>2026-04-11T12:49:10.979Z</time></trkpt><trkpt lat="45.8805371" lon="11.719831"><ele>1210.0</ele><time>2026-04-11T12:49:11.981Z</time></trkpt><trkpt lat="45.8804543" lon="11.7199495"><ele>1210.0</ele><time>2026-04-11T12:49:12.97Z</time></trkpt><trkpt lat="45.8803672" lon="11.7200585"><ele>1210.0</ele><time>2026-04-11T12:49:13.988Z</time></trkpt><trkpt lat="45.8802674" lon="11.7201484"><ele>1210.0</ele><time>2026-04-11T12:49:14.969Z</time></trkpt><trkpt lat="45.8801599" lon="11.7202149"><ele>1210.0</ele><time>2026-04-11T12:49:15.969Z</time></trkpt><trkpt lat="45.8800476" lon="11.720264"><ele>1208.25</ele><time>2026-04-11T12:49:16.971Z</time></trkpt><trkpt lat="45.87993" lon="11.7203041"><ele>1206.5</ele><time>2026-04-11T12:49:17.968Z</time></trkpt><trkpt lat="45.8798064" lon="11.720335"><ele>1204.75</ele><time>2026-04-11T12:49:18.97Z</time></trkpt><trkpt lat="45.8796774" lon="11.7203583"><ele>1203.0</ele><time>2026-04-11T12:49:19.982Z</time></trkpt><trkpt lat="45.8795464" lon="11.7203828"><ele>1203.0</ele><time>2026-04-11T12:49:20.979Z</time></trkpt><trkpt lat="45.8794115" lon="11.7204076"><ele>1203.0</ele><time>2026-04-11T12:49:21.975Z</time></trkpt><trkpt lat="45.8792689" lon="11.720431"><ele>1203.0</ele><time>2026-04-11T12:49:22.981Z</time></trkpt><trkpt lat="45.8791211" lon="11.7204516"><ele>1203.0</ele><time>2026-04-11T12:49:23.98Z</time></trkpt><trkpt lat="45.8789765" lon="11.7204367"><ele>1201.5</ele><time>2026-04-11T12:49:24.983Z</time></trkpt><trkpt lat="45.8788385" lon="11.7204178"><ele>1200.0</ele><time>2026-04-11T12:49:25.981Z</time></trkpt><trkpt lat="45.8787003" lon="11.7204013"><ele>1198.5</ele><time>2026-04-11T12:49:26.974Z</time></trkpt><trkpt lat="45.8785656" lon="11.7203825"><ele>1197.0</ele><time>2026-04-11T12:49:27.971Z</time></trkpt><trkpt lat="45.8784304" lon="11.7203691"><ele>1196.0</ele><time>2026-04-11T12:49:28.97Z</time></trkpt><trkpt lat="45.8782976" lon="11.7203585"><ele>1195.0</ele><time>2026-04-11T12:49:29.972Z</time></trkpt><trkpt lat="45.8781688" lon="11.7203486"><ele>1194.0</ele><time>2026-04-11T12:49:30.983Z</time></trkpt><trkpt lat="45.878047" lon="11.7203411"><ele>1193.0</ele><time>2026-04-11T12:49:31.973Z</time></trkpt><trkpt lat="45.8779338" lon="11.7203265"><ele>1193.0</ele><time>2026-04-11T12:49:32.98Z</time></trkpt><trkpt lat="45.8778288" lon="11.7202926"><ele>1193.0</ele><time>2026-04-11T12:49:33.977Z</time></trkpt><trkpt lat="45.8777247" lon="11.7202402"><ele>1193.0</ele><time>2026-04-11T12:49:34.97Z</time></trkpt><trkpt lat="45.8776319" lon="11.7201729"><ele>1193.0</ele><time>2026-04-11T12:49:35.972Z</time></trkpt><trkpt lat="45.8775429" lon="11.7200873"><ele>1193.0</ele><time>2026-04-11T12:49:36.974Z</time></trkpt><trkpt lat="45.8774492" lon="11.7200004"><ele>1193.25</ele><time>2026-04-11T12:49:37.975Z</time></trkpt><trkpt lat="45.8773533" lon="11.7199257"><ele>1193.5</ele><time>2026-04-11T12:49:38.972Z</time></trkpt><trkpt lat="45.877249" lon="11.7198616"><ele>1193.75</ele><time>2026-04-11T12:49:39.983Z</time></trkpt><trkpt lat="45.8771368" lon="11.7198127"><ele>1194.0</ele><time>2026-04-11T12:49:40.973Z</time></trkpt><trkpt lat="45.8770197" lon="11.7197765"><ele>1194.0</ele><time>2026-04-11T12:49:41.968Z</time></trkpt><trkpt lat="45.8768969" lon="11.7197477"><ele>1194.0</ele><time>2026-04-11T12:49:42.98Z</time></trkpt><trkpt lat="45.8767678" lon="11.7197212"><ele>1194.0</ele><time>2026-04-11T12:49:43.979Z</time></trkpt><trkpt lat="45.876633" lon="11.7196968"><ele>1194.0</ele><time>2026-04-11T12:49:44.969Z</time></trkpt><trkpt lat="45.8764933" lon="11.7196724"><ele>1193.5</ele><time>2026-04-11T12:49:45.982Z</time></trkpt><trkpt lat="45.8763474" lon="11.7196572"><ele>1193.0</ele><time>2026-04-11T12:49:46.978Z</time></trkpt><trkpt lat="45.8761972" lon="11.7196597"><ele>1192.5</ele><time>2026-04-11T12:49:47.975Z</time></trkpt><trkpt lat="45.8760484" lon="11.7196762"><ele>1192.0</ele><time>2026-04-11T12:49:48.974Z</time></trkpt><trkpt lat="45.875908" lon="11.7197035"><ele>1192.0</ele><time>2026-04-11T12:49:49.969Z</time></trkpt><trkpt lat="45.8757798" lon="11.7197396"><ele>1192.0</ele><time>2026-04-11T12:49:50.977Z</time></trkpt><trkpt lat="45.875662" lon="11.7197921"><ele>1192.0</ele><time>2026-04-11T12:49:51.982Z</time></trkpt><trkpt lat="45.8755478" lon="11.7198714"><ele>1192.0</ele><time>2026-04-11T12:49:52.978Z</time></trkpt><trkpt lat="45.8754397" lon="11.7199834"><ele>1192.0</ele><time>2026-04-11T12:49:53.962Z</time></trkpt><trkpt lat="45.8753258" lon="11.7200942"><ele>1192.0</ele><time>2026-04-11T12:49:54.971Z</time></trkpt><trkpt lat="45.8752152" lon="11.7202294"><ele>1192.0</ele><time>2026-04-11T12:49:55.967Z</time></trkpt><trkpt lat="45.8750914" lon="11.7203419"><ele>1192.0</ele><time>2026-04-11T12:49:56.968Z</time></trkpt><trkpt lat="45.874977" lon="11.7204496"><ele>1190.75</ele><time>2026-04-11T12:49:57.967Z</time></trkpt><trkpt lat="45.8748532" lon="11.720514"><ele>1189.5</ele><time>2026-04-11T12:49:58.972Z</time></trkpt><trkpt lat="45.8747335" lon="11.7205544"><ele>1188.25</ele><time>2026-04-11T12:49:59.965Z</time></trkpt><trkpt lat="45.8746204" lon="11.7205669"><ele>1187.0</ele><time>2026-04-11T12:50:00.975Z</time></trkpt><trkpt lat="45.874506" lon="11.7205301"><ele>1187.0</ele><time>2026-04-11T12:50:01.972Z</time></trkpt><trkpt lat="45.8743927" lon="11.7204779"><ele>1187.0</ele><time>2026-04-11T12:50:02.975Z</time></trkpt><trkpt lat="45.8742787" lon="11.7203441"><ele>1187.0</ele><time>2026-04-11T12:50:03.977Z</time></trkpt><trkpt lat="45.8741297" lon="11.7202535"><ele>1187.0</ele><time>2026-04-11T12:50:04.978Z</time></trkpt><trkpt lat="45.873995" lon="11.7201636"><ele>1186.0</ele><time>2026-04-11T12:50:05.971Z</time></trkpt><trkpt lat="45.8738645" lon="11.7200873"><ele>1185.0</ele><time>2026-04-11T12:50:06.973Z</time></trkpt><trkpt lat="45.8737469" lon="11.7200268"><ele>1184.0</ele><time>2026-04-11T12:50:07.977Z</time></trkpt><trkpt lat="45.8736271" lon="11.7199922"><ele>1183.0</ele><time>2026-04-11T12:50:08.971Z</time></trkpt><trkpt lat="45.8735061" lon="11.7199936"><ele>1183.0</ele><time>2026-04-11T12:50:09.975Z</time></trkpt><trkpt lat="45.8733818" lon="11.7200369"><ele>1183.0</ele><time>2026-04-11T12:50:10.969Z</time></trkpt><trkpt lat="45.8732543" lon="11.7201106"><ele>1183.0</ele><time>2026-04-11T12:50:11.965Z</time></trkpt><trkpt lat="45.873138" lon="11.7201755"><ele>1183.0</ele><time>2026-04-11T12:50:12.972Z</time></trkpt><trkpt lat="45.8730454" lon="11.7202267"><ele>1182.6666666666665</ele><time>2026-04-11T12:50:13.975Z</time></trkpt><trkpt lat="45.8729837" lon="11.7202757"><ele>1182.3333333333333</ele><time>2026-04-11T12:50:14.968Z</time></trkpt><trkpt lat="45.872889" lon="11.7202831"><ele>1182.0</ele><time>2026-04-11T12:50:16.976Z</time></trkpt><trkpt lat="45.8727889" lon="11.7203191"><ele>1181.6666666666667</ele><time>2026-04-11T12:50:27.988Z</time></trkpt><trkpt lat="45.8726875" lon="11.7203465"><ele>1181.3333333333335</ele><time>2026-04-11T12:50:29.981Z</time></trkpt><trkpt lat="45.8726124" lon="11.7203658"><ele>1181.0</ele><time>2026-04-11T12:50:30.989Z</time></trkpt><trkpt lat="45.8725214" lon="11.7203948"><ele>1179.8</ele><time>2026-04-11T12:50:31.974Z</time></trkpt><trkpt lat="45.8724206" lon="11.7204317"><ele>1178.6</ele><time>2026-04-11T12:50:32.979Z</time></trkpt><trkpt lat="45.8723205" lon="11.7204696"><ele>1177.4</ele><time>2026-04-11T12:50:33.974Z</time></trkpt><trkpt lat="45.8722281" lon="11.7205147"><ele>1176.2</ele><time>2026-04-11T12:50:34.968Z</time></trkpt><trkpt lat="45.8721401" lon="11.7205645"><ele>1175.0</ele><time>2026-04-11T12:50:35.976Z</time></trkpt><trkpt lat="45.8720656" lon="11.7206658"><ele>1175.0</ele><time>2026-04-11T12:50:36.981Z</time></trkpt><trkpt lat="45.8719982" lon="11.7208109"><ele>1175.0</ele><time>2026-04-11T12:50:37.968Z</time></trkpt><trkpt lat="45.8719359" lon="11.7209856"><ele>1175.0</ele><time>2026-04-11T12:50:38.978Z</time></trkpt><trkpt lat="45.8718757" lon="11.7211609"><ele>1175.0</ele><time>2026-04-11T12:50:39.98Z</time></trkpt><trkpt lat="45.8718188" lon="11.7213074"><ele>1173.2</ele><time>2026-04-11T12:50:40.974Z</time></trkpt><trkpt lat="45.8717486" lon="11.7214113"><ele>1171.4</ele><time>2026-04-11T12:50:41.97Z</time></trkpt><trkpt lat="45.8716707" lon="11.7214742"><ele>1169.6</ele><time>2026-04-11T12:50:42.972Z</time></trkpt><trkpt lat="45.8715798" lon="11.7214945"><ele>1167.8</ele><time>2026-04-11T12:50:43.967Z</time></trkpt><trkpt lat="45.8714826" lon="11.7214841"><ele>1166.0</ele><time>2026-04-11T12:50:44.968Z</time></trkpt><trkpt lat="45.871382" lon="11.7214678"><ele>1166.0</ele><time>2026-04-11T12:50:45.978Z</time></trkpt><trkpt lat="45.8712798" lon="11.7214359"><ele>1166.0</ele><time>2026-04-11T12:50:46.965Z</time></trkpt><trkpt lat="45.8711669" lon="11.7214282"><ele>1166.0</ele><time>2026-04-11T12:50:47.969Z</time></trkpt><trkpt lat="45.8710645" lon="11.7214376"><ele>1166.0</ele><time>2026-04-11T12:50:48.966Z</time></trkpt><trkpt lat="45.8709712" lon="11.7214455"><ele>1166.0</ele><time>2026-04-11T12:50:49.97Z</time></trkpt><trkpt lat="45.8708804" lon="11.7215107"><ele>1164.6</ele><time>2026-04-11T12:50:50.976Z</time></trkpt><trkpt lat="45.870819" lon="11.7216353"><ele>1163.1999999999998</ele><time>2026-04-11T12:50:51.981Z</time></trkpt><trkpt lat="45.8707657" lon="11.7217632"><ele>1161.8000000000002</ele><time>2026-04-11T12:50:52.992Z</time></trkpt><trkpt lat="45.8706888" lon="11.721876"><ele>1160.4</ele><time>2026-04-11T12:50:53.973Z</time></trkpt><trkpt lat="45.8706202" lon="11.7219872"><ele>1159.0</ele><time>2026-04-11T12:50:54.971Z</time></trkpt><trkpt lat="45.8705307" lon="11.7220329"><ele>1158.75</ele><time>2026-04-11T12:50:55.975Z</time></trkpt><trkpt lat="45.8704367" lon="11.7220511"><ele>1158.5</ele><time>2026-04-11T12:50:56.967Z</time></trkpt><trkpt lat="45.8703142" lon="11.7220107"><ele>1158.25</ele><time>2026-04-11T12:50:57.974Z</time></trkpt><trkpt lat="45.8701784" lon="11.7219052"><ele>1158.0</ele><time>2026-04-11T12:50:58.973Z</time></trkpt><trkpt lat="45.8700494" lon="11.7219153"><ele>1155.0</ele><time>2026-04-11T12:50:59.977Z</time></trkpt><trkpt lat="45.8699402" lon="11.7219675"><ele>1152.0</ele><time>2026-04-11T12:51:00.969Z</time></trkpt><trkpt lat="45.8698397" lon="11.7220387"><ele>1149.0</ele><time>2026-04-11T12:51:01.981Z</time></trkpt><trkpt lat="45.8697417" lon="11.7221362"><ele>1146.0</ele><time>2026-04-11T12:51:02.972Z</time></trkpt><trkpt lat="45.8696364" lon="11.722285"><ele>1146.0</ele><time>2026-04-11T12:51:03.974Z</time></trkpt><trkpt lat="45.8695372" lon="11.7224325"><ele>1146.0</ele><time>2026-04-11T12:51:04.971Z</time></trkpt><trkpt lat="45.8694423" lon="11.7225635"><ele>1146.0</ele><time>2026-04-11T12:51:05.984Z</time></trkpt><trkpt lat="45.8693559" lon="11.7226822"><ele>1146.0</ele><time>2026-04-11T12:51:06.975Z</time></trkpt><trkpt lat="45.8692783" lon="11.7227866"><ele>1145.2</ele><time>2026-04-11T12:51:07.979Z</time></trkpt><trkpt lat="45.8691965" lon="11.7228897"><ele>1144.3999999999999</ele><time>2026-04-11T12:51:08.984Z</time></trkpt><trkpt lat="45.8691099" lon="11.723002"><ele>1143.6</ele><time>2026-04-11T12:51:09.983Z</time></trkpt><trkpt lat="45.8690282" lon="11.7231181"><ele>1142.8</ele><time>2026-04-11T12:51:10.981Z</time></trkpt><trkpt lat="45.8689604" lon="11.7232377"><ele>1142.0</ele><time>2026-04-11T12:51:11.987Z</time></trkpt><trkpt lat="45.8689131" lon="11.7233717"><ele>1142.0</ele><time>2026-04-11T12:51:12.968Z</time></trkpt><trkpt lat="45.8688889" lon="11.7235274"><ele>1142.0</ele><time>2026-04-11T12:51:13.978Z</time></trkpt><trkpt lat="45.868882" lon="11.7236979"><ele>1142.0</ele><time>2026-04-11T12:51:14.988Z</time></trkpt><trkpt lat="45.8688769" lon="11.7238722"><ele>1142.0</ele><time>2026-04-11T12:51:15.977Z</time></trkpt><trkpt lat="45.8688778" lon="11.7240518"><ele>1142.5</ele><time>2026-04-11T12:51:16.977Z</time></trkpt><trkpt lat="45.8688842" lon="11.7242337"><ele>1143.0</ele><time>2026-04-11T12:51:17.971Z</time></trkpt><trkpt lat="45.8688924" lon="11.7244165"><ele>1143.5</ele><time>2026-04-11T12:51:18.961Z</time></trkpt><trkpt lat="45.8688938" lon="11.7245939"><ele>1144.0</ele><time>2026-04-11T12:51:19.981Z</time></trkpt><trkpt lat="45.8688763" lon="11.7247688"><ele>1144.6000000000001</ele><time>2026-04-11T12:51:20.975Z</time></trkpt><trkpt lat="45.8688368" lon="11.7249271"><ele>1145.2</ele><time>2026-04-11T12:51:21.971Z</time></trkpt><trkpt lat="45.8687805" lon="11.7250605"><ele>1145.8000000000002</ele><time>2026-04-11T12:51:22.981Z</time></trkpt><trkpt lat="45.8687106" lon="11.7251622"><ele>1146.4</ele><time>2026-04-11T12:51:23.974Z</time></trkpt><trkpt lat="45.8686237" lon="11.7252261"><ele>1147.0</ele><time>2026-04-11T12:51:24.972Z</time></trkpt><trkpt lat="45.86852" lon="11.7252357"><ele>1146.5</ele><time>2026-04-11T12:51:25.991Z</time></trkpt><trkpt lat="45.8684054" lon="11.7252334"><ele>1146.0</ele><time>2026-04-11T12:51:26.983Z</time></trkpt><trkpt lat="45.8682707" lon="11.7251777"><ele>1145.5</ele><time>2026-04-11T12:51:27.983Z</time></trkpt><trkpt lat="45.8681335" lon="11.7251597"><ele>1145.0</ele><time>2026-04-11T12:51:28.979Z</time></trkpt><trkpt lat="45.8680141" lon="11.7251641"><ele>1145.0</ele><time>2026-04-11T12:51:29.992Z</time></trkpt><trkpt lat="45.8679003" lon="11.7251766"><ele>1145.0</ele><time>2026-04-11T12:51:30.974Z</time></trkpt><trkpt lat="45.8677998" lon="11.7252563"><ele>1145.0</ele><time>2026-04-11T12:51:31.976Z</time></trkpt><trkpt lat="45.8676975" lon="11.7253897"><ele>1145.0</ele><time>2026-04-11T12:51:32.991Z</time></trkpt><trkpt lat="45.8676038" lon="11.7255486"><ele>1140.75</ele><time>2026-04-11T12:51:33.976Z</time></trkpt><trkpt lat="45.8675192" lon="11.7256918"><ele>1136.5</ele><time>2026-04-11T12:51:34.978Z</time></trkpt><trkpt lat="45.8674361" lon="11.7258192"><ele>1132.25</ele><time>2026-04-11T12:51:35.985Z</time></trkpt><trkpt lat="45.8673623" lon="11.7259386"><ele>1128.0</ele><time>2026-04-11T12:51:36.981Z</time></trkpt><trkpt lat="45.8672897" lon="11.7260385"><ele>1130.1666666666667</ele><time>2026-04-11T12:51:37.975Z</time></trkpt><trkpt lat="45.8672201" lon="11.7261309"><ele>1132.3333333333333</ele><time>2026-04-11T12:51:38.989Z</time></trkpt><trkpt lat="45.8671419" lon="11.7262052"><ele>1134.5</ele><time>2026-04-11T12:51:39.975Z</time></trkpt><trkpt lat="45.8670542" lon="11.7262371"><ele>1136.6666666666665</ele><time>2026-04-11T12:51:40.965Z</time></trkpt><trkpt lat="45.866966" lon="11.7262231"><ele>1138.8333333333333</ele><time>2026-04-11T12:51:41.992Z</time></trkpt><trkpt lat="45.8668948" lon="11.726215"><ele>1141.0</ele><time>2026-04-11T12:51:42.98Z</time></trkpt><trkpt lat="45.8668243" lon="11.7262"><ele>1139.0</ele><time>2026-04-11T12:51:43.972Z</time></trkpt><trkpt lat="45.8667579" lon="11.7261781"><ele>1137.0</ele><time>2026-04-11T12:51:44.98Z</time></trkpt><trkpt lat="45.8666446" lon="11.7261386"><ele>1135.0</ele><time>2026-04-11T12:51:46.972Z</time></trkpt><trkpt lat="45.8665242" lon="11.7261022"><ele>1133.0</ele><time>2026-04-11T12:51:48.988Z</time></trkpt><trkpt lat="45.8664623" lon="11.7260543"><ele>1131.0</ele><time>2026-04-11T12:51:49.977Z</time></trkpt><trkpt lat="45.8663901" lon="11.7260284"><ele>1131.0</ele><time>2026-04-11T12:51:50.967Z</time></trkpt><trkpt lat="45.8662827" lon="11.726026"><ele>1131.0</ele><time>2026-04-11T12:51:52.982Z</time></trkpt><trkpt lat="45.8662182" lon="11.7260516"><ele>1131.0</ele><time>2026-04-11T12:51:53.971Z</time></trkpt><trkpt lat="45.8661459" lon="11.7260866"><ele>1131.0</ele><time>2026-04-11T12:51:54.973Z</time></trkpt><trkpt lat="45.8660758" lon="11.7261332"><ele>1131.0</ele><time>2026-04-11T12:51:55.984Z</time></trkpt><trkpt lat="45.8660065" lon="11.7261852"><ele>1131.0</ele><time>2026-04-11T12:51:56.97Z</time></trkpt><trkpt lat="45.8659586" lon="11.7262583"><ele>1129.8333333333333</ele><time>2026-04-11T12:51:57.978Z</time></trkpt><trkpt lat="45.8659027" lon="11.7263479"><ele>1128.6666666666667</ele><time>2026-04-11T12:51:58.981Z</time></trkpt><trkpt lat="45.8658346" lon="11.7264255"><ele>1127.5</ele><time>2026-04-11T12:51:59.974Z</time></trkpt><trkpt lat="45.8657687" lon="11.7264857"><ele>1126.3333333333335</ele><time>2026-04-11T12:52:00.983Z</time></trkpt><trkpt lat="45.8656745" lon="11.726516"><ele>1125.1666666666667</ele><time>2026-04-11T12:52:01.981Z</time></trkpt><trkpt lat="45.8655754" lon="11.7265435"><ele>1124.0</ele><time>2026-04-11T12:52:02.984Z</time></trkpt><trkpt lat="45.8654719" lon="11.7265717"><ele>1124.0</ele><time>2026-04-11T12:52:03.984Z</time></trkpt><trkpt lat="45.8653733" lon="11.726592"><ele>1124.0</ele><time>2026-04-11T12:52:04.985Z</time></trkpt><trkpt lat="45.8652768" lon="11.7266164"><ele>1124.0</ele><time>2026-04-11T12:52:05.978Z</time></trkpt><trkpt lat="45.8651806" lon="11.7266478"><ele>1124.0</ele><time>2026-04-11T12:52:06.985Z</time></trkpt><trkpt lat="45.8650936" lon="11.7266764"><ele>1124.0</ele><time>2026-04-11T12:52:07.975Z</time></trkpt><trkpt lat="45.8650263" lon="11.726713"><ele>1121.8</ele><time>2026-04-11T12:52:08.967Z</time></trkpt><trkpt lat="45.8649254" lon="11.7267868"><ele>1119.6000000000001</ele><time>2026-04-11T12:52:10.97Z</time></trkpt><trkpt lat="45.8648421" lon="11.726833"><ele>1117.4</ele><time>2026-04-11T12:52:12.988Z</time></trkpt><trkpt lat="45.864761" lon="11.726822"><ele>1115.2</ele><time>2026-04-11T12:52:14.977Z</time></trkpt><trkpt lat="45.8646709" lon="11.7267094"><ele>1113.0</ele><time>2026-04-11T12:52:16.977Z</time></trkpt><trkpt lat="45.8646259" lon="11.7266236"><ele>1113.0</ele><time>2026-04-11T12:52:17.972Z</time></trkpt><trkpt lat="45.8645785" lon="11.7265377"><ele>1113.0</ele><time>2026-04-11T12:52:18.981Z</time></trkpt><trkpt lat="45.8645283" lon="11.7264717"><ele>1113.0</ele><time>2026-04-11T12:52:19.984Z</time></trkpt><trkpt lat="45.8644278" lon="11.7264119"><ele>1113.0</ele><time>2026-04-11T12:52:21.98Z</time></trkpt><trkpt lat="45.8643319" lon="11.7264395"><ele>1113.0</ele><time>2026-04-11T12:52:23.972Z</time></trkpt><trkpt lat="45.8642833" lon="11.7265863"><ele>1113.0</ele><time>2026-04-11T12:52:25.984Z</time></trkpt><trkpt lat="45.8642864" lon="11.7267445"><ele>1113.0</ele><time>2026-04-11T12:52:27.981Z</time></trkpt><trkpt lat="45.8642688" lon="11.726876"><ele>1113.0</ele><time>2026-04-11T12:52:29.979Z</time></trkpt><trkpt lat="45.8641844" lon="11.7269412"><ele>1113.0</ele><time>2026-04-11T12:52:31.986Z</time></trkpt><trkpt lat="45.8640646" lon="11.7269367"><ele>1113.0</ele><time>2026-04-11T12:52:33.98Z</time></trkpt><trkpt lat="45.863957" lon="11.7268848"><ele>1112.0</ele><time>2026-04-11T12:52:35.975Z</time></trkpt><trkpt lat="45.8638789" lon="11.7268299"><ele>1111.0</ele><time>2026-04-11T12:52:37.974Z</time></trkpt><trkpt lat="45.8638004" lon="11.7268106"><ele>1110.0</ele><time>2026-04-11T12:52:46.987Z</time></trkpt><trkpt lat="45.8637305" lon="11.7269017"><ele>1109.0</ele><time>2026-04-11T12:52:48.98Z</time></trkpt><trkpt lat="45.8636765" lon="11.7269686"><ele>1108.0</ele><time>2026-04-11T12:52:49.973Z</time></trkpt><trkpt lat="45.8636254" lon="11.7270401"><ele>1107.0</ele><time>2026-04-11T12:52:50.972Z</time></trkpt><trkpt lat="45.863579" lon="11.7271196"><ele>1107.0</ele><time>2026-04-11T12:52:51.977Z</time></trkpt><trkpt lat="45.8635378" lon="11.7272141"><ele>1107.0</ele><time>2026-04-11T12:52:52.993Z</time></trkpt><trkpt lat="45.8634986" lon="11.7273156"><ele>1107.0</ele><time>2026-04-11T12:52:53.979Z</time></trkpt><trkpt lat="45.8634594" lon="11.7274122"><ele>1107.0</ele><time>2026-04-11T12:52:54.98Z</time></trkpt><trkpt lat="45.8634151" lon="11.7275003"><ele>1107.0</ele><time>2026-04-11T12:52:55.966Z</time></trkpt><trkpt lat="45.8633535" lon="11.7275689"><ele>1107.0</ele><time>2026-04-11T12:52:56.978Z</time></trkpt><trkpt lat="45.8632749" lon="11.7276132"><ele>1105.0</ele><time>2026-04-11T12:52:57.972Z</time></trkpt><trkpt lat="45.8631926" lon="11.7276581"><ele>1103.0</ele><time>2026-04-11T12:52:58.967Z</time></trkpt><trkpt lat="45.8630943" lon="11.727664"><ele>1101.0</ele><time>2026-04-11T12:52:59.965Z</time></trkpt><trkpt lat="45.862995" lon="11.7276805"><ele>1099.0</ele><time>2026-04-11T12:53:00.972Z</time></trkpt><trkpt lat="45.8628933" lon="11.7276684"><ele>1097.0</ele><time>2026-04-11T12:53:01.971Z</time></trkpt><trkpt lat="45.8627851" lon="11.7276062"><ele>1097.0</ele><time>2026-04-11T12:53:02.974Z</time></trkpt><trkpt lat="45.8626679" lon="11.7275504"><ele>1097.0</ele><time>2026-04-11T12:53:03.976Z</time></trkpt><trkpt lat="45.8625685" lon="11.7274897"><ele>1097.0</ele><time>2026-04-11T12:53:04.985Z</time></trkpt><trkpt lat="45.8624611" lon="11.7274335"><ele>1097.0</ele><time>2026-04-11T12:53:05.963Z</time></trkpt><trkpt lat="45.8623488" lon="11.7273947"><ele>1096.4</ele><time>2026-04-11T12:53:06.982Z</time></trkpt><trkpt lat="45.8622444" lon="11.7273663"><ele>1095.8000000000002</ele><time>2026-04-11T12:53:07.974Z</time></trkpt><trkpt lat="45.8621535" lon="11.7273402"><ele>1095.2</ele><time>2026-04-11T12:53:08.968Z</time></trkpt><trkpt lat="45.8620657" lon="11.7273405"><ele>1094.6000000000001</ele><time>2026-04-11T12:53:09.98Z</time></trkpt><trkpt lat="45.8619902" lon="11.7274079"><ele>1094.0</ele><time>2026-04-11T12:53:10.981Z</time></trkpt><trkpt lat="45.8619299" lon="11.7275334"><ele>1094.0</ele><time>2026-04-11T12:53:11.966Z</time></trkpt><trkpt lat="45.8618498" lon="11.7276633"><ele>1094.0</ele><time>2026-04-11T12:53:12.983Z</time></trkpt><trkpt lat="45.8617607" lon="11.7277568"><ele>1094.0</ele><time>2026-04-11T12:53:13.981Z</time></trkpt><trkpt lat="45.8616545" lon="11.7278023"><ele>1094.0</ele><time>2026-04-11T12:53:14.967Z</time></trkpt><trkpt lat="45.8615396" lon="11.7278325"><ele>1094.75</ele><time>2026-04-11T12:53:15.974Z</time></trkpt><trkpt lat="45.8614222" lon="11.7278654"><ele>1095.5</ele><time>2026-04-11T12:53:16.983Z</time></trkpt><trkpt lat="45.8612983" lon="11.7279071"><ele>1096.25</ele><time>2026-04-11T12:53:17.961Z</time></trkpt><trkpt lat="45.8611707" lon="11.7280139"><ele>1097.0</ele><time>2026-04-11T12:53:18.982Z</time></trkpt><trkpt lat="45.8610435" lon="11.7281266"><ele>1095.25</ele><time>2026-04-11T12:53:19.982Z</time></trkpt><trkpt lat="45.8609175" lon="11.728236"><ele>1093.5</ele><time>2026-04-11T12:53:20.971Z</time></trkpt><trkpt lat="45.8608141" lon="11.7283652"><ele>1091.75</ele><time>2026-04-11T12:53:21.976Z</time></trkpt><trkpt lat="45.8607191" lon="11.7284993"><ele>1090.0</ele><time>2026-04-11T12:53:22.982Z</time></trkpt><trkpt lat="45.8606333" lon="11.7286312"><ele>1089.6</ele><time>2026-04-11T12:53:23.978Z</time></trkpt><trkpt lat="45.8605607" lon="11.7287557"><ele>1089.2</ele><time>2026-04-11T12:53:24.968Z</time></trkpt><trkpt lat="45.8604923" lon="11.7288734"><ele>1088.8</ele><time>2026-04-11T12:53:25.971Z</time></trkpt><trkpt lat="45.8604716" lon="11.7290197"><ele>1088.4</ele><time>2026-04-11T12:53:26.977Z</time></trkpt><trkpt lat="45.8604821" lon="11.7291827"><ele>1088.0</ele><time>2026-04-11T12:53:27.984Z</time></trkpt><trkpt lat="45.8604863" lon="11.729358"><ele>1088.25</ele><time>2026-04-11T12:53:28.964Z</time></trkpt><trkpt lat="45.8605006" lon="11.7295409"><ele>1088.5</ele><time>2026-04-11T12:53:29.975Z</time></trkpt><trkpt lat="45.8604786" lon="11.7297214"><ele>1088.75</ele><time>2026-04-11T12:53:30.979Z</time></trkpt><trkpt lat="45.8604219" lon="11.7298854"><ele>1089.0</ele><time>2026-04-11T12:53:31.969Z</time></trkpt><trkpt lat="45.8603262" lon="11.7300077"><ele>1089.0</ele><time>2026-04-11T12:53:32.982Z</time></trkpt><trkpt lat="45.8602335" lon="11.7301181"><ele>1089.0</ele><time>2026-04-11T12:53:33.973Z</time></trkpt><trkpt lat="45.8601285" lon="11.7301661"><ele>1089.0</ele><time>2026-04-11T12:53:34.97Z</time></trkpt><trkpt lat="45.8600086" lon="11.7301934"><ele>1089.0</ele><time>2026-04-11T12:53:35.972Z</time></trkpt><trkpt lat="45.8598975" lon="11.7302245"><ele>1086.5</ele><time>2026-04-11T12:53:36.966Z</time></trkpt><trkpt lat="45.8598165" lon="11.7302508"><ele>1084.0</ele><time>2026-04-11T12:53:37.971Z</time></trkpt><trkpt lat="45.8597325" lon="11.7302628"><ele>1081.5</ele><time>2026-04-11T12:53:39.978Z</time></trkpt><trkpt lat="45.8596792" lon="11.7303178"><ele>1079.0</ele><time>2026-04-11T12:53:42.981Z</time></trkpt><trkpt lat="45.8596609" lon="11.7304119"><ele>1076.5</ele><time>2026-04-11T12:53:56.002Z</time></trkpt><trkpt lat="45.8595686" lon="11.7305283"><ele>1074.0</ele><time>2026-04-11T12:53:57.967Z</time></trkpt><trkpt lat="45.8595138" lon="11.730598"><ele>1074.0</ele><time>2026-04-11T12:53:58.969Z</time></trkpt><trkpt lat="45.8594444" lon="11.7307203"><ele>1074.0</ele><time>2026-04-11T12:54:00.97Z</time></trkpt><trkpt lat="45.8594365" lon="11.7308421"><ele>1074.0</ele><time>2026-04-11T12:54:02.969Z</time></trkpt><trkpt lat="45.8595237" lon="11.7309094"><ele>1074.0</ele><time>2026-04-11T12:54:04.971Z</time></trkpt><trkpt lat="45.8595872" lon="11.7309074"><ele>1074.0</ele><time>2026-04-11T12:54:05.965Z</time></trkpt><trkpt lat="45.8596567" lon="11.730909"><ele>1074.0</ele><time>2026-04-11T12:54:06.978Z</time></trkpt><trkpt lat="45.8597262" lon="11.7309182"><ele>1074.0</ele><time>2026-04-11T12:54:07.97Z</time></trkpt><trkpt lat="45.8597949" lon="11.730926"><ele>1074.0</ele><time>2026-04-11T12:54:08.977Z</time></trkpt><trkpt lat="45.8598608" lon="11.7309382"><ele>1074.0</ele><time>2026-04-11T12:54:09.981Z</time></trkpt><trkpt lat="45.8599747" lon="11.7310061"><ele>1074.0</ele><time>2026-04-11T12:54:11.972Z</time></trkpt><trkpt lat="45.860098" lon="11.7310709"><ele>1074.0</ele><time>2026-04-11T12:54:13.98Z</time></trkpt><trkpt lat="45.8601587" lon="11.7310971"><ele>1076.3333333333333</ele><time>2026-04-11T12:54:14.968Z</time></trkpt><trkpt lat="45.8602167" lon="11.7311347"><ele>1078.6666666666667</ele><time>2026-04-11T12:54:15.985Z</time></trkpt><trkpt lat="45.8603196" lon="11.7312357"><ele>1081.0</ele><time>2026-04-11T12:54:17.97Z</time></trkpt><trkpt lat="45.8603751" lon="11.7313877"><ele>1083.3333333333335</ele><time>2026-04-11T12:54:19.971Z</time></trkpt><trkpt lat="45.8603969" lon="11.7314733"><ele>1085.6666666666667</ele><time>2026-04-11T12:54:20.968Z</time></trkpt><trkpt lat="45.8604259" lon="11.7315556"><ele>1088.0</ele><time>2026-04-11T12:54:21.965Z</time></trkpt><trkpt lat="45.8604962" lon="11.7316911"><ele>1088.0</ele><time>2026-04-11T12:54:23.977Z</time></trkpt><trkpt lat="45.8605992" lon="11.7317861"><ele>1088.0</ele><time>2026-04-11T12:54:25.972Z</time></trkpt><trkpt lat="45.8607138" lon="11.7318377"><ele>1088.0</ele><time>2026-04-11T12:54:27.967Z</time></trkpt><trkpt lat="45.8608045" lon="11.7318617"><ele>1088.0</ele><time>2026-04-11T12:54:29.976Z</time></trkpt><trkpt lat="45.860833" lon="11.7319533"><ele>1088.0</ele><time>2026-04-11T12:54:31.965Z</time></trkpt><trkpt lat="45.8607758" lon="11.732067"><ele>1088.5</ele><time>2026-04-11T12:54:33.974Z</time></trkpt><trkpt lat="45.8607227" lon="11.7321354"><ele>1089.0</ele><time>2026-04-11T12:54:34.979Z</time></trkpt><trkpt lat="45.860659" lon="11.7322038"><ele>1089.5</ele><time>2026-04-11T12:54:35.977Z</time></trkpt><trkpt lat="45.8605881" lon="11.7322679"><ele>1090.0</ele><time>2026-04-11T12:54:36.969Z</time></trkpt><trkpt lat="45.8605112" lon="11.7323258"><ele>1090.5</ele><time>2026-04-11T12:54:37.965Z</time></trkpt><trkpt lat="45.8604423" lon="11.732376"><ele>1091.0</ele><time>2026-04-11T12:54:38.971Z</time></trkpt><trkpt lat="45.8603692" lon="11.7324708"><ele>1091.0</ele><time>2026-04-11T12:54:40.966Z</time></trkpt><trkpt lat="45.8603206" lon="11.7326039"><ele>1091.0</ele><time>2026-04-11T12:54:42.978Z</time></trkpt><trkpt lat="45.8603123" lon="11.7326991"><ele>1091.0</ele><time>2026-04-11T12:54:43.975Z</time></trkpt><trkpt lat="45.8603053" lon="11.7327961"><ele>1091.0</ele><time>2026-04-11T12:54:44.97Z</time></trkpt><trkpt lat="45.860294" lon="11.7329651"><ele>1091.0</ele><time>2026-04-11T12:54:46.974Z</time></trkpt><trkpt lat="45.8602992" lon="11.7331149"><ele>1094.3999999999999</ele><time>2026-04-11T12:54:48.996Z</time></trkpt><trkpt lat="45.8603315" lon="11.7332355"><ele>1097.8</ele><time>2026-04-11T12:54:50.966Z</time></trkpt><trkpt lat="45.8603736" lon="11.7333803"><ele>1101.1999999999998</ele><time>2026-04-11T12:54:52.998Z</time></trkpt><trkpt lat="45.8603558" lon="11.73352"><ele>1104.6</ele><time>2026-04-11T12:54:54.98Z</time></trkpt><trkpt lat="45.8602948" lon="11.733627"><ele>1108.0</ele><time>2026-04-11T12:54:56.982Z</time></trkpt><trkpt lat="45.8602332" lon="11.7337124"><ele>1110.5</ele><time>2026-04-11T12:54:58.98Z</time></trkpt><trkpt lat="45.860275" lon="11.7338171"><ele>1113.0</ele><time>2026-04-11T12:55:01.985Z</time></trkpt><trkpt lat="45.8603713" lon="11.7338473"><ele>1115.5</ele><time>2026-04-11T12:55:03.981Z</time></trkpt><trkpt lat="45.8604354" lon="11.733829"><ele>1118.0</ele><time>2026-04-11T12:55:04.98Z</time></trkpt><trkpt lat="45.8605024" lon="11.7337945"><ele>1120.5</ele><time>2026-04-11T12:55:05.977Z</time></trkpt><trkpt lat="45.8605649" lon="11.7337466"><ele>1123.0</ele><time>2026-04-11T12:55:06.996Z</time></trkpt><trkpt lat="45.8606247" lon="11.7336919"><ele>1122.9999999999998</ele><time>2026-04-11T12:55:07.986Z</time></trkpt><trkpt lat="45.8606764" lon="11.7336281"><ele>1123.0</ele><time>2026-04-11T12:55:08.977Z</time></trkpt><trkpt lat="45.8607104" lon="11.7335509"><ele>1123.0</ele><time>2026-04-11T12:55:09.98Z</time></trkpt><trkpt lat="45.8607436" lon="11.7334691"><ele>1123.0</ele><time>2026-04-11T12:55:10.974Z</time></trkpt><trkpt lat="45.8607573" lon="11.733371"><ele>1123.0</ele><time>2026-04-11T12:55:11.976Z</time></trkpt><trkpt lat="45.8607836" lon="11.7332801"><ele>1122.9999999999998</ele><time>2026-04-11T12:55:12.99Z</time></trkpt><trkpt lat="45.860865" lon="11.7331778"><ele>1123.0</ele><time>2026-04-11T12:55:14.976Z</time></trkpt><trkpt lat="45.8609842" lon="11.7331434"><ele>1125.142857142857</ele><time>2026-04-11T12:55:16.981Z</time></trkpt><trkpt lat="45.8610492" lon="11.7331314"><ele>1127.2857142857142</ele><time>2026-04-11T12:55:17.971Z</time></trkpt><trkpt lat="45.861118" lon="11.7331282"><ele>1129.4285714285716</ele><time>2026-04-11T12:55:18.973Z</time></trkpt><trkpt lat="45.861187" lon="11.7331214"><ele>1131.5714285714284</ele><time>2026-04-11T12:55:19.981Z</time></trkpt><trkpt lat="45.8612578" lon="11.7331075"><ele>1133.7142857142858</ele><time>2026-04-11T12:55:20.99Z</time></trkpt><trkpt lat="45.8613288" lon="11.7330843"><ele>1135.857142857143</ele><time>2026-04-11T12:55:21.972Z</time></trkpt><trkpt lat="45.8613995" lon="11.7330487"><ele>1138.0</ele><time>2026-04-11T12:55:22.975Z</time></trkpt><trkpt lat="45.8614652" lon="11.7329962"><ele>1138.0</ele><time>2026-04-11T12:55:23.978Z</time></trkpt><trkpt lat="45.8615238" lon="11.7329238"><ele>1138.0</ele><time>2026-04-11T12:55:24.99Z</time></trkpt><trkpt lat="45.8615758" lon="11.732837"><ele>1138.0</ele><time>2026-04-11T12:55:25.978Z</time></trkpt><trkpt lat="45.8616234" lon="11.7327393"><ele>1138.0</ele><time>2026-04-11T12:55:26.975Z</time></trkpt><trkpt lat="45.8616768" lon="11.7326477"><ele>1138.0</ele><time>2026-04-11T12:55:27.987Z</time></trkpt><trkpt lat="45.8617422" lon="11.7325723"><ele>1138.0</ele><time>2026-04-11T12:55:28.972Z</time></trkpt><trkpt lat="45.8618173" lon="11.7325077"><ele>1139.1666666666665</ele><time>2026-04-11T12:55:29.964Z</time></trkpt><trkpt lat="45.8618912" lon="11.7324432"><ele>1140.3333333333333</ele><time>2026-04-11T12:55:30.979Z</time></trkpt><trkpt lat="45.8619643" lon="11.7323744"><ele>1141.5</ele><time>2026-04-11T12:55:31.965Z</time></trkpt><trkpt lat="45.862032" lon="11.7323015"><ele>1142.6666666666667</ele><time>2026-04-11T12:55:32.972Z</time></trkpt><trkpt lat="45.8620938" lon="11.7322401"><ele>1143.8333333333335</ele><time>2026-04-11T12:55:33.984Z</time></trkpt><trkpt lat="45.862198" lon="11.7321969"><ele>1145.0</ele><time>2026-04-11T12:55:35.994Z</time></trkpt><trkpt lat="45.862259" lon="11.7322232"><ele>1145.0</ele><time>2026-04-11T12:55:36.978Z</time></trkpt><trkpt lat="45.8623476" lon="11.7322977"><ele>1145.0</ele><time>2026-04-11T12:55:38.973Z</time></trkpt><trkpt lat="45.8624142" lon="11.7323204"><ele>1145.0</ele><time>2026-04-11T12:55:40.991Z</time></trkpt><trkpt lat="45.8624592" lon="11.7322333"><ele>1145.0</ele><time>2026-04-11T12:55:42.994Z</time></trkpt><trkpt lat="45.8624502" lon="11.7320848"><ele>1145.0</ele><time>2026-04-11T12:55:44.976Z</time></trkpt><trkpt lat="45.8625167" lon="11.7320384"><ele>1145.0</ele><time>2026-04-11T12:55:48.972Z</time></trkpt><trkpt lat="45.8625438" lon="11.7321687"><ele>1145.0</ele><time>2026-04-11T12:55:50.987Z</time></trkpt><trkpt lat="45.8625406" lon="11.7322741"><ele>1145.0</ele><time>2026-04-11T12:55:51.97Z</time></trkpt><trkpt lat="45.8625251" lon="11.7323788"><ele>1145.0</ele><time>2026-04-11T12:55:53.005Z</time></trkpt><trkpt lat="45.8625072" lon="11.7324687"><ele>1145.0</ele><time>2026-04-11T12:55:53.992Z</time></trkpt><trkpt lat="45.8624845" lon="11.73258"><ele>1145.0</ele><time>2026-04-11T12:55:55.994Z</time></trkpt><trkpt lat="45.8625493" lon="11.7326377"><ele>1145.0</ele><time>2026-04-11T12:55:58.99Z</time></trkpt><trkpt lat="45.8626025" lon="11.7325499"><ele>1146.3333333333335</ele><time>2026-04-11T12:56:05.98Z</time></trkpt><trkpt lat="45.8626354" lon="11.7324476"><ele>1147.6666666666667</ele><time>2026-04-11T12:56:07.975Z</time></trkpt><trkpt lat="45.8626631" lon="11.7322859"><ele>1149.0</ele><time>2026-04-11T12:56:09.987Z</time></trkpt><trkpt lat="45.8626682" lon="11.7321944"><ele>1150.3333333333333</ele><time>2026-04-11T12:56:10.975Z</time></trkpt><trkpt lat="45.8626704" lon="11.7320435"><ele>1151.6666666666665</ele><time>2026-04-11T12:56:12.973Z</time></trkpt><trkpt lat="45.8626904" lon="11.7319331"><ele>1153.0</ele><time>2026-04-11T12:56:38.977Z</time></trkpt><trkpt lat="45.8627071" lon="11.7318395"><ele>1154.2</ele><time>2026-04-11T12:56:42.974Z</time></trkpt><trkpt lat="45.8627205" lon="11.7319447"><ele>1155.4</ele><time>2026-04-11T12:56:49.975Z</time></trkpt><trkpt lat="45.8627427" lon="11.7321303"><ele>1156.6000000000001</ele><time>2026-04-11T12:56:51.965Z</time></trkpt><trkpt lat="45.8627525" lon="11.7322401"><ele>1157.8</ele><time>2026-04-11T12:56:52.98Z</time></trkpt><trkpt lat="45.8627628" lon="11.7323605"><ele>1159.0</ele><time>2026-04-11T12:56:53.977Z</time></trkpt><trkpt lat="45.8627661" lon="11.732488"><ele>1159.0</ele><time>2026-04-11T12:56:54.966Z</time></trkpt><trkpt lat="45.8627633" lon="11.7326147"><ele>1159.0</ele><time>2026-04-11T12:56:55.974Z</time></trkpt><trkpt lat="45.8627602" lon="11.7327506"><ele>1159.0</ele><time>2026-04-11T12:56:56.969Z</time></trkpt><trkpt lat="45.8627477" lon="11.732872"><ele>1159.0</ele><time>2026-04-11T12:56:57.964Z</time></trkpt><trkpt lat="45.8627273" lon="11.7329715"><ele>1159.0</ele><time>2026-04-11T12:56:58.969Z</time></trkpt><trkpt lat="45.8626907" lon="11.7330593"><ele>1159.0</ele><time>2026-04-11T12:56:59.976Z</time></trkpt><trkpt lat="45.8626426" lon="11.7331265"><ele>1159.1428571428573</ele><time>2026-04-11T12:57:00.966Z</time></trkpt><trkpt lat="45.8625852" lon="11.7331688"><ele>1159.2857142857142</ele><time>2026-04-11T12:57:01.976Z</time></trkpt><trkpt lat="45.8625227" lon="11.7331857"><ele>1159.4285714285716</ele><time>2026-04-11T12:57:02.974Z</time></trkpt><trkpt lat="45.8624575" lon="11.7332047"><ele>1159.5714285714287</ele><time>2026-04-11T12:57:03.982Z</time></trkpt><trkpt lat="45.8623914" lon="11.7332382"><ele>1159.7142857142858</ele><time>2026-04-11T12:57:04.98Z</time></trkpt><trkpt lat="45.8623286" lon="11.7332875"><ele>1159.857142857143</ele><time>2026-04-11T12:57:05.977Z</time></trkpt><trkpt lat="45.8622663" lon="11.7333491"><ele>1160.0</ele><time>2026-04-11T12:57:06.971Z</time></trkpt><trkpt lat="45.862205" lon="11.7334226"><ele>1160.0</ele><time>2026-04-11T12:57:07.991Z</time></trkpt><trkpt lat="45.8621434" lon="11.733502"><ele>1160.0</ele><time>2026-04-11T12:57:08.976Z</time></trkpt><trkpt lat="45.8620857" lon="11.7335856"><ele>1160.0</ele><time>2026-04-11T12:57:09.973Z</time></trkpt><trkpt lat="45.8620346" lon="11.7336661"><ele>1160.0</ele><time>2026-04-11T12:57:10.975Z</time></trkpt><trkpt lat="45.8619845" lon="11.7337443"><ele>1160.0</ele><time>2026-04-11T12:57:11.983Z</time></trkpt><trkpt lat="45.8619439" lon="11.7338197"><ele>1160.0</ele><time>2026-04-11T12:57:12.973Z</time></trkpt><trkpt lat="45.8619215" lon="11.7339083"><ele>1160.0</ele><time>2026-04-11T12:57:13.978Z</time></trkpt><trkpt lat="45.8619064" lon="11.7340116"><ele>1163.8333333333335</ele><time>2026-04-11T12:57:14.986Z</time></trkpt><trkpt lat="45.8618923" lon="11.7341312"><ele>1167.6666666666667</ele><time>2026-04-11T12:57:15.98Z</time></trkpt><trkpt lat="45.8618688" lon="11.7342409"><ele>1171.5</ele><time>2026-04-11T12:57:16.974Z</time></trkpt><trkpt lat="45.8618312" lon="11.7343366"><ele>1175.3333333333333</ele><time>2026-04-11T12:57:17.966Z</time></trkpt><trkpt lat="45.8617855" lon="11.7344266"><ele>1179.1666666666665</ele><time>2026-04-11T12:57:18.97Z</time></trkpt><trkpt lat="45.8617372" lon="11.7345092"><ele>1183.0</ele><time>2026-04-11T12:57:19.976Z</time></trkpt><trkpt lat="45.8616862" lon="11.7345961"><ele>1183.0</ele><time>2026-04-11T12:57:20.972Z</time></trkpt><trkpt lat="45.8616319" lon="11.7346787"><ele>1183.0</ele><time>2026-04-11T12:57:21.968Z</time></trkpt><trkpt lat="45.8615791" lon="11.734769"><ele>1183.0</ele><time>2026-04-11T12:57:22.976Z</time></trkpt><trkpt lat="45.8615261" lon="11.7348588"><ele>1183.0</ele><time>2026-04-11T12:57:23.971Z</time></trkpt><trkpt lat="45.8614735" lon="11.734947"><ele>1183.0</ele><time>2026-04-11T12:57:24.974Z</time></trkpt><trkpt lat="45.8614231" lon="11.735038"><ele>1183.0</ele><time>2026-04-11T12:57:25.976Z</time></trkpt><trkpt lat="45.8613759" lon="11.7351324"><ele>1186.3333333333333</ele><time>2026-04-11T12:57:26.979Z</time></trkpt><trkpt lat="45.8613253" lon="11.7352243"><ele>1189.6666666666665</ele><time>2026-04-11T12:57:27.978Z</time></trkpt><trkpt lat="45.8612734" lon="11.7353096"><ele>1193.0</ele><time>2026-04-11T12:57:28.969Z</time></trkpt><trkpt lat="45.8612239" lon="11.7353957"><ele>1196.3333333333333</ele><time>2026-04-11T12:57:29.971Z</time></trkpt><trkpt lat="45.8611731" lon="11.7354793"><ele>1199.6666666666667</ele><time>2026-04-11T12:57:30.973Z</time></trkpt><trkpt lat="45.8611223" lon="11.7355587"><ele>1203.0</ele><time>2026-04-11T12:57:31.978Z</time></trkpt><trkpt lat="45.8610643" lon="11.7356313"><ele>1203.0</ele><time>2026-04-11T12:57:32.972Z</time></trkpt><trkpt lat="45.8610065" lon="11.7357004"><ele>1203.0</ele><time>2026-04-11T12:57:33.971Z</time></trkpt><trkpt lat="45.8609513" lon="11.7357678"><ele>1203.0</ele><time>2026-04-11T12:57:34.971Z</time></trkpt><trkpt lat="45.8609036" lon="11.7358363"><ele>1203.0</ele><time>2026-04-11T12:57:35.976Z</time></trkpt><trkpt lat="45.8608576" lon="11.7359035"><ele>1203.0</ele><time>2026-04-11T12:57:36.975Z</time></trkpt><trkpt lat="45.8608242" lon="11.7359823"><ele>1203.0</ele><time>2026-04-11T12:57:37.968Z</time></trkpt><trkpt lat="45.8607915" lon="11.7360802"><ele>1203.0</ele><time>2026-04-11T12:57:38.968Z</time></trkpt><trkpt lat="45.8607601" lon="11.7361882"><ele>1199.0</ele><time>2026-04-11T12:57:39.98Z</time></trkpt><trkpt lat="45.8607289" lon="11.7362998"><ele>1195.0</ele><time>2026-04-11T12:57:40.981Z</time></trkpt><trkpt lat="45.8606944" lon="11.7364237"><ele>1191.0</ele><time>2026-04-11T12:57:41.976Z</time></trkpt><trkpt lat="45.8606592" lon="11.7365551"><ele>1187.0</ele><time>2026-04-11T12:57:42.985Z</time></trkpt><trkpt lat="45.8606289" lon="11.7366808"><ele>1183.0</ele><time>2026-04-11T12:57:43.977Z</time></trkpt><trkpt lat="45.8606004" lon="11.7368099"><ele>1184.0</ele><time>2026-04-11T12:57:44.976Z</time></trkpt><trkpt lat="45.8605795" lon="11.7369311"><ele>1185.0</ele><time>2026-04-11T12:57:45.975Z</time></trkpt><trkpt lat="45.8605594" lon="11.7370481"><ele>1186.0</ele><time>2026-04-11T12:57:46.983Z</time></trkpt><trkpt lat="45.8605555" lon="11.7371774"><ele>1187.0</ele><time>2026-04-11T12:57:47.972Z</time></trkpt><trkpt lat="45.8605626" lon="11.7373143"><ele>1188.0</ele><time>2026-04-11T12:57:48.978Z</time></trkpt><trkpt lat="45.8605677" lon="11.7374558"><ele>1188.0</ele><time>2026-04-11T12:57:49.967Z</time></trkpt><trkpt lat="45.860571" lon="11.737612"><ele>1188.0</ele><time>2026-04-11T12:57:50.968Z</time></trkpt><trkpt lat="45.860574" lon="11.7377637"><ele>1188.0</ele><time>2026-04-11T12:57:51.988Z</time></trkpt><trkpt lat="45.8605751" lon="11.7379061"><ele>1188.0</ele><time>2026-04-11T12:57:52.977Z</time></trkpt><trkpt lat="45.8605629" lon="11.7380423"><ele>1188.0</ele><time>2026-04-11T12:57:53.973Z</time></trkpt><trkpt lat="45.8605282" lon="11.7381827"><ele>1189.2</ele><time>2026-04-11T12:57:54.98Z</time></trkpt><trkpt lat="45.8604907" lon="11.7383212"><ele>1190.4</ele><time>2026-04-11T12:57:55.973Z</time></trkpt><trkpt lat="45.8604579" lon="11.7384568"><ele>1191.6000000000001</ele><time>2026-04-11T12:57:56.968Z</time></trkpt><trkpt lat="45.8604407" lon="11.7385737"><ele>1192.8</ele><time>2026-04-11T12:57:57.976Z</time></trkpt><trkpt lat="45.8604381" lon="11.7387031"><ele>1194.0</ele><time>2026-04-11T12:57:58.967Z</time></trkpt><trkpt lat="45.8604464" lon="11.7388275"><ele>1194.6000000000001</ele><time>2026-04-11T12:57:59.972Z</time></trkpt><trkpt lat="45.8604559" lon="11.7389726"><ele>1195.2</ele><time>2026-04-11T12:58:00.973Z</time></trkpt><trkpt lat="45.8604654" lon="11.7391072"><ele>1195.8000000000002</ele><time>2026-04-11T12:58:01.979Z</time></trkpt><trkpt lat="45.860472" lon="11.7392401"><ele>1196.4</ele><time>2026-04-11T12:58:02.964Z</time></trkpt><trkpt lat="45.8604797" lon="11.7393489"><ele>1197.0</ele><time>2026-04-11T12:58:03.975Z</time></trkpt><trkpt lat="45.8605051" lon="11.739472"><ele>1194.8</ele><time>2026-04-11T12:58:05.976Z</time></trkpt><trkpt lat="45.8605594" lon="11.7395425"><ele>1192.6</ele><time>2026-04-11T12:58:09.981Z</time></trkpt><trkpt lat="45.8606105" lon="11.7396286"><ele>1190.3999999999999</ele><time>2026-04-11T12:58:11.985Z</time></trkpt><trkpt lat="45.8606945" lon="11.7397537"><ele>1188.2</ele><time>2026-04-11T12:58:13.971Z</time></trkpt><trkpt lat="45.8607865" lon="11.7398495"><ele>1186.0</ele><time>2026-04-11T12:58:15.978Z</time></trkpt><trkpt lat="45.8608666" lon="11.7399092"><ele>1189.0</ele><time>2026-04-11T12:58:17.986Z</time></trkpt><trkpt lat="45.8609632" lon="11.7399099"><ele>1192.0</ele><time>2026-04-11T12:58:19.967Z</time></trkpt><trkpt lat="45.8610486" lon="11.739919"><ele>1195.0</ele><time>2026-04-11T12:58:21.991Z</time></trkpt><trkpt lat="45.8611638" lon="11.7399443"><ele>1198.0</ele><time>2026-04-11T12:58:23.974Z</time></trkpt><trkpt lat="45.8612842" lon="11.7399738"><ele>1201.0</ele><time>2026-04-11T12:58:25.965Z</time></trkpt><trkpt lat="45.8613571" lon="11.739993"><ele>1201.0</ele><time>2026-04-11T12:58:26.974Z</time></trkpt><trkpt lat="45.8614345" lon="11.740007"><ele>1201.0</ele><time>2026-04-11T12:58:27.979Z</time></trkpt><trkpt lat="45.8615193" lon="11.7400202"><ele>1201.0</ele><time>2026-04-11T12:58:28.976Z</time></trkpt><trkpt lat="45.8616055" lon="11.7400398"><ele>1201.0</ele><time>2026-04-11T12:58:29.977Z</time></trkpt><trkpt lat="45.8616923" lon="11.740063"><ele>1201.0</ele><time>2026-04-11T12:58:30.971Z</time></trkpt><trkpt lat="45.8617717" lon="11.74008"><ele>1201.0</ele><time>2026-04-11T12:58:31.971Z</time></trkpt><trkpt lat="45.8618451" lon="11.7400983"><ele>1204.1428571428573</ele><time>2026-04-11T12:58:32.983Z</time></trkpt><trkpt lat="45.8619198" lon="11.7401131"><ele>1207.2857142857142</ele><time>2026-04-11T12:58:33.974Z</time></trkpt><trkpt lat="45.8619972" lon="11.7401362"><ele>1210.4285714285716</ele><time>2026-04-11T12:58:34.964Z</time></trkpt><trkpt lat="45.8620743" lon="11.7401581"><ele>1213.5714285714287</ele><time>2026-04-11T12:58:35.978Z</time></trkpt><trkpt lat="45.862148" lon="11.7401841"><ele>1216.7142857142858</ele><time>2026-04-11T12:58:36.971Z</time></trkpt><trkpt lat="45.8622219" lon="11.7402089"><ele>1219.857142857143</ele><time>2026-04-11T12:58:37.971Z</time></trkpt><trkpt lat="45.862283" lon="11.7402324"><ele>1223.0</ele><time>2026-04-11T12:58:38.968Z</time></trkpt><trkpt lat="45.862344" lon="11.7403175"><ele>1223.3333333333335</ele><time>2026-04-11T12:58:40.996Z</time></trkpt><trkpt lat="45.8623058" lon="11.7404343"><ele>1223.6666666666667</ele><time>2026-04-11T12:58:42.973Z</time></trkpt><trkpt lat="45.8622423" lon="11.7405022"><ele>1224.0</ele><time>2026-04-11T12:58:43.968Z</time></trkpt><trkpt lat="45.8621812" lon="11.7405878"><ele>1224.3333333333333</ele><time>2026-04-11T12:58:44.974Z</time></trkpt><trkpt lat="45.8621309" lon="11.7406871"><ele>1224.6666666666665</ele><time>2026-04-11T12:58:45.966Z</time></trkpt><trkpt lat="45.8620829" lon="11.7407922"><ele>1225.0</ele><time>2026-04-11T12:58:46.969Z</time></trkpt><trkpt lat="45.8620349" lon="11.7408985"><ele>1225.0</ele><time>2026-04-11T12:58:47.978Z</time></trkpt><trkpt lat="45.8619922" lon="11.7410038"><ele>1225.0</ele><time>2026-04-11T12:58:48.979Z</time></trkpt><trkpt lat="45.8619452" lon="11.7411112"><ele>1225.0</ele><time>2026-04-11T12:58:49.97Z</time></trkpt><trkpt lat="45.8618975" lon="11.7412143"><ele>1225.0</ele><time>2026-04-11T12:58:50.968Z</time></trkpt><trkpt lat="45.8618526" lon="11.7413015"><ele>1225.0</ele><time>2026-04-11T12:58:51.975Z</time></trkpt><trkpt lat="45.8618064" lon="11.7413937"><ele>1225.0</ele><time>2026-04-11T12:58:52.969Z</time></trkpt><trkpt lat="45.8617749" lon="11.7414921"><ele>1221.8333333333333</ele><time>2026-04-11T12:58:53.971Z</time></trkpt><trkpt lat="45.8617621" lon="11.7416011"><ele>1218.6666666666665</ele><time>2026-04-11T12:58:54.974Z</time></trkpt><trkpt lat="45.8617518" lon="11.7417146"><ele>1215.5</ele><time>2026-04-11T12:58:55.973Z</time></trkpt><trkpt lat="45.8617427" lon="11.7418314"><ele>1212.3333333333333</ele><time>2026-04-11T12:58:56.964Z</time></trkpt><trkpt lat="45.8617277" lon="11.7419502"><ele>1209.1666666666667</ele><time>2026-04-11T12:58:57.98Z</time></trkpt><trkpt lat="45.8617091" lon="11.7420621"><ele>1206.0</ele><time>2026-04-11T12:58:58.971Z</time></trkpt><trkpt lat="45.8616784" lon="11.7421885"><ele>1206.0</ele><time>2026-04-11T12:58:59.966Z</time></trkpt><trkpt lat="45.8616512" lon="11.7422958"><ele>1206.0</ele><time>2026-04-11T12:59:00.966Z</time></trkpt><trkpt lat="45.8616162" lon="11.7424135"><ele>1206.0</ele><time>2026-04-11T12:59:01.979Z</time></trkpt><trkpt lat="45.8615819" lon="11.7425127"><ele>1206.0</ele><time>2026-04-11T12:59:02.975Z</time></trkpt><trkpt lat="45.861549" lon="11.7426114"><ele>1206.0</ele><time>2026-04-11T12:59:03.969Z</time></trkpt><trkpt lat="45.8615191" lon="11.7427007"><ele>1206.0</ele><time>2026-04-11T12:59:04.967Z</time></trkpt><trkpt lat="45.8614984" lon="11.7428022"><ele>1206.1666666666667</ele><time>2026-04-11T12:59:05.981Z</time></trkpt><trkpt lat="45.8614872" lon="11.7429051"><ele>1206.3333333333333</ele><time>2026-04-11T12:59:06.974Z</time></trkpt><trkpt lat="45.8614815" lon="11.7430139"><ele>1206.5</ele><time>2026-04-11T12:59:07.974Z</time></trkpt><trkpt lat="45.861475" lon="11.7431276"><ele>1206.6666666666665</ele><time>2026-04-11T12:59:08.968Z</time></trkpt><trkpt lat="45.8614681" lon="11.7432404"><ele>1206.8333333333333</ele><time>2026-04-11T12:59:09.977Z</time></trkpt><trkpt lat="45.8614641" lon="11.7433591"><ele>1207.0</ele><time>2026-04-11T12:59:10.968Z</time></trkpt><trkpt lat="45.8614594" lon="11.7434788"><ele>1206.0</ele><time>2026-04-11T12:59:11.963Z</time></trkpt><trkpt lat="45.8614534" lon="11.7435995"><ele>1205.0</ele><time>2026-04-11T12:59:12.975Z</time></trkpt><trkpt lat="45.8614528" lon="11.7437215"><ele>1204.0</ele><time>2026-04-11T12:59:13.971Z</time></trkpt><trkpt lat="45.8614712" lon="11.7438434"><ele>1203.0</ele><time>2026-04-11T12:59:14.962Z</time></trkpt><trkpt lat="45.8614921" lon="11.7439551"><ele>1202.0</ele><time>2026-04-11T12:59:15.966Z</time></trkpt><trkpt lat="45.8615144" lon="11.7440586"><ele>1201.0</ele><time>2026-04-11T12:59:16.97Z</time></trkpt><trkpt lat="45.8615397" lon="11.7441691"><ele>1201.0</ele><time>2026-04-11T12:59:17.973Z</time></trkpt><trkpt lat="45.8615738" lon="11.7442747"><ele>1201.0</ele><time>2026-04-11T12:59:18.972Z</time></trkpt><trkpt lat="45.8616064" lon="11.7443767"><ele>1201.0</ele><time>2026-04-11T12:59:19.987Z</time></trkpt><trkpt lat="45.8616398" lon="11.7444654"><ele>1201.0</ele><time>2026-04-11T12:59:20.968Z</time></trkpt><trkpt lat="45.8616722" lon="11.7445651"><ele>1201.0</ele><time>2026-04-11T12:59:21.964Z</time></trkpt><trkpt lat="45.8617093" lon="11.7446737"><ele>1201.0</ele><time>2026-04-11T12:59:22.977Z</time></trkpt><trkpt lat="45.8617412" lon="11.7447646"><ele>1201.6666666666665</ele><time>2026-04-11T12:59:23.969Z</time></trkpt><trkpt lat="45.8617748" lon="11.7448571"><ele>1202.3333333333333</ele><time>2026-04-11T12:59:24.968Z</time></trkpt><trkpt lat="45.8618057" lon="11.7449521"><ele>1203.0</ele><time>2026-04-11T12:59:25.975Z</time></trkpt><trkpt lat="45.8618362" lon="11.7450319"><ele>1203.6666666666667</ele><time>2026-04-11T12:59:26.975Z</time></trkpt><trkpt lat="45.8619029" lon="11.7451947"><ele>1204.3333333333335</ele><time>2026-04-11T12:59:28.983Z</time></trkpt><trkpt lat="45.861953" lon="11.7452791"><ele>1205.0</ele><time>2026-04-11T12:59:29.981Z</time></trkpt><trkpt lat="45.8619961" lon="11.7453681"><ele>1205.0</ele><time>2026-04-11T12:59:30.97Z</time></trkpt><trkpt lat="45.8620499" lon="11.7454431"><ele>1205.0</ele><time>2026-04-11T12:59:31.972Z</time></trkpt><trkpt lat="45.8621038" lon="11.7455236"><ele>1205.0</ele><time>2026-04-11T12:59:32.979Z</time></trkpt><trkpt lat="45.8621627" lon="11.7455906"><ele>1205.0</ele><time>2026-04-11T12:59:33.975Z</time></trkpt><trkpt lat="45.8622235" lon="11.7456603"><ele>1205.0</ele><time>2026-04-11T12:59:34.965Z</time></trkpt><trkpt lat="45.862285" lon="11.7457292"><ele>1205.0</ele><time>2026-04-11T12:59:35.969Z</time></trkpt><trkpt lat="45.8623429" lon="11.7457936"><ele>1205.0</ele><time>2026-04-11T12:59:36.972Z</time></trkpt><trkpt lat="45.8623982" lon="11.7458538"><ele>1205.0</ele><time>2026-04-11T12:59:37.98Z</time></trkpt><trkpt lat="45.8624559" lon="11.7459044"><ele>1205.0</ele><time>2026-04-11T12:59:38.98Z</time></trkpt><trkpt lat="45.8625165" lon="11.7459393"><ele>1205.0</ele><time>2026-04-11T12:59:39.97Z</time></trkpt><trkpt lat="45.8625904" lon="11.7459566"><ele>1205.0</ele><time>2026-04-11T12:59:40.982Z</time></trkpt><trkpt lat="45.8626676" lon="11.7459742"><ele>1205.0</ele><time>2026-04-11T12:59:41.975Z</time></trkpt><trkpt lat="45.8627446" lon="11.7459882"><ele>1205.0</ele><time>2026-04-11T12:59:42.96Z</time></trkpt><trkpt lat="45.8628123" lon="11.7460011"><ele>1207.1666666666667</ele><time>2026-04-11T12:59:43.969Z</time></trkpt><trkpt lat="45.8628812" lon="11.7459985"><ele>1209.3333333333335</ele><time>2026-04-11T12:59:44.976Z</time></trkpt><trkpt lat="45.8629641" lon="11.7460024"><ele>1211.5</ele><time>2026-04-11T12:59:45.96Z</time></trkpt><trkpt lat="45.8630514" lon="11.7460108"><ele>1213.6666666666667</ele><time>2026-04-11T12:59:46.973Z</time></trkpt><trkpt lat="45.8631181" lon="11.7460396"><ele>1215.8333333333333</ele><time>2026-04-11T12:59:47.978Z</time></trkpt><trkpt lat="45.8631845" lon="11.7460828"><ele>1218.0</ele><time>2026-04-11T12:59:48.964Z</time></trkpt><trkpt lat="45.8632439" lon="11.7461334"><ele>1218.0</ele><time>2026-04-11T12:59:49.971Z</time></trkpt><trkpt lat="45.8632785" lon="11.7462261"><ele>1218.0</ele><time>2026-04-11T12:59:50.971Z</time></trkpt><trkpt lat="45.8633057" lon="11.7463089"><ele>1218.0</ele><time>2026-04-11T12:59:51.963Z</time></trkpt><trkpt lat="45.863316" lon="11.7464502"><ele>1218.0</ele><time>2026-04-11T12:59:53.98Z</time></trkpt><trkpt lat="45.8633229" lon="11.7465673"><ele>1218.0</ele><time>2026-04-11T13:00:02.975Z</time></trkpt><trkpt lat="45.863321" lon="11.746719"><ele>1218.0</ele><time>2026-04-11T13:00:04.983Z</time></trkpt><trkpt lat="45.8633037" lon="11.7468385"><ele>1215.8</ele><time>2026-04-11T13:00:05.977Z</time></trkpt><trkpt lat="45.8632885" lon="11.7469743"><ele>1213.6</ele><time>2026-04-11T13:00:06.963Z</time></trkpt><trkpt lat="45.8632809" lon="11.7471206"><ele>1211.4</ele><time>2026-04-11T13:00:07.973Z</time></trkpt><trkpt lat="45.8632882" lon="11.7472832"><ele>1209.2</ele><time>2026-04-11T13:00:08.972Z</time></trkpt><trkpt lat="45.863305" lon="11.7474558"><ele>1207.0</ele><time>2026-04-11T13:00:09.966Z</time></trkpt><trkpt lat="45.8633272" lon="11.7476341"><ele>1204.75</ele><time>2026-04-11T13:00:10.978Z</time></trkpt><trkpt lat="45.8633502" lon="11.7478083"><ele>1202.5</ele><time>2026-04-11T13:00:11.973Z</time></trkpt><trkpt lat="45.8633868" lon="11.7479693"><ele>1200.25</ele><time>2026-04-11T13:00:12.967Z</time></trkpt><trkpt lat="45.8634406" lon="11.748121"><ele>1198.0</ele><time>2026-04-11T13:00:13.974Z</time></trkpt><trkpt lat="45.8635252" lon="11.7482568"><ele>1201.75</ele><time>2026-04-11T13:00:14.98Z</time></trkpt><trkpt lat="45.8636209" lon="11.7483894"><ele>1205.5</ele><time>2026-04-11T13:00:15.96Z</time></trkpt><trkpt lat="45.8637244" lon="11.7485292"><ele>1209.25</ele><time>2026-04-11T13:00:16.981Z</time></trkpt><trkpt lat="45.8638292" lon="11.7486752"><ele>1213.0</ele><time>2026-04-11T13:00:17.978Z</time></trkpt><trkpt lat="45.8639328" lon="11.7488215"><ele>1213.0</ele><time>2026-04-11T13:00:18.97Z</time></trkpt><trkpt lat="45.8640276" lon="11.7489629"><ele>1213.0</ele><time>2026-04-11T13:00:19.968Z</time></trkpt><trkpt lat="45.8641181" lon="11.7490955"><ele>1213.0</ele><time>2026-04-11T13:00:20.979Z</time></trkpt><trkpt lat="45.8642031" lon="11.7492331"><ele>1213.0</ele><time>2026-04-11T13:00:21.961Z</time></trkpt><trkpt lat="45.8642802" lon="11.749361"><ele>1215.6</ele><time>2026-04-11T13:00:22.983Z</time></trkpt><trkpt lat="45.8643516" lon="11.7494825"><ele>1218.1999999999998</ele><time>2026-04-11T13:00:23.964Z</time></trkpt><trkpt lat="45.864412" lon="11.7495884"><ele>1220.8</ele><time>2026-04-11T13:00:24.966Z</time></trkpt><trkpt lat="45.8644608" lon="11.7496775"><ele>1223.3999999999999</ele><time>2026-04-11T13:00:25.968Z</time></trkpt><trkpt lat="45.8644955" lon="11.7498012"><ele>1226.0</ele><time>2026-04-11T13:00:27.966Z</time></trkpt><trkpt lat="45.8644221" lon="11.7498365"><ele>1226.0</ele><time>2026-04-11T13:00:30.964Z</time></trkpt><trkpt lat="45.8643663" lon="11.7497884"><ele>1226.0</ele><time>2026-04-11T13:00:31.97Z</time></trkpt><trkpt lat="45.8643077" lon="11.7497064"><ele>1226.0</ele><time>2026-04-11T13:00:32.975Z</time></trkpt><trkpt lat="45.8642414" lon="11.7496106"><ele>1226.0</ele><time>2026-04-11T13:00:33.971Z</time></trkpt><trkpt lat="45.8641699" lon="11.7495199"><ele>1226.0</ele><time>2026-04-11T13:00:34.976Z</time></trkpt><trkpt lat="45.8640905" lon="11.7494377"><ele>1226.0</ele><time>2026-04-11T13:00:35.97Z</time></trkpt><trkpt lat="45.8640093" lon="11.7493633"><ele>1223.3999999999999</ele><time>2026-04-11T13:00:36.975Z</time></trkpt><trkpt lat="45.8639205" lon="11.7493088"><ele>1220.8</ele><time>2026-04-11T13:00:37.968Z</time></trkpt><trkpt lat="45.8638251" lon="11.7492571"><ele>1218.1999999999998</ele><time>2026-04-11T13:00:38.964Z</time></trkpt><trkpt lat="45.8637169" lon="11.7492025"><ele>1215.6</ele><time>2026-04-11T13:00:39.96Z</time></trkpt><trkpt lat="45.8636032" lon="11.7491438"><ele>1213.0</ele><time>2026-04-11T13:00:40.973Z</time></trkpt><trkpt lat="45.8634868" lon="11.7490834"><ele>1209.0</ele><time>2026-04-11T13:00:41.967Z</time></trkpt><trkpt lat="45.8633574" lon="11.7490156"><ele>1205.0</ele><time>2026-04-11T13:00:42.974Z</time></trkpt><trkpt lat="45.8632236" lon="11.7489421"><ele>1201.0</ele><time>2026-04-11T13:00:43.967Z</time></trkpt><trkpt lat="45.8630845" lon="11.748865"><ele>1197.0</ele><time>2026-04-11T13:00:44.98Z</time></trkpt><trkpt lat="45.8629422" lon="11.7487794"><ele>1197.0</ele><time>2026-04-11T13:00:45.972Z</time></trkpt><trkpt lat="45.8628211" lon="11.7486274"><ele>1197.0</ele><time>2026-04-11T13:00:46.97Z</time></trkpt><trkpt lat="45.8627105" lon="11.7484565"><ele>1197.0</ele><time>2026-04-11T13:00:47.962Z</time></trkpt><trkpt lat="45.8626033" lon="11.7482719"><ele>1192.0</ele><time>2026-04-11T13:00:48.978Z</time></trkpt><trkpt lat="45.8625049" lon="11.7480806"><ele>1187.0</ele><time>2026-04-11T13:00:49.984Z</time></trkpt><trkpt lat="45.8624303" lon="11.747888"><ele>1182.0</ele><time>2026-04-11T13:00:50.965Z</time></trkpt><trkpt lat="45.8623548" lon="11.7477057"><ele>1178.0</ele><time>2026-04-11T13:00:51.968Z</time></trkpt><trkpt lat="45.8622591" lon="11.7475396"><ele>1174.0</ele><time>2026-04-11T13:00:53.045Z</time></trkpt><trkpt lat="45.862138" lon="11.7474026"><ele>1170.0</ele><time>2026-04-11T13:00:53.965Z</time></trkpt><trkpt lat="45.8620113" lon="11.7472689"><ele>1170.0</ele><time>2026-04-11T13:00:54.966Z</time></trkpt><trkpt lat="45.8618959" lon="11.7471149"><ele>1170.0</ele><time>2026-04-11T13:00:55.987Z</time></trkpt><trkpt lat="45.8617836" lon="11.7469537"><ele>1170.0</ele><time>2026-04-11T13:00:56.978Z</time></trkpt><trkpt lat="45.8616727" lon="11.7467919"><ele>1166.0</ele><time>2026-04-11T13:00:57.973Z</time></trkpt><trkpt lat="45.8615631" lon="11.7466309"><ele>1162.0</ele><time>2026-04-11T13:00:58.979Z</time></trkpt><trkpt lat="45.8614543" lon="11.746483"><ele>1158.0</ele><time>2026-04-11T13:00:59.974Z</time></trkpt><trkpt lat="45.8613428" lon="11.7463307"><ele>1158.0</ele><time>2026-04-11T13:01:00.977Z</time></trkpt><trkpt lat="45.8612397" lon="11.7461725"><ele>1158.0</ele><time>2026-04-11T13:01:01.965Z</time></trkpt><trkpt lat="45.8611427" lon="11.7460418"><ele>1158.0</ele><time>2026-04-11T13:01:02.964Z</time></trkpt><trkpt lat="45.8610618" lon="11.745936"><ele>1158.0</ele><time>2026-04-11T13:01:03.975Z</time></trkpt><trkpt lat="45.8609653" lon="11.7458566"><ele>1155.6</ele><time>2026-04-11T13:01:04.975Z</time></trkpt><trkpt lat="45.8608507" lon="11.745817"><ele>1153.1999999999998</ele><time>2026-04-11T13:01:05.961Z</time></trkpt><trkpt lat="45.8607393" lon="11.7457976"><ele>1150.8</ele><time>2026-04-11T13:01:06.969Z</time></trkpt><trkpt lat="45.8606324" lon="11.7457674"><ele>1148.3999999999999</ele><time>2026-04-11T13:01:07.975Z</time></trkpt><trkpt lat="45.860546" lon="11.7457321"><ele>1146.0</ele><time>2026-04-11T13:01:08.972Z</time></trkpt><trkpt lat="45.8604765" lon="11.7456232"><ele>1146.0</ele><time>2026-04-11T13:01:09.968Z</time></trkpt><trkpt lat="45.8604463" lon="11.7454668"><ele>1146.0</ele><time>2026-04-11T13:01:10.972Z</time></trkpt><trkpt lat="45.8604442" lon="11.7453142"><ele>1146.0</ele><time>2026-04-11T13:01:11.967Z</time></trkpt><trkpt lat="45.8604497" lon="11.7451706"><ele>1146.0</ele><time>2026-04-11T13:01:12.973Z</time></trkpt><trkpt lat="45.8604479" lon="11.7450275"><ele>1146.0</ele><time>2026-04-11T13:01:13.971Z</time></trkpt><trkpt lat="45.8604393" lon="11.7448973"><ele>1146.2</ele><time>2026-04-11T13:01:14.966Z</time></trkpt><trkpt lat="45.860433" lon="11.7447829"><ele>1146.3999999999999</ele><time>2026-04-11T13:01:15.971Z</time></trkpt><trkpt lat="45.860413" lon="11.7446277"><ele>1146.6</ele><time>2026-04-11T13:01:17.963Z</time></trkpt><trkpt lat="45.8603527" lon="11.7445218"><ele>1146.8</ele><time>2026-04-11T13:01:19.964Z</time></trkpt><trkpt lat="45.8602885" lon="11.7444697"><ele>1147.0</ele><time>2026-04-11T13:01:20.969Z</time></trkpt><trkpt lat="45.8602141" lon="11.7443945"><ele>1149.25</ele><time>2026-04-11T13:01:21.969Z</time></trkpt><trkpt lat="45.860138" lon="11.7443025"><ele>1151.5</ele><time>2026-04-11T13:01:22.963Z</time></trkpt><trkpt lat="45.8600498" lon="11.7442041"><ele>1153.75</ele><time>2026-04-11T13:01:23.965Z</time></trkpt><trkpt lat="45.8599169" lon="11.7441592"><ele>1156.0</ele><time>2026-04-11T13:01:24.974Z</time></trkpt><trkpt lat="45.8597569" lon="11.7441865"><ele>1154.0</ele><time>2026-04-11T13:01:25.964Z</time></trkpt><trkpt lat="45.8595795" lon="11.7442314"><ele>1152.0</ele><time>2026-04-11T13:01:26.965Z</time></trkpt><trkpt lat="45.8593931" lon="11.7443207"><ele>1150.0</ele><time>2026-04-11T13:01:27.971Z</time></trkpt><trkpt lat="45.8592028" lon="11.7443899"><ele>1150.0</ele><time>2026-04-11T13:01:28.969Z</time></trkpt><trkpt lat="45.8590203" lon="11.7444402"><ele>1150.0</ele><time>2026-04-11T13:01:29.963Z</time></trkpt><trkpt lat="45.8588703" lon="11.7444987"><ele>1150.0</ele><time>2026-04-11T13:01:30.97Z</time></trkpt><trkpt lat="45.858752" lon="11.7445244"><ele>1150.0</ele><time>2026-04-11T13:01:31.98Z</time></trkpt><trkpt lat="45.8586496" lon="11.7446029"><ele>1150.0</ele><time>2026-04-11T13:01:32.969Z</time></trkpt><trkpt lat="45.8585614" lon="11.7446929"><ele>1150.0</ele><time>2026-04-11T13:01:33.979Z</time></trkpt><trkpt lat="45.8585326" lon="11.744882"><ele>1150.0</ele><time>2026-04-11T13:01:34.967Z</time></trkpt><trkpt lat="45.8585233" lon="11.7451242"><ele>1155.6666666666665</ele><time>2026-04-11T13:01:35.959Z</time></trkpt><trkpt lat="45.8585005" lon="11.7454028"><ele>1161.3333333333333</ele><time>2026-04-11T13:01:36.969Z</time></trkpt><trkpt lat="45.8584815" lon="11.7457018"><ele>1167.0</ele><time>2026-04-11T13:01:37.986Z</time></trkpt><trkpt lat="45.858474" lon="11.7460193"><ele>1170.3333333333333</ele><time>2026-04-11T13:01:38.972Z</time></trkpt><trkpt lat="45.8584702" lon="11.7463429"><ele>1173.6666666666665</ele><time>2026-04-11T13:01:39.987Z</time></trkpt><trkpt lat="45.8584515" lon="11.7466471"><ele>1177.0</ele><time>2026-04-11T13:01:40.975Z</time></trkpt><trkpt lat="45.8584362" lon="11.746899"><ele>1169.0</ele><time>2026-04-11T13:01:41.958Z</time></trkpt><trkpt lat="45.858427" lon="11.7471345"><ele>1161.0</ele><time>2026-04-11T13:01:42.976Z</time></trkpt><trkpt lat="45.8584058" lon="11.7473652"><ele>1153.0</ele><time>2026-04-11T13:01:43.966Z</time></trkpt><trkpt lat="45.8583797" lon="11.7475999"><ele>1155.3333333333333</ele><time>2026-04-11T13:01:44.962Z</time></trkpt><trkpt lat="45.8583567" lon="11.7478282"><ele>1157.6666666666667</ele><time>2026-04-11T13:01:45.965Z</time></trkpt><trkpt lat="45.858342" lon="11.7480574"><ele>1160.0</ele><time>2026-04-11T13:01:46.971Z</time></trkpt><trkpt lat="45.8583532" lon="11.7482897"><ele>1160.0</ele><time>2026-04-11T13:01:47.964Z</time></trkpt><trkpt lat="45.8583721" lon="11.7485243"><ele>1160.0</ele><time>2026-04-11T13:01:48.971Z</time></trkpt><trkpt lat="45.8583959" lon="11.7487503"><ele>1160.0</ele><time>2026-04-11T13:01:49.971Z</time></trkpt><trkpt lat="45.8584312" lon="11.7489699"><ele>1170.6666666666667</ele><time>2026-04-11T13:01:50.97Z</time></trkpt><trkpt lat="45.8585004" lon="11.7491868"><ele>1181.3333333333333</ele><time>2026-04-11T13:01:51.97Z</time></trkpt><trkpt lat="45.8585781" lon="11.7493705"><ele>1192.0</ele><time>2026-04-11T13:01:52.971Z</time></trkpt><trkpt lat="45.8586539" lon="11.7495318"><ele>1193.0</ele><time>2026-04-11T13:01:53.968Z</time></trkpt><trkpt lat="45.8587006" lon="11.7496914"><ele>1194.0</ele><time>2026-04-11T13:01:54.981Z</time></trkpt><trkpt lat="45.8587052" lon="11.7498953"><ele>1195.0</ele><time>2026-04-11T13:01:55.972Z</time></trkpt><trkpt lat="45.8586867" lon="11.7501225"><ele>1196.0</ele><time>2026-04-11T13:01:56.972Z</time></trkpt><trkpt lat="45.85865" lon="11.7503489"><ele>1197.6666666666667</ele><time>2026-04-11T13:01:57.98Z</time></trkpt><trkpt lat="45.8586463" lon="11.7506037"><ele>1199.3333333333333</ele><time>2026-04-11T13:01:58.974Z</time></trkpt><trkpt lat="45.8586492" lon="11.7508414"><ele>1201.0</ele><time>2026-04-11T13:01:59.976Z</time></trkpt><trkpt lat="45.8586531" lon="11.7510512"><ele>1202.3333333333333</ele><time>2026-04-11T13:02:00.967Z</time></trkpt><trkpt lat="45.8586581" lon="11.7512563"><ele>1203.6666666666667</ele><time>2026-04-11T13:02:01.975Z</time></trkpt><trkpt lat="45.8586298" lon="11.7514618"><ele>1205.0</ele><time>2026-04-11T13:02:02.972Z</time></trkpt><trkpt lat="45.8585636" lon="11.7516896"><ele>1208.6666666666667</ele><time>2026-04-11T13:02:03.965Z</time></trkpt><trkpt lat="45.8584568" lon="11.7518958"><ele>1212.3333333333333</ele><time>2026-04-11T13:02:04.963Z</time></trkpt><trkpt lat="45.8584125" lon="11.7521169"><ele>1216.0</ele><time>2026-04-11T13:02:05.971Z</time></trkpt><trkpt lat="45.8583639" lon="11.752345"><ele>1206.3333333333333</ele><time>2026-04-11T13:02:06.968Z</time></trkpt><trkpt lat="45.858359" lon="11.7525936"><ele>1196.6666666666667</ele><time>2026-04-11T13:02:07.976Z</time></trkpt><trkpt lat="45.8583527" lon="11.7528397"><ele>1187.0</ele><time>2026-04-11T13:02:08.982Z</time></trkpt><trkpt lat="45.8583752" lon="11.7530806"><ele>1187.0</ele><time>2026-04-11T13:02:09.966Z</time></trkpt><trkpt lat="45.8584162" lon="11.7533374"><ele>1187.0</ele><time>2026-04-11T13:02:10.969Z</time></trkpt><trkpt lat="45.8584646" lon="11.7535862"><ele>1187.0</ele><time>2026-04-11T13:02:11.972Z</time></trkpt><trkpt lat="45.8585049" lon="11.7538202"><ele>1201.6666666666667</ele><time>2026-04-11T13:02:12.977Z</time></trkpt><trkpt lat="45.8585375" lon="11.7540651"><ele>1216.3333333333333</ele><time>2026-04-11T13:02:13.967Z</time></trkpt><trkpt lat="45.8585874" lon="11.7543068"><ele>1231.0</ele><time>2026-04-11T13:02:14.971Z</time></trkpt><trkpt lat="45.8586198" lon="11.7545388"><ele>1231.3333333333333</ele><time>2026-04-11T13:02:15.967Z</time></trkpt><trkpt lat="45.8586574" lon="11.7547792"><ele>1231.6666666666667</ele><time>2026-04-11T13:02:16.984Z</time></trkpt><trkpt lat="45.8586989" lon="11.7550263"><ele>1232.0</ele><time>2026-04-11T13:02:17.971Z</time></trkpt><trkpt lat="45.8587464" lon="11.7552564"><ele>1232.0</ele><time>2026-04-11T13:02:18.965Z</time></trkpt><trkpt lat="45.8587957" lon="11.7555001"><ele>1232.0</ele><time>2026-04-11T13:02:19.968Z</time></trkpt><trkpt lat="45.8588379" lon="11.7557519"><ele>1232.0</ele><time>2026-04-11T13:02:20.979Z</time></trkpt><trkpt lat="45.8588807" lon="11.7560018"><ele>1230.6666666666667</ele><time>2026-04-11T13:02:21.972Z</time></trkpt><trkpt lat="45.8588907" lon="11.7562596"><ele>1229.3333333333333</ele><time>2026-04-11T13:02:22.977Z</time></trkpt><trkpt lat="45.8588974" lon="11.7565068"><ele>1228.0</ele><time>2026-04-11T13:02:23.968Z</time></trkpt><trkpt lat="45.8589162" lon="11.7567656"><ele>1226.3333333333333</ele><time>2026-04-11T13:02:24.965Z</time></trkpt><trkpt lat="45.8589429" lon="11.7570097"><ele>1224.6666666666667</ele><time>2026-04-11T13:02:25.962Z</time></trkpt><trkpt lat="45.8589786" lon="11.7572222"><ele>1223.0</ele><time>2026-04-11T13:02:26.971Z</time></trkpt><trkpt lat="45.8590039" lon="11.7574268"><ele>1223.0</ele><time>2026-04-11T13:02:27.983Z</time></trkpt><trkpt lat="45.8590087" lon="11.7576254"><ele>1223.0</ele><time>2026-04-11T13:02:28.966Z</time></trkpt><trkpt lat="45.8590098" lon="11.7578042"><ele>1223.0</ele><time>2026-04-11T13:02:29.973Z</time></trkpt><trkpt lat="45.8590362" lon="11.7579744"><ele>1223.0</ele><time>2026-04-11T13:02:30.962Z</time></trkpt><trkpt lat="45.8590579" lon="11.7581334"><ele>1222.6</ele><time>2026-04-11T13:02:31.975Z</time></trkpt><trkpt lat="45.8591273" lon="11.7582745"><ele>1222.1999999999998</ele><time>2026-04-11T13:02:32.981Z</time></trkpt><trkpt lat="45.859196" lon="11.7584278"><ele>1221.8</ele><time>2026-04-11T13:02:33.966Z</time></trkpt><trkpt lat="45.8592588" lon="11.758552"><ele>1221.3999999999999</ele><time>2026-04-11T13:02:34.98Z</time></trkpt><trkpt lat="45.8593105" lon="11.7586598"><ele>1221.0</ele><time>2026-04-11T13:02:35.973Z</time></trkpt><trkpt lat="45.8593482" lon="11.7587472"><ele>1222.8333333333333</ele><time>2026-04-11T13:02:36.97Z</time></trkpt><trkpt lat="45.8594119" lon="11.758908"><ele>1224.6666666666667</ele><time>2026-04-11T13:02:38.962Z</time></trkpt><trkpt lat="45.8594489" lon="11.7589973"><ele>1226.5</ele><time>2026-04-11T13:02:39.965Z</time></trkpt><trkpt lat="45.8594849" lon="11.7591029"><ele>1228.3333333333335</ele><time>2026-04-11T13:02:40.972Z</time></trkpt><trkpt lat="45.8595157" lon="11.7592007"><ele>1230.1666666666667</ele><time>2026-04-11T13:02:41.976Z</time></trkpt><trkpt lat="45.8595392" lon="11.7592972"><ele>1232.0</ele><time>2026-04-11T13:02:42.969Z</time></trkpt><trkpt lat="45.8595581" lon="11.7594017"><ele>1232.0</ele><time>2026-04-11T13:02:43.975Z</time></trkpt><trkpt lat="45.8595818" lon="11.7595231"><ele>1232.0</ele><time>2026-04-11T13:02:44.975Z</time></trkpt><trkpt lat="45.859609" lon="11.759649"><ele>1232.0</ele><time>2026-04-11T13:02:45.965Z</time></trkpt><trkpt lat="45.859638" lon="11.7597851"><ele>1232.0</ele><time>2026-04-11T13:02:46.978Z</time></trkpt><trkpt lat="45.8596702" lon="11.759941"><ele>1232.0</ele><time>2026-04-11T13:02:47.974Z</time></trkpt><trkpt lat="45.8597036" lon="11.7600901"><ele>1230.2</ele><time>2026-04-11T13:02:48.961Z</time></trkpt><trkpt lat="45.8597364" lon="11.7602396"><ele>1228.4</ele><time>2026-04-11T13:02:49.964Z</time></trkpt><trkpt lat="45.8597635" lon="11.7603785"><ele>1226.6</ele><time>2026-04-11T13:02:50.97Z</time></trkpt><trkpt lat="45.8597852" lon="11.7605196"><ele>1224.8</ele><time>2026-04-11T13:02:51.986Z</time></trkpt><trkpt lat="45.8597998" lon="11.7606562"><ele>1223.0</ele><time>2026-04-11T13:02:52.974Z</time></trkpt><trkpt lat="45.8597962" lon="11.7607927"><ele>1223.0</ele><time>2026-04-11T13:02:53.975Z</time></trkpt><trkpt lat="45.8597646" lon="11.7609052"><ele>1223.0</ele><time>2026-04-11T13:02:54.986Z</time></trkpt><trkpt lat="45.8597526" lon="11.7610505"><ele>1223.0</ele><time>2026-04-11T13:02:55.976Z</time></trkpt><trkpt lat="45.8597621" lon="11.7611637"><ele>1223.0</ele><time>2026-04-11T13:02:56.972Z</time></trkpt><trkpt lat="45.8597847" lon="11.7612506"><ele>1223.0</ele><time>2026-04-11T13:02:57.993Z</time></trkpt><trkpt lat="45.8598378" lon="11.7613169"><ele>1223.0</ele><time>2026-04-11T13:02:58.982Z</time></trkpt><trkpt lat="45.8598924" lon="11.7613708"><ele>1221.1666666666667</ele><time>2026-04-11T13:02:59.972Z</time></trkpt><trkpt lat="45.859973" lon="11.7614553"><ele>1219.3333333333335</ele><time>2026-04-11T13:03:01.99Z</time></trkpt><trkpt lat="45.8599721" lon="11.7615466"><ele>1217.5</ele><time>2026-04-11T13:03:03.99Z</time></trkpt><trkpt lat="45.8598691" lon="11.7616315"><ele>1215.6666666666667</ele><time>2026-04-11T13:03:05.968Z</time></trkpt><trkpt lat="45.8597879" lon="11.7616311"><ele>1213.8333333333333</ele><time>2026-04-11T13:03:06.973Z</time></trkpt><trkpt lat="45.8597037" lon="11.7616366"><ele>1212.0</ele><time>2026-04-11T13:03:07.986Z</time></trkpt><trkpt lat="45.8596203" lon="11.7616377"><ele>1212.0</ele><time>2026-04-11T13:03:08.982Z</time></trkpt><trkpt lat="45.8595638" lon="11.7616857"><ele>1212.0</ele><time>2026-04-11T13:03:09.968Z</time></trkpt><trkpt lat="45.8595092" lon="11.7617314"><ele>1212.0</ele><time>2026-04-11T13:03:10.98Z</time></trkpt><trkpt lat="45.8594575" lon="11.7618052"><ele>1212.0</ele><time>2026-04-11T13:03:11.987Z</time></trkpt><trkpt lat="45.8594266" lon="11.7618998"><ele>1212.0</ele><time>2026-04-11T13:03:12.98Z</time></trkpt><trkpt lat="45.8594146" lon="11.7620172"><ele>1212.0</ele><time>2026-04-11T13:03:14.003Z</time></trkpt><trkpt lat="45.8593931" lon="11.7621299"><ele>1212.0</ele><time>2026-04-11T13:03:14.98Z</time></trkpt><trkpt lat="45.8593481" lon="11.7622365"><ele>1213.0</ele><time>2026-04-11T13:03:15.964Z</time></trkpt><trkpt lat="45.8592846" lon="11.7623117"><ele>1214.0</ele><time>2026-04-11T13:03:16.976Z</time></trkpt><trkpt lat="45.8592176" lon="11.7623888"><ele>1215.0</ele><time>2026-04-11T13:03:17.976Z</time></trkpt><trkpt lat="45.8591626" lon="11.7624414"><ele>1216.0</ele><time>2026-04-11T13:03:18.976Z</time></trkpt><trkpt lat="45.8591239" lon="11.7625192"><ele>1217.0</ele><time>2026-04-11T13:03:19.965Z</time></trkpt><trkpt lat="45.8590833" lon="11.7626118"><ele>1218.0</ele><time>2026-04-11T13:03:20.969Z</time></trkpt><trkpt lat="45.8590538" lon="11.762725"><ele>1215.8333333333333</ele><time>2026-04-11T13:03:21.973Z</time></trkpt><trkpt lat="45.8590007" lon="11.7628271"><ele>1213.6666666666667</ele><time>2026-04-11T13:03:22.967Z</time></trkpt><trkpt lat="45.8589421" lon="11.7629094"><ele>1211.5</ele><time>2026-04-11T13:03:23.969Z</time></trkpt><trkpt lat="45.8588834" lon="11.7629924"><ele>1209.3333333333335</ele><time>2026-04-11T13:03:24.969Z</time></trkpt><trkpt lat="45.858818" lon="11.7630712"><ele>1207.1666666666667</ele><time>2026-04-11T13:03:25.974Z</time></trkpt><trkpt lat="45.8587688" lon="11.7631789"><ele>1205.0</ele><time>2026-04-11T13:03:26.977Z</time></trkpt><trkpt lat="45.858729" lon="11.7632848"><ele>1205.0</ele><time>2026-04-11T13:03:27.967Z</time></trkpt><trkpt lat="45.858689" lon="11.7633897"><ele>1205.0</ele><time>2026-04-11T13:03:28.963Z</time></trkpt><trkpt lat="45.8586269" lon="11.7634693"><ele>1205.0</ele><time>2026-04-11T13:03:29.982Z</time></trkpt><trkpt lat="45.8585553" lon="11.7635739"><ele>1205.0</ele><time>2026-04-11T13:03:30.978Z</time></trkpt><trkpt lat="45.8584945" lon="11.7636912"><ele>1205.0</ele><time>2026-04-11T13:03:31.961Z</time></trkpt><trkpt lat="45.858437" lon="11.7638209"><ele>1203.2</ele><time>2026-04-11T13:03:32.973Z</time></trkpt><trkpt lat="45.8583834" lon="11.7639493"><ele>1201.4</ele><time>2026-04-11T13:03:33.97Z</time></trkpt><trkpt lat="45.8583342" lon="11.7640414"><ele>1199.6</ele><time>2026-04-11T13:03:34.97Z</time></trkpt><trkpt lat="45.8582946" lon="11.7641139"><ele>1197.8</ele><time>2026-04-11T13:03:35.981Z</time></trkpt><trkpt lat="45.8582179" lon="11.7642324"><ele>1196.0</ele><time>2026-04-11T13:03:37.968Z</time></trkpt><trkpt lat="45.8581688" lon="11.7643627"><ele>1196.5714285714284</ele><time>2026-04-11T13:03:39.974Z</time></trkpt><trkpt lat="45.8581511" lon="11.7644548"><ele>1197.142857142857</ele><time>2026-04-11T13:03:40.971Z</time></trkpt><trkpt lat="45.8581388" lon="11.7645464"><ele>1197.7142857142858</ele><time>2026-04-11T13:03:41.981Z</time></trkpt><trkpt lat="45.858109" lon="11.7646357"><ele>1198.2857142857142</ele><time>2026-04-11T13:03:42.963Z</time></trkpt><trkpt lat="45.8580539" lon="11.764705"><ele>1198.857142857143</ele><time>2026-04-11T13:03:43.989Z</time></trkpt><trkpt lat="45.8579851" lon="11.764754"><ele>1199.4285714285713</ele><time>2026-04-11T13:03:44.972Z</time></trkpt><trkpt lat="45.8579144" lon="11.7647767"><ele>1200.0</ele><time>2026-04-11T13:03:45.963Z</time></trkpt><trkpt lat="45.8578351" lon="11.7647946"><ele>1199.9999999999998</ele><time>2026-04-11T13:03:46.975Z</time></trkpt><trkpt lat="45.8577642" lon="11.7648129"><ele>1200.0</ele><time>2026-04-11T13:03:47.962Z</time></trkpt><trkpt lat="45.8576956" lon="11.764819"><ele>1200.0</ele><time>2026-04-11T13:03:48.997Z</time></trkpt><trkpt lat="45.8576317" lon="11.7648519"><ele>1200.0</ele><time>2026-04-11T13:03:49.97Z</time></trkpt><trkpt lat="45.8575746" lon="11.7649065"><ele>1200.0</ele><time>2026-04-11T13:03:50.969Z</time></trkpt><trkpt lat="45.857517" lon="11.764985"><ele>1199.9999999999998</ele><time>2026-04-11T13:03:51.965Z</time></trkpt><trkpt lat="45.8574639" lon="11.765087"><ele>1200.0</ele><time>2026-04-11T13:03:52.972Z</time></trkpt><trkpt lat="45.8574127" lon="11.7651828"><ele>1200.2</ele><time>2026-04-11T13:03:53.963Z</time></trkpt><trkpt lat="45.857349" lon="11.7652686"><ele>1200.4</ele><time>2026-04-11T13:03:54.96Z</time></trkpt><trkpt lat="45.8572723" lon="11.7653415"><ele>1200.6</ele><time>2026-04-11T13:03:55.968Z</time></trkpt><trkpt lat="45.8572016" lon="11.7654338"><ele>1200.8</ele><time>2026-04-11T13:03:56.974Z</time></trkpt><trkpt lat="45.8571301" lon="11.7655161"><ele>1201.0</ele><time>2026-04-11T13:03:57.96Z</time></trkpt><trkpt lat="45.8570542" lon="11.7655929"><ele>1201.0</ele><time>2026-04-11T13:03:58.967Z</time></trkpt><trkpt lat="45.856972" lon="11.7656623"><ele>1201.0</ele><time>2026-04-11T13:03:59.97Z</time></trkpt><trkpt lat="45.8568933" lon="11.7657256"><ele>1201.0</ele><time>2026-04-11T13:04:00.969Z</time></trkpt><trkpt lat="45.8568219" lon="11.7657834"><ele>1201.0</ele><time>2026-04-11T13:04:01.966Z</time></trkpt><trkpt lat="45.8567358" lon="11.7658115"><ele>1201.0</ele><time>2026-04-11T13:04:02.965Z</time></trkpt><trkpt lat="45.8566387" lon="11.7658336"><ele>1201.0</ele><time>2026-04-11T13:04:03.969Z</time></trkpt><trkpt lat="45.8565504" lon="11.7658387"><ele>1201.0</ele><time>2026-04-11T13:04:04.964Z</time></trkpt><trkpt lat="45.8564438" lon="11.7658516"><ele>1201.0</ele><time>2026-04-11T13:04:05.967Z</time></trkpt><trkpt lat="45.8563302" lon="11.7658272"><ele>1201.0</ele><time>2026-04-11T13:04:06.967Z</time></trkpt><trkpt lat="45.8562303" lon="11.7658212"><ele>1201.0</ele><time>2026-04-11T13:04:07.957Z</time></trkpt><trkpt lat="45.8561219" lon="11.7658487"><ele>1201.0</ele><time>2026-04-11T13:04:08.973Z</time></trkpt><trkpt lat="45.8560253" lon="11.7658764"><ele>1201.0</ele><time>2026-04-11T13:04:09.983Z</time></trkpt><trkpt lat="45.8559273" lon="11.7659138"><ele>1201.0</ele><time>2026-04-11T13:04:10.958Z</time></trkpt><trkpt lat="45.8558358" lon="11.7659678"><ele>1201.0</ele><time>2026-04-11T13:04:11.968Z</time></trkpt><trkpt lat="45.8557583" lon="11.7660296"><ele>1201.0</ele><time>2026-04-11T13:04:12.968Z</time></trkpt><trkpt lat="45.8556693" lon="11.7660576"><ele>1202.6</ele><time>2026-04-11T13:04:13.976Z</time></trkpt><trkpt lat="45.8555816" lon="11.7660459"><ele>1204.1999999999998</ele><time>2026-04-11T13:04:14.968Z</time></trkpt><trkpt lat="45.8554926" lon="11.7660232"><ele>1205.8000000000002</ele><time>2026-04-11T13:04:15.968Z</time></trkpt><trkpt lat="45.8554004" lon="11.7660197"><ele>1207.4</ele><time>2026-04-11T13:04:16.961Z</time></trkpt><trkpt lat="45.8553242" lon="11.7660168"><ele>1209.0</ele><time>2026-04-11T13:04:17.967Z</time></trkpt><trkpt lat="45.8552225" lon="11.7659747"><ele>1209.0</ele><time>2026-04-11T13:04:19.968Z</time></trkpt><trkpt lat="45.8551938" lon="11.7658843"><ele>1209.0</ele><time>2026-04-11T13:04:21.959Z</time></trkpt><trkpt lat="45.855184" lon="11.7657832"><ele>1209.0</ele><time>2026-04-11T13:04:22.962Z</time></trkpt><trkpt lat="45.8552753" lon="11.7656603"><ele>1209.0</ele><time>2026-04-11T13:04:24.975Z</time></trkpt><trkpt lat="45.8553516" lon="11.7656507"><ele>1209.0</ele><time>2026-04-11T13:04:25.962Z</time></trkpt><trkpt lat="45.8554421" lon="11.7656305"><ele>1209.0</ele><time>2026-04-11T13:04:26.987Z</time></trkpt><trkpt lat="45.8555684" lon="11.765592"><ele>1209.0</ele><time>2026-04-11T13:04:27.977Z</time></trkpt><trkpt lat="45.8556664" lon="11.7655273"><ele>1209.0</ele><time>2026-04-11T13:04:28.97Z</time></trkpt><trkpt lat="45.8557611" lon="11.7654394"><ele>1209.0</ele><time>2026-04-11T13:04:29.967Z</time></trkpt><trkpt lat="45.8558446" lon="11.7653623"><ele>1209.0</ele><time>2026-04-11T13:04:30.965Z</time></trkpt><trkpt lat="45.8559387" lon="11.7652957"><ele>1209.0</ele><time>2026-04-11T13:04:31.962Z</time></trkpt><trkpt lat="45.8560072" lon="11.7652528"><ele>1208.857142857143</ele><time>2026-04-11T13:04:32.972Z</time></trkpt><trkpt lat="45.8560699" lon="11.7652358"><ele>1208.7142857142858</ele><time>2026-04-11T13:04:33.976Z</time></trkpt><trkpt lat="45.8561393" lon="11.7652218"><ele>1208.5714285714287</ele><time>2026-04-11T13:04:34.974Z</time></trkpt><trkpt lat="45.8562135" lon="11.7652202"><ele>1208.4285714285716</ele><time>2026-04-11T13:04:35.971Z</time></trkpt><trkpt lat="45.856259" lon="11.7651395"><ele>1208.2857142857142</ele><time>2026-04-11T13:04:37.977Z</time></trkpt><trkpt lat="45.8562103" lon="11.765046"><ele>1208.1428571428573</ele><time>2026-04-11T13:04:39.972Z</time></trkpt><trkpt lat="45.8561351" lon="11.7650382"><ele>1208.0</ele><time>2026-04-11T13:04:40.979Z</time></trkpt><trkpt lat="45.8560367" lon="11.7650339"><ele>1210.0</ele><time>2026-04-11T13:04:41.965Z</time></trkpt><trkpt lat="45.8559306" lon="11.7650277"><ele>1212.0</ele><time>2026-04-11T13:04:42.965Z</time></trkpt><trkpt lat="45.8558308" lon="11.7650362"><ele>1214.0</ele><time>2026-04-11T13:04:43.965Z</time></trkpt><trkpt lat="45.8557367" lon="11.7650455"><ele>1216.0</ele><time>2026-04-11T13:04:44.974Z</time></trkpt><trkpt lat="45.8556436" lon="11.7650945"><ele>1218.0</ele><time>2026-04-11T13:04:45.977Z</time></trkpt><trkpt lat="45.8555453" lon="11.7651435"><ele>1218.0</ele><time>2026-04-11T13:04:46.971Z</time></trkpt><trkpt lat="45.8554531" lon="11.7651874"><ele>1218.0</ele><time>2026-04-11T13:04:47.971Z</time></trkpt><trkpt lat="45.8553649" lon="11.7652069"><ele>1218.0</ele><time>2026-04-11T13:04:48.967Z</time></trkpt><trkpt lat="45.8552681" lon="11.765209"><ele>1218.0</ele><time>2026-04-11T13:04:49.977Z</time></trkpt><trkpt lat="45.8551622" lon="11.7651885"><ele>1218.0</ele><time>2026-04-11T13:04:50.978Z</time></trkpt><trkpt lat="45.8550517" lon="11.7651682"><ele>1220.5</ele><time>2026-04-11T13:04:51.975Z</time></trkpt><trkpt lat="45.854926" lon="11.7651354"><ele>1223.0</ele><time>2026-04-11T13:04:52.982Z</time></trkpt><trkpt lat="45.8547949" lon="11.7650963"><ele>1225.5</ele><time>2026-04-11T13:04:53.976Z</time></trkpt><trkpt lat="45.8546627" lon="11.7650512"><ele>1228.0</ele><time>2026-04-11T13:04:54.974Z</time></trkpt><trkpt lat="45.8545452" lon="11.7650133"><ele>1228.0</ele><time>2026-04-11T13:04:55.963Z</time></trkpt><trkpt lat="45.8544364" lon="11.7649811"><ele>1228.0</ele><time>2026-04-11T13:04:56.971Z</time></trkpt><trkpt lat="45.8543354" lon="11.7649555"><ele>1228.0</ele><time>2026-04-11T13:04:57.971Z</time></trkpt><trkpt lat="45.8542322" lon="11.7649426"><ele>1228.0</ele><time>2026-04-11T13:04:58.966Z</time></trkpt><trkpt lat="45.8541407" lon="11.7649305"><ele>1228.0</ele><time>2026-04-11T13:04:59.965Z</time></trkpt><trkpt lat="45.8540712" lon="11.7649193"><ele>1228.6</ele><time>2026-04-11T13:05:00.967Z</time></trkpt><trkpt lat="45.8539619" lon="11.7649829"><ele>1229.1999999999998</ele><time>2026-04-11T13:05:02.977Z</time></trkpt><trkpt lat="45.8539335" lon="11.7651664"><ele>1229.8</ele><time>2026-04-11T13:05:04.967Z</time></trkpt><trkpt lat="45.8539393" lon="11.7652695"><ele>1230.3999999999999</ele><time>2026-04-11T13:05:05.981Z</time></trkpt><trkpt lat="45.8539089" lon="11.7654077"><ele>1231.0</ele><time>2026-04-11T13:05:07.965Z</time></trkpt><trkpt lat="45.85378" lon="11.7654634"><ele>1231.0</ele><time>2026-04-11T13:05:09.977Z</time></trkpt><trkpt lat="45.8536883" lon="11.7654776"><ele>1231.0</ele><time>2026-04-11T13:05:10.972Z</time></trkpt><trkpt lat="45.8535895" lon="11.7654962"><ele>1231.0</ele><time>2026-04-11T13:05:11.967Z</time></trkpt><trkpt lat="45.8534948" lon="11.7655115"><ele>1231.0</ele><time>2026-04-11T13:05:12.974Z</time></trkpt><trkpt lat="45.8534148" lon="11.7655082"><ele>1231.0</ele><time>2026-04-11T13:05:13.973Z</time></trkpt><trkpt lat="45.85333" lon="11.7654825"><ele>1232.2</ele><time>2026-04-11T13:05:14.967Z</time></trkpt><trkpt lat="45.8532446" lon="11.7654363"><ele>1233.3999999999999</ele><time>2026-04-11T13:05:15.974Z</time></trkpt><trkpt lat="45.8531557" lon="11.7653876"><ele>1234.6</ele><time>2026-04-11T13:05:16.972Z</time></trkpt><trkpt lat="45.8530589" lon="11.7653306"><ele>1235.8</ele><time>2026-04-11T13:05:17.966Z</time></trkpt><trkpt lat="45.8529608" lon="11.7652744"><ele>1237.0</ele><time>2026-04-11T13:05:18.977Z</time></trkpt><trkpt lat="45.8528544" lon="11.7652244"><ele>1238.2</ele><time>2026-04-11T13:05:19.973Z</time></trkpt><trkpt lat="45.8527487" lon="11.7651921"><ele>1239.4</ele><time>2026-04-11T13:05:20.971Z</time></trkpt><trkpt lat="45.8526437" lon="11.7651679"><ele>1240.6</ele><time>2026-04-11T13:05:21.975Z</time></trkpt><trkpt lat="45.8525403" lon="11.7651452"><ele>1241.8</ele><time>2026-04-11T13:05:22.971Z</time></trkpt><trkpt lat="45.8524424" lon="11.7651356"><ele>1243.0</ele><time>2026-04-11T13:05:23.968Z</time></trkpt><trkpt lat="45.8523443" lon="11.7651279"><ele>1244.1666666666665</ele><time>2026-04-11T13:05:24.977Z</time></trkpt><trkpt lat="45.8522527" lon="11.7651531"><ele>1245.3333333333333</ele><time>2026-04-11T13:05:25.997Z</time></trkpt><trkpt lat="45.8521665" lon="11.7651911"><ele>1246.5</ele><time>2026-04-11T13:05:26.992Z</time></trkpt><trkpt lat="45.8520858" lon="11.765224"><ele>1247.6666666666667</ele><time>2026-04-11T13:05:27.966Z</time></trkpt><trkpt lat="45.8520043" lon="11.7652458"><ele>1248.8333333333335</ele><time>2026-04-11T13:05:28.976Z</time></trkpt><trkpt lat="45.8519347" lon="11.7652546"><ele>1250.0</ele><time>2026-04-11T13:05:29.978Z</time></trkpt><trkpt lat="45.851867" lon="11.7652448"><ele>1250.3333333333335</ele><time>2026-04-11T13:05:30.966Z</time></trkpt><trkpt lat="45.8517995" lon="11.7652109"><ele>1250.6666666666667</ele><time>2026-04-11T13:05:31.978Z</time></trkpt><trkpt lat="45.851736" lon="11.765152"><ele>1251.0</ele><time>2026-04-11T13:05:32.98Z</time></trkpt><trkpt lat="45.8516721" lon="11.7650906"><ele>1251.3333333333333</ele><time>2026-04-11T13:05:33.964Z</time></trkpt><trkpt lat="45.8516285" lon="11.7650095"><ele>1251.6666666666665</ele><time>2026-04-11T13:05:34.979Z</time></trkpt><trkpt lat="45.8515693" lon="11.7648909"><ele>1252.0</ele><time>2026-04-11T13:05:36.962Z</time></trkpt><trkpt lat="45.8514998" lon="11.764928"><ele>1250.5</ele><time>2026-04-11T13:05:40.972Z</time></trkpt><trkpt lat="45.8515306" lon="11.7650629"><ele>1249.0</ele><time>2026-04-11T13:05:42.97Z</time></trkpt><trkpt lat="45.8515674" lon="11.7651482"><ele>1247.5</ele><time>2026-04-11T13:05:44.003Z</time></trkpt><trkpt lat="45.8516157" lon="11.7652265"><ele>1246.0</ele><time>2026-04-11T13:05:44.968Z</time></trkpt><trkpt lat="45.8516672" lon="11.7653095"><ele>1244.5</ele><time>2026-04-11T13:05:45.962Z</time></trkpt><trkpt lat="45.8517082" lon="11.765388"><ele>1243.0</ele><time>2026-04-11T13:05:46.971Z</time></trkpt><trkpt lat="45.8517457" lon="11.7654639"><ele>1243.0</ele><time>2026-04-11T13:05:47.972Z</time></trkpt><trkpt lat="45.8517439" lon="11.7656307"><ele>1243.0</ele><time>2026-04-11T13:05:49.961Z</time></trkpt><trkpt lat="45.8517119" lon="11.7657102"><ele>1243.0</ele><time>2026-04-11T13:05:50.961Z</time></trkpt><trkpt lat="45.8516768" lon="11.7657965"><ele>1243.0</ele><time>2026-04-11T13:05:51.969Z</time></trkpt><trkpt lat="45.8516045" lon="11.765863"><ele>1243.0</ele><time>2026-04-11T13:05:52.966Z</time></trkpt><trkpt lat="45.8515216" lon="11.7659278"><ele>1243.0</ele><time>2026-04-11T13:05:53.969Z</time></trkpt><trkpt lat="45.8514351" lon="11.7659821"><ele>1245.8</ele><time>2026-04-11T13:05:54.968Z</time></trkpt><trkpt lat="45.8513468" lon="11.7660358"><ele>1248.6</ele><time>2026-04-11T13:05:55.963Z</time></trkpt><trkpt lat="45.8512545" lon="11.766063"><ele>1251.4</ele><time>2026-04-11T13:05:56.967Z</time></trkpt><trkpt lat="45.8511617" lon="11.7660846"><ele>1254.2</ele><time>2026-04-11T13:05:57.963Z</time></trkpt><trkpt lat="45.8510776" lon="11.7660929"><ele>1257.0</ele><time>2026-04-11T13:05:58.968Z</time></trkpt><trkpt lat="45.850996" lon="11.7661008"><ele>1254.0</ele><time>2026-04-11T13:05:59.969Z</time></trkpt><trkpt lat="45.8509278" lon="11.766103"><ele>1251.0</ele><time>2026-04-11T13:06:00.965Z</time></trkpt><trkpt lat="45.8508547" lon="11.7661204"><ele>1248.0</ele><time>2026-04-11T13:06:01.971Z</time></trkpt><trkpt lat="45.8507781" lon="11.7661753"><ele>1245.0</ele><time>2026-04-11T13:06:02.967Z</time></trkpt><trkpt lat="45.8507135" lon="11.7662751"><ele>1242.0</ele><time>2026-04-11T13:06:03.97Z</time></trkpt><trkpt lat="45.850643" lon="11.7663756"><ele>1239.0</ele><time>2026-04-11T13:06:04.961Z</time></trkpt><trkpt lat="45.8505817" lon="11.7664772"><ele>1239.0</ele><time>2026-04-11T13:06:05.969Z</time></trkpt><trkpt lat="45.8505187" lon="11.7665764"><ele>1239.0</ele><time>2026-04-11T13:06:06.974Z</time></trkpt><trkpt lat="45.8504618" lon="11.766683"><ele>1239.0</ele><time>2026-04-11T13:06:07.968Z</time></trkpt><trkpt lat="45.8504137" lon="11.7667789"><ele>1239.0</ele><time>2026-04-11T13:06:08.968Z</time></trkpt><trkpt lat="45.85038" lon="11.7668789"><ele>1239.0</ele><time>2026-04-11T13:06:09.969Z</time></trkpt><trkpt lat="45.8503526" lon="11.7669676"><ele>1239.0</ele><time>2026-04-11T13:06:10.967Z</time></trkpt><trkpt lat="45.8503361" lon="11.767065"><ele>1239.6000000000001</ele><time>2026-04-11T13:06:11.963Z</time></trkpt><trkpt lat="45.8503365" lon="11.767183"><ele>1240.2</ele><time>2026-04-11T13:06:12.976Z</time></trkpt><trkpt lat="45.8503431" lon="11.7673165"><ele>1240.8000000000002</ele><time>2026-04-11T13:06:13.968Z</time></trkpt><trkpt lat="45.8503645" lon="11.7674473"><ele>1241.4</ele><time>2026-04-11T13:06:14.966Z</time></trkpt><trkpt lat="45.8504093" lon="11.7675864"><ele>1242.0</ele><time>2026-04-11T13:06:15.974Z</time></trkpt><trkpt lat="45.8504617" lon="11.7677236"><ele>1239.5</ele><time>2026-04-11T13:06:16.972Z</time></trkpt><trkpt lat="45.8505061" lon="11.7678591"><ele>1237.0</ele><time>2026-04-11T13:06:17.976Z</time></trkpt><trkpt lat="45.8505486" lon="11.7679859"><ele>1234.5</ele><time>2026-04-11T13:06:18.966Z</time></trkpt><trkpt lat="45.8505855" lon="11.7680988"><ele>1232.0</ele><time>2026-04-11T13:06:19.966Z</time></trkpt><trkpt lat="45.8506189" lon="11.7681961"><ele>1229.5</ele><time>2026-04-11T13:06:20.968Z</time></trkpt><trkpt lat="45.8506675" lon="11.768286"><ele>1227.0</ele><time>2026-04-11T13:06:21.966Z</time></trkpt><trkpt lat="45.8507428" lon="11.7683547"><ele>1227.0</ele><time>2026-04-11T13:06:22.978Z</time></trkpt><trkpt lat="45.8508055" lon="11.7684275"><ele>1227.0</ele><time>2026-04-11T13:06:23.97Z</time></trkpt><trkpt lat="45.8508627" lon="11.7684974"><ele>1227.0</ele><time>2026-04-11T13:06:24.957Z</time></trkpt><trkpt lat="45.8508876" lon="11.7685877"><ele>1227.0</ele><time>2026-04-11T13:06:25.972Z</time></trkpt><trkpt lat="45.8508993" lon="11.7687416"><ele>1227.0</ele><time>2026-04-11T13:06:27.958Z</time></trkpt><trkpt lat="45.8508561" lon="11.7688086"><ele>1227.0</ele><time>2026-04-11T13:06:28.973Z</time></trkpt><trkpt lat="45.850774" lon="11.7688489"><ele>1228.2</ele><time>2026-04-11T13:06:29.981Z</time></trkpt><trkpt lat="45.8506754" lon="11.76888"><ele>1229.4</ele><time>2026-04-11T13:06:30.964Z</time></trkpt><trkpt lat="45.8505794" lon="11.7689216"><ele>1230.6</ele><time>2026-04-11T13:06:31.972Z</time></trkpt><trkpt lat="45.8504874" lon="11.7689701"><ele>1231.8</ele><time>2026-04-11T13:06:32.975Z</time></trkpt><trkpt lat="45.8503949" lon="11.7690187"><ele>1233.0</ele><time>2026-04-11T13:06:33.962Z</time></trkpt><trkpt lat="45.8502954" lon="11.7690617"><ele>1233.0</ele><time>2026-04-11T13:06:34.971Z</time></trkpt><trkpt lat="45.8501939" lon="11.7690869"><ele>1233.0</ele><time>2026-04-11T13:06:35.968Z</time></trkpt><trkpt lat="45.8500937" lon="11.7690998"><ele>1233.0</ele><time>2026-04-11T13:06:36.959Z</time></trkpt><trkpt lat="45.8499972" lon="11.7691375"><ele>1233.0</ele><time>2026-04-11T13:06:37.969Z</time></trkpt><trkpt lat="45.8498942" lon="11.7691835"><ele>1233.0</ele><time>2026-04-11T13:06:38.967Z</time></trkpt><trkpt lat="45.8497941" lon="11.7692327"><ele>1234.0</ele><time>2026-04-11T13:06:39.979Z</time></trkpt><trkpt lat="45.8496881" lon="11.7692744"><ele>1235.0</ele><time>2026-04-11T13:06:40.971Z</time></trkpt><trkpt lat="45.8495839" lon="11.769317"><ele>1236.0</ele><time>2026-04-11T13:06:41.957Z</time></trkpt><trkpt lat="45.8494874" lon="11.7693697"><ele>1237.0</ele><time>2026-04-11T13:06:42.964Z</time></trkpt><trkpt lat="45.8493897" lon="11.7694319"><ele>1238.0</ele><time>2026-04-11T13:06:43.97Z</time></trkpt><trkpt lat="45.8493113" lon="11.7695135"><ele>1230.2</ele><time>2026-04-11T13:06:44.96Z</time></trkpt><trkpt lat="45.8492365" lon="11.7696125"><ele>1222.4</ele><time>2026-04-11T13:06:45.978Z</time></trkpt><trkpt lat="45.8491719" lon="11.7697015"><ele>1214.6000000000001</ele><time>2026-04-11T13:06:46.971Z</time></trkpt><trkpt lat="45.8491172" lon="11.7698145"><ele>1206.8</ele><time>2026-04-11T13:06:47.957Z</time></trkpt><trkpt lat="45.8490765" lon="11.7699346"><ele>1199.0</ele><time>2026-04-11T13:06:48.978Z</time></trkpt><trkpt lat="45.8490413" lon="11.7700719"><ele>1201.4</ele><time>2026-04-11T13:06:49.977Z</time></trkpt><trkpt lat="45.8489921" lon="11.7702213"><ele>1203.8000000000002</ele><time>2026-04-11T13:06:50.959Z</time></trkpt><trkpt lat="45.8489449" lon="11.7703516"><ele>1206.1999999999998</ele><time>2026-04-11T13:06:51.991Z</time></trkpt><trkpt lat="45.8489086" lon="11.7704746"><ele>1208.6</ele><time>2026-04-11T13:06:52.973Z</time></trkpt><trkpt lat="45.8488633" lon="11.7706033"><ele>1211.0</ele><time>2026-04-11T13:06:53.962Z</time></trkpt><trkpt lat="45.8488391" lon="11.770748"><ele>1211.0</ele><time>2026-04-11T13:06:54.97Z</time></trkpt><trkpt lat="45.8488283" lon="11.770914"><ele>1211.0</ele><time>2026-04-11T13:06:55.972Z</time></trkpt><trkpt lat="45.8488198" lon="11.7710716"><ele>1211.0</ele><time>2026-04-11T13:06:56.961Z</time></trkpt><trkpt lat="45.8488154" lon="11.7712366"><ele>1211.0</ele><time>2026-04-11T13:06:57.966Z</time></trkpt><trkpt lat="45.8488239" lon="11.7714003"><ele>1209.5</ele><time>2026-04-11T13:06:58.969Z</time></trkpt><trkpt lat="45.8488382" lon="11.7715698"><ele>1208.0</ele><time>2026-04-11T13:06:59.954Z</time></trkpt><trkpt lat="45.8488467" lon="11.7717464"><ele>1206.5</ele><time>2026-04-11T13:07:00.963Z</time></trkpt><trkpt lat="45.8488579" lon="11.7719104"><ele>1205.0</ele><time>2026-04-11T13:07:01.97Z</time></trkpt><trkpt lat="45.8488615" lon="11.7720778"><ele>1204.0</ele><time>2026-04-11T13:07:02.97Z</time></trkpt><trkpt lat="45.848863" lon="11.7722417"><ele>1203.0</ele><time>2026-04-11T13:07:03.962Z</time></trkpt><trkpt lat="45.8488516" lon="11.7724154"><ele>1202.0</ele><time>2026-04-11T13:07:04.98Z</time></trkpt><trkpt lat="45.8488505" lon="11.7725699"><ele>1201.0</ele><time>2026-04-11T13:07:05.964Z</time></trkpt><trkpt lat="45.8488583" lon="11.7727134"><ele>1200.0</ele><time>2026-04-11T13:07:06.962Z</time></trkpt><trkpt lat="45.8488676" lon="11.7728327"><ele>1199.7142857142856</ele><time>2026-04-11T13:07:07.966Z</time></trkpt><trkpt lat="45.8488722" lon="11.772934"><ele>1199.4285714285713</ele><time>2026-04-11T13:07:08.985Z</time></trkpt><trkpt lat="45.8488775" lon="11.7730596"><ele>1199.142857142857</ele><time>2026-04-11T13:07:10.959Z</time></trkpt><trkpt lat="45.8488667" lon="11.7731556"><ele>1198.8571428571427</ele><time>2026-04-11T13:07:12.974Z</time></trkpt><trkpt lat="45.8488494" lon="11.7732502"><ele>1198.5714285714284</ele><time>2026-04-11T13:07:24.962Z</time></trkpt><trkpt lat="45.8488449" lon="11.7733599"><ele>1198.2857142857142</ele><time>2026-04-11T13:07:27.962Z</time></trkpt><trkpt lat="45.8488638" lon="11.7732696"><ele>1198.0</ele><time>2026-04-11T13:07:45.959Z</time></trkpt><trkpt lat="45.8488674" lon="11.7731363"><ele>1198.0</ele><time>2026-04-11T13:07:47.963Z</time></trkpt><trkpt lat="45.8488594" lon="11.7730445"><ele>1198.0</ele><time>2026-04-11T13:07:48.967Z</time></trkpt><trkpt lat="45.8488584" lon="11.7729236"><ele>1198.0</ele><time>2026-04-11T13:07:50.972Z</time></trkpt><trkpt lat="45.8489106" lon="11.7730312"><ele>1198.0</ele><time>2026-04-11T13:07:55.964Z</time></trkpt><trkpt lat="45.8489089" lon="11.7731335"><ele>1198.0</ele><time>2026-04-11T13:07:56.964Z</time></trkpt><trkpt lat="45.8489174" lon="11.7732539"><ele>1198.0</ele><time>2026-04-11T13:07:57.966Z</time></trkpt><trkpt lat="45.8489184" lon="11.7733808"><ele>1198.0</ele><time>2026-04-11T13:07:58.964Z</time></trkpt><trkpt lat="45.8489207" lon="11.7735049"><ele>1198.0</ele><time>2026-04-11T13:07:59.958Z</time></trkpt><trkpt lat="45.848919" lon="11.77363"><ele>1198.0</ele><time>2026-04-11T13:08:00.962Z</time></trkpt><trkpt lat="45.8489207" lon="11.7737504"><ele>1198.0</ele><time>2026-04-11T13:08:01.962Z</time></trkpt><trkpt lat="45.8489267" lon="11.7738541"><ele>1198.0</ele><time>2026-04-11T13:08:02.991Z</time></trkpt><trkpt lat="45.8489395" lon="11.7739488"><ele>1198.0</ele><time>2026-04-11T13:08:03.969Z</time></trkpt><trkpt lat="45.8489595" lon="11.7740572"><ele>1197.25</ele><time>2026-04-11T13:08:04.971Z</time></trkpt><trkpt lat="45.8489898" lon="11.7741723"><ele>1196.5</ele><time>2026-04-11T13:08:05.965Z</time></trkpt><trkpt lat="45.849045" lon="11.7743371"><ele>1195.75</ele><time>2026-04-11T13:08:06.958Z</time></trkpt><trkpt lat="45.8491246" lon="11.7745062"><ele>1195.0</ele><time>2026-04-11T13:08:07.96Z</time></trkpt><trkpt lat="45.8491964" lon="11.7746328"><ele>1192.8</ele><time>2026-04-11T13:08:08.968Z</time></trkpt><trkpt lat="45.849262" lon="11.7747528"><ele>1190.6</ele><time>2026-04-11T13:08:09.965Z</time></trkpt><trkpt lat="45.8493446" lon="11.7748353"><ele>1188.4</ele><time>2026-04-11T13:08:10.97Z</time></trkpt><trkpt lat="45.8494333" lon="11.7749212"><ele>1186.2</ele><time>2026-04-11T13:08:11.961Z</time></trkpt><trkpt lat="45.8495271" lon="11.77501"><ele>1184.0</ele><time>2026-04-11T13:08:12.96Z</time></trkpt><trkpt lat="45.8496227" lon="11.7750951"><ele>1188.0</ele><time>2026-04-11T13:08:13.965Z</time></trkpt><trkpt lat="45.8497166" lon="11.7751767"><ele>1192.0</ele><time>2026-04-11T13:08:14.96Z</time></trkpt><trkpt lat="45.8498091" lon="11.775253"><ele>1196.0</ele><time>2026-04-11T13:08:15.968Z</time></trkpt><trkpt lat="45.8498945" lon="11.775333"><ele>1200.0</ele><time>2026-04-11T13:08:16.959Z</time></trkpt><trkpt lat="45.8499622" lon="11.7754185"><ele>1204.0</ele><time>2026-04-11T13:08:17.962Z</time></trkpt><trkpt lat="45.8500039" lon="11.775528"><ele>1204.0</ele><time>2026-04-11T13:08:18.956Z</time></trkpt><trkpt lat="45.8500262" lon="11.7756782"><ele>1204.0</ele><time>2026-04-11T13:08:19.978Z</time></trkpt><trkpt lat="45.8500594" lon="11.7758237"><ele>1204.0</ele><time>2026-04-11T13:08:20.965Z</time></trkpt><trkpt lat="45.8501041" lon="11.7759457"><ele>1204.0</ele><time>2026-04-11T13:08:21.964Z</time></trkpt><trkpt lat="45.8501654" lon="11.776054"><ele>1204.0</ele><time>2026-04-11T13:08:22.969Z</time></trkpt><trkpt lat="45.8502364" lon="11.7761545"><ele>1212.0</ele><time>2026-04-11T13:08:23.972Z</time></trkpt><trkpt lat="45.8503058" lon="11.7762551"><ele>1220.0</ele><time>2026-04-11T13:08:24.959Z</time></trkpt><trkpt lat="45.8503716" lon="11.7763632"><ele>1228.0</ele><time>2026-04-11T13:08:25.957Z</time></trkpt><trkpt lat="45.8504234" lon="11.7764649"><ele>1236.0</ele><time>2026-04-11T13:08:26.959Z</time></trkpt><trkpt lat="45.8504622" lon="11.7765981"><ele>1244.0</ele><time>2026-04-11T13:08:27.962Z</time></trkpt><trkpt lat="45.8504688" lon="11.7767775"><ele>1241.0</ele><time>2026-04-11T13:08:28.965Z</time></trkpt><trkpt lat="45.8504943" lon="11.7769382"><ele>1238.0</ele><time>2026-04-11T13:08:29.962Z</time></trkpt><trkpt lat="45.8505485" lon="11.7771107"><ele>1235.0</ele><time>2026-04-11T13:08:30.97Z</time></trkpt><trkpt lat="45.8506059" lon="11.7772654"><ele>1232.0</ele><time>2026-04-11T13:08:31.978Z</time></trkpt><trkpt lat="45.8506665" lon="11.7773863"><ele>1232.0</ele><time>2026-04-11T13:08:32.961Z</time></trkpt><trkpt lat="45.8507111" lon="11.7775066"><ele>1232.0</ele><time>2026-04-11T13:08:33.958Z</time></trkpt><trkpt lat="45.8507699" lon="11.7775915"><ele>1232.0</ele><time>2026-04-11T13:08:34.958Z</time></trkpt><trkpt lat="45.850839" lon="11.7776577"><ele>1232.0</ele><time>2026-04-11T13:08:35.963Z</time></trkpt><trkpt lat="45.8509041" lon="11.7777178"><ele>1232.0</ele><time>2026-04-11T13:08:36.963Z</time></trkpt><trkpt lat="45.850959" lon="11.7777827"><ele>1232.0</ele><time>2026-04-11T13:08:37.957Z</time></trkpt><trkpt lat="45.8510058" lon="11.7778699"><ele>1236.0</ele><time>2026-04-11T13:08:38.968Z</time></trkpt><trkpt lat="45.8510277" lon="11.7779829"><ele>1240.0</ele><time>2026-04-11T13:08:39.96Z</time></trkpt><trkpt lat="45.8510511" lon="11.7781243"><ele>1244.0</ele><time>2026-04-11T13:08:40.959Z</time></trkpt><trkpt lat="45.851058" lon="11.778282"><ele>1248.0</ele><time>2026-04-11T13:08:41.968Z</time></trkpt><trkpt lat="45.8510736" lon="11.7784233"><ele>1252.0</ele><time>2026-04-11T13:08:42.964Z</time></trkpt><trkpt lat="45.8510973" lon="11.7785446"><ele>1252.0</ele><time>2026-04-11T13:08:43.963Z</time></trkpt><trkpt lat="45.8511471" lon="11.7786561"><ele>1252.0</ele><time>2026-04-11T13:08:44.965Z</time></trkpt><trkpt lat="45.8512075" lon="11.7787902"><ele>1252.0</ele><time>2026-04-11T13:08:45.973Z</time></trkpt><trkpt lat="45.8512753" lon="11.778908"><ele>1252.0</ele><time>2026-04-11T13:08:46.964Z</time></trkpt><trkpt lat="45.8513556" lon="11.7790072"><ele>1252.0</ele><time>2026-04-11T13:08:47.965Z</time></trkpt><trkpt lat="45.8514334" lon="11.7791114"><ele>1252.0</ele><time>2026-04-11T13:08:48.964Z</time></trkpt><trkpt lat="45.8515033" lon="11.7792034"><ele>1252.0</ele><time>2026-04-11T13:08:49.988Z</time></trkpt><trkpt lat="45.8515596" lon="11.7792878"><ele>1252.0</ele><time>2026-04-11T13:08:50.977Z</time></trkpt><trkpt lat="45.8515877" lon="11.7793908"><ele>1252.0</ele><time>2026-04-11T13:08:51.97Z</time></trkpt><trkpt lat="45.8516083" lon="11.7795054"><ele>1252.0</ele><time>2026-04-11T13:08:52.967Z</time></trkpt><trkpt lat="45.8516318" lon="11.7796012"><ele>1252.0</ele><time>2026-04-11T13:08:53.962Z</time></trkpt><trkpt lat="45.8517187" lon="11.7797243"><ele>1255.1666666666665</ele><time>2026-04-11T13:08:55.974Z</time></trkpt><trkpt lat="45.8517813" lon="11.7797578"><ele>1258.3333333333333</ele><time>2026-04-11T13:08:56.967Z</time></trkpt><trkpt lat="45.8518552" lon="11.779777"><ele>1261.5</ele><time>2026-04-11T13:08:57.968Z</time></trkpt><trkpt lat="45.8519333" lon="11.7797972"><ele>1264.6666666666667</ele><time>2026-04-11T13:08:58.968Z</time></trkpt><trkpt lat="45.8520103" lon="11.7798313"><ele>1267.8333333333335</ele><time>2026-04-11T13:08:59.967Z</time></trkpt><trkpt lat="45.8520719" lon="11.7798978"><ele>1271.0</ele><time>2026-04-11T13:09:00.976Z</time></trkpt><trkpt lat="45.8521326" lon="11.7799994"><ele>1271.0</ele><time>2026-04-11T13:09:01.972Z</time></trkpt><trkpt lat="45.8522029" lon="11.7801262"><ele>1271.0</ele><time>2026-04-11T13:09:03.002Z</time></trkpt><trkpt lat="45.8522715" lon="11.7802501"><ele>1271.0</ele><time>2026-04-11T13:09:03.975Z</time></trkpt><trkpt lat="45.8523417" lon="11.7803505"><ele>1271.0</ele><time>2026-04-11T13:09:04.964Z</time></trkpt><trkpt lat="45.8524164" lon="11.7804481"><ele>1271.0</ele><time>2026-04-11T13:09:05.967Z</time></trkpt><trkpt lat="45.8524733" lon="11.7805539"><ele>1269.2</ele><time>2026-04-11T13:09:06.962Z</time></trkpt><trkpt lat="45.852525" lon="11.7806553"><ele>1267.3999999999999</ele><time>2026-04-11T13:09:07.96Z</time></trkpt><trkpt lat="45.8525455" lon="11.7807634"><ele>1265.6</ele><time>2026-04-11T13:09:08.965Z</time></trkpt><trkpt lat="45.8525745" lon="11.780859"><ele>1263.8</ele><time>2026-04-11T13:09:09.971Z</time></trkpt><trkpt lat="45.8526785" lon="11.7809637"><ele>1262.0</ele><time>2026-04-11T13:09:11.967Z</time></trkpt><trkpt lat="45.8527595" lon="11.7810179"><ele>1262.0</ele><time>2026-04-11T13:09:12.958Z</time></trkpt><trkpt lat="45.8528628" lon="11.7810675"><ele>1262.0</ele><time>2026-04-11T13:09:13.971Z</time></trkpt><trkpt lat="45.8529655" lon="11.7811121"><ele>1262.0</ele><time>2026-04-11T13:09:14.966Z</time></trkpt><trkpt lat="45.8530638" lon="11.7811416"><ele>1262.0</ele><time>2026-04-11T13:09:15.969Z</time></trkpt><trkpt lat="45.8531568" lon="11.7811734"><ele>1262.0</ele><time>2026-04-11T13:09:16.966Z</time></trkpt><trkpt lat="45.8532301" lon="11.7812189"><ele>1262.0</ele><time>2026-04-11T13:09:17.965Z</time></trkpt><trkpt lat="45.8532841" lon="11.7813174"><ele>1262.0</ele><time>2026-04-11T13:09:18.969Z</time></trkpt><trkpt lat="45.8533461" lon="11.78143"><ele>1262.0</ele><time>2026-04-11T13:09:19.963Z</time></trkpt><trkpt lat="45.8534095" lon="11.7815604"><ele>1262.0</ele><time>2026-04-11T13:09:20.967Z</time></trkpt><trkpt lat="45.8534851" lon="11.7816803"><ele>1262.0</ele><time>2026-04-11T13:09:21.968Z</time></trkpt><trkpt lat="45.8535597" lon="11.7817903"><ele>1263.75</ele><time>2026-04-11T13:09:22.963Z</time></trkpt><trkpt lat="45.8536547" lon="11.7818692"><ele>1265.5</ele><time>2026-04-11T13:09:23.961Z</time></trkpt><trkpt lat="45.8537597" lon="11.78194"><ele>1267.25</ele><time>2026-04-11T13:09:24.969Z</time></trkpt><trkpt lat="45.8538703" lon="11.7820031"><ele>1269.0</ele><time>2026-04-11T13:09:25.973Z</time></trkpt><trkpt lat="45.8539849" lon="11.7820676"><ele>1269.0</ele><time>2026-04-11T13:09:26.966Z</time></trkpt><trkpt lat="45.8540982" lon="11.7821435"><ele>1269.0</ele><time>2026-04-11T13:09:27.963Z</time></trkpt><trkpt lat="45.8541964" lon="11.7822255"><ele>1269.0</ele><time>2026-04-11T13:09:28.968Z</time></trkpt><trkpt lat="45.8542915" lon="11.7823109"><ele>1269.0</ele><time>2026-04-11T13:09:29.966Z</time></trkpt><trkpt lat="45.8543671" lon="11.7824258"><ele>1271.4</ele><time>2026-04-11T13:09:30.967Z</time></trkpt><trkpt lat="45.8544409" lon="11.7825251"><ele>1273.8000000000002</ele><time>2026-04-11T13:09:31.97Z</time></trkpt><trkpt lat="45.8545369" lon="11.7825962"><ele>1276.1999999999998</ele><time>2026-04-11T13:09:32.97Z</time></trkpt><trkpt lat="45.8546326" lon="11.7826718"><ele>1278.6</ele><time>2026-04-11T13:09:33.967Z</time></trkpt><trkpt lat="45.8547246" lon="11.7827456"><ele>1281.0</ele><time>2026-04-11T13:09:34.96Z</time></trkpt><trkpt lat="45.8547753" lon="11.7828517"><ele>1281.0</ele><time>2026-04-11T13:09:35.967Z</time></trkpt><trkpt lat="45.8548319" lon="11.7829635"><ele>1281.0</ele><time>2026-04-11T13:09:36.97Z</time></trkpt><trkpt lat="45.8548814" lon="11.7831234"><ele>1281.0</ele><time>2026-04-11T13:09:37.963Z</time></trkpt><trkpt lat="45.8549287" lon="11.7832771"><ele>1281.0</ele><time>2026-04-11T13:09:38.97Z</time></trkpt><trkpt lat="45.8549649" lon="11.7834131"><ele>1281.0</ele><time>2026-04-11T13:09:39.969Z</time></trkpt><trkpt lat="45.8549908" lon="11.7835418"><ele>1282.5</ele><time>2026-04-11T13:09:40.968Z</time></trkpt><trkpt lat="45.8550125" lon="11.7836555"><ele>1284.0</ele><time>2026-04-11T13:09:41.96Z</time></trkpt><trkpt lat="45.855031" lon="11.783753"><ele>1285.5</ele><time>2026-04-11T13:09:42.969Z</time></trkpt><trkpt lat="45.855069" lon="11.7838811"><ele>1287.0</ele><time>2026-04-11T13:09:44.965Z</time></trkpt><trkpt lat="45.8551491" lon="11.783898"><ele>1288.5</ele><time>2026-04-11T13:09:47.962Z</time></trkpt><trkpt lat="45.8551925" lon="11.7837645"><ele>1290.0</ele><time>2026-04-11T13:09:49.969Z</time></trkpt><trkpt lat="45.8552072" lon="11.7836537"><ele>1290.0</ele><time>2026-04-11T13:09:50.966Z</time></trkpt><trkpt lat="45.8552333" lon="11.7835458"><ele>1290.0</ele><time>2026-04-11T13:09:51.972Z</time></trkpt><trkpt lat="45.8552674" lon="11.7834426"><ele>1290.0</ele><time>2026-04-11T13:09:52.977Z</time></trkpt><trkpt lat="45.8552959" lon="11.783343"><ele>1290.0</ele><time>2026-04-11T13:09:53.965Z</time></trkpt><trkpt lat="45.8553453" lon="11.7832502"><ele>1290.0</ele><time>2026-04-11T13:09:55.972Z</time></trkpt><trkpt lat="45.8554046" lon="11.7831743"><ele>1290.0</ele><time>2026-04-11T13:11:18.967Z</time></trkpt><trkpt lat="45.855488" lon="11.783142"><ele>1290.0</ele><time>2026-04-11T13:11:21.972Z</time></trkpt><trkpt lat="45.8556014" lon="11.7831669"><ele>1290.0</ele><time>2026-04-11T13:11:23.965Z</time></trkpt><trkpt lat="45.8557026" lon="11.7832653"><ele>1290.0</ele><time>2026-04-11T13:11:25.967Z</time></trkpt><trkpt lat="45.8557816" lon="11.7834051"><ele>1290.0</ele><time>2026-04-11T13:11:27.965Z</time></trkpt><trkpt lat="45.8558189" lon="11.7834914"><ele>1290.0</ele><time>2026-04-11T13:11:28.966Z</time></trkpt><trkpt lat="45.8558653" lon="11.7835854"><ele>1290.0</ele><time>2026-04-11T13:11:29.959Z</time></trkpt><trkpt lat="45.8559171" lon="11.7836909"><ele>1290.0</ele><time>2026-04-11T13:11:30.97Z</time></trkpt><trkpt lat="45.85597" lon="11.7838011"><ele>1290.0</ele><time>2026-04-11T13:11:31.964Z</time></trkpt><trkpt lat="45.8560234" lon="11.783917"><ele>1290.0</ele><time>2026-04-11T13:11:32.961Z</time></trkpt><trkpt lat="45.8560715" lon="11.7840392"><ele>1290.0</ele><time>2026-04-11T13:11:33.963Z</time></trkpt><trkpt lat="45.8561153" lon="11.7841474"><ele>1293.2</ele><time>2026-04-11T13:11:34.971Z</time></trkpt><trkpt lat="45.856161" lon="11.7842545"><ele>1296.4</ele><time>2026-04-11T13:11:35.965Z</time></trkpt><trkpt lat="45.8562076" lon="11.7843607"><ele>1299.6</ele><time>2026-04-11T13:11:36.966Z</time></trkpt><trkpt lat="45.8562487" lon="11.7844565"><ele>1302.8</ele><time>2026-04-11T13:11:37.967Z</time></trkpt><trkpt lat="45.8563428" lon="11.7845633"><ele>1306.0</ele><time>2026-04-11T13:11:39.964Z</time></trkpt><trkpt lat="45.8564529" lon="11.7846006"><ele>1306.0</ele><time>2026-04-11T13:11:41.96Z</time></trkpt><trkpt lat="45.856576" lon="11.7846064"><ele>1306.0</ele><time>2026-04-11T13:11:43.965Z</time></trkpt><trkpt lat="45.856649" lon="11.7846137"><ele>1306.0</ele><time>2026-04-11T13:11:44.962Z</time></trkpt><trkpt lat="45.856713" lon="11.784632"><ele>1306.0</ele><time>2026-04-11T13:11:45.976Z</time></trkpt><trkpt lat="45.856775" lon="11.7846634"><ele>1306.0</ele><time>2026-04-11T13:11:46.97Z</time></trkpt><trkpt lat="45.8568439" lon="11.7847019"><ele>1306.0</ele><time>2026-04-11T13:11:47.959Z</time></trkpt><trkpt lat="45.8569171" lon="11.7847602"><ele>1310.6666666666665</ele><time>2026-04-11T13:11:48.968Z</time></trkpt><trkpt lat="45.8569894" lon="11.7848134"><ele>1315.3333333333333</ele><time>2026-04-11T13:11:49.966Z</time></trkpt><trkpt lat="45.8570609" lon="11.7848595"><ele>1320.0</ele><time>2026-04-11T13:11:50.965Z</time></trkpt><trkpt lat="45.8571303" lon="11.7849105"><ele>1324.6666666666667</ele><time>2026-04-11T13:11:51.969Z</time></trkpt><trkpt lat="45.8571976" lon="11.7849697"><ele>1329.3333333333335</ele><time>2026-04-11T13:11:52.963Z</time></trkpt><trkpt lat="45.8572677" lon="11.7850372"><ele>1334.0</ele><time>2026-04-11T13:11:53.964Z</time></trkpt><trkpt lat="45.8573341" lon="11.7851061"><ele>1333.5</ele><time>2026-04-11T13:11:54.96Z</time></trkpt><trkpt lat="45.8573977" lon="11.78518"><ele>1333.0</ele><time>2026-04-11T13:11:55.968Z</time></trkpt><trkpt lat="45.8574581" lon="11.7852533"><ele>1332.5</ele><time>2026-04-11T13:11:56.962Z</time></trkpt><trkpt lat="45.8574995" lon="11.7853321"><ele>1332.0</ele><time>2026-04-11T13:11:57.963Z</time></trkpt><trkpt lat="45.8575265" lon="11.7855086"><ele>1331.5</ele><time>2026-04-11T13:11:59.962Z</time></trkpt><trkpt lat="45.8575156" lon="11.7856017"><ele>1331.0</ele><time>2026-04-11T13:12:00.96Z</time></trkpt><trkpt lat="45.8574885" lon="11.7856896"><ele>1331.0</ele><time>2026-04-11T13:12:01.968Z</time></trkpt><trkpt lat="45.8574629" lon="11.785784"><ele>1331.0</ele><time>2026-04-11T13:12:02.983Z</time></trkpt><trkpt lat="45.8574158" lon="11.7858655"><ele>1331.0</ele><time>2026-04-11T13:12:03.961Z</time></trkpt><trkpt lat="45.8573595" lon="11.785948"><ele>1331.0</ele><time>2026-04-11T13:12:04.965Z</time></trkpt><trkpt lat="45.8573079" lon="11.7860226"><ele>1331.0</ele><time>2026-04-11T13:12:05.975Z</time></trkpt><trkpt lat="45.857257" lon="11.7860933"><ele>1331.0</ele><time>2026-04-11T13:12:06.964Z</time></trkpt><trkpt lat="45.8572116" lon="11.7862461"><ele>1332.1666666666667</ele><time>2026-04-11T13:12:08.982Z</time></trkpt><trkpt lat="45.8572218" lon="11.7863356"><ele>1333.3333333333335</ele><time>2026-04-11T13:12:09.967Z</time></trkpt><trkpt lat="45.8572813" lon="11.7864614"><ele>1334.5</ele><time>2026-04-11T13:12:11.98Z</time></trkpt><trkpt lat="45.8573345" lon="11.7865208"><ele>1335.6666666666667</ele><time>2026-04-11T13:12:12.975Z</time></trkpt><trkpt lat="45.8573986" lon="11.786563"><ele>1336.8333333333333</ele><time>2026-04-11T13:12:13.959Z</time></trkpt><trkpt lat="45.8574497" lon="11.7866161"><ele>1338.0</ele><time>2026-04-11T13:12:14.965Z</time></trkpt><trkpt lat="45.8574696" lon="11.78678"><ele>1339.0</ele><time>2026-04-11T13:12:16.968Z</time></trkpt><trkpt lat="45.8574565" lon="11.7869391"><ele>1340.0</ele><time>2026-04-11T13:12:18.969Z</time></trkpt><trkpt lat="45.8574381" lon="11.7870721"><ele>1341.0</ele><time>2026-04-11T13:12:20.963Z</time></trkpt><trkpt lat="45.8574437" lon="11.7871717"><ele>1342.0</ele><time>2026-04-11T13:12:23.969Z</time></trkpt><trkpt lat="45.8575013" lon="11.787279"><ele>1343.0</ele><time>2026-04-11T13:12:39.968Z</time></trkpt><trkpt lat="45.8575444" lon="11.7874342"><ele>1343.0</ele><time>2026-04-11T13:12:41.966Z</time></trkpt><trkpt lat="45.8575642" lon="11.7875352"><ele>1343.0</ele><time>2026-04-11T13:12:43.041Z</time></trkpt><trkpt lat="45.8575846" lon="11.7876485"><ele>1343.0</ele><time>2026-04-11T13:12:43.972Z</time></trkpt><trkpt lat="45.8576039" lon="11.7877706"><ele>1343.0</ele><time>2026-04-11T13:12:44.96Z</time></trkpt><trkpt lat="45.857623" lon="11.7878988"><ele>1343.0</ele><time>2026-04-11T13:12:45.964Z</time></trkpt><trkpt lat="45.8576472" lon="11.788038"><ele>1343.0</ele><time>2026-04-11T13:12:46.968Z</time></trkpt><trkpt lat="45.8576758" lon="11.7881776"><ele>1350.5</ele><time>2026-04-11T13:12:47.975Z</time></trkpt><trkpt lat="45.8577046" lon="11.7883141"><ele>1358.0</ele><time>2026-04-11T13:12:48.973Z</time></trkpt><trkpt lat="45.8577327" lon="11.7884424"><ele>1365.5</ele><time>2026-04-11T13:12:49.963Z</time></trkpt><trkpt lat="45.8577464" lon="11.7885504"><ele>1373.0</ele><time>2026-04-11T13:12:50.96Z</time></trkpt><trkpt lat="45.8577572" lon="11.7886482"><ele>1380.5</ele><time>2026-04-11T13:12:51.969Z</time></trkpt><trkpt lat="45.8577311" lon="11.7887494"><ele>1388.0</ele><time>2026-04-11T13:12:52.968Z</time></trkpt><trkpt lat="45.8577025" lon="11.7888513"><ele>1388.4</ele><time>2026-04-11T13:12:53.972Z</time></trkpt><trkpt lat="45.8576518" lon="11.788959"><ele>1388.8000000000002</ele><time>2026-04-11T13:12:54.965Z</time></trkpt><trkpt lat="45.857597" lon="11.7890724"><ele>1389.2</ele><time>2026-04-11T13:12:55.975Z</time></trkpt><trkpt lat="45.8575492" lon="11.7891991"><ele>1389.6</ele><time>2026-04-11T13:12:56.965Z</time></trkpt><trkpt lat="45.8575033" lon="11.7893273"><ele>1390.0</ele><time>2026-04-11T13:12:57.965Z</time></trkpt><trkpt lat="45.857471" lon="11.7894619"><ele>1385.8</ele><time>2026-04-11T13:12:58.973Z</time></trkpt><trkpt lat="45.857454" lon="11.7895949"><ele>1381.6</ele><time>2026-04-11T13:12:59.979Z</time></trkpt><trkpt lat="45.8574419" lon="11.7897304"><ele>1377.4</ele><time>2026-04-11T13:13:00.981Z</time></trkpt><trkpt lat="45.8574404" lon="11.7898403"><ele>1373.2</ele><time>2026-04-11T13:13:01.958Z</time></trkpt><trkpt lat="45.8574216" lon="11.7900038"><ele>1369.0</ele><time>2026-04-11T13:13:03.97Z</time></trkpt><trkpt lat="45.8573549" lon="11.79011"><ele>1369.0</ele><time>2026-04-11T13:13:05.974Z</time></trkpt><trkpt lat="45.8572446" lon="11.7901601"><ele>1369.0</ele><time>2026-04-11T13:13:07.976Z</time></trkpt><trkpt lat="45.8571763" lon="11.7901774"><ele>1369.0</ele><time>2026-04-11T13:13:08.976Z</time></trkpt><trkpt lat="45.8571127" lon="11.7902171"><ele>1369.0</ele><time>2026-04-11T13:13:09.965Z</time></trkpt><trkpt lat="45.8570403" lon="11.7902638"><ele>1369.0</ele><time>2026-04-11T13:13:10.972Z</time></trkpt><trkpt lat="45.8569656" lon="11.7903431"><ele>1369.0</ele><time>2026-04-11T13:13:11.971Z</time></trkpt><trkpt lat="45.8568923" lon="11.7904233"><ele>1369.6666666666665</ele><time>2026-04-11T13:13:12.958Z</time></trkpt><trkpt lat="45.8568437" lon="11.7904815"><ele>1370.3333333333333</ele><time>2026-04-11T13:13:13.979Z</time></trkpt><trkpt lat="45.8568081" lon="11.7906424"><ele>1371.0</ele><time>2026-04-11T13:13:15.972Z</time></trkpt><trkpt lat="45.8568067" lon="11.7907416"><ele>1371.6666666666667</ele><time>2026-04-11T13:13:16.975Z</time></trkpt><trkpt lat="45.8568111" lon="11.7908514"><ele>1372.3333333333335</ele><time>2026-04-11T13:13:17.977Z</time></trkpt><trkpt lat="45.856822" lon="11.7909782"><ele>1373.0</ele><time>2026-04-11T13:13:18.963Z</time></trkpt><trkpt lat="45.8568441" lon="11.7911106"><ele>1373.0</ele><time>2026-04-11T13:13:19.968Z</time></trkpt><trkpt lat="45.8568867" lon="11.7912507"><ele>1373.0</ele><time>2026-04-11T13:13:20.977Z</time></trkpt><trkpt lat="45.8569297" lon="11.7913884"><ele>1373.0</ele><time>2026-04-11T13:13:21.969Z</time></trkpt><trkpt lat="45.8569643" lon="11.7915262"><ele>1373.0</ele><time>2026-04-11T13:13:22.968Z</time></trkpt><trkpt lat="45.8569984" lon="11.7916399"><ele>1373.0</ele><time>2026-04-11T13:13:23.967Z</time></trkpt><trkpt lat="45.85707" lon="11.791752"><ele>1373.0</ele><time>2026-04-11T13:13:25.975Z</time></trkpt><trkpt lat="45.8571632" lon="11.7917615"><ele>1373.0</ele><time>2026-04-11T13:13:27.986Z</time></trkpt><trkpt lat="45.8572533" lon="11.7917188"><ele>1373.0</ele><time>2026-04-11T13:13:29.97Z</time></trkpt><trkpt lat="45.8573292" lon="11.7916199"><ele>1373.0</ele><time>2026-04-11T13:13:31.987Z</time></trkpt><trkpt lat="45.8574075" lon="11.7914777"><ele>1373.0</ele><time>2026-04-11T13:13:33.97Z</time></trkpt><trkpt lat="45.8574611" lon="11.791396"><ele>1373.0</ele><time>2026-04-11T13:13:34.97Z</time></trkpt><trkpt lat="45.8575227" lon="11.7913075"><ele>1373.0</ele><time>2026-04-11T13:13:35.977Z</time></trkpt><trkpt lat="45.8575908" lon="11.7912209"><ele>1373.0</ele><time>2026-04-11T13:13:36.978Z</time></trkpt><trkpt lat="45.8576582" lon="11.7911353"><ele>1373.0</ele><time>2026-04-11T13:13:37.974Z</time></trkpt><trkpt lat="45.8577337" lon="11.7910704"><ele>1373.0</ele><time>2026-04-11T13:13:38.978Z</time></trkpt><trkpt lat="45.8578061" lon="11.7910361"><ele>1373.0</ele><time>2026-04-11T13:13:39.98Z</time></trkpt><trkpt lat="45.8578718" lon="11.7910092"><ele>1376.5</ele><time>2026-04-11T13:13:40.977Z</time></trkpt><trkpt lat="45.8579394" lon="11.7910368"><ele>1380.0</ele><time>2026-04-11T13:13:41.973Z</time></trkpt><trkpt lat="45.8580085" lon="11.7910953"><ele>1383.5</ele><time>2026-04-11T13:13:42.965Z</time></trkpt><trkpt lat="45.8580818" lon="11.7911853"><ele>1387.0</ele><time>2026-04-11T13:13:43.964Z</time></trkpt><trkpt lat="45.858154" lon="11.7912857"><ele>1390.5</ele><time>2026-04-11T13:13:44.967Z</time></trkpt><trkpt lat="45.8582269" lon="11.7913843"><ele>1394.0</ele><time>2026-04-11T13:13:45.972Z</time></trkpt><trkpt lat="45.8582984" lon="11.7914866"><ele>1394.0</ele><time>2026-04-11T13:13:46.974Z</time></trkpt><trkpt lat="45.8583658" lon="11.7915822"><ele>1394.0</ele><time>2026-04-11T13:13:47.967Z</time></trkpt><trkpt lat="45.8584302" lon="11.7916766"><ele>1394.0</ele><time>2026-04-11T13:13:48.971Z</time></trkpt><trkpt lat="45.8584925" lon="11.7917727"><ele>1394.0</ele><time>2026-04-11T13:13:49.971Z</time></trkpt><trkpt lat="45.858556" lon="11.7918705"><ele>1394.0</ele><time>2026-04-11T13:13:50.966Z</time></trkpt><trkpt lat="45.858623" lon="11.7919568"><ele>1399.8333333333335</ele><time>2026-04-11T13:13:51.967Z</time></trkpt><trkpt lat="45.8586821" lon="11.7920498"><ele>1405.6666666666667</ele><time>2026-04-11T13:13:52.965Z</time></trkpt><trkpt lat="45.8587393" lon="11.7921396"><ele>1411.5</ele><time>2026-04-11T13:13:53.961Z</time></trkpt><trkpt lat="45.858788" lon="11.7922424"><ele>1417.3333333333333</ele><time>2026-04-11T13:13:54.977Z</time></trkpt><trkpt lat="45.8588201" lon="11.7923338"><ele>1423.1666666666665</ele><time>2026-04-11T13:13:55.974Z</time></trkpt><trkpt lat="45.8588398" lon="11.7924878"><ele>1429.0</ele><time>2026-04-11T13:13:57.963Z</time></trkpt><trkpt lat="45.8588128" lon="11.7925697"><ele>1429.0</ele><time>2026-04-11T13:13:58.974Z</time></trkpt><trkpt lat="45.8587605" lon="11.7926516"><ele>1429.0</ele><time>2026-04-11T13:13:59.969Z</time></trkpt><trkpt lat="45.8587017" lon="11.7927312"><ele>1429.0</ele><time>2026-04-11T13:14:00.973Z</time></trkpt><trkpt lat="45.8586464" lon="11.7928053"><ele>1429.0</ele><time>2026-04-11T13:14:01.969Z</time></trkpt><trkpt lat="45.8586184" lon="11.7929"><ele>1429.0</ele><time>2026-04-11T13:14:02.975Z</time></trkpt><trkpt lat="45.8585957" lon="11.7930242"><ele>1429.0</ele><time>2026-04-11T13:14:03.964Z</time></trkpt><trkpt lat="45.8585793" lon="11.7931496"><ele>1430.8000000000002</ele><time>2026-04-11T13:14:04.966Z</time></trkpt><trkpt lat="45.8585605" lon="11.7932898"><ele>1432.6000000000001</ele><time>2026-04-11T13:14:05.965Z</time></trkpt><trkpt lat="45.85855" lon="11.7934328"><ele>1434.4</ele><time>2026-04-11T13:14:06.966Z</time></trkpt><trkpt lat="45.8585397" lon="11.7935646"><ele>1436.2</ele><time>2026-04-11T13:14:07.963Z</time></trkpt><trkpt lat="45.8585355" lon="11.7936923"><ele>1438.0</ele><time>2026-04-11T13:14:08.966Z</time></trkpt><trkpt lat="45.8585521" lon="11.7938126"><ele>1439.6666666666665</ele><time>2026-04-11T13:14:09.963Z</time></trkpt><trkpt lat="45.8585621" lon="11.7939307"><ele>1441.3333333333333</ele><time>2026-04-11T13:14:10.962Z</time></trkpt><trkpt lat="45.858548" lon="11.7940428"><ele>1443.0</ele><time>2026-04-11T13:14:11.963Z</time></trkpt><trkpt lat="45.8585068" lon="11.7941498"><ele>1444.6666666666667</ele><time>2026-04-11T13:14:12.961Z</time></trkpt><trkpt lat="45.8584786" lon="11.79425"><ele>1446.3333333333335</ele><time>2026-04-11T13:14:13.975Z</time></trkpt><trkpt lat="45.858455" lon="11.7943445"><ele>1448.0</ele><time>2026-04-11T13:14:14.966Z</time></trkpt><trkpt lat="45.8584568" lon="11.7944447"><ele>1448.8333333333335</ele><time>2026-04-11T13:14:15.969Z</time></trkpt><trkpt lat="45.8584862" lon="11.7945471"><ele>1449.6666666666667</ele><time>2026-04-11T13:14:16.975Z</time></trkpt><trkpt lat="45.8585316" lon="11.7946535"><ele>1450.5</ele><time>2026-04-11T13:14:17.984Z</time></trkpt><trkpt lat="45.8585821" lon="11.7947637"><ele>1451.3333333333333</ele><time>2026-04-11T13:14:18.967Z</time></trkpt><trkpt lat="45.8586402" lon="11.7948533"><ele>1452.1666666666665</ele><time>2026-04-11T13:14:19.97Z</time></trkpt><trkpt lat="45.8586739" lon="11.7949441"><ele>1453.0</ele><time>2026-04-11T13:14:20.969Z</time></trkpt><trkpt lat="45.8586929" lon="11.7951307"><ele>1454.1666666666665</ele><time>2026-04-11T13:14:22.967Z</time></trkpt><trkpt lat="45.858665" lon="11.7952368"><ele>1455.3333333333333</ele><time>2026-04-11T13:14:23.968Z</time></trkpt><trkpt lat="45.8586221" lon="11.7953464"><ele>1456.5</ele><time>2026-04-11T13:14:24.974Z</time></trkpt><trkpt lat="45.8585684" lon="11.7954512"><ele>1457.6666666666667</ele><time>2026-04-11T13:14:25.971Z</time></trkpt><trkpt lat="45.858514" lon="11.7955516"><ele>1458.8333333333335</ele><time>2026-04-11T13:14:26.967Z</time></trkpt><trkpt lat="45.8584655" lon="11.7956251"><ele>1460.0</ele><time>2026-04-11T13:14:27.965Z</time></trkpt><trkpt lat="45.8584201" lon="11.7956964"><ele>1458.8</ele><time>2026-04-11T13:14:28.968Z</time></trkpt><trkpt lat="45.8584001" lon="11.7958349"><ele>1457.6</ele><time>2026-04-11T13:14:30.968Z</time></trkpt><trkpt lat="45.8584386" lon="11.7959705"><ele>1456.4</ele><time>2026-04-11T13:14:32.964Z</time></trkpt><trkpt lat="45.8585197" lon="11.79612"><ele>1455.2</ele><time>2026-04-11T13:14:34.959Z</time></trkpt><trkpt lat="45.8585842" lon="11.7962173"><ele>1454.0</ele><time>2026-04-11T13:14:35.967Z</time></trkpt><trkpt lat="45.8586516" lon="11.7963148"><ele>1454.0</ele><time>2026-04-11T13:14:36.969Z</time></trkpt><trkpt lat="45.8587301" lon="11.7964032"><ele>1454.0</ele><time>2026-04-11T13:14:37.96Z</time></trkpt><trkpt lat="45.8588026" lon="11.7964765"><ele>1454.0</ele><time>2026-04-11T13:14:38.982Z</time></trkpt><trkpt lat="45.8588548" lon="11.7965501"><ele>1454.0</ele><time>2026-04-11T13:14:39.964Z</time></trkpt><trkpt lat="45.8588842" lon="11.7966316"><ele>1454.0</ele><time>2026-04-11T13:14:40.965Z</time></trkpt><trkpt lat="45.8588895" lon="11.7967975"><ele>1454.0</ele><time>2026-04-11T13:14:42.963Z</time></trkpt><trkpt lat="45.8587836" lon="11.7969117"><ele>1454.8000000000002</ele><time>2026-04-11T13:14:44.957Z</time></trkpt><trkpt lat="45.8586973" lon="11.7969693"><ele>1455.6000000000001</ele><time>2026-04-11T13:14:45.958Z</time></trkpt><trkpt lat="45.8586129" lon="11.7970243"><ele>1456.4</ele><time>2026-04-11T13:14:46.958Z</time></trkpt><trkpt lat="45.8585536" lon="11.7970807"><ele>1457.2</ele><time>2026-04-11T13:14:47.964Z</time></trkpt><trkpt lat="45.858485" lon="11.797207"><ele>1458.0</ele><time>2026-04-11T13:14:49.97Z</time></trkpt><trkpt lat="45.85849" lon="11.7974015"><ele>1458.0</ele><time>2026-04-11T13:14:51.966Z</time></trkpt><trkpt lat="45.8585152" lon="11.7975203"><ele>1458.0</ele><time>2026-04-11T13:14:52.965Z</time></trkpt><trkpt lat="45.8585421" lon="11.7976464"><ele>1458.0</ele><time>2026-04-11T13:14:53.974Z</time></trkpt><trkpt lat="45.8585905" lon="11.7977617"><ele>1458.0</ele><time>2026-04-11T13:14:54.97Z</time></trkpt><trkpt lat="45.8586434" lon="11.7978731"><ele>1458.0</ele><time>2026-04-11T13:14:55.965Z</time></trkpt><trkpt lat="45.8586839" lon="11.7979813"><ele>1461.4</ele><time>2026-04-11T13:14:56.963Z</time></trkpt><trkpt lat="45.8587033" lon="11.7980965"><ele>1464.8000000000002</ele><time>2026-04-11T13:14:57.968Z</time></trkpt><trkpt lat="45.8587055" lon="11.7982231"><ele>1468.2</ele><time>2026-04-11T13:14:58.966Z</time></trkpt><trkpt lat="45.8586923" lon="11.7983709"><ele>1471.6</ele><time>2026-04-11T13:14:59.978Z</time></trkpt><trkpt lat="45.8586705" lon="11.7985274"><ele>1475.0</ele><time>2026-04-11T13:15:00.981Z</time></trkpt><trkpt lat="45.8586481" lon="11.7986825"><ele>1477.8</ele><time>2026-04-11T13:15:01.972Z</time></trkpt><trkpt lat="45.8586147" lon="11.7988198"><ele>1480.6</ele><time>2026-04-11T13:15:02.963Z</time></trkpt><trkpt lat="45.8585805" lon="11.7989584"><ele>1483.4</ele><time>2026-04-11T13:15:03.964Z</time></trkpt><trkpt lat="45.8585394" lon="11.7990763"><ele>1486.2</ele><time>2026-04-11T13:15:04.974Z</time></trkpt><trkpt lat="45.8585026" lon="11.7991887"><ele>1489.0</ele><time>2026-04-11T13:15:05.972Z</time></trkpt><trkpt lat="45.8584897" lon="11.7993008"><ele>1488.6666666666665</ele><time>2026-04-11T13:15:06.975Z</time></trkpt><trkpt lat="45.858492" lon="11.7994069"><ele>1488.3333333333333</ele><time>2026-04-11T13:15:07.974Z</time></trkpt><trkpt lat="45.8584968" lon="11.7995108"><ele>1488.0</ele><time>2026-04-11T13:15:08.967Z</time></trkpt><trkpt lat="45.8585291" lon="11.7995996"><ele>1487.6666666666667</ele><time>2026-04-11T13:15:09.966Z</time></trkpt><trkpt lat="45.858564" lon="11.7996938"><ele>1487.3333333333335</ele><time>2026-04-11T13:15:10.981Z</time></trkpt><trkpt lat="45.8586194" lon="11.7997812"><ele>1487.0</ele><time>2026-04-11T13:15:11.971Z</time></trkpt><trkpt lat="45.8586918" lon="11.799874"><ele>1487.0</ele><time>2026-04-11T13:15:12.962Z</time></trkpt><trkpt lat="45.8587707" lon="11.7999656"><ele>1487.0</ele><time>2026-04-11T13:15:13.97Z</time></trkpt><trkpt lat="45.8588488" lon="11.8000607"><ele>1487.0</ele><time>2026-04-11T13:15:14.972Z</time></trkpt><trkpt lat="45.858923" lon="11.8001475"><ele>1487.0</ele><time>2026-04-11T13:15:15.957Z</time></trkpt><trkpt lat="45.8589885" lon="11.8002401"><ele>1487.0</ele><time>2026-04-11T13:15:16.966Z</time></trkpt><trkpt lat="45.8590283" lon="11.8003309"><ele>1485.8333333333335</ele><time>2026-04-11T13:15:17.964Z</time></trkpt><trkpt lat="45.8590651" lon="11.8004242"><ele>1484.6666666666667</ele><time>2026-04-11T13:15:18.968Z</time></trkpt><trkpt lat="45.8590698" lon="11.8005346"><ele>1483.5</ele><time>2026-04-11T13:15:19.967Z</time></trkpt><trkpt lat="45.8590635" lon="11.8006369"><ele>1482.3333333333333</ele><time>2026-04-11T13:15:20.962Z</time></trkpt><trkpt lat="45.859083" lon="11.8007813"><ele>1481.1666666666665</ele><time>2026-04-11T13:15:22.967Z</time></trkpt><trkpt lat="45.8591497" lon="11.8009165"><ele>1480.0</ele><time>2026-04-11T13:15:24.964Z</time></trkpt><trkpt lat="45.8592082" lon="11.8009997"><ele>1479.5</ele><time>2026-04-11T13:15:25.97Z</time></trkpt><trkpt lat="45.8592743" lon="11.8010963"><ele>1479.0</ele><time>2026-04-11T13:15:26.972Z</time></trkpt><trkpt lat="45.8593395" lon="11.8012047"><ele>1478.5</ele><time>2026-04-11T13:15:27.963Z</time></trkpt><trkpt lat="45.8593898" lon="11.8013029"><ele>1478.0</ele><time>2026-04-11T13:15:28.968Z</time></trkpt><trkpt lat="45.8594376" lon="11.8013983"><ele>1477.5</ele><time>2026-04-11T13:15:29.97Z</time></trkpt><trkpt lat="45.8594615" lon="11.8014934"><ele>1477.0</ele><time>2026-04-11T13:15:30.963Z</time></trkpt><trkpt lat="45.859468" lon="11.8015928"><ele>1478.857142857143</ele><time>2026-04-11T13:15:31.957Z</time></trkpt><trkpt lat="45.8594744" lon="11.8017015"><ele>1480.7142857142858</ele><time>2026-04-11T13:15:32.964Z</time></trkpt><trkpt lat="45.8594859" lon="11.8017971"><ele>1482.5714285714284</ele><time>2026-04-11T13:15:33.962Z</time></trkpt><trkpt lat="45.8594999" lon="11.8018858"><ele>1484.4285714285716</ele><time>2026-04-11T13:15:34.96Z</time></trkpt><trkpt lat="45.8594872" lon="11.8020188"><ele>1486.2857142857142</ele><time>2026-04-11T13:15:36.975Z</time></trkpt><trkpt lat="45.8594359" lon="11.8020855"><ele>1488.142857142857</ele><time>2026-04-11T13:15:38.993Z</time></trkpt><trkpt lat="45.8593819" lon="11.8021452"><ele>1490.0</ele><time>2026-04-11T13:15:45.967Z</time></trkpt><trkpt lat="45.8592791" lon="11.8022278"><ele>1490.0</ele><time>2026-04-11T13:15:47.965Z</time></trkpt><trkpt lat="45.8592166" lon="11.8022668"><ele>1490.0</ele><time>2026-04-11T13:15:48.963Z</time></trkpt><trkpt lat="45.8591569" lon="11.8023083"><ele>1490.0</ele><time>2026-04-11T13:15:49.975Z</time></trkpt><trkpt lat="45.859105" lon="11.80236"><ele>1490.0</ele><time>2026-04-11T13:15:50.958Z</time></trkpt><trkpt lat="45.8590469" lon="11.8024687"><ele>1490.0</ele><time>2026-04-11T13:15:52.98Z</time></trkpt><trkpt lat="45.8590262" lon="11.8025699"><ele>1490.0</ele><time>2026-04-11T13:15:54.985Z</time></trkpt><trkpt lat="45.8591046" lon="11.8025916"><ele>1490.0</ele><time>2026-04-11T13:15:57.978Z</time></trkpt><trkpt lat="45.8591817" lon="11.8024781"><ele>1490.0</ele><time>2026-04-11T13:16:00.011Z</time></trkpt><trkpt lat="45.8592405" lon="11.8024317"><ele>1490.0</ele><time>2026-04-11T13:16:00.975Z</time></trkpt><trkpt lat="45.8593125" lon="11.8024034"><ele>1490.0</ele><time>2026-04-11T13:16:01.968Z</time></trkpt><trkpt lat="45.8593877" lon="11.8023896"><ele>1490.0</ele><time>2026-04-11T13:16:02.981Z</time></trkpt><trkpt lat="45.859464" lon="11.8023829"><ele>1490.0</ele><time>2026-04-11T13:16:03.972Z</time></trkpt><trkpt lat="45.8595397" lon="11.8023787"><ele>1490.0</ele><time>2026-04-11T13:16:04.977Z</time></trkpt><trkpt lat="45.8596083" lon="11.8023827"><ele>1490.0</ele><time>2026-04-11T13:16:05.968Z</time></trkpt><trkpt lat="45.8597259" lon="11.8023977"><ele>1493.6666666666667</ele><time>2026-04-11T13:16:07.973Z</time></trkpt><trkpt lat="45.8598152" lon="11.8024166"><ele>1497.3333333333335</ele><time>2026-04-11T13:16:09.962Z</time></trkpt><trkpt lat="45.8598827" lon="11.8024122"><ele>1501.0</ele><time>2026-04-11T13:16:11.968Z</time></trkpt><trkpt lat="45.8599533" lon="11.8023842"><ele>1504.6666666666667</ele><time>2026-04-11T13:16:13.968Z</time></trkpt><trkpt lat="45.859979" lon="11.8022665"><ele>1508.3333333333333</ele><time>2026-04-11T13:16:15.978Z</time></trkpt><trkpt lat="45.8599738" lon="11.8021295"><ele>1512.0</ele><time>2026-04-11T13:16:17.966Z</time></trkpt><trkpt lat="45.8599713" lon="11.8019714"><ele>1511.3999999999999</ele><time>2026-04-11T13:16:19.98Z</time></trkpt><trkpt lat="45.8599987" lon="11.8018224"><ele>1510.8</ele><time>2026-04-11T13:16:21.971Z</time></trkpt><trkpt lat="45.8600759" lon="11.8017114"><ele>1510.2</ele><time>2026-04-11T13:16:23.963Z</time></trkpt><trkpt lat="45.8601578" lon="11.8016016"><ele>1509.6</ele><time>2026-04-11T13:16:25.973Z</time></trkpt><trkpt lat="45.8601665" lon="11.8014383"><ele>1509.0</ele><time>2026-04-11T13:16:27.971Z</time></trkpt><trkpt lat="45.8601358" lon="11.8012646"><ele>1509.0</ele><time>2026-04-11T13:16:29.986Z</time></trkpt><trkpt lat="45.8601162" lon="11.8011776"><ele>1509.0</ele><time>2026-04-11T13:16:30.978Z</time></trkpt><trkpt lat="45.860093" lon="11.8010912"><ele>1509.0</ele><time>2026-04-11T13:16:31.974Z</time></trkpt><trkpt lat="45.8600668" lon="11.8010066"><ele>1509.0</ele><time>2026-04-11T13:16:32.967Z</time></trkpt><trkpt lat="45.8600275" lon="11.8008563"><ele>1509.0</ele><time>2026-04-11T13:16:34.989Z</time></trkpt><trkpt lat="45.8600127" lon="11.8007075"><ele>1509.0</ele><time>2026-04-11T13:16:36.984Z</time></trkpt><trkpt lat="45.8600323" lon="11.8005573"><ele>1510.4</ele><time>2026-04-11T13:16:38.976Z</time></trkpt><trkpt lat="45.8600973" lon="11.8003978"><ele>1511.8000000000002</ele><time>2026-04-11T13:16:40.964Z</time></trkpt><trkpt lat="45.8601486" lon="11.8003135"><ele>1513.1999999999998</ele><time>2026-04-11T13:16:41.971Z</time></trkpt><trkpt lat="45.860212" lon="11.8002131"><ele>1514.6</ele><time>2026-04-11T13:16:42.964Z</time></trkpt><trkpt lat="45.8602812" lon="11.8000848"><ele>1516.0</ele><time>2026-04-11T13:16:43.965Z</time></trkpt><trkpt lat="45.8603458" lon="11.7999442"><ele>1521.25</ele><time>2026-04-11T13:16:44.982Z</time></trkpt><trkpt lat="45.8604173" lon="11.7998244"><ele>1526.5</ele><time>2026-04-11T13:16:45.974Z</time></trkpt><trkpt lat="45.8605144" lon="11.7997411"><ele>1531.75</ele><time>2026-04-11T13:16:46.968Z</time></trkpt><trkpt lat="45.8606351" lon="11.799694"><ele>1537.0</ele><time>2026-04-11T13:16:47.969Z</time></trkpt><trkpt lat="45.8607515" lon="11.7996506"><ele>1537.0000000000002</ele><time>2026-04-11T13:16:48.974Z</time></trkpt><trkpt lat="45.8608556" lon="11.7996512"><ele>1537.0</ele><time>2026-04-11T13:16:49.979Z</time></trkpt><trkpt lat="45.8609456" lon="11.7996506"><ele>1537.0</ele><time>2026-04-11T13:16:50.979Z</time></trkpt><trkpt lat="45.8610055" lon="11.799591"><ele>1537.0</ele><time>2026-04-11T13:16:51.969Z</time></trkpt><trkpt lat="45.86104" lon="11.7994912"><ele>1537.0000000000002</ele><time>2026-04-11T13:16:52.979Z</time></trkpt><trkpt lat="45.861035" lon="11.799364"><ele>1537.0</ele><time>2026-04-11T13:16:53.969Z</time></trkpt><trkpt lat="45.8609927" lon="11.7992237"><ele>1536.25</ele><time>2026-04-11T13:16:54.978Z</time></trkpt><trkpt lat="45.8609404" lon="11.7990579"><ele>1535.5</ele><time>2026-04-11T13:16:55.98Z</time></trkpt><trkpt lat="45.8608989" lon="11.7988605"><ele>1534.75</ele><time>2026-04-11T13:16:56.982Z</time></trkpt><trkpt lat="45.8608669" lon="11.798645"><ele>1534.0</ele><time>2026-04-11T13:16:57.977Z</time></trkpt><trkpt lat="45.8608432" lon="11.7984576"><ele>1535.1666666666665</ele><time>2026-04-11T13:16:58.962Z</time></trkpt><trkpt lat="45.8608268" lon="11.798317"><ele>1536.3333333333333</ele><time>2026-04-11T13:16:59.984Z</time></trkpt><trkpt lat="45.8608216" lon="11.7982196"><ele>1537.5</ele><time>2026-04-11T13:17:00.986Z</time></trkpt><trkpt lat="45.860873" lon="11.7981268"><ele>1538.6666666666665</ele><time>2026-04-11T13:17:02.993Z</time></trkpt><trkpt lat="45.8609151" lon="11.7982055"><ele>1539.8333333333333</ele><time>2026-04-11T13:17:04.987Z</time></trkpt><trkpt lat="45.8609132" lon="11.7982959"><ele>1541.0</ele><time>2026-04-11T13:17:05.972Z</time></trkpt><trkpt lat="45.8609312" lon="11.7984131"><ele>1547.0</ele><time>2026-04-11T13:17:06.972Z</time></trkpt><trkpt lat="45.8609753" lon="11.7985445"><ele>1553.0</ele><time>2026-04-11T13:17:07.965Z</time></trkpt><trkpt lat="45.8610388" lon="11.7986831"><ele>1559.0</ele><time>2026-04-11T13:17:08.966Z</time></trkpt><trkpt lat="45.8611066" lon="11.798829"><ele>1565.0</ele><time>2026-04-11T13:17:09.977Z</time></trkpt><trkpt lat="45.8611927" lon="11.7989626"><ele>1565.0</ele><time>2026-04-11T13:17:10.976Z</time></trkpt><trkpt lat="45.8612925" lon="11.7990744"><ele>1565.0</ele><time>2026-04-11T13:17:11.971Z</time></trkpt><trkpt lat="45.8613804" lon="11.7991649"><ele>1565.0</ele><time>2026-04-11T13:17:12.97Z</time></trkpt><trkpt lat="45.8614433" lon="11.7992556"><ele>1565.0</ele><time>2026-04-11T13:17:13.962Z</time></trkpt><trkpt lat="45.8614722" lon="11.7993534"><ele>1565.0</ele><time>2026-04-11T13:17:14.964Z</time></trkpt><trkpt lat="45.8614737" lon="11.7994625"><ele>1563.9999999999998</ele><time>2026-04-11T13:17:15.972Z</time></trkpt><trkpt lat="45.8614638" lon="11.7995762"><ele>1563.0</ele><time>2026-04-11T13:17:16.959Z</time></trkpt><trkpt lat="45.8614657" lon="11.7996901"><ele>1562.0</ele><time>2026-04-11T13:17:17.975Z</time></trkpt><trkpt lat="45.8614834" lon="11.7998025"><ele>1561.0</ele><time>2026-04-11T13:17:18.969Z</time></trkpt><trkpt lat="45.8615136" lon="11.7999178"><ele>1559.9999999999998</ele><time>2026-04-11T13:17:19.967Z</time></trkpt><trkpt lat="45.8615504" lon="11.800032"><ele>1559.0</ele><time>2026-04-11T13:17:20.971Z</time></trkpt><trkpt lat="45.8615912" lon="11.8001466"><ele>1559.2</ele><time>2026-04-11T13:17:21.962Z</time></trkpt><trkpt lat="45.8616392" lon="11.8002568"><ele>1559.4</ele><time>2026-04-11T13:17:22.969Z</time></trkpt><trkpt lat="45.8617012" lon="11.8003547"><ele>1559.6</ele><time>2026-04-11T13:17:23.982Z</time></trkpt><trkpt lat="45.8617662" lon="11.8004552"><ele>1559.8</ele><time>2026-04-11T13:17:24.983Z</time></trkpt><trkpt lat="45.8618492" lon="11.8005207"><ele>1560.0</ele><time>2026-04-11T13:17:25.97Z</time></trkpt><trkpt lat="45.8619225" lon="11.8006076"><ele>1563.1666666666667</ele><time>2026-04-11T13:17:26.965Z</time></trkpt><trkpt lat="45.8619803" lon="11.8007182"><ele>1566.3333333333335</ele><time>2026-04-11T13:17:27.973Z</time></trkpt><trkpt lat="45.8620316" lon="11.8008338"><ele>1569.5</ele><time>2026-04-11T13:17:28.967Z</time></trkpt><trkpt lat="45.8620736" lon="11.8009467"><ele>1572.6666666666667</ele><time>2026-04-11T13:17:29.974Z</time></trkpt><trkpt lat="45.8621029" lon="11.8010501"><ele>1575.8333333333335</ele><time>2026-04-11T13:17:30.969Z</time></trkpt><trkpt lat="45.8621108" lon="11.8011577"><ele>1579.0</ele><time>2026-04-11T13:17:31.969Z</time></trkpt><trkpt lat="45.8620881" lon="11.8012569"><ele>1579.0000000000002</ele><time>2026-04-11T13:17:32.964Z</time></trkpt><trkpt lat="45.8620427" lon="11.8013386"><ele>1579.0</ele><time>2026-04-11T13:17:33.965Z</time></trkpt><trkpt lat="45.8620012" lon="11.8014266"><ele>1579.0</ele><time>2026-04-11T13:17:34.964Z</time></trkpt><trkpt lat="45.8619795" lon="11.8015366"><ele>1579.0</ele><time>2026-04-11T13:17:35.965Z</time></trkpt><trkpt lat="45.8619753" lon="11.8016634"><ele>1579.0000000000002</ele><time>2026-04-11T13:17:36.969Z</time></trkpt><trkpt lat="45.8619799" lon="11.8018008"><ele>1579.0</ele><time>2026-04-11T13:17:37.974Z</time></trkpt><trkpt lat="45.8619841" lon="11.801945"><ele>1579.0</ele><time>2026-04-11T13:17:38.97Z</time></trkpt><trkpt lat="45.8619831" lon="11.8020928"><ele>1579.0</ele><time>2026-04-11T13:17:39.966Z</time></trkpt><trkpt lat="45.8619782" lon="11.802235"><ele>1579.0</ele><time>2026-04-11T13:17:40.969Z</time></trkpt><trkpt lat="45.8619813" lon="11.8023702"><ele>1579.0</ele><time>2026-04-11T13:17:41.967Z</time></trkpt><trkpt lat="45.8620018" lon="11.802484"><ele>1579.0</ele><time>2026-04-11T13:17:42.964Z</time></trkpt><trkpt lat="45.8620232" lon="11.8025955"><ele>1579.0000000000002</ele><time>2026-04-11T13:17:43.976Z</time></trkpt><trkpt lat="45.8620869" lon="11.8026735"><ele>1579.0</ele><time>2026-04-11T13:17:44.964Z</time></trkpt><trkpt lat="45.8621664" lon="11.8027183"><ele>1579.0</ele><time>2026-04-11T13:17:45.967Z</time></trkpt><trkpt lat="45.8622474" lon="11.8027276"><ele>1579.0</ele><time>2026-04-11T13:17:46.956Z</time></trkpt><trkpt lat="45.8623118" lon="11.8027083"><ele>1579.0000000000002</ele><time>2026-04-11T13:17:47.966Z</time></trkpt><trkpt lat="45.8624001" lon="11.8026354"><ele>1579.0</ele><time>2026-04-11T13:17:49.966Z</time></trkpt><trkpt lat="45.8624664" lon="11.8025635"><ele>1579.0000000000002</ele><time>2026-04-11T13:17:51.959Z</time></trkpt><trkpt lat="45.8625318" lon="11.8025088"><ele>1579.0</ele><time>2026-04-11T13:17:55.971Z</time></trkpt><trkpt lat="45.8626197" lon="11.8024924"><ele>1579.0</ele><time>2026-04-11T13:17:57.972Z</time></trkpt><trkpt lat="45.8626868" lon="11.8024973"><ele>1579.0</ele><time>2026-04-11T13:17:58.975Z</time></trkpt><trkpt lat="45.8627614" lon="11.802519"><ele>1579.0000000000002</ele><time>2026-04-11T13:17:59.966Z</time></trkpt><trkpt lat="45.8628227" lon="11.8025535"><ele>1579.0</ele><time>2026-04-11T13:18:00.973Z</time></trkpt><trkpt lat="45.8629221" lon="11.8026624"><ele>1577.8333333333335</ele><time>2026-04-11T13:18:02.971Z</time></trkpt><trkpt lat="45.8629678" lon="11.8027337"><ele>1576.6666666666667</ele><time>2026-04-11T13:18:03.965Z</time></trkpt><trkpt lat="45.8630149" lon="11.8028043"><ele>1575.5</ele><time>2026-04-11T13:18:04.98Z</time></trkpt><trkpt lat="45.8630939" lon="11.8028971"><ele>1574.3333333333335</ele><time>2026-04-11T13:18:06.972Z</time></trkpt><trkpt lat="45.8631718" lon="11.8029183"><ele>1573.1666666666667</ele><time>2026-04-11T13:18:10.975Z</time></trkpt><trkpt lat="45.8632393" lon="11.8029658"><ele>1572.0</ele><time>2026-04-11T13:18:12.966Z</time></trkpt><trkpt lat="45.8633495" lon="11.8029951"><ele>1571.0</ele><time>2026-04-11T13:18:14.975Z</time></trkpt><trkpt lat="45.8634643" lon="11.8029641"><ele>1570.0</ele><time>2026-04-11T13:18:16.964Z</time></trkpt><trkpt lat="45.8635714" lon="11.8029089"><ele>1569.0</ele><time>2026-04-11T13:18:18.985Z</time></trkpt><trkpt lat="45.8636563" lon="11.8028573"><ele>1568.0</ele><time>2026-04-11T13:18:20.977Z</time></trkpt><trkpt lat="45.8637184" lon="11.8028265"><ele>1567.0</ele><time>2026-04-11T13:18:23.963Z</time></trkpt><trkpt lat="45.8637916" lon="11.802796"><ele>1567.0000000000002</ele><time>2026-04-11T13:18:26.972Z</time></trkpt><trkpt lat="45.8638732" lon="11.802757"><ele>1567.0</ele><time>2026-04-11T13:18:28.968Z</time></trkpt><trkpt lat="45.8639808" lon="11.8027123"><ele>1567.0</ele><time>2026-04-11T13:18:30.96Z</time></trkpt><trkpt lat="45.8640811" lon="11.8026871"><ele>1567.0</ele><time>2026-04-11T13:18:32.962Z</time></trkpt><trkpt lat="45.8641534" lon="11.8026835"><ele>1567.0000000000002</ele><time>2026-04-11T13:18:34.967Z</time></trkpt><trkpt lat="45.8642292" lon="11.8026764"><ele>1567.0</ele><time>2026-04-11T13:18:36.967Z</time></trkpt><trkpt lat="45.8643508" lon="11.802658"><ele>1565.6666666666667</ele><time>2026-04-11T13:18:38.965Z</time></trkpt><trkpt lat="45.8644261" lon="11.8026617"><ele>1564.3333333333335</ele><time>2026-04-11T13:18:39.961Z</time></trkpt><trkpt lat="45.8645066" lon="11.8026726"><ele>1563.0</ele><time>2026-04-11T13:18:40.968Z</time></trkpt><trkpt lat="45.8645845" lon="11.8026837"><ele>1561.6666666666665</ele><time>2026-04-11T13:18:41.976Z</time></trkpt><trkpt lat="45.864692" lon="11.8026694"><ele>1560.3333333333333</ele><time>2026-04-11T13:18:43.974Z</time></trkpt><trkpt lat="45.8647556" lon="11.802587"><ele>1559.0</ele><time>2026-04-11T13:18:45.964Z</time></trkpt><trkpt lat="45.8647624" lon="11.8024829"><ele>1558.9999999999998</ele><time>2026-04-11T13:18:48.972Z</time></trkpt><trkpt lat="45.8647698" lon="11.8023896"><ele>1559.0</ele><time>2026-04-11T13:19:36.971Z</time></trkpt><trkpt lat="45.8647718" lon="11.8024949"><ele>1559.0</ele><time>2026-04-11T13:19:51.982Z</time></trkpt><trkpt lat="45.8647423" lon="11.8026141"><ele>1559.0</ele><time>2026-04-11T13:19:54.971Z</time></trkpt><trkpt lat="45.8646772" lon="11.8026821"><ele>1558.9999999999998</ele><time>2026-04-11T13:19:56.975Z</time></trkpt><trkpt lat="45.864581" lon="11.8026857"><ele>1559.0</ele><time>2026-04-11T13:19:58.977Z</time></trkpt><trkpt lat="45.8644727" lon="11.8026714"><ele>1558.9999999999998</ele><time>2026-04-11T13:20:00.966Z</time></trkpt><trkpt lat="45.8643624" lon="11.802664"><ele>1559.0</ele><time>2026-04-11T13:20:02.966Z</time></trkpt><trkpt lat="45.8642831" lon="11.8026716"><ele>1559.0</ele><time>2026-04-11T13:20:04.972Z</time></trkpt><trkpt lat="45.864207" lon="11.8026836"><ele>1559.0</ele><time>2026-04-11T13:20:08.972Z</time></trkpt><trkpt lat="45.8641431" lon="11.8026842"><ele>1558.9999999999998</ele><time>2026-04-11T13:20:13.964Z</time></trkpt><trkpt lat="45.8640598" lon="11.8026892"><ele>1559.0</ele><time>2026-04-11T13:20:16.971Z</time></trkpt><trkpt lat="45.8639811" lon="11.8027085"><ele>1560.3333333333333</ele><time>2026-04-11T13:20:18.971Z</time></trkpt><trkpt lat="45.8639054" lon="11.8027368"><ele>1561.6666666666665</ele><time>2026-04-11T13:20:20.972Z</time></trkpt><trkpt lat="45.8638324" lon="11.8027709"><ele>1563.0</ele><time>2026-04-11T13:20:23.981Z</time></trkpt><trkpt lat="45.8637529" lon="11.8028068"><ele>1564.3333333333335</ele><time>2026-04-11T13:20:26.967Z</time></trkpt><trkpt lat="45.8636784" lon="11.802841"><ele>1565.6666666666667</ele><time>2026-04-11T13:20:28.964Z</time></trkpt><trkpt lat="45.8636037" lon="11.802881"><ele>1567.0</ele><time>2026-04-11T13:20:30.966Z</time></trkpt><trkpt lat="45.8635293" lon="11.8029199"><ele>1567.8333333333335</ele><time>2026-04-11T13:20:34.977Z</time></trkpt><trkpt lat="45.863434" lon="11.8029543"><ele>1568.6666666666667</ele><time>2026-04-11T13:20:37.963Z</time></trkpt><trkpt lat="45.8633414" lon="11.8029803"><ele>1569.5</ele><time>2026-04-11T13:20:39.968Z</time></trkpt><trkpt lat="45.8632605" lon="11.8029707"><ele>1570.3333333333335</ele><time>2026-04-11T13:20:41.969Z</time></trkpt><trkpt lat="45.8631969" lon="11.8029266"><ele>1571.1666666666667</ele><time>2026-04-11T13:20:43.972Z</time></trkpt><trkpt lat="45.8631161" lon="11.8028911"><ele>1572.0</ele><time>2026-04-11T13:20:46.961Z</time></trkpt><trkpt lat="45.8630478" lon="11.8028204"><ele>1572.0</ele><time>2026-04-11T13:20:48.977Z</time></trkpt><trkpt lat="45.8629517" lon="11.8026895"><ele>1572.0</ele><time>2026-04-11T13:20:50.97Z</time></trkpt><trkpt lat="45.8628991" lon="11.8026167"><ele>1572.0</ele><time>2026-04-11T13:20:51.966Z</time></trkpt><trkpt lat="45.8628402" lon="11.8025519"><ele>1572.0</ele><time>2026-04-11T13:20:52.974Z</time></trkpt><trkpt lat="45.8627839" lon="11.80249"><ele>1572.0</ele><time>2026-04-11T13:20:53.966Z</time></trkpt><trkpt lat="45.8627158" lon="11.80247"><ele>1572.0</ele><time>2026-04-11T13:20:54.969Z</time></trkpt><trkpt lat="45.8626505" lon="11.8024661"><ele>1571.3999999999999</ele><time>2026-04-11T13:20:55.961Z</time></trkpt><trkpt lat="45.862555" lon="11.8024745"><ele>1570.8</ele><time>2026-04-11T13:20:57.966Z</time></trkpt><trkpt lat="45.8624825" lon="11.8025301"><ele>1570.2</ele><time>2026-04-11T13:21:00.973Z</time></trkpt><trkpt lat="45.862403" lon="11.8026153"><ele>1569.6</ele><time>2026-04-11T13:21:02.97Z</time></trkpt><trkpt lat="45.8622882" lon="11.802681"><ele>1569.0</ele><time>2026-04-11T13:21:04.961Z</time></trkpt><trkpt lat="45.862222" lon="11.8026756"><ele>1570.6666666666667</ele><time>2026-04-11T13:21:05.979Z</time></trkpt><trkpt lat="45.8621489" lon="11.8026403"><ele>1572.3333333333335</ele><time>2026-04-11T13:21:06.964Z</time></trkpt><trkpt lat="45.8620828" lon="11.8025704"><ele>1574.0</ele><time>2026-04-11T13:21:07.964Z</time></trkpt><trkpt lat="45.8620179" lon="11.8025007"><ele>1575.6666666666667</ele><time>2026-04-11T13:21:08.973Z</time></trkpt><trkpt lat="45.8619963" lon="11.8023939"><ele>1577.3333333333335</ele><time>2026-04-11T13:21:09.964Z</time></trkpt><trkpt lat="45.8619901" lon="11.8022727"><ele>1579.0</ele><time>2026-04-11T13:21:10.961Z</time></trkpt><trkpt lat="45.8619845" lon="11.8021397"><ele>1579.0</ele><time>2026-04-11T13:21:11.98Z</time></trkpt><trkpt lat="45.8619847" lon="11.8019912"><ele>1579.0</ele><time>2026-04-11T13:21:12.966Z</time></trkpt><trkpt lat="45.861981" lon="11.8018462"><ele>1579.0</ele><time>2026-04-11T13:21:13.96Z</time></trkpt><trkpt lat="45.8619782" lon="11.8017104"><ele>1579.0</ele><time>2026-04-11T13:21:14.968Z</time></trkpt><trkpt lat="45.8619811" lon="11.8015809"><ele>1579.0</ele><time>2026-04-11T13:21:15.967Z</time></trkpt><trkpt lat="45.8619963" lon="11.8014654"><ele>1579.0000000000002</ele><time>2026-04-11T13:21:16.973Z</time></trkpt><trkpt lat="45.8620257" lon="11.8013692"><ele>1579.0</ele><time>2026-04-11T13:21:17.974Z</time></trkpt><trkpt lat="45.8620685" lon="11.8012908"><ele>1579.0</ele><time>2026-04-11T13:21:18.973Z</time></trkpt><trkpt lat="45.8621097" lon="11.801214"><ele>1579.0</ele><time>2026-04-11T13:21:19.958Z</time></trkpt><trkpt lat="45.8621232" lon="11.801113"><ele>1579.0</ele><time>2026-04-11T13:21:20.969Z</time></trkpt><trkpt lat="45.862105" lon="11.8010081"><ele>1579.0000000000002</ele><time>2026-04-11T13:21:21.98Z</time></trkpt><trkpt lat="45.8620715" lon="11.8009024"><ele>1579.0</ele><time>2026-04-11T13:21:22.968Z</time></trkpt><trkpt lat="45.8620352" lon="11.8007987"><ele>1579.0000000000002</ele><time>2026-04-11T13:21:23.967Z</time></trkpt><trkpt lat="45.8619968" lon="11.8006967"><ele>1579.0</ele><time>2026-04-11T13:21:24.975Z</time></trkpt><trkpt lat="45.8619478" lon="11.8006032"><ele>1579.0</ele><time>2026-04-11T13:21:25.96Z</time></trkpt><trkpt lat="45.8618878" lon="11.8005261"><ele>1579.0</ele><time>2026-04-11T13:21:26.968Z</time></trkpt><trkpt lat="45.8618191" lon="11.8004622"><ele>1579.0000000000002</ele><time>2026-04-11T13:21:27.973Z</time></trkpt><trkpt lat="45.8617511" lon="11.800405"><ele>1579.0</ele><time>2026-04-11T13:21:28.965Z</time></trkpt><trkpt lat="45.8616962" lon="11.8003455"><ele>1560.0</ele><time>2026-04-11T13:21:29.989Z</time></trkpt><trkpt lat="45.8616318" lon="11.8002383"><ele>1560.0</ele><time>2026-04-11T13:21:31.966Z</time></trkpt><trkpt lat="45.8616123" lon="11.8001454"><ele>1559.0</ele><time>2026-04-11T13:21:40.974Z</time></trkpt></trkseg><trkseg><trkpt lat="45.8612841" lon="11.7990751"><ele>1565.0</ele><time>2026-04-11T13:47:02.05Z</time></trkpt><trkpt lat="45.8612171" lon="11.7989938"><ele>1565.0</ele><time>2026-04-11T13:47:03.97Z</time></trkpt><trkpt lat="45.8611722" lon="11.7989236"><ele>1565.0</ele><time>2026-04-11T13:47:04.972Z</time></trkpt><trkpt lat="45.8610731" lon="11.7987467"><ele>1565.0</ele><time>2026-04-11T13:47:06.961Z</time></trkpt><trkpt lat="45.8610244" lon="11.7986526"><ele>1565.0</ele><time>2026-04-11T13:47:07.977Z</time></trkpt><trkpt lat="45.8609782" lon="11.7985634"><ele>1560.9999999999998</ele><time>2026-04-11T13:47:08.977Z</time></trkpt><trkpt lat="45.8609435" lon="11.7984736"><ele>1557.0</ele><time>2026-04-11T13:47:09.949Z</time></trkpt><trkpt lat="45.8609231" lon="11.7983863"><ele>1553.0</ele><time>2026-04-11T13:47:10.968Z</time></trkpt><trkpt lat="45.8609175" lon="11.7982277"><ele>1549.0</ele><time>2026-04-11T13:47:12.959Z</time></trkpt><trkpt lat="45.8608898" lon="11.7981214"><ele>1544.9999999999998</ele><time>2026-04-11T13:47:14.959Z</time></trkpt><trkpt lat="45.8608287" lon="11.7981758"><ele>1541.0</ele><time>2026-04-11T13:47:16.96Z</time></trkpt><trkpt lat="45.860823" lon="11.798319"><ele>1541.0</ele><time>2026-04-11T13:47:18.961Z</time></trkpt><trkpt lat="45.8608414" lon="11.7984592"><ele>1541.0</ele><time>2026-04-11T13:47:20.965Z</time></trkpt><trkpt lat="45.8608606" lon="11.7985976"><ele>1541.0</ele><time>2026-04-11T13:47:22.972Z</time></trkpt><trkpt lat="45.8608863" lon="11.7987552"><ele>1541.0</ele><time>2026-04-11T13:47:24.957Z</time></trkpt><trkpt lat="45.8609136" lon="11.7989344"><ele>1541.0</ele><time>2026-04-11T13:47:26.981Z</time></trkpt><trkpt lat="45.8609371" lon="11.7990264"><ele>1543.5714285714287</ele><time>2026-04-11T13:47:27.962Z</time></trkpt><trkpt lat="45.8609652" lon="11.7991162"><ele>1546.1428571428573</ele><time>2026-04-11T13:47:28.973Z</time></trkpt><trkpt lat="45.8609965" lon="11.7991999"><ele>1548.7142857142858</ele><time>2026-04-11T13:47:29.987Z</time></trkpt><trkpt lat="45.8610273" lon="11.7992814"><ele>1551.2857142857142</ele><time>2026-04-11T13:47:30.96Z</time></trkpt><trkpt lat="45.8610518" lon="11.7993693"><ele>1553.857142857143</ele><time>2026-04-11T13:47:31.989Z</time></trkpt><trkpt lat="45.8610554" lon="11.7994642"><ele>1556.4285714285713</ele><time>2026-04-11T13:47:32.973Z</time></trkpt><trkpt lat="45.8610327" lon="11.7995514"><ele>1559.0</ele><time>2026-04-11T13:47:33.964Z</time></trkpt><trkpt lat="45.8609878" lon="11.799622"><ele>1555.3333333333333</ele><time>2026-04-11T13:47:34.97Z</time></trkpt><trkpt lat="45.8609283" lon="11.7996621"><ele>1551.6666666666665</ele><time>2026-04-11T13:47:35.968Z</time></trkpt><trkpt lat="45.8608647" lon="11.7996718"><ele>1548.0</ele><time>2026-04-11T13:47:36.963Z</time></trkpt><trkpt lat="45.8607392" lon="11.7996797"><ele>1544.3333333333335</ele><time>2026-04-11T13:47:38.972Z</time></trkpt><trkpt lat="45.8606726" lon="11.7996932"><ele>1540.6666666666667</ele><time>2026-04-11T13:47:39.969Z</time></trkpt><trkpt lat="45.8606017" lon="11.7997156"><ele>1537.0</ele><time>2026-04-11T13:47:40.973Z</time></trkpt><trkpt lat="45.8605286" lon="11.7997438"><ele>1537.0000000000002</ele><time>2026-04-11T13:47:41.975Z</time></trkpt><trkpt lat="45.8604611" lon="11.7997865"><ele>1537.0</ele><time>2026-04-11T13:47:42.963Z</time></trkpt><trkpt lat="45.8604062" lon="11.7998552"><ele>1537.0</ele><time>2026-04-11T13:47:43.987Z</time></trkpt><trkpt lat="45.8603646" lon="11.7999417"><ele>1537.0</ele><time>2026-04-11T13:47:44.968Z</time></trkpt><trkpt lat="45.8603277" lon="11.8000349"><ele>1537.0</ele><time>2026-04-11T13:47:45.955Z</time></trkpt><trkpt lat="45.8602882" lon="11.8001266"><ele>1537.0000000000002</ele><time>2026-04-11T13:47:46.954Z</time></trkpt><trkpt lat="45.8602435" lon="11.8002067"><ele>1537.0</ele><time>2026-04-11T13:47:47.965Z</time></trkpt><trkpt lat="45.8601961" lon="11.800275"><ele>1537.5714285714287</ele><time>2026-04-11T13:47:48.962Z</time></trkpt><trkpt lat="45.8601478" lon="11.8003398"><ele>1538.142857142857</ele><time>2026-04-11T13:47:49.965Z</time></trkpt><trkpt lat="45.8601017" lon="11.8004109"><ele>1538.7142857142858</ele><time>2026-04-11T13:47:50.958Z</time></trkpt><trkpt lat="45.8600615" lon="11.8004935"><ele>1539.2857142857142</ele><time>2026-04-11T13:47:51.968Z</time></trkpt><trkpt lat="45.8600336" lon="11.8005861"><ele>1539.857142857143</ele><time>2026-04-11T13:47:52.953Z</time></trkpt><trkpt lat="45.8600164" lon="11.8006853"><ele>1540.4285714285716</ele><time>2026-04-11T13:47:53.967Z</time></trkpt><trkpt lat="45.860011" lon="11.8007866"><ele>1541.0</ele><time>2026-04-11T13:47:54.963Z</time></trkpt><trkpt lat="45.8600246" lon="11.8008909"><ele>1539.8333333333333</ele><time>2026-04-11T13:47:55.961Z</time></trkpt><trkpt lat="45.8600512" lon="11.8009908"><ele>1538.6666666666665</ele><time>2026-04-11T13:47:56.962Z</time></trkpt><trkpt lat="45.8600857" lon="11.8010866"><ele>1537.5</ele><time>2026-04-11T13:47:57.964Z</time></trkpt><trkpt lat="45.8601191" lon="11.80118"><ele>1536.3333333333333</ele><time>2026-04-11T13:47:58.959Z</time></trkpt><trkpt lat="45.8601422" lon="11.8012673"><ele>1535.1666666666665</ele><time>2026-04-11T13:47:59.968Z</time></trkpt><trkpt lat="45.8601629" lon="11.8014152"><ele>1534.0</ele><time>2026-04-11T13:48:01.969Z</time></trkpt><trkpt lat="45.8601667" lon="11.8015601"><ele>1534.0</ele><time>2026-04-11T13:48:03.965Z</time></trkpt><trkpt lat="45.8601264" lon="11.8016925"><ele>1534.0</ele><time>2026-04-11T13:48:05.963Z</time></trkpt><trkpt lat="45.8600327" lon="11.8017611"><ele>1534.0</ele><time>2026-04-11T13:48:07.973Z</time></trkpt><trkpt lat="45.8599778" lon="11.8018838"><ele>1534.0</ele><time>2026-04-11T13:48:09.966Z</time></trkpt><trkpt lat="45.8599671" lon="11.8020175"><ele>1534.0</ele><time>2026-04-11T13:48:11.96Z</time></trkpt><trkpt lat="45.8599767" lon="11.8021539"><ele>1530.3333333333333</ele><time>2026-04-11T13:48:13.955Z</time></trkpt><trkpt lat="45.8599753" lon="11.8022835"><ele>1526.6666666666665</ele><time>2026-04-11T13:48:15.963Z</time></trkpt><trkpt lat="45.8599165" lon="11.802384"><ele>1523.0</ele><time>2026-04-11T13:48:17.962Z</time></trkpt><trkpt lat="45.8598098" lon="11.8024034"><ele>1519.3333333333333</ele><time>2026-04-11T13:48:19.962Z</time></trkpt><trkpt lat="45.8597467" lon="11.8023993"><ele>1515.6666666666667</ele><time>2026-04-11T13:48:20.956Z</time></trkpt><trkpt lat="45.8596776" lon="11.8023932"><ele>1512.0</ele><time>2026-04-11T13:48:21.965Z</time></trkpt><trkpt lat="45.8596055" lon="11.8023878"><ele>1512.0</ele><time>2026-04-11T13:48:22.97Z</time></trkpt><trkpt lat="45.8595363" lon="11.8023823"><ele>1512.0</ele><time>2026-04-11T13:48:23.953Z</time></trkpt><trkpt lat="45.8594158" lon="11.8023718"><ele>1512.0</ele><time>2026-04-11T13:48:25.963Z</time></trkpt><trkpt lat="45.8593007" lon="11.8023836"><ele>1512.0</ele><time>2026-04-11T13:48:27.962Z</time></trkpt><trkpt lat="45.8592019" lon="11.8024374"><ele>1512.0</ele><time>2026-04-11T13:48:29.971Z</time></trkpt><trkpt lat="45.8591525" lon="11.8025176"><ele>1512.0</ele><time>2026-04-11T13:48:31.957Z</time></trkpt><trkpt lat="45.8590947" lon="11.8025848"><ele>1512.0</ele><time>2026-04-11T13:48:36.956Z</time></trkpt><trkpt lat="45.8590243" lon="11.8024912"><ele>1512.0</ele><time>2026-04-11T13:48:39.959Z</time></trkpt><trkpt lat="45.8590896" lon="11.8023432"><ele>1512.0</ele><time>2026-04-11T13:48:41.962Z</time></trkpt><trkpt lat="45.8591617" lon="11.8022985"><ele>1512.0</ele><time>2026-04-11T13:48:42.955Z</time></trkpt><trkpt lat="45.8592292" lon="11.8022648"><ele>1512.0</ele><time>2026-04-11T13:48:43.961Z</time></trkpt><trkpt lat="45.8593268" lon="11.8022078"><ele>1512.0</ele><time>2026-04-11T13:48:45.959Z</time></trkpt><trkpt lat="45.8593961" lon="11.8021356"><ele>1512.0</ele><time>2026-04-11T13:48:47.972Z</time></trkpt><trkpt lat="45.8594398" lon="11.8020583"><ele>1512.0</ele><time>2026-04-11T13:48:49.965Z</time></trkpt><trkpt lat="45.8594875" lon="11.8019758"><ele>1512.0</ele><time>2026-04-11T13:48:51.957Z</time></trkpt><trkpt lat="45.8594881" lon="11.8018634"><ele>1512.0</ele><time>2026-04-11T13:48:55.966Z</time></trkpt><trkpt lat="45.8594519" lon="11.8017704"><ele>1512.0</ele><time>2026-04-11T13:48:58.987Z</time></trkpt><trkpt lat="45.8594356" lon="11.8016501"><ele>1511.3999999999999</ele><time>2026-04-11T13:49:00.967Z</time></trkpt><trkpt lat="45.8594295" lon="11.801492"><ele>1510.8</ele><time>2026-04-11T13:49:02.969Z</time></trkpt><trkpt lat="45.8593996" lon="11.8013248"><ele>1510.2</ele><time>2026-04-11T13:49:04.961Z</time></trkpt><trkpt lat="45.8593586" lon="11.8012478"><ele>1509.6</ele><time>2026-04-11T13:49:05.962Z</time></trkpt><trkpt lat="45.8593051" lon="11.8011576"><ele>1509.0</ele><time>2026-04-11T13:49:06.961Z</time></trkpt><trkpt lat="45.8592524" lon="11.8010683"><ele>1503.2</ele><time>2026-04-11T13:49:07.968Z</time></trkpt><trkpt lat="45.8591999" lon="11.8009869"><ele>1497.4</ele><time>2026-04-11T13:49:08.964Z</time></trkpt><trkpt lat="45.8591529" lon="11.8009113"><ele>1491.6</ele><time>2026-04-11T13:49:09.983Z</time></trkpt><trkpt lat="45.8590722" lon="11.8007842"><ele>1485.8</ele><time>2026-04-11T13:49:11.955Z</time></trkpt><trkpt lat="45.8590438" lon="11.8006531"><ele>1480.0</ele><time>2026-04-11T13:49:13.967Z</time></trkpt><trkpt lat="45.8590548" lon="11.8004722"><ele>1480.0</ele><time>2026-04-11T13:49:15.957Z</time></trkpt><trkpt lat="45.8590323" lon="11.8003046"><ele>1480.0</ele><time>2026-04-11T13:49:17.977Z</time></trkpt><trkpt lat="45.8589915" lon="11.8002253"><ele>1480.0</ele><time>2026-04-11T13:49:18.969Z</time></trkpt><trkpt lat="45.8589456" lon="11.8001376"><ele>1480.0</ele><time>2026-04-11T13:49:19.956Z</time></trkpt><trkpt lat="45.8588763" lon="11.8000462"><ele>1480.0</ele><time>2026-04-11T13:49:20.959Z</time></trkpt><trkpt lat="45.8588023" lon="11.7999549"><ele>1481.1666666666665</ele><time>2026-04-11T13:49:21.968Z</time></trkpt><trkpt lat="45.858733" lon="11.7998675"><ele>1482.3333333333333</ele><time>2026-04-11T13:49:22.955Z</time></trkpt><trkpt lat="45.8586692" lon="11.7997849"><ele>1483.5</ele><time>2026-04-11T13:49:23.96Z</time></trkpt><trkpt lat="45.8586148" lon="11.799701"><ele>1484.6666666666667</ele><time>2026-04-11T13:49:24.959Z</time></trkpt><trkpt lat="45.8585713" lon="11.7996278"><ele>1485.8333333333335</ele><time>2026-04-11T13:49:25.959Z</time></trkpt><trkpt lat="45.8585167" lon="11.799477"><ele>1487.0</ele><time>2026-04-11T13:49:27.955Z</time></trkpt><trkpt lat="45.8584943" lon="11.7993905"><ele>1487.3333333333335</ele><time>2026-04-11T13:49:28.957Z</time></trkpt><trkpt lat="45.858494" lon="11.7992913"><ele>1487.6666666666667</ele><time>2026-04-11T13:49:29.967Z</time></trkpt><trkpt lat="45.8585039" lon="11.7992005"><ele>1488.0</ele><time>2026-04-11T13:49:30.96Z</time></trkpt><trkpt lat="45.8585123" lon="11.7991063"><ele>1488.3333333333333</ele><time>2026-04-11T13:49:31.963Z</time></trkpt><trkpt lat="45.8585416" lon="11.799003"><ele>1488.6666666666665</ele><time>2026-04-11T13:49:32.959Z</time></trkpt><trkpt lat="45.858581" lon="11.7988824"><ele>1489.0</ele><time>2026-04-11T13:49:33.964Z</time></trkpt><trkpt lat="45.8586226" lon="11.7987578"><ele>1489.0</ele><time>2026-04-11T13:49:34.961Z</time></trkpt><trkpt lat="45.8586489" lon="11.7986234"><ele>1489.0</ele><time>2026-04-11T13:49:35.961Z</time></trkpt><trkpt lat="45.858671" lon="11.7984974"><ele>1489.0</ele><time>2026-04-11T13:49:36.972Z</time></trkpt><trkpt lat="45.8586927" lon="11.7983694"><ele>1489.0</ele><time>2026-04-11T13:49:37.967Z</time></trkpt><trkpt lat="45.8587066" lon="11.7982428"><ele>1489.0</ele><time>2026-04-11T13:49:38.966Z</time></trkpt><trkpt lat="45.8587208" lon="11.7981233"><ele>1486.6666666666665</ele><time>2026-04-11T13:49:39.968Z</time></trkpt><trkpt lat="45.8587165" lon="11.798015"><ele>1484.3333333333333</ele><time>2026-04-11T13:49:40.957Z</time></trkpt><trkpt lat="45.8586933" lon="11.7979157"><ele>1482.0</ele><time>2026-04-11T13:49:42.021Z</time></trkpt><trkpt lat="45.8586431" lon="11.7978124"><ele>1479.6666666666667</ele><time>2026-04-11T13:49:42.96Z</time></trkpt><trkpt lat="45.8585959" lon="11.7977041"><ele>1477.3333333333335</ele><time>2026-04-11T13:49:43.961Z</time></trkpt><trkpt lat="45.8585587" lon="11.7975922"><ele>1475.0</ele><time>2026-04-11T13:49:44.967Z</time></trkpt><trkpt lat="45.8585311" lon="11.7974852"><ele>1472.1666666666667</ele><time>2026-04-11T13:49:45.962Z</time></trkpt><trkpt lat="45.8585138" lon="11.797381"><ele>1469.3333333333335</ele><time>2026-04-11T13:49:46.96Z</time></trkpt><trkpt lat="45.8585075" lon="11.7972882"><ele>1466.5</ele><time>2026-04-11T13:49:47.956Z</time></trkpt><trkpt lat="45.8585147" lon="11.7971347"><ele>1463.6666666666667</ele><time>2026-04-11T13:49:49.969Z</time></trkpt><trkpt lat="45.8585998" lon="11.7970279"><ele>1460.8333333333333</ele><time>2026-04-11T13:49:51.967Z</time></trkpt><trkpt lat="45.8586622" lon="11.7969814"><ele>1458.0</ele><time>2026-04-11T13:49:52.961Z</time></trkpt><trkpt lat="45.8587282" lon="11.7969344"><ele>1458.0</ele><time>2026-04-11T13:49:53.956Z</time></trkpt><trkpt lat="45.8587868" lon="11.7968995"><ele>1458.0</ele><time>2026-04-11T13:49:54.962Z</time></trkpt><trkpt lat="45.8588818" lon="11.796808"><ele>1458.0</ele><time>2026-04-11T13:49:56.968Z</time></trkpt><trkpt lat="45.8589082" lon="11.7966615"><ele>1458.0</ele><time>2026-04-11T13:49:58.967Z</time></trkpt><trkpt lat="45.8588595" lon="11.796508"><ele>1458.0</ele><time>2026-04-11T13:50:00.958Z</time></trkpt><trkpt lat="45.8588048" lon="11.7964235"><ele>1458.4</ele><time>2026-04-11T13:50:01.957Z</time></trkpt><trkpt lat="45.8587199" lon="11.7963235"><ele>1458.8000000000002</ele><time>2026-04-11T13:50:02.967Z</time></trkpt><trkpt lat="45.8586385" lon="11.7962255"><ele>1459.2</ele><time>2026-04-11T13:50:03.965Z</time></trkpt><trkpt lat="45.8585702" lon="11.796128"><ele>1459.6</ele><time>2026-04-11T13:50:04.96Z</time></trkpt><trkpt lat="45.8585113" lon="11.796041"><ele>1460.0</ele><time>2026-04-11T13:50:05.96Z</time></trkpt><trkpt lat="45.8584656" lon="11.7959582"><ele>1460.0</ele><time>2026-04-11T13:50:06.965Z</time></trkpt><trkpt lat="45.8584358" lon="11.7958727"><ele>1460.0</ele><time>2026-04-11T13:50:07.953Z</time></trkpt><trkpt lat="45.8584343" lon="11.7957096"><ele>1460.0</ele><time>2026-04-11T13:50:09.963Z</time></trkpt><trkpt lat="45.8584933" lon="11.7955754"><ele>1460.0</ele><time>2026-04-11T13:50:11.955Z</time></trkpt><trkpt lat="45.8585462" lon="11.7954956"><ele>1460.0</ele><time>2026-04-11T13:50:12.97Z</time></trkpt><trkpt lat="45.8586063" lon="11.7954043"><ele>1460.0</ele><time>2026-04-11T13:50:13.956Z</time></trkpt><trkpt lat="45.8586674" lon="11.7952963"><ele>1460.0</ele><time>2026-04-11T13:50:14.953Z</time></trkpt><trkpt lat="45.858677" lon="11.7951789"><ele>1460.0</ele><time>2026-04-11T13:50:15.96Z</time></trkpt><trkpt lat="45.8586932" lon="11.7950769"><ele>1460.0</ele><time>2026-04-11T13:50:16.959Z</time></trkpt><trkpt lat="45.8586887" lon="11.7949779"><ele>1460.0</ele><time>2026-04-11T13:50:17.956Z</time></trkpt><trkpt lat="45.8586832" lon="11.7948792"><ele>1460.0</ele><time>2026-04-11T13:50:18.952Z</time></trkpt><trkpt lat="45.8586473" lon="11.7947893"><ele>1458.8333333333335</ele><time>2026-04-11T13:50:19.961Z</time></trkpt><trkpt lat="45.8585895" lon="11.7946968"><ele>1457.6666666666667</ele><time>2026-04-11T13:50:20.958Z</time></trkpt><trkpt lat="45.8585439" lon="11.7946021"><ele>1456.5</ele><time>2026-04-11T13:50:21.956Z</time></trkpt><trkpt lat="45.8585128" lon="11.7945026"><ele>1455.3333333333333</ele><time>2026-04-11T13:50:22.956Z</time></trkpt><trkpt lat="45.8584923" lon="11.7943906"><ele>1454.1666666666665</ele><time>2026-04-11T13:50:23.963Z</time></trkpt><trkpt lat="45.8584748" lon="11.794291"><ele>1453.0</ele><time>2026-04-11T13:50:24.96Z</time></trkpt><trkpt lat="45.8584823" lon="11.7942006"><ele>1452.1666666666665</ele><time>2026-04-11T13:50:25.977Z</time></trkpt><trkpt lat="45.8585115" lon="11.7940919"><ele>1451.3333333333333</ele><time>2026-04-11T13:50:26.967Z</time></trkpt><trkpt lat="45.8585448" lon="11.793975"><ele>1450.5</ele><time>2026-04-11T13:50:27.959Z</time></trkpt><trkpt lat="45.858558" lon="11.7938671"><ele>1449.6666666666667</ele><time>2026-04-11T13:50:28.971Z</time></trkpt><trkpt lat="45.8585721" lon="11.7937506"><ele>1448.8333333333335</ele><time>2026-04-11T13:50:29.967Z</time></trkpt><trkpt lat="45.8585625" lon="11.793623"><ele>1448.0</ele><time>2026-04-11T13:50:30.96Z</time></trkpt><trkpt lat="45.8585553" lon="11.7934928"><ele>1446.3333333333335</ele><time>2026-04-11T13:50:31.97Z</time></trkpt><trkpt lat="45.8585598" lon="11.7933555"><ele>1444.6666666666667</ele><time>2026-04-11T13:50:32.964Z</time></trkpt><trkpt lat="45.8585727" lon="11.7932169"><ele>1443.0</ele><time>2026-04-11T13:50:33.962Z</time></trkpt><trkpt lat="45.8585855" lon="11.7930877"><ele>1441.3333333333333</ele><time>2026-04-11T13:50:34.961Z</time></trkpt><trkpt lat="45.8585986" lon="11.7929701"><ele>1439.6666666666665</ele><time>2026-04-11T13:50:35.963Z</time></trkpt><trkpt lat="45.8586224" lon="11.7928722"><ele>1438.0</ele><time>2026-04-11T13:50:36.953Z</time></trkpt><trkpt lat="45.8586494" lon="11.7927751"><ele>1438.0</ele><time>2026-04-11T13:50:37.96Z</time></trkpt><trkpt lat="45.8587018" lon="11.7926896"><ele>1438.0</ele><time>2026-04-11T13:50:38.965Z</time></trkpt><trkpt lat="45.8587503" lon="11.792609"><ele>1438.0</ele><time>2026-04-11T13:50:39.957Z</time></trkpt><trkpt lat="45.8587865" lon="11.7925192"><ele>1438.0</ele><time>2026-04-11T13:50:40.959Z</time></trkpt><trkpt lat="45.8587981" lon="11.7923443"><ele>1438.0</ele><time>2026-04-11T13:50:42.955Z</time></trkpt><trkpt lat="45.8587682" lon="11.7922523"><ele>1438.0</ele><time>2026-04-11T13:50:43.957Z</time></trkpt><trkpt lat="45.8587263" lon="11.7921637"><ele>1438.5</ele><time>2026-04-11T13:50:44.955Z</time></trkpt><trkpt lat="45.8586825" lon="11.7920775"><ele>1439.0</ele><time>2026-04-11T13:50:45.967Z</time></trkpt><trkpt lat="45.8586423" lon="11.7920042"><ele>1439.5</ele><time>2026-04-11T13:50:46.96Z</time></trkpt><trkpt lat="45.8585593" lon="11.7918733"><ele>1440.0</ele><time>2026-04-11T13:50:48.962Z</time></trkpt><trkpt lat="45.8585095" lon="11.7918061"><ele>1440.5</ele><time>2026-04-11T13:50:49.968Z</time></trkpt><trkpt lat="45.8584587" lon="11.7917373"><ele>1441.0</ele><time>2026-04-11T13:50:50.955Z</time></trkpt><trkpt lat="45.8584073" lon="11.7916683"><ele>1433.1666666666665</ele><time>2026-04-11T13:50:51.966Z</time></trkpt><trkpt lat="45.8583561" lon="11.7915923"><ele>1425.3333333333333</ele><time>2026-04-11T13:50:52.961Z</time></trkpt><trkpt lat="45.8583" lon="11.7915112"><ele>1417.5</ele><time>2026-04-11T13:50:53.961Z</time></trkpt><trkpt lat="45.8582432" lon="11.7914276"><ele>1409.6666666666667</ele><time>2026-04-11T13:50:54.959Z</time></trkpt><trkpt lat="45.8581843" lon="11.7913428"><ele>1401.8333333333335</ele><time>2026-04-11T13:50:55.959Z</time></trkpt><trkpt lat="45.8581184" lon="11.7912537"><ele>1394.0</ele><time>2026-04-11T13:50:56.958Z</time></trkpt><trkpt lat="45.8580545" lon="11.7911668"><ele>1394.0</ele><time>2026-04-11T13:50:57.956Z</time></trkpt><trkpt lat="45.8579942" lon="11.7910854"><ele>1394.0</ele><time>2026-04-11T13:50:58.974Z</time></trkpt><trkpt lat="45.8579308" lon="11.7910209"><ele>1394.0</ele><time>2026-04-11T13:50:59.966Z</time></trkpt><trkpt lat="45.8578516" lon="11.7910085"><ele>1394.0</ele><time>2026-04-11T13:51:00.959Z</time></trkpt><trkpt lat="45.8577696" lon="11.7910337"><ele>1394.0</ele><time>2026-04-11T13:51:01.956Z</time></trkpt><trkpt lat="45.8576885" lon="11.7910901"><ele>1394.0</ele><time>2026-04-11T13:51:02.982Z</time></trkpt><trkpt lat="45.8576117" lon="11.7911829"><ele>1389.8000000000002</ele><time>2026-04-11T13:51:03.975Z</time></trkpt><trkpt lat="45.8575364" lon="11.7912828"><ele>1385.6000000000001</ele><time>2026-04-11T13:51:04.964Z</time></trkpt><trkpt lat="45.8574601" lon="11.7913863"><ele>1381.4</ele><time>2026-04-11T13:51:05.96Z</time></trkpt><trkpt lat="45.8573879" lon="11.7914983"><ele>1377.2</ele><time>2026-04-11T13:51:06.97Z</time></trkpt><trkpt lat="45.8573195" lon="11.7915983"><ele>1373.0</ele><time>2026-04-11T13:51:07.958Z</time></trkpt><trkpt lat="45.857256" lon="11.7916856"><ele>1373.0</ele><time>2026-04-11T13:51:08.961Z</time></trkpt><trkpt lat="45.8571982" lon="11.7917379"><ele>1373.0</ele><time>2026-04-11T13:51:09.965Z</time></trkpt><trkpt lat="45.8570877" lon="11.7917504"><ele>1373.0</ele><time>2026-04-11T13:51:11.957Z</time></trkpt><trkpt lat="45.85701" lon="11.7916388"><ele>1373.0</ele><time>2026-04-11T13:51:13.974Z</time></trkpt><trkpt lat="45.8569772" lon="11.7915438"><ele>1373.0</ele><time>2026-04-11T13:51:14.963Z</time></trkpt><trkpt lat="45.8569434" lon="11.7914281"><ele>1373.0</ele><time>2026-04-11T13:51:15.963Z</time></trkpt><trkpt lat="45.8569126" lon="11.79128"><ele>1373.0</ele><time>2026-04-11T13:51:16.964Z</time></trkpt><trkpt lat="45.8568691" lon="11.7911296"><ele>1373.0</ele><time>2026-04-11T13:51:17.969Z</time></trkpt><trkpt lat="45.856844" lon="11.79099"><ele>1373.0</ele><time>2026-04-11T13:51:18.971Z</time></trkpt><trkpt lat="45.8568195" lon="11.790851"><ele>1373.0</ele><time>2026-04-11T13:51:19.975Z</time></trkpt><trkpt lat="45.8568148" lon="11.7907226"><ele>1374.1666666666667</ele><time>2026-04-11T13:51:20.974Z</time></trkpt><trkpt lat="45.8568111" lon="11.7906037"><ele>1375.3333333333335</ele><time>2026-04-11T13:51:21.968Z</time></trkpt><trkpt lat="45.8568298" lon="11.7905075"><ele>1376.5</ele><time>2026-04-11T13:51:22.977Z</time></trkpt><trkpt lat="45.8568721" lon="11.7904184"><ele>1377.6666666666667</ele><time>2026-04-11T13:51:23.971Z</time></trkpt><trkpt lat="45.8569375" lon="11.790337"><ele>1378.8333333333333</ele><time>2026-04-11T13:51:24.97Z</time></trkpt><trkpt lat="45.8570046" lon="11.7902495"><ele>1380.0</ele><time>2026-04-11T13:51:25.96Z</time></trkpt><trkpt lat="45.857078" lon="11.7901976"><ele>1378.1666666666667</ele><time>2026-04-11T13:51:26.968Z</time></trkpt><trkpt lat="45.8571456" lon="11.7901588"><ele>1376.3333333333333</ele><time>2026-04-11T13:51:27.953Z</time></trkpt><trkpt lat="45.8572162" lon="11.7901356"><ele>1374.5</ele><time>2026-04-11T13:51:28.965Z</time></trkpt><trkpt lat="45.8572795" lon="11.7901144"><ele>1372.6666666666665</ele><time>2026-04-11T13:51:29.968Z</time></trkpt><trkpt lat="45.8573422" lon="11.7900894"><ele>1370.8333333333333</ele><time>2026-04-11T13:51:30.971Z</time></trkpt><trkpt lat="45.8574208" lon="11.7899453"><ele>1369.0</ele><time>2026-04-11T13:51:32.967Z</time></trkpt><trkpt lat="45.8574375" lon="11.7898243"><ele>1369.0</ele><time>2026-04-11T13:51:33.962Z</time></trkpt><trkpt lat="45.8574446" lon="11.789687"><ele>1369.0</ele><time>2026-04-11T13:51:34.953Z</time></trkpt><trkpt lat="45.8574558" lon="11.7895412"><ele>1369.0</ele><time>2026-04-11T13:51:35.96Z</time></trkpt><trkpt lat="45.8574831" lon="11.7893909"><ele>1369.0</ele><time>2026-04-11T13:51:36.963Z</time></trkpt><trkpt lat="45.8575228" lon="11.7892397"><ele>1369.0</ele><time>2026-04-11T13:51:37.949Z</time></trkpt><trkpt lat="45.8575749" lon="11.7890832"><ele>1372.8000000000002</ele><time>2026-04-11T13:51:38.954Z</time></trkpt><trkpt lat="45.8576328" lon="11.7889429"><ele>1376.6000000000001</ele><time>2026-04-11T13:51:39.964Z</time></trkpt><trkpt lat="45.8576831" lon="11.7888186"><ele>1380.4</ele><time>2026-04-11T13:51:40.952Z</time></trkpt><trkpt lat="45.8577202" lon="11.788702"><ele>1384.2</ele><time>2026-04-11T13:51:41.958Z</time></trkpt><trkpt lat="45.8577412" lon="11.7885917"><ele>1388.0</ele><time>2026-04-11T13:51:42.966Z</time></trkpt><trkpt lat="45.857761" lon="11.7884766"><ele>1388.0</ele><time>2026-04-11T13:51:43.949Z</time></trkpt><trkpt lat="45.8577362" lon="11.7883401"><ele>1388.0</ele><time>2026-04-11T13:51:44.963Z</time></trkpt><trkpt lat="45.8576996" lon="11.7881839"><ele>1388.0</ele><time>2026-04-11T13:51:45.965Z</time></trkpt><trkpt lat="45.8576608" lon="11.7880214"><ele>1388.0</ele><time>2026-04-11T13:51:46.963Z</time></trkpt><trkpt lat="45.8576251" lon="11.7878611"><ele>1379.6000000000001</ele><time>2026-04-11T13:51:47.963Z</time></trkpt><trkpt lat="45.8575991" lon="11.7877041"><ele>1371.2</ele><time>2026-04-11T13:51:48.957Z</time></trkpt><trkpt lat="45.8575681" lon="11.7875595"><ele>1362.8</ele><time>2026-04-11T13:51:49.952Z</time></trkpt><trkpt lat="45.8575353" lon="11.7874363"><ele>1354.4</ele><time>2026-04-11T13:51:50.97Z</time></trkpt><trkpt lat="45.8575068" lon="11.7873339"><ele>1346.0</ele><time>2026-04-11T13:51:51.963Z</time></trkpt><trkpt lat="45.8574629" lon="11.7872005"><ele>1345.4</ele><time>2026-04-11T13:51:53.967Z</time></trkpt><trkpt lat="45.8574462" lon="11.7870757"><ele>1344.8</ele><time>2026-04-11T13:51:59.967Z</time></trkpt><trkpt lat="45.8574681" lon="11.7869666"><ele>1344.2</ele><time>2026-04-11T13:52:02.959Z</time></trkpt><trkpt lat="45.8574847" lon="11.7868128"><ele>1343.6000000000001</ele><time>2026-04-11T13:52:05.959Z</time></trkpt><trkpt lat="45.8574523" lon="11.7866429"><ele>1343.0</ele><time>2026-04-11T13:52:07.96Z</time></trkpt><trkpt lat="45.8574085" lon="11.7865697"><ele>1342.1666666666667</ele><time>2026-04-11T13:52:08.965Z</time></trkpt><trkpt lat="45.8573561" lon="11.786513"><ele>1341.3333333333335</ele><time>2026-04-11T13:52:09.961Z</time></trkpt><trkpt lat="45.8573033" lon="11.7864577"><ele>1340.5</ele><time>2026-04-11T13:52:10.967Z</time></trkpt><trkpt lat="45.8572564" lon="11.7863957"><ele>1339.6666666666667</ele><time>2026-04-11T13:52:11.974Z</time></trkpt><trkpt lat="45.8572083" lon="11.7863305"><ele>1338.8333333333333</ele><time>2026-04-11T13:52:12.961Z</time></trkpt><trkpt lat="45.8571861" lon="11.7862428"><ele>1338.0</ele><time>2026-04-11T13:52:13.969Z</time></trkpt><trkpt lat="45.8572299" lon="11.7860716"><ele>1336.8333333333333</ele><time>2026-04-11T13:52:15.959Z</time></trkpt><trkpt lat="45.8572663" lon="11.7859833"><ele>1335.6666666666667</ele><time>2026-04-11T13:52:16.961Z</time></trkpt><trkpt lat="45.8573288" lon="11.785889"><ele>1334.5</ele><time>2026-04-11T13:52:17.957Z</time></trkpt><trkpt lat="45.8573883" lon="11.7858043"><ele>1333.3333333333335</ele><time>2026-04-11T13:52:18.971Z</time></trkpt><trkpt lat="45.8574456" lon="11.7857184"><ele>1332.1666666666667</ele><time>2026-04-11T13:52:19.979Z</time></trkpt><trkpt lat="45.8574946" lon="11.7856276"><ele>1331.0</ele><time>2026-04-11T13:52:20.951Z</time></trkpt><trkpt lat="45.8575119" lon="11.7855173"><ele>1331.0</ele><time>2026-04-11T13:52:21.972Z</time></trkpt><trkpt lat="45.8575239" lon="11.7854094"><ele>1331.0</ele><time>2026-04-11T13:52:22.967Z</time></trkpt><trkpt lat="45.8575048" lon="11.7853018"><ele>1331.0</ele><time>2026-04-11T13:52:23.961Z</time></trkpt><trkpt lat="45.8574615" lon="11.7852105"><ele>1331.0</ele><time>2026-04-11T13:52:24.96Z</time></trkpt><trkpt lat="45.85739" lon="11.7851143"><ele>1331.0</ele><time>2026-04-11T13:52:25.956Z</time></trkpt><trkpt lat="45.8572951" lon="11.785029"><ele>1331.0</ele><time>2026-04-11T13:52:26.964Z</time></trkpt><trkpt lat="45.8571868" lon="11.7849378"><ele>1331.6</ele><time>2026-04-11T13:52:27.958Z</time></trkpt><trkpt lat="45.857082" lon="11.7848551"><ele>1332.1999999999998</ele><time>2026-04-11T13:52:28.964Z</time></trkpt><trkpt lat="45.8569778" lon="11.7847851"><ele>1332.8000000000002</ele><time>2026-04-11T13:52:29.961Z</time></trkpt><trkpt lat="45.8568811" lon="11.7847221"><ele>1333.4</ele><time>2026-04-11T13:52:30.972Z</time></trkpt><trkpt lat="45.8567837" lon="11.7846607"><ele>1334.0</ele><time>2026-04-11T13:52:31.965Z</time></trkpt><trkpt lat="45.8566925" lon="11.784606"><ele>1329.3333333333335</ele><time>2026-04-11T13:52:32.953Z</time></trkpt><trkpt lat="45.8565927" lon="11.7845687"><ele>1324.6666666666667</ele><time>2026-04-11T13:52:33.964Z</time></trkpt><trkpt lat="45.8565019" lon="11.7845646"><ele>1320.0</ele><time>2026-04-11T13:52:34.96Z</time></trkpt><trkpt lat="45.8564181" lon="11.7845688"><ele>1315.3333333333333</ele><time>2026-04-11T13:52:35.959Z</time></trkpt><trkpt lat="45.8563453" lon="11.7845391"><ele>1310.6666666666665</ele><time>2026-04-11T13:52:36.973Z</time></trkpt><trkpt lat="45.8562789" lon="11.7845081"><ele>1306.0</ele><time>2026-04-11T13:52:37.963Z</time></trkpt><trkpt lat="45.8562294" lon="11.7844293"><ele>1309.8</ele><time>2026-04-11T13:52:38.954Z</time></trkpt><trkpt lat="45.8561852" lon="11.7843264"><ele>1313.6</ele><time>2026-04-11T13:52:39.962Z</time></trkpt><trkpt lat="45.8561399" lon="11.7842195"><ele>1317.4</ele><time>2026-04-11T13:52:40.962Z</time></trkpt><trkpt lat="45.85609" lon="11.7840947"><ele>1321.2</ele><time>2026-04-11T13:52:41.952Z</time></trkpt><trkpt lat="45.8560391" lon="11.783964"><ele>1325.0</ele><time>2026-04-11T13:52:42.968Z</time></trkpt><trkpt lat="45.8559921" lon="11.7838437"><ele>1320.2</ele><time>2026-04-11T13:52:43.957Z</time></trkpt><trkpt lat="45.8559435" lon="11.7837309"><ele>1315.4</ele><time>2026-04-11T13:52:44.956Z</time></trkpt><trkpt lat="45.8558823" lon="11.7836028"><ele>1310.6</ele><time>2026-04-11T13:52:45.977Z</time></trkpt><trkpt lat="45.8558213" lon="11.7834825"><ele>1305.8</ele><time>2026-04-11T13:52:46.973Z</time></trkpt><trkpt lat="45.8557665" lon="11.7833705"><ele>1301.0</ele><time>2026-04-11T13:52:47.952Z</time></trkpt><trkpt lat="45.8557196" lon="11.783279"><ele>1301.0</ele><time>2026-04-11T13:52:48.958Z</time></trkpt><trkpt lat="45.8556782" lon="11.7832038"><ele>1301.0</ele><time>2026-04-11T13:52:49.964Z</time></trkpt><trkpt lat="45.8556145" lon="11.7831592"><ele>1301.0</ele><time>2026-04-11T13:52:50.956Z</time></trkpt><trkpt lat="45.8555417" lon="11.7831344"><ele>1301.0</ele><time>2026-04-11T13:52:51.962Z</time></trkpt><trkpt lat="45.8554773" lon="11.7831363"><ele>1301.0</ele><time>2026-04-11T13:52:52.958Z</time></trkpt><trkpt lat="45.8553848" lon="11.7832206"><ele>1301.0</ele><time>2026-04-11T13:52:54.961Z</time></trkpt><trkpt lat="45.8553457" lon="11.7832935"><ele>1301.0</ele><time>2026-04-11T13:52:55.96Z</time></trkpt><trkpt lat="45.8553057" lon="11.7833948"><ele>1301.0</ele><time>2026-04-11T13:52:56.956Z</time></trkpt><trkpt lat="45.8552694" lon="11.7835027"><ele>1301.0</ele><time>2026-04-11T13:52:57.962Z</time></trkpt><trkpt lat="45.8552388" lon="11.7836078"><ele>1301.0</ele><time>2026-04-11T13:52:58.963Z</time></trkpt><trkpt lat="45.8552145" lon="11.783706"><ele>1301.0</ele><time>2026-04-11T13:52:59.956Z</time></trkpt><trkpt lat="45.8551936" lon="11.783795"><ele>1301.0</ele><time>2026-04-11T13:53:00.956Z</time></trkpt><trkpt lat="45.8551469" lon="11.7839047"><ele>1297.0</ele><time>2026-04-11T13:53:02.972Z</time></trkpt><trkpt lat="45.8550682" lon="11.7838483"><ele>1293.0</ele><time>2026-04-11T13:53:05.959Z</time></trkpt><trkpt lat="45.8550253" lon="11.7837252"><ele>1289.0</ele><time>2026-04-11T13:53:07.959Z</time></trkpt><trkpt lat="45.8549744" lon="11.7835255"><ele>1285.0</ele><time>2026-04-11T13:53:09.954Z</time></trkpt><trkpt lat="45.8549452" lon="11.7834003"><ele>1281.0</ele><time>2026-04-11T13:53:10.953Z</time></trkpt><trkpt lat="45.8549128" lon="11.783272"><ele>1281.0</ele><time>2026-04-11T13:53:11.963Z</time></trkpt><trkpt lat="45.8548796" lon="11.7831418"><ele>1281.0</ele><time>2026-04-11T13:53:12.96Z</time></trkpt><trkpt lat="45.8548442" lon="11.7830278"><ele>1281.0</ele><time>2026-04-11T13:53:13.953Z</time></trkpt><trkpt lat="45.854798" lon="11.782907"><ele>1281.0</ele><time>2026-04-11T13:53:14.965Z</time></trkpt><trkpt lat="45.8547514" lon="11.7827896"><ele>1281.0</ele><time>2026-04-11T13:53:15.959Z</time></trkpt><trkpt lat="45.8546926" lon="11.7826901"><ele>1278.6</ele><time>2026-04-11T13:53:16.965Z</time></trkpt><trkpt lat="45.8546091" lon="11.7826208"><ele>1276.1999999999998</ele><time>2026-04-11T13:53:17.952Z</time></trkpt><trkpt lat="45.8545233" lon="11.7825497"><ele>1273.8000000000002</ele><time>2026-04-11T13:53:18.955Z</time></trkpt><trkpt lat="45.8544361" lon="11.7824791"><ele>1271.4</ele><time>2026-04-11T13:53:19.958Z</time></trkpt><trkpt lat="45.8543519" lon="11.782396"><ele>1269.0</ele><time>2026-04-11T13:53:20.963Z</time></trkpt><trkpt lat="45.8542763" lon="11.7823106"><ele>1269.0</ele><time>2026-04-11T13:53:21.966Z</time></trkpt><trkpt lat="45.8542009" lon="11.7822265"><ele>1269.0</ele><time>2026-04-11T13:53:22.952Z</time></trkpt><trkpt lat="45.8541232" lon="11.7821491"><ele>1269.0</ele><time>2026-04-11T13:53:23.954Z</time></trkpt><trkpt lat="45.8540483" lon="11.7820917"><ele>1269.0</ele><time>2026-04-11T13:53:24.957Z</time></trkpt><trkpt lat="45.8539745" lon="11.7820416"><ele>1269.0</ele><time>2026-04-11T13:53:25.957Z</time></trkpt><trkpt lat="45.8538909" lon="11.7819874"><ele>1269.0</ele><time>2026-04-11T13:53:26.954Z</time></trkpt><trkpt lat="45.8537984" lon="11.7819379"><ele>1269.0</ele><time>2026-04-11T13:53:27.966Z</time></trkpt><trkpt lat="45.8537062" lon="11.7818801"><ele>1269.0</ele><time>2026-04-11T13:53:28.968Z</time></trkpt><trkpt lat="45.8536186" lon="11.7818308"><ele>1269.0</ele><time>2026-04-11T13:53:29.969Z</time></trkpt><trkpt lat="45.8535479" lon="11.7817551"><ele>1269.0</ele><time>2026-04-11T13:53:30.968Z</time></trkpt><trkpt lat="45.8534743" lon="11.7816813"><ele>1269.0</ele><time>2026-04-11T13:53:31.964Z</time></trkpt><trkpt lat="45.8534031" lon="11.7815956"><ele>1267.8333333333333</ele><time>2026-04-11T13:53:32.959Z</time></trkpt><trkpt lat="45.8533451" lon="11.7814893"><ele>1266.6666666666667</ele><time>2026-04-11T13:53:33.958Z</time></trkpt><trkpt lat="45.8532938" lon="11.7813751"><ele>1265.5</ele><time>2026-04-11T13:53:34.96Z</time></trkpt><trkpt lat="45.8532443" lon="11.7812711"><ele>1264.3333333333335</ele><time>2026-04-11T13:53:35.952Z</time></trkpt><trkpt lat="45.8531862" lon="11.7811895"><ele>1263.1666666666667</ele><time>2026-04-11T13:53:36.957Z</time></trkpt><trkpt lat="45.8531083" lon="11.7811302"><ele>1262.0</ele><time>2026-04-11T13:53:37.953Z</time></trkpt><trkpt lat="45.8530199" lon="11.7810957"><ele>1262.0</ele><time>2026-04-11T13:53:38.959Z</time></trkpt><trkpt lat="45.8529251" lon="11.7810689"><ele>1262.0</ele><time>2026-04-11T13:53:39.959Z</time></trkpt><trkpt lat="45.8528317" lon="11.7810329"><ele>1262.0</ele><time>2026-04-11T13:53:40.954Z</time></trkpt><trkpt lat="45.8527514" lon="11.7809784"><ele>1262.0</ele><time>2026-04-11T13:53:41.954Z</time></trkpt><trkpt lat="45.8526706" lon="11.7809427"><ele>1262.0</ele><time>2026-04-11T13:53:42.958Z</time></trkpt><trkpt lat="45.8526033" lon="11.7809116"><ele>1262.0</ele><time>2026-04-11T13:53:43.957Z</time></trkpt><trkpt lat="45.8525428" lon="11.7808367"><ele>1260.0</ele><time>2026-04-11T13:53:44.959Z</time></trkpt><trkpt lat="45.8525082" lon="11.7807376"><ele>1258.0</ele><time>2026-04-11T13:53:45.957Z</time></trkpt><trkpt lat="45.8524764" lon="11.7806298"><ele>1256.0</ele><time>2026-04-11T13:53:46.951Z</time></trkpt><trkpt lat="45.8524378" lon="11.7805212"><ele>1254.0</ele><time>2026-04-11T13:53:47.954Z</time></trkpt><trkpt lat="45.852372" lon="11.7804148"><ele>1252.0</ele><time>2026-04-11T13:53:48.951Z</time></trkpt><trkpt lat="45.8522954" lon="11.7803161"><ele>1250.0</ele><time>2026-04-11T13:53:49.952Z</time></trkpt><trkpt lat="45.8522184" lon="11.7802073"><ele>1254.2</ele><time>2026-04-11T13:53:50.948Z</time></trkpt><trkpt lat="45.8521497" lon="11.7800891"><ele>1258.4</ele><time>2026-04-11T13:53:51.96Z</time></trkpt><trkpt lat="45.8520803" lon="11.7799706"><ele>1262.6</ele><time>2026-04-11T13:53:52.949Z</time></trkpt><trkpt lat="45.8520089" lon="11.7798573"><ele>1266.8</ele><time>2026-04-11T13:53:53.955Z</time></trkpt><trkpt lat="45.8519339" lon="11.7797834"><ele>1271.0</ele><time>2026-04-11T13:53:54.952Z</time></trkpt><trkpt lat="45.8518465" lon="11.7797346"><ele>1268.2857142857144</ele><time>2026-04-11T13:53:55.954Z</time></trkpt><trkpt lat="45.8517656" lon="11.7797193"><ele>1265.5714285714287</ele><time>2026-04-11T13:53:56.951Z</time></trkpt><trkpt lat="45.8516965" lon="11.7796928"><ele>1262.857142857143</ele><time>2026-04-11T13:53:57.952Z</time></trkpt><trkpt lat="45.8516398" lon="11.7796464"><ele>1260.1428571428573</ele><time>2026-04-11T13:53:58.956Z</time></trkpt><trkpt lat="45.8515936" lon="11.7795724"><ele>1257.4285714285716</ele><time>2026-04-11T13:53:59.956Z</time></trkpt><trkpt lat="45.8515637" lon="11.7794836"><ele>1254.7142857142858</ele><time>2026-04-11T13:54:00.954Z</time></trkpt><trkpt lat="45.8515436" lon="11.7793803"><ele>1252.0</ele><time>2026-04-11T13:54:01.955Z</time></trkpt><trkpt lat="45.8515092" lon="11.7792771"><ele>1252.0</ele><time>2026-04-11T13:54:02.971Z</time></trkpt><trkpt lat="45.8514411" lon="11.7791747"><ele>1252.0</ele><time>2026-04-11T13:54:03.948Z</time></trkpt><trkpt lat="45.8513459" lon="11.7790851"><ele>1252.0</ele><time>2026-04-11T13:54:04.957Z</time></trkpt><trkpt lat="45.8512634" lon="11.7789841"><ele>1252.0</ele><time>2026-04-11T13:54:05.953Z</time></trkpt><trkpt lat="45.8511973" lon="11.77888"><ele>1252.0</ele><time>2026-04-11T13:54:06.957Z</time></trkpt><trkpt lat="45.8511454" lon="11.7787802"><ele>1252.0</ele><time>2026-04-11T13:54:07.97Z</time></trkpt><trkpt lat="45.8511003" lon="11.7786687"><ele>1252.0</ele><time>2026-04-11T13:54:08.958Z</time></trkpt><trkpt lat="45.85107" lon="11.77854"><ele>1252.0</ele><time>2026-04-11T13:54:09.962Z</time></trkpt><trkpt lat="45.8510541" lon="11.7784123"><ele>1252.0</ele><time>2026-04-11T13:54:10.963Z</time></trkpt><trkpt lat="45.8510394" lon="11.778278"><ele>1252.0</ele><time>2026-04-11T13:54:11.953Z</time></trkpt><trkpt lat="45.8510277" lon="11.7781421"><ele>1254.6666666666665</ele><time>2026-04-11T13:54:12.952Z</time></trkpt><trkpt lat="45.8510152" lon="11.778026"><ele>1257.3333333333333</ele><time>2026-04-11T13:54:13.958Z</time></trkpt><trkpt lat="45.8509973" lon="11.777904"><ele>1260.0</ele><time>2026-04-11T13:54:14.949Z</time></trkpt><trkpt lat="45.8509617" lon="11.7778107"><ele>1262.6666666666667</ele><time>2026-04-11T13:54:15.948Z</time></trkpt><trkpt lat="45.8509042" lon="11.7777393"><ele>1265.3333333333335</ele><time>2026-04-11T13:54:16.952Z</time></trkpt><trkpt lat="45.8508415" lon="11.7776912"><ele>1268.0</ele><time>2026-04-11T13:54:17.948Z</time></trkpt><trkpt lat="45.8507868" lon="11.7776384"><ele>1262.857142857143</ele><time>2026-04-11T13:54:18.95Z</time></trkpt><trkpt lat="45.8507346" lon="11.7775824"><ele>1257.7142857142858</ele><time>2026-04-11T13:54:19.956Z</time></trkpt><trkpt lat="45.8506872" lon="11.7775133"><ele>1252.5714285714284</ele><time>2026-04-11T13:54:20.955Z</time></trkpt><trkpt lat="45.8506443" lon="11.7774444"><ele>1247.4285714285716</ele><time>2026-04-11T13:54:21.95Z</time></trkpt><trkpt lat="45.8506018" lon="11.7773665"><ele>1242.2857142857142</ele><time>2026-04-11T13:54:22.956Z</time></trkpt><trkpt lat="45.8505662" lon="11.7772821"><ele>1237.142857142857</ele><time>2026-04-11T13:54:23.949Z</time></trkpt><trkpt lat="45.850527" lon="11.7771853"><ele>1232.0</ele><time>2026-04-11T13:54:24.95Z</time></trkpt><trkpt lat="45.8504937" lon="11.7770713"><ele>1232.0</ele><time>2026-04-11T13:54:25.958Z</time></trkpt><trkpt lat="45.8504571" lon="11.7769399"><ele>1232.0</ele><time>2026-04-11T13:54:26.952Z</time></trkpt><trkpt lat="45.8504292" lon="11.7768105"><ele>1232.0</ele><time>2026-04-11T13:54:27.949Z</time></trkpt><trkpt lat="45.8503873" lon="11.7766729"><ele>1232.0</ele><time>2026-04-11T13:54:28.954Z</time></trkpt><trkpt lat="45.8503512" lon="11.7765332"><ele>1232.0</ele><time>2026-04-11T13:54:29.948Z</time></trkpt><trkpt lat="45.8503128" lon="11.7764102"><ele>1234.4</ele><time>2026-04-11T13:54:30.957Z</time></trkpt><trkpt lat="45.8502635" lon="11.7763"><ele>1236.8000000000002</ele><time>2026-04-11T13:54:31.954Z</time></trkpt><trkpt lat="45.850192" lon="11.7762117"><ele>1239.2</ele><time>2026-04-11T13:54:32.952Z</time></trkpt><trkpt lat="45.8501282" lon="11.7761091"><ele>1241.6000000000001</ele><time>2026-04-11T13:54:33.961Z</time></trkpt><trkpt lat="45.8500681" lon="11.7760087"><ele>1244.0</ele><time>2026-04-11T13:54:34.952Z</time></trkpt><trkpt lat="45.850014" lon="11.7758859"><ele>1236.0</ele><time>2026-04-11T13:54:35.956Z</time></trkpt><trkpt lat="45.8499685" lon="11.7757688"><ele>1228.0</ele><time>2026-04-11T13:54:36.948Z</time></trkpt><trkpt lat="45.8499342" lon="11.7756315"><ele>1220.0</ele><time>2026-04-11T13:54:37.958Z</time></trkpt><trkpt lat="45.849897" lon="11.7754983"><ele>1212.0</ele><time>2026-04-11T13:54:38.949Z</time></trkpt><trkpt lat="45.8498419" lon="11.7753732"><ele>1204.0</ele><time>2026-04-11T13:54:39.946Z</time></trkpt><trkpt lat="45.8497753" lon="11.7752563"><ele>1208.4</ele><time>2026-04-11T13:54:40.949Z</time></trkpt><trkpt lat="45.8497015" lon="11.7751602"><ele>1212.8000000000002</ele><time>2026-04-11T13:54:41.96Z</time></trkpt><trkpt lat="45.8496143" lon="11.7750703"><ele>1217.1999999999998</ele><time>2026-04-11T13:54:42.953Z</time></trkpt><trkpt lat="45.8495258" lon="11.7749833"><ele>1221.6</ele><time>2026-04-11T13:54:43.957Z</time></trkpt><trkpt lat="45.8494405" lon="11.7749029"><ele>1226.0</ele><time>2026-04-11T13:54:44.962Z</time></trkpt><trkpt lat="45.8493621" lon="11.774813"><ele>1226.0</ele><time>2026-04-11T13:54:45.948Z</time></trkpt><trkpt lat="45.8492945" lon="11.7747185"><ele>1226.0</ele><time>2026-04-11T13:54:46.953Z</time></trkpt><trkpt lat="45.8492327" lon="11.7746288"><ele>1226.0</ele><time>2026-04-11T13:54:47.951Z</time></trkpt><trkpt lat="45.8491858" lon="11.7745302"><ele>1226.0</ele><time>2026-04-11T13:54:48.95Z</time></trkpt><trkpt lat="45.8491345" lon="11.7744063"><ele>1226.0</ele><time>2026-04-11T13:54:49.945Z</time></trkpt><trkpt lat="45.8490837" lon="11.7742733"><ele>1219.8</ele><time>2026-04-11T13:54:50.948Z</time></trkpt><trkpt lat="45.8490461" lon="11.7741252"><ele>1213.6</ele><time>2026-04-11T13:54:51.954Z</time></trkpt><trkpt lat="45.8490093" lon="11.773997"><ele>1207.4</ele><time>2026-04-11T13:54:52.96Z</time></trkpt><trkpt lat="45.8489787" lon="11.7738845"><ele>1201.2</ele><time>2026-04-11T13:54:53.959Z</time></trkpt><trkpt lat="45.8489582" lon="11.7737654"><ele>1195.0</ele><time>2026-04-11T13:54:54.95Z</time></trkpt><trkpt lat="45.8489552" lon="11.7736055"><ele>1195.5</ele><time>2026-04-11T13:54:55.958Z</time></trkpt><trkpt lat="45.8489687" lon="11.7734614"><ele>1196.0</ele><time>2026-04-11T13:54:56.953Z</time></trkpt><trkpt lat="45.848977" lon="11.7733321"><ele>1196.5</ele><time>2026-04-11T13:54:57.958Z</time></trkpt><trkpt lat="45.8489868" lon="11.7732219"><ele>1197.0</ele><time>2026-04-11T13:54:58.956Z</time></trkpt><trkpt lat="45.8489806" lon="11.7731073"><ele>1197.5</ele><time>2026-04-11T13:54:59.95Z</time></trkpt><trkpt lat="45.8489918" lon="11.7730042"><ele>1198.0</ele><time>2026-04-11T13:55:00.957Z</time></trkpt><trkpt lat="45.8489606" lon="11.7728683"><ele>1198.0</ele><time>2026-04-11T13:55:02.956Z</time></trkpt><trkpt lat="45.848904" lon="11.7728119"><ele>1198.0</ele><time>2026-04-11T13:55:18.978Z</time></trkpt><trkpt lat="45.848866" lon="11.7727069"><ele>1198.0</ele><time>2026-04-11T13:55:20.978Z</time></trkpt><trkpt lat="45.8488548" lon="11.77259"><ele>1198.0</ele><time>2026-04-11T13:55:22.951Z</time></trkpt><trkpt lat="45.8488403" lon="11.772428"><ele>1198.0</ele><time>2026-04-11T13:55:24.969Z</time></trkpt><trkpt lat="45.8488235" lon="11.7723152"><ele>1198.0</ele><time>2026-04-11T13:55:25.949Z</time></trkpt><trkpt lat="45.8488106" lon="11.7721575"><ele>1198.5</ele><time>2026-04-11T13:55:26.959Z</time></trkpt><trkpt lat="45.848804" lon="11.7719282"><ele>1199.0</ele><time>2026-04-11T13:55:27.954Z</time></trkpt><trkpt lat="45.8488102" lon="11.7717182"><ele>1199.5</ele><time>2026-04-11T13:55:28.962Z</time></trkpt><trkpt lat="45.8488074" lon="11.7715391"><ele>1200.0</ele><time>2026-04-11T13:55:29.954Z</time></trkpt><trkpt lat="45.8488063" lon="11.7713706"><ele>1201.25</ele><time>2026-04-11T13:55:30.959Z</time></trkpt><trkpt lat="45.848805" lon="11.7711836"><ele>1202.5</ele><time>2026-04-11T13:55:31.951Z</time></trkpt><trkpt lat="45.8488053" lon="11.7709868"><ele>1203.75</ele><time>2026-04-11T13:55:32.953Z</time></trkpt><trkpt lat="45.8488157" lon="11.770791"><ele>1205.0</ele><time>2026-04-11T13:55:33.956Z</time></trkpt><trkpt lat="45.8488354" lon="11.7706199"><ele>1206.2</ele><time>2026-04-11T13:55:34.956Z</time></trkpt><trkpt lat="45.8488675" lon="11.7704768"><ele>1207.4</ele><time>2026-04-11T13:55:35.953Z</time></trkpt><trkpt lat="45.8489094" lon="11.7703523"><ele>1208.6</ele><time>2026-04-11T13:55:36.976Z</time></trkpt><trkpt lat="45.8489578" lon="11.7702108"><ele>1209.8</ele><time>2026-04-11T13:55:37.959Z</time></trkpt><trkpt lat="45.8490129" lon="11.7700294"><ele>1211.0</ele><time>2026-04-11T13:55:38.955Z</time></trkpt><trkpt lat="45.8490438" lon="11.7698696"><ele>1211.2</ele><time>2026-04-11T13:55:39.956Z</time></trkpt><trkpt lat="45.8490874" lon="11.7697213"><ele>1211.3999999999999</ele><time>2026-04-11T13:55:40.949Z</time></trkpt><trkpt lat="45.8491441" lon="11.7696054"><ele>1211.6</ele><time>2026-04-11T13:55:41.953Z</time></trkpt><trkpt lat="45.8492111" lon="11.769507"><ele>1211.8</ele><time>2026-04-11T13:55:42.959Z</time></trkpt><trkpt lat="45.8492868" lon="11.7694028"><ele>1212.0</ele><time>2026-04-11T13:55:44.002Z</time></trkpt><trkpt lat="45.8493728" lon="11.7692911"><ele>1212.0</ele><time>2026-04-11T13:55:44.96Z</time></trkpt><trkpt lat="45.8494495" lon="11.7692276"><ele>1212.0</ele><time>2026-04-11T13:55:45.952Z</time></trkpt><trkpt lat="45.8495847" lon="11.7691603"><ele>1212.0</ele><time>2026-04-11T13:55:46.953Z</time></trkpt><trkpt lat="45.8497231" lon="11.7690891"><ele>1212.0</ele><time>2026-04-11T13:55:47.961Z</time></trkpt><trkpt lat="45.8498851" lon="11.7690457"><ele>1222.5</ele><time>2026-04-11T13:55:48.956Z</time></trkpt><trkpt lat="45.8501846" lon="11.7689542"><ele>1233.0</ele><time>2026-04-11T13:55:50.952Z</time></trkpt><trkpt lat="45.8503297" lon="11.7689224"><ele>1233.0</ele><time>2026-04-11T13:55:51.959Z</time></trkpt><trkpt lat="45.8504718" lon="11.7688891"><ele>1233.0</ele><time>2026-04-11T13:55:52.956Z</time></trkpt><trkpt lat="45.8506179" lon="11.7688475"><ele>1233.0</ele><time>2026-04-11T13:55:53.956Z</time></trkpt><trkpt lat="45.8507331" lon="11.768803"><ele>1233.0</ele><time>2026-04-11T13:55:54.959Z</time></trkpt><trkpt lat="45.8508097" lon="11.7687569"><ele>1233.0</ele><time>2026-04-11T13:55:55.952Z</time></trkpt><trkpt lat="45.8508601" lon="11.7686938"><ele>1233.0</ele><time>2026-04-11T13:55:56.955Z</time></trkpt><trkpt lat="45.8509085" lon="11.7686283"><ele>1233.0</ele><time>2026-04-11T13:55:57.96Z</time></trkpt><trkpt lat="45.8509057" lon="11.7685347"><ele>1233.0</ele><time>2026-04-11T13:55:58.966Z</time></trkpt><trkpt lat="45.8508964" lon="11.768439"><ele>1233.0</ele><time>2026-04-11T13:55:59.957Z</time></trkpt><trkpt lat="45.8508449" lon="11.7683462"><ele>1233.0</ele><time>2026-04-11T13:56:00.957Z</time></trkpt><trkpt lat="45.8507629" lon="11.7682607"><ele>1231.8</ele><time>2026-04-11T13:56:01.96Z</time></trkpt><trkpt lat="45.8506852" lon="11.7681896"><ele>1230.6</ele><time>2026-04-11T13:56:02.955Z</time></trkpt><trkpt lat="45.8506206" lon="11.7681139"><ele>1229.4</ele><time>2026-04-11T13:56:03.956Z</time></trkpt><trkpt lat="45.850575" lon="11.7680184"><ele>1228.2</ele><time>2026-04-11T13:56:04.955Z</time></trkpt><trkpt lat="45.8505352" lon="11.767898"><ele>1227.0</ele><time>2026-04-11T13:56:05.963Z</time></trkpt><trkpt lat="45.8504822" lon="11.7677663"><ele>1230.0</ele><time>2026-04-11T13:56:06.956Z</time></trkpt><trkpt lat="45.850435" lon="11.7676218"><ele>1233.0</ele><time>2026-04-11T13:56:07.965Z</time></trkpt><trkpt lat="45.8503874" lon="11.7674946"><ele>1236.0</ele><time>2026-04-11T13:56:08.953Z</time></trkpt><trkpt lat="45.8503593" lon="11.7673519"><ele>1239.0</ele><time>2026-04-11T13:56:09.956Z</time></trkpt><trkpt lat="45.8503533" lon="11.7672031"><ele>1242.0</ele><time>2026-04-11T13:56:10.952Z</time></trkpt><trkpt lat="45.850367" lon="11.7670739"><ele>1242.0</ele><time>2026-04-11T13:56:11.958Z</time></trkpt><trkpt lat="45.8504041" lon="11.7669624"><ele>1242.0</ele><time>2026-04-11T13:56:12.958Z</time></trkpt><trkpt lat="45.8504422" lon="11.7668456"><ele>1242.0</ele><time>2026-04-11T13:56:13.951Z</time></trkpt><trkpt lat="45.8504941" lon="11.7667262"><ele>1242.0</ele><time>2026-04-11T13:56:14.955Z</time></trkpt><trkpt lat="45.8505599" lon="11.7666136"><ele>1242.0</ele><time>2026-04-11T13:56:15.956Z</time></trkpt><trkpt lat="45.8506295" lon="11.766497"><ele>1241.4</ele><time>2026-04-11T13:56:16.951Z</time></trkpt><trkpt lat="45.8507113" lon="11.7663715"><ele>1240.8000000000002</ele><time>2026-04-11T13:56:17.955Z</time></trkpt><trkpt lat="45.8507889" lon="11.7662664"><ele>1240.2</ele><time>2026-04-11T13:56:18.957Z</time></trkpt><trkpt lat="45.8508417" lon="11.7661815"><ele>1239.6000000000001</ele><time>2026-04-11T13:56:19.959Z</time></trkpt><trkpt lat="45.850897" lon="11.7661301"><ele>1239.0</ele><time>2026-04-11T13:56:20.96Z</time></trkpt><trkpt lat="45.8509703" lon="11.7660891"><ele>1239.8</ele><time>2026-04-11T13:56:21.958Z</time></trkpt><trkpt lat="45.8510402" lon="11.7660582"><ele>1240.6000000000001</ele><time>2026-04-11T13:56:22.955Z</time></trkpt><trkpt lat="45.8511483" lon="11.7660428"><ele>1241.4</ele><time>2026-04-11T13:56:23.951Z</time></trkpt><trkpt lat="45.8512647" lon="11.7660212"><ele>1242.2</ele><time>2026-04-11T13:56:24.964Z</time></trkpt><trkpt lat="45.8513733" lon="11.7659908"><ele>1243.0</ele><time>2026-04-11T13:56:25.96Z</time></trkpt><trkpt lat="45.8514838" lon="11.7659232"><ele>1243.0</ele><time>2026-04-11T13:56:26.963Z</time></trkpt><trkpt lat="45.8515776" lon="11.7658346"><ele>1243.0</ele><time>2026-04-11T13:56:27.976Z</time></trkpt><trkpt lat="45.8516645" lon="11.7657517"><ele>1243.0</ele><time>2026-04-11T13:56:28.964Z</time></trkpt><trkpt lat="45.8517172" lon="11.7656711"><ele>1243.0</ele><time>2026-04-11T13:56:29.96Z</time></trkpt><trkpt lat="45.8517303" lon="11.7654959"><ele>1243.0</ele><time>2026-04-11T13:56:31.964Z</time></trkpt><trkpt lat="45.85168" lon="11.7653158"><ele>1243.0</ele><time>2026-04-11T13:56:33.961Z</time></trkpt><trkpt lat="45.8516292" lon="11.7652329"><ele>1243.0</ele><time>2026-04-11T13:56:34.957Z</time></trkpt><trkpt lat="45.8515895" lon="11.765153"><ele>1243.0</ele><time>2026-04-11T13:56:35.958Z</time></trkpt><trkpt lat="45.8515226" lon="11.7650284"><ele>1243.0</ele><time>2026-04-11T13:56:37.953Z</time></trkpt><trkpt lat="45.8515023" lon="11.7649227"><ele>1243.0</ele><time>2026-04-11T13:56:39.959Z</time></trkpt><trkpt lat="45.8515665" lon="11.7648974"><ele>1243.0</ele><time>2026-04-11T13:56:42.965Z</time></trkpt><trkpt lat="45.8516434" lon="11.7650272"><ele>1243.0</ele><time>2026-04-11T13:56:44.958Z</time></trkpt><trkpt lat="45.8517058" lon="11.7651305"><ele>1243.0</ele><time>2026-04-11T13:56:46.037Z</time></trkpt><trkpt lat="45.851769" lon="11.7652026"><ele>1243.0</ele><time>2026-04-11T13:56:46.962Z</time></trkpt><trkpt lat="45.8518275" lon="11.7652457"><ele>1243.0</ele><time>2026-04-11T13:56:47.954Z</time></trkpt><trkpt lat="45.8518918" lon="11.765268"><ele>1243.0</ele><time>2026-04-11T13:56:48.96Z</time></trkpt><trkpt lat="45.851961" lon="11.7652636"><ele>1243.0</ele><time>2026-04-11T13:56:49.966Z</time></trkpt><trkpt lat="45.8520433" lon="11.7652418"><ele>1244.1666666666665</ele><time>2026-04-11T13:56:50.964Z</time></trkpt><trkpt lat="45.8521318" lon="11.7652161"><ele>1245.3333333333333</ele><time>2026-04-11T13:56:51.963Z</time></trkpt><trkpt lat="45.8522244" lon="11.7651865"><ele>1246.5</ele><time>2026-04-11T13:56:52.962Z</time></trkpt><trkpt lat="45.8523117" lon="11.7651646"><ele>1247.6666666666667</ele><time>2026-04-11T13:56:53.964Z</time></trkpt><trkpt lat="45.8523931" lon="11.7651432"><ele>1248.8333333333335</ele><time>2026-04-11T13:56:54.97Z</time></trkpt><trkpt lat="45.8524674" lon="11.765133"><ele>1250.0</ele><time>2026-04-11T13:56:55.963Z</time></trkpt><trkpt lat="45.8525494" lon="11.7651452"><ele>1248.6</ele><time>2026-04-11T13:56:56.96Z</time></trkpt><trkpt lat="45.8526447" lon="11.7651646"><ele>1247.2</ele><time>2026-04-11T13:56:57.969Z</time></trkpt><trkpt lat="45.852736" lon="11.7651837"><ele>1245.8</ele><time>2026-04-11T13:56:58.969Z</time></trkpt><trkpt lat="45.852827" lon="11.765214"><ele>1244.4</ele><time>2026-04-11T13:56:59.962Z</time></trkpt><trkpt lat="45.8529174" lon="11.7652581"><ele>1243.0</ele><time>2026-04-11T13:57:00.967Z</time></trkpt><trkpt lat="45.8530074" lon="11.7653116"><ele>1241.8</ele><time>2026-04-11T13:57:01.967Z</time></trkpt><trkpt lat="45.8530986" lon="11.7653659"><ele>1240.6</ele><time>2026-04-11T13:57:02.962Z</time></trkpt><trkpt lat="45.8531831" lon="11.7654154"><ele>1239.4</ele><time>2026-04-11T13:57:03.964Z</time></trkpt><trkpt lat="45.8532621" lon="11.7654631"><ele>1238.2</ele><time>2026-04-11T13:57:04.963Z</time></trkpt><trkpt lat="45.8533245" lon="11.7655004"><ele>1237.0</ele><time>2026-04-11T13:57:05.97Z</time></trkpt><trkpt lat="45.8534517" lon="11.765523"><ele>1236.0</ele><time>2026-04-11T13:57:07.952Z</time></trkpt><trkpt lat="45.8535327" lon="11.7655151"><ele>1235.0</ele><time>2026-04-11T13:57:08.969Z</time></trkpt><trkpt lat="45.853623" lon="11.7654958"><ele>1234.0</ele><time>2026-04-11T13:57:09.964Z</time></trkpt><trkpt lat="45.8537155" lon="11.7654701"><ele>1233.0</ele><time>2026-04-11T13:57:10.956Z</time></trkpt><trkpt lat="45.8537961" lon="11.7654456"><ele>1232.0</ele><time>2026-04-11T13:57:11.98Z</time></trkpt><trkpt lat="45.8538564" lon="11.7654196"><ele>1231.0</ele><time>2026-04-11T13:57:12.963Z</time></trkpt><trkpt lat="45.8539455" lon="11.7653498"><ele>1232.2</ele><time>2026-04-11T13:57:14.956Z</time></trkpt><trkpt lat="45.8539537" lon="11.7651554"><ele>1233.3999999999999</ele><time>2026-04-11T13:57:16.956Z</time></trkpt><trkpt lat="45.8539619" lon="11.7650568"><ele>1234.6</ele><time>2026-04-11T13:57:17.959Z</time></trkpt><trkpt lat="45.8540191" lon="11.7649148"><ele>1235.8</ele><time>2026-04-11T13:57:19.955Z</time></trkpt><trkpt lat="45.8540883" lon="11.764888"><ele>1237.0</ele><time>2026-04-11T13:57:20.958Z</time></trkpt><trkpt lat="45.8541607" lon="11.7648684"><ele>1237.0</ele><time>2026-04-11T13:57:21.96Z</time></trkpt><trkpt lat="45.8542527" lon="11.7648786"><ele>1237.0</ele><time>2026-04-11T13:57:22.968Z</time></trkpt><trkpt lat="45.854356" lon="11.7648975"><ele>1237.0</ele><time>2026-04-11T13:57:23.96Z</time></trkpt><trkpt lat="45.8544722" lon="11.7649146"><ele>1237.0</ele><time>2026-04-11T13:57:24.963Z</time></trkpt><trkpt lat="45.8545862" lon="11.764935"><ele>1237.0</ele><time>2026-04-11T13:57:25.953Z</time></trkpt><trkpt lat="45.8546998" lon="11.7649742"><ele>1234.75</ele><time>2026-04-11T13:57:26.959Z</time></trkpt><trkpt lat="45.8548055" lon="11.7650205"><ele>1232.5</ele><time>2026-04-11T13:57:27.965Z</time></trkpt><trkpt lat="45.8549141" lon="11.7650679"><ele>1230.25</ele><time>2026-04-11T13:57:28.966Z</time></trkpt><trkpt lat="45.8550231" lon="11.7651168"><ele>1228.0</ele><time>2026-04-11T13:57:29.961Z</time></trkpt><trkpt lat="45.8551349" lon="11.7651629"><ele>1226.0</ele><time>2026-04-11T13:57:30.954Z</time></trkpt><trkpt lat="45.8552425" lon="11.7652048"><ele>1224.0</ele><time>2026-04-11T13:57:31.962Z</time></trkpt><trkpt lat="45.8553434" lon="11.7652368"><ele>1222.0</ele><time>2026-04-11T13:57:32.958Z</time></trkpt><trkpt lat="45.8554481" lon="11.7652447"><ele>1220.0</ele><time>2026-04-11T13:57:33.955Z</time></trkpt><trkpt lat="45.8555579" lon="11.7652259"><ele>1218.0</ele><time>2026-04-11T13:57:34.97Z</time></trkpt><trkpt lat="45.8556576" lon="11.7651779"><ele>1218.0</ele><time>2026-04-11T13:57:35.956Z</time></trkpt><trkpt lat="45.8557429" lon="11.7651212"><ele>1218.0</ele><time>2026-04-11T13:57:36.96Z</time></trkpt><trkpt lat="45.8558291" lon="11.765076"><ele>1218.0</ele><time>2026-04-11T13:57:37.961Z</time></trkpt><trkpt lat="45.8559244" lon="11.7650456"><ele>1218.0</ele><time>2026-04-11T13:57:38.951Z</time></trkpt><trkpt lat="45.8560265" lon="11.7650513"><ele>1218.0</ele><time>2026-04-11T13:57:39.961Z</time></trkpt><trkpt lat="45.8561169" lon="11.7650575"><ele>1216.3333333333333</ele><time>2026-04-11T13:57:40.967Z</time></trkpt><trkpt lat="45.8561975" lon="11.7650861"><ele>1214.6666666666667</ele><time>2026-04-11T13:57:41.973Z</time></trkpt><trkpt lat="45.8562608" lon="11.7650956"><ele>1213.0</ele><time>2026-04-11T13:57:42.958Z</time></trkpt><trkpt lat="45.8562613" lon="11.7652033"><ele>1211.3333333333335</ele><time>2026-04-11T13:57:45.959Z</time></trkpt><trkpt lat="45.85615" lon="11.7652587"><ele>1209.6666666666667</ele><time>2026-04-11T13:57:47.961Z</time></trkpt><trkpt lat="45.8560678" lon="11.7652761"><ele>1208.0</ele><time>2026-04-11T13:57:48.958Z</time></trkpt><trkpt lat="45.8559537" lon="11.7653088"><ele>1208.25</ele><time>2026-04-11T13:57:49.962Z</time></trkpt><trkpt lat="45.8558461" lon="11.7653776"><ele>1208.5</ele><time>2026-04-11T13:57:50.959Z</time></trkpt><trkpt lat="45.8557336" lon="11.7654471"><ele>1208.75</ele><time>2026-04-11T13:57:51.954Z</time></trkpt><trkpt lat="45.8556254" lon="11.7655117"><ele>1209.0</ele><time>2026-04-11T13:57:52.956Z</time></trkpt><trkpt lat="45.8555241" lon="11.7655648"><ele>1209.0</ele><time>2026-04-11T13:57:53.959Z</time></trkpt><trkpt lat="45.8554374" lon="11.7656076"><ele>1209.0</ele><time>2026-04-11T13:57:54.96Z</time></trkpt><trkpt lat="45.8553591" lon="11.7656405"><ele>1209.0</ele><time>2026-04-11T13:57:55.968Z</time></trkpt><trkpt lat="45.8552955" lon="11.7656616"><ele>1209.0</ele><time>2026-04-11T13:57:56.969Z</time></trkpt><trkpt lat="45.8551912" lon="11.7657177"><ele>1209.0</ele><time>2026-04-11T13:57:58.959Z</time></trkpt><trkpt lat="45.8551824" lon="11.7658601"><ele>1209.0</ele><time>2026-04-11T13:58:00.962Z</time></trkpt><trkpt lat="45.8552694" lon="11.7659685"><ele>1209.0</ele><time>2026-04-11T13:58:02.952Z</time></trkpt><trkpt lat="45.8553467" lon="11.7660016"><ele>1209.0</ele><time>2026-04-11T13:58:03.961Z</time></trkpt><trkpt lat="45.8554418" lon="11.7660218"><ele>1209.0</ele><time>2026-04-11T13:58:04.961Z</time></trkpt><trkpt lat="45.8555394" lon="11.766037"><ele>1209.0</ele><time>2026-04-11T13:58:05.955Z</time></trkpt><trkpt lat="45.8556455" lon="11.7660418"><ele>1209.0</ele><time>2026-04-11T13:58:06.954Z</time></trkpt><trkpt lat="45.8557596" lon="11.7660046"><ele>1209.0</ele><time>2026-04-11T13:58:07.958Z</time></trkpt><trkpt lat="45.8558771" lon="11.7659629"><ele>1209.0</ele><time>2026-04-11T13:58:08.962Z</time></trkpt><trkpt lat="45.8559861" lon="11.7659118"><ele>1209.0</ele><time>2026-04-11T13:58:09.96Z</time></trkpt><trkpt lat="45.8560848" lon="11.7658726"><ele>1209.0</ele><time>2026-04-11T13:58:10.96Z</time></trkpt><trkpt lat="45.8561836" lon="11.7658326"><ele>1209.0</ele><time>2026-04-11T13:58:11.953Z</time></trkpt><trkpt lat="45.8562859" lon="11.7658083"><ele>1207.4</ele><time>2026-04-11T13:58:12.956Z</time></trkpt><trkpt lat="45.8564008" lon="11.7658043"><ele>1205.8000000000002</ele><time>2026-04-11T13:58:13.961Z</time></trkpt><trkpt lat="45.8565082" lon="11.7658106"><ele>1204.1999999999998</ele><time>2026-04-11T13:58:14.966Z</time></trkpt><trkpt lat="45.8566114" lon="11.7658117"><ele>1202.6</ele><time>2026-04-11T13:58:15.963Z</time></trkpt><trkpt lat="45.8567217" lon="11.7657832"><ele>1201.0</ele><time>2026-04-11T13:58:16.963Z</time></trkpt><trkpt lat="45.856837" lon="11.7657309"><ele>1201.0</ele><time>2026-04-11T13:58:17.956Z</time></trkpt><trkpt lat="45.8569626" lon="11.7656415"><ele>1201.0</ele><time>2026-04-11T13:58:18.957Z</time></trkpt><trkpt lat="45.8570764" lon="11.7655514"><ele>1201.0</ele><time>2026-04-11T13:58:19.96Z</time></trkpt><trkpt lat="45.8571807" lon="11.7654615"><ele>1201.0</ele><time>2026-04-11T13:58:20.959Z</time></trkpt><trkpt lat="45.8572691" lon="11.7653581"><ele>1201.0</ele><time>2026-04-11T13:58:21.971Z</time></trkpt><trkpt lat="45.8573515" lon="11.7652635"><ele>1201.0</ele><time>2026-04-11T13:58:22.956Z</time></trkpt><trkpt lat="45.8574358" lon="11.765175"><ele>1201.0</ele><time>2026-04-11T13:58:23.955Z</time></trkpt><trkpt lat="45.8574959" lon="11.7650604"><ele>1201.0</ele><time>2026-04-11T13:58:24.955Z</time></trkpt><trkpt lat="45.8575536" lon="11.7649552"><ele>1201.0</ele><time>2026-04-11T13:58:25.954Z</time></trkpt><trkpt lat="45.857617" lon="11.7648775"><ele>1200.8333333333333</ele><time>2026-04-11T13:58:26.953Z</time></trkpt><trkpt lat="45.8576919" lon="11.7648139"><ele>1200.6666666666665</ele><time>2026-04-11T13:58:27.958Z</time></trkpt><trkpt lat="45.8577795" lon="11.7647885"><ele>1200.5</ele><time>2026-04-11T13:58:28.955Z</time></trkpt><trkpt lat="45.8578642" lon="11.7647641"><ele>1200.3333333333333</ele><time>2026-04-11T13:58:29.952Z</time></trkpt><trkpt lat="45.8579549" lon="11.7647389"><ele>1200.1666666666667</ele><time>2026-04-11T13:58:30.959Z</time></trkpt><trkpt lat="45.8580448" lon="11.7647115"><ele>1200.0</ele><time>2026-04-11T13:58:31.967Z</time></trkpt><trkpt lat="45.8581136" lon="11.764641"><ele>1200.0</ele><time>2026-04-11T13:58:32.973Z</time></trkpt><trkpt lat="45.8581668" lon="11.7645627"><ele>1200.0</ele><time>2026-04-11T13:58:33.967Z</time></trkpt><trkpt lat="45.8581909" lon="11.7644616"><ele>1200.0</ele><time>2026-04-11T13:58:34.957Z</time></trkpt><trkpt lat="45.8582022" lon="11.7643511"><ele>1200.0</ele><time>2026-04-11T13:58:35.967Z</time></trkpt><trkpt lat="45.8582366" lon="11.7642514"><ele>1200.0</ele><time>2026-04-11T13:58:36.963Z</time></trkpt><trkpt lat="45.8582844" lon="11.7641544"><ele>1200.0</ele><time>2026-04-11T13:58:37.975Z</time></trkpt><trkpt lat="45.8583373" lon="11.7640509"><ele>1199.2</ele><time>2026-04-11T13:58:38.97Z</time></trkpt><trkpt lat="45.8583956" lon="11.7639459"><ele>1198.4</ele><time>2026-04-11T13:58:39.952Z</time></trkpt><trkpt lat="45.8584476" lon="11.7638123"><ele>1197.6</ele><time>2026-04-11T13:58:40.962Z</time></trkpt><trkpt lat="45.8585074" lon="11.7636808"><ele>1196.8</ele><time>2026-04-11T13:58:41.957Z</time></trkpt><trkpt lat="45.8585739" lon="11.7635479"><ele>1196.0</ele><time>2026-04-11T13:58:42.976Z</time></trkpt><trkpt lat="45.8586501" lon="11.7634212"><ele>1198.25</ele><time>2026-04-11T13:58:43.949Z</time></trkpt><trkpt lat="45.8587271" lon="11.7632961"><ele>1200.5</ele><time>2026-04-11T13:58:44.972Z</time></trkpt><trkpt lat="45.8588025" lon="11.7631557"><ele>1202.75</ele><time>2026-04-11T13:58:45.968Z</time></trkpt><trkpt lat="45.8588823" lon="11.7630286"><ele>1205.0</ele><time>2026-04-11T13:58:46.961Z</time></trkpt><trkpt lat="45.8589603" lon="11.7629056"><ele>1205.0</ele><time>2026-04-11T13:58:47.957Z</time></trkpt><trkpt lat="45.8590469" lon="11.7627898"><ele>1205.0</ele><time>2026-04-11T13:58:48.963Z</time></trkpt><trkpt lat="45.8591211" lon="11.7626627"><ele>1205.0</ele><time>2026-04-11T13:58:49.961Z</time></trkpt><trkpt lat="45.8591658" lon="11.7625424"><ele>1205.0</ele><time>2026-04-11T13:58:50.968Z</time></trkpt><trkpt lat="45.8592033" lon="11.7624536"><ele>1205.0</ele><time>2026-04-11T13:58:51.96Z</time></trkpt><trkpt lat="45.8592614" lon="11.7623748"><ele>1206.4</ele><time>2026-04-11T13:58:52.96Z</time></trkpt><trkpt lat="45.8593361" lon="11.7623006"><ele>1207.8</ele><time>2026-04-11T13:58:53.965Z</time></trkpt><trkpt lat="45.8594082" lon="11.7622102"><ele>1209.2</ele><time>2026-04-11T13:58:54.969Z</time></trkpt><trkpt lat="45.8594467" lon="11.7620864"><ele>1210.6</ele><time>2026-04-11T13:58:55.957Z</time></trkpt><trkpt lat="45.8594796" lon="11.7619582"><ele>1212.0</ele><time>2026-04-11T13:58:56.957Z</time></trkpt><trkpt lat="45.8595039" lon="11.7618375"><ele>1212.0</ele><time>2026-04-11T13:58:57.967Z</time></trkpt><trkpt lat="45.8595346" lon="11.7617424"><ele>1212.0</ele><time>2026-04-11T13:58:58.963Z</time></trkpt><trkpt lat="45.8595787" lon="11.7616654"><ele>1212.0</ele><time>2026-04-11T13:58:59.963Z</time></trkpt><trkpt lat="45.8596403" lon="11.7616156"><ele>1212.0</ele><time>2026-04-11T13:59:00.956Z</time></trkpt><trkpt lat="45.8597184" lon="11.7616052"><ele>1212.0</ele><time>2026-04-11T13:59:01.962Z</time></trkpt><trkpt lat="45.8598016" lon="11.76161"><ele>1212.0</ele><time>2026-04-11T13:59:02.964Z</time></trkpt><trkpt lat="45.8598753" lon="11.7616141"><ele>1212.0</ele><time>2026-04-11T13:59:03.966Z</time></trkpt><trkpt lat="45.8599425" lon="11.7615981"><ele>1212.0</ele><time>2026-04-11T13:59:04.959Z</time></trkpt><trkpt lat="45.8600077" lon="11.7615263"><ele>1212.0</ele><time>2026-04-11T13:59:06.962Z</time></trkpt><trkpt lat="45.859968" lon="11.7614464"><ele>1212.0</ele><time>2026-04-11T13:59:07.972Z</time></trkpt><trkpt lat="45.85992" lon="11.7613689"><ele>1212.0</ele><time>2026-04-11T13:59:08.97Z</time></trkpt><trkpt lat="45.8598534" lon="11.7613217"><ele>1212.0</ele><time>2026-04-11T13:59:09.963Z</time></trkpt><trkpt lat="45.8597992" lon="11.761243"><ele>1212.0</ele><time>2026-04-11T13:59:10.953Z</time></trkpt><trkpt lat="45.8597814" lon="11.7611165"><ele>1214.75</ele><time>2026-04-11T13:59:11.968Z</time></trkpt><trkpt lat="45.8597628" lon="11.7609649"><ele>1217.5</ele><time>2026-04-11T13:59:12.97Z</time></trkpt><trkpt lat="45.8597786" lon="11.7607853"><ele>1220.25</ele><time>2026-04-11T13:59:13.967Z</time></trkpt><trkpt lat="45.8597838" lon="11.7606137"><ele>1223.0</ele><time>2026-04-11T13:59:14.956Z</time></trkpt><trkpt lat="45.8597888" lon="11.7604365"><ele>1223.0</ele><time>2026-04-11T13:59:15.967Z</time></trkpt><trkpt lat="45.8597616" lon="11.7602397"><ele>1223.0</ele><time>2026-04-11T13:59:16.968Z</time></trkpt><trkpt lat="45.8597166" lon="11.7600364"><ele>1223.0</ele><time>2026-04-11T13:59:17.967Z</time></trkpt><trkpt lat="45.859669" lon="11.7598465"><ele>1223.0</ele><time>2026-04-11T13:59:18.966Z</time></trkpt><trkpt lat="45.8596281" lon="11.7596546"><ele>1224.8</ele><time>2026-04-11T13:59:19.954Z</time></trkpt><trkpt lat="45.8595897" lon="11.7594789"><ele>1226.6</ele><time>2026-04-11T13:59:20.961Z</time></trkpt><trkpt lat="45.8595578" lon="11.7593277"><ele>1228.4</ele><time>2026-04-11T13:59:21.961Z</time></trkpt><trkpt lat="45.8595382" lon="11.7591898"><ele>1230.2</ele><time>2026-04-11T13:59:22.951Z</time></trkpt><trkpt lat="45.8595169" lon="11.7590692"><ele>1232.0</ele><time>2026-04-11T13:59:23.965Z</time></trkpt><trkpt lat="45.8594785" lon="11.7589598"><ele>1234.0</ele><time>2026-04-11T13:59:24.96Z</time></trkpt><trkpt lat="45.8594324" lon="11.7588518"><ele>1236.0</ele><time>2026-04-11T13:59:26.962Z</time></trkpt><trkpt lat="45.8595121" lon="11.7588673"><ele>1238.0</ele><time>2026-04-11T13:59:32.961Z</time></trkpt><trkpt lat="45.8595516" lon="11.7589437"><ele>1240.0</ele><time>2026-04-11T13:59:33.975Z</time></trkpt><trkpt lat="45.8596026" lon="11.7590571"><ele>1242.0</ele><time>2026-04-11T13:59:34.966Z</time></trkpt><trkpt lat="45.8596604" lon="11.7591797"><ele>1244.0</ele><time>2026-04-11T13:59:35.956Z</time></trkpt><trkpt lat="45.8597212" lon="11.7593275"><ele>1240.0</ele><time>2026-04-11T13:59:36.971Z</time></trkpt><trkpt lat="45.8597985" lon="11.7595007"><ele>1236.0</ele><time>2026-04-11T13:59:37.965Z</time></trkpt><trkpt lat="45.8598862" lon="11.7596781"><ele>1232.0</ele><time>2026-04-11T13:59:38.964Z</time></trkpt><trkpt lat="45.8599686" lon="11.7598741"><ele>1232.0</ele><time>2026-04-11T13:59:39.961Z</time></trkpt><trkpt lat="45.8600327" lon="11.7600798"><ele>1232.0</ele><time>2026-04-11T13:59:40.956Z</time></trkpt><trkpt lat="45.8601052" lon="11.7602837"><ele>1232.0</ele><time>2026-04-11T13:59:41.966Z</time></trkpt><trkpt lat="45.860199" lon="11.7604706"><ele>1236.6666666666667</ele><time>2026-04-11T13:59:42.956Z</time></trkpt><trkpt lat="45.8602993" lon="11.7606598"><ele>1241.3333333333333</ele><time>2026-04-11T13:59:43.963Z</time></trkpt><trkpt lat="45.8604185" lon="11.7608058"><ele>1246.0</ele><time>2026-04-11T13:59:44.957Z</time></trkpt><trkpt lat="45.8605165" lon="11.7609379"><ele>1249.0</ele><time>2026-04-11T13:59:45.966Z</time></trkpt><trkpt lat="45.8606072" lon="11.7610386"><ele>1252.0</ele><time>2026-04-11T13:59:46.957Z</time></trkpt><trkpt lat="45.8607391" lon="11.761082"><ele>1255.0</ele><time>2026-04-11T13:59:47.955Z</time></trkpt><trkpt lat="45.8608893" lon="11.7610452"><ele>1258.0</ele><time>2026-04-11T13:59:48.962Z</time></trkpt><trkpt lat="45.8610327" lon="11.7610172"><ele>1258.0</ele><time>2026-04-11T13:59:49.95Z</time></trkpt><trkpt lat="45.861174" lon="11.7609831"><ele>1258.0</ele><time>2026-04-11T13:59:50.953Z</time></trkpt><trkpt lat="45.8613231" lon="11.7610023"><ele>1258.0</ele><time>2026-04-11T13:59:51.96Z</time></trkpt><trkpt lat="45.8614539" lon="11.7610301"><ele>1258.0</ele><time>2026-04-11T13:59:52.953Z</time></trkpt><trkpt lat="45.8615594" lon="11.7610979"><ele>1256.5</ele><time>2026-04-11T13:59:53.955Z</time></trkpt><trkpt lat="45.8616387" lon="11.7612468"><ele>1255.0</ele><time>2026-04-11T13:59:54.963Z</time></trkpt><trkpt lat="45.86167" lon="11.7614116"><ele>1253.5</ele><time>2026-04-11T13:59:55.953Z</time></trkpt><trkpt lat="45.8617478" lon="11.7614916"><ele>1252.0</ele><time>2026-04-11T13:59:56.958Z</time></trkpt><trkpt lat="45.8618626" lon="11.7615526"><ele>1252.0</ele><time>2026-04-11T13:59:57.957Z</time></trkpt><trkpt lat="45.8620129" lon="11.7615388"><ele>1252.0</ele><time>2026-04-11T13:59:58.965Z</time></trkpt><trkpt lat="45.8621649" lon="11.761489"><ele>1252.0</ele><time>2026-04-11T13:59:59.949Z</time></trkpt><trkpt lat="45.8623047" lon="11.76148"><ele>1252.0</ele><time>2026-04-11T14:00:00.955Z</time></trkpt><trkpt lat="45.862438" lon="11.7615506"><ele>1252.0</ele><time>2026-04-11T14:00:02.01Z</time></trkpt><trkpt lat="45.8625298" lon="11.7617227"><ele>1252.0</ele><time>2026-04-11T14:00:03.004Z</time></trkpt><trkpt lat="45.8626521" lon="11.7618378"><ele>1252.0</ele><time>2026-04-11T14:00:03.959Z</time></trkpt><trkpt lat="45.8627998" lon="11.7619421"><ele>1255.75</ele><time>2026-04-11T14:00:04.956Z</time></trkpt><trkpt lat="45.8629297" lon="11.7620358"><ele>1259.5</ele><time>2026-04-11T14:00:05.959Z</time></trkpt><trkpt lat="45.863033" lon="11.7621281"><ele>1263.25</ele><time>2026-04-11T14:00:06.962Z</time></trkpt><trkpt lat="45.8630969" lon="11.7622608"><ele>1267.0</ele><time>2026-04-11T14:00:07.963Z</time></trkpt><trkpt lat="45.8631293" lon="11.7624402"><ele>1267.0</ele><time>2026-04-11T14:00:08.957Z</time></trkpt><trkpt lat="45.863165" lon="11.7626554"><ele>1267.0</ele><time>2026-04-11T14:00:09.955Z</time></trkpt><trkpt lat="45.8632169" lon="11.7628945"><ele>1267.0</ele><time>2026-04-11T14:00:10.956Z</time></trkpt><trkpt lat="45.8632941" lon="11.7631098"><ele>1265.75</ele><time>2026-04-11T14:00:11.968Z</time></trkpt><trkpt lat="45.8633662" lon="11.7632955"><ele>1264.5</ele><time>2026-04-11T14:00:12.954Z</time></trkpt><trkpt lat="45.8634539" lon="11.7634147"><ele>1263.25</ele><time>2026-04-11T14:00:13.965Z</time></trkpt><trkpt lat="45.8635883" lon="11.763463"><ele>1262.0</ele><time>2026-04-11T14:00:14.952Z</time></trkpt><trkpt lat="45.8637272" lon="11.7634877"><ele>1265.6666666666667</ele><time>2026-04-11T14:00:15.955Z</time></trkpt><trkpt lat="45.8638873" lon="11.7635089"><ele>1269.3333333333333</ele><time>2026-04-11T14:00:16.956Z</time></trkpt><trkpt lat="45.8640346" lon="11.7635326"><ele>1273.0</ele><time>2026-04-11T14:00:17.962Z</time></trkpt><trkpt lat="45.8641533" lon="11.763644"><ele>1273.0</ele><time>2026-04-11T14:00:18.959Z</time></trkpt><trkpt lat="45.8642371" lon="11.7638221"><ele>1273.0</ele><time>2026-04-11T14:00:19.959Z</time></trkpt><trkpt lat="45.86432" lon="11.7639901"><ele>1273.0</ele><time>2026-04-11T14:00:20.961Z</time></trkpt><trkpt lat="45.864397" lon="11.7641236"><ele>1273.0</ele><time>2026-04-11T14:00:21.954Z</time></trkpt><trkpt lat="45.864447" lon="11.7642552"><ele>1275.75</ele><time>2026-04-11T14:00:22.965Z</time></trkpt><trkpt lat="45.8644822" lon="11.7643988"><ele>1278.5</ele><time>2026-04-11T14:00:23.962Z</time></trkpt><trkpt lat="45.8644159" lon="11.7645329"><ele>1281.25</ele><time>2026-04-11T14:00:24.959Z</time></trkpt><trkpt lat="45.8643264" lon="11.7646617"><ele>1284.0</ele><time>2026-04-11T14:00:25.972Z</time></trkpt><trkpt lat="45.8642044" lon="11.7646853"><ele>1284.0</ele><time>2026-04-11T14:00:26.958Z</time></trkpt><trkpt lat="45.8640893" lon="11.7646547"><ele>1284.0</ele><time>2026-04-11T14:00:27.949Z</time></trkpt><trkpt lat="45.8640035" lon="11.7645486"><ele>1284.0</ele><time>2026-04-11T14:00:28.956Z</time></trkpt><trkpt lat="45.8638832" lon="11.764476"><ele>1284.0</ele><time>2026-04-11T14:00:29.957Z</time></trkpt><trkpt lat="45.8637296" lon="11.7644773"><ele>1284.0</ele><time>2026-04-11T14:00:30.961Z</time></trkpt><trkpt lat="45.8635279" lon="11.7645621"><ele>1284.0</ele><time>2026-04-11T14:00:31.96Z</time></trkpt><trkpt lat="45.863351" lon="11.7646866"><ele>1284.0</ele><time>2026-04-11T14:00:32.958Z</time></trkpt><trkpt lat="45.8632402" lon="11.7648142"><ele>1286.25</ele><time>2026-04-11T14:00:33.969Z</time></trkpt><trkpt lat="45.8631349" lon="11.7649175"><ele>1288.5</ele><time>2026-04-11T14:00:34.961Z</time></trkpt><trkpt lat="45.8630392" lon="11.7649437"><ele>1290.75</ele><time>2026-04-11T14:00:35.962Z</time></trkpt><trkpt lat="45.8629594" lon="11.7648286"><ele>1293.0</ele><time>2026-04-11T14:00:36.96Z</time></trkpt><trkpt lat="45.8629255" lon="11.7646356"><ele>1293.0</ele><time>2026-04-11T14:00:37.963Z</time></trkpt><trkpt lat="45.8628426" lon="11.764497"><ele>1293.0</ele><time>2026-04-11T14:00:38.959Z</time></trkpt><trkpt lat="45.8627266" lon="11.7644624"><ele>1293.0</ele><time>2026-04-11T14:00:39.97Z</time></trkpt><trkpt lat="45.8626035" lon="11.7645148"><ele>1293.0</ele><time>2026-04-11T14:00:40.956Z</time></trkpt><trkpt lat="45.8624685" lon="11.7646267"><ele>1293.3333333333333</ele><time>2026-04-11T14:00:41.956Z</time></trkpt><trkpt lat="45.8623284" lon="11.7647833"><ele>1293.6666666666665</ele><time>2026-04-11T14:00:42.959Z</time></trkpt><trkpt lat="45.8621693" lon="11.7649529"><ele>1294.0</ele><time>2026-04-11T14:00:43.956Z</time></trkpt><trkpt lat="45.8620305" lon="11.7650997"><ele>1295.5</ele><time>2026-04-11T14:00:44.955Z</time></trkpt><trkpt lat="45.8619079" lon="11.7652315"><ele>1297.0</ele><time>2026-04-11T14:00:45.966Z</time></trkpt><trkpt lat="45.8618029" lon="11.7653817"><ele>1298.5</ele><time>2026-04-11T14:00:46.958Z</time></trkpt><trkpt lat="45.8617325" lon="11.7655566"><ele>1300.0</ele><time>2026-04-11T14:00:47.96Z</time></trkpt><trkpt lat="45.861676" lon="11.7657482"><ele>1300.0</ele><time>2026-04-11T14:00:48.968Z</time></trkpt><trkpt lat="45.8616176" lon="11.7659352"><ele>1300.0</ele><time>2026-04-11T14:00:49.995Z</time></trkpt><trkpt lat="45.8615506" lon="11.7661149"><ele>1300.0</ele><time>2026-04-11T14:00:50.963Z</time></trkpt><trkpt lat="45.861473" lon="11.7662838"><ele>1300.0</ele><time>2026-04-11T14:00:51.958Z</time></trkpt><trkpt lat="45.8613974" lon="11.766446"><ele>1301.75</ele><time>2026-04-11T14:00:52.957Z</time></trkpt><trkpt lat="45.8613437" lon="11.7666192"><ele>1303.5</ele><time>2026-04-11T14:00:53.959Z</time></trkpt><trkpt lat="45.8613219" lon="11.7668019"><ele>1305.25</ele><time>2026-04-11T14:00:54.957Z</time></trkpt><trkpt lat="45.8613427" lon="11.7669672"><ele>1307.0</ele><time>2026-04-11T14:00:55.96Z</time></trkpt><trkpt lat="45.8614093" lon="11.7671045"><ele>1307.0</ele><time>2026-04-11T14:00:56.959Z</time></trkpt><trkpt lat="45.8615103" lon="11.7672093"><ele>1307.0</ele><time>2026-04-11T14:00:57.952Z</time></trkpt><trkpt lat="45.8616246" lon="11.7672853"><ele>1307.0</ele><time>2026-04-11T14:00:58.961Z</time></trkpt><trkpt lat="45.8617399" lon="11.7673357"><ele>1307.0</ele><time>2026-04-11T14:00:59.962Z</time></trkpt><trkpt lat="45.8618578" lon="11.7673682"><ele>1311.8</ele><time>2026-04-11T14:01:00.958Z</time></trkpt><trkpt lat="45.8619651" lon="11.767394"><ele>1316.6</ele><time>2026-04-11T14:01:01.964Z</time></trkpt><trkpt lat="45.8620592" lon="11.7674196"><ele>1321.3999999999999</ele><time>2026-04-11T14:01:02.969Z</time></trkpt><trkpt lat="45.8621246" lon="11.7675002"><ele>1326.1999999999998</ele><time>2026-04-11T14:01:03.96Z</time></trkpt><trkpt lat="45.862144" lon="11.7676194"><ele>1331.0</ele><time>2026-04-11T14:01:04.964Z</time></trkpt><trkpt lat="45.8621533" lon="11.7677488"><ele>1331.0</ele><time>2026-04-11T14:01:05.962Z</time></trkpt><trkpt lat="45.8621341" lon="11.7678837"><ele>1331.0</ele><time>2026-04-11T14:01:06.964Z</time></trkpt><trkpt lat="45.8621285" lon="11.7680371"><ele>1331.0</ele><time>2026-04-11T14:01:07.968Z</time></trkpt><trkpt lat="45.8621575" lon="11.7681881"><ele>1331.0</ele><time>2026-04-11T14:01:08.96Z</time></trkpt><trkpt lat="45.8622174" lon="11.7683118"><ele>1331.0</ele><time>2026-04-11T14:01:09.962Z</time></trkpt><trkpt lat="45.8622865" lon="11.7684017"><ele>1331.0</ele><time>2026-04-11T14:01:10.966Z</time></trkpt><trkpt lat="45.8623398" lon="11.7684878"><ele>1331.0</ele><time>2026-04-11T14:01:11.959Z</time></trkpt><trkpt lat="45.8623509" lon="11.7685949"><ele>1331.0</ele><time>2026-04-11T14:01:12.967Z</time></trkpt><trkpt lat="45.862314" lon="11.7686899"><ele>1331.0</ele><time>2026-04-11T14:01:13.965Z</time></trkpt><trkpt lat="45.8622403" lon="11.7687577"><ele>1331.0</ele><time>2026-04-11T14:01:14.962Z</time></trkpt><trkpt lat="45.862157" lon="11.7688295"><ele>1331.0</ele><time>2026-04-11T14:01:15.954Z</time></trkpt><trkpt lat="45.8620727" lon="11.7689162"><ele>1333.75</ele><time>2026-04-11T14:01:16.971Z</time></trkpt><trkpt lat="45.8619873" lon="11.7690267"><ele>1336.5</ele><time>2026-04-11T14:01:17.964Z</time></trkpt><trkpt lat="45.8619159" lon="11.7691534"><ele>1339.25</ele><time>2026-04-11T14:01:18.957Z</time></trkpt><trkpt lat="45.8619109" lon="11.7693346"><ele>1342.0</ele><time>2026-04-11T14:01:19.966Z</time></trkpt><trkpt lat="45.8619563" lon="11.7695435"><ele>1345.0</ele><time>2026-04-11T14:01:20.973Z</time></trkpt><trkpt lat="45.8620113" lon="11.769763"><ele>1348.0</ele><time>2026-04-11T14:01:21.958Z</time></trkpt><trkpt lat="45.8620729" lon="11.7699713"><ele>1351.0</ele><time>2026-04-11T14:01:22.967Z</time></trkpt><trkpt lat="45.8620433" lon="11.7701407"><ele>1354.0</ele><time>2026-04-11T14:01:23.966Z</time></trkpt><trkpt lat="45.8619913" lon="11.7703265"><ele>1357.6666666666665</ele><time>2026-04-11T14:01:24.962Z</time></trkpt><trkpt lat="45.8618884" lon="11.770488"><ele>1361.3333333333333</ele><time>2026-04-11T14:01:25.948Z</time></trkpt><trkpt lat="45.8617805" lon="11.7706962"><ele>1365.0</ele><time>2026-04-11T14:01:26.961Z</time></trkpt><trkpt lat="45.8616969" lon="11.7709319"><ele>1357.3333333333333</ele><time>2026-04-11T14:01:27.967Z</time></trkpt><trkpt lat="45.8616286" lon="11.7711723"><ele>1349.6666666666665</ele><time>2026-04-11T14:01:28.964Z</time></trkpt><trkpt lat="45.861627" lon="11.7714197"><ele>1342.0</ele><time>2026-04-11T14:01:29.957Z</time></trkpt><trkpt lat="45.8616288" lon="11.7716582"><ele>1342.0</ele><time>2026-04-11T14:01:30.966Z</time></trkpt><trkpt lat="45.8616038" lon="11.7718493"><ele>1342.0</ele><time>2026-04-11T14:01:31.96Z</time></trkpt><trkpt lat="45.8615276" lon="11.7720241"><ele>1342.0</ele><time>2026-04-11T14:01:32.962Z</time></trkpt><trkpt lat="45.8614963" lon="11.7722399"><ele>1342.0</ele><time>2026-04-11T14:01:33.958Z</time></trkpt><trkpt lat="45.8615176" lon="11.7725069"><ele>1345.3333333333333</ele><time>2026-04-11T14:01:34.968Z</time></trkpt><trkpt lat="45.8615302" lon="11.7727549"><ele>1348.6666666666667</ele><time>2026-04-11T14:01:35.968Z</time></trkpt><trkpt lat="45.8616042" lon="11.7730461"><ele>1352.0</ele><time>2026-04-11T14:01:36.956Z</time></trkpt><trkpt lat="45.8616886" lon="11.7733594"><ele>1352.6666666666667</ele><time>2026-04-11T14:01:37.965Z</time></trkpt><trkpt lat="45.8617818" lon="11.7736335"><ele>1353.3333333333333</ele><time>2026-04-11T14:01:38.968Z</time></trkpt><trkpt lat="45.8618649" lon="11.7738445"><ele>1354.0</ele><time>2026-04-11T14:01:39.956Z</time></trkpt><trkpt lat="45.8618302" lon="11.774122"><ele>1355.3333333333333</ele><time>2026-04-11T14:01:40.955Z</time></trkpt><trkpt lat="45.861783" lon="11.7744133"><ele>1356.6666666666667</ele><time>2026-04-11T14:01:41.987Z</time></trkpt><trkpt lat="45.8617417" lon="11.7746836"><ele>1358.0</ele><time>2026-04-11T14:01:42.969Z</time></trkpt><trkpt lat="45.8617555" lon="11.7749306"><ele>1366.3333333333335</ele><time>2026-04-11T14:01:43.978Z</time></trkpt><trkpt lat="45.8618078" lon="11.7751857"><ele>1374.6666666666667</ele><time>2026-04-11T14:01:44.968Z</time></trkpt><trkpt lat="45.8618721" lon="11.7754364"><ele>1383.0</ele><time>2026-04-11T14:01:45.97Z</time></trkpt><trkpt lat="45.8619381" lon="11.7756644"><ele>1383.0</ele><time>2026-04-11T14:01:46.968Z</time></trkpt><trkpt lat="45.8620147" lon="11.7758707"><ele>1383.0</ele><time>2026-04-11T14:01:47.957Z</time></trkpt><trkpt lat="45.8621313" lon="11.7760632"><ele>1383.0</ele><time>2026-04-11T14:01:48.956Z</time></trkpt><trkpt lat="45.8622619" lon="11.7762569"><ele>1386.3333333333333</ele><time>2026-04-11T14:01:49.964Z</time></trkpt><trkpt lat="45.8624166" lon="11.7764241"><ele>1389.6666666666665</ele><time>2026-04-11T14:01:50.956Z</time></trkpt><trkpt lat="45.8625785" lon="11.7765991"><ele>1393.0</ele><time>2026-04-11T14:01:51.971Z</time></trkpt><trkpt lat="45.8627141" lon="11.776778"><ele>1388.6666666666665</ele><time>2026-04-11T14:01:52.963Z</time></trkpt><trkpt lat="45.8628346" lon="11.7769376"><ele>1384.3333333333333</ele><time>2026-04-11T14:01:53.953Z</time></trkpt><trkpt lat="45.8629683" lon="11.7770564"><ele>1380.0</ele><time>2026-04-11T14:01:54.957Z</time></trkpt><trkpt lat="45.8631196" lon="11.7771176"><ele>1380.0</ele><time>2026-04-11T14:01:55.959Z</time></trkpt><trkpt lat="45.8632581" lon="11.7771652"><ele>1380.0</ele><time>2026-04-11T14:01:56.954Z</time></trkpt><trkpt lat="45.8633764" lon="11.7772603"><ele>1380.0</ele><time>2026-04-11T14:01:57.959Z</time></trkpt><trkpt lat="45.863494" lon="11.7773742"><ele>1380.0</ele><time>2026-04-11T14:01:58.98Z</time></trkpt><trkpt lat="45.8635549" lon="11.7775506"><ele>1380.75</ele><time>2026-04-11T14:01:59.957Z</time></trkpt><trkpt lat="45.8636533" lon="11.7776756"><ele>1381.5</ele><time>2026-04-11T14:02:00.977Z</time></trkpt><trkpt lat="45.8637491" lon="11.7778201"><ele>1382.25</ele><time>2026-04-11T14:02:01.964Z</time></trkpt><trkpt lat="45.8638751" lon="11.7779019"><ele>1383.0</ele><time>2026-04-11T14:02:02.965Z</time></trkpt><trkpt lat="45.8640384" lon="11.7778332"><ele>1383.0</ele><time>2026-04-11T14:02:03.961Z</time></trkpt><trkpt lat="45.8642061" lon="11.7776985"><ele>1383.0</ele><time>2026-04-11T14:02:04.958Z</time></trkpt><trkpt lat="45.8643609" lon="11.7775046"><ele>1383.0</ele><time>2026-04-11T14:02:05.961Z</time></trkpt><trkpt lat="45.8645033" lon="11.7772762"><ele>1384.6666666666667</ele><time>2026-04-11T14:02:06.953Z</time></trkpt><trkpt lat="45.8646464" lon="11.7770419"><ele>1386.3333333333335</ele><time>2026-04-11T14:02:07.961Z</time></trkpt><trkpt lat="45.8647979" lon="11.7768039"><ele>1388.0</ele><time>2026-04-11T14:02:08.956Z</time></trkpt><trkpt lat="45.8649568" lon="11.776567"><ele>1392.0</ele><time>2026-04-11T14:02:09.964Z</time></trkpt><trkpt lat="45.8651155" lon="11.7763496"><ele>1396.0</ele><time>2026-04-11T14:02:10.961Z</time></trkpt><trkpt lat="45.8652751" lon="11.7761417"><ele>1400.0</ele><time>2026-04-11T14:02:11.956Z</time></trkpt><trkpt lat="45.8654179" lon="11.7759381"><ele>1401.0</ele><time>2026-04-11T14:02:12.96Z</time></trkpt><trkpt lat="45.8655576" lon="11.7757051"><ele>1402.0</ele><time>2026-04-11T14:02:13.958Z</time></trkpt><trkpt lat="45.8656906" lon="11.7754711"><ele>1403.0</ele><time>2026-04-11T14:02:14.952Z</time></trkpt><trkpt lat="45.8658306" lon="11.7752386"><ele>1408.0</ele><time>2026-04-11T14:02:15.964Z</time></trkpt><trkpt lat="45.8659677" lon="11.775004"><ele>1413.0</ele><time>2026-04-11T14:02:16.954Z</time></trkpt><trkpt lat="45.8660903" lon="11.7747648"><ele>1418.0</ele><time>2026-04-11T14:02:17.958Z</time></trkpt><trkpt lat="45.8661807" lon="11.7745346"><ele>1421.0</ele><time>2026-04-11T14:02:18.951Z</time></trkpt><trkpt lat="45.866249" lon="11.7743307"><ele>1424.0</ele><time>2026-04-11T14:02:19.958Z</time></trkpt><trkpt lat="45.8663064" lon="11.7741663"><ele>1427.0</ele><time>2026-04-11T14:02:20.966Z</time></trkpt><trkpt lat="45.8663654" lon="11.7740488"><ele>1430.0</ele><time>2026-04-11T14:02:21.964Z</time></trkpt><trkpt lat="45.8664339" lon="11.7739377"><ele>1430.0</ele><time>2026-04-11T14:02:22.962Z</time></trkpt><trkpt lat="45.8665093" lon="11.7739476"><ele>1430.0</ele><time>2026-04-11T14:02:23.971Z</time></trkpt><trkpt lat="45.8666094" lon="11.7740391"><ele>1430.0</ele><time>2026-04-11T14:02:24.951Z</time></trkpt><trkpt lat="45.8667219" lon="11.7741997"><ele>1430.0</ele><time>2026-04-11T14:02:25.963Z</time></trkpt><trkpt lat="45.8668208" lon="11.7743828"><ele>1438.3333333333335</ele><time>2026-04-11T14:02:26.957Z</time></trkpt><trkpt lat="45.8668957" lon="11.7745902"><ele>1446.6666666666667</ele><time>2026-04-11T14:02:27.959Z</time></trkpt><trkpt lat="45.86695" lon="11.774826"><ele>1455.0</ele><time>2026-04-11T14:02:28.957Z</time></trkpt><trkpt lat="45.8669679" lon="11.7750728"><ele>1455.6666666666667</ele><time>2026-04-11T14:02:29.956Z</time></trkpt><trkpt lat="45.8669813" lon="11.7753467"><ele>1456.3333333333335</ele><time>2026-04-11T14:02:30.96Z</time></trkpt><trkpt lat="45.866967" lon="11.7756419"><ele>1457.0</ele><time>2026-04-11T14:02:31.962Z</time></trkpt><trkpt lat="45.8669553" lon="11.7759505"><ele>1458.3333333333335</ele><time>2026-04-11T14:02:32.965Z</time></trkpt><trkpt lat="45.8669282" lon="11.7762519"><ele>1459.6666666666667</ele><time>2026-04-11T14:02:33.969Z</time></trkpt><trkpt lat="45.86687" lon="11.7765453"><ele>1461.0</ele><time>2026-04-11T14:02:34.966Z</time></trkpt><trkpt lat="45.8668121" lon="11.7768364"><ele>1453.6666666666667</ele><time>2026-04-11T14:02:35.961Z</time></trkpt><trkpt lat="45.8667638" lon="11.7771217"><ele>1446.3333333333335</ele><time>2026-04-11T14:02:36.963Z</time></trkpt><trkpt lat="45.8667321" lon="11.777404"><ele>1439.0</ele><time>2026-04-11T14:02:37.96Z</time></trkpt><trkpt lat="45.8666779" lon="11.7776658"><ele>1441.3333333333335</ele><time>2026-04-11T14:02:38.958Z</time></trkpt><trkpt lat="45.8666142" lon="11.7779027"><ele>1443.6666666666667</ele><time>2026-04-11T14:02:39.959Z</time></trkpt><trkpt lat="45.8665724" lon="11.778145"><ele>1446.0</ele><time>2026-04-11T14:02:40.964Z</time></trkpt><trkpt lat="45.8665541" lon="11.7784047"><ele>1448.6666666666667</ele><time>2026-04-11T14:02:41.964Z</time></trkpt><trkpt lat="45.8665489" lon="11.7786616"><ele>1451.3333333333335</ele><time>2026-04-11T14:02:42.965Z</time></trkpt><trkpt lat="45.8665444" lon="11.7788997"><ele>1454.0</ele><time>2026-04-11T14:02:43.96Z</time></trkpt><trkpt lat="45.8665346" lon="11.7791174"><ele>1454.0</ele><time>2026-04-11T14:02:44.97Z</time></trkpt><trkpt lat="45.8665099" lon="11.7793298"><ele>1454.0</ele><time>2026-04-11T14:02:45.955Z</time></trkpt><trkpt lat="45.86646" lon="11.7795221"><ele>1454.0</ele><time>2026-04-11T14:02:46.976Z</time></trkpt><trkpt lat="45.8664022" lon="11.7796958"><ele>1454.0</ele><time>2026-04-11T14:02:47.975Z</time></trkpt><trkpt lat="45.8663743" lon="11.7798905"><ele>1457.0</ele><time>2026-04-11T14:02:48.967Z</time></trkpt><trkpt lat="45.8663756" lon="11.7801098"><ele>1460.0</ele><time>2026-04-11T14:02:49.959Z</time></trkpt><trkpt lat="45.8664046" lon="11.7803555"><ele>1463.0</ele><time>2026-04-11T14:02:50.973Z</time></trkpt><trkpt lat="45.8664336" lon="11.7806041"><ele>1463.6666666666667</ele><time>2026-04-11T14:02:51.96Z</time></trkpt><trkpt lat="45.8664761" lon="11.7808547"><ele>1464.3333333333333</ele><time>2026-04-11T14:02:52.959Z</time></trkpt><trkpt lat="45.8665374" lon="11.7810865"><ele>1465.0</ele><time>2026-04-11T14:02:53.963Z</time></trkpt><trkpt lat="45.8665997" lon="11.7812842"><ele>1465.0</ele><time>2026-04-11T14:02:54.967Z</time></trkpt><trkpt lat="45.8666268" lon="11.7814667"><ele>1465.0</ele><time>2026-04-11T14:02:55.956Z</time></trkpt><trkpt lat="45.8666072" lon="11.7816516"><ele>1465.0</ele><time>2026-04-11T14:02:56.966Z</time></trkpt><trkpt lat="45.8665658" lon="11.781835"><ele>1465.0</ele><time>2026-04-11T14:02:57.964Z</time></trkpt><trkpt lat="45.8665522" lon="11.7820267"><ele>1463.3333333333333</ele><time>2026-04-11T14:02:58.967Z</time></trkpt><trkpt lat="45.8665858" lon="11.7822302"><ele>1461.6666666666667</ele><time>2026-04-11T14:02:59.967Z</time></trkpt><trkpt lat="45.8666394" lon="11.7824282"><ele>1460.0</ele><time>2026-04-11T14:03:00.961Z</time></trkpt><trkpt lat="45.8667673" lon="11.7825934"><ele>1465.0</ele><time>2026-04-11T14:03:01.963Z</time></trkpt><trkpt lat="45.8669185" lon="11.7827437"><ele>1470.0</ele><time>2026-04-11T14:03:02.96Z</time></trkpt><trkpt lat="45.8670849" lon="11.7829146"><ele>1475.0</ele><time>2026-04-11T14:03:03.962Z</time></trkpt><trkpt lat="45.8672698" lon="11.7831083"><ele>1475.0</ele><time>2026-04-11T14:03:04.963Z</time></trkpt><trkpt lat="45.8674424" lon="11.7832875"><ele>1475.0</ele><time>2026-04-11T14:03:05.967Z</time></trkpt><trkpt lat="45.867591" lon="11.7834511"><ele>1475.0</ele><time>2026-04-11T14:03:06.955Z</time></trkpt><trkpt lat="45.8677055" lon="11.7835812"><ele>1475.4</ele><time>2026-04-11T14:03:07.961Z</time></trkpt><trkpt lat="45.867783" lon="11.7837037"><ele>1475.8</ele><time>2026-04-11T14:03:08.956Z</time></trkpt><trkpt lat="45.8678124" lon="11.7838314"><ele>1476.1999999999998</ele><time>2026-04-11T14:03:09.954Z</time></trkpt><trkpt lat="45.8677822" lon="11.7839669"><ele>1476.6</ele><time>2026-04-11T14:03:10.959Z</time></trkpt><trkpt lat="45.8677035" lon="11.7840958"><ele>1477.0</ele><time>2026-04-11T14:03:11.957Z</time></trkpt><trkpt lat="45.8676088" lon="11.7842306"><ele>1479.0</ele><time>2026-04-11T14:03:12.984Z</time></trkpt><trkpt lat="45.86754" lon="11.7843698"><ele>1481.0</ele><time>2026-04-11T14:03:13.954Z</time></trkpt><trkpt lat="45.8675153" lon="11.7845304"><ele>1483.0</ele><time>2026-04-11T14:03:14.956Z</time></trkpt><trkpt lat="45.8675241" lon="11.7847295"><ele>1485.0</ele><time>2026-04-11T14:03:15.953Z</time></trkpt><trkpt lat="45.8675522" lon="11.784941"><ele>1485.0</ele><time>2026-04-11T14:03:16.956Z</time></trkpt><trkpt lat="45.8675608" lon="11.7851652"><ele>1485.0</ele><time>2026-04-11T14:03:17.959Z</time></trkpt><trkpt lat="45.8675559" lon="11.7853815"><ele>1485.0</ele><time>2026-04-11T14:03:18.96Z</time></trkpt><trkpt lat="45.8675163" lon="11.7855742"><ele>1485.0</ele><time>2026-04-11T14:03:19.951Z</time></trkpt><trkpt lat="45.8674602" lon="11.7857634"><ele>1488.3333333333333</ele><time>2026-04-11T14:03:20.964Z</time></trkpt><trkpt lat="45.8673541" lon="11.7859163"><ele>1491.6666666666665</ele><time>2026-04-11T14:03:21.963Z</time></trkpt><trkpt lat="45.8672683" lon="11.7861013"><ele>1495.0</ele><time>2026-04-11T14:03:22.964Z</time></trkpt><trkpt lat="45.8672162" lon="11.786306"><ele>1494.25</ele><time>2026-04-11T14:03:23.971Z</time></trkpt><trkpt lat="45.8672013" lon="11.7865263"><ele>1493.5</ele><time>2026-04-11T14:03:24.98Z</time></trkpt><trkpt lat="45.8672191" lon="11.7867368"><ele>1492.75</ele><time>2026-04-11T14:03:25.958Z</time></trkpt><trkpt lat="45.8672561" lon="11.7869293"><ele>1492.0</ele><time>2026-04-11T14:03:26.952Z</time></trkpt><trkpt lat="45.8673192" lon="11.7870896"><ele>1492.0</ele><time>2026-04-11T14:03:27.963Z</time></trkpt><trkpt lat="45.8674116" lon="11.7872176"><ele>1492.0</ele><time>2026-04-11T14:03:28.984Z</time></trkpt><trkpt lat="45.8675303" lon="11.7873002"><ele>1492.0</ele><time>2026-04-11T14:03:29.956Z</time></trkpt><trkpt lat="45.8676728" lon="11.7873405"><ele>1492.0</ele><time>2026-04-11T14:03:30.957Z</time></trkpt><trkpt lat="45.8678279" lon="11.7873695"><ele>1496.0</ele><time>2026-04-11T14:03:31.953Z</time></trkpt><trkpt lat="45.8680066" lon="11.787378"><ele>1500.0</ele><time>2026-04-11T14:03:32.949Z</time></trkpt><trkpt lat="45.8681873" lon="11.7873922"><ele>1504.0</ele><time>2026-04-11T14:03:33.963Z</time></trkpt><trkpt lat="45.868336" lon="11.7874103"><ele>1509.25</ele><time>2026-04-11T14:03:34.96Z</time></trkpt><trkpt lat="45.8684656" lon="11.7874545"><ele>1514.5</ele><time>2026-04-11T14:03:35.963Z</time></trkpt><trkpt lat="45.8686037" lon="11.7875151"><ele>1519.75</ele><time>2026-04-11T14:03:36.965Z</time></trkpt><trkpt lat="45.8686911" lon="11.7876599"><ele>1525.0</ele><time>2026-04-11T14:03:37.975Z</time></trkpt><trkpt lat="45.8687949" lon="11.7878063"><ele>1525.0</ele><time>2026-04-11T14:03:38.964Z</time></trkpt><trkpt lat="45.8688946" lon="11.7879371"><ele>1525.0</ele><time>2026-04-11T14:03:39.964Z</time></trkpt><trkpt lat="45.8689736" lon="11.7880565"><ele>1525.0</ele><time>2026-04-11T14:03:40.979Z</time></trkpt><trkpt lat="45.8690416" lon="11.7881857"><ele>1525.0</ele><time>2026-04-11T14:03:41.974Z</time></trkpt><trkpt lat="45.8690776" lon="11.7883384"><ele>1525.0</ele><time>2026-04-11T14:03:42.965Z</time></trkpt><trkpt lat="45.8690615" lon="11.7884918"><ele>1525.0</ele><time>2026-04-11T14:03:43.963Z</time></trkpt><trkpt lat="45.8690306" lon="11.7886481"><ele>1525.0</ele><time>2026-04-11T14:03:44.971Z</time></trkpt><trkpt lat="45.8689321" lon="11.7887029"><ele>1525.0</ele><time>2026-04-11T14:03:45.957Z</time></trkpt><trkpt lat="45.8688216" lon="11.7887221"><ele>1525.0</ele><time>2026-04-11T14:03:46.981Z</time></trkpt><trkpt lat="45.868697" lon="11.7887121"><ele>1526.6</ele><time>2026-04-11T14:03:47.966Z</time></trkpt><trkpt lat="45.8685914" lon="11.7887256"><ele>1528.2</ele><time>2026-04-11T14:03:48.955Z</time></trkpt><trkpt lat="45.8685193" lon="11.7887753"><ele>1529.8000000000002</ele><time>2026-04-11T14:03:49.969Z</time></trkpt><trkpt lat="45.8684848" lon="11.7888645"><ele>1531.4</ele><time>2026-04-11T14:03:50.975Z</time></trkpt><trkpt lat="45.8685506" lon="11.7890118"><ele>1533.0</ele><time>2026-04-11T14:03:52.969Z</time></trkpt><trkpt lat="45.868629" lon="11.7890198"><ele>1533.0</ele><time>2026-04-11T14:03:53.955Z</time></trkpt><trkpt lat="45.8687389" lon="11.7889864"><ele>1533.0</ele><time>2026-04-11T14:03:54.975Z</time></trkpt><trkpt lat="45.868873" lon="11.7889605"><ele>1533.0</ele><time>2026-04-11T14:03:55.973Z</time></trkpt><trkpt lat="45.8690147" lon="11.7889561"><ele>1533.0</ele><time>2026-04-11T14:03:56.957Z</time></trkpt><trkpt lat="45.8691298" lon="11.788937"><ele>1533.0</ele><time>2026-04-11T14:03:57.964Z</time></trkpt><trkpt lat="45.8692201" lon="11.788876"><ele>1533.0</ele><time>2026-04-11T14:03:58.968Z</time></trkpt><trkpt lat="45.8692877" lon="11.7887553"><ele>1533.0</ele><time>2026-04-11T14:03:59.955Z</time></trkpt><trkpt lat="45.8693263" lon="11.7885746"><ele>1533.0</ele><time>2026-04-11T14:04:00.964Z</time></trkpt><trkpt lat="45.869347" lon="11.7883465"><ele>1542.6666666666665</ele><time>2026-04-11T14:04:01.961Z</time></trkpt><trkpt lat="45.8693651" lon="11.788082"><ele>1552.3333333333333</ele><time>2026-04-11T14:04:02.971Z</time></trkpt><trkpt lat="45.8693819" lon="11.787854"><ele>1562.0</ele><time>2026-04-11T14:04:03.952Z</time></trkpt><trkpt lat="45.8694093" lon="11.7876762"><ele>1562.0</ele><time>2026-04-11T14:04:04.97Z</time></trkpt><trkpt lat="45.8694599" lon="11.7875261"><ele>1562.0</ele><time>2026-04-11T14:04:05.963Z</time></trkpt><trkpt lat="45.8695142" lon="11.7873819"><ele>1562.0</ele><time>2026-04-11T14:04:06.96Z</time></trkpt><trkpt lat="45.8695618" lon="11.7872397"><ele>1562.0</ele><time>2026-04-11T14:04:07.966Z</time></trkpt><trkpt lat="45.8695492" lon="11.7870772"><ele>1562.0</ele><time>2026-04-11T14:04:08.964Z</time></trkpt><trkpt lat="45.8694977" lon="11.7869161"><ele>1562.0</ele><time>2026-04-11T14:04:09.964Z</time></trkpt><trkpt lat="45.8694597" lon="11.7867429"><ele>1562.0</ele><time>2026-04-11T14:04:10.974Z</time></trkpt><trkpt lat="45.8694332" lon="11.7865607"><ele>1562.0</ele><time>2026-04-11T14:04:11.969Z</time></trkpt><trkpt lat="45.8694047" lon="11.7863919"><ele>1561.6</ele><time>2026-04-11T14:04:12.961Z</time></trkpt><trkpt lat="45.8693752" lon="11.7862489"><ele>1561.1999999999998</ele><time>2026-04-11T14:04:13.968Z</time></trkpt><trkpt lat="45.869346" lon="11.7861332"><ele>1560.8</ele><time>2026-04-11T14:04:14.964Z</time></trkpt><trkpt lat="45.8693354" lon="11.7860356"><ele>1560.4</ele><time>2026-04-11T14:04:15.965Z</time></trkpt><trkpt lat="45.8693944" lon="11.7859146"><ele>1560.0</ele><time>2026-04-11T14:04:17.965Z</time></trkpt><trkpt lat="45.86948" lon="11.7859752"><ele>1560.0</ele><time>2026-04-11T14:04:19.957Z</time></trkpt><trkpt lat="45.8695012" lon="11.786093"><ele>1560.0</ele><time>2026-04-11T14:04:20.961Z</time></trkpt><trkpt lat="45.8695047" lon="11.7862472"><ele>1560.0</ele><time>2026-04-11T14:04:21.966Z</time></trkpt><trkpt lat="45.8695384" lon="11.7864419"><ele>1560.0</ele><time>2026-04-11T14:04:22.959Z</time></trkpt><trkpt lat="45.8695794" lon="11.7866493"><ele>1560.6666666666665</ele><time>2026-04-11T14:04:23.965Z</time></trkpt><trkpt lat="45.8696741" lon="11.7868713"><ele>1561.3333333333333</ele><time>2026-04-11T14:04:24.959Z</time></trkpt><trkpt lat="45.8697649" lon="11.787082"><ele>1562.0</ele><time>2026-04-11T14:04:25.967Z</time></trkpt><trkpt lat="45.8698362" lon="11.787297"><ele>1562.0</ele><time>2026-04-11T14:04:26.955Z</time></trkpt><trkpt lat="45.8699084" lon="11.7875316"><ele>1562.0</ele><time>2026-04-11T14:04:27.96Z</time></trkpt><trkpt lat="45.8699121" lon="11.787792"><ele>1562.0</ele><time>2026-04-11T14:04:28.953Z</time></trkpt><trkpt lat="45.8699164" lon="11.7880782"><ele>1564.0</ele><time>2026-04-11T14:04:29.971Z</time></trkpt><trkpt lat="45.8699321" lon="11.7883821"><ele>1566.0</ele><time>2026-04-11T14:04:31.004Z</time></trkpt><trkpt lat="45.8699568" lon="11.7886982"><ele>1568.0</ele><time>2026-04-11T14:04:31.959Z</time></trkpt><trkpt lat="45.8699835" lon="11.7890278"><ele>1569.0</ele><time>2026-04-11T14:04:32.958Z</time></trkpt><trkpt lat="45.8700119" lon="11.7893652"><ele>1570.0</ele><time>2026-04-11T14:04:33.96Z</time></trkpt><trkpt lat="45.8700524" lon="11.7897173"><ele>1570.0</ele><time>2026-04-11T14:04:34.961Z</time></trkpt><trkpt lat="45.8701043" lon="11.7900587"><ele>1570.0</ele><time>2026-04-11T14:04:35.966Z</time></trkpt><trkpt lat="45.8701607" lon="11.7903641"><ele>1583.3333333333335</ele><time>2026-04-11T14:04:36.961Z</time></trkpt><trkpt lat="45.8702098" lon="11.7906372"><ele>1596.6666666666665</ele><time>2026-04-11T14:04:37.958Z</time></trkpt><trkpt lat="45.8702478" lon="11.7908687"><ele>1610.0</ele><time>2026-04-11T14:04:38.961Z</time></trkpt><trkpt lat="45.8702674" lon="11.7910596"><ele>1610.75</ele><time>2026-04-11T14:04:39.954Z</time></trkpt><trkpt lat="45.8702728" lon="11.7912491"><ele>1611.5</ele><time>2026-04-11T14:04:40.955Z</time></trkpt><trkpt lat="45.8702164" lon="11.7914329"><ele>1612.25</ele><time>2026-04-11T14:04:41.955Z</time></trkpt><trkpt lat="45.870114" lon="11.7915847"><ele>1613.0</ele><time>2026-04-11T14:04:42.953Z</time></trkpt><trkpt lat="45.8699589" lon="11.7916674"><ele>1609.3333333333333</ele><time>2026-04-11T14:04:43.962Z</time></trkpt><trkpt lat="45.8697952" lon="11.7917572"><ele>1605.6666666666665</ele><time>2026-04-11T14:04:44.954Z</time></trkpt><trkpt lat="45.8696322" lon="11.7918763"><ele>1602.0</ele><time>2026-04-11T14:04:45.962Z</time></trkpt><trkpt lat="45.8694579" lon="11.7920221"><ele>1602.0</ele><time>2026-04-11T14:04:46.968Z</time></trkpt><trkpt lat="45.8692806" lon="11.7921672"><ele>1602.0</ele><time>2026-04-11T14:04:47.962Z</time></trkpt><trkpt lat="45.8691134" lon="11.7923093"><ele>1602.0</ele><time>2026-04-11T14:04:48.961Z</time></trkpt><trkpt lat="45.8689634" lon="11.7924282"><ele>1599.6666666666665</ele><time>2026-04-11T14:04:49.973Z</time></trkpt><trkpt lat="45.8688267" lon="11.7925389"><ele>1597.3333333333333</ele><time>2026-04-11T14:04:50.957Z</time></trkpt><trkpt lat="45.8687028" lon="11.7926599"><ele>1595.0</ele><time>2026-04-11T14:04:51.966Z</time></trkpt><trkpt lat="45.8686076" lon="11.7928151"><ele>1599.6666666666665</ele><time>2026-04-11T14:04:52.961Z</time></trkpt><trkpt lat="45.8685454" lon="11.7930138"><ele>1604.3333333333335</ele><time>2026-04-11T14:04:53.961Z</time></trkpt><trkpt lat="45.8685012" lon="11.7932472"><ele>1609.0</ele><time>2026-04-11T14:04:54.953Z</time></trkpt><trkpt lat="45.8684524" lon="11.7934936"><ele>1606.0</ele><time>2026-04-11T14:04:55.961Z</time></trkpt><trkpt lat="45.868409" lon="11.7937476"><ele>1603.0</ele><time>2026-04-11T14:04:56.96Z</time></trkpt><trkpt lat="45.8683792" lon="11.7940015"><ele>1600.0</ele><time>2026-04-11T14:04:57.963Z</time></trkpt><trkpt lat="45.8683783" lon="11.7942564"><ele>1604.0</ele><time>2026-04-11T14:04:58.956Z</time></trkpt><trkpt lat="45.8683815" lon="11.794509"><ele>1608.0</ele><time>2026-04-11T14:04:59.96Z</time></trkpt><trkpt lat="45.8684017" lon="11.7947316"><ele>1612.0</ele><time>2026-04-11T14:05:00.956Z</time></trkpt><trkpt lat="45.868409" lon="11.7949244"><ele>1612.0</ele><time>2026-04-11T14:05:01.963Z</time></trkpt><trkpt lat="45.8683997" lon="11.7950927"><ele>1612.0</ele><time>2026-04-11T14:05:02.949Z</time></trkpt><trkpt lat="45.868351" lon="11.7952437"><ele>1612.0</ele><time>2026-04-11T14:05:03.956Z</time></trkpt><trkpt lat="45.8682847" lon="11.7953687"><ele>1612.0</ele><time>2026-04-11T14:05:04.964Z</time></trkpt><trkpt lat="45.8681759" lon="11.7954682"><ele>1615.75</ele><time>2026-04-11T14:05:05.964Z</time></trkpt><trkpt lat="45.8680902" lon="11.795608"><ele>1619.5</ele><time>2026-04-11T14:05:06.957Z</time></trkpt><trkpt lat="45.8680022" lon="11.7957504"><ele>1623.25</ele><time>2026-04-11T14:05:07.958Z</time></trkpt><trkpt lat="45.8679327" lon="11.7959364"><ele>1627.0</ele><time>2026-04-11T14:05:08.962Z</time></trkpt><trkpt lat="45.8678787" lon="11.7961115"><ele>1627.5</ele><time>2026-04-11T14:05:09.97Z</time></trkpt><trkpt lat="45.8677757" lon="11.7962645"><ele>1628.0</ele><time>2026-04-11T14:05:10.953Z</time></trkpt><trkpt lat="45.8676948" lon="11.7964345"><ele>1628.5</ele><time>2026-04-11T14:05:11.966Z</time></trkpt><trkpt lat="45.8676474" lon="11.7966309"><ele>1629.0</ele><time>2026-04-11T14:05:12.963Z</time></trkpt><trkpt lat="45.8676027" lon="11.79684"><ele>1629.0</ele><time>2026-04-11T14:05:13.969Z</time></trkpt><trkpt lat="45.8675569" lon="11.7970537"><ele>1629.0</ele><time>2026-04-11T14:05:14.959Z</time></trkpt><trkpt lat="45.8675123" lon="11.7972484"><ele>1629.0</ele><time>2026-04-11T14:05:15.962Z</time></trkpt><trkpt lat="45.8674629" lon="11.797429"><ele>1629.0</ele><time>2026-04-11T14:05:16.961Z</time></trkpt><trkpt lat="45.8673991" lon="11.7975936"><ele>1635.75</ele><time>2026-04-11T14:05:17.96Z</time></trkpt><trkpt lat="45.8673091" lon="11.7977328"><ele>1642.5</ele><time>2026-04-11T14:05:18.958Z</time></trkpt><trkpt lat="45.8671991" lon="11.7978365"><ele>1649.25</ele><time>2026-04-11T14:05:19.961Z</time></trkpt><trkpt lat="45.8670819" lon="11.7979322"><ele>1656.0</ele><time>2026-04-11T14:05:20.959Z</time></trkpt><trkpt lat="45.86696" lon="11.7980038"><ele>1656.0</ele><time>2026-04-11T14:05:21.956Z</time></trkpt><trkpt lat="45.8668365" lon="11.7980821"><ele>1656.0</ele><time>2026-04-11T14:05:22.955Z</time></trkpt><trkpt lat="45.8667103" lon="11.7981618"><ele>1656.0</ele><time>2026-04-11T14:05:23.966Z</time></trkpt><trkpt lat="45.8665848" lon="11.7982394"><ele>1656.0</ele><time>2026-04-11T14:05:24.964Z</time></trkpt><trkpt lat="45.8664588" lon="11.7983162"><ele>1657.5</ele><time>2026-04-11T14:05:25.973Z</time></trkpt><trkpt lat="45.8663303" lon="11.7983823"><ele>1659.0</ele><time>2026-04-11T14:05:26.963Z</time></trkpt><trkpt lat="45.8662054" lon="11.798437"><ele>1660.5</ele><time>2026-04-11T14:05:27.966Z</time></trkpt><trkpt lat="45.8660889" lon="11.7984911"><ele>1662.0</ele><time>2026-04-11T14:05:28.976Z</time></trkpt><trkpt lat="45.8659831" lon="11.7985424"><ele>1658.6</ele><time>2026-04-11T14:05:29.971Z</time></trkpt><trkpt lat="45.8658996" lon="11.7986171"><ele>1655.1999999999998</ele><time>2026-04-11T14:05:30.972Z</time></trkpt><trkpt lat="45.8658395" lon="11.7987158"><ele>1651.8</ele><time>2026-04-11T14:05:31.964Z</time></trkpt><trkpt lat="45.8657976" lon="11.7988336"><ele>1648.4</ele><time>2026-04-11T14:05:32.968Z</time></trkpt><trkpt lat="45.8657888" lon="11.798969"><ele>1645.0</ele><time>2026-04-11T14:05:33.967Z</time></trkpt><trkpt lat="45.8657931" lon="11.7991058"><ele>1645.0</ele><time>2026-04-11T14:05:34.961Z</time></trkpt><trkpt lat="45.8658038" lon="11.7992446"><ele>1645.0</ele><time>2026-04-11T14:05:35.979Z</time></trkpt><trkpt lat="45.8658248" lon="11.7993811"><ele>1645.0</ele><time>2026-04-11T14:05:36.97Z</time></trkpt><trkpt lat="45.8658631" lon="11.7995089"><ele>1645.0</ele><time>2026-04-11T14:05:37.957Z</time></trkpt><trkpt lat="45.8659198" lon="11.7996153"><ele>1645.0</ele><time>2026-04-11T14:05:38.971Z</time></trkpt><trkpt lat="45.8659924" lon="11.7997043"><ele>1646.6</ele><time>2026-04-11T14:05:39.977Z</time></trkpt><trkpt lat="45.866072" lon="11.7997764"><ele>1648.2</ele><time>2026-04-11T14:05:40.974Z</time></trkpt><trkpt lat="45.8661552" lon="11.799841"><ele>1649.8000000000002</ele><time>2026-04-11T14:05:41.968Z</time></trkpt><trkpt lat="45.8662422" lon="11.7998934"><ele>1651.4</ele><time>2026-04-11T14:05:42.962Z</time></trkpt><trkpt lat="45.866332" lon="11.7999309"><ele>1653.0</ele><time>2026-04-11T14:05:43.962Z</time></trkpt><trkpt lat="45.8664226" lon="11.7999501"><ele>1653.0</ele><time>2026-04-11T14:05:44.959Z</time></trkpt><trkpt lat="45.8665102" lon="11.7999578"><ele>1653.0</ele><time>2026-04-11T14:05:45.959Z</time></trkpt><trkpt lat="45.8665895" lon="11.7999629"><ele>1653.0</ele><time>2026-04-11T14:05:46.974Z</time></trkpt><trkpt lat="45.8666697" lon="11.7999599"><ele>1653.0</ele><time>2026-04-11T14:05:47.967Z</time></trkpt><trkpt lat="45.8667489" lon="11.7999515"><ele>1653.0</ele><time>2026-04-11T14:05:48.971Z</time></trkpt><trkpt lat="45.8668299" lon="11.799945"><ele>1653.0</ele><time>2026-04-11T14:05:49.958Z</time></trkpt><trkpt lat="45.8669074" lon="11.7999303"><ele>1654.8333333333333</ele><time>2026-04-11T14:05:50.973Z</time></trkpt><trkpt lat="45.8669824" lon="11.7999112"><ele>1656.6666666666665</ele><time>2026-04-11T14:05:51.968Z</time></trkpt><trkpt lat="45.8670563" lon="11.7998952"><ele>1658.5</ele><time>2026-04-11T14:05:52.963Z</time></trkpt><trkpt lat="45.8671292" lon="11.7998804"><ele>1660.3333333333333</ele><time>2026-04-11T14:05:53.966Z</time></trkpt><trkpt lat="45.8672029" lon="11.7998665"><ele>1662.1666666666665</ele><time>2026-04-11T14:05:54.967Z</time></trkpt><trkpt lat="45.8672789" lon="11.7998558"><ele>1664.0</ele><time>2026-04-11T14:05:55.964Z</time></trkpt><trkpt lat="45.8664588" lon="11.7983162"><ele>1663.5</ele><time>2026-04-11T14:05:25.973Z</time></trkpt><trkpt lat="45.8663303" lon="11.7983823"><ele>1663.0</ele><time>2026-04-11T14:05:26.963Z</time></trkpt><trkpt lat="45.8662054" lon="11.798437"><ele>1662.5</ele><time>2026-04-11T14:05:27.966Z</time></trkpt><trkpt lat="45.8660889" lon="11.7984911"><ele>1662.0</ele><time>2026-04-11T14:05:28.976Z</time></trkpt><trkpt lat="45.8659831" lon="11.7985424"><ele>1658.6</ele><time>2026-04-11T14:05:29.971Z</time></trkpt><trkpt lat="45.8658996" lon="11.7986171"><ele>1655.1999999999998</ele><time>2026-04-11T14:05:30.972Z</time></trkpt><trkpt lat="45.8658395" lon="11.7987158"><ele>1651.8</ele><time>2026-04-11T14:05:31.964Z</time></trkpt><trkpt lat="45.8657976" lon="11.7988336"><ele>1648.4</ele><time>2026-04-11T14:05:32.968Z</time></trkpt><trkpt lat="45.8657888" lon="11.798969"><ele>1645.0</ele><time>2026-04-11T14:05:33.967Z</time></trkpt><trkpt lat="45.8657931" lon="11.7991058"><ele>1645.0</ele><time>2026-04-11T14:05:34.961Z</time></trkpt><trkpt lat="45.8658038" lon="11.7992446"><ele>1645.0</ele><time>2026-04-11T14:05:35.979Z</time></trkpt><trkpt lat="45.8658248" lon="11.7993811"><ele>1645.0</ele><time>2026-04-11T14:05:36.97Z</time></trkpt><trkpt lat="45.8658631" lon="11.7995089"><ele>1645.0</ele><time>2026-04-11T14:05:37.957Z</time></trkpt><trkpt lat="45.8659198" lon="11.7996153"><ele>1645.0</ele><time>2026-04-11T14:05:38.971Z</time></trkpt><trkpt lat="45.8659924" lon="11.7997043"><ele>1646.6</ele><time>2026-04-11T14:05:39.977Z</time></trkpt><trkpt lat="45.866072" lon="11.7997764"><ele>1648.2</ele><time>2026-04-11T14:05:40.974Z</time></trkpt><trkpt lat="45.8661552" lon="11.799841"><ele>1649.8000000000002</ele><time>2026-04-11T14:05:41.968Z</time></trkpt><trkpt lat="45.8662422" lon="11.7998934"><ele>1651.4</ele><time>2026-04-11T14:05:42.962Z</time></trkpt><trkpt lat="45.866332" lon="11.7999309"><ele>1653.0</ele><time>2026-04-11T14:05:43.962Z</time></trkpt><trkpt lat="45.8664226" lon="11.7999501"><ele>1653.0</ele><time>2026-04-11T14:05:44.959Z</time></trkpt><trkpt lat="45.8665102" lon="11.7999578"><ele>1653.0</ele><time>2026-04-11T14:05:45.959Z</time></trkpt><trkpt lat="45.8665895" lon="11.7999629"><ele>1653.0</ele><time>2026-04-11T14:05:46.974Z</time></trkpt><trkpt lat="45.8666697" lon="11.7999599"><ele>1653.0</ele><time>2026-04-11T14:05:47.967Z</time></trkpt><trkpt lat="45.8667489" lon="11.7999515"><ele>1653.0</ele><time>2026-04-11T14:05:48.971Z</time></trkpt><trkpt lat="45.8668299" lon="11.799945"><ele>1653.0</ele><time>2026-04-11T14:05:49.958Z</time></trkpt><trkpt lat="45.8669074" lon="11.7999303"><ele>1654.8333333333333</ele><time>2026-04-11T14:05:50.973Z</time></trkpt><trkpt lat="45.8669824" lon="11.7999112"><ele>1656.6666666666665</ele><time>2026-04-11T14:05:51.968Z</time></trkpt><trkpt lat="45.8670563" lon="11.7998952"><ele>1658.5</ele><time>2026-04-11T14:05:52.963Z</time></trkpt><trkpt lat="45.8671292" lon="11.7998804"><ele>1660.3333333333333</ele><time>2026-04-11T14:05:53.966Z</time></trkpt><trkpt lat="45.8672029" lon="11.7998665"><ele>1662.1666666666665</ele><time>2026-04-11T14:05:54.967Z</time></trkpt><trkpt lat="45.8672789" lon="11.7998558"><ele>1664.0</ele><time>2026-04-11T14:05:55.964Z</time></trkpt><trkpt lat="45.8673563" lon="11.7998513"><ele>1664.0</ele><time>2026-04-11T14:05:56.969Z</time></trkpt><trkpt lat="45.8674391" lon="11.7998539"><ele>1664.0</ele><time>2026-04-11T14:05:57.959Z</time></trkpt><trkpt lat="45.8675298" lon="11.7998627"><ele>1664.0</ele><time>2026-04-11T14:05:58.979Z</time></trkpt><trkpt lat="45.8676243" lon="11.7998771"><ele>1664.0</ele><time>2026-04-11T14:05:59.963Z</time></trkpt><trkpt lat="45.8677139" lon="11.7999003"><ele>1664.0</ele><time>2026-04-11T14:06:00.965Z</time></trkpt><trkpt lat="45.8678036" lon="11.7999298"><ele>1663.0</ele><time>2026-04-11T14:06:01.963Z</time></trkpt><trkpt lat="45.8678843" lon="11.7999922"><ele>1662.0</ele><time>2026-04-11T14:06:02.958Z</time></trkpt><trkpt lat="45.8679752" lon="11.8000542"><ele>1661.0</ele><time>2026-04-11T14:06:03.963Z</time></trkpt><trkpt lat="45.8680683" lon="11.8001232"><ele>1660.0</ele><time>2026-04-11T14:06:04.965Z</time></trkpt><trkpt lat="45.8681549" lon="11.8001958"><ele>1659.0</ele><time>2026-04-11T14:06:06.014Z</time></trkpt><trkpt lat="45.8682338" lon="11.8002727"><ele>1659.0</ele><time>2026-04-11T14:06:06.956Z</time></trkpt><trkpt lat="45.868313" lon="11.8003603"><ele>1659.0</ele><time>2026-04-11T14:06:07.958Z</time></trkpt><trkpt lat="45.8683864" lon="11.8004464"><ele>1659.0</ele><time>2026-04-11T14:06:08.97Z</time></trkpt><trkpt lat="45.8684488" lon="11.8005307"><ele>1659.0</ele><time>2026-04-11T14:06:09.961Z</time></trkpt><trkpt lat="45.8685097" lon="11.8006172"><ele>1659.0</ele><time>2026-04-11T14:06:10.958Z</time></trkpt><trkpt lat="45.8685743" lon="11.8007098"><ele>1662.2</ele><time>2026-04-11T14:06:11.961Z</time></trkpt><trkpt lat="45.8686412" lon="11.8008098"><ele>1665.4</ele><time>2026-04-11T14:06:12.967Z</time></trkpt><trkpt lat="45.8687096" lon="11.8009166"><ele>1668.6</ele><time>2026-04-11T14:06:13.963Z</time></trkpt><trkpt lat="45.8687858" lon="11.8010221"><ele>1671.8</ele><time>2026-04-11T14:06:14.956Z</time></trkpt><trkpt lat="45.8688684" lon="11.8011274"><ele>1675.0</ele><time>2026-04-11T14:06:15.969Z</time></trkpt><trkpt lat="45.8689561" lon="11.801233"><ele>1675.0</ele><time>2026-04-11T14:06:16.96Z</time></trkpt><trkpt lat="45.8690457" lon="11.8013395"><ele>1675.0</ele><time>2026-04-11T14:06:17.958Z</time></trkpt><trkpt lat="45.8691387" lon="11.8014439"><ele>1675.0</ele><time>2026-04-11T14:06:18.967Z</time></trkpt><trkpt lat="45.8692317" lon="11.8015467"><ele>1675.0</ele><time>2026-04-11T14:06:19.961Z</time></trkpt><trkpt lat="45.8693243" lon="11.801633"><ele>1677.6</ele><time>2026-04-11T14:06:20.961Z</time></trkpt><trkpt lat="45.8694226" lon="11.8016892"><ele>1680.2</ele><time>2026-04-11T14:06:21.961Z</time></trkpt><trkpt lat="45.869527" lon="11.8017154"><ele>1682.8000000000002</ele><time>2026-04-11T14:06:22.959Z</time></trkpt><trkpt lat="45.8696336" lon="11.8017088"><ele>1685.4</ele><time>2026-04-11T14:06:23.966Z</time></trkpt><trkpt lat="45.8697402" lon="11.8016776"><ele>1688.0</ele><time>2026-04-11T14:06:24.952Z</time></trkpt><trkpt lat="45.8698486" lon="11.8016352"><ele>1688.0</ele><time>2026-04-11T14:06:25.973Z</time></trkpt><trkpt lat="45.8699606" lon="11.8015965"><ele>1688.0</ele><time>2026-04-11T14:06:26.969Z</time></trkpt><trkpt lat="45.8700761" lon="11.8015621"><ele>1688.0</ele><time>2026-04-11T14:06:27.963Z</time></trkpt><trkpt lat="45.8701937" lon="11.8015314"><ele>1688.0</ele><time>2026-04-11T14:06:28.96Z</time></trkpt><trkpt lat="45.8703129" lon="11.8015083"><ele>1688.75</ele><time>2026-04-11T14:06:29.963Z</time></trkpt><trkpt lat="45.8704309" lon="11.8014949"><ele>1689.5</ele><time>2026-04-11T14:06:30.966Z</time></trkpt><trkpt lat="45.8705483" lon="11.8015019"><ele>1690.25</ele><time>2026-04-11T14:06:31.956Z</time></trkpt><trkpt lat="45.8706624" lon="11.8015289"><ele>1691.0</ele><time>2026-04-11T14:06:32.961Z</time></trkpt><trkpt lat="45.8707768" lon="11.8015405"><ele>1691.0</ele><time>2026-04-11T14:06:33.976Z</time></trkpt><trkpt lat="45.8708906" lon="11.8015174"><ele>1691.0</ele><time>2026-04-11T14:06:34.964Z</time></trkpt><trkpt lat="45.8709993" lon="11.8014612"><ele>1691.0</ele><time>2026-04-11T14:06:35.964Z</time></trkpt><trkpt lat="45.8711019" lon="11.8013828"><ele>1691.0</ele><time>2026-04-11T14:06:36.96Z</time></trkpt><trkpt lat="45.8712008" lon="11.8012948"><ele>1690.5</ele><time>2026-04-11T14:06:37.968Z</time></trkpt><trkpt lat="45.8713009" lon="11.801211"><ele>1690.0</ele><time>2026-04-11T14:06:38.961Z</time></trkpt><trkpt lat="45.871405" lon="11.8011394"><ele>1689.5</ele><time>2026-04-11T14:06:39.973Z</time></trkpt><trkpt lat="45.8715154" lon="11.801101"><ele>1689.0</ele><time>2026-04-11T14:06:40.965Z</time></trkpt><trkpt lat="45.8716299" lon="11.8011074"><ele>1689.0</ele><time>2026-04-11T14:06:41.967Z</time></trkpt><trkpt lat="45.871747" lon="11.8011369"><ele>1689.0</ele><time>2026-04-11T14:06:42.963Z</time></trkpt><trkpt lat="45.871866" lon="11.8011692"><ele>1689.0</ele><time>2026-04-11T14:06:43.961Z</time></trkpt><trkpt lat="45.8719856" lon="11.801199"><ele>1689.0</ele><time>2026-04-11T14:06:44.958Z</time></trkpt><trkpt lat="45.8721031" lon="11.8012258"><ele>1692.8000000000002</ele><time>2026-04-11T14:06:45.967Z</time></trkpt><trkpt lat="45.8722184" lon="11.8012524"><ele>1696.6000000000001</ele><time>2026-04-11T14:06:46.963Z</time></trkpt><trkpt lat="45.8723225" lon="11.80128"><ele>1700.4</ele><time>2026-04-11T14:06:47.956Z</time></trkpt><trkpt lat="45.8724168" lon="11.8013113"><ele>1704.2</ele><time>2026-04-11T14:06:48.965Z</time></trkpt><trkpt lat="45.8725027" lon="11.8013502"><ele>1708.0</ele><time>2026-04-11T14:06:49.957Z</time></trkpt><trkpt lat="45.87258" lon="11.8014008"><ele>1710.3333333333335</ele><time>2026-04-11T14:06:50.952Z</time></trkpt><trkpt lat="45.8726498" lon="11.8014655"><ele>1712.6666666666667</ele><time>2026-04-11T14:06:51.956Z</time></trkpt><trkpt lat="45.8727108" lon="11.8015425"><ele>1715.0</ele><time>2026-04-11T14:06:52.972Z</time></trkpt><trkpt lat="45.8727663" lon="11.8016292"><ele>1717.3333333333335</ele><time>2026-04-11T14:06:53.952Z</time></trkpt><trkpt lat="45.8728191" lon="11.8017228"><ele>1719.6666666666667</ele><time>2026-04-11T14:06:54.979Z</time></trkpt><trkpt lat="45.8728681" lon="11.8018236"><ele>1722.0</ele><time>2026-04-11T14:06:55.955Z</time></trkpt><trkpt lat="45.8729117" lon="11.8019326"><ele>1722.0</ele><time>2026-04-11T14:06:56.961Z</time></trkpt><trkpt lat="45.87295" lon="11.8020463"><ele>1722.0</ele><time>2026-04-11T14:06:57.955Z</time></trkpt><trkpt lat="45.8729854" lon="11.8021626"><ele>1722.0</ele><time>2026-04-11T14:06:58.964Z</time></trkpt><trkpt lat="45.873018" lon="11.8022803"><ele>1722.0</ele><time>2026-04-11T14:06:59.956Z</time></trkpt><trkpt lat="45.8730452" lon="11.8024012"><ele>1722.0</ele><time>2026-04-11T14:07:00.961Z</time></trkpt><trkpt lat="45.8730626" lon="11.8025243"><ele>1722.0</ele><time>2026-04-11T14:07:01.96Z</time></trkpt><trkpt lat="45.8730716" lon="11.8026496"><ele>1721.5</ele><time>2026-04-11T14:07:02.96Z</time></trkpt><trkpt lat="45.8730764" lon="11.8027748"><ele>1721.0</ele><time>2026-04-11T14:07:03.958Z</time></trkpt><trkpt lat="45.8730856" lon="11.8029002"><ele>1720.5</ele><time>2026-04-11T14:07:04.956Z</time></trkpt><trkpt lat="45.8731059" lon="11.8030245"><ele>1720.0</ele><time>2026-04-11T14:07:05.957Z</time></trkpt><trkpt lat="45.8731363" lon="11.8031468"><ele>1719.5</ele><time>2026-04-11T14:07:06.965Z</time></trkpt><trkpt lat="45.8731728" lon="11.8032667"><ele>1719.0</ele><time>2026-04-11T14:07:07.971Z</time></trkpt><trkpt lat="45.8732131" lon="11.8033825"><ele>1719.0</ele><time>2026-04-11T14:07:08.961Z</time></trkpt><trkpt lat="45.8732535" lon="11.803479"><ele>1719.0</ele><time>2026-04-11T14:07:09.968Z</time></trkpt><trkpt lat="45.8732957" lon="11.8035481"><ele>1719.0</ele><time>2026-04-11T14:07:10.968Z</time></trkpt><trkpt lat="45.8733954" lon="11.803572"><ele>1719.0</ele><time>2026-04-11T14:07:12.965Z</time></trkpt><trkpt lat="45.8734738" lon="11.8034594"><ele>1719.0</ele><time>2026-04-11T14:07:14.961Z</time></trkpt><trkpt lat="45.8735002" lon="11.8033764"><ele>1719.0</ele><time>2026-04-11T14:07:15.977Z</time></trkpt><trkpt lat="45.8735307" lon="11.8032128"><ele>1715.8000000000002</ele><time>2026-04-11T14:07:17.965Z</time></trkpt><trkpt lat="45.873556" lon="11.8030676"><ele>1712.6000000000001</ele><time>2026-04-11T14:07:19.957Z</time></trkpt><trkpt lat="45.873613" lon="11.8030133"><ele>1709.4</ele><time>2026-04-11T14:07:22.96Z</time></trkpt><trkpt lat="45.8736015" lon="11.8028829"><ele>1706.2</ele><time>2026-04-11T14:07:55.97Z</time></trkpt><trkpt lat="45.8735939" lon="11.802731"><ele>1703.0</ele><time>2026-04-11T14:07:57.962Z</time></trkpt><trkpt lat="45.8735741" lon="11.8026119"><ele>1702.9999999999998</ele><time>2026-04-11T14:07:59.973Z</time></trkpt><trkpt lat="45.873561" lon="11.8025189"><ele>1703.0</ele><time>2026-04-11T14:08:02.969Z</time></trkpt><trkpt lat="45.8735427" lon="11.8024006"><ele>1703.0</ele><time>2026-04-11T14:08:06.963Z</time></trkpt><trkpt lat="45.8735408" lon="11.8022707"><ele>1703.0</ele><time>2026-04-11T14:08:09.984Z</time></trkpt><trkpt lat="45.8735385" lon="11.8021704"><ele>1702.9999999999998</ele><time>2026-04-11T14:08:11.968Z</time></trkpt><trkpt lat="45.8735282" lon="11.8020787"><ele>1703.0</ele><time>2026-04-11T14:08:13.984Z</time></trkpt><trkpt lat="45.8735082" lon="11.8019406"><ele>1703.0</ele><time>2026-04-11T14:08:17.967Z</time></trkpt><trkpt lat="45.8734868" lon="11.8018447"><ele>1703.0</ele><time>2026-04-11T14:08:20.96Z</time></trkpt><trkpt lat="45.8734393" lon="11.8017664"><ele>1707.0</ele><time>2026-04-11T14:08:22.964Z</time></trkpt><trkpt lat="45.8733664" lon="11.8018193"><ele>1726.0</ele><time>2026-04-11T14:08:26.004Z</time></trkpt><trkpt lat="45.8733188" lon="11.8018848"><ele>1722.0</ele><time>2026-04-11T14:08:28.967Z</time></trkpt></trkseg><trkseg><trkpt lat="45.8733427" lon="11.8019761"><ele>1722.0</ele><time>2026-04-11T14:57:40.301Z</time></trkpt><trkpt lat="45.8733868" lon="11.8020613"><ele>1722.0</ele><time>2026-04-11T14:57:43.303Z</time></trkpt><trkpt lat="45.873394" lon="11.8021639"><ele>1722.0</ele><time>2026-04-11T14:57:45.289Z</time></trkpt><trkpt lat="45.8734055" lon="11.8022694"><ele>1722.0</ele><time>2026-04-11T14:57:47.29Z</time></trkpt><trkpt lat="45.8734393" lon="11.8023636"><ele>1722.0</ele><time>2026-04-11T14:57:49.296Z</time></trkpt><trkpt lat="45.8735027" lon="11.8025091"><ele>1722.0</ele><time>2026-04-11T14:57:52.297Z</time></trkpt><trkpt lat="45.873543" lon="11.8026142"><ele>1714.8333333333333</ele><time>2026-04-11T14:57:54.29Z</time></trkpt><trkpt lat="45.8735698" lon="11.8027357"><ele>1707.6666666666665</ele><time>2026-04-11T14:57:56.326Z</time></trkpt><trkpt lat="45.8735714" lon="11.8028853"><ele>1700.5</ele><time>2026-04-11T14:57:58.316Z</time></trkpt><trkpt lat="45.8735428" lon="11.8030514"><ele>1693.3333333333333</ele><time>2026-04-11T14:58:00.295Z</time></trkpt><trkpt lat="45.8735276" lon="11.8031401"><ele>1686.1666666666665</ele><time>2026-04-11T14:58:01.301Z</time></trkpt><trkpt lat="45.8735103" lon="11.8032319"><ele>1679.0</ele><time>2026-04-11T14:58:02.303Z</time></trkpt><trkpt lat="45.8734896" lon="11.8033217"><ele>1684.6</ele><time>2026-04-11T14:58:03.297Z</time></trkpt><trkpt lat="45.8734381" lon="11.8034679"><ele>1690.2</ele><time>2026-04-11T14:58:05.286Z</time></trkpt><trkpt lat="45.8733495" lon="11.8035258"><ele>1695.7999999999997</ele><time>2026-04-11T14:58:07.284Z</time></trkpt><trkpt lat="45.8732629" lon="11.8034291"><ele>1701.3999999999999</ele><time>2026-04-11T14:58:09.297Z</time></trkpt><trkpt lat="45.873227" lon="11.8033429"><ele>1707.0</ele><time>2026-04-11T14:58:10.294Z</time></trkpt><trkpt lat="45.873196" lon="11.8032472"><ele>1709.0</ele><time>2026-04-11T14:58:11.293Z</time></trkpt><trkpt lat="45.8731663" lon="11.8031438"><ele>1711.0</ele><time>2026-04-11T14:58:12.29Z</time></trkpt><trkpt lat="45.8731387" lon="11.8030278"><ele>1713.0</ele><time>2026-04-11T14:58:13.295Z</time></trkpt><trkpt lat="45.8731183" lon="11.8029001"><ele>1715.0</ele><time>2026-04-11T14:58:14.299Z</time></trkpt><trkpt lat="45.873108" lon="11.8027657"><ele>1717.0</ele><time>2026-04-11T14:58:15.302Z</time></trkpt><trkpt lat="45.8731028" lon="11.8026245"><ele>1719.0</ele><time>2026-04-11T14:58:16.285Z</time></trkpt><trkpt lat="45.8730899" lon="11.8024737"><ele>1719.6</ele><time>2026-04-11T14:58:17.29Z</time></trkpt><trkpt lat="45.8730758" lon="11.8023213"><ele>1720.2</ele><time>2026-04-11T14:58:18.29Z</time></trkpt><trkpt lat="45.8730413" lon="11.8021691"><ele>1720.7999999999997</ele><time>2026-04-11T14:58:19.298Z</time></trkpt><trkpt lat="45.8729995" lon="11.8020204"><ele>1721.3999999999999</ele><time>2026-04-11T14:58:20.288Z</time></trkpt><trkpt lat="45.8729515" lon="11.801876"><ele>1722.0</ele><time>2026-04-11T14:58:21.296Z</time></trkpt><trkpt lat="45.8728942" lon="11.8017422"><ele>1723.0</ele><time>2026-04-11T14:58:22.291Z</time></trkpt><trkpt lat="45.8728266" lon="11.8016165"><ele>1724.0</ele><time>2026-04-11T14:58:23.285Z</time></trkpt><trkpt lat="45.8727482" lon="11.8015015"><ele>1725.0</ele><time>2026-04-11T14:58:24.282Z</time></trkpt><trkpt lat="45.8726569" lon="11.8014035"><ele>1726.0</ele><time>2026-04-11T14:58:25.286Z</time></trkpt><trkpt lat="45.8725556" lon="11.8013229"><ele>1721.5</ele><time>2026-04-11T14:58:26.29Z</time></trkpt><trkpt lat="45.8724456" lon="11.8012646"><ele>1717.0</ele><time>2026-04-11T14:58:27.29Z</time></trkpt><trkpt lat="45.8723303" lon="11.8012267"><ele>1712.5</ele><time>2026-04-11T14:58:28.287Z</time></trkpt><trkpt lat="45.8722104" lon="11.8011975"><ele>1708.0</ele><time>2026-04-11T14:58:29.289Z</time></trkpt><trkpt lat="45.8720888" lon="11.8011682"><ele>1708.0</ele><time>2026-04-11T14:58:30.284Z</time></trkpt><trkpt lat="45.8719638" lon="11.801141"><ele>1708.0</ele><time>2026-04-11T14:58:31.285Z</time></trkpt><trkpt lat="45.8718373" lon="11.8011114"><ele>1708.0</ele><time>2026-04-11T14:58:32.287Z</time></trkpt><trkpt lat="45.8717088" lon="11.8010826"><ele>1708.0</ele><time>2026-04-11T14:58:33.292Z</time></trkpt><trkpt lat="45.8715811" lon="11.801066"><ele>1703.25</ele><time>2026-04-11T14:58:34.287Z</time></trkpt><trkpt lat="45.8714552" lon="11.8010895"><ele>1698.5</ele><time>2026-04-11T14:58:35.29Z</time></trkpt><trkpt lat="45.8713388" lon="11.8011532"><ele>1693.75</ele><time>2026-04-11T14:58:36.291Z</time></trkpt><trkpt lat="45.871229" lon="11.801239"><ele>1689.0</ele><time>2026-04-11T14:58:37.299Z</time></trkpt><trkpt lat="45.8711208" lon="11.8013299"><ele>1689.0</ele><time>2026-04-11T14:58:38.291Z</time></trkpt><trkpt lat="45.8710165" lon="11.8014154"><ele>1689.0</ele><time>2026-04-11T14:58:39.292Z</time></trkpt><trkpt lat="45.8709128" lon="11.8014725"><ele>1689.0</ele><time>2026-04-11T14:58:40.29Z</time></trkpt><trkpt lat="45.8708042" lon="11.8014879"><ele>1689.0</ele><time>2026-04-11T14:58:41.296Z</time></trkpt><trkpt lat="45.8706947" lon="11.8014675"><ele>1689.5</ele><time>2026-04-11T14:58:42.282Z</time></trkpt><trkpt lat="45.8705841" lon="11.8014432"><ele>1690.0</ele><time>2026-04-11T14:58:43.292Z</time></trkpt><trkpt lat="45.8704706" lon="11.8014382"><ele>1690.5</ele><time>2026-04-11T14:58:44.279Z</time></trkpt><trkpt lat="45.8703551" lon="11.8014515"><ele>1691.0</ele><time>2026-04-11T14:58:45.291Z</time></trkpt><trkpt lat="45.8702388" lon="11.8014739"><ele>1691.0</ele><time>2026-04-11T14:58:46.281Z</time></trkpt><trkpt lat="45.870121" lon="11.8015022"><ele>1691.0</ele><time>2026-04-11T14:58:47.285Z</time></trkpt><trkpt lat="45.8700029" lon="11.8015369"><ele>1691.0</ele><time>2026-04-11T14:58:48.281Z</time></trkpt><trkpt lat="45.8698888" lon="11.8015796"><ele>1691.0</ele><time>2026-04-11T14:58:49.297Z</time></trkpt><trkpt lat="45.8697813" lon="11.8016217"><ele>1690.4</ele><time>2026-04-11T14:58:50.286Z</time></trkpt><trkpt lat="45.8696765" lon="11.8016584"><ele>1689.8</ele><time>2026-04-11T14:58:51.288Z</time></trkpt><trkpt lat="45.8695742" lon="11.8016748"><ele>1689.2</ele><time>2026-04-11T14:58:52.283Z</time></trkpt><trkpt lat="45.8694705" lon="11.8016608"><ele>1688.6000000000001</ele><time>2026-04-11T14:58:53.285Z</time></trkpt><trkpt lat="45.8693689" lon="11.8016183"><ele>1688.0</ele><time>2026-04-11T14:58:54.279Z</time></trkpt><trkpt lat="45.8692702" lon="11.8015488"><ele>1684.75</ele><time>2026-04-11T14:58:55.294Z</time></trkpt><trkpt lat="45.8691762" lon="11.8014623"><ele>1681.5</ele><time>2026-04-11T14:58:56.287Z</time></trkpt><trkpt lat="45.8690838" lon="11.8013585"><ele>1678.25</ele><time>2026-04-11T14:58:57.289Z</time></trkpt><trkpt lat="45.8689861" lon="11.8012348"><ele>1675.0</ele><time>2026-04-11T14:58:58.332Z</time></trkpt><trkpt lat="45.8688832" lon="11.801098"><ele>1681.0</ele><time>2026-04-11T14:58:59.303Z</time></trkpt><trkpt lat="45.8687788" lon="11.8009505"><ele>1687.0</ele><time>2026-04-11T14:59:00.307Z</time></trkpt><trkpt lat="45.8686747" lon="11.8007952"><ele>1693.0</ele><time>2026-04-11T14:59:01.289Z</time></trkpt><trkpt lat="45.8685701" lon="11.8006365"><ele>1699.0</ele><time>2026-04-11T14:59:02.279Z</time></trkpt><trkpt lat="45.868461" lon="11.800483"><ele>1693.3333333333335</ele><time>2026-04-11T14:59:03.285Z</time></trkpt><trkpt lat="45.8683472" lon="11.8003381"><ele>1687.6666666666665</ele><time>2026-04-11T14:59:04.278Z</time></trkpt><trkpt lat="45.8682269" lon="11.8002043"><ele>1682.0</ele><time>2026-04-11T14:59:05.307Z</time></trkpt><trkpt lat="45.8680995" lon="11.8000846"><ele>1682.0</ele><time>2026-04-11T14:59:06.299Z</time></trkpt><trkpt lat="45.8679641" lon="11.7999809"><ele>1682.0</ele><time>2026-04-11T14:59:07.279Z</time></trkpt><trkpt lat="45.867824" lon="11.7998927"><ele>1682.0</ele><time>2026-04-11T14:59:08.303Z</time></trkpt><trkpt lat="45.8676771" lon="11.7998267"><ele>1676.0</ele><time>2026-04-11T14:59:09.28Z</time></trkpt><trkpt lat="45.8675247" lon="11.7997922"><ele>1670.0</ele><time>2026-04-11T14:59:10.304Z</time></trkpt><trkpt lat="45.8673702" lon="11.7997921"><ele>1664.0</ele><time>2026-04-11T14:59:11.281Z</time></trkpt><trkpt lat="45.8672165" lon="11.7998151"><ele>1664.0</ele><time>2026-04-11T14:59:12.283Z</time></trkpt><trkpt lat="45.8670628" lon="11.7998446"><ele>1664.0</ele><time>2026-04-11T14:59:13.287Z</time></trkpt><trkpt lat="45.8669082" lon="11.7998709"><ele>1664.0</ele><time>2026-04-11T14:59:14.282Z</time></trkpt><trkpt lat="45.8667529" lon="11.7998887"><ele>1660.3333333333333</ele><time>2026-04-11T14:59:15.283Z</time></trkpt><trkpt lat="45.8665974" lon="11.7998923"><ele>1656.6666666666665</ele><time>2026-04-11T14:59:16.281Z</time></trkpt><trkpt lat="45.8664431" lon="11.7998777"><ele>1653.0</ele><time>2026-04-11T14:59:17.283Z</time></trkpt><trkpt lat="45.8662955" lon="11.7998339"><ele>1653.0</ele><time>2026-04-11T14:59:18.278Z</time></trkpt><trkpt lat="45.8661576" lon="11.7997621"><ele>1653.0</ele><time>2026-04-11T14:59:19.286Z</time></trkpt><trkpt lat="45.8660379" lon="11.7996712"><ele>1653.0</ele><time>2026-04-11T14:59:20.287Z</time></trkpt><trkpt lat="45.8659418" lon="11.7995543"><ele>1653.0</ele><time>2026-04-11T14:59:21.291Z</time></trkpt><trkpt lat="45.8658753" lon="11.7994027"><ele>1651.0</ele><time>2026-04-11T14:59:22.284Z</time></trkpt><trkpt lat="45.8658374" lon="11.7992222"><ele>1649.0</ele><time>2026-04-11T14:59:23.28Z</time></trkpt><trkpt lat="45.8658205" lon="11.7990416"><ele>1647.0</ele><time>2026-04-11T14:59:24.286Z</time></trkpt><trkpt lat="45.8658245" lon="11.798879"><ele>1645.0</ele><time>2026-04-11T14:59:25.282Z</time></trkpt><trkpt lat="45.8658421" lon="11.7987474"><ele>1645.0</ele><time>2026-04-11T14:59:26.291Z</time></trkpt><trkpt lat="45.8659031" lon="11.7986153"><ele>1645.0</ele><time>2026-04-11T14:59:27.286Z</time></trkpt><trkpt lat="45.866019" lon="11.7985367"><ele>1645.0</ele><time>2026-04-11T14:59:28.308Z</time></trkpt><trkpt lat="45.8661491" lon="11.7984748"><ele>1645.0</ele><time>2026-04-11T14:59:29.294Z</time></trkpt><trkpt lat="45.8662836" lon="11.798416"><ele>1643.6666666666667</ele><time>2026-04-11T14:59:30.294Z</time></trkpt><trkpt lat="45.8664251" lon="11.7983414"><ele>1642.3333333333335</ele><time>2026-04-11T14:59:31.287Z</time></trkpt><trkpt lat="45.8665662" lon="11.798267"><ele>1641.0</ele><time>2026-04-11T14:59:32.294Z</time></trkpt><trkpt lat="45.8667131" lon="11.7981843"><ele>1644.75</ele><time>2026-04-11T14:59:33.286Z</time></trkpt><trkpt lat="45.86685" lon="11.7981032"><ele>1648.5</ele><time>2026-04-11T14:59:34.294Z</time></trkpt><trkpt lat="45.8669902" lon="11.7980228"><ele>1652.25</ele><time>2026-04-11T14:59:35.284Z</time></trkpt><trkpt lat="45.8671255" lon="11.7979393"><ele>1656.0</ele><time>2026-04-11T14:59:36.286Z</time></trkpt><trkpt lat="45.8672477" lon="11.7978522"><ele>1656.0</ele><time>2026-04-11T14:59:37.284Z</time></trkpt><trkpt lat="45.8673543" lon="11.797737"><ele>1656.0</ele><time>2026-04-11T14:59:38.282Z</time></trkpt><trkpt lat="45.867439" lon="11.7975812"><ele>1656.0</ele><time>2026-04-11T14:59:39.286Z</time></trkpt><trkpt lat="45.8674997" lon="11.7974051"><ele>1656.0</ele><time>2026-04-11T14:59:40.305Z</time></trkpt><trkpt lat="45.8675468" lon="11.7972156"><ele>1649.5</ele><time>2026-04-11T14:59:41.293Z</time></trkpt><trkpt lat="45.8675883" lon="11.797017"><ele>1643.0</ele><time>2026-04-11T14:59:42.283Z</time></trkpt><trkpt lat="45.8676265" lon="11.7968233"><ele>1636.5</ele><time>2026-04-11T14:59:43.285Z</time></trkpt><trkpt lat="45.8676703" lon="11.7966375"><ele>1630.0</ele><time>2026-04-11T14:59:44.281Z</time></trkpt><trkpt lat="45.8677293" lon="11.7964668"><ele>1630.0</ele><time>2026-04-11T14:59:45.286Z</time></trkpt><trkpt lat="45.8678119" lon="11.7963203"><ele>1630.0</ele><time>2026-04-11T14:59:46.287Z</time></trkpt><trkpt lat="45.8678994" lon="11.796178"><ele>1630.0</ele><time>2026-04-11T14:59:47.287Z</time></trkpt><trkpt lat="45.8679628" lon="11.7960128"><ele>1630.0</ele><time>2026-04-11T14:59:48.289Z</time></trkpt><trkpt lat="45.8680065" lon="11.795833"><ele>1629.25</ele><time>2026-04-11T14:59:49.277Z</time></trkpt><trkpt lat="45.8680656" lon="11.7956614"><ele>1628.5</ele><time>2026-04-11T14:59:50.293Z</time></trkpt><trkpt lat="45.8681449" lon="11.7955228"><ele>1627.75</ele><time>2026-04-11T14:59:51.29Z</time></trkpt><trkpt lat="45.8682331" lon="11.7954187"><ele>1627.0</ele><time>2026-04-11T14:59:52.286Z</time></trkpt><trkpt lat="45.8683102" lon="11.7953201"><ele>1627.0</ele><time>2026-04-11T14:59:53.28Z</time></trkpt><trkpt lat="45.8683943" lon="11.7952116"><ele>1627.0</ele><time>2026-04-11T14:59:54.297Z</time></trkpt><trkpt lat="45.8684307" lon="11.7950631"><ele>1627.0</ele><time>2026-04-11T14:59:55.28Z</time></trkpt><trkpt lat="45.8684313" lon="11.7948851"><ele>1627.0</ele><time>2026-04-11T14:59:56.302Z</time></trkpt><trkpt lat="45.8684285" lon="11.7947025"><ele>1623.25</ele><time>2026-04-11T14:59:57.291Z</time></trkpt><trkpt lat="45.8684231" lon="11.7945173"><ele>1619.5</ele><time>2026-04-11T14:59:58.321Z</time></trkpt><trkpt lat="45.8684114" lon="11.7943239"><ele>1615.75</ele><time>2026-04-11T14:59:59.279Z</time></trkpt><trkpt lat="45.8684072" lon="11.794133"><ele>1612.0</ele><time>2026-04-11T15:00:00.294Z</time></trkpt><trkpt lat="45.8684269" lon="11.7939349"><ele>1611.25</ele><time>2026-04-11T15:00:01.288Z</time></trkpt><trkpt lat="45.8684533" lon="11.7937365"><ele>1610.5</ele><time>2026-04-11T15:00:02.294Z</time></trkpt><trkpt lat="45.8684866" lon="11.7935347"><ele>1609.75</ele><time>2026-04-11T15:00:03.292Z</time></trkpt><trkpt lat="45.8685195" lon="11.7933333"><ele>1609.0</ele><time>2026-04-11T15:00:04.303Z</time></trkpt><trkpt lat="45.8685512" lon="11.7931381"><ele>1609.0</ele><time>2026-04-11T15:00:05.284Z</time></trkpt><trkpt lat="45.8685862" lon="11.7929717"><ele>1609.0</ele><time>2026-04-11T15:00:06.288Z</time></trkpt><trkpt lat="45.8686379" lon="11.7928282"><ele>1609.0</ele><time>2026-04-11T15:00:07.287Z</time></trkpt><trkpt lat="45.8687165" lon="11.7927021"><ele>1609.0</ele><time>2026-04-11T15:00:08.294Z</time></trkpt><trkpt lat="45.8688186" lon="11.7925927"><ele>1607.25</ele><time>2026-04-11T15:00:09.287Z</time></trkpt><trkpt lat="45.8689354" lon="11.7924941"><ele>1605.5</ele><time>2026-04-11T15:00:10.292Z</time></trkpt><trkpt lat="45.8690599" lon="11.7923936"><ele>1603.75</ele><time>2026-04-11T15:00:11.292Z</time></trkpt><trkpt lat="45.869187" lon="11.7922861"><ele>1602.0</ele><time>2026-04-11T15:00:12.297Z</time></trkpt><trkpt lat="45.8693169" lon="11.7921738"><ele>1602.0</ele><time>2026-04-11T15:00:13.286Z</time></trkpt><trkpt lat="45.8694489" lon="11.7920586"><ele>1602.0</ele><time>2026-04-11T15:00:14.294Z</time></trkpt><trkpt lat="45.8695787" lon="11.7919492"><ele>1602.0</ele><time>2026-04-11T15:00:15.29Z</time></trkpt><trkpt lat="45.8697066" lon="11.7918477"><ele>1604.75</ele><time>2026-04-11T15:00:16.305Z</time></trkpt><trkpt lat="45.8698326" lon="11.7917544"><ele>1607.5</ele><time>2026-04-11T15:00:17.288Z</time></trkpt><trkpt lat="45.8699551" lon="11.791674"><ele>1610.25</ele><time>2026-04-11T15:00:18.284Z</time></trkpt><trkpt lat="45.8700673" lon="11.7915989"><ele>1613.0</ele><time>2026-04-11T15:00:19.289Z</time></trkpt><trkpt lat="45.8701612" lon="11.7914964"><ele>1613.0</ele><time>2026-04-11T15:00:20.286Z</time></trkpt><trkpt lat="45.8702301" lon="11.7913522"><ele>1613.0</ele><time>2026-04-11T15:00:21.284Z</time></trkpt><trkpt lat="45.8702643" lon="11.7911763"><ele>1613.0</ele><time>2026-04-11T15:00:22.293Z</time></trkpt><trkpt lat="45.8702589" lon="11.7909885"><ele>1613.0</ele><time>2026-04-11T15:00:23.292Z</time></trkpt><trkpt lat="45.8702243" lon="11.790796"><ele>1612.25</ele><time>2026-04-11T15:00:24.284Z</time></trkpt><trkpt lat="45.8701869" lon="11.7905987"><ele>1611.5</ele><time>2026-04-11T15:00:25.287Z</time></trkpt><trkpt lat="45.8701565" lon="11.7903929"><ele>1610.75</ele><time>2026-04-11T15:00:26.291Z</time></trkpt><trkpt lat="45.8701293" lon="11.7901822"><ele>1610.0</ele><time>2026-04-11T15:00:27.285Z</time></trkpt><trkpt lat="45.8700971" lon="11.7899689"><ele>1600.0</ele><time>2026-04-11T15:00:28.28Z</time></trkpt><trkpt lat="45.8700648" lon="11.7897598"><ele>1590.0</ele><time>2026-04-11T15:00:29.29Z</time></trkpt><trkpt lat="45.8700374" lon="11.7895548"><ele>1580.0</ele><time>2026-04-11T15:00:30.285Z</time></trkpt><trkpt lat="45.8700156" lon="11.78935"><ele>1570.0</ele><time>2026-04-11T15:00:31.284Z</time></trkpt><trkpt lat="45.8699985" lon="11.789146"><ele>1570.0</ele><time>2026-04-11T15:00:32.283Z</time></trkpt><trkpt lat="45.8699844" lon="11.7889448"><ele>1570.0</ele><time>2026-04-11T15:00:33.283Z</time></trkpt><trkpt lat="45.8699706" lon="11.7887451"><ele>1570.0</ele><time>2026-04-11T15:00:34.296Z</time></trkpt><trkpt lat="45.8699549" lon="11.7885457"><ele>1570.0</ele><time>2026-04-11T15:00:35.29Z</time></trkpt><trkpt lat="45.8699378" lon="11.7883444"><ele>1569.5</ele><time>2026-04-11T15:00:36.302Z</time></trkpt><trkpt lat="45.8699205" lon="11.7881447"><ele>1569.0</ele><time>2026-04-11T15:00:37.285Z</time></trkpt><trkpt lat="45.8699049" lon="11.7879492"><ele>1568.5</ele><time>2026-04-11T15:00:38.283Z</time></trkpt><trkpt lat="45.8698956" lon="11.7877547"><ele>1568.0</ele><time>2026-04-11T15:00:39.282Z</time></trkpt><trkpt lat="45.8698948" lon="11.787564"><ele>1566.5</ele><time>2026-04-11T15:00:40.29Z</time></trkpt><trkpt lat="45.8698816" lon="11.7873761"><ele>1565.0</ele><time>2026-04-11T15:00:41.279Z</time></trkpt><trkpt lat="45.8698395" lon="11.7871989"><ele>1563.5</ele><time>2026-04-11T15:00:42.307Z</time></trkpt><trkpt lat="45.8697776" lon="11.7870366"><ele>1562.0</ele><time>2026-04-11T15:00:43.285Z</time></trkpt><trkpt lat="45.8697122" lon="11.7868815"><ele>1561.5</ele><time>2026-04-11T15:00:44.287Z</time></trkpt><trkpt lat="45.8696517" lon="11.7867269"><ele>1561.0</ele><time>2026-04-11T15:00:45.29Z</time></trkpt><trkpt lat="45.8695978" lon="11.7865717"><ele>1560.5</ele><time>2026-04-11T15:00:46.282Z</time></trkpt><trkpt lat="45.8695565" lon="11.7864133"><ele>1560.0</ele><time>2026-04-11T15:00:47.286Z</time></trkpt><trkpt lat="45.8695227" lon="11.7862666"><ele>1560.0</ele><time>2026-04-11T15:00:48.298Z</time></trkpt><trkpt lat="45.8695153" lon="11.7861211"><ele>1560.0</ele><time>2026-04-11T15:00:49.285Z</time></trkpt><trkpt lat="45.869501" lon="11.7860011"><ele>1560.0</ele><time>2026-04-11T15:00:50.301Z</time></trkpt><trkpt lat="45.8694759" lon="11.7859039"><ele>1560.0</ele><time>2026-04-11T15:00:51.279Z</time></trkpt><trkpt lat="45.8693763" lon="11.7858521"><ele>1560.0</ele><time>2026-04-11T15:00:53.286Z</time></trkpt><trkpt lat="45.8693103" lon="11.7859181"><ele>1560.0</ele><time>2026-04-11T15:00:56.293Z</time></trkpt><trkpt lat="45.8693222" lon="11.7861178"><ele>1560.0</ele><time>2026-04-11T15:00:58.281Z</time></trkpt><trkpt lat="45.8693507" lon="11.7862409"><ele>1560.0</ele><time>2026-04-11T15:00:59.292Z</time></trkpt><trkpt lat="45.8693757" lon="11.7863617"><ele>1560.0</ele><time>2026-04-11T15:01:00.283Z</time></trkpt><trkpt lat="45.869395" lon="11.786488"><ele>1560.0</ele><time>2026-04-11T15:01:01.286Z</time></trkpt><trkpt lat="45.8694086" lon="11.7866274"><ele>1560.0</ele><time>2026-04-11T15:01:02.288Z</time></trkpt><trkpt lat="45.8694218" lon="11.7867568"><ele>1560.2857142857142</ele><time>2026-04-11T15:01:03.288Z</time></trkpt><trkpt lat="45.8694401" lon="11.7868751"><ele>1560.5714285714284</ele><time>2026-04-11T15:01:04.288Z</time></trkpt><trkpt lat="45.8694581" lon="11.7869757"><ele>1560.857142857143</ele><time>2026-04-11T15:01:05.296Z</time></trkpt><trkpt lat="45.8694793" lon="11.7870675"><ele>1561.142857142857</ele><time>2026-04-11T15:01:06.283Z</time></trkpt><trkpt lat="45.8695015" lon="11.7871581"><ele>1561.4285714285716</ele><time>2026-04-11T15:01:07.288Z</time></trkpt><trkpt lat="45.8695157" lon="11.7872507"><ele>1561.7142857142858</ele><time>2026-04-11T15:01:08.29Z</time></trkpt><trkpt lat="45.8695075" lon="11.7873553"><ele>1562.0</ele><time>2026-04-11T15:01:09.283Z</time></trkpt><trkpt lat="45.8694673" lon="11.7874528"><ele>1562.0</ele><time>2026-04-11T15:01:10.29Z</time></trkpt><trkpt lat="45.8694163" lon="11.7875627"><ele>1562.0</ele><time>2026-04-11T15:01:11.283Z</time></trkpt><trkpt lat="45.8693813" lon="11.7877024"><ele>1562.0</ele><time>2026-04-11T15:01:12.28Z</time></trkpt><trkpt lat="45.8693624" lon="11.7878637"><ele>1562.0</ele><time>2026-04-11T15:01:13.284Z</time></trkpt><trkpt lat="45.8693516" lon="11.7880422"><ele>1562.0</ele><time>2026-04-11T15:01:14.278Z</time></trkpt><trkpt lat="45.8693406" lon="11.7882289"><ele>1563.1999999999998</ele><time>2026-04-11T15:01:15.286Z</time></trkpt><trkpt lat="45.8693291" lon="11.7884119"><ele>1564.4</ele><time>2026-04-11T15:01:16.289Z</time></trkpt><trkpt lat="45.869315" lon="11.7885751"><ele>1565.6</ele><time>2026-04-11T15:01:17.291Z</time></trkpt><trkpt lat="45.8692967" lon="11.7887149"><ele>1566.8000000000002</ele><time>2026-04-11T15:01:18.304Z</time></trkpt><trkpt lat="45.8692385" lon="11.7888338"><ele>1568.0</ele><time>2026-04-11T15:01:19.288Z</time></trkpt><trkpt lat="45.869153" lon="11.7889099"><ele>1561.0</ele><time>2026-04-11T15:01:20.285Z</time></trkpt><trkpt lat="45.8690456" lon="11.7889315"><ele>1554.0</ele><time>2026-04-11T15:01:21.28Z</time></trkpt><trkpt lat="45.8689269" lon="11.7889344"><ele>1547.0</ele><time>2026-04-11T15:01:22.286Z</time></trkpt><trkpt lat="45.8688109" lon="11.7889451"><ele>1540.0</ele><time>2026-04-11T15:01:23.277Z</time></trkpt><trkpt lat="45.8687092" lon="11.7889708"><ele>1533.0</ele><time>2026-04-11T15:01:24.289Z</time></trkpt><trkpt lat="45.8686286" lon="11.7889952"><ele>1533.0</ele><time>2026-04-11T15:01:25.293Z</time></trkpt><trkpt lat="45.868562" lon="11.7889921"><ele>1533.0</ele><time>2026-04-11T15:01:26.295Z</time></trkpt><trkpt lat="45.8685054" lon="11.7888509"><ele>1533.0</ele><time>2026-04-11T15:01:28.289Z</time></trkpt><trkpt lat="45.8685423" lon="11.7887717"><ele>1533.0</ele><time>2026-04-11T15:01:29.306Z</time></trkpt><trkpt lat="45.8685969" lon="11.7887023"><ele>1533.0</ele><time>2026-04-11T15:01:30.289Z</time></trkpt><trkpt lat="45.8687034" lon="11.7887012"><ele>1533.0</ele><time>2026-04-11T15:01:31.3Z</time></trkpt><trkpt lat="45.8688096" lon="11.7887091"><ele>1533.0</ele><time>2026-04-11T15:01:32.285Z</time></trkpt><trkpt lat="45.8689073" lon="11.7886883"><ele>1533.0</ele><time>2026-04-11T15:01:33.291Z</time></trkpt><trkpt lat="45.8689865" lon="11.7886305"><ele>1533.0</ele><time>2026-04-11T15:01:34.284Z</time></trkpt><trkpt lat="45.8690443" lon="11.7885249"><ele>1533.0</ele><time>2026-04-11T15:01:35.286Z</time></trkpt><trkpt lat="45.8690927" lon="11.7884072"><ele>1533.0</ele><time>2026-04-11T15:01:36.291Z</time></trkpt><trkpt lat="45.8690631" lon="11.7882556"><ele>1531.0</ele><time>2026-04-11T15:01:37.289Z</time></trkpt><trkpt lat="45.868996" lon="11.7881129"><ele>1529.0</ele><time>2026-04-11T15:01:38.293Z</time></trkpt><trkpt lat="45.8689058" lon="11.7879776"><ele>1527.0</ele><time>2026-04-11T15:01:39.287Z</time></trkpt><trkpt lat="45.8688155" lon="11.7878376"><ele>1525.0</ele><time>2026-04-11T15:01:40.311Z</time></trkpt><trkpt lat="45.8687214" lon="11.7876986"><ele>1525.0</ele><time>2026-04-11T15:01:41.288Z</time></trkpt><trkpt lat="45.8686224" lon="11.7875634"><ele>1525.0</ele><time>2026-04-11T15:01:42.286Z</time></trkpt><trkpt lat="45.8685092" lon="11.7874471"><ele>1525.0</ele><time>2026-04-11T15:01:43.282Z</time></trkpt><trkpt lat="45.8683941" lon="11.7873819"><ele>1525.0</ele><time>2026-04-11T15:01:44.288Z</time></trkpt><trkpt lat="45.8682697" lon="11.7873509"><ele>1519.75</ele><time>2026-04-11T15:01:45.28Z</time></trkpt><trkpt lat="45.8681428" lon="11.7873462"><ele>1514.5</ele><time>2026-04-11T15:01:46.289Z</time></trkpt><trkpt lat="45.8680165" lon="11.7873404"><ele>1509.25</ele><time>2026-04-11T15:01:47.286Z</time></trkpt><trkpt lat="45.8678917" lon="11.7873257"><ele>1504.0</ele><time>2026-04-11T15:01:48.285Z</time></trkpt><trkpt lat="45.8677647" lon="11.7873078"><ele>1504.0</ele><time>2026-04-11T15:01:49.297Z</time></trkpt><trkpt lat="45.8676451" lon="11.7872892"><ele>1504.0</ele><time>2026-04-11T15:01:50.286Z</time></trkpt><trkpt lat="45.8675329" lon="11.7872567"><ele>1504.0</ele><time>2026-04-11T15:01:51.294Z</time></trkpt><trkpt lat="45.8674291" lon="11.787193"><ele>1504.0</ele><time>2026-04-11T15:01:52.321Z</time></trkpt><trkpt lat="45.8673456" lon="11.7870907"><ele>1503.6</ele><time>2026-04-11T15:01:53.294Z</time></trkpt><trkpt lat="45.8672867" lon="11.7869573"><ele>1503.2</ele><time>2026-04-11T15:01:54.282Z</time></trkpt><trkpt lat="45.8672476" lon="11.7868095"><ele>1502.8</ele><time>2026-04-11T15:01:55.28Z</time></trkpt><trkpt lat="45.8672181" lon="11.7866561"><ele>1502.3999999999999</ele><time>2026-04-11T15:01:56.289Z</time></trkpt><trkpt lat="45.8672031" lon="11.7864999"><ele>1502.0</ele><time>2026-04-11T15:01:57.286Z</time></trkpt><trkpt lat="45.8672095" lon="11.7863404"><ele>1502.0</ele><time>2026-04-11T15:01:58.283Z</time></trkpt><trkpt lat="45.8672384" lon="11.7861838"><ele>1502.0</ele><time>2026-04-11T15:01:59.285Z</time></trkpt><trkpt lat="45.8672874" lon="11.7860384"><ele>1502.0</ele><time>2026-04-11T15:02:00.319Z</time></trkpt><trkpt lat="45.867354" lon="11.7859049"><ele>1502.0</ele><time>2026-04-11T15:02:01.29Z</time></trkpt><trkpt lat="45.8674285" lon="11.7857755"><ele>1500.25</ele><time>2026-04-11T15:02:02.285Z</time></trkpt><trkpt lat="45.8675015" lon="11.7856318"><ele>1498.5</ele><time>2026-04-11T15:02:03.285Z</time></trkpt><trkpt lat="45.8675486" lon="11.7854629"><ele>1496.75</ele><time>2026-04-11T15:02:04.279Z</time></trkpt><trkpt lat="45.8675637" lon="11.7852703"><ele>1495.0</ele><time>2026-04-11T15:02:05.287Z</time></trkpt><trkpt lat="45.8675605" lon="11.785064"><ele>1492.5</ele><time>2026-04-11T15:02:06.292Z</time></trkpt><trkpt lat="45.8675502" lon="11.7848611"><ele>1490.0</ele><time>2026-04-11T15:02:07.291Z</time></trkpt><trkpt lat="45.8675391" lon="11.7846662"><ele>1487.5</ele><time>2026-04-11T15:02:08.286Z</time></trkpt><trkpt lat="45.8675442" lon="11.7845004"><ele>1485.0</ele><time>2026-04-11T15:02:09.29Z</time></trkpt><trkpt lat="45.8675798" lon="11.7843532"><ele>1487.6</ele><time>2026-04-11T15:02:10.283Z</time></trkpt><trkpt lat="45.8676498" lon="11.7842308"><ele>1490.2</ele><time>2026-04-11T15:02:11.301Z</time></trkpt><trkpt lat="45.8677246" lon="11.7841161"><ele>1492.8000000000002</ele><time>2026-04-11T15:02:12.292Z</time></trkpt><trkpt lat="45.867797" lon="11.7840092"><ele>1495.4</ele><time>2026-04-11T15:02:13.294Z</time></trkpt><trkpt lat="45.8678504" lon="11.7838889"><ele>1498.0</ele><time>2026-04-11T15:02:14.29Z</time></trkpt><trkpt lat="45.8678485" lon="11.7837474"><ele>1498.0</ele><time>2026-04-11T15:02:15.286Z</time></trkpt><trkpt lat="45.8677705" lon="11.7836264"><ele>1498.0</ele><time>2026-04-11T15:02:16.281Z</time></trkpt><trkpt lat="45.867677" lon="11.7835054"><ele>1498.0</ele><time>2026-04-11T15:02:17.286Z</time></trkpt><trkpt lat="45.8675655" lon="11.7833783"><ele>1498.0</ele><time>2026-04-11T15:02:18.293Z</time></trkpt><trkpt lat="45.8674472" lon="11.7832472"><ele>1490.3333333333333</ele><time>2026-04-11T15:02:19.288Z</time></trkpt><trkpt lat="45.8673152" lon="11.7831068"><ele>1482.6666666666667</ele><time>2026-04-11T15:02:20.293Z</time></trkpt><trkpt lat="45.8671752" lon="11.782961"><ele>1475.0</ele><time>2026-04-11T15:02:21.297Z</time></trkpt><trkpt lat="45.8670484" lon="11.7828236"><ele>1475.0</ele><time>2026-04-11T15:02:22.308Z</time></trkpt><trkpt lat="45.8669241" lon="11.7826951"><ele>1475.0</ele><time>2026-04-11T15:02:23.3Z</time></trkpt><trkpt lat="45.866802" lon="11.7825717"><ele>1475.0</ele><time>2026-04-11T15:02:24.337Z</time></trkpt><trkpt lat="45.866699" lon="11.7824397"><ele>1475.0</ele><time>2026-04-11T15:02:25.297Z</time></trkpt><trkpt lat="45.8666225" lon="11.7822977"><ele>1472.5</ele><time>2026-04-11T15:02:26.303Z</time></trkpt><trkpt lat="45.8665747" lon="11.7821374"><ele>1470.0</ele><time>2026-04-11T15:02:27.294Z</time></trkpt><trkpt lat="45.8665633" lon="11.7819631"><ele>1467.5</ele><time>2026-04-11T15:02:28.286Z</time></trkpt><trkpt lat="45.8665903" lon="11.7817843"><ele>1465.0</ele><time>2026-04-11T15:02:29.296Z</time></trkpt><trkpt lat="45.8666244" lon="11.7816"><ele>1465.0</ele><time>2026-04-11T15:02:30.289Z</time></trkpt><trkpt lat="45.86662" lon="11.7814056"><ele>1465.0</ele><time>2026-04-11T15:02:31.308Z</time></trkpt><trkpt lat="45.8666055" lon="11.7812076"><ele>1465.0</ele><time>2026-04-11T15:02:32.287Z</time></trkpt><trkpt lat="45.8665395" lon="11.7810153"><ele>1465.0</ele><time>2026-04-11T15:02:33.301Z</time></trkpt><trkpt lat="45.8664863" lon="11.7808131"><ele>1465.0</ele><time>2026-04-11T15:02:34.299Z</time></trkpt><trkpt lat="45.8664467" lon="11.7806012"><ele>1465.0</ele><time>2026-04-11T15:02:35.333Z</time></trkpt><trkpt lat="45.8664248" lon="11.7803943"><ele>1465.0</ele><time>2026-04-11T15:02:36.325Z</time></trkpt><trkpt lat="45.8664004" lon="11.7802037"><ele>1465.0</ele><time>2026-04-11T15:02:37.292Z</time></trkpt><trkpt lat="45.866387" lon="11.7800289"><ele>1464.5</ele><time>2026-04-11T15:02:38.299Z</time></trkpt><trkpt lat="45.8663957" lon="11.7798589"><ele>1464.0</ele><time>2026-04-11T15:02:39.293Z</time></trkpt><trkpt lat="45.8664374" lon="11.779685"><ele>1463.5</ele><time>2026-04-11T15:02:40.295Z</time></trkpt><trkpt lat="45.8664914" lon="11.7795125"><ele>1463.0</ele><time>2026-04-11T15:02:41.3Z</time></trkpt><trkpt lat="45.8665326" lon="11.7793223"><ele>1460.75</ele><time>2026-04-11T15:02:42.314Z</time></trkpt><trkpt lat="45.8665547" lon="11.7791172"><ele>1458.5</ele><time>2026-04-11T15:02:43.303Z</time></trkpt><trkpt lat="45.8665589" lon="11.7789037"><ele>1456.25</ele><time>2026-04-11T15:02:44.305Z</time></trkpt><trkpt lat="45.8665592" lon="11.7786846"><ele>1454.0</ele><time>2026-04-11T15:02:45.294Z</time></trkpt><trkpt lat="45.8665608" lon="11.778472"><ele>1451.3333333333335</ele><time>2026-04-11T15:02:46.296Z</time></trkpt><trkpt lat="45.8665716" lon="11.7782561"><ele>1448.6666666666667</ele><time>2026-04-11T15:02:47.299Z</time></trkpt><trkpt lat="45.8666037" lon="11.7780417"><ele>1446.0</ele><time>2026-04-11T15:02:48.301Z</time></trkpt><trkpt lat="45.8666512" lon="11.777823"><ele>1443.6666666666667</ele><time>2026-04-11T15:02:49.308Z</time></trkpt><trkpt lat="45.8667034" lon="11.7775964"><ele>1441.3333333333335</ele><time>2026-04-11T15:02:50.3Z</time></trkpt><trkpt lat="45.8667461" lon="11.7773586"><ele>1439.0</ele><time>2026-04-11T15:02:51.298Z</time></trkpt><trkpt lat="45.8667788" lon="11.7771126"><ele>1446.3333333333335</ele><time>2026-04-11T15:02:52.333Z</time></trkpt><trkpt lat="45.8668178" lon="11.7768654"><ele>1453.6666666666667</ele><time>2026-04-11T15:02:53.294Z</time></trkpt><trkpt lat="45.8668709" lon="11.7766184"><ele>1461.0</ele><time>2026-04-11T15:02:54.298Z</time></trkpt><trkpt lat="45.8669236" lon="11.7763656"><ele>1461.0</ele><time>2026-04-11T15:02:55.297Z</time></trkpt><trkpt lat="45.8669585" lon="11.7761045"><ele>1461.0</ele><time>2026-04-11T15:02:56.301Z</time></trkpt><trkpt lat="45.8669721" lon="11.7758385"><ele>1461.0</ele><time>2026-04-11T15:02:57.312Z</time></trkpt><trkpt lat="45.8669759" lon="11.7755777"><ele>1459.6666666666667</ele><time>2026-04-11T15:02:58.294Z</time></trkpt><trkpt lat="45.8669747" lon="11.7753348"><ele>1458.3333333333335</ele><time>2026-04-11T15:02:59.298Z</time></trkpt><trkpt lat="45.8669756" lon="11.7750845"><ele>1457.0</ele><time>2026-04-11T15:03:00.292Z</time></trkpt><trkpt lat="45.8669573" lon="11.7748608"><ele>1456.5</ele><time>2026-04-11T15:03:01.3Z</time></trkpt><trkpt lat="45.8669112" lon="11.7746462"><ele>1456.0</ele><time>2026-04-11T15:03:02.29Z</time></trkpt><trkpt lat="45.8668455" lon="11.7744606"><ele>1455.5</ele><time>2026-04-11T15:03:03.299Z</time></trkpt><trkpt lat="45.8667689" lon="11.7742935"><ele>1455.0</ele><time>2026-04-11T15:03:04.3Z</time></trkpt><trkpt lat="45.8666807" lon="11.7741597"><ele>1450.0</ele><time>2026-04-11T15:03:05.297Z</time></trkpt><trkpt lat="45.866593" lon="11.774065"><ele>1445.0</ele><time>2026-04-11T15:03:06.288Z</time></trkpt><trkpt lat="45.8665046" lon="11.7740161"><ele>1440.0</ele><time>2026-04-11T15:03:07.299Z</time></trkpt><trkpt lat="45.8664188" lon="11.7740275"><ele>1435.0</ele><time>2026-04-11T15:03:08.296Z</time></trkpt><trkpt lat="45.8663396" lon="11.7740983"><ele>1430.0</ele><time>2026-04-11T15:03:09.302Z</time></trkpt><trkpt lat="45.8662814" lon="11.7742185"><ele>1427.0</ele><time>2026-04-11T15:03:10.294Z</time></trkpt><trkpt lat="45.8662293" lon="11.7743645"><ele>1424.0</ele><time>2026-04-11T15:03:11.296Z</time></trkpt><trkpt lat="45.8661766" lon="11.7745291"><ele>1421.0</ele><time>2026-04-11T15:03:12.29Z</time></trkpt><trkpt lat="45.8661105" lon="11.7746968"><ele>1418.0</ele><time>2026-04-11T15:03:13.299Z</time></trkpt><trkpt lat="45.8660305" lon="11.7748664"><ele>1417.3333333333335</ele><time>2026-04-11T15:03:14.286Z</time></trkpt><trkpt lat="45.8659383" lon="11.7750353"><ele>1416.6666666666667</ele><time>2026-04-11T15:03:15.303Z</time></trkpt><trkpt lat="45.8658339" lon="11.7752018"><ele>1416.0</ele><time>2026-04-11T15:03:16.297Z</time></trkpt><trkpt lat="45.8657319" lon="11.7753673"><ele>1411.6666666666667</ele><time>2026-04-11T15:03:17.299Z</time></trkpt><trkpt lat="45.8656282" lon="11.775545"><ele>1407.3333333333335</ele><time>2026-04-11T15:03:18.293Z</time></trkpt><trkpt lat="45.8655183" lon="11.7757246"><ele>1403.0</ele><time>2026-04-11T15:03:19.3Z</time></trkpt><trkpt lat="45.8654053" lon="11.7759035"><ele>1402.0</ele><time>2026-04-11T15:03:20.287Z</time></trkpt><trkpt lat="45.8652855" lon="11.7760741"><ele>1401.0</ele><time>2026-04-11T15:03:21.316Z</time></trkpt><trkpt lat="45.8651592" lon="11.7762384"><ele>1400.0</ele><time>2026-04-11T15:03:22.297Z</time></trkpt><trkpt lat="45.8650307" lon="11.7764043"><ele>1399.6666666666667</ele><time>2026-04-11T15:03:23.297Z</time></trkpt><trkpt lat="45.8649038" lon="11.7765769"><ele>1399.3333333333333</ele><time>2026-04-11T15:03:24.345Z</time></trkpt><trkpt lat="45.8647832" lon="11.7767589"><ele>1399.0</ele><time>2026-04-11T15:03:25.298Z</time></trkpt><trkpt lat="45.8646674" lon="11.7769377"><ele>1396.5</ele><time>2026-04-11T15:03:26.289Z</time></trkpt><trkpt lat="45.8645627" lon="11.7771036"><ele>1394.0</ele><time>2026-04-11T15:03:27.301Z</time></trkpt><trkpt lat="45.8644609" lon="11.7772574"><ele>1391.5</ele><time>2026-04-11T15:03:28.294Z</time></trkpt><trkpt lat="45.8643585" lon="11.7773968"><ele>1389.0</ele><time>2026-04-11T15:03:29.288Z</time></trkpt><trkpt lat="45.864259" lon="11.7775152"><ele>1389.0</ele><time>2026-04-11T15:03:30.288Z</time></trkpt><trkpt lat="45.8641562" lon="11.7776108"><ele>1389.0</ele><time>2026-04-11T15:03:31.293Z</time></trkpt><trkpt lat="45.8640484" lon="11.7776784"><ele>1389.0</ele><time>2026-04-11T15:03:32.31Z</time></trkpt><trkpt lat="45.8639361" lon="11.7777251"><ele>1389.0</ele><time>2026-04-11T15:03:33.297Z</time></trkpt><trkpt lat="45.8638219" lon="11.7777457"><ele>1389.0</ele><time>2026-04-11T15:03:34.297Z</time></trkpt><trkpt lat="45.8637112" lon="11.7777273"><ele>1389.0</ele><time>2026-04-11T15:03:35.293Z</time></trkpt><trkpt lat="45.8636116" lon="11.7776611"><ele>1389.0</ele><time>2026-04-11T15:03:36.304Z</time></trkpt><trkpt lat="45.8635308" lon="11.7775514"><ele>1389.0</ele><time>2026-04-11T15:03:37.307Z</time></trkpt><trkpt lat="45.8634525" lon="11.7774377"><ele>1389.0</ele><time>2026-04-11T15:03:38.297Z</time></trkpt><trkpt lat="45.8633804" lon="11.7772952"><ele>1386.75</ele><time>2026-04-11T15:03:39.297Z</time></trkpt><trkpt lat="45.8633059" lon="11.7771677"><ele>1384.5</ele><time>2026-04-11T15:03:40.315Z</time></trkpt><trkpt lat="45.8632037" lon="11.7771157"><ele>1382.25</ele><time>2026-04-11T15:03:41.295Z</time></trkpt><trkpt lat="45.8630693" lon="11.7770872"><ele>1380.0</ele><time>2026-04-11T15:03:42.293Z</time></trkpt><trkpt lat="45.8629448" lon="11.7770069"><ele>1380.0</ele><time>2026-04-11T15:03:43.317Z</time></trkpt><trkpt lat="45.8628208" lon="11.7768635"><ele>1380.0</ele><time>2026-04-11T15:03:44.298Z</time></trkpt><trkpt lat="45.8626835" lon="11.7766897"><ele>1380.0</ele><time>2026-04-11T15:03:45.298Z</time></trkpt><trkpt lat="45.8625492" lon="11.7765273"><ele>1376.6666666666667</ele><time>2026-04-11T15:03:46.301Z</time></trkpt><trkpt lat="45.86242" lon="11.7763777"><ele>1373.3333333333335</ele><time>2026-04-11T15:03:47.291Z</time></trkpt><trkpt lat="45.862296" lon="11.7762349"><ele>1370.0</ele><time>2026-04-11T15:03:48.295Z</time></trkpt><trkpt lat="45.8621794" lon="11.7760963"><ele>1373.25</ele><time>2026-04-11T15:03:49.296Z</time></trkpt><trkpt lat="45.8620746" lon="11.7759469"><ele>1376.5</ele><time>2026-04-11T15:03:50.293Z</time></trkpt><trkpt lat="45.8619922" lon="11.7757722"><ele>1379.75</ele><time>2026-04-11T15:03:51.302Z</time></trkpt><trkpt lat="45.8619297" lon="11.7755721"><ele>1383.0</ele><time>2026-04-11T15:03:52.303Z</time></trkpt><trkpt lat="45.861874" lon="11.775377"><ele>1383.0</ele><time>2026-04-11T15:03:53.297Z</time></trkpt><trkpt lat="45.8618205" lon="11.775192"><ele>1383.0</ele><time>2026-04-11T15:03:54.299Z</time></trkpt><trkpt lat="45.8617741" lon="11.7750136"><ele>1383.0</ele><time>2026-04-11T15:03:55.302Z</time></trkpt><trkpt lat="45.8617486" lon="11.7748301"><ele>1383.0</ele><time>2026-04-11T15:03:56.292Z</time></trkpt><trkpt lat="45.8617501" lon="11.7746333"><ele>1387.0</ele><time>2026-04-11T15:03:57.312Z</time></trkpt><trkpt lat="45.8617718" lon="11.7744251"><ele>1391.0</ele><time>2026-04-11T15:03:58.294Z</time></trkpt><trkpt lat="45.8617985" lon="11.7742076"><ele>1395.0</ele><time>2026-04-11T15:03:59.302Z</time></trkpt><trkpt lat="45.8618258" lon="11.773992"><ele>1395.0</ele><time>2026-04-11T15:04:00.296Z</time></trkpt><trkpt lat="45.8618184" lon="11.7737791"><ele>1395.0</ele><time>2026-04-11T15:04:01.297Z</time></trkpt><trkpt lat="45.8617824" lon="11.7735661"><ele>1395.0</ele><time>2026-04-11T15:04:02.299Z</time></trkpt><trkpt lat="45.8617229" lon="11.7733553"><ele>1380.6666666666667</ele><time>2026-04-11T15:04:03.287Z</time></trkpt><trkpt lat="45.8616648" lon="11.7731424"><ele>1366.3333333333335</ele><time>2026-04-11T15:04:04.287Z</time></trkpt><trkpt lat="45.8616024" lon="11.7729267"><ele>1352.0</ele><time>2026-04-11T15:04:05.293Z</time></trkpt><trkpt lat="45.8615453" lon="11.7727153"><ele>1351.25</ele><time>2026-04-11T15:04:06.297Z</time></trkpt><trkpt lat="45.8615103" lon="11.7725119"><ele>1350.5</ele><time>2026-04-11T15:04:07.287Z</time></trkpt><trkpt lat="45.861501" lon="11.7723081"><ele>1349.75</ele><time>2026-04-11T15:04:08.302Z</time></trkpt><trkpt lat="45.8615181" lon="11.7721184"><ele>1349.0</ele><time>2026-04-11T15:04:09.341Z</time></trkpt><trkpt lat="45.8615682" lon="11.7719359"><ele>1347.25</ele><time>2026-04-11T15:04:10.3Z</time></trkpt><trkpt lat="45.8616275" lon="11.7717452"><ele>1345.5</ele><time>2026-04-11T15:04:11.288Z</time></trkpt><trkpt lat="45.8616843" lon="11.7715506"><ele>1343.75</ele><time>2026-04-11T15:04:12.31Z</time></trkpt><trkpt lat="45.861684" lon="11.7713363"><ele>1342.0</ele><time>2026-04-11T15:04:13.291Z</time></trkpt><trkpt lat="45.8616861" lon="11.7711251"><ele>1339.0</ele><time>2026-04-11T15:04:14.295Z</time></trkpt><trkpt lat="45.8616889" lon="11.7709106"><ele>1336.0</ele><time>2026-04-11T15:04:15.296Z</time></trkpt><trkpt lat="45.8617593" lon="11.7706958"><ele>1333.0</ele><time>2026-04-11T15:04:16.293Z</time></trkpt><trkpt lat="45.8618364" lon="11.7705103"><ele>1338.25</ele><time>2026-04-11T15:04:17.288Z</time></trkpt><trkpt lat="45.8619184" lon="11.7703472"><ele>1343.5</ele><time>2026-04-11T15:04:18.305Z</time></trkpt><trkpt lat="45.8619997" lon="11.7702137"><ele>1348.75</ele><time>2026-04-11T15:04:19.298Z</time></trkpt><trkpt lat="45.8620471" lon="11.7700713"><ele>1354.0</ele><time>2026-04-11T15:04:20.288Z</time></trkpt><trkpt lat="45.86205" lon="11.7699028"><ele>1354.0</ele><time>2026-04-11T15:04:21.308Z</time></trkpt><trkpt lat="45.8620168" lon="11.7697183"><ele>1354.0</ele><time>2026-04-11T15:04:22.301Z</time></trkpt><trkpt lat="45.8619732" lon="11.7695351"><ele>1354.0</ele><time>2026-04-11T15:04:23.304Z</time></trkpt><trkpt lat="45.8619469" lon="11.7693575"><ele>1354.0</ele><time>2026-04-11T15:04:24.302Z</time></trkpt><trkpt lat="45.8619529" lon="11.769194"><ele>1351.0</ele><time>2026-04-11T15:04:25.296Z</time></trkpt><trkpt lat="45.8620042" lon="11.7690615"><ele>1348.0</ele><time>2026-04-11T15:04:26.292Z</time></trkpt><trkpt lat="45.8620943" lon="11.7689533"><ele>1345.0</ele><time>2026-04-11T15:04:27.31Z</time></trkpt><trkpt lat="45.8621963" lon="11.7688522"><ele>1342.0</ele><time>2026-04-11T15:04:28.291Z</time></trkpt><trkpt lat="45.8622929" lon="11.7687574"><ele>1342.0</ele><time>2026-04-11T15:04:29.293Z</time></trkpt><trkpt lat="45.8623511" lon="11.7686614"><ele>1342.0</ele><time>2026-04-11T15:04:30.307Z</time></trkpt><trkpt lat="45.8623581" lon="11.7685399"><ele>1342.0</ele><time>2026-04-11T15:04:31.3Z</time></trkpt><trkpt lat="45.862345" lon="11.7684149"><ele>1342.0</ele><time>2026-04-11T15:04:32.29Z</time></trkpt><trkpt lat="45.8622599" lon="11.768309"><ele>1342.0</ele><time>2026-04-11T15:04:33.291Z</time></trkpt><trkpt lat="45.8621682" lon="11.7681992"><ele>1339.5</ele><time>2026-04-11T15:04:34.305Z</time></trkpt><trkpt lat="45.8621093" lon="11.7680553"><ele>1337.0</ele><time>2026-04-11T15:04:35.301Z</time></trkpt><trkpt lat="45.862107" lon="11.7678656"><ele>1334.5</ele><time>2026-04-11T15:04:36.291Z</time></trkpt><trkpt lat="45.862135" lon="11.7677068"><ele>1332.0</ele><time>2026-04-11T15:04:37.295Z</time></trkpt><trkpt lat="45.8621348" lon="11.7675722"><ele>1332.0</ele><time>2026-04-11T15:04:38.296Z</time></trkpt><trkpt lat="45.8620846" lon="11.7674677"><ele>1332.0</ele><time>2026-04-11T15:04:39.296Z</time></trkpt><trkpt lat="45.8619916" lon="11.7674052"><ele>1332.0</ele><time>2026-04-11T15:04:40.293Z</time></trkpt><trkpt lat="45.8618818" lon="11.7673676"><ele>1332.0</ele><time>2026-04-11T15:04:41.292Z</time></trkpt><trkpt lat="45.8617571" lon="11.7673277"><ele>1332.0</ele><time>2026-04-11T15:04:42.287Z</time></trkpt><trkpt lat="45.8616292" lon="11.7672732"><ele>1326.75</ele><time>2026-04-11T15:04:43.305Z</time></trkpt><trkpt lat="45.8615103" lon="11.7671971"><ele>1321.5</ele><time>2026-04-11T15:04:44.288Z</time></trkpt><trkpt lat="45.8614152" lon="11.7671076"><ele>1316.25</ele><time>2026-04-11T15:04:45.296Z</time></trkpt><trkpt lat="45.8613494" lon="11.7669885"><ele>1311.0</ele><time>2026-04-11T15:04:46.3Z</time></trkpt><trkpt lat="45.8613226" lon="11.7668298"><ele>1311.0</ele><time>2026-04-11T15:04:47.295Z</time></trkpt><trkpt lat="45.8613354" lon="11.7666589"><ele>1311.0</ele><time>2026-04-11T15:04:48.291Z</time></trkpt><trkpt lat="45.8613881" lon="11.7664922"><ele>1311.0</ele><time>2026-04-11T15:04:49.303Z</time></trkpt><trkpt lat="45.8614603" lon="11.766335"><ele>1311.0</ele><time>2026-04-11T15:04:50.309Z</time></trkpt><trkpt lat="45.8615383" lon="11.7661605"><ele>1307.3333333333333</ele><time>2026-04-11T15:04:51.312Z</time></trkpt><trkpt lat="45.8616056" lon="11.765961"><ele>1303.6666666666665</ele><time>2026-04-11T15:04:52.313Z</time></trkpt><trkpt lat="45.8616635" lon="11.7657539"><ele>1300.0</ele><time>2026-04-11T15:04:53.306Z</time></trkpt><trkpt lat="45.8617253" lon="11.7655628"><ele>1298.5</ele><time>2026-04-11T15:04:54.304Z</time></trkpt><trkpt lat="45.8618083" lon="11.7654055"><ele>1297.0</ele><time>2026-04-11T15:04:55.301Z</time></trkpt><trkpt lat="45.8619164" lon="11.7652653"><ele>1295.5</ele><time>2026-04-11T15:04:56.296Z</time></trkpt><trkpt lat="45.862039" lon="11.7651302"><ele>1294.0</ele><time>2026-04-11T15:04:57.31Z</time></trkpt><trkpt lat="45.8621697" lon="11.7649876"><ele>1294.0</ele><time>2026-04-11T15:04:58.291Z</time></trkpt><trkpt lat="45.8623037" lon="11.7648417"><ele>1294.0</ele><time>2026-04-11T15:04:59.304Z</time></trkpt><trkpt lat="45.8624263" lon="11.764705"><ele>1294.0</ele><time>2026-04-11T15:05:00.295Z</time></trkpt><trkpt lat="45.8625483" lon="11.7645791"><ele>1293.8000000000002</ele><time>2026-04-11T15:05:01.299Z</time></trkpt><trkpt lat="45.8626578" lon="11.7645191"><ele>1293.6000000000001</ele><time>2026-04-11T15:05:02.296Z</time></trkpt><trkpt lat="45.8627616" lon="11.7645156"><ele>1293.4</ele><time>2026-04-11T15:05:03.299Z</time></trkpt><trkpt lat="45.8628437" lon="11.7645697"><ele>1293.2</ele><time>2026-04-11T15:05:04.291Z</time></trkpt><trkpt lat="45.862909" lon="11.764678"><ele>1293.0</ele><time>2026-04-11T15:05:05.297Z</time></trkpt><trkpt lat="45.8629753" lon="11.7647985"><ele>1293.0</ele><time>2026-04-11T15:05:06.31Z</time></trkpt><trkpt lat="45.8630314" lon="11.7648967"><ele>1293.0</ele><time>2026-04-11T15:05:07.285Z</time></trkpt><trkpt lat="45.8631181" lon="11.7649233"><ele>1293.0</ele><time>2026-04-11T15:05:08.298Z</time></trkpt><trkpt lat="45.8632085" lon="11.7649336"><ele>1293.0</ele><time>2026-04-11T15:05:09.294Z</time></trkpt><trkpt lat="45.8633047" lon="11.7648491"><ele>1293.0</ele><time>2026-04-11T15:05:10.304Z</time></trkpt><trkpt lat="45.8634161" lon="11.7647377"><ele>1290.75</ele><time>2026-04-11T15:05:11.313Z</time></trkpt><trkpt lat="45.8635338" lon="11.7646588"><ele>1288.5</ele><time>2026-04-11T15:05:12.3Z</time></trkpt><trkpt lat="45.8636671" lon="11.7645991"><ele>1286.25</ele><time>2026-04-11T15:05:13.288Z</time></trkpt><trkpt lat="45.8637927" lon="11.7645367"><ele>1284.0</ele><time>2026-04-11T15:05:14.303Z</time></trkpt><trkpt lat="45.8638922" lon="11.7645159"><ele>1284.0</ele><time>2026-04-11T15:05:15.297Z</time></trkpt><trkpt lat="45.8639781" lon="11.7645333"><ele>1284.0</ele><time>2026-04-11T15:05:16.295Z</time></trkpt><trkpt lat="45.8640549" lon="11.764629"><ele>1284.0</ele><time>2026-04-11T15:05:17.303Z</time></trkpt><trkpt lat="45.8641321" lon="11.7647176"><ele>1284.0</ele><time>2026-04-11T15:05:18.304Z</time></trkpt><trkpt lat="45.8642136" lon="11.7647258"><ele>1284.0</ele><time>2026-04-11T15:05:19.291Z</time></trkpt><trkpt lat="45.8643039" lon="11.7646967"><ele>1285.6</ele><time>2026-04-11T15:05:20.305Z</time></trkpt><trkpt lat="45.8643799" lon="11.7646125"><ele>1287.2</ele><time>2026-04-11T15:05:21.297Z</time></trkpt><trkpt lat="45.8644376" lon="11.764517"><ele>1288.8</ele><time>2026-04-11T15:05:22.304Z</time></trkpt><trkpt lat="45.8644615" lon="11.764392"><ele>1290.3999999999999</ele><time>2026-04-11T15:05:23.305Z</time></trkpt><trkpt lat="45.8644328" lon="11.7642574"><ele>1292.0</ele><time>2026-04-11T15:05:24.307Z</time></trkpt><trkpt lat="45.8643637" lon="11.7641197"><ele>1293.25</ele><time>2026-04-11T15:05:25.286Z</time></trkpt><trkpt lat="45.8642808" lon="11.7639657"><ele>1294.5</ele><time>2026-04-11T15:05:26.306Z</time></trkpt><trkpt lat="45.8642058" lon="11.763811"><ele>1295.75</ele><time>2026-04-11T15:05:27.304Z</time></trkpt><trkpt lat="45.8641292" lon="11.7636669"><ele>1297.0</ele><time>2026-04-11T15:05:28.29Z</time></trkpt><trkpt lat="45.8640259" lon="11.763559"><ele>1293.25</ele><time>2026-04-11T15:05:29.288Z</time></trkpt><trkpt lat="45.8638998" lon="11.7634939"><ele>1289.5</ele><time>2026-04-11T15:05:30.293Z</time></trkpt><trkpt lat="45.8637639" lon="11.7634645"><ele>1285.75</ele><time>2026-04-11T15:05:31.288Z</time></trkpt><trkpt lat="45.8636377" lon="11.7634457"><ele>1282.0</ele><time>2026-04-11T15:05:32.294Z</time></trkpt><trkpt lat="45.8635254" lon="11.7634254"><ele>1277.0</ele><time>2026-04-11T15:05:33.309Z</time></trkpt><trkpt lat="45.8634292" lon="11.7633612"><ele>1272.0</ele><time>2026-04-11T15:05:34.294Z</time></trkpt><trkpt lat="45.8633434" lon="11.7632366"><ele>1267.0</ele><time>2026-04-11T15:05:35.303Z</time></trkpt><trkpt lat="45.8632685" lon="11.7630672"><ele>1262.0</ele><time>2026-04-11T15:05:36.293Z</time></trkpt><trkpt lat="45.8632053" lon="11.7628694"><ele>1263.25</ele><time>2026-04-11T15:05:37.29Z</time></trkpt><trkpt lat="45.8631664" lon="11.762656"><ele>1264.5</ele><time>2026-04-11T15:05:38.294Z</time></trkpt><trkpt lat="45.8631387" lon="11.7624579"><ele>1265.75</ele><time>2026-04-11T15:05:39.296Z</time></trkpt><trkpt lat="45.8631081" lon="11.7622904"><ele>1267.0</ele><time>2026-04-11T15:05:40.291Z</time></trkpt><trkpt lat="45.8630507" lon="11.7621516"><ele>1267.0</ele><time>2026-04-11T15:05:41.294Z</time></trkpt><trkpt lat="45.8629542" lon="11.7620424"><ele>1267.0</ele><time>2026-04-11T15:05:42.305Z</time></trkpt><trkpt lat="45.8628259" lon="11.7619569"><ele>1267.0</ele><time>2026-04-11T15:05:43.295Z</time></trkpt><trkpt lat="45.8626965" lon="11.7618759"><ele>1267.0</ele><time>2026-04-11T15:05:44.298Z</time></trkpt><trkpt lat="45.8625832" lon="11.7617751"><ele>1263.25</ele><time>2026-04-11T15:05:45.296Z</time></trkpt><trkpt lat="45.862489" lon="11.761651"><ele>1259.5</ele><time>2026-04-11T15:05:46.299Z</time></trkpt><trkpt lat="45.862394" lon="11.7615388"><ele>1255.75</ele><time>2026-04-11T15:05:47.29Z</time></trkpt><trkpt lat="45.8622759" lon="11.76147"><ele>1252.0</ele><time>2026-04-11T15:05:48.295Z</time></trkpt><trkpt lat="45.8621357" lon="11.7614545"><ele>1252.0</ele><time>2026-04-11T15:05:49.3Z</time></trkpt><trkpt lat="45.8619969" lon="11.7614708"><ele>1252.0</ele><time>2026-04-11T15:05:50.319Z</time></trkpt><trkpt lat="45.8618767" lon="11.7614855"><ele>1252.0</ele><time>2026-04-11T15:05:51.295Z</time></trkpt><trkpt lat="45.8617713" lon="11.7614899"><ele>1252.0</ele><time>2026-04-11T15:05:52.291Z</time></trkpt><trkpt lat="45.861675" lon="11.7614492"><ele>1253.5</ele><time>2026-04-11T15:05:53.29Z</time></trkpt><trkpt lat="45.8616059" lon="11.7612987"><ele>1255.0</ele><time>2026-04-11T15:05:54.298Z</time></trkpt><trkpt lat="45.8615652" lon="11.7611194"><ele>1256.5</ele><time>2026-04-11T15:05:55.297Z</time></trkpt><trkpt lat="45.861491" lon="11.7609716"><ele>1258.0</ele><time>2026-04-11T15:05:56.295Z</time></trkpt><trkpt lat="45.8613509" lon="11.7609159"><ele>1258.0</ele><time>2026-04-11T15:05:57.289Z</time></trkpt><trkpt lat="45.8611946" lon="11.7608644"><ele>1258.0</ele><time>2026-04-11T15:05:58.289Z</time></trkpt><trkpt lat="45.8610368" lon="11.7609001"><ele>1258.0</ele><time>2026-04-11T15:05:59.292Z</time></trkpt><trkpt lat="45.8608922" lon="11.760948"><ele>1255.0</ele><time>2026-04-11T15:06:00.304Z</time></trkpt><trkpt lat="45.860757" lon="11.7609611"><ele>1252.0</ele><time>2026-04-11T15:06:01.307Z</time></trkpt><trkpt lat="45.860628" lon="11.7609429"><ele>1249.0</ele><time>2026-04-11T15:06:02.293Z</time></trkpt><trkpt lat="45.8605113" lon="11.7608678"><ele>1246.0</ele><time>2026-04-11T15:06:03.297Z</time></trkpt><trkpt lat="45.8603905" lon="11.7607881"><ele>1246.0</ele><time>2026-04-11T15:06:04.287Z</time></trkpt><trkpt lat="45.8602753" lon="11.7606516"><ele>1246.0</ele><time>2026-04-11T15:06:05.3Z</time></trkpt><trkpt lat="45.8601782" lon="11.7605148"><ele>1246.0</ele><time>2026-04-11T15:06:06.3Z</time></trkpt><trkpt lat="45.8600902" lon="11.7603354"><ele>1246.0</ele><time>2026-04-11T15:06:07.29Z</time></trkpt><trkpt lat="45.8600148" lon="11.7601354"><ele>1241.3333333333333</ele><time>2026-04-11T15:06:08.291Z</time></trkpt><trkpt lat="45.8599518" lon="11.7599168"><ele>1236.6666666666667</ele><time>2026-04-11T15:06:09.295Z</time></trkpt><trkpt lat="45.859868" lon="11.7597039"><ele>1232.0</ele><time>2026-04-11T15:06:10.287Z</time></trkpt><trkpt lat="45.8597709" lon="11.7594939"><ele>1236.0</ele><time>2026-04-11T15:06:11.294Z</time></trkpt><trkpt lat="45.8596792" lon="11.7592698"><ele>1240.0</ele><time>2026-04-11T15:06:12.29Z</time></trkpt><trkpt lat="45.8595777" lon="11.7590532"><ele>1244.0</ele><time>2026-04-11T15:06:13.298Z</time></trkpt><trkpt lat="45.8594731" lon="11.7588291"><ele>1244.0</ele><time>2026-04-11T15:06:14.299Z</time></trkpt><trkpt lat="45.8593535" lon="11.7586347"><ele>1244.0</ele><time>2026-04-11T15:06:15.303Z</time></trkpt><trkpt lat="45.8592512" lon="11.7584543"><ele>1244.0</ele><time>2026-04-11T15:06:16.292Z</time></trkpt><trkpt lat="45.8591638" lon="11.7582801"><ele>1238.75</ele><time>2026-04-11T15:06:17.331Z</time></trkpt><trkpt lat="45.859085" lon="11.7581073"><ele>1233.5</ele><time>2026-04-11T15:06:18.332Z</time></trkpt><trkpt lat="45.8590345" lon="11.7579152"><ele>1228.25</ele><time>2026-04-11T15:06:19.295Z</time></trkpt><trkpt lat="45.8589903" lon="11.7577165"><ele>1223.0</ele><time>2026-04-11T15:06:20.323Z</time></trkpt><trkpt lat="45.858992" lon="11.7574946"><ele>1223.0</ele><time>2026-04-11T15:06:21.3Z</time></trkpt><trkpt lat="45.858994" lon="11.7572418"><ele>1223.0</ele><time>2026-04-11T15:06:22.295Z</time></trkpt><trkpt lat="45.8589411" lon="11.7569921"><ele>1223.0</ele><time>2026-04-11T15:06:23.295Z</time></trkpt><trkpt lat="45.8588982" lon="11.7567454"><ele>1224.6666666666667</ele><time>2026-04-11T15:06:24.296Z</time></trkpt><trkpt lat="45.8588875" lon="11.756492"><ele>1226.3333333333333</ele><time>2026-04-11T15:06:25.293Z</time></trkpt><trkpt lat="45.8588673" lon="11.7562312"><ele>1228.0</ele><time>2026-04-11T15:06:26.294Z</time></trkpt><trkpt lat="45.8588556" lon="11.7559583"><ele>1229.3333333333333</ele><time>2026-04-11T15:06:27.301Z</time></trkpt><trkpt lat="45.8588413" lon="11.7556827"><ele>1230.6666666666667</ele><time>2026-04-11T15:06:28.3Z</time></trkpt><trkpt lat="45.8587813" lon="11.7554147"><ele>1232.0</ele><time>2026-04-11T15:06:29.297Z</time></trkpt><trkpt lat="45.8587237" lon="11.7551532"><ele>1231.6666666666667</ele><time>2026-04-11T15:06:30.292Z</time></trkpt><trkpt lat="45.8586745" lon="11.7548868"><ele>1231.3333333333333</ele><time>2026-04-11T15:06:31.296Z</time></trkpt><trkpt lat="45.8586369" lon="11.7546221"><ele>1231.0</ele><time>2026-04-11T15:06:32.306Z</time></trkpt><trkpt lat="45.8586055" lon="11.7543462"><ele>1231.0</ele><time>2026-04-11T15:06:33.288Z</time></trkpt><trkpt lat="45.8585701" lon="11.7540636"><ele>1231.0</ele><time>2026-04-11T15:06:34.302Z</time></trkpt><trkpt lat="45.8585256" lon="11.7537901"><ele>1231.0</ele><time>2026-04-11T15:06:35.29Z</time></trkpt><trkpt lat="45.8584755" lon="11.7535246"><ele>1216.3333333333333</ele><time>2026-04-11T15:06:36.299Z</time></trkpt><trkpt lat="45.8584309" lon="11.7532595"><ele>1201.6666666666667</ele><time>2026-04-11T15:06:37.293Z</time></trkpt><trkpt lat="45.8583926" lon="11.7530055"><ele>1187.0</ele><time>2026-04-11T15:06:38.292Z</time></trkpt><trkpt lat="45.8583726" lon="11.7527454"><ele>1185.3333333333335</ele><time>2026-04-11T15:06:39.291Z</time></trkpt><trkpt lat="45.8583731" lon="11.7524921"><ele>1183.6666666666667</ele><time>2026-04-11T15:06:40.289Z</time></trkpt><trkpt lat="45.858381" lon="11.7522498"><ele>1182.0</ele><time>2026-04-11T15:06:41.294Z</time></trkpt><trkpt lat="45.858407" lon="11.7520061"><ele>1189.6666666666667</ele><time>2026-04-11T15:06:42.298Z</time></trkpt><trkpt lat="45.8584576" lon="11.7517746"><ele>1197.3333333333335</ele><time>2026-04-11T15:06:43.329Z</time></trkpt><trkpt lat="45.8585225" lon="11.7515611"><ele>1205.0</ele><time>2026-04-11T15:06:44.297Z</time></trkpt><trkpt lat="45.8585907" lon="11.7513571"><ele>1205.0</ele><time>2026-04-11T15:06:45.302Z</time></trkpt><trkpt lat="45.8586281" lon="11.7511629"><ele>1205.0</ele><time>2026-04-11T15:06:46.289Z</time></trkpt><trkpt lat="45.8586653" lon="11.7509769"><ele>1205.0</ele><time>2026-04-11T15:06:47.296Z</time></trkpt><trkpt lat="45.8586487" lon="11.75074"><ele>1205.0</ele><time>2026-04-11T15:06:48.301Z</time></trkpt><trkpt lat="45.8586239" lon="11.7505064"><ele>1203.6666666666667</ele><time>2026-04-11T15:06:49.285Z</time></trkpt><trkpt lat="45.8586283" lon="11.7502627"><ele>1202.3333333333333</ele><time>2026-04-11T15:06:50.287Z</time></trkpt><trkpt lat="45.8586472" lon="11.750035"><ele>1201.0</ele><time>2026-04-11T15:06:51.298Z</time></trkpt><trkpt lat="45.8586761" lon="11.7498337"><ele>1199.75</ele><time>2026-04-11T15:06:52.289Z</time></trkpt><trkpt lat="45.8587024" lon="11.7496459"><ele>1198.5</ele><time>2026-04-11T15:06:53.288Z</time></trkpt><trkpt lat="45.8586898" lon="11.7494502"><ele>1197.25</ele><time>2026-04-11T15:06:54.294Z</time></trkpt><trkpt lat="45.8586274" lon="11.7492511"><ele>1196.0</ele><time>2026-04-11T15:06:55.292Z</time></trkpt><trkpt lat="45.8585348" lon="11.7490632"><ele>1194.6666666666667</ele><time>2026-04-11T15:06:56.29Z</time></trkpt><trkpt lat="45.8584791" lon="11.748839"><ele>1193.3333333333333</ele><time>2026-04-11T15:06:57.289Z</time></trkpt><trkpt lat="45.8584428" lon="11.7485998"><ele>1192.0</ele><time>2026-04-11T15:06:58.295Z</time></trkpt><trkpt lat="45.8584068" lon="11.7483665"><ele>1181.3333333333333</ele><time>2026-04-11T15:06:59.288Z</time></trkpt><trkpt lat="45.8583642" lon="11.7481403"><ele>1170.6666666666667</ele><time>2026-04-11T15:07:00.299Z</time></trkpt><trkpt lat="45.8583719" lon="11.7478941"><ele>1160.0</ele><time>2026-04-11T15:07:01.3Z</time></trkpt><trkpt lat="45.858391" lon="11.7476433"><ele>1157.6666666666667</ele><time>2026-04-11T15:07:02.296Z</time></trkpt><trkpt lat="45.8584083" lon="11.7473878"><ele>1155.3333333333333</ele><time>2026-04-11T15:07:03.3Z</time></trkpt><trkpt lat="45.8584225" lon="11.747126"><ele>1153.0</ele><time>2026-04-11T15:07:04.288Z</time></trkpt><trkpt lat="45.8584392" lon="11.7468655"><ele>1161.0</ele><time>2026-04-11T15:07:05.289Z</time></trkpt><trkpt lat="45.8584566" lon="11.7466026"><ele>1169.0</ele><time>2026-04-11T15:07:06.293Z</time></trkpt><trkpt lat="45.8584731" lon="11.7463347"><ele>1177.0</ele><time>2026-04-11T15:07:07.296Z</time></trkpt><trkpt lat="45.8584815" lon="11.7460666"><ele>1173.6666666666665</ele><time>2026-04-11T15:07:08.291Z</time></trkpt><trkpt lat="45.8584866" lon="11.7457996"><ele>1170.3333333333333</ele><time>2026-04-11T15:07:09.297Z</time></trkpt><trkpt lat="45.8585021" lon="11.7455366"><ele>1167.0</ele><time>2026-04-11T15:07:10.291Z</time></trkpt><trkpt lat="45.8585255" lon="11.7452942"><ele>1162.75</ele><time>2026-04-11T15:07:11.294Z</time></trkpt><trkpt lat="45.8585447" lon="11.7450778"><ele>1158.5</ele><time>2026-04-11T15:07:12.296Z</time></trkpt><trkpt lat="45.8585628" lon="11.7448962"><ele>1154.25</ele><time>2026-04-11T15:07:13.31Z</time></trkpt><trkpt lat="45.8585879" lon="11.7447471"><ele>1150.0</ele><time>2026-04-11T15:07:14.289Z</time></trkpt><trkpt lat="45.858651" lon="11.7446252"><ele>1150.0</ele><time>2026-04-11T15:07:15.297Z</time></trkpt><trkpt lat="45.8587394" lon="11.7445279"><ele>1150.0</ele><time>2026-04-11T15:07:16.286Z</time></trkpt><trkpt lat="45.8588612" lon="11.7444821"><ele>1150.0</ele><time>2026-04-11T15:07:17.304Z</time></trkpt><trkpt lat="45.8590066" lon="11.7444718"><ele>1150.0</ele><time>2026-04-11T15:07:18.288Z</time></trkpt><trkpt lat="45.8591718" lon="11.7444568"><ele>1148.0</ele><time>2026-04-11T15:07:19.288Z</time></trkpt><trkpt lat="45.8593386" lon="11.7443934"><ele>1146.0</ele><time>2026-04-11T15:07:20.287Z</time></trkpt><trkpt lat="45.8595026" lon="11.7443247"><ele>1144.0</ele><time>2026-04-11T15:07:21.299Z</time></trkpt><trkpt lat="45.8596506" lon="11.7442662"><ele>1141.0</ele><time>2026-04-11T15:07:22.293Z</time></trkpt><trkpt lat="45.8597828" lon="11.7442081"><ele>1138.0</ele><time>2026-04-11T15:07:23.299Z</time></trkpt><trkpt lat="45.8599" lon="11.7441683"><ele>1135.0</ele><time>2026-04-11T15:07:24.301Z</time></trkpt><trkpt lat="45.8600232" lon="11.7441819"><ele>1132.0</ele><time>2026-04-11T15:07:25.3Z</time></trkpt><trkpt lat="45.8601244" lon="11.7442748"><ele>1135.0</ele><time>2026-04-11T15:07:26.29Z</time></trkpt><trkpt lat="45.8602031" lon="11.7444296"><ele>1138.0</ele><time>2026-04-11T15:07:27.299Z</time></trkpt><trkpt lat="45.8602593" lon="11.7445357"><ele>1141.0</ele><time>2026-04-11T15:07:28.288Z</time></trkpt><trkpt lat="45.8603559" lon="11.744518"><ele>1144.0</ele><time>2026-04-11T15:07:30.31Z</time></trkpt><trkpt lat="45.8604065" lon="11.7444289"><ele>1147.0</ele><time>2026-04-11T15:07:31.291Z</time></trkpt><trkpt lat="45.8603907" lon="11.7442664"><ele>1149.25</ele><time>2026-04-11T15:07:32.293Z</time></trkpt><trkpt lat="45.8603735" lon="11.7440801"><ele>1151.5</ele><time>2026-04-11T15:07:33.294Z</time></trkpt><trkpt lat="45.860325" lon="11.7438722"><ele>1153.75</ele><time>2026-04-11T15:07:34.292Z</time></trkpt><trkpt lat="45.8602725" lon="11.7436609"><ele>1156.0</ele><time>2026-04-11T15:07:35.295Z</time></trkpt><trkpt lat="45.8602121" lon="11.7434429"><ele>1157.6666666666665</ele><time>2026-04-11T15:07:36.297Z</time></trkpt><trkpt lat="45.8601469" lon="11.743202"><ele>1159.3333333333333</ele><time>2026-04-11T15:07:37.293Z</time></trkpt><trkpt lat="45.8600611" lon="11.7429723"><ele>1161.0</ele><time>2026-04-11T15:07:38.3Z</time></trkpt><trkpt lat="45.8599536" lon="11.7427699"><ele>1151.0</ele><time>2026-04-11T15:07:39.299Z</time></trkpt><trkpt lat="45.8598232" lon="11.7425949"><ele>1141.0</ele><time>2026-04-11T15:07:40.293Z</time></trkpt><trkpt lat="45.8596935" lon="11.7424208"><ele>1131.0</ele><time>2026-04-11T15:07:41.279Z</time></trkpt><trkpt lat="45.8595587" lon="11.7422703"><ele>1131.0</ele><time>2026-04-11T15:07:42.31Z</time></trkpt><trkpt lat="45.8594408" lon="11.7420925"><ele>1131.0</ele><time>2026-04-11T15:07:43.292Z</time></trkpt><trkpt lat="45.8593493" lon="11.7419026"><ele>1131.0</ele><time>2026-04-11T15:07:44.293Z</time></trkpt><trkpt lat="45.8592919" lon="11.741721"><ele>1127.6</ele><time>2026-04-11T15:07:45.295Z</time></trkpt><trkpt lat="45.8592496" lon="11.7415662"><ele>1124.1999999999998</ele><time>2026-04-11T15:07:46.293Z</time></trkpt><trkpt lat="45.8591936" lon="11.7414494"><ele>1120.8000000000002</ele><time>2026-04-11T15:07:47.289Z</time></trkpt><trkpt lat="45.8591262" lon="11.7413394"><ele>1117.4</ele><time>2026-04-11T15:07:48.288Z</time></trkpt><trkpt lat="45.8590837" lon="11.7412162"><ele>1114.0</ele><time>2026-04-11T15:07:49.29Z</time></trkpt><trkpt lat="45.8590827" lon="11.7410359"><ele>1114.0</ele><time>2026-04-11T15:07:50.304Z</time></trkpt><trkpt lat="45.8590753" lon="11.7408791"><ele>1114.0</ele><time>2026-04-11T15:07:51.287Z</time></trkpt><trkpt lat="45.8590347" lon="11.7407305"><ele>1114.0</ele><time>2026-04-11T15:07:52.297Z</time></trkpt><trkpt lat="45.8589436" lon="11.7406141"><ele>1114.0</ele><time>2026-04-11T15:07:53.288Z</time></trkpt><trkpt lat="45.8588238" lon="11.7405116"><ele>1114.0</ele><time>2026-04-11T15:07:54.298Z</time></trkpt><trkpt lat="45.8587019" lon="11.7403979"><ele>1114.0</ele><time>2026-04-11T15:07:55.299Z</time></trkpt><trkpt lat="45.8585895" lon="11.7402496"><ele>1114.0</ele><time>2026-04-11T15:07:56.3Z</time></trkpt><trkpt lat="45.8584918" lon="11.740072"><ele>1111.75</ele><time>2026-04-11T15:07:57.3Z</time></trkpt><trkpt lat="45.8584051" lon="11.7398933"><ele>1109.5</ele><time>2026-04-11T15:07:58.308Z</time></trkpt><trkpt lat="45.8583251" lon="11.7397213"><ele>1107.25</ele><time>2026-04-11T15:07:59.281Z</time></trkpt><trkpt lat="45.8582492" lon="11.7395496"><ele>1105.0</ele><time>2026-04-11T15:08:00.295Z</time></trkpt><trkpt lat="45.8582172" lon="11.7393535"><ele>1105.0</ele><time>2026-04-11T15:08:01.293Z</time></trkpt><trkpt lat="45.858179" lon="11.739162"><ele>1105.0</ele><time>2026-04-11T15:08:02.294Z</time></trkpt><trkpt lat="45.8581463" lon="11.7389732"><ele>1105.0</ele><time>2026-04-11T15:08:03.33Z</time></trkpt><trkpt lat="45.8580871" lon="11.7388051"><ele>1105.0</ele><time>2026-04-11T15:08:04.29Z</time></trkpt><trkpt lat="45.8580477" lon="11.7386502"><ele>1104.75</ele><time>2026-04-11T15:08:05.303Z</time></trkpt><trkpt lat="45.858039" lon="11.7384937"><ele>1104.5</ele><time>2026-04-11T15:08:06.296Z</time></trkpt><trkpt lat="45.8580467" lon="11.7383322"><ele>1104.25</ele><time>2026-04-11T15:08:07.297Z</time></trkpt><trkpt lat="45.8580607" lon="11.7381686"><ele>1104.0</ele><time>2026-04-11T15:08:08.286Z</time></trkpt><trkpt lat="45.8580947" lon="11.7380011"><ele>1104.0</ele><time>2026-04-11T15:08:09.296Z</time></trkpt><trkpt lat="45.8581198" lon="11.7378417"><ele>1104.0</ele><time>2026-04-11T15:08:10.293Z</time></trkpt><trkpt lat="45.8581465" lon="11.7377"><ele>1104.0</ele><time>2026-04-11T15:08:11.294Z</time></trkpt><trkpt lat="45.8581891" lon="11.7375748"><ele>1104.0</ele><time>2026-04-11T15:08:12.29Z</time></trkpt><trkpt lat="45.8582565" lon="11.7374657"><ele>1104.0</ele><time>2026-04-11T15:08:13.301Z</time></trkpt><trkpt lat="45.8583343" lon="11.7373716"><ele>1105.4</ele><time>2026-04-11T15:08:14.31Z</time></trkpt><trkpt lat="45.8584049" lon="11.7372813"><ele>1106.8000000000002</ele><time>2026-04-11T15:08:15.294Z</time></trkpt><trkpt lat="45.8584655" lon="11.7371796"><ele>1108.1999999999998</ele><time>2026-04-11T15:08:16.299Z</time></trkpt><trkpt lat="45.8585075" lon="11.7370624"><ele>1109.6</ele><time>2026-04-11T15:08:17.288Z</time></trkpt><trkpt lat="45.8585236" lon="11.7369202"><ele>1111.0</ele><time>2026-04-11T15:08:18.29Z</time></trkpt><trkpt lat="45.8585245" lon="11.7367692"><ele>1111.0</ele><time>2026-04-11T15:08:19.299Z</time></trkpt><trkpt lat="45.8585152" lon="11.7366138"><ele>1111.0</ele><time>2026-04-11T15:08:20.301Z</time></trkpt><trkpt lat="45.8584923" lon="11.7364519"><ele>1111.0</ele><time>2026-04-11T15:08:21.293Z</time></trkpt><trkpt lat="45.8584617" lon="11.7362825"><ele>1111.0</ele><time>2026-04-11T15:08:22.289Z</time></trkpt><trkpt lat="45.8584418" lon="11.7361141"><ele>1110.5</ele><time>2026-04-11T15:08:23.291Z</time></trkpt><trkpt lat="45.8584438" lon="11.7359471"><ele>1110.0</ele><time>2026-04-11T15:08:24.291Z</time></trkpt><trkpt lat="45.8584696" lon="11.7357718"><ele>1109.5</ele><time>2026-04-11T15:08:25.288Z</time></trkpt><trkpt lat="45.8585069" lon="11.735582"><ele>1109.0</ele><time>2026-04-11T15:08:26.293Z</time></trkpt><trkpt lat="45.8585527" lon="11.7353784"><ele>1106.6666666666667</ele><time>2026-04-11T15:08:27.3Z</time></trkpt><trkpt lat="45.8585994" lon="11.7351823"><ele>1104.3333333333333</ele><time>2026-04-11T15:08:28.289Z</time></trkpt><trkpt lat="45.8586548" lon="11.7349804"><ele>1102.0</ele><time>2026-04-11T15:08:29.309Z</time></trkpt><trkpt lat="45.858714" lon="11.734759"><ele>1102.0</ele><time>2026-04-11T15:08:30.312Z</time></trkpt><trkpt lat="45.8587556" lon="11.7345612"><ele>1102.0</ele><time>2026-04-11T15:08:31.301Z</time></trkpt><trkpt lat="45.8588058" lon="11.7343511"><ele>1102.0</ele><time>2026-04-11T15:08:32.303Z</time></trkpt><trkpt lat="45.858851" lon="11.7341502"><ele>1102.0</ele><time>2026-04-11T15:08:33.297Z</time></trkpt><trkpt lat="45.858885" lon="11.7339545"><ele>1098.5</ele><time>2026-04-11T15:08:34.296Z</time></trkpt><trkpt lat="45.858915" lon="11.73377"><ele>1095.0</ele><time>2026-04-11T15:08:35.29Z</time></trkpt><trkpt lat="45.8589524" lon="11.7335979"><ele>1091.5</ele><time>2026-04-11T15:08:36.299Z</time></trkpt><trkpt lat="45.8590329" lon="11.7334642"><ele>1088.0</ele><time>2026-04-11T15:08:37.291Z</time></trkpt><trkpt lat="45.8591165" lon="11.7333523"><ele>1085.8</ele><time>2026-04-11T15:08:38.3Z</time></trkpt><trkpt lat="45.8591796" lon="11.7332498"><ele>1083.6</ele><time>2026-04-11T15:08:39.305Z</time></trkpt><trkpt lat="45.8591971" lon="11.7331056"><ele>1081.4</ele><time>2026-04-11T15:08:40.286Z</time></trkpt><trkpt lat="45.8591441" lon="11.7329694"><ele>1079.2</ele><time>2026-04-11T15:08:41.295Z</time></trkpt><trkpt lat="45.8590856" lon="11.7328219"><ele>1077.0</ele><time>2026-04-11T15:08:42.291Z</time></trkpt><trkpt lat="45.8589902" lon="11.7326791"><ele>1076.75</ele><time>2026-04-11T15:08:43.299Z</time></trkpt><trkpt lat="45.8588806" lon="11.7325252"><ele>1076.5</ele><time>2026-04-11T15:08:44.287Z</time></trkpt><trkpt lat="45.8587895" lon="11.7324115"><ele>1076.25</ele><time>2026-04-11T15:08:45.297Z</time></trkpt><trkpt lat="45.8586976" lon="11.7323264"><ele>1076.0</ele><time>2026-04-11T15:08:46.303Z</time></trkpt><trkpt lat="45.8586096" lon="11.7322923"><ele>1076.0</ele><time>2026-04-11T15:08:47.288Z</time></trkpt><trkpt lat="45.858523" lon="11.7323093"><ele>1076.0</ele><time>2026-04-11T15:08:48.286Z</time></trkpt><trkpt lat="45.8584467" lon="11.7323605"><ele>1076.0</ele><time>2026-04-11T15:08:49.288Z</time></trkpt><trkpt lat="45.858396" lon="11.7324658"><ele>1076.0</ele><time>2026-04-11T15:08:50.3Z</time></trkpt><trkpt lat="45.8583731" lon="11.7326029"><ele>1076.0</ele><time>2026-04-11T15:08:51.303Z</time></trkpt><trkpt lat="45.8583658" lon="11.7327678"><ele>1072.8</ele><time>2026-04-11T15:08:52.304Z</time></trkpt><trkpt lat="45.8583517" lon="11.7329096"><ele>1069.6</ele><time>2026-04-11T15:08:53.31Z</time></trkpt><trkpt lat="45.8583121" lon="11.7330256"><ele>1066.4</ele><time>2026-04-11T15:08:54.293Z</time></trkpt><trkpt lat="45.8582598" lon="11.733132"><ele>1063.2</ele><time>2026-04-11T15:08:55.292Z</time></trkpt><trkpt lat="45.8581568" lon="11.7332052"><ele>1060.0</ele><time>2026-04-11T15:08:56.297Z</time></trkpt><trkpt lat="45.8580252" lon="11.7332651"><ele>1060.0</ele><time>2026-04-11T15:08:57.296Z</time></trkpt><trkpt lat="45.8579118" lon="11.7333643"><ele>1060.0</ele><time>2026-04-11T15:08:58.29Z</time></trkpt><trkpt lat="45.8578002" lon="11.7334772"><ele>1060.0</ele><time>2026-04-11T15:08:59.296Z</time></trkpt><trkpt lat="45.8576976" lon="11.7335663"><ele>1060.0</ele><time>2026-04-11T15:09:00.298Z</time></trkpt><trkpt lat="45.8575864" lon="11.7336117"><ele>1059.8</ele><time>2026-04-11T15:09:01.3Z</time></trkpt><trkpt lat="45.8574642" lon="11.7336091"><ele>1059.6</ele><time>2026-04-11T15:09:02.3Z</time></trkpt><trkpt lat="45.8573429" lon="11.7335555"><ele>1059.4</ele><time>2026-04-11T15:09:03.291Z</time></trkpt><trkpt lat="45.8572382" lon="11.733524"><ele>1059.2</ele><time>2026-04-11T15:09:04.284Z</time></trkpt><trkpt lat="45.8571518" lon="11.7334898"><ele>1059.0</ele><time>2026-04-11T15:09:05.304Z</time></trkpt><trkpt lat="45.8570594" lon="11.733487"><ele>1059.75</ele><time>2026-04-11T15:09:06.288Z</time></trkpt><trkpt lat="45.8569854" lon="11.7335937"><ele>1060.5</ele><time>2026-04-11T15:09:07.306Z</time></trkpt><trkpt lat="45.8569204" lon="11.7337631"><ele>1061.25</ele><time>2026-04-11T15:09:08.29Z</time></trkpt><trkpt lat="45.8568569" lon="11.7339091"><ele>1062.0</ele><time>2026-04-11T15:09:09.293Z</time></trkpt><trkpt lat="45.8567845" lon="11.7340081"><ele>1062.0</ele><time>2026-04-11T15:09:10.311Z</time></trkpt><trkpt lat="45.8566869" lon="11.7340745"><ele>1062.0</ele><time>2026-04-11T15:09:11.29Z</time></trkpt><trkpt lat="45.8565856" lon="11.7341413"><ele>1062.0</ele><time>2026-04-11T15:09:12.286Z</time></trkpt><trkpt lat="45.8564791" lon="11.7342188"><ele>1062.0</ele><time>2026-04-11T15:09:13.291Z</time></trkpt><trkpt lat="45.8564042" lon="11.7343623"><ele>1059.5</ele><time>2026-04-11T15:09:14.291Z</time></trkpt><trkpt lat="45.8563382" lon="11.7345451"><ele>1057.0</ele><time>2026-04-11T15:09:15.294Z</time></trkpt><trkpt lat="45.8562522" lon="11.7347188"><ele>1054.5</ele><time>2026-04-11T15:09:16.298Z</time></trkpt><trkpt lat="45.8561617" lon="11.734863"><ele>1052.0</ele><time>2026-04-11T15:09:17.289Z</time></trkpt><trkpt lat="45.8560782" lon="11.7349693"><ele>1052.0</ele><time>2026-04-11T15:09:18.298Z</time></trkpt><trkpt lat="45.8559926" lon="11.7350543"><ele>1052.0</ele><time>2026-04-11T15:09:19.29Z</time></trkpt><trkpt lat="45.8558883" lon="11.7350831"><ele>1052.0</ele><time>2026-04-11T15:09:20.29Z</time></trkpt><trkpt lat="45.8557588" lon="11.7350682"><ele>1052.0</ele><time>2026-04-11T15:09:21.292Z</time></trkpt><trkpt lat="45.8556337" lon="11.7350366"><ele>1052.75</ele><time>2026-04-11T15:09:22.294Z</time></trkpt><trkpt lat="45.8555082" lon="11.7350067"><ele>1053.5</ele><time>2026-04-11T15:09:23.293Z</time></trkpt><trkpt lat="45.8553992" lon="11.7348822"><ele>1054.25</ele><time>2026-04-11T15:09:24.292Z</time></trkpt><trkpt lat="45.8552887" lon="11.7347339"><ele>1055.0</ele><time>2026-04-11T15:09:25.292Z</time></trkpt><trkpt lat="45.8551438" lon="11.7346294"><ele>1053.0</ele><time>2026-04-11T15:09:26.314Z</time></trkpt><trkpt lat="45.8550258" lon="11.7345549"><ele>1051.0</ele><time>2026-04-11T15:09:27.288Z</time></trkpt><trkpt lat="45.8549143" lon="11.7345173"><ele>1049.0</ele><time>2026-04-11T15:09:28.3Z</time></trkpt><trkpt lat="45.8547943" lon="11.7345384"><ele>1047.0</ele><time>2026-04-11T15:09:29.288Z</time></trkpt><trkpt lat="45.8546978" lon="11.7346512"><ele>1047.0</ele><time>2026-04-11T15:09:30.295Z</time></trkpt><trkpt lat="45.8546103" lon="11.7347998"><ele>1047.0</ele><time>2026-04-11T15:09:31.294Z</time></trkpt><trkpt lat="45.8545166" lon="11.7349074"><ele>1047.0</ele><time>2026-04-11T15:09:32.294Z</time></trkpt><trkpt lat="45.8544181" lon="11.7349957"><ele>1047.0</ele><time>2026-04-11T15:09:33.293Z</time></trkpt><trkpt lat="45.8542844" lon="11.7350305"><ele>1049.25</ele><time>2026-04-11T15:09:34.292Z</time></trkpt><trkpt lat="45.8541582" lon="11.7350509"><ele>1051.5</ele><time>2026-04-11T15:09:35.283Z</time></trkpt><trkpt lat="45.8540482" lon="11.7350817"><ele>1053.75</ele><time>2026-04-11T15:09:36.293Z</time></trkpt><trkpt lat="45.8539405" lon="11.7351745"><ele>1056.0</ele><time>2026-04-11T15:09:37.288Z</time></trkpt><trkpt lat="45.8538955" lon="11.735356"><ele>1050.0</ele><time>2026-04-11T15:09:38.287Z</time></trkpt><trkpt lat="45.8538379" lon="11.7355009"><ele>1044.0</ele><time>2026-04-11T15:09:39.289Z</time></trkpt><trkpt lat="45.8537438" lon="11.7355971"><ele>1038.0</ele><time>2026-04-11T15:09:40.285Z</time></trkpt><trkpt lat="45.8536191" lon="11.7356361"><ele>1032.0</ele><time>2026-04-11T15:09:41.294Z</time></trkpt><trkpt lat="45.8534907" lon="11.7356899"><ele>1037.6666666666667</ele><time>2026-04-11T15:09:42.29Z</time></trkpt><trkpt lat="45.8533491" lon="11.7357399"><ele>1043.3333333333335</ele><time>2026-04-11T15:09:43.285Z</time></trkpt><trkpt lat="45.8532285" lon="11.7358419"><ele>1049.0</ele><time>2026-04-11T15:09:44.291Z</time></trkpt><trkpt lat="45.8530986" lon="11.7359855"><ele>1041.0</ele><time>2026-04-11T15:09:45.293Z</time></trkpt><trkpt lat="45.8529725" lon="11.73611"><ele>1033.0</ele><time>2026-04-11T15:09:46.294Z</time></trkpt><trkpt lat="45.8528369" lon="11.736226"><ele>1025.0</ele><time>2026-04-11T15:09:47.288Z</time></trkpt><trkpt lat="45.8527032" lon="11.7363206"><ele>1029.5</ele><time>2026-04-11T15:09:48.292Z</time></trkpt><trkpt lat="45.852607" lon="11.7364317"><ele>1034.0</ele><time>2026-04-11T15:09:49.289Z</time></trkpt><trkpt lat="45.8525333" lon="11.7365538"><ele>1038.5</ele><time>2026-04-11T15:09:50.29Z</time></trkpt><trkpt lat="45.8524897" lon="11.7367012"><ele>1043.0</ele><time>2026-04-11T15:09:51.289Z</time></trkpt><trkpt lat="45.8524735" lon="11.7368686"><ele>1041.5</ele><time>2026-04-11T15:09:52.29Z</time></trkpt><trkpt lat="45.8524666" lon="11.7370524"><ele>1040.0</ele><time>2026-04-11T15:09:53.293Z</time></trkpt><trkpt lat="45.8524809" lon="11.7372221"><ele>1038.5</ele><time>2026-04-11T15:09:54.286Z</time></trkpt><trkpt lat="45.8524864" lon="11.7373968"><ele>1037.0</ele><time>2026-04-11T15:09:55.285Z</time></trkpt><trkpt lat="45.8524762" lon="11.7375486"><ele>1037.0</ele><time>2026-04-11T15:09:56.288Z</time></trkpt><trkpt lat="45.8524429" lon="11.7376827"><ele>1037.0</ele><time>2026-04-11T15:09:57.301Z</time></trkpt><trkpt lat="45.8523674" lon="11.7378105"><ele>1037.0</ele><time>2026-04-11T15:09:58.291Z</time></trkpt><trkpt lat="45.8522754" lon="11.7379377"><ele>1037.0</ele><time>2026-04-11T15:09:59.288Z</time></trkpt><trkpt lat="45.8521747" lon="11.7380437"><ele>1039.25</ele><time>2026-04-11T15:10:00.301Z</time></trkpt><trkpt lat="45.8520594" lon="11.7381071"><ele>1041.5</ele><time>2026-04-11T15:10:01.292Z</time></trkpt><trkpt lat="45.8519545" lon="11.7381606"><ele>1043.75</ele><time>2026-04-11T15:10:02.292Z</time></trkpt><trkpt lat="45.8518446" lon="11.7381923"><ele>1046.0</ele><time>2026-04-11T15:10:03.294Z</time></trkpt><trkpt lat="45.8517465" lon="11.7382697"><ele>1046.0</ele><time>2026-04-11T15:10:04.299Z</time></trkpt><trkpt lat="45.8516764" lon="11.7383965"><ele>1046.0</ele><time>2026-04-11T15:10:05.29Z</time></trkpt><trkpt lat="45.8517245" lon="11.7385768"><ele>1046.0</ele><time>2026-04-11T15:10:06.301Z</time></trkpt><trkpt lat="45.8517707" lon="11.7387439"><ele>1046.0</ele><time>2026-04-11T15:10:07.294Z</time></trkpt><trkpt lat="45.8518448" lon="11.738883"><ele>1040.25</ele><time>2026-04-11T15:10:08.303Z</time></trkpt><trkpt lat="45.851926" lon="11.7390244"><ele>1034.5</ele><time>2026-04-11T15:10:09.301Z</time></trkpt><trkpt lat="45.8520119" lon="11.7391767"><ele>1028.75</ele><time>2026-04-11T15:10:10.3Z</time></trkpt><trkpt lat="45.8520912" lon="11.7393355"><ele>1023.0</ele><time>2026-04-11T15:10:11.293Z</time></trkpt><trkpt lat="45.8521557" lon="11.7394871"><ele>1021.75</ele><time>2026-04-11T15:10:12.294Z</time></trkpt><trkpt lat="45.8522013" lon="11.7396413"><ele>1020.5</ele><time>2026-04-11T15:10:13.29Z</time></trkpt><trkpt lat="45.8522409" lon="11.7397939"><ele>1019.25</ele><time>2026-04-11T15:10:14.297Z</time></trkpt><trkpt lat="45.8522257" lon="11.7399592"><ele>1018.0</ele><time>2026-04-11T15:10:15.295Z</time></trkpt><trkpt lat="45.8522058" lon="11.7401174"><ele>1015.5</ele><time>2026-04-11T15:10:16.281Z</time></trkpt><trkpt lat="45.852152" lon="11.7402738"><ele>1013.0</ele><time>2026-04-11T15:10:17.304Z</time></trkpt><trkpt lat="45.8520904" lon="11.7404307"><ele>1010.5</ele><time>2026-04-11T15:10:18.284Z</time></trkpt><trkpt lat="45.8520191" lon="11.7405903"><ele>1008.0</ele><time>2026-04-11T15:10:19.29Z</time></trkpt><trkpt lat="45.8519313" lon="11.7407372"><ele>1008.0</ele><time>2026-04-11T15:10:20.288Z</time></trkpt><trkpt lat="45.8518362" lon="11.7408754"><ele>1008.0</ele><time>2026-04-11T15:10:21.299Z</time></trkpt><trkpt lat="45.8517463" lon="11.741023"><ele>1008.0</ele><time>2026-04-11T15:10:22.298Z</time></trkpt><trkpt lat="45.8516618" lon="11.7411925"><ele>1008.0</ele><time>2026-04-11T15:10:23.307Z</time></trkpt><trkpt lat="45.8515867" lon="11.741372"><ele>1006.0</ele><time>2026-04-11T15:10:24.294Z</time></trkpt><trkpt lat="45.8515122" lon="11.7415568"><ele>1004.0</ele><time>2026-04-11T15:10:25.291Z</time></trkpt><trkpt lat="45.8514353" lon="11.7417323"><ele>1002.0</ele><time>2026-04-11T15:10:26.285Z</time></trkpt><trkpt lat="45.8513596" lon="11.7418981"><ele>1000.0</ele><time>2026-04-11T15:10:27.292Z</time></trkpt><trkpt lat="45.8512828" lon="11.7420541"><ele>1000.0</ele><time>2026-04-11T15:10:28.296Z</time></trkpt><trkpt lat="45.8512095" lon="11.742192"><ele>1000.0</ele><time>2026-04-11T15:10:29.29Z</time></trkpt><trkpt lat="45.8511284" lon="11.7423183"><ele>1000.0</ele><time>2026-04-11T15:10:30.288Z</time></trkpt><trkpt lat="45.8510247" lon="11.742429"><ele>1000.0</ele><time>2026-04-11T15:10:31.292Z</time></trkpt><trkpt lat="45.8509095" lon="11.7425254"><ele>998.75</ele><time>2026-04-11T15:10:32.294Z</time></trkpt><trkpt lat="45.8507896" lon="11.7426106"><ele>997.5</ele><time>2026-04-11T15:10:33.299Z</time></trkpt><trkpt lat="45.8506777" lon="11.7426846"><ele>996.25</ele><time>2026-04-11T15:10:34.302Z</time></trkpt><trkpt lat="45.850577" lon="11.7427489"><ele>995.0</ele><time>2026-04-11T15:10:35.3Z</time></trkpt><trkpt lat="45.8504818" lon="11.7428024"><ele>995.0</ele><time>2026-04-11T15:10:36.31Z</time></trkpt><trkpt lat="45.8503835" lon="11.7428427"><ele>995.0</ele><time>2026-04-11T15:10:37.293Z</time></trkpt><trkpt lat="45.8502824" lon="11.7428409"><ele>995.0</ele><time>2026-04-11T15:10:38.288Z</time></trkpt><trkpt lat="45.850182" lon="11.7428018"><ele>995.0</ele><time>2026-04-11T15:10:39.302Z</time></trkpt><trkpt lat="45.8500787" lon="11.7427455"><ele>995.0</ele><time>2026-04-11T15:10:40.301Z</time></trkpt><trkpt lat="45.8499727" lon="11.7427068"><ele>997.25</ele><time>2026-04-11T15:10:41.307Z</time></trkpt><trkpt lat="45.8498541" lon="11.7427078"><ele>999.5</ele><time>2026-04-11T15:10:42.285Z</time></trkpt><trkpt lat="45.8497113" lon="11.7427571"><ele>1001.75</ele><time>2026-04-11T15:10:43.285Z</time></trkpt><trkpt lat="45.8495597" lon="11.7428247"><ele>1004.0</ele><time>2026-04-11T15:10:44.299Z</time></trkpt><trkpt lat="45.849393" lon="11.7428797"><ele>1007.6666666666667</ele><time>2026-04-11T15:10:45.29Z</time></trkpt><trkpt lat="45.849226" lon="11.7429072"><ele>1011.3333333333333</ele><time>2026-04-11T15:10:46.288Z</time></trkpt><trkpt lat="45.8490626" lon="11.7429359"><ele>1015.0</ele><time>2026-04-11T15:10:47.293Z</time></trkpt><trkpt lat="45.8489045" lon="11.7430079"><ele>1015.0</ele><time>2026-04-11T15:10:48.287Z</time></trkpt><trkpt lat="45.8487674" lon="11.7431555"><ele>1015.0</ele><time>2026-04-11T15:10:49.292Z</time></trkpt><trkpt lat="45.8486214" lon="11.7432962"><ele>1015.0</ele><time>2026-04-11T15:10:50.293Z</time></trkpt><trkpt lat="45.8484913" lon="11.7434444"><ele>1011.0</ele><time>2026-04-11T15:10:51.293Z</time></trkpt><trkpt lat="45.8483545" lon="11.7435708"><ele>1007.0</ele><time>2026-04-11T15:10:52.287Z</time></trkpt><trkpt lat="45.8481934" lon="11.7436764"><ele>1003.0</ele><time>2026-04-11T15:10:53.383Z</time></trkpt><trkpt lat="45.8480276" lon="11.7437682"><ele>1003.0</ele><time>2026-04-11T15:10:54.286Z</time></trkpt><trkpt lat="45.8478826" lon="11.7438599"><ele>1003.0</ele><time>2026-04-11T15:10:55.288Z</time></trkpt><trkpt lat="45.8477477" lon="11.7439359"><ele>1003.0</ele><time>2026-04-11T15:10:56.299Z</time></trkpt><trkpt lat="45.847635" lon="11.7439964"><ele>1003.0</ele><time>2026-04-11T15:10:57.298Z</time></trkpt><trkpt lat="45.8475303" lon="11.7439967"><ele>1004.5</ele><time>2026-04-11T15:10:58.295Z</time></trkpt><trkpt lat="45.8474233" lon="11.7439919"><ele>1006.0</ele><time>2026-04-11T15:10:59.288Z</time></trkpt><trkpt lat="45.8473548" lon="11.7438735"><ele>1007.5</ele><time>2026-04-11T15:11:00.289Z</time></trkpt><trkpt lat="45.8472809" lon="11.7437187"><ele>1009.0</ele><time>2026-04-11T15:11:01.293Z</time></trkpt><trkpt lat="45.8472052" lon="11.7435448"><ele>1011.0</ele><time>2026-04-11T15:11:02.29Z</time></trkpt><trkpt lat="45.8471174" lon="11.7433683"><ele>1013.0</ele><time>2026-04-11T15:11:03.287Z</time></trkpt><trkpt lat="45.8470076" lon="11.7432318"><ele>1015.0</ele><time>2026-04-11T15:11:04.282Z</time></trkpt><trkpt lat="45.8468687" lon="11.7431847"><ele>1017.0</ele><time>2026-04-11T15:11:05.295Z</time></trkpt><trkpt lat="45.84675" lon="11.7431405"><ele>1017.0</ele><time>2026-04-11T15:11:06.289Z</time></trkpt><trkpt lat="45.8466244" lon="11.7432299"><ele>1017.0</ele><time>2026-04-11T15:11:07.288Z</time></trkpt><trkpt lat="45.8465266" lon="11.7433501"><ele>1017.0</ele><time>2026-04-11T15:11:08.3Z</time></trkpt><trkpt lat="45.8464493" lon="11.7435708"><ele>1017.0</ele><time>2026-04-11T15:11:09.289Z</time></trkpt><trkpt lat="45.8463841" lon="11.7438301"><ele>1013.0</ele><time>2026-04-11T15:11:10.296Z</time></trkpt><trkpt lat="45.8462757" lon="11.7440703"><ele>1009.0</ele><time>2026-04-11T15:11:11.292Z</time></trkpt><trkpt lat="45.8461656" lon="11.7442735"><ele>1005.0</ele><time>2026-04-11T15:11:12.283Z</time></trkpt><trkpt lat="45.8460259" lon="11.7444313"><ele>1005.6666666666667</ele><time>2026-04-11T15:11:13.289Z</time></trkpt><trkpt lat="45.8458925" lon="11.7445674"><ele>1006.3333333333334</ele><time>2026-04-11T15:11:14.28Z</time></trkpt><trkpt lat="45.8457122" lon="11.7446728"><ele>1007.0</ele><time>2026-04-11T15:11:15.292Z</time></trkpt><trkpt lat="45.8455223" lon="11.7447869"><ele>1007.0</ele><time>2026-04-11T15:11:16.297Z</time></trkpt><trkpt lat="45.8453582" lon="11.7448638"><ele>1007.0</ele><time>2026-04-11T15:11:17.341Z</time></trkpt><trkpt lat="45.8452198" lon="11.7449586"><ele>1007.0</ele><time>2026-04-11T15:11:18.295Z</time></trkpt><trkpt lat="45.8451101" lon="11.745051"><ele>1009.0</ele><time>2026-04-11T15:11:19.287Z</time></trkpt><trkpt lat="45.8450076" lon="11.7451357"><ele>1011.0</ele><time>2026-04-11T15:11:20.288Z</time></trkpt><trkpt lat="45.8449091" lon="11.7452205"><ele>1013.0</ele><time>2026-04-11T15:11:21.308Z</time></trkpt><trkpt lat="45.8447777" lon="11.7452443"><ele>1015.0</ele><time>2026-04-11T15:11:22.291Z</time></trkpt><trkpt lat="45.844639" lon="11.7451646"><ele>1015.0</ele><time>2026-04-11T15:11:23.293Z</time></trkpt><trkpt lat="45.8445015" lon="11.745095"><ele>1015.0</ele><time>2026-04-11T15:11:24.372Z</time></trkpt><trkpt lat="45.8443639" lon="11.7449477"><ele>1015.0</ele><time>2026-04-11T15:11:25.362Z</time></trkpt><trkpt lat="45.8442262" lon="11.7447696"><ele>1017.6666666666666</ele><time>2026-04-11T15:11:26.326Z</time></trkpt><trkpt lat="45.8440781" lon="11.7445845"><ele>1020.3333333333333</ele><time>2026-04-11T15:11:27.303Z</time></trkpt><trkpt lat="45.8439345" lon="11.7443892"><ele>1023.0</ele><time>2026-04-11T15:11:28.311Z</time></trkpt><trkpt lat="45.8437869" lon="11.744193"><ele>1023.0</ele><time>2026-04-11T15:11:29.312Z</time></trkpt><trkpt lat="45.8436434" lon="11.7440058"><ele>1023.0</ele><time>2026-04-11T15:11:30.304Z</time></trkpt><trkpt lat="45.8435191" lon="11.7437875"><ele>1023.0</ele><time>2026-04-11T15:11:31.291Z</time></trkpt><trkpt lat="45.8434038" lon="11.7435587"><ele>1018.6666666666667</ele><time>2026-04-11T15:11:32.296Z</time></trkpt><trkpt lat="45.8433029" lon="11.7433539"><ele>1014.3333333333334</ele><time>2026-04-11T15:11:33.295Z</time></trkpt><trkpt lat="45.8431978" lon="11.7431803"><ele>1010.0</ele><time>2026-04-11T15:11:34.312Z</time></trkpt><trkpt lat="45.8431265" lon="11.7430342"><ele>1010.0</ele><time>2026-04-11T15:11:35.32Z</time></trkpt><trkpt lat="45.8430619" lon="11.7429114"><ele>1010.0</ele><time>2026-04-11T15:11:36.295Z</time></trkpt><trkpt lat="45.8430089" lon="11.7427699"><ele>1010.0</ele><time>2026-04-11T15:11:37.297Z</time></trkpt><trkpt lat="45.8429953" lon="11.7426008"><ele>1010.0</ele><time>2026-04-11T15:11:38.303Z</time></trkpt><trkpt lat="45.8430006" lon="11.7424356"><ele>1014.3333333333334</ele><time>2026-04-11T15:11:39.29Z</time></trkpt><trkpt lat="45.8430231" lon="11.7422085"><ele>1018.6666666666667</ele><time>2026-04-11T15:11:40.291Z</time></trkpt><trkpt lat="45.8430164" lon="11.7419861"><ele>1023.0</ele><time>2026-04-11T15:11:41.313Z</time></trkpt><trkpt lat="45.8430042" lon="11.7417492"><ele>1025.3333333333333</ele><time>2026-04-11T15:11:42.291Z</time></trkpt><trkpt lat="45.842952" lon="11.7415299"><ele>1027.6666666666665</ele><time>2026-04-11T15:11:43.291Z</time></trkpt><trkpt lat="45.8429222" lon="11.7413035"><ele>1030.0</ele><time>2026-04-11T15:11:44.285Z</time></trkpt><trkpt lat="45.8428938" lon="11.7410875"><ele>1032.0</ele><time>2026-04-11T15:11:45.287Z</time></trkpt><trkpt lat="45.8428665" lon="11.7408832"><ele>1034.0</ele><time>2026-04-11T15:11:46.297Z</time></trkpt><trkpt lat="45.8428354" lon="11.7407081"><ele>1036.0</ele><time>2026-04-11T15:11:47.292Z</time></trkpt><trkpt lat="45.8427902" lon="11.7405905"><ele>1038.0</ele><time>2026-04-11T15:11:48.293Z</time></trkpt><trkpt lat="45.842713" lon="11.74048"><ele>1029.5</ele><time>2026-04-11T15:11:49.284Z</time></trkpt><trkpt lat="45.8425873" lon="11.740452"><ele>1021.0</ele><time>2026-04-11T15:11:50.293Z</time></trkpt><trkpt lat="45.8424333" lon="11.7404977"><ele>1012.5</ele><time>2026-04-11T15:11:51.286Z</time></trkpt><trkpt lat="45.8422995" lon="11.7405021"><ele>1004.0</ele><time>2026-04-11T15:11:52.288Z</time></trkpt><trkpt lat="45.8421676" lon="11.7404595"><ele>1004.0</ele><time>2026-04-11T15:11:53.285Z</time></trkpt><trkpt lat="45.8420286" lon="11.7403826"><ele>1004.0</ele><time>2026-04-11T15:11:54.287Z</time></trkpt><trkpt lat="45.8418751" lon="11.7402877"><ele>1004.0</ele><time>2026-04-11T15:11:55.288Z</time></trkpt><trkpt lat="45.8417321" lon="11.7401921"><ele>1005.0</ele><time>2026-04-11T15:11:56.314Z</time></trkpt><trkpt lat="45.8415967" lon="11.7400857"><ele>1006.0</ele><time>2026-04-11T15:11:57.293Z</time></trkpt><trkpt lat="45.8414754" lon="11.7399449"><ele>1007.0</ele><time>2026-04-11T15:11:58.287Z</time></trkpt><trkpt lat="45.8413721" lon="11.7397435"><ele>1007.0</ele><time>2026-04-11T15:11:59.295Z</time></trkpt><trkpt lat="45.8412662" lon="11.7395521"><ele>1007.0</ele><time>2026-04-11T15:12:00.334Z</time></trkpt><trkpt lat="45.8412027" lon="11.7393555"><ele>1007.0</ele><time>2026-04-11T15:12:01.299Z</time></trkpt><trkpt lat="45.8411312" lon="11.7391681"><ele>1003.6666666666667</ele><time>2026-04-11T15:12:02.335Z</time></trkpt><trkpt lat="45.8410345" lon="11.7389871"><ele>1000.3333333333333</ele><time>2026-04-11T15:12:03.285Z</time></trkpt><trkpt lat="45.8408995" lon="11.7388667"><ele>997.0</ele><time>2026-04-11T15:12:04.293Z</time></trkpt><trkpt lat="45.840777" lon="11.7387635"><ele>997.0</ele><time>2026-04-11T15:12:05.291Z</time></trkpt><trkpt lat="45.840672" lon="11.7386796"><ele>997.0</ele><time>2026-04-11T15:12:06.299Z</time></trkpt><trkpt lat="45.8405734" lon="11.7385351"><ele>997.0</ele><time>2026-04-11T15:12:07.298Z</time></trkpt><trkpt lat="45.8405034" lon="11.738345"><ele>997.0</ele><time>2026-04-11T15:12:08.284Z</time></trkpt><trkpt lat="45.8404256" lon="11.7381449"><ele>999.0</ele><time>2026-04-11T15:12:09.297Z</time></trkpt><trkpt lat="45.840335" lon="11.7379613"><ele>1001.0</ele><time>2026-04-11T15:12:10.29Z</time></trkpt><trkpt lat="45.8402378" lon="11.7377853"><ele>1003.0</ele><time>2026-04-11T15:12:11.293Z</time></trkpt><trkpt lat="45.8401241" lon="11.7376323"><ele>1003.0</ele><time>2026-04-11T15:12:12.29Z</time></trkpt><trkpt lat="45.8399921" lon="11.7375035"><ele>1003.0</ele><time>2026-04-11T15:12:13.287Z</time></trkpt><trkpt lat="45.8398465" lon="11.7373884"><ele>1003.0</ele><time>2026-04-11T15:12:14.294Z</time></trkpt><trkpt lat="45.8396952" lon="11.7372641"><ele>1003.0</ele><time>2026-04-11T15:12:15.29Z</time></trkpt><trkpt lat="45.8395514" lon="11.7371188"><ele>1003.0</ele><time>2026-04-11T15:12:16.29Z</time></trkpt><trkpt lat="45.839417" lon="11.7369808"><ele>1003.0</ele><time>2026-04-11T15:12:17.287Z</time></trkpt><trkpt lat="45.8392858" lon="11.7368612"><ele>1001.5</ele><time>2026-04-11T15:12:18.29Z</time></trkpt><trkpt lat="45.8391521" lon="11.7367798"><ele>1000.0</ele><time>2026-04-11T15:12:19.349Z</time></trkpt><trkpt lat="45.8390089" lon="11.7367445"><ele>998.5</ele><time>2026-04-11T15:12:20.285Z</time></trkpt><trkpt lat="45.8388624" lon="11.7367379"><ele>997.0</ele><time>2026-04-11T15:12:21.287Z</time></trkpt><trkpt lat="45.8387137" lon="11.7367378"><ele>997.0</ele><time>2026-04-11T15:12:22.291Z</time></trkpt><trkpt lat="45.8385637" lon="11.7367364"><ele>997.0</ele><time>2026-04-11T15:12:23.297Z</time></trkpt><trkpt lat="45.838415" lon="11.7367343"><ele>997.0</ele><time>2026-04-11T15:12:24.292Z</time></trkpt><trkpt lat="45.8382706" lon="11.7367335"><ele>997.0</ele><time>2026-04-11T15:12:25.292Z</time></trkpt><trkpt lat="45.8381357" lon="11.7367317"><ele>997.75</ele><time>2026-04-11T15:12:26.297Z</time></trkpt><trkpt lat="45.8380028" lon="11.7367174"><ele>998.5</ele><time>2026-04-11T15:12:27.299Z</time></trkpt><trkpt lat="45.8378712" lon="11.7366724"><ele>999.25</ele><time>2026-04-11T15:12:28.297Z</time></trkpt><trkpt lat="45.8377456" lon="11.7365846"><ele>1000.0</ele><time>2026-04-11T15:12:29.292Z</time></trkpt><trkpt lat="45.8376202" lon="11.7364789"><ele>1001.0</ele><time>2026-04-11T15:12:30.296Z</time></trkpt><trkpt lat="45.8374873" lon="11.7363832"><ele>1002.0</ele><time>2026-04-11T15:12:31.287Z</time></trkpt><trkpt lat="45.8373419" lon="11.7363049"><ele>1003.0</ele><time>2026-04-11T15:12:32.295Z</time></trkpt><trkpt lat="45.8371894" lon="11.7362296"><ele>1003.0</ele><time>2026-04-11T15:12:33.29Z</time></trkpt><trkpt lat="45.8370346" lon="11.7361457"><ele>1003.0</ele><time>2026-04-11T15:12:34.287Z</time></trkpt><trkpt lat="45.8368812" lon="11.7360621"><ele>1003.0</ele><time>2026-04-11T15:12:35.313Z</time></trkpt><trkpt lat="45.8367273" lon="11.735992"><ele>1002.6666666666666</ele><time>2026-04-11T15:12:36.337Z</time></trkpt><trkpt lat="45.8365738" lon="11.735948"><ele>1002.3333333333333</ele><time>2026-04-11T15:12:37.338Z</time></trkpt><trkpt lat="45.836411" lon="11.7359014"><ele>1002.0</ele><time>2026-04-11T15:12:38.291Z</time></trkpt><trkpt lat="45.8362587" lon="11.7358221"><ele>1002.0</ele><time>2026-04-11T15:12:39.303Z</time></trkpt><trkpt lat="45.8361073" lon="11.7357311"><ele>1002.0</ele><time>2026-04-11T15:12:40.293Z</time></trkpt><trkpt lat="45.8359698" lon="11.735587"><ele>1002.0</ele><time>2026-04-11T15:12:41.283Z</time></trkpt><trkpt lat="45.8358445" lon="11.7354146"><ele>1002.6666666666667</ele><time>2026-04-11T15:12:42.29Z</time></trkpt><trkpt lat="45.8357209" lon="11.7352442"><ele>1003.3333333333334</ele><time>2026-04-11T15:12:43.289Z</time></trkpt><trkpt lat="45.8355947" lon="11.735079"><ele>1004.0</ele><time>2026-04-11T15:12:44.288Z</time></trkpt><trkpt lat="45.8354707" lon="11.734928"><ele>1005.0</ele><time>2026-04-11T15:12:45.303Z</time></trkpt><trkpt lat="45.8353399" lon="11.7348087"><ele>1006.0</ele><time>2026-04-11T15:12:46.286Z</time></trkpt><trkpt lat="45.835223" lon="11.7346901"><ele>1007.0</ele><time>2026-04-11T15:12:47.291Z</time></trkpt><trkpt lat="45.8351306" lon="11.7345495"><ele>1008.0</ele><time>2026-04-11T15:12:48.291Z</time></trkpt><trkpt lat="45.8350696" lon="11.7343908"><ele>1010.8</ele><time>2026-04-11T15:12:49.291Z</time></trkpt><trkpt lat="45.8350347" lon="11.7342293"><ele>1013.5999999999999</ele><time>2026-04-11T15:12:50.289Z</time></trkpt><trkpt lat="45.834996" lon="11.73409"><ele>1016.4000000000001</ele><time>2026-04-11T15:12:51.285Z</time></trkpt><trkpt lat="45.8349287" lon="11.7339906"><ele>1019.2</ele><time>2026-04-11T15:12:52.292Z</time></trkpt><trkpt lat="45.834838" lon="11.7339365"><ele>1022.0</ele><time>2026-04-11T15:12:53.291Z</time></trkpt><trkpt lat="45.8347353" lon="11.73393"><ele>1022.0</ele><time>2026-04-11T15:12:54.301Z</time></trkpt><trkpt lat="45.8346251" lon="11.7339552"><ele>1022.0</ele><time>2026-04-11T15:12:55.296Z</time></trkpt><trkpt lat="45.8345103" lon="11.7340099"><ele>1022.0</ele><time>2026-04-11T15:12:56.297Z</time></trkpt><trkpt lat="45.8343994" lon="11.7340981"><ele>1022.0</ele><time>2026-04-11T15:12:57.297Z</time></trkpt><trkpt lat="45.8342928" lon="11.7342133"><ele>1022.0</ele><time>2026-04-11T15:12:58.292Z</time></trkpt><trkpt lat="45.8341925" lon="11.7343455"><ele>1022.0</ele><time>2026-04-11T15:12:59.292Z</time></trkpt><trkpt lat="45.8340957" lon="11.734477"><ele>1022.0</ele><time>2026-04-11T15:13:00.311Z</time></trkpt><trkpt lat="45.8339967" lon="11.7346105"><ele>1022.0</ele><time>2026-04-11T15:13:01.304Z</time></trkpt><trkpt lat="45.8338954" lon="11.7347358"><ele>1022.0</ele><time>2026-04-11T15:13:02.3Z</time></trkpt><trkpt lat="45.8337875" lon="11.7348499"><ele>1022.0</ele><time>2026-04-11T15:13:03.301Z</time></trkpt><trkpt lat="45.8336713" lon="11.7349449"><ele>1022.0</ele><time>2026-04-11T15:13:04.307Z</time></trkpt><trkpt lat="45.8335465" lon="11.7350145"><ele>1022.0</ele><time>2026-04-11T15:13:05.323Z</time></trkpt><trkpt lat="45.8334146" lon="11.7350635"><ele>1021.25</ele><time>2026-04-11T15:13:06.312Z</time></trkpt><trkpt lat="45.8332775" lon="11.735104"><ele>1020.5</ele><time>2026-04-11T15:13:07.32Z</time></trkpt><trkpt lat="45.8331441" lon="11.7351343"><ele>1019.75</ele><time>2026-04-11T15:13:08.327Z</time></trkpt><trkpt lat="45.8330226" lon="11.7351522"><ele>1019.0</ele><time>2026-04-11T15:13:09.331Z</time></trkpt><trkpt lat="45.8329175" lon="11.7351886"><ele>1019.75</ele><time>2026-04-11T15:13:10.313Z</time></trkpt><trkpt lat="45.8328294" lon="11.7352765"><ele>1020.5</ele><time>2026-04-11T15:13:11.31Z</time></trkpt><trkpt lat="45.8327634" lon="11.7354101"><ele>1021.25</ele><time>2026-04-11T15:13:12.314Z</time></trkpt><trkpt lat="45.8327025" lon="11.7355721"><ele>1022.0</ele><time>2026-04-11T15:13:13.321Z</time></trkpt><trkpt lat="45.8326239" lon="11.7357282"><ele>1022.0</ele><time>2026-04-11T15:13:14.336Z</time></trkpt><trkpt lat="45.8325454" lon="11.735888"><ele>1022.0</ele><time>2026-04-11T15:13:15.319Z</time></trkpt><trkpt lat="45.8324132" lon="11.7359546"><ele>1022.0</ele><time>2026-04-11T15:13:16.313Z</time></trkpt><trkpt lat="45.8322694" lon="11.7359819"><ele>1022.0</ele><time>2026-04-11T15:13:17.319Z</time></trkpt><trkpt lat="45.832131" lon="11.7359838"><ele>1022.0</ele><time>2026-04-11T15:13:18.316Z</time></trkpt><trkpt lat="45.8320041" lon="11.7359703"><ele>1022.0</ele><time>2026-04-11T15:13:19.349Z</time></trkpt><trkpt lat="45.8318908" lon="11.7359756"><ele>1022.0</ele><time>2026-04-11T15:13:20.323Z</time></trkpt><trkpt lat="45.8317961" lon="11.7360235"><ele>1022.0</ele><time>2026-04-11T15:13:21.304Z</time></trkpt><trkpt lat="45.8317229" lon="11.7361382"><ele>1022.0</ele><time>2026-04-11T15:13:22.327Z</time></trkpt><trkpt lat="45.8316749" lon="11.7362976"><ele>1021.25</ele><time>2026-04-11T15:13:23.317Z</time></trkpt><trkpt lat="45.8316303" lon="11.7364763"><ele>1020.5</ele><time>2026-04-11T15:13:24.301Z</time></trkpt><trkpt lat="45.8315893" lon="11.7366483"><ele>1019.75</ele><time>2026-04-11T15:13:25.341Z</time></trkpt><trkpt lat="45.8315136" lon="11.7367901"><ele>1019.0</ele><time>2026-04-11T15:13:26.316Z</time></trkpt><trkpt lat="45.8313982" lon="11.7368844"><ele>1022.0</ele><time>2026-04-11T15:13:27.363Z</time></trkpt><trkpt lat="45.8312557" lon="11.7369081"><ele>1025.0</ele><time>2026-04-11T15:13:28.32Z</time></trkpt><trkpt lat="45.8311108" lon="11.7369078"><ele>1028.0</ele><time>2026-04-11T15:13:29.343Z</time></trkpt><trkpt lat="45.8309533" lon="11.7369184"><ele>1031.0</ele><time>2026-04-11T15:13:30.337Z</time></trkpt><trkpt lat="45.8307927" lon="11.7369542"><ele>1031.0</ele><time>2026-04-11T15:13:31.323Z</time></trkpt><trkpt lat="45.8306271" lon="11.7369898"><ele>1031.0</ele><time>2026-04-11T15:13:32.327Z</time></trkpt><trkpt lat="45.830455" lon="11.736993"><ele>1031.0</ele><time>2026-04-11T15:13:33.344Z</time></trkpt><trkpt lat="45.8302772" lon="11.7369632"><ele>1028.6666666666667</ele><time>2026-04-11T15:13:34.34Z</time></trkpt><trkpt lat="45.830099" lon="11.7369266"><ele>1026.3333333333333</ele><time>2026-04-11T15:13:35.34Z</time></trkpt><trkpt lat="45.8299198" lon="11.7368939"><ele>1024.0</ele><time>2026-04-11T15:13:36.305Z</time></trkpt><trkpt lat="45.8297473" lon="11.7368656"><ele>1016.3333333333333</ele><time>2026-04-11T15:13:37.348Z</time></trkpt><trkpt lat="45.8295803" lon="11.736827"><ele>1008.6666666666667</ele><time>2026-04-11T15:13:38.453Z</time></trkpt><trkpt lat="45.8294093" lon="11.7367834"><ele>1001.0</ele><time>2026-04-11T15:13:39.303Z</time></trkpt><trkpt lat="45.8292449" lon="11.736742"><ele>1001.0</ele><time>2026-04-11T15:13:40.308Z</time></trkpt><trkpt lat="45.8290848" lon="11.7367238"><ele>1001.0</ele><time>2026-04-11T15:13:41.294Z</time></trkpt><trkpt lat="45.8289325" lon="11.73672"><ele>1001.0</ele><time>2026-04-11T15:13:42.32Z</time></trkpt><trkpt lat="45.8287879" lon="11.736724"><ele>1001.0</ele><time>2026-04-11T15:13:43.317Z</time></trkpt><trkpt lat="45.8286496" lon="11.7367403"><ele>1001.0</ele><time>2026-04-11T15:13:44.329Z</time></trkpt><trkpt lat="45.8285202" lon="11.7367829"><ele>1001.0</ele><time>2026-04-11T15:13:45.309Z</time></trkpt><trkpt lat="45.828411" lon="11.7368596"><ele>1001.0</ele><time>2026-04-11T15:13:46.303Z</time></trkpt><trkpt lat="45.8283191" lon="11.73698"><ele>1001.25</ele><time>2026-04-11T15:13:47.346Z</time></trkpt><trkpt lat="45.8282434" lon="11.7371389"><ele>1001.5</ele><time>2026-04-11T15:13:48.309Z</time></trkpt><trkpt lat="45.8281858" lon="11.7373289"><ele>1001.75</ele><time>2026-04-11T15:13:49.3Z</time></trkpt><trkpt lat="45.8281476" lon="11.7375456"><ele>1002.0</ele><time>2026-04-11T15:13:50.295Z</time></trkpt><trkpt lat="45.8281328" lon="11.7377824"><ele>1001.0</ele><time>2026-04-11T15:13:51.3Z</time></trkpt><trkpt lat="45.8281261" lon="11.7380242"><ele>1000.0</ele><time>2026-04-11T15:13:52.299Z</time></trkpt><trkpt lat="45.8281587" lon="11.7382734"><ele>999.0</ele><time>2026-04-11T15:13:53.299Z</time></trkpt><trkpt lat="45.8282181" lon="11.7385319"><ele>995.6666666666667</ele><time>2026-04-11T15:13:54.295Z</time></trkpt><trkpt lat="45.8282823" lon="11.7387663"><ele>992.3333333333334</ele><time>2026-04-11T15:13:55.296Z</time></trkpt><trkpt lat="45.8283417" lon="11.7389797"><ele>989.0</ele><time>2026-04-11T15:13:56.291Z</time></trkpt><trkpt lat="45.8283755" lon="11.7391639"><ele>989.0</ele><time>2026-04-11T15:13:57.298Z</time></trkpt><trkpt lat="45.8283774" lon="11.7393401"><ele>989.0</ele><time>2026-04-11T15:13:58.371Z</time></trkpt><trkpt lat="45.8283065" lon="11.7395253"><ele>989.0</ele><time>2026-04-11T15:13:59.285Z</time></trkpt><trkpt lat="45.8282252" lon="11.739671"><ele>989.0</ele><time>2026-04-11T15:14:00.296Z</time></trkpt><trkpt lat="45.8281493" lon="11.7398172"><ele>987.25</ele><time>2026-04-11T15:14:01.297Z</time></trkpt><trkpt lat="45.8281025" lon="11.7399736"><ele>985.5</ele><time>2026-04-11T15:14:02.296Z</time></trkpt><trkpt lat="45.8280966" lon="11.7401544"><ele>983.75</ele><time>2026-04-11T15:14:03.295Z</time></trkpt><trkpt lat="45.8281214" lon="11.7403289"><ele>982.0</ele><time>2026-04-11T15:14:04.293Z</time></trkpt><trkpt lat="45.8281685" lon="11.7404699"><ele>980.0</ele><time>2026-04-11T15:14:05.29Z</time></trkpt><trkpt lat="45.8282493" lon="11.7405717"><ele>978.0</ele><time>2026-04-11T15:14:06.291Z</time></trkpt><trkpt lat="45.8283615" lon="11.7406357"><ele>976.0</ele><time>2026-04-11T15:14:07.284Z</time></trkpt><trkpt lat="45.828487" lon="11.740704"><ele>974.0</ele><time>2026-04-11T15:14:08.287Z</time></trkpt><trkpt lat="45.8286435" lon="11.7407144"><ele>974.0</ele><time>2026-04-11T15:14:09.287Z</time></trkpt><trkpt lat="45.8288054" lon="11.7407265"><ele>974.0</ele><time>2026-04-11T15:14:10.296Z</time></trkpt><trkpt lat="45.8289634" lon="11.74073"><ele>974.0</ele><time>2026-04-11T15:14:11.284Z</time></trkpt><trkpt lat="45.8291087" lon="11.7407433"><ele>974.0</ele><time>2026-04-11T15:14:12.292Z</time></trkpt><trkpt lat="45.8292436" lon="11.7407483"><ele>974.0</ele><time>2026-04-11T15:14:13.293Z</time></trkpt><trkpt lat="45.8293674" lon="11.7407539"><ele>974.0</ele><time>2026-04-11T15:14:14.284Z</time></trkpt><trkpt lat="45.829481" lon="11.7407441"><ele>974.0</ele><time>2026-04-11T15:14:15.283Z</time></trkpt><trkpt lat="45.829588" lon="11.7407432"><ele>977.0</ele><time>2026-04-11T15:14:16.283Z</time></trkpt><trkpt lat="45.8296646" lon="11.7407781"><ele>980.0000000000001</ele><time>2026-04-11T15:14:17.294Z</time></trkpt><trkpt lat="45.8297496" lon="11.7408142"><ele>983.0000000000001</ele><time>2026-04-11T15:14:18.293Z</time></trkpt><trkpt lat="45.8297664" lon="11.7409595"><ele>986.0</ele><time>2026-04-11T15:14:19.288Z</time></trkpt><trkpt lat="45.8297775" lon="11.7410888"><ele>989.0</ele><time>2026-04-11T15:14:20.297Z</time></trkpt><trkpt lat="45.8297311" lon="11.7412165"><ele>989.6</ele><time>2026-04-11T15:14:21.301Z</time></trkpt><trkpt lat="45.8296582" lon="11.7413423"><ele>990.2</ele><time>2026-04-11T15:14:22.289Z</time></trkpt><trkpt lat="45.8296002" lon="11.7414615"><ele>990.8000000000001</ele><time>2026-04-11T15:14:23.282Z</time></trkpt><trkpt lat="45.8295489" lon="11.7415905"><ele>991.4000000000001</ele><time>2026-04-11T15:14:24.29Z</time></trkpt><trkpt lat="45.8295051" lon="11.7417259"><ele>992.0</ele><time>2026-04-11T15:14:25.305Z</time></trkpt><trkpt lat="45.8294629" lon="11.7418571"><ele>993.4000000000001</ele><time>2026-04-11T15:14:26.295Z</time></trkpt><trkpt lat="45.8294277" lon="11.7420009"><ele>994.8000000000001</ele><time>2026-04-11T15:14:27.288Z</time></trkpt><trkpt lat="45.8293915" lon="11.7421425"><ele>996.2</ele><time>2026-04-11T15:14:28.283Z</time></trkpt><trkpt lat="45.8293526" lon="11.7422888"><ele>997.6</ele><time>2026-04-11T15:14:29.304Z</time></trkpt><trkpt lat="45.8293147" lon="11.7424379"><ele>999.0</ele><time>2026-04-11T15:14:30.288Z</time></trkpt><trkpt lat="45.8292505" lon="11.742607"><ele>990.25</ele><time>2026-04-11T15:14:31.286Z</time></trkpt><trkpt lat="45.8291937" lon="11.7427614"><ele>981.5</ele><time>2026-04-11T15:14:32.289Z</time></trkpt><trkpt lat="45.8291413" lon="11.7429168"><ele>972.75</ele><time>2026-04-11T15:14:33.298Z</time></trkpt><trkpt lat="45.8291026" lon="11.7430825"><ele>964.0</ele><time>2026-04-11T15:14:34.297Z</time></trkpt><trkpt lat="45.8290668" lon="11.7432661"><ele>964.0</ele><time>2026-04-11T15:14:35.281Z</time></trkpt><trkpt lat="45.8290345" lon="11.7434501"><ele>964.0</ele><time>2026-04-11T15:14:36.289Z</time></trkpt><trkpt lat="45.8290139" lon="11.7436375"><ele>964.0</ele><time>2026-04-11T15:14:37.295Z</time></trkpt><trkpt lat="45.8290007" lon="11.7438263"><ele>964.0</ele><time>2026-04-11T15:14:38.284Z</time></trkpt><trkpt lat="45.8289928" lon="11.7440087"><ele>963.6</ele><time>2026-04-11T15:14:39.301Z</time></trkpt><trkpt lat="45.8289813" lon="11.7441788"><ele>963.2</ele><time>2026-04-11T15:14:40.286Z</time></trkpt><trkpt lat="45.8289686" lon="11.7443306"><ele>962.8000000000001</ele><time>2026-04-11T15:14:41.285Z</time></trkpt><trkpt lat="45.828967" lon="11.7444648"><ele>962.4000000000001</ele><time>2026-04-11T15:14:42.293Z</time></trkpt><trkpt lat="45.8289862" lon="11.74459"><ele>962.0</ele><time>2026-04-11T15:14:43.306Z</time></trkpt><trkpt lat="45.8290333" lon="11.7447082"><ele>959.4000000000001</ele><time>2026-04-11T15:14:44.29Z</time></trkpt><trkpt lat="45.829104" lon="11.7448122"><ele>956.8000000000001</ele><time>2026-04-11T15:14:45.294Z</time></trkpt><trkpt lat="45.8291767" lon="11.7449138"><ele>954.2</ele><time>2026-04-11T15:14:46.287Z</time></trkpt><trkpt lat="45.8292738" lon="11.7449864"><ele>951.6</ele><time>2026-04-11T15:14:47.289Z</time></trkpt><trkpt lat="45.829378" lon="11.7450632"><ele>949.0</ele><time>2026-04-11T15:14:48.29Z</time></trkpt><trkpt lat="45.829478" lon="11.7451139"><ele>949.0</ele><time>2026-04-11T15:14:49.296Z</time></trkpt><trkpt lat="45.829579" lon="11.7451333"><ele>949.0000000000001</ele><time>2026-04-11T15:14:50.28Z</time></trkpt><trkpt lat="45.8296753" lon="11.7451472"><ele>949.0000000000001</ele><time>2026-04-11T15:14:51.301Z</time></trkpt><trkpt lat="45.8297601" lon="11.7451553"><ele>949.0</ele><time>2026-04-11T15:14:52.281Z</time></trkpt><trkpt lat="45.8298304" lon="11.7451775"><ele>949.0</ele><time>2026-04-11T15:14:53.286Z</time></trkpt><trkpt lat="45.8299263" lon="11.7452501"><ele>946.1666666666666</ele><time>2026-04-11T15:14:55.298Z</time></trkpt><trkpt lat="45.8298922" lon="11.7453746"><ele>943.3333333333333</ele><time>2026-04-11T15:14:57.305Z</time></trkpt><trkpt lat="45.8297718" lon="11.7453726"><ele>940.5</ele><time>2026-04-11T15:14:59.285Z</time></trkpt><trkpt lat="45.8297088" lon="11.7453276"><ele>937.6666666666667</ele><time>2026-04-11T15:15:00.306Z</time></trkpt><trkpt lat="45.8296361" lon="11.7452759"><ele>934.8333333333334</ele><time>2026-04-11T15:15:01.29Z</time></trkpt><trkpt lat="45.8295542" lon="11.7452715"><ele>932.0</ele><time>2026-04-11T15:15:02.287Z</time></trkpt><trkpt lat="45.8294494" lon="11.7452696"><ele>932.0</ele><time>2026-04-11T15:15:03.28Z</time></trkpt><trkpt lat="45.8293186" lon="11.7452748"><ele>932.0</ele><time>2026-04-11T15:15:04.31Z</time></trkpt><trkpt lat="45.8290444" lon="11.7452394"><ele>932.0</ele><time>2026-04-11T15:15:06.303Z</time></trkpt><trkpt lat="45.8289175" lon="11.7451912"><ele>935.0</ele><time>2026-04-11T15:15:07.312Z</time></trkpt><trkpt lat="45.82882" lon="11.7451054"><ele>938.0</ele><time>2026-04-11T15:15:08.292Z</time></trkpt><trkpt lat="45.8287316" lon="11.7449856"><ele>941.0</ele><time>2026-04-11T15:15:09.312Z</time></trkpt><trkpt lat="45.8286619" lon="11.7448743"><ele>944.0</ele><time>2026-04-11T15:15:10.351Z</time></trkpt><trkpt lat="45.8285798" lon="11.7446973"><ele>944.0</ele><time>2026-04-11T15:15:11.295Z</time></trkpt><trkpt lat="45.8285318" lon="11.7445373"><ele>944.0</ele><time>2026-04-11T15:15:12.304Z</time></trkpt><trkpt lat="45.8284889" lon="11.7443525"><ele>944.0</ele><time>2026-04-11T15:15:13.298Z</time></trkpt><trkpt lat="45.8284578" lon="11.7441794"><ele>944.0</ele><time>2026-04-11T15:15:14.282Z</time></trkpt><trkpt lat="45.828433" lon="11.7440043"><ele>938.75</ele><time>2026-04-11T15:15:15.285Z</time></trkpt><trkpt lat="45.8284281" lon="11.7438296"><ele>933.5</ele><time>2026-04-11T15:15:16.293Z</time></trkpt><trkpt lat="45.8284372" lon="11.7436416"><ele>928.25</ele><time>2026-04-11T15:15:17.285Z</time></trkpt><trkpt lat="45.8284451" lon="11.743458"><ele>923.0</ele><time>2026-04-11T15:15:18.294Z</time></trkpt><trkpt lat="45.8284478" lon="11.7432646"><ele>923.0</ele><time>2026-04-11T15:15:19.295Z</time></trkpt><trkpt lat="45.8284381" lon="11.7430784"><ele>923.0</ele><time>2026-04-11T15:15:20.296Z</time></trkpt><trkpt lat="45.8284147" lon="11.7429146"><ele>923.0</ele><time>2026-04-11T15:15:21.295Z</time></trkpt><trkpt lat="45.8283912" lon="11.7427706"><ele>923.0</ele><time>2026-04-11T15:15:22.29Z</time></trkpt><trkpt lat="45.8283741" lon="11.7426202"><ele>923.75</ele><time>2026-04-11T15:15:23.287Z</time></trkpt><trkpt lat="45.8282971" lon="11.7425172"><ele>924.5</ele><time>2026-04-11T15:15:24.285Z</time></trkpt><trkpt lat="45.8281878" lon="11.7424615"><ele>925.25</ele><time>2026-04-11T15:15:25.284Z</time></trkpt><trkpt lat="45.8280568" lon="11.7424604"><ele>926.0</ele><time>2026-04-11T15:15:26.289Z</time></trkpt><trkpt lat="45.8279309" lon="11.7424462"><ele>926.0</ele><time>2026-04-11T15:15:27.284Z</time></trkpt><trkpt lat="45.8277964" lon="11.7424679"><ele>926.0</ele><time>2026-04-11T15:15:28.29Z</time></trkpt><trkpt lat="45.8276609" lon="11.7425071"><ele>926.0</ele><time>2026-04-11T15:15:29.296Z</time></trkpt><trkpt lat="45.8275273" lon="11.7425493"><ele>926.0</ele><time>2026-04-11T15:15:30.286Z</time></trkpt><trkpt lat="45.8273967" lon="11.7425868"><ele>922.0</ele><time>2026-04-11T15:15:31.289Z</time></trkpt><trkpt lat="45.8272608" lon="11.7425972"><ele>918.0</ele><time>2026-04-11T15:15:32.299Z</time></trkpt><trkpt lat="45.8271201" lon="11.7425885"><ele>914.0</ele><time>2026-04-11T15:15:33.284Z</time></trkpt><trkpt lat="45.8269856" lon="11.7425561"><ele>910.0</ele><time>2026-04-11T15:15:34.301Z</time></trkpt><trkpt lat="45.8268513" lon="11.7424777"><ele>903.3333333333333</ele><time>2026-04-11T15:15:35.293Z</time></trkpt><trkpt lat="45.8267424" lon="11.7423498"><ele>896.6666666666667</ele><time>2026-04-11T15:15:36.284Z</time></trkpt><trkpt lat="45.826641" lon="11.7421863"><ele>890.0</ele><time>2026-04-11T15:15:37.297Z</time></trkpt><trkpt lat="45.8265523" lon="11.741991"><ele>895.0</ele><time>2026-04-11T15:15:38.281Z</time></trkpt><trkpt lat="45.8264835" lon="11.7417734"><ele>900.0</ele><time>2026-04-11T15:15:39.29Z</time></trkpt><trkpt lat="45.8264003" lon="11.7415797"><ele>905.0</ele><time>2026-04-11T15:15:40.285Z</time></trkpt><trkpt lat="45.8263309" lon="11.7413865"><ele>905.0</ele><time>2026-04-11T15:15:41.283Z</time></trkpt><trkpt lat="45.8262738" lon="11.7411819"><ele>905.0</ele><time>2026-04-11T15:15:42.288Z</time></trkpt><trkpt lat="45.8262236" lon="11.7409608"><ele>905.0</ele><time>2026-04-11T15:15:43.307Z</time></trkpt><trkpt lat="45.8261911" lon="11.7407275"><ele>906.3333333333334</ele><time>2026-04-11T15:15:44.29Z</time></trkpt><trkpt lat="45.8261646" lon="11.7404839"><ele>907.6666666666667</ele><time>2026-04-11T15:15:45.299Z</time></trkpt><trkpt lat="45.8261353" lon="11.7402368"><ele>909.0</ele><time>2026-04-11T15:15:46.291Z</time></trkpt><trkpt lat="45.8261191" lon="11.7400067"><ele>909.0</ele><time>2026-04-11T15:15:47.295Z</time></trkpt><trkpt lat="45.826114" lon="11.7397819"><ele>909.0</ele><time>2026-04-11T15:15:48.291Z</time></trkpt><trkpt lat="45.8261041" lon="11.7395781"><ele>909.0</ele><time>2026-04-11T15:15:49.293Z</time></trkpt><trkpt lat="45.8284889" lon="11.7443525"><ele>912.25</ele><time>2026-04-11T15:15:13.298Z</time></trkpt><trkpt lat="45.8284578" lon="11.7441794"><ele>915.5</ele><time>2026-04-11T15:15:14.282Z</time></trkpt><trkpt lat="45.828433" lon="11.7440043"><ele>918.75</ele><time>2026-04-11T15:15:15.285Z</time></trkpt><trkpt lat="45.8284281" lon="11.7438296"><ele>922.0</ele><time>2026-04-11T15:15:16.293Z</time></trkpt><trkpt lat="45.8284372" lon="11.7436416"><ele>922.25</ele><time>2026-04-11T15:15:17.285Z</time></trkpt><trkpt lat="45.8284451" lon="11.743458"><ele>922.5</ele><time>2026-04-11T15:15:18.294Z</time></trkpt><trkpt lat="45.8284478" lon="11.7432646"><ele>922.75</ele><time>2026-04-11T15:15:19.295Z</time></trkpt><trkpt lat="45.8284381" lon="11.7430784"><ele>923.0</ele><time>2026-04-11T15:15:20.296Z</time></trkpt><trkpt lat="45.8284147" lon="11.7429146"><ele>923.0</ele><time>2026-04-11T15:15:21.295Z</time></trkpt><trkpt lat="45.8283912" lon="11.7427706"><ele>923.0</ele><time>2026-04-11T15:15:22.29Z</time></trkpt><trkpt lat="45.8283741" lon="11.7426202"><ele>923.0</ele><time>2026-04-11T15:15:23.287Z</time></trkpt><trkpt lat="45.8282971" lon="11.7425172"><ele>923.0</ele><time>2026-04-11T15:15:24.285Z</time></trkpt><trkpt lat="45.8281878" lon="11.7424615"><ele>923.0</ele><time>2026-04-11T15:15:25.284Z</time></trkpt><trkpt lat="45.8280568" lon="11.7424604"><ele>923.75</ele><time>2026-04-11T15:15:26.289Z</time></trkpt><trkpt lat="45.8279309" lon="11.7424462"><ele>924.5</ele><time>2026-04-11T15:15:27.284Z</time></trkpt><trkpt lat="45.8277964" lon="11.7424679"><ele>925.25</ele><time>2026-04-11T15:15:28.29Z</time></trkpt><trkpt lat="45.8276609" lon="11.7425071"><ele>926.0</ele><time>2026-04-11T15:15:29.296Z</time></trkpt><trkpt lat="45.8275273" lon="11.7425493"><ele>922.0</ele><time>2026-04-11T15:15:30.286Z</time></trkpt><trkpt lat="45.8273967" lon="11.7425868"><ele>918.0</ele><time>2026-04-11T15:15:31.289Z</time></trkpt><trkpt lat="45.8272608" lon="11.7425972"><ele>914.0</ele><time>2026-04-11T15:15:32.299Z</time></trkpt><trkpt lat="45.8271201" lon="11.7425885"><ele>910.0</ele><time>2026-04-11T15:15:33.284Z</time></trkpt><trkpt lat="45.8269856" lon="11.7425561"><ele>910.0</ele><time>2026-04-11T15:15:34.301Z</time></trkpt><trkpt lat="45.8268513" lon="11.7424777"><ele>910.0</ele><time>2026-04-11T15:15:35.293Z</time></trkpt><trkpt lat="45.8267424" lon="11.7423498"><ele>910.0</ele><time>2026-04-11T15:15:36.284Z</time></trkpt><trkpt lat="45.826641" lon="11.7421863"><ele>910.0</ele><time>2026-04-11T15:15:37.297Z</time></trkpt><trkpt lat="45.8265523" lon="11.741991"><ele>908.3333333333333</ele><time>2026-04-11T15:15:38.281Z</time></trkpt><trkpt lat="45.8264835" lon="11.7417734"><ele>906.6666666666667</ele><time>2026-04-11T15:15:39.29Z</time></trkpt><trkpt lat="45.8264003" lon="11.7415797"><ele>905.0</ele><time>2026-04-11T15:15:40.285Z</time></trkpt><trkpt lat="45.8263309" lon="11.7413865"><ele>905.0</ele><time>2026-04-11T15:15:41.283Z</time></trkpt><trkpt lat="45.8262738" lon="11.7411819"><ele>905.0</ele><time>2026-04-11T15:15:42.288Z</time></trkpt><trkpt lat="45.8262236" lon="11.7409608"><ele>905.0</ele><time>2026-04-11T15:15:43.307Z</time></trkpt><trkpt lat="45.8261911" lon="11.7407275"><ele>906.3333333333334</ele><time>2026-04-11T15:15:44.29Z</time></trkpt><trkpt lat="45.8261646" lon="11.7404839"><ele>907.6666666666667</ele><time>2026-04-11T15:15:45.299Z</time></trkpt><trkpt lat="45.8261353" lon="11.7402368"><ele>909.0</ele><time>2026-04-11T15:15:46.291Z</time></trkpt><trkpt lat="45.8261191" lon="11.7400067"><ele>909.0</ele><time>2026-04-11T15:15:47.295Z</time></trkpt><trkpt lat="45.826114" lon="11.7397819"><ele>909.0</ele><time>2026-04-11T15:15:48.291Z</time></trkpt><trkpt lat="45.8261041" lon="11.7395781"><ele>909.0</ele><time>2026-04-11T15:15:49.293Z</time></trkpt><trkpt lat="45.826089" lon="11.7393897"><ele>909.0</ele><time>2026-04-11T15:15:50.291Z</time></trkpt><trkpt lat="45.8260311" lon="11.7392202"><ele>899.75</ele><time>2026-04-11T15:15:51.287Z</time></trkpt><trkpt lat="45.8259629" lon="11.7390525"><ele>890.5</ele><time>2026-04-11T15:15:52.284Z</time></trkpt><trkpt lat="45.8258633" lon="11.7389025"><ele>881.25</ele><time>2026-04-11T15:15:53.292Z</time></trkpt><trkpt lat="45.8257857" lon="11.7387517"><ele>872.0</ele><time>2026-04-11T15:15:54.277Z</time></trkpt><trkpt lat="45.8257357" lon="11.7385852"><ele>872.75</ele><time>2026-04-11T15:15:55.285Z</time></trkpt><trkpt lat="45.825634" lon="11.7384329"><ele>873.5</ele><time>2026-04-11T15:15:56.281Z</time></trkpt><trkpt lat="45.8255456" lon="11.7383142"><ele>874.25</ele><time>2026-04-11T15:15:57.286Z</time></trkpt><trkpt lat="45.8254234" lon="11.7382285"><ele>875.0</ele><time>2026-04-11T15:15:58.29Z</time></trkpt><trkpt lat="45.8253096" lon="11.7381346"><ele>875.0</ele><time>2026-04-11T15:15:59.302Z</time></trkpt><trkpt lat="45.8251996" lon="11.7380224"><ele>875.0</ele><time>2026-04-11T15:16:00.287Z</time></trkpt><trkpt lat="45.8251193" lon="11.7378496"><ele>875.0</ele><time>2026-04-11T15:16:01.301Z</time></trkpt><trkpt lat="45.8250758" lon="11.7376453"><ele>875.0</ele><time>2026-04-11T15:16:02.306Z</time></trkpt><trkpt lat="45.8249916" lon="11.7374922"><ele>870.75</ele><time>2026-04-11T15:16:03.301Z</time></trkpt><trkpt lat="45.8249071" lon="11.7373413"><ele>866.5</ele><time>2026-04-11T15:16:04.283Z</time></trkpt><trkpt lat="45.824803" lon="11.7372492"><ele>862.25</ele><time>2026-04-11T15:16:05.283Z</time></trkpt><trkpt lat="45.8246955" lon="11.7371604"><ele>858.0</ele><time>2026-04-11T15:16:06.295Z</time></trkpt><trkpt lat="45.8245849" lon="11.737081"><ele>858.0</ele><time>2026-04-11T15:16:07.291Z</time></trkpt><trkpt lat="45.8244823" lon="11.7370019"><ele>858.0</ele><time>2026-04-11T15:16:08.284Z</time></trkpt><trkpt lat="45.8243851" lon="11.7369385"><ele>858.0</ele><time>2026-04-11T15:16:09.287Z</time></trkpt><trkpt lat="45.8242954" lon="11.7368992"><ele>858.0</ele><time>2026-04-11T15:16:10.299Z</time></trkpt><trkpt lat="45.8242108" lon="11.7368921"><ele>858.0</ele><time>2026-04-11T15:16:11.288Z</time></trkpt><trkpt lat="45.8241243" lon="11.7369203"><ele>857.6666666666666</ele><time>2026-04-11T15:16:12.286Z</time></trkpt><trkpt lat="45.8240436" lon="11.7369683"><ele>857.3333333333333</ele><time>2026-04-11T15:16:13.299Z</time></trkpt><trkpt lat="45.8239645" lon="11.7370232"><ele>857.0</ele><time>2026-04-11T15:16:14.287Z</time></trkpt><trkpt lat="45.8238855" lon="11.7370874"><ele>856.6666666666666</ele><time>2026-04-11T15:16:15.292Z</time></trkpt><trkpt lat="45.8238307" lon="11.7371826"><ele>856.3333333333333</ele><time>2026-04-11T15:16:16.286Z</time></trkpt><trkpt lat="45.8238184" lon="11.7373052"><ele>856.0</ele><time>2026-04-11T15:16:17.301Z</time></trkpt><trkpt lat="45.8238507" lon="11.7374217"><ele>856.0</ele><time>2026-04-11T15:16:18.284Z</time></trkpt><trkpt lat="45.8238857" lon="11.7375368"><ele>855.9999999999999</ele><time>2026-04-11T15:16:19.294Z</time></trkpt><trkpt lat="45.8239616" lon="11.7376372"><ele>855.9999999999999</ele><time>2026-04-11T15:16:20.292Z</time></trkpt><trkpt lat="45.8240424" lon="11.7377372"><ele>856.0</ele><time>2026-04-11T15:16:21.29Z</time></trkpt><trkpt lat="45.8241284" lon="11.737854"><ele>856.0</ele><time>2026-04-11T15:16:22.293Z</time></trkpt><trkpt lat="45.8242037" lon="11.7379754"><ele>855.0</ele><time>2026-04-11T15:16:23.292Z</time></trkpt><trkpt lat="45.8242783" lon="11.7381106"><ele>854.0</ele><time>2026-04-11T15:16:24.292Z</time></trkpt><trkpt lat="45.8243297" lon="11.7382549"><ele>853.0</ele><time>2026-04-11T15:16:25.302Z</time></trkpt><trkpt lat="45.8243398" lon="11.738425"><ele>852.0</ele><time>2026-04-11T15:16:26.292Z</time></trkpt><trkpt lat="45.8243177" lon="11.7386233"><ele>854.0</ele><time>2026-04-11T15:16:27.293Z</time></trkpt><trkpt lat="45.8242914" lon="11.7388462"><ele>856.0</ele><time>2026-04-11T15:16:28.29Z</time></trkpt><trkpt lat="45.8242403" lon="11.7391127"><ele>858.0</ele><time>2026-04-11T15:16:29.294Z</time></trkpt><trkpt lat="45.8241758" lon="11.7394403"><ele>858.0</ele><time>2026-04-11T15:16:30.283Z</time></trkpt><trkpt lat="45.8241111" lon="11.7397986"><ele>858.0</ele><time>2026-04-11T15:16:31.288Z</time></trkpt><trkpt lat="45.8240587" lon="11.7401395"><ele>853.5</ele><time>2026-04-11T15:16:32.287Z</time></trkpt><trkpt lat="45.8240128" lon="11.7404736"><ele>849.0</ele><time>2026-04-11T15:16:33.288Z</time></trkpt><trkpt lat="45.8239773" lon="11.7407924"><ele>848.3333333333333</ele><time>2026-04-11T15:16:34.293Z</time></trkpt><trkpt lat="45.8239536" lon="11.7410859"><ele>847.6666666666666</ele><time>2026-04-11T15:16:35.284Z</time></trkpt><trkpt lat="45.8239324" lon="11.7413493"><ele>847.0</ele><time>2026-04-11T15:16:36.295Z</time></trkpt><trkpt lat="45.82387" lon="11.7415606"><ele>847.0</ele><time>2026-04-11T15:16:37.295Z</time></trkpt><trkpt lat="45.8238025" lon="11.7417642"><ele>847.0</ele><time>2026-04-11T15:16:38.292Z</time></trkpt><trkpt lat="45.8236999" lon="11.7419659"><ele>847.0</ele><time>2026-04-11T15:16:39.286Z</time></trkpt><trkpt lat="45.8235953" lon="11.7421397"><ele>845.5</ele><time>2026-04-11T15:16:40.278Z</time></trkpt><trkpt lat="45.8235148" lon="11.7423247"><ele>844.0</ele><time>2026-04-11T15:16:41.288Z</time></trkpt><trkpt lat="45.8234252" lon="11.7424615"><ele>842.5</ele><time>2026-04-11T15:16:42.298Z</time></trkpt><trkpt lat="45.8233478" lon="11.7425997"><ele>841.0</ele><time>2026-04-11T15:16:43.28Z</time></trkpt><trkpt lat="45.8232414" lon="11.7426832"><ele>844.75</ele><time>2026-04-11T15:16:44.295Z</time></trkpt><trkpt lat="45.8231013" lon="11.742707"><ele>848.5</ele><time>2026-04-11T15:16:45.282Z</time></trkpt><trkpt lat="45.8229489" lon="11.742711"><ele>852.25</ele><time>2026-04-11T15:16:46.291Z</time></trkpt><trkpt lat="45.8227959" lon="11.7426911"><ele>856.0</ele><time>2026-04-11T15:16:47.288Z</time></trkpt><trkpt lat="45.8226432" lon="11.7426318"><ele>856.0</ele><time>2026-04-11T15:16:48.282Z</time></trkpt><trkpt lat="45.8224789" lon="11.7425096"><ele>856.0</ele><time>2026-04-11T15:16:49.286Z</time></trkpt><trkpt lat="45.8223162" lon="11.7423948"><ele>856.0</ele><time>2026-04-11T15:16:50.287Z</time></trkpt><trkpt lat="45.8221705" lon="11.7422868"><ele>856.0</ele><time>2026-04-11T15:16:51.295Z</time></trkpt><trkpt lat="45.8220428" lon="11.7422098"><ele>856.0</ele><time>2026-04-11T15:16:52.287Z</time></trkpt><trkpt lat="45.8218962" lon="11.7422084"><ele>856.0</ele><time>2026-04-11T15:16:53.293Z</time></trkpt><trkpt lat="45.8217541" lon="11.7422111"><ele>856.0</ele><time>2026-04-11T15:16:54.288Z</time></trkpt><trkpt lat="45.8216313" lon="11.7421811"><ele>854.0</ele><time>2026-04-11T15:16:55.28Z</time></trkpt><trkpt lat="45.8215082" lon="11.7421153"><ele>852.0</ele><time>2026-04-11T15:16:56.287Z</time></trkpt><trkpt lat="45.8214253" lon="11.7420267"><ele>850.0</ele><time>2026-04-11T15:16:57.302Z</time></trkpt><trkpt lat="45.8213274" lon="11.7419493"><ele>848.0</ele><time>2026-04-11T15:16:58.289Z</time></trkpt><trkpt lat="45.8211954" lon="11.7419775"><ele>848.0</ele><time>2026-04-11T15:16:59.295Z</time></trkpt><trkpt lat="45.8210854" lon="11.7420704"><ele>848.0</ele><time>2026-04-11T15:17:00.286Z</time></trkpt><trkpt lat="45.8209672" lon="11.7421549"><ele>848.0</ele><time>2026-04-11T15:17:01.286Z</time></trkpt><trkpt lat="45.8208327" lon="11.7421117"><ele>848.0</ele><time>2026-04-11T15:17:02.283Z</time></trkpt><trkpt lat="45.8206765" lon="11.742031"><ele>853.6666666666667</ele><time>2026-04-11T15:17:03.292Z</time></trkpt><trkpt lat="45.8205212" lon="11.7419362"><ele>859.3333333333333</ele><time>2026-04-11T15:17:04.285Z</time></trkpt><trkpt lat="45.8203593" lon="11.7418643"><ele>865.0</ele><time>2026-04-11T15:17:05.289Z</time></trkpt><trkpt lat="45.8202152" lon="11.7418433"><ele>857.75</ele><time>2026-04-11T15:17:06.293Z</time></trkpt><trkpt lat="45.8201077" lon="11.7417892"><ele>850.5</ele><time>2026-04-11T15:17:07.29Z</time></trkpt><trkpt lat="45.8199977" lon="11.7416623"><ele>843.25</ele><time>2026-04-11T15:17:08.29Z</time></trkpt><trkpt lat="45.819904" lon="11.7414946"><ele>836.0</ele><time>2026-04-11T15:17:09.29Z</time></trkpt><trkpt lat="45.8198125" lon="11.7413276"><ele>836.0</ele><time>2026-04-11T15:17:10.283Z</time></trkpt><trkpt lat="45.8197011" lon="11.7411815"><ele>836.0</ele><time>2026-04-11T15:17:11.295Z</time></trkpt><trkpt lat="45.8195602" lon="11.7410795"><ele>836.0</ele><time>2026-04-11T15:17:12.291Z</time></trkpt><trkpt lat="45.8193965" lon="11.7410231"><ele>834.25</ele><time>2026-04-11T15:17:13.293Z</time></trkpt><trkpt lat="45.8192391" lon="11.7409853"><ele>832.5</ele><time>2026-04-11T15:17:14.289Z</time></trkpt><trkpt lat="45.8191038" lon="11.7409585"><ele>830.75</ele><time>2026-04-11T15:17:15.301Z</time></trkpt><trkpt lat="45.8189909" lon="11.7409519"><ele>829.0</ele><time>2026-04-11T15:17:16.287Z</time></trkpt><trkpt lat="45.8188952" lon="11.7409942"><ele>825.75</ele><time>2026-04-11T15:17:17.285Z</time></trkpt><trkpt lat="45.818806" lon="11.7410816"><ele>822.5</ele><time>2026-04-11T15:17:18.295Z</time></trkpt><trkpt lat="45.8187152" lon="11.7411983"><ele>819.25</ele><time>2026-04-11T15:17:19.298Z</time></trkpt><trkpt lat="45.8186194" lon="11.7413312"><ele>816.0</ele><time>2026-04-11T15:17:20.29Z</time></trkpt><trkpt lat="45.8185184" lon="11.7414516"><ele>817.0</ele><time>2026-04-11T15:17:21.298Z</time></trkpt><trkpt lat="45.8184267" lon="11.7415534"><ele>818.0</ele><time>2026-04-11T15:17:22.292Z</time></trkpt><trkpt lat="45.8183517" lon="11.7416334"><ele>819.0</ele><time>2026-04-11T15:17:23.296Z</time></trkpt><trkpt lat="45.8182909" lon="11.7416943"><ele>820.0</ele><time>2026-04-11T15:17:24.284Z</time></trkpt><trkpt lat="45.8181887" lon="11.7417533"><ele>821.0</ele><time>2026-04-11T15:17:26.29Z</time></trkpt><trkpt lat="45.8180776" lon="11.7417264"><ele>821.0</ele><time>2026-04-11T15:17:28.287Z</time></trkpt><trkpt lat="45.8179831" lon="11.7416764"><ele>821.0</ele><time>2026-04-11T15:17:29.294Z</time></trkpt><trkpt lat="45.8179025" lon="11.741575"><ele>821.0</ele><time>2026-04-11T15:17:30.284Z</time></trkpt><trkpt lat="45.8177988" lon="11.7414305"><ele>821.0</ele><time>2026-04-11T15:17:31.295Z</time></trkpt><trkpt lat="45.8176962" lon="11.7412936"><ele>819.5</ele><time>2026-04-11T15:17:32.284Z</time></trkpt><trkpt lat="45.8175648" lon="11.7412505"><ele>818.0</ele><time>2026-04-11T15:17:33.292Z</time></trkpt><trkpt lat="45.8174589" lon="11.741207"><ele>816.5</ele><time>2026-04-11T15:17:34.29Z</time></trkpt><trkpt lat="45.8173537" lon="11.7412511"><ele>815.0</ele><time>2026-04-11T15:17:35.284Z</time></trkpt><trkpt lat="45.8172641" lon="11.7413742"><ele>815.0</ele><time>2026-04-11T15:17:36.289Z</time></trkpt><trkpt lat="45.8171742" lon="11.7415166"><ele>815.0</ele><time>2026-04-11T15:17:37.284Z</time></trkpt><trkpt lat="45.8171027" lon="11.7416928"><ele>815.0</ele><time>2026-04-11T15:17:38.295Z</time></trkpt><trkpt lat="45.8170328" lon="11.7418577"><ele>815.0</ele><time>2026-04-11T15:17:39.287Z</time></trkpt><trkpt lat="45.8169658" lon="11.7420058"><ele>808.5</ele><time>2026-04-11T15:17:40.286Z</time></trkpt><trkpt lat="45.8168791" lon="11.7421127"><ele>802.0</ele><time>2026-04-11T15:17:41.289Z</time></trkpt><trkpt lat="45.8167727" lon="11.7421769"><ele>795.5</ele><time>2026-04-11T15:17:42.283Z</time></trkpt><trkpt lat="45.8166369" lon="11.7421729"><ele>789.0</ele><time>2026-04-11T15:17:43.295Z</time></trkpt><trkpt lat="45.8164649" lon="11.7421388"><ele>789.0</ele><time>2026-04-11T15:17:44.287Z</time></trkpt><trkpt lat="45.8162956" lon="11.742118"><ele>789.0</ele><time>2026-04-11T15:17:45.288Z</time></trkpt><trkpt lat="45.8161543" lon="11.74209"><ele>789.0</ele><time>2026-04-11T15:17:46.291Z</time></trkpt><trkpt lat="45.8160488" lon="11.7420581"><ele>789.0</ele><time>2026-04-11T15:17:47.296Z</time></trkpt><trkpt lat="45.8159588" lon="11.7419673"><ele>791.75</ele><time>2026-04-11T15:17:48.293Z</time></trkpt><trkpt lat="45.8158717" lon="11.74187"><ele>794.5</ele><time>2026-04-11T15:17:49.288Z</time></trkpt><trkpt lat="45.8158113" lon="11.7416984"><ele>797.25</ele><time>2026-04-11T15:17:50.292Z</time></trkpt><trkpt lat="45.8157588" lon="11.7415114"><ele>800.0</ele><time>2026-04-11T15:17:51.286Z</time></trkpt><trkpt lat="45.8157111" lon="11.741338"><ele>800.0</ele><time>2026-04-11T15:17:52.29Z</time></trkpt><trkpt lat="45.815715" lon="11.7411269"><ele>800.0</ele><time>2026-04-11T15:17:53.289Z</time></trkpt><trkpt lat="45.8157414" lon="11.7408858"><ele>800.0</ele><time>2026-04-11T15:17:54.295Z</time></trkpt><trkpt lat="45.8157468" lon="11.7406278"><ele>800.0</ele><time>2026-04-11T15:17:55.291Z</time></trkpt><trkpt lat="45.8157106" lon="11.7404019"><ele>800.0</ele><time>2026-04-11T15:17:56.3Z</time></trkpt><trkpt lat="45.815686" lon="11.7402235"><ele>800.0</ele><time>2026-04-11T15:17:57.298Z</time></trkpt><trkpt lat="45.8156617" lon="11.740049"><ele>800.0</ele><time>2026-04-11T15:17:58.296Z</time></trkpt><trkpt lat="45.8156176" lon="11.7398891"><ele>800.0</ele><time>2026-04-11T15:17:59.292Z</time></trkpt><trkpt lat="45.8154919" lon="11.7398032"><ele>800.0</ele><time>2026-04-11T15:18:00.289Z</time></trkpt><trkpt lat="45.815349" lon="11.7397562"><ele>800.0</ele><time>2026-04-11T15:18:01.304Z</time></trkpt><trkpt lat="45.8151985" lon="11.7397721"><ele>800.0</ele><time>2026-04-11T15:18:02.293Z</time></trkpt><trkpt lat="45.8150439" lon="11.7398582"><ele>796.3333333333334</ele><time>2026-04-11T15:18:03.29Z</time></trkpt><trkpt lat="45.8149052" lon="11.7400017"><ele>792.6666666666667</ele><time>2026-04-11T15:18:04.298Z</time></trkpt><trkpt lat="45.814792" lon="11.7401833"><ele>789.0</ele><time>2026-04-11T15:18:05.303Z</time></trkpt><trkpt lat="45.8146957" lon="11.7404155"><ele>785.6666666666667</ele><time>2026-04-11T15:18:06.294Z</time></trkpt><trkpt lat="45.8145976" lon="11.7406216"><ele>782.3333333333334</ele><time>2026-04-11T15:18:07.303Z</time></trkpt><trkpt lat="45.8145056" lon="11.7407948"><ele>779.0</ele><time>2026-04-11T15:18:08.29Z</time></trkpt><trkpt lat="45.8144085" lon="11.7409523"><ele>776.3333333333334</ele><time>2026-04-11T15:18:09.285Z</time></trkpt><trkpt lat="45.8143002" lon="11.7410699"><ele>773.6666666666667</ele><time>2026-04-11T15:18:10.284Z</time></trkpt><trkpt lat="45.8141511" lon="11.7411439"><ele>771.0</ele><time>2026-04-11T15:18:11.315Z</time></trkpt><trkpt lat="45.8139823" lon="11.7411923"><ele>771.0</ele><time>2026-04-11T15:18:12.296Z</time></trkpt><trkpt lat="45.8138195" lon="11.7412306"><ele>771.0</ele><time>2026-04-11T15:18:13.286Z</time></trkpt><trkpt lat="45.8136544" lon="11.7412451"><ele>771.0</ele><time>2026-04-11T15:18:14.298Z</time></trkpt><trkpt lat="45.8134864" lon="11.7412156"><ele>772.0</ele><time>2026-04-11T15:18:15.286Z</time></trkpt><trkpt lat="45.8133186" lon="11.7411557"><ele>773.0</ele><time>2026-04-11T15:18:16.283Z</time></trkpt><trkpt lat="45.8131578" lon="11.7410527"><ele>774.0</ele><time>2026-04-11T15:18:17.29Z</time></trkpt><trkpt lat="45.8129891" lon="11.7409317"><ele>780.0</ele><time>2026-04-11T15:18:18.286Z</time></trkpt><trkpt lat="45.812831" lon="11.7408137"><ele>786.0</ele><time>2026-04-11T15:18:19.288Z</time></trkpt><trkpt lat="45.8126827" lon="11.7407139"><ele>792.0</ele><time>2026-04-11T15:18:20.282Z</time></trkpt><trkpt lat="45.8125403" lon="11.740637"><ele>792.25</ele><time>2026-04-11T15:18:21.29Z</time></trkpt><trkpt lat="45.8124126" lon="11.7405806"><ele>792.5</ele><time>2026-04-11T15:18:22.293Z</time></trkpt><trkpt lat="45.812294" lon="11.7405381"><ele>792.75</ele><time>2026-04-11T15:18:23.289Z</time></trkpt><trkpt lat="45.8121835" lon="11.7405213"><ele>793.0</ele><time>2026-04-11T15:18:24.293Z</time></trkpt><trkpt lat="45.8120717" lon="11.7405306"><ele>793.0</ele><time>2026-04-11T15:18:25.287Z</time></trkpt><trkpt lat="45.8119691" lon="11.7405714"><ele>793.0</ele><time>2026-04-11T15:18:26.288Z</time></trkpt><trkpt lat="45.8118764" lon="11.7406513"><ele>793.0</ele><time>2026-04-11T15:18:27.296Z</time></trkpt><trkpt lat="45.8117934" lon="11.7407599"><ele>793.0</ele><time>2026-04-11T15:18:28.298Z</time></trkpt><trkpt lat="45.8117119" lon="11.7408536"><ele>793.0</ele><time>2026-04-11T15:18:29.303Z</time></trkpt><trkpt lat="45.8116472" lon="11.7409691"><ele>789.5999999999999</ele><time>2026-04-11T15:18:30.301Z</time></trkpt><trkpt lat="45.8115786" lon="11.7410742"><ele>786.1999999999999</ele><time>2026-04-11T15:18:31.295Z</time></trkpt><trkpt lat="45.8115109" lon="11.7411915"><ele>782.8</ele><time>2026-04-11T15:18:32.292Z</time></trkpt><trkpt lat="45.8114586" lon="11.7413169"><ele>779.4</ele><time>2026-04-11T15:18:33.295Z</time></trkpt><trkpt lat="45.8114279" lon="11.7414621"><ele>776.0</ele><time>2026-04-11T15:18:34.294Z</time></trkpt><trkpt lat="45.8114172" lon="11.7416198"><ele>776.0</ele><time>2026-04-11T15:18:35.299Z</time></trkpt><trkpt lat="45.8114163" lon="11.7417809"><ele>776.0</ele><time>2026-04-11T15:18:36.289Z</time></trkpt><trkpt lat="45.8114545" lon="11.7419449"><ele>776.0</ele><time>2026-04-11T15:18:37.295Z</time></trkpt><trkpt lat="45.811506" lon="11.7420949"><ele>776.0</ele><time>2026-04-11T15:18:38.292Z</time></trkpt><trkpt lat="45.8115618" lon="11.7422254"><ele>774.8</ele><time>2026-04-11T15:18:39.319Z</time></trkpt><trkpt lat="45.8116158" lon="11.7423536"><ele>773.5999999999999</ele><time>2026-04-11T15:18:40.294Z</time></trkpt><trkpt lat="45.8116731" lon="11.7424859"><ele>772.4</ele><time>2026-04-11T15:18:41.301Z</time></trkpt><trkpt lat="45.8117306" lon="11.7426252"><ele>771.2</ele><time>2026-04-11T15:18:42.303Z</time></trkpt><trkpt lat="45.8117807" lon="11.742761"><ele>770.0</ele><time>2026-04-11T15:18:43.321Z</time></trkpt><trkpt lat="45.811815" lon="11.7428942"><ele>770.1666666666667</ele><time>2026-04-11T15:18:44.289Z</time></trkpt><trkpt lat="45.8118304" lon="11.7430209"><ele>770.3333333333334</ele><time>2026-04-11T15:18:45.295Z</time></trkpt><trkpt lat="45.8118142" lon="11.7431476"><ele>770.5</ele><time>2026-04-11T15:18:46.297Z</time></trkpt><trkpt lat="45.8117862" lon="11.7432708"><ele>770.6666666666667</ele><time>2026-04-11T15:18:47.294Z</time></trkpt><trkpt lat="45.8117613" lon="11.7433839"><ele>770.8333333333334</ele><time>2026-04-11T15:18:48.284Z</time></trkpt><trkpt lat="45.8117294" lon="11.7434843"><ele>771.0</ele><time>2026-04-11T15:18:49.298Z</time></trkpt><trkpt lat="45.8117004" lon="11.743622"><ele>768.0</ele><time>2026-04-11T15:18:50.298Z</time></trkpt><trkpt lat="45.8116901" lon="11.7437783"><ele>765.0</ele><time>2026-04-11T15:18:51.297Z</time></trkpt><trkpt lat="45.811694" lon="11.7439248"><ele>762.0</ele><time>2026-04-11T15:18:52.3Z</time></trkpt><trkpt lat="45.8117028" lon="11.7440735"><ele>759.0</ele><time>2026-04-11T15:18:53.29Z</time></trkpt><trkpt lat="45.8117127" lon="11.744214"><ele>756.0</ele><time>2026-04-11T15:18:54.295Z</time></trkpt><trkpt lat="45.8117348" lon="11.744349"><ele>755.25</ele><time>2026-04-11T15:18:55.313Z</time></trkpt><trkpt lat="45.8117798" lon="11.7444743"><ele>754.5</ele><time>2026-04-11T15:18:56.29Z</time></trkpt><trkpt lat="45.811851" lon="11.7445863"><ele>753.75</ele><time>2026-04-11T15:18:57.29Z</time></trkpt><trkpt lat="45.8119396" lon="11.7446901"><ele>753.0</ele><time>2026-04-11T15:18:58.294Z</time></trkpt><trkpt lat="45.8120525" lon="11.744788"><ele>753.0</ele><time>2026-04-11T15:18:59.294Z</time></trkpt><trkpt lat="45.8121797" lon="11.7448779"><ele>753.0</ele><time>2026-04-11T15:19:00.29Z</time></trkpt><trkpt lat="45.812299" lon="11.7449644"><ele>753.0</ele><time>2026-04-11T15:19:01.285Z</time></trkpt><trkpt lat="45.8124099" lon="11.7450457"><ele>753.0</ele><time>2026-04-11T15:19:02.287Z</time></trkpt><trkpt lat="45.8125137" lon="11.7451224"><ele>753.0</ele><time>2026-04-11T15:19:03.29Z</time></trkpt><trkpt lat="45.8126212" lon="11.7452006"><ele>753.0</ele><time>2026-04-11T15:19:04.294Z</time></trkpt><trkpt lat="45.812729" lon="11.7452808"><ele>753.0</ele><time>2026-04-11T15:19:05.297Z</time></trkpt><trkpt lat="45.8128337" lon="11.7453566"><ele>753.0</ele><time>2026-04-11T15:19:06.284Z</time></trkpt><trkpt lat="45.8129422" lon="11.7454287"><ele>747.75</ele><time>2026-04-11T15:19:07.294Z</time></trkpt><trkpt lat="45.8130631" lon="11.7454753"><ele>742.5</ele><time>2026-04-11T15:19:08.292Z</time></trkpt><trkpt lat="45.8132126" lon="11.7455057"><ele>737.25</ele><time>2026-04-11T15:19:09.291Z</time></trkpt><trkpt lat="45.8133763" lon="11.7455371"><ele>732.0</ele><time>2026-04-11T15:19:10.291Z</time></trkpt><trkpt lat="45.8135354" lon="11.7455839"><ele>730.0</ele><time>2026-04-11T15:19:11.307Z</time></trkpt><trkpt lat="45.8136877" lon="11.7456442"><ele>728.0</ele><time>2026-04-11T15:19:12.3Z</time></trkpt><trkpt lat="45.8138327" lon="11.7457"><ele>726.0</ele><time>2026-04-11T15:19:13.287Z</time></trkpt><trkpt lat="45.8139588" lon="11.7457303"><ele>724.0</ele><time>2026-04-11T15:19:14.3Z</time></trkpt><trkpt lat="45.8140549" lon="11.7457449"><ele>724.0</ele><time>2026-04-11T15:19:15.299Z</time></trkpt><trkpt lat="45.8141268" lon="11.7457609"><ele>724.0</ele><time>2026-04-11T15:19:16.291Z</time></trkpt><trkpt lat="45.8141971" lon="11.7458647"><ele>724.0</ele><time>2026-04-11T15:19:18.292Z</time></trkpt><trkpt lat="45.8141129" lon="11.7459352"><ele>724.0</ele><time>2026-04-11T15:19:20.293Z</time></trkpt><trkpt lat="45.8140267" lon="11.7459039"><ele>724.0</ele><time>2026-04-11T15:19:21.297Z</time></trkpt><trkpt lat="45.8139176" lon="11.7458552"><ele>724.0</ele><time>2026-04-11T15:19:22.298Z</time></trkpt><trkpt lat="45.8137909" lon="11.7458088"><ele>724.0</ele><time>2026-04-11T15:19:23.293Z</time></trkpt><trkpt lat="45.8136573" lon="11.7457637"><ele>724.0</ele><time>2026-04-11T15:19:24.29Z</time></trkpt><trkpt lat="45.8135209" lon="11.7457364"><ele>724.0</ele><time>2026-04-11T15:19:25.296Z</time></trkpt><trkpt lat="45.8133793" lon="11.745747"><ele>726.0</ele><time>2026-04-11T15:19:26.285Z</time></trkpt><trkpt lat="45.8132402" lon="11.7457947"><ele>728.0</ele><time>2026-04-11T15:19:27.301Z</time></trkpt><trkpt lat="45.8131065" lon="11.7458597"><ele>730.0</ele><time>2026-04-11T15:19:28.294Z</time></trkpt><trkpt lat="45.8129582" lon="11.7459083"><ele>732.0</ele><time>2026-04-11T15:19:29.293Z</time></trkpt><trkpt lat="45.8127929" lon="11.7459196"><ele>730.3333333333334</ele><time>2026-04-11T15:19:30.303Z</time></trkpt><trkpt lat="45.8126117" lon="11.7458967"><ele>728.6666666666667</ele><time>2026-04-11T15:19:31.303Z</time></trkpt><trkpt lat="45.8124167" lon="11.7458681"><ele>727.0</ele><time>2026-04-11T15:19:32.292Z</time></trkpt><trkpt lat="45.8122148" lon="11.7458567"><ele>727.0</ele><time>2026-04-11T15:19:33.335Z</time></trkpt><trkpt lat="45.8120181" lon="11.7458576"><ele>727.0</ele><time>2026-04-11T15:19:34.297Z</time></trkpt><trkpt lat="45.8118285" lon="11.7458677"><ele>727.0</ele><time>2026-04-11T15:19:35.288Z</time></trkpt><trkpt lat="45.8116345" lon="11.7458868"><ele>724.0</ele><time>2026-04-11T15:19:36.299Z</time></trkpt><trkpt lat="45.8114355" lon="11.7459008"><ele>721.0</ele><time>2026-04-11T15:19:37.295Z</time></trkpt><trkpt lat="45.8112367" lon="11.7459099"><ele>718.0</ele><time>2026-04-11T15:19:38.296Z</time></trkpt><trkpt lat="45.8110365" lon="11.7459267"><ele>715.3333333333334</ele><time>2026-04-11T15:19:39.3Z</time></trkpt><trkpt lat="45.8108457" lon="11.7459431"><ele>712.6666666666666</ele><time>2026-04-11T15:19:40.301Z</time></trkpt><trkpt lat="45.8106734" lon="11.7459424"><ele>710.0</ele><time>2026-04-11T15:19:41.291Z</time></trkpt><trkpt lat="45.8105213" lon="11.7459372"><ele>710.0</ele><time>2026-04-11T15:19:42.294Z</time></trkpt><trkpt lat="45.8103898" lon="11.7459214"><ele>710.0</ele><time>2026-04-11T15:19:43.295Z</time></trkpt><trkpt lat="45.8102684" lon="11.745817"><ele>710.0</ele><time>2026-04-11T15:19:44.296Z</time></trkpt><trkpt lat="45.8101566" lon="11.7457082"><ele>710.0</ele><time>2026-04-11T15:19:45.298Z</time></trkpt><trkpt lat="45.8100817" lon="11.7455249"><ele>706.75</ele><time>2026-04-11T15:19:46.29Z</time></trkpt><trkpt lat="45.8100496" lon="11.7453278"><ele>703.5</ele><time>2026-04-11T15:19:47.3Z</time></trkpt><trkpt lat="45.810056" lon="11.7451272"><ele>700.25</ele><time>2026-04-11T15:19:48.283Z</time></trkpt><trkpt lat="45.8100837" lon="11.7449241"><ele>697.0</ele><time>2026-04-11T15:19:49.288Z</time></trkpt><trkpt lat="45.8101132" lon="11.7447482"><ele>697.0</ele><time>2026-04-11T15:19:50.288Z</time></trkpt><trkpt lat="45.8101184" lon="11.7445783"><ele>697.0</ele><time>2026-04-11T15:19:51.293Z</time></trkpt><trkpt lat="45.8100375" lon="11.7444147"><ele>697.0</ele><time>2026-04-11T15:19:52.29Z</time></trkpt><trkpt lat="45.8099279" lon="11.7442711"><ele>697.0</ele><time>2026-04-11T15:19:53.288Z</time></trkpt><trkpt lat="45.8098131" lon="11.7441328"><ele>698.25</ele><time>2026-04-11T15:19:54.286Z</time></trkpt><trkpt lat="45.8097075" lon="11.7440065"><ele>699.5</ele><time>2026-04-11T15:19:55.282Z</time></trkpt><trkpt lat="45.8096294" lon="11.7438575"><ele>700.75</ele><time>2026-04-11T15:19:56.283Z</time></trkpt><trkpt lat="45.8096273" lon="11.7436601"><ele>702.0</ele><time>2026-04-11T15:19:57.289Z</time></trkpt><trkpt lat="45.8096044" lon="11.7434732"><ele>704.5</ele><time>2026-04-11T15:19:58.277Z</time></trkpt><trkpt lat="45.8095601" lon="11.7433325"><ele>707.0</ele><time>2026-04-11T15:19:59.292Z</time></trkpt><trkpt lat="45.8094827" lon="11.7432539"><ele>709.5</ele><time>2026-04-11T15:20:00.289Z</time></trkpt><trkpt lat="45.8093854" lon="11.7431918"><ele>712.0</ele><time>2026-04-11T15:20:01.282Z</time></trkpt><trkpt lat="45.8092335" lon="11.7432198"><ele>705.3333333333334</ele><time>2026-04-11T15:20:02.282Z</time></trkpt><trkpt lat="45.8090822" lon="11.7432434"><ele>698.6666666666666</ele><time>2026-04-11T15:20:03.301Z</time></trkpt><trkpt lat="45.8089153" lon="11.7432957"><ele>692.0</ele><time>2026-04-11T15:20:04.284Z</time></trkpt><trkpt lat="45.8087497" lon="11.7433677"><ele>692.0</ele><time>2026-04-11T15:20:05.289Z</time></trkpt><trkpt lat="45.8085958" lon="11.7434651"><ele>692.0</ele><time>2026-04-11T15:20:06.292Z</time></trkpt><trkpt lat="45.8084403" lon="11.7435616"><ele>692.0</ele><time>2026-04-11T15:20:07.292Z</time></trkpt><trkpt lat="45.8082905" lon="11.7437088"><ele>684.3333333333333</ele><time>2026-04-11T15:20:08.284Z</time></trkpt><trkpt lat="45.8081451" lon="11.7438873"><ele>676.6666666666666</ele><time>2026-04-11T15:20:09.29Z</time></trkpt><trkpt lat="45.8080018" lon="11.7440655"><ele>669.0</ele><time>2026-04-11T15:20:10.29Z</time></trkpt><trkpt lat="45.8078619" lon="11.7442324"><ele>666.3333333333334</ele><time>2026-04-11T15:20:11.296Z</time></trkpt><trkpt lat="45.8077275" lon="11.7443828"><ele>663.6666666666667</ele><time>2026-04-11T15:20:12.317Z</time></trkpt><trkpt lat="45.8075972" lon="11.7445251"><ele>661.0</ele><time>2026-04-11T15:20:13.302Z</time></trkpt><trkpt lat="45.8074725" lon="11.7446355"><ele>661.0</ele><time>2026-04-11T15:20:14.286Z</time></trkpt><trkpt lat="45.8073306" lon="11.7447204"><ele>661.0</ele><time>2026-04-11T15:20:15.293Z</time></trkpt><trkpt lat="45.8071807" lon="11.744765"><ele>661.0</ele><time>2026-04-11T15:20:16.289Z</time></trkpt><trkpt lat="45.8070298" lon="11.7447928"><ele>661.0</ele><time>2026-04-11T15:20:17.288Z</time></trkpt><trkpt lat="45.8068798" lon="11.7447372"><ele>661.0</ele><time>2026-04-11T15:20:18.284Z</time></trkpt><trkpt lat="45.8067259" lon="11.7446429"><ele>661.0</ele><time>2026-04-11T15:20:19.289Z</time></trkpt><trkpt lat="45.8065888" lon="11.7445081"><ele>660.0</ele><time>2026-04-11T15:20:20.282Z</time></trkpt><trkpt lat="45.8064724" lon="11.7443349"><ele>659.0</ele><time>2026-04-11T15:20:21.287Z</time></trkpt><trkpt lat="45.8063684" lon="11.7441316"><ele>658.0</ele><time>2026-04-11T15:20:22.285Z</time></trkpt><trkpt lat="45.8062753" lon="11.7439161"><ele>658.0</ele><time>2026-04-11T15:20:23.298Z</time></trkpt><trkpt lat="45.8061963" lon="11.7437009"><ele>658.0</ele><time>2026-04-11T15:20:24.296Z</time></trkpt><trkpt lat="45.8061317" lon="11.7434829"><ele>658.0</ele><time>2026-04-11T15:20:25.288Z</time></trkpt><trkpt lat="45.8061128" lon="11.743262"><ele>659.5</ele><time>2026-04-11T15:20:26.3Z</time></trkpt><trkpt lat="45.8061368" lon="11.7430449"><ele>661.0</ele><time>2026-04-11T15:20:27.287Z</time></trkpt><trkpt lat="45.8061837" lon="11.7428599"><ele>662.5</ele><time>2026-04-11T15:20:28.285Z</time></trkpt><trkpt lat="45.8062238" lon="11.7427003"><ele>664.0</ele><time>2026-04-11T15:20:29.32Z</time></trkpt><trkpt lat="45.8062559" lon="11.7425679"><ele>664.4000000000001</ele><time>2026-04-11T15:20:30.339Z</time></trkpt><trkpt lat="45.8062667" lon="11.7424558"><ele>664.8</ele><time>2026-04-11T15:20:31.288Z</time></trkpt><trkpt lat="45.8061896" lon="11.7423394"><ele>665.2</ele><time>2026-04-11T15:20:33.29Z</time></trkpt><trkpt lat="45.806123" lon="11.7423724"><ele>665.5999999999999</ele><time>2026-04-11T15:20:34.294Z</time></trkpt><trkpt lat="45.8060738" lon="11.7424716"><ele>666.0</ele><time>2026-04-11T15:20:35.306Z</time></trkpt><trkpt lat="45.8060389" lon="11.7426192"><ele>657.5</ele><time>2026-04-11T15:20:36.295Z</time></trkpt><trkpt lat="45.8059915" lon="11.742795"><ele>649.0</ele><time>2026-04-11T15:20:37.297Z</time></trkpt><trkpt lat="45.8059356" lon="11.7429888"><ele>640.5</ele><time>2026-04-11T15:20:38.309Z</time></trkpt><trkpt lat="45.8058677" lon="11.7431909"><ele>632.0</ele><time>2026-04-11T15:20:39.285Z</time></trkpt><trkpt lat="45.8058055" lon="11.7434014"><ele>632.6666666666666</ele><time>2026-04-11T15:20:40.291Z</time></trkpt><trkpt lat="45.8057502" lon="11.7436208"><ele>633.3333333333334</ele><time>2026-04-11T15:20:41.289Z</time></trkpt><trkpt lat="45.8057017" lon="11.7438476"><ele>634.0</ele><time>2026-04-11T15:20:42.3Z</time></trkpt><trkpt lat="45.8056704" lon="11.7440813"><ele>634.0</ele><time>2026-04-11T15:20:43.288Z</time></trkpt><trkpt lat="45.8056597" lon="11.7443228"><ele>634.0</ele><time>2026-04-11T15:20:44.305Z</time></trkpt><trkpt lat="45.8056768" lon="11.7445618"><ele>634.0</ele><time>2026-04-11T15:20:45.291Z</time></trkpt><trkpt lat="45.8057173" lon="11.7447922"><ele>631.0</ele><time>2026-04-11T15:20:46.286Z</time></trkpt><trkpt lat="45.8057558" lon="11.7450175"><ele>628.0</ele><time>2026-04-11T15:20:47.283Z</time></trkpt><trkpt lat="45.8057851" lon="11.7452355"><ele>625.0</ele><time>2026-04-11T15:20:48.293Z</time></trkpt><trkpt lat="45.8057796" lon="11.7454457"><ele>623.0</ele><time>2026-04-11T15:20:49.282Z</time></trkpt><trkpt lat="45.8057467" lon="11.745669"><ele>621.0</ele><time>2026-04-11T15:20:50.289Z</time></trkpt><trkpt lat="45.8057122" lon="11.745892"><ele>619.0</ele><time>2026-04-11T15:20:51.291Z</time></trkpt><trkpt lat="45.8056937" lon="11.7461367"><ele>617.3333333333334</ele><time>2026-04-11T15:20:52.293Z</time></trkpt><trkpt lat="45.8056939" lon="11.7463884"><ele>615.6666666666666</ele><time>2026-04-11T15:20:53.288Z</time></trkpt><trkpt lat="45.8057106" lon="11.7466463"><ele>614.0</ele><time>2026-04-11T15:20:54.286Z</time></trkpt><trkpt lat="45.8057472" lon="11.7468979"><ele>608.0</ele><time>2026-04-11T15:20:55.288Z</time></trkpt><trkpt lat="45.8058032" lon="11.7471313"><ele>602.0</ele><time>2026-04-11T15:20:56.29Z</time></trkpt><trkpt lat="45.8058679" lon="11.7473449"><ele>596.0</ele><time>2026-04-11T15:20:57.288Z</time></trkpt><trkpt lat="45.8059381" lon="11.7475405"><ele>596.75</ele><time>2026-04-11T15:20:58.284Z</time></trkpt><trkpt lat="45.8060152" lon="11.7477099"><ele>597.5</ele><time>2026-04-11T15:20:59.297Z</time></trkpt><trkpt lat="45.8061014" lon="11.7478461"><ele>598.25</ele><time>2026-04-11T15:21:00.294Z</time></trkpt><trkpt lat="45.8061967" lon="11.7479505"><ele>599.0</ele><time>2026-04-11T15:21:01.288Z</time></trkpt><trkpt lat="45.8062901" lon="11.7480398"><ele>599.0</ele><time>2026-04-11T15:21:02.292Z</time></trkpt><trkpt lat="45.8063641" lon="11.7481259"><ele>599.0</ele><time>2026-04-11T15:21:03.294Z</time></trkpt><trkpt lat="45.8064017" lon="11.7482228"><ele>599.0</ele><time>2026-04-11T15:21:04.281Z</time></trkpt><trkpt lat="45.8063901" lon="11.7483206"><ele>599.0</ele><time>2026-04-11T15:21:05.301Z</time></trkpt><trkpt lat="45.8063297" lon="11.7483676"><ele>599.0</ele><time>2026-04-11T15:21:06.296Z</time></trkpt><trkpt lat="45.8062445" lon="11.7483436"><ele>599.0</ele><time>2026-04-11T15:21:07.295Z</time></trkpt><trkpt lat="45.8061474" lon="11.7482596"><ele>599.0</ele><time>2026-04-11T15:21:08.287Z</time></trkpt><trkpt lat="45.8060378" lon="11.7481479"><ele>599.0</ele><time>2026-04-11T15:21:09.292Z</time></trkpt><trkpt lat="45.8059283" lon="11.7480282"><ele>599.0</ele><time>2026-04-11T15:21:10.288Z</time></trkpt><trkpt lat="45.8058285" lon="11.7479118"><ele>599.0</ele><time>2026-04-11T15:21:11.292Z</time></trkpt><trkpt lat="45.8057355" lon="11.7477969"><ele>598.25</ele><time>2026-04-11T15:21:12.285Z</time></trkpt><trkpt lat="45.805653" lon="11.7476653"><ele>597.5</ele><time>2026-04-11T15:21:13.306Z</time></trkpt><trkpt lat="45.8055826" lon="11.7475096"><ele>596.75</ele><time>2026-04-11T15:21:14.286Z</time></trkpt><trkpt lat="45.8055151" lon="11.7473403"><ele>596.0</ele><time>2026-04-11T15:21:15.287Z</time></trkpt><trkpt lat="45.8054468" lon="11.7471688"><ele>596.0</ele><time>2026-04-11T15:21:16.291Z</time></trkpt><trkpt lat="45.8053765" lon="11.7470032"><ele>596.0</ele><time>2026-04-11T15:21:17.296Z</time></trkpt><trkpt lat="45.8053058" lon="11.7468442"><ele>596.0</ele><time>2026-04-11T15:21:18.285Z</time></trkpt><trkpt lat="45.8052341" lon="11.7466871"><ele>596.0</ele><time>2026-04-11T15:21:19.29Z</time></trkpt><trkpt lat="45.8051671" lon="11.7465252"><ele>593.5</ele><time>2026-04-11T15:21:20.295Z</time></trkpt><trkpt lat="45.8051045" lon="11.746344"><ele>591.0</ele><time>2026-04-11T15:21:21.287Z</time></trkpt><trkpt lat="45.805047" lon="11.7461448"><ele>588.5</ele><time>2026-04-11T15:21:22.295Z</time></trkpt><trkpt lat="45.804999" lon="11.7459437"><ele>586.0</ele><time>2026-04-11T15:21:23.29Z</time></trkpt><trkpt lat="45.8049543" lon="11.745747"><ele>586.0</ele><time>2026-04-11T15:21:24.296Z</time></trkpt><trkpt lat="45.8049065" lon="11.745562"><ele>586.0</ele><time>2026-04-11T15:21:25.291Z</time></trkpt><trkpt lat="45.8048457" lon="11.7453922"><ele>586.0</ele><time>2026-04-11T15:21:26.288Z</time></trkpt><trkpt lat="45.8047721" lon="11.7452401"><ele>586.0</ele><time>2026-04-11T15:21:27.289Z</time></trkpt><trkpt lat="45.8046977" lon="11.745098"><ele>587.75</ele><time>2026-04-11T15:21:28.289Z</time></trkpt><trkpt lat="45.8046268" lon="11.7449557"><ele>589.5</ele><time>2026-04-11T15:21:29.285Z</time></trkpt><trkpt lat="45.8045602" lon="11.7448178"><ele>591.25</ele><time>2026-04-11T15:21:30.285Z</time></trkpt><trkpt lat="45.8045168" lon="11.7446572"><ele>593.0</ele><time>2026-04-11T15:21:31.293Z</time></trkpt><trkpt lat="45.8044804" lon="11.7444884"><ele>593.8</ele><time>2026-04-11T15:21:32.286Z</time></trkpt><trkpt lat="45.8044583" lon="11.744319"><ele>594.5999999999999</ele><time>2026-04-11T15:21:33.297Z</time></trkpt><trkpt lat="45.8044495" lon="11.7441703"><ele>595.4000000000001</ele><time>2026-04-11T15:21:34.284Z</time></trkpt><trkpt lat="45.8044457" lon="11.7440372"><ele>596.2</ele><time>2026-04-11T15:21:35.299Z</time></trkpt><trkpt lat="45.8044384" lon="11.7439145"><ele>597.0</ele><time>2026-04-11T15:21:36.294Z</time></trkpt><trkpt lat="45.8044197" lon="11.7438021"><ele>597.0</ele><time>2026-04-11T15:21:37.287Z</time></trkpt><trkpt lat="45.8043727" lon="11.7437125"><ele>597.0</ele><time>2026-04-11T15:21:38.285Z</time></trkpt><trkpt lat="45.8042988" lon="11.74367"><ele>597.0</ele><time>2026-04-11T15:21:39.287Z</time></trkpt><trkpt lat="45.8042021" lon="11.7436806"><ele>597.0</ele><time>2026-04-11T15:21:40.284Z</time></trkpt><trkpt lat="45.8041021" lon="11.7437217"><ele>597.0</ele><time>2026-04-11T15:21:41.284Z</time></trkpt><trkpt lat="45.8040056" lon="11.7437679"><ele>590.4</ele><time>2026-04-11T15:21:42.287Z</time></trkpt><trkpt lat="45.8039046" lon="11.7438183"><ele>583.8000000000001</ele><time>2026-04-11T15:21:43.295Z</time></trkpt><trkpt lat="45.8038019" lon="11.7438707"><ele>577.2</ele><time>2026-04-11T15:21:44.286Z</time></trkpt><trkpt lat="45.8037054" lon="11.7439177"><ele>570.6</ele><time>2026-04-11T15:21:45.291Z</time></trkpt><trkpt lat="45.8036065" lon="11.743962"><ele>564.0</ele><time>2026-04-11T15:21:46.289Z</time></trkpt><trkpt lat="45.8035048" lon="11.7439931"><ele>562.0</ele><time>2026-04-11T15:21:47.283Z</time></trkpt><trkpt lat="45.8033991" lon="11.7440036"><ele>560.0</ele><time>2026-04-11T15:21:48.299Z</time></trkpt><trkpt lat="45.8032922" lon="11.7439826"><ele>558.0</ele><time>2026-04-11T15:21:49.289Z</time></trkpt><trkpt lat="45.8031885" lon="11.7439344"><ele>556.0</ele><time>2026-04-11T15:21:50.286Z</time></trkpt><trkpt lat="45.8030873" lon="11.7438738"><ele>554.0</ele><time>2026-04-11T15:21:51.295Z</time></trkpt><trkpt lat="45.8029921" lon="11.7438166"><ele>554.0</ele><time>2026-04-11T15:21:52.29Z</time></trkpt><trkpt lat="45.8029059" lon="11.7437717"><ele>554.0</ele><time>2026-04-11T15:21:53.285Z</time></trkpt><trkpt lat="45.8028306" lon="11.7437481"><ele>554.0</ele><time>2026-04-11T15:21:54.284Z</time></trkpt><trkpt lat="45.8027647" lon="11.7437319"><ele>554.0</ele><time>2026-04-11T15:21:55.294Z</time></trkpt><trkpt lat="45.8027111" lon="11.7437913"><ele>554.0</ele><time>2026-04-11T15:21:56.282Z</time></trkpt><trkpt lat="45.8027062" lon="11.7439067"><ele>554.0</ele><time>2026-04-11T15:21:57.291Z</time></trkpt><trkpt lat="45.8027496" lon="11.7440072"><ele>554.0</ele><time>2026-04-11T15:21:58.285Z</time></trkpt><trkpt lat="45.8028214" lon="11.7440678"><ele>554.0</ele><time>2026-04-11T15:21:59.296Z</time></trkpt><trkpt lat="45.8029062" lon="11.7441219"><ele>554.0</ele><time>2026-04-11T15:22:00.296Z</time></trkpt><trkpt lat="45.802988" lon="11.7441913"><ele>554.0</ele><time>2026-04-11T15:22:01.288Z</time></trkpt><trkpt lat="45.8030707" lon="11.7442685"><ele>554.0</ele><time>2026-04-11T15:22:02.288Z</time></trkpt><trkpt lat="45.8031351" lon="11.7443654"><ele>554.8</ele><time>2026-04-11T15:22:03.3Z</time></trkpt><trkpt lat="45.8032093" lon="11.7444574"><ele>555.5999999999999</ele><time>2026-04-11T15:22:04.293Z</time></trkpt><trkpt lat="45.8032864" lon="11.7445375"><ele>556.4</ele><time>2026-04-11T15:22:05.283Z</time></trkpt><trkpt lat="45.8033678" lon="11.7445925"><ele>557.1999999999999</ele><time>2026-04-11T15:22:06.291Z</time></trkpt><trkpt lat="45.8034493" lon="11.7446127"><ele>558.0</ele><time>2026-04-11T15:22:07.298Z</time></trkpt><trkpt lat="45.8035331" lon="11.7445911"><ele>558.0</ele><time>2026-04-11T15:22:08.285Z</time></trkpt><trkpt lat="45.8036085" lon="11.7445395"><ele>558.0</ele><time>2026-04-11T15:22:09.292Z</time></trkpt><trkpt lat="45.8036778" lon="11.7444852"><ele>558.0</ele><time>2026-04-11T15:22:10.293Z</time></trkpt><trkpt lat="45.8037486" lon="11.7444601"><ele>558.0</ele><time>2026-04-11T15:22:11.282Z</time></trkpt><trkpt lat="45.8038133" lon="11.7444384"><ele>558.0</ele><time>2026-04-11T15:22:12.286Z</time></trkpt><trkpt lat="45.8038699" lon="11.7444907"><ele>558.0</ele><time>2026-04-11T15:22:13.29Z</time></trkpt><trkpt lat="45.8039034" lon="11.7446203"><ele>558.0</ele><time>2026-04-11T15:22:14.294Z</time></trkpt><trkpt lat="45.8039087" lon="11.7447615"><ele>558.0</ele><time>2026-04-11T15:22:15.283Z</time></trkpt><trkpt lat="45.8038919" lon="11.7449035"><ele>558.0</ele><time>2026-04-11T15:22:16.283Z</time></trkpt><trkpt lat="45.8038597" lon="11.7450549"><ele>558.0</ele><time>2026-04-11T15:22:17.286Z</time></trkpt><trkpt lat="45.8038173" lon="11.7452024"><ele>558.0</ele><time>2026-04-11T15:22:18.288Z</time></trkpt><trkpt lat="45.803771" lon="11.7453504"><ele>555.5</ele><time>2026-04-11T15:22:19.284Z</time></trkpt><trkpt lat="45.8037385" lon="11.7455051"><ele>553.0</ele><time>2026-04-11T15:22:20.296Z</time></trkpt><trkpt lat="45.8037351" lon="11.7456798"><ele>550.5</ele><time>2026-04-11T15:22:21.284Z</time></trkpt><trkpt lat="45.8037597" lon="11.7458448"><ele>548.0</ele><time>2026-04-11T15:22:22.28Z</time></trkpt><trkpt lat="45.8038026" lon="11.7460086"><ele>540.6666666666666</ele><time>2026-04-11T15:22:23.288Z</time></trkpt><trkpt lat="45.8038749" lon="11.7461691"><ele>533.3333333333334</ele><time>2026-04-11T15:22:24.291Z</time></trkpt><trkpt lat="45.8039664" lon="11.7463385"><ele>526.0</ele><time>2026-04-11T15:22:25.291Z</time></trkpt><trkpt lat="45.8041081" lon="11.7465233"><ele>526.0</ele><time>2026-04-11T15:22:26.289Z</time></trkpt><trkpt lat="45.8042848" lon="11.7467396"><ele>526.0</ele><time>2026-04-11T15:22:27.293Z</time></trkpt><trkpt lat="45.8044469" lon="11.7470008"><ele>524.6666666666667</ele><time>2026-04-11T15:22:28.28Z</time></trkpt><trkpt lat="45.8045903" lon="11.7472617"><ele>523.3333333333334</ele><time>2026-04-11T15:22:29.291Z</time></trkpt><trkpt lat="45.804721" lon="11.7474998"><ele>522.0</ele><time>2026-04-11T15:22:30.296Z</time></trkpt><trkpt lat="45.8048219" lon="11.7477398"><ele>522.0</ele><time>2026-04-11T15:22:31.309Z</time></trkpt><trkpt lat="45.8048956" lon="11.7480039"><ele>522.0</ele><time>2026-04-11T15:22:32.284Z</time></trkpt><trkpt lat="45.8049617" lon="11.7482532"><ele>522.0</ele><time>2026-04-11T15:22:33.286Z</time></trkpt><trkpt lat="45.8050219" lon="11.7484883"><ele>514.0</ele><time>2026-04-11T15:22:34.285Z</time></trkpt><trkpt lat="45.8050844" lon="11.748708"><ele>506.0</ele><time>2026-04-11T15:22:35.285Z</time></trkpt><trkpt lat="45.8051435" lon="11.7489236"><ele>498.0</ele><time>2026-04-11T15:22:36.298Z</time></trkpt><trkpt lat="45.8052092" lon="11.7491277"><ele>504.0</ele><time>2026-04-11T15:22:37.301Z</time></trkpt><trkpt lat="45.8052639" lon="11.7493212"><ele>510.0</ele><time>2026-04-11T15:22:38.286Z</time></trkpt><trkpt lat="45.8053108" lon="11.7495079"><ele>516.0</ele><time>2026-04-11T15:22:39.289Z</time></trkpt><trkpt lat="45.8053523" lon="11.7496848"><ele>522.0</ele><time>2026-04-11T15:22:40.292Z</time></trkpt><trkpt lat="45.8053793" lon="11.7498516"><ele>522.0</ele><time>2026-04-11T15:22:41.288Z</time></trkpt><trkpt lat="45.8054003" lon="11.750008"><ele>522.0</ele><time>2026-04-11T15:22:42.3Z</time></trkpt><trkpt lat="45.8054526" lon="11.7501519"><ele>522.0</ele><time>2026-04-11T15:22:43.29Z</time></trkpt><trkpt lat="45.8055567" lon="11.7502534"><ele>522.0</ele><time>2026-04-11T15:22:44.283Z</time></trkpt><trkpt lat="45.8056675" lon="11.750345"><ele>522.75</ele><time>2026-04-11T15:22:45.295Z</time></trkpt><trkpt lat="45.8057729" lon="11.7504352"><ele>523.5</ele><time>2026-04-11T15:22:46.288Z</time></trkpt><trkpt lat="45.8058845" lon="11.7505298"><ele>524.25</ele><time>2026-04-11T15:22:47.295Z</time></trkpt><trkpt lat="45.8059882" lon="11.7506331"><ele>525.0</ele><time>2026-04-11T15:22:48.283Z</time></trkpt><trkpt lat="45.8060827" lon="11.7507544"><ele>525.0</ele><time>2026-04-11T15:22:49.282Z</time></trkpt><trkpt lat="45.806163" lon="11.7508795"><ele>525.0</ele><time>2026-04-11T15:22:50.285Z</time></trkpt><trkpt lat="45.8062363" lon="11.7510084"><ele>525.0</ele><time>2026-04-11T15:22:51.278Z</time></trkpt><trkpt lat="45.806311" lon="11.7511321"><ele>525.0</ele><time>2026-04-11T15:22:52.281Z</time></trkpt><trkpt lat="45.8063871" lon="11.7512618"><ele>518.8</ele><time>2026-04-11T15:22:53.303Z</time></trkpt><trkpt lat="45.8064544" lon="11.7514094"><ele>512.6</ele><time>2026-04-11T15:22:54.282Z</time></trkpt><trkpt lat="45.8065086" lon="11.7515404"><ele>506.4</ele><time>2026-04-11T15:22:55.29Z</time></trkpt><trkpt lat="45.8065669" lon="11.7516724"><ele>500.2</ele><time>2026-04-11T15:22:56.294Z</time></trkpt><trkpt lat="45.8066284" lon="11.7517975"><ele>494.0</ele><time>2026-04-11T15:22:57.297Z</time></trkpt><trkpt lat="45.8067231" lon="11.7519062"><ele>487.25</ele><time>2026-04-11T15:22:58.296Z</time></trkpt><trkpt lat="45.8068217" lon="11.7519952"><ele>480.5</ele><time>2026-04-11T15:22:59.288Z</time></trkpt><trkpt lat="45.8069213" lon="11.752081"><ele>473.75</ele><time>2026-04-11T15:23:00.29Z</time></trkpt><trkpt lat="45.8070279" lon="11.7521622"><ele>467.0</ele><time>2026-04-11T15:23:01.293Z</time></trkpt><trkpt lat="45.8071304" lon="11.752234"><ele>467.0</ele><time>2026-04-11T15:23:02.293Z</time></trkpt><trkpt lat="45.8072445" lon="11.7522807"><ele>467.0</ele><time>2026-04-11T15:23:03.292Z</time></trkpt><trkpt lat="45.8073713" lon="11.7523059"><ele>467.0</ele><time>2026-04-11T15:23:04.284Z</time></trkpt><trkpt lat="45.8074917" lon="11.7523245"><ele>467.0</ele><time>2026-04-11T15:23:05.301Z</time></trkpt><trkpt lat="45.8076114" lon="11.7523355"><ele>467.25</ele><time>2026-04-11T15:23:06.295Z</time></trkpt><trkpt lat="45.807736" lon="11.752355"><ele>467.5</ele><time>2026-04-11T15:23:07.293Z</time></trkpt><trkpt lat="45.8078576" lon="11.7523711"><ele>467.75</ele><time>2026-04-11T15:23:08.297Z</time></trkpt><trkpt lat="45.8079827" lon="11.7523868"><ele>468.0</ele><time>2026-04-11T15:23:09.297Z</time></trkpt><trkpt lat="45.8081083" lon="11.7523996"><ele>468.0</ele><time>2026-04-11T15:23:10.294Z</time></trkpt><trkpt lat="45.8082326" lon="11.7524059"><ele>468.0</ele><time>2026-04-11T15:23:11.286Z</time></trkpt><trkpt lat="45.8083577" lon="11.7524135"><ele>468.0</ele><time>2026-04-11T15:23:12.296Z</time></trkpt><trkpt lat="45.8084819" lon="11.7524017"><ele>468.0</ele><time>2026-04-11T15:23:13.29Z</time></trkpt><trkpt lat="45.8086037" lon="11.752381"><ele>465.25</ele><time>2026-04-11T15:23:14.293Z</time></trkpt><trkpt lat="45.8087336" lon="11.7523746"><ele>462.5</ele><time>2026-04-11T15:23:15.291Z</time></trkpt><trkpt lat="45.8088605" lon="11.7523588"><ele>459.75</ele><time>2026-04-11T15:23:16.288Z</time></trkpt><trkpt lat="45.8089908" lon="11.752333"><ele>457.0</ele><time>2026-04-11T15:23:17.293Z</time></trkpt><trkpt lat="45.809118" lon="11.7523012"><ele>457.0</ele><time>2026-04-11T15:23:18.289Z</time></trkpt><trkpt lat="45.809246" lon="11.7522763"><ele>457.0</ele><time>2026-04-11T15:23:19.297Z</time></trkpt><trkpt lat="45.8093676" lon="11.7522664"><ele>457.0</ele><time>2026-04-11T15:23:20.299Z</time></trkpt><trkpt lat="45.8094765" lon="11.7522192"><ele>457.0</ele><time>2026-04-11T15:23:21.289Z</time></trkpt><trkpt lat="45.809573" lon="11.7521478"><ele>452.25</ele><time>2026-04-11T15:23:22.297Z</time></trkpt><trkpt lat="45.8096658" lon="11.7520503"><ele>447.5</ele><time>2026-04-11T15:23:23.29Z</time></trkpt><trkpt lat="45.8097742" lon="11.7519634"><ele>442.75</ele><time>2026-04-11T15:23:24.292Z</time></trkpt><trkpt lat="45.8098905" lon="11.7518954"><ele>438.0</ele><time>2026-04-11T15:23:25.289Z</time></trkpt><trkpt lat="45.8100244" lon="11.7518595"><ele>441.4</ele><time>2026-04-11T15:23:26.293Z</time></trkpt><trkpt lat="45.8101549" lon="11.7518494"><ele>444.79999999999995</ele><time>2026-04-11T15:23:27.285Z</time></trkpt><trkpt lat="45.8102769" lon="11.751869"><ele>448.2</ele><time>2026-04-11T15:23:28.287Z</time></trkpt><trkpt lat="45.8103776" lon="11.7518565"><ele>451.6</ele><time>2026-04-11T15:23:29.291Z</time></trkpt><trkpt lat="45.8104517" lon="11.751824"><ele>455.0</ele><time>2026-04-11T15:23:30.295Z</time></trkpt><trkpt lat="45.8105232" lon="11.7517928"><ele>454.99999999999994</ele><time>2026-04-11T15:23:31.286Z</time></trkpt><trkpt lat="45.8106142" lon="11.7517638"><ele>455.0</ele><time>2026-04-11T15:23:33.292Z</time></trkpt><trkpt lat="45.8106627" lon="11.7518415"><ele>455.0</ele><time>2026-04-11T15:23:35.287Z</time></trkpt><trkpt lat="45.8105958" lon="11.7519227"><ele>455.0</ele><time>2026-04-11T15:23:37.291Z</time></trkpt><trkpt lat="45.8105306" lon="11.7519413"><ele>454.99999999999994</ele><time>2026-04-11T15:23:38.288Z</time></trkpt><trkpt lat="45.8104518" lon="11.7519413"><ele>455.0</ele><time>2026-04-11T15:23:39.291Z</time></trkpt><trkpt lat="45.8103676" lon="11.7519561"><ele>451.6</ele><time>2026-04-11T15:23:40.289Z</time></trkpt><trkpt lat="45.8102799" lon="11.7519733"><ele>448.2</ele><time>2026-04-11T15:23:41.296Z</time></trkpt><trkpt lat="45.8101892" lon="11.751988"><ele>444.79999999999995</ele><time>2026-04-11T15:23:42.296Z</time></trkpt><trkpt lat="45.8100974" lon="11.7520088"><ele>441.4</ele><time>2026-04-11T15:23:43.299Z</time></trkpt><trkpt lat="45.8100076" lon="11.7520425"><ele>438.0</ele><time>2026-04-11T15:23:44.283Z</time></trkpt><trkpt lat="45.8099212" lon="11.7520981"><ele>438.0</ele><time>2026-04-11T15:23:45.291Z</time></trkpt><trkpt lat="45.8098551" lon="11.7521751"><ele>438.0</ele><time>2026-04-11T15:23:46.291Z</time></trkpt><trkpt lat="45.8097935" lon="11.7522682"><ele>438.0</ele><time>2026-04-11T15:23:47.284Z</time></trkpt><trkpt lat="45.8097306" lon="11.7523626"><ele>438.0</ele><time>2026-04-11T15:23:48.29Z</time></trkpt><trkpt lat="45.8096702" lon="11.7524444"><ele>438.0</ele><time>2026-04-11T15:23:49.29Z</time></trkpt><trkpt lat="45.8095984" lon="11.752512"><ele>438.0</ele><time>2026-04-11T15:23:50.288Z</time></trkpt><trkpt lat="45.809513" lon="11.7525836"><ele>438.0</ele><time>2026-04-11T15:23:51.295Z</time></trkpt><trkpt lat="45.8094147" lon="11.7526513"><ele>438.0</ele><time>2026-04-11T15:23:52.289Z</time></trkpt><trkpt lat="45.8092907" lon="11.7527179"><ele>438.0</ele><time>2026-04-11T15:23:53.288Z</time></trkpt><trkpt lat="45.8091443" lon="11.7527671"><ele>438.0</ele><time>2026-04-11T15:23:54.289Z</time></trkpt><trkpt lat="45.8089804" lon="11.752819"><ele>432.33333333333337</ele><time>2026-04-11T15:23:55.29Z</time></trkpt><trkpt lat="45.8088145" lon="11.7528937"><ele>426.6666666666667</ele><time>2026-04-11T15:23:56.285Z</time></trkpt><trkpt lat="45.8086394" lon="11.7529802"><ele>421.0</ele><time>2026-04-11T15:23:57.301Z</time></trkpt><trkpt lat="45.8084603" lon="11.7530554"><ele>421.0</ele><time>2026-04-11T15:23:58.285Z</time></trkpt><trkpt lat="45.8082824" lon="11.7531042"><ele>421.0</ele><time>2026-04-11T15:23:59.295Z</time></trkpt><trkpt lat="45.8081063" lon="11.7531454"><ele>421.0</ele><time>2026-04-11T15:24:00.289Z</time></trkpt><trkpt lat="45.8079399" lon="11.7531844"><ele>421.0</ele><time>2026-04-11T15:24:01.281Z</time></trkpt><trkpt lat="45.8077754" lon="11.7532101"><ele>421.0</ele><time>2026-04-11T15:24:02.286Z</time></trkpt><trkpt lat="45.8076091" lon="11.7532323"><ele>421.0</ele><time>2026-04-11T15:24:03.295Z</time></trkpt><trkpt lat="45.8074471" lon="11.7532551"><ele>423.25</ele><time>2026-04-11T15:24:04.286Z</time></trkpt><trkpt lat="45.8073017" lon="11.7532949"><ele>425.5</ele><time>2026-04-11T15:24:05.289Z</time></trkpt><trkpt lat="45.8071628" lon="11.7533452"><ele>427.75</ele><time>2026-04-11T15:24:06.294Z</time></trkpt><trkpt lat="45.807028" lon="11.7533796"><ele>430.0</ele><time>2026-04-11T15:24:07.289Z</time></trkpt><trkpt lat="45.8068844" lon="11.7533596"><ele>425.0</ele><time>2026-04-11T15:24:08.293Z</time></trkpt><trkpt lat="45.8067425" lon="11.7533309"><ele>420.0</ele><time>2026-04-11T15:24:09.296Z</time></trkpt><trkpt lat="45.8066107" lon="11.7532757"><ele>415.0</ele><time>2026-04-11T15:24:10.298Z</time></trkpt><trkpt lat="45.8064803" lon="11.7532088"><ele>410.0</ele><time>2026-04-11T15:24:11.288Z</time></trkpt><trkpt lat="45.8063456" lon="11.7531019"><ele>410.0</ele><time>2026-04-11T15:24:12.292Z</time></trkpt><trkpt lat="45.8061965" lon="11.7529719"><ele>410.0</ele><time>2026-04-11T15:24:13.285Z</time></trkpt><trkpt lat="45.8060273" lon="11.7528469"><ele>410.0</ele><time>2026-04-11T15:24:14.293Z</time></trkpt><trkpt lat="45.8058351" lon="11.7527178"><ele>415.0</ele><time>2026-04-11T15:24:15.285Z</time></trkpt><trkpt lat="45.8056103" lon="11.752522"><ele>420.0</ele><time>2026-04-11T15:24:16.292Z</time></trkpt><trkpt lat="45.8053983" lon="11.7523299"><ele>420.0</ele><time>2026-04-11T15:24:17.287Z</time></trkpt><trkpt lat="45.8051886" lon="11.7521242"><ele>420.0</ele><time>2026-04-11T15:24:18.285Z</time></trkpt><trkpt lat="45.8049857" lon="11.7519482"><ele>418.33333333333337</ele><time>2026-04-11T15:24:19.286Z</time></trkpt><trkpt lat="45.8048112" lon="11.7518063"><ele>416.6666666666667</ele><time>2026-04-11T15:24:20.285Z</time></trkpt><trkpt lat="45.8046418" lon="11.751675"><ele>415.0</ele><time>2026-04-11T15:24:21.29Z</time></trkpt><trkpt lat="45.8044799" lon="11.7515456"><ele>415.0</ele><time>2026-04-11T15:24:22.286Z</time></trkpt><trkpt lat="45.8043553" lon="11.7513954"><ele>415.0</ele><time>2026-04-11T15:24:23.286Z</time></trkpt><trkpt lat="45.8042607" lon="11.7512235"><ele>415.0</ele><time>2026-04-11T15:24:24.293Z</time></trkpt><trkpt lat="45.8041765" lon="11.7510104"><ele>409.0</ele><time>2026-04-11T15:24:25.289Z</time></trkpt><trkpt lat="45.8040872" lon="11.7507687"><ele>403.0</ele><time>2026-04-11T15:24:26.295Z</time></trkpt><trkpt lat="45.8039717" lon="11.7505273"><ele>397.0</ele><time>2026-04-11T15:24:27.287Z</time></trkpt><trkpt lat="45.80385" lon="11.7502883"><ele>402.33333333333337</ele><time>2026-04-11T15:24:28.291Z</time></trkpt><trkpt lat="45.8037345" lon="11.7500321"><ele>407.66666666666663</ele><time>2026-04-11T15:24:29.287Z</time></trkpt><trkpt lat="45.8036162" lon="11.7497846"><ele>413.0</ele><time>2026-04-11T15:24:30.288Z</time></trkpt><trkpt lat="45.8034873" lon="11.7495503"><ele>405.66666666666663</ele><time>2026-04-11T15:24:31.289Z</time></trkpt><trkpt lat="45.8033686" lon="11.7493188"><ele>398.33333333333337</ele><time>2026-04-11T15:24:32.289Z</time></trkpt><trkpt lat="45.803249" lon="11.7491327"><ele>391.0</ele><time>2026-04-11T15:24:33.29Z</time></trkpt><trkpt lat="45.8031506" lon="11.7489723"><ele>391.0</ele><time>2026-04-11T15:24:34.292Z</time></trkpt><trkpt lat="45.8030593" lon="11.7488438"><ele>391.0</ele><time>2026-04-11T15:24:35.288Z</time></trkpt><trkpt lat="45.8029611" lon="11.7487409"><ele>391.0</ele><time>2026-04-11T15:24:36.292Z</time></trkpt><trkpt lat="45.8028311" lon="11.7486569"><ele>391.0</ele><time>2026-04-11T15:24:37.285Z</time></trkpt><trkpt lat="45.8026433" lon="11.7486782"><ele>379.0</ele><time>2026-04-11T15:24:38.292Z</time></trkpt><trkpt lat="45.8024608" lon="11.7486788"><ele>367.0</ele><time>2026-04-11T15:24:39.285Z</time></trkpt><trkpt lat="45.8022881" lon="11.7486662"><ele>355.0</ele><time>2026-04-11T15:24:40.296Z</time></trkpt><trkpt lat="45.8021042" lon="11.7486272"><ele>355.0</ele><time>2026-04-11T15:24:41.283Z</time></trkpt><trkpt lat="45.8019305" lon="11.7485656"><ele>355.0</ele><time>2026-04-11T15:24:42.288Z</time></trkpt><trkpt lat="45.8017701" lon="11.7484104"><ele>355.0</ele><time>2026-04-11T15:24:43.283Z</time></trkpt><trkpt lat="45.8016082" lon="11.7482774"><ele>358.0</ele><time>2026-04-11T15:24:44.291Z</time></trkpt><trkpt lat="45.8014517" lon="11.7480914"><ele>361.0</ele><time>2026-04-11T15:24:45.285Z</time></trkpt><trkpt lat="45.8012973" lon="11.7479046"><ele>364.0</ele><time>2026-04-11T15:24:46.296Z</time></trkpt><trkpt lat="45.8011464" lon="11.7477289"><ele>358.66666666666663</ele><time>2026-04-11T15:24:47.289Z</time></trkpt><trkpt lat="45.8010202" lon="11.7475656"><ele>353.3333333333333</ele><time>2026-04-11T15:24:48.286Z</time></trkpt><trkpt lat="45.8009018" lon="11.7474126"><ele>348.0</ele><time>2026-04-11T15:24:49.285Z</time></trkpt><trkpt lat="45.800796" lon="11.7472805"><ele>348.0</ele><time>2026-04-11T15:24:50.292Z</time></trkpt><trkpt lat="45.8006951" lon="11.7471055"><ele>348.0</ele><time>2026-04-11T15:24:51.289Z</time></trkpt><trkpt lat="45.8006859" lon="11.7469796"><ele>348.0</ele><time>2026-04-11T15:24:52.288Z</time></trkpt><trkpt lat="45.8006458" lon="11.7469001"><ele>348.0</ele><time>2026-04-11T15:24:53.284Z</time></trkpt><trkpt lat="45.8005801" lon="11.746881"><ele>348.0</ele><time>2026-04-11T15:24:54.295Z</time></trkpt><trkpt lat="45.8005356" lon="11.7469971"><ele>348.0</ele><time>2026-04-11T15:24:55.284Z</time></trkpt><trkpt lat="45.8005422" lon="11.7471146"><ele>348.0</ele><time>2026-04-11T15:24:56.285Z</time></trkpt><trkpt lat="45.8005732" lon="11.7472539"><ele>348.0</ele><time>2026-04-11T15:24:57.292Z</time></trkpt><trkpt lat="45.8006623" lon="11.747365"><ele>348.0</ele><time>2026-04-11T15:24:58.29Z</time></trkpt><trkpt lat="45.8007603" lon="11.7474973"><ele>348.0</ele><time>2026-04-11T15:24:59.285Z</time></trkpt><trkpt lat="45.8008624" lon="11.7476396"><ele>352.0</ele><time>2026-04-11T15:25:00.297Z</time></trkpt><trkpt lat="45.8009507" lon="11.7478137"><ele>356.0</ele><time>2026-04-11T15:25:01.289Z</time></trkpt><trkpt lat="45.8010285" lon="11.7479866"><ele>360.0</ele><time>2026-04-11T15:25:02.288Z</time></trkpt><trkpt lat="45.8011063" lon="11.748179"><ele>364.0</ele><time>2026-04-11T15:25:03.287Z</time></trkpt><trkpt lat="45.8011904" lon="11.7483437"><ele>364.0</ele><time>2026-04-11T15:25:04.297Z</time></trkpt><trkpt lat="45.8012704" lon="11.7484979"><ele>364.0</ele><time>2026-04-11T15:25:05.292Z</time></trkpt><trkpt lat="45.8013487" lon="11.748651"><ele>364.0</ele><time>2026-04-11T15:25:06.291Z</time></trkpt><trkpt lat="45.8014234" lon="11.7487985"><ele>364.0</ele><time>2026-04-11T15:25:07.288Z</time></trkpt><trkpt lat="45.8014912" lon="11.7489381"><ele>356.4</ele><time>2026-04-11T15:25:08.294Z</time></trkpt><trkpt lat="45.8015566" lon="11.7490635"><ele>348.79999999999995</ele><time>2026-04-11T15:25:09.295Z</time></trkpt><trkpt lat="45.8016369" lon="11.7491712"><ele>341.20000000000005</ele><time>2026-04-11T15:25:10.282Z</time></trkpt><trkpt lat="45.8017252" lon="11.7492609"><ele>333.6</ele><time>2026-04-11T15:25:11.288Z</time></trkpt><trkpt lat="45.8018172" lon="11.7493439"><ele>326.0</ele><time>2026-04-11T15:25:12.289Z</time></trkpt><trkpt lat="45.8019193" lon="11.7494109"><ele>324.25</ele><time>2026-04-11T15:25:13.292Z</time></trkpt><trkpt lat="45.8020346" lon="11.7494857"><ele>322.5</ele><time>2026-04-11T15:25:14.298Z</time></trkpt><trkpt lat="45.8021486" lon="11.7495599"><ele>320.75</ele><time>2026-04-11T15:25:15.286Z</time></trkpt><trkpt lat="45.8022627" lon="11.7496408"><ele>319.0</ele><time>2026-04-11T15:25:16.288Z</time></trkpt><trkpt lat="45.8023769" lon="11.7497241"><ele>319.0</ele><time>2026-04-11T15:25:17.292Z</time></trkpt><trkpt lat="45.8024705" lon="11.7498362"><ele>319.0</ele><time>2026-04-11T15:25:18.291Z</time></trkpt><trkpt lat="45.8025405" lon="11.7499757"><ele>319.0</ele><time>2026-04-11T15:25:19.292Z</time></trkpt><trkpt lat="45.8026097" lon="11.7501129"><ele>319.0</ele><time>2026-04-11T15:25:20.298Z</time></trkpt><trkpt lat="45.8026516" lon="11.7502816"><ele>325.0</ele><time>2026-04-11T15:25:21.298Z</time></trkpt><trkpt lat="45.802704" lon="11.750459"><ele>331.0</ele><time>2026-04-11T15:25:22.291Z</time></trkpt><trkpt lat="45.802759" lon="11.7506264"><ele>337.0</ele><time>2026-04-11T15:25:23.297Z</time></trkpt><trkpt lat="45.8028076" lon="11.7507933"><ele>343.0</ele><time>2026-04-11T15:25:24.29Z</time></trkpt><trkpt lat="45.8028559" lon="11.7509744"><ele>336.0</ele><time>2026-04-11T15:25:25.293Z</time></trkpt><trkpt lat="45.8029183" lon="11.7511592"><ele>329.0</ele><time>2026-04-11T15:25:26.295Z</time></trkpt><trkpt lat="45.8029877" lon="11.7513574"><ele>322.0</ele><time>2026-04-11T15:25:27.292Z</time></trkpt><trkpt lat="45.8030585" lon="11.751557"><ele>322.0</ele><time>2026-04-11T15:25:28.288Z</time></trkpt><trkpt lat="45.803132" lon="11.7517744"><ele>322.0</ele><time>2026-04-11T15:25:29.288Z</time></trkpt><trkpt lat="45.8032104" lon="11.7519998"><ele>322.0</ele><time>2026-04-11T15:25:30.291Z</time></trkpt><trkpt lat="45.8032911" lon="11.7522309"><ele>315.0</ele><time>2026-04-11T15:25:31.285Z</time></trkpt><trkpt lat="45.8033725" lon="11.7524557"><ele>308.0</ele><time>2026-04-11T15:25:32.291Z</time></trkpt><trkpt lat="45.8034782" lon="11.7526782"><ele>301.0</ele><time>2026-04-11T15:25:33.292Z</time></trkpt><trkpt lat="45.8035911" lon="11.752875"><ele>301.0</ele><time>2026-04-11T15:25:34.29Z</time></trkpt><trkpt lat="45.8037117" lon="11.7530758"><ele>301.0</ele><time>2026-04-11T15:25:35.276Z</time></trkpt><trkpt lat="45.8038266" lon="11.7532684"><ele>301.0</ele><time>2026-04-11T15:25:36.307Z</time></trkpt><trkpt lat="45.8039407" lon="11.753461"><ele>304.3333333333333</ele><time>2026-04-11T15:25:37.285Z</time></trkpt><trkpt lat="45.8040505" lon="11.7536523"><ele>307.6666666666667</ele><time>2026-04-11T15:25:38.302Z</time></trkpt><trkpt lat="45.804158" lon="11.7538317"><ele>311.0</ele><time>2026-04-11T15:25:39.339Z</time></trkpt><trkpt lat="45.80437" lon="11.7541787"><ele>311.0</ele><time>2026-04-11T15:25:41.308Z</time></trkpt><trkpt lat="45.8044821" lon="11.7543376"><ele>311.0</ele><time>2026-04-11T15:25:42.285Z</time></trkpt><trkpt lat="45.8046031" lon="11.754493"><ele>311.0</ele><time>2026-04-11T15:25:43.286Z</time></trkpt><trkpt lat="45.8047235" lon="11.7546536"><ele>299.0</ele><time>2026-04-11T15:25:44.286Z</time></trkpt><trkpt lat="45.8048453" lon="11.7548168"><ele>287.0</ele><time>2026-04-11T15:25:45.29Z</time></trkpt><trkpt lat="45.8049694" lon="11.7549799"><ele>275.0</ele><time>2026-04-11T15:25:46.294Z</time></trkpt><trkpt lat="45.8050874" lon="11.7551404"><ele>271.33333333333337</ele><time>2026-04-11T15:25:47.286Z</time></trkpt><trkpt lat="45.8052032" lon="11.7552973"><ele>267.6666666666667</ele><time>2026-04-11T15:25:48.29Z</time></trkpt><trkpt lat="45.8053201" lon="11.7554515"><ele>264.0</ele><time>2026-04-11T15:25:49.318Z</time></trkpt><trkpt lat="45.8056007" lon="11.755704"><ele>264.0</ele><time>2026-04-11T15:25:51.285Z</time></trkpt><trkpt lat="45.8057334" lon="11.7558147"><ele>264.0</ele><time>2026-04-11T15:25:52.29Z</time></trkpt><trkpt lat="45.8058804" lon="11.7559145"><ele>264.0</ele><time>2026-04-11T15:25:53.299Z</time></trkpt><trkpt lat="45.8060248" lon="11.7559975"><ele>255.33333333333331</ele><time>2026-04-11T15:25:54.29Z</time></trkpt><trkpt lat="45.8061849" lon="11.7560983"><ele>246.66666666666666</ele><time>2026-04-11T15:25:55.291Z</time></trkpt><trkpt lat="45.8063302" lon="11.7561897"><ele>238.0</ele><time>2026-04-11T15:25:56.287Z</time></trkpt><trkpt lat="45.8064705" lon="11.7562799"><ele>238.0</ele><time>2026-04-11T15:25:57.293Z</time></trkpt><trkpt lat="45.8066138" lon="11.7563534"><ele>238.0</ele><time>2026-04-11T15:25:58.297Z</time></trkpt><trkpt lat="45.8067613" lon="11.7564286"><ele>238.0</ele><time>2026-04-11T15:25:59.293Z</time></trkpt><trkpt lat="45.806914" lon="11.7564766"><ele>239.25</ele><time>2026-04-11T15:26:00.285Z</time></trkpt><trkpt lat="45.807057" lon="11.7565157"><ele>240.5</ele><time>2026-04-11T15:26:01.292Z</time></trkpt><trkpt lat="45.8071995" lon="11.7565537"><ele>241.75</ele><time>2026-04-11T15:26:02.286Z</time></trkpt><trkpt lat="45.8073356" lon="11.7565839"><ele>243.0</ele><time>2026-04-11T15:26:03.292Z</time></trkpt><trkpt lat="45.807463" lon="11.7566155"><ele>243.0</ele><time>2026-04-11T15:26:04.294Z</time></trkpt><trkpt lat="45.8075699" lon="11.7566366"><ele>243.0</ele><time>2026-04-11T15:26:05.3Z</time></trkpt><trkpt lat="45.8076543" lon="11.7566523"><ele>243.0</ele><time>2026-04-11T15:26:06.296Z</time></trkpt><trkpt lat="45.807735" lon="11.756751"><ele>243.0</ele><time>2026-04-11T15:26:08.282Z</time></trkpt><trkpt lat="45.8076709" lon="11.7568653"><ele>243.0</ele><time>2026-04-11T15:26:10.303Z</time></trkpt><trkpt lat="45.8075966" lon="11.7568573"><ele>243.0</ele><time>2026-04-11T15:26:11.288Z</time></trkpt><trkpt lat="45.807497" lon="11.7568232"><ele>243.0</ele><time>2026-04-11T15:26:12.285Z</time></trkpt><trkpt lat="45.8073673" lon="11.7567915"><ele>243.0</ele><time>2026-04-11T15:26:13.293Z</time></trkpt><trkpt lat="45.8072212" lon="11.7567796"><ele>243.0</ele><time>2026-04-11T15:26:14.294Z</time></trkpt><trkpt lat="45.8070748" lon="11.7567742"><ele>243.0</ele><time>2026-04-11T15:26:15.318Z</time></trkpt><trkpt lat="45.8069296" lon="11.7567706"><ele>243.0</ele><time>2026-04-11T15:26:16.296Z</time></trkpt><trkpt lat="45.8067808" lon="11.7567637"><ele>243.0</ele><time>2026-04-11T15:26:17.291Z</time></trkpt><trkpt lat="45.8066309" lon="11.756755"><ele>243.0</ele><time>2026-04-11T15:26:18.296Z</time></trkpt><trkpt lat="45.8064812" lon="11.75674"><ele>241.33333333333331</ele><time>2026-04-11T15:26:19.298Z</time></trkpt><trkpt lat="45.8063313" lon="11.7567208"><ele>239.66666666666666</ele><time>2026-04-11T15:26:20.284Z</time></trkpt><trkpt lat="45.8061817" lon="11.7566993"><ele>238.0</ele><time>2026-04-11T15:26:21.295Z</time></trkpt><trkpt lat="45.8060331" lon="11.7566778"><ele>233.33333333333331</ele><time>2026-04-11T15:26:22.295Z</time></trkpt><trkpt lat="45.8058805" lon="11.7566504"><ele>228.66666666666669</ele><time>2026-04-11T15:26:23.362Z</time></trkpt><trkpt lat="45.8057278" lon="11.7566169"><ele>224.0</ele><time>2026-04-11T15:26:24.29Z</time></trkpt><trkpt lat="45.8055843" lon="11.7565708"><ele>224.0</ele><time>2026-04-11T15:26:25.288Z</time></trkpt><trkpt lat="45.8054466" lon="11.7565182"><ele>224.0</ele><time>2026-04-11T15:26:26.299Z</time></trkpt><trkpt lat="45.805307" lon="11.7564633"><ele>224.0</ele><time>2026-04-11T15:26:27.295Z</time></trkpt><trkpt lat="45.8051723" lon="11.7564137"><ele>224.0</ele><time>2026-04-11T15:26:28.295Z</time></trkpt><trkpt lat="45.8050458" lon="11.7563657"><ele>220.25</ele><time>2026-04-11T15:26:29.296Z</time></trkpt><trkpt lat="45.804924" lon="11.7563154"><ele>216.5</ele><time>2026-04-11T15:26:30.293Z</time></trkpt><trkpt lat="45.8048036" lon="11.7562812"><ele>212.75</ele><time>2026-04-11T15:26:31.293Z</time></trkpt><trkpt lat="45.8046855" lon="11.7562753"><ele>209.0</ele><time>2026-04-11T15:26:32.288Z</time></trkpt><trkpt lat="45.8045665" lon="11.7563053"><ele>209.0</ele><time>2026-04-11T15:26:33.288Z</time></trkpt><trkpt lat="45.8044526" lon="11.7563713"><ele>209.0</ele><time>2026-04-11T15:26:34.292Z</time></trkpt><trkpt lat="45.8043501" lon="11.7564798"><ele>209.0</ele><time>2026-04-11T15:26:35.296Z</time></trkpt><trkpt lat="45.8042508" lon="11.7566027"><ele>209.0</ele><time>2026-04-11T15:26:36.349Z</time></trkpt><trkpt lat="45.8041425" lon="11.7567111"><ele>207.0</ele><time>2026-04-11T15:26:37.3Z</time></trkpt><trkpt lat="45.8040249" lon="11.7567959"><ele>205.0</ele><time>2026-04-11T15:26:38.288Z</time></trkpt><trkpt lat="45.8039054" lon="11.7568671"><ele>203.0</ele><time>2026-04-11T15:26:39.313Z</time></trkpt><trkpt lat="45.8037907" lon="11.7569386"><ele>201.0</ele><time>2026-04-11T15:26:40.298Z</time></trkpt><trkpt lat="45.8036758" lon="11.7570095"><ele>199.25</ele><time>2026-04-11T15:26:41.298Z</time></trkpt><trkpt lat="45.8035603" lon="11.7570797"><ele>197.5</ele><time>2026-04-11T15:26:42.304Z</time></trkpt><trkpt lat="45.8034455" lon="11.7571521"><ele>195.75</ele><time>2026-04-11T15:26:43.288Z</time></trkpt><trkpt lat="45.8033305" lon="11.7572235"><ele>194.0</ele><time>2026-04-11T15:26:44.292Z</time></trkpt><trkpt lat="45.8032138" lon="11.7572987"><ele>193.75</ele><time>2026-04-11T15:26:45.289Z</time></trkpt><trkpt lat="45.8030977" lon="11.7573738"><ele>193.5</ele><time>2026-04-11T15:26:46.294Z</time></trkpt><trkpt lat="45.802982" lon="11.7574502"><ele>193.25</ele><time>2026-04-11T15:26:47.285Z</time></trkpt><trkpt lat="45.8028666" lon="11.757527"><ele>193.0</ele><time>2026-04-11T15:26:48.3Z</time></trkpt><trkpt lat="45.8027493" lon="11.7576046"><ele>192.0</ele><time>2026-04-11T15:26:49.298Z</time></trkpt><trkpt lat="45.8026303" lon="11.7576839"><ele>191.0</ele><time>2026-04-11T15:26:50.292Z</time></trkpt><trkpt lat="45.8025133" lon="11.7577612"><ele>190.0</ele><time>2026-04-11T15:26:51.289Z</time></trkpt><trkpt lat="45.8023981" lon="11.7578288"><ele>189.0</ele><time>2026-04-11T15:26:52.299Z</time></trkpt><trkpt lat="45.802281" lon="11.7578799"><ele>189.0</ele><time>2026-04-11T15:26:53.293Z</time></trkpt><trkpt lat="45.8021681" lon="11.7579026"><ele>189.0</ele><time>2026-04-11T15:26:54.286Z</time></trkpt><trkpt lat="45.8020581" lon="11.7578938"><ele>189.0</ele><time>2026-04-11T15:26:55.296Z</time></trkpt><trkpt lat="45.8019468" lon="11.757868"><ele>189.0</ele><time>2026-04-11T15:26:56.286Z</time></trkpt><trkpt lat="45.801833" lon="11.7578592"><ele>188.6</ele><time>2026-04-11T15:26:57.292Z</time></trkpt><trkpt lat="45.8017187" lon="11.7578844"><ele>188.2</ele><time>2026-04-11T15:26:58.29Z</time></trkpt><trkpt lat="45.8016116" lon="11.7579179"><ele>187.79999999999998</ele><time>2026-04-11T15:26:59.288Z</time></trkpt><trkpt lat="45.8015106" lon="11.7579313"><ele>187.39999999999998</ele><time>2026-04-11T15:27:00.295Z</time></trkpt><trkpt lat="45.8014124" lon="11.7579062"><ele>187.0</ele><time>2026-04-11T15:27:01.292Z</time></trkpt><trkpt lat="45.801322" lon="11.7578375"><ele>187.0</ele><time>2026-04-11T15:27:02.292Z</time></trkpt><trkpt lat="45.8012351" lon="11.757747"><ele>187.0</ele><time>2026-04-11T15:27:03.299Z</time></trkpt><trkpt lat="45.8011461" lon="11.7576536"><ele>187.0</ele><time>2026-04-11T15:27:04.291Z</time></trkpt><trkpt lat="45.8010536" lon="11.7575615"><ele>187.0</ele><time>2026-04-11T15:27:05.292Z</time></trkpt><trkpt lat="45.8009567" lon="11.7574662"><ele>187.0</ele><time>2026-04-11T15:27:06.288Z</time></trkpt><trkpt lat="45.8008599" lon="11.7573714"><ele>186.25</ele><time>2026-04-11T15:27:07.293Z</time></trkpt><trkpt lat="45.800763" lon="11.7572791"><ele>185.5</ele><time>2026-04-11T15:27:08.294Z</time></trkpt><trkpt lat="45.8006665" lon="11.7571896"><ele>184.75</ele><time>2026-04-11T15:27:09.293Z</time></trkpt><trkpt lat="45.8005713" lon="11.757098"><ele>184.0</ele><time>2026-04-11T15:27:10.29Z</time></trkpt><trkpt lat="45.80048" lon="11.7570001"><ele>184.0</ele><time>2026-04-11T15:27:11.289Z</time></trkpt><trkpt lat="45.8004041" lon="11.7568937"><ele>184.0</ele><time>2026-04-11T15:27:12.286Z</time></trkpt><trkpt lat="45.8003489" lon="11.7567805"><ele>184.0</ele><time>2026-04-11T15:27:13.284Z</time></trkpt><trkpt lat="45.8003018" lon="11.7566763"><ele>184.0</ele><time>2026-04-11T15:27:14.293Z</time></trkpt><trkpt lat="45.8002432" lon="11.7565966"><ele>184.0</ele><time>2026-04-11T15:27:15.285Z</time></trkpt><trkpt lat="45.8001657" lon="11.7565477"><ele>184.0</ele><time>2026-04-11T15:27:16.289Z</time></trkpt><trkpt lat="45.80008" lon="11.7565207"><ele>184.0</ele><time>2026-04-11T15:27:17.29Z</time></trkpt><trkpt lat="45.7999923" lon="11.7565063"><ele>184.0</ele><time>2026-04-11T15:27:18.291Z</time></trkpt><trkpt lat="45.7999076" lon="11.7564937"><ele>184.0</ele><time>2026-04-11T15:27:19.302Z</time></trkpt><trkpt lat="45.7998246" lon="11.7564812"><ele>184.0</ele><time>2026-04-11T15:27:20.288Z</time></trkpt><trkpt lat="45.7997433" lon="11.7564698"><ele>184.0</ele><time>2026-04-11T15:27:21.29Z</time></trkpt><trkpt lat="45.7996628" lon="11.7564561"><ele>184.0</ele><time>2026-04-11T15:27:22.286Z</time></trkpt><trkpt lat="45.7995819" lon="11.7564417"><ele>184.0</ele><time>2026-04-11T15:27:23.289Z</time></trkpt><trkpt lat="45.7994946" lon="11.7564279"><ele>184.0</ele><time>2026-04-11T15:27:24.288Z</time></trkpt><trkpt lat="45.7994034" lon="11.7564251"><ele>184.0</ele><time>2026-04-11T15:27:25.287Z</time></trkpt><trkpt lat="45.7993151" lon="11.7564339"><ele>184.0</ele><time>2026-04-11T15:27:26.288Z</time></trkpt><trkpt lat="45.7992338" lon="11.7564514"><ele>184.0</ele><time>2026-04-11T15:27:27.287Z</time></trkpt><trkpt lat="45.799155" lon="11.7564763"><ele>183.16666666666669</ele><time>2026-04-11T15:27:28.292Z</time></trkpt><trkpt lat="45.7990767" lon="11.7565034"><ele>182.33333333333334</ele><time>2026-04-11T15:27:29.287Z</time></trkpt><trkpt lat="45.7989952" lon="11.7565283"><ele>181.5</ele><time>2026-04-11T15:27:30.283Z</time></trkpt><trkpt lat="45.798914" lon="11.7565523"><ele>180.66666666666666</ele><time>2026-04-11T15:27:31.293Z</time></trkpt><trkpt lat="45.7988316" lon="11.7565708"><ele>179.83333333333331</ele><time>2026-04-11T15:27:32.287Z</time></trkpt><trkpt lat="45.7987451" lon="11.7565924"><ele>179.0</ele><time>2026-04-11T15:27:33.291Z</time></trkpt><trkpt lat="45.7986589" lon="11.756612"><ele>179.0</ele><time>2026-04-11T15:27:34.293Z</time></trkpt><trkpt lat="45.7985773" lon="11.756631"><ele>179.0</ele><time>2026-04-11T15:27:35.296Z</time></trkpt><trkpt lat="45.7985018" lon="11.7566502"><ele>179.0</ele><time>2026-04-11T15:27:36.285Z</time></trkpt><trkpt lat="45.7984267" lon="11.7566679"><ele>179.0</ele><time>2026-04-11T15:27:37.293Z</time></trkpt><trkpt lat="45.7983489" lon="11.7566859"><ele>179.0</ele><time>2026-04-11T15:27:38.298Z</time></trkpt><trkpt lat="45.7982681" lon="11.7567049"><ele>179.0</ele><time>2026-04-11T15:27:39.289Z</time></trkpt><trkpt lat="45.7981845" lon="11.756722"><ele>178.6</ele><time>2026-04-11T15:27:40.291Z</time></trkpt><trkpt lat="45.7980993" lon="11.756741"><ele>178.2</ele><time>2026-04-11T15:27:41.293Z</time></trkpt><trkpt lat="45.7980117" lon="11.7567635"><ele>177.79999999999998</ele><time>2026-04-11T15:27:42.292Z</time></trkpt><trkpt lat="45.7979235" lon="11.7567911"><ele>177.39999999999998</ele><time>2026-04-11T15:27:43.286Z</time></trkpt><trkpt lat="45.7978353" lon="11.7568279"><ele>177.0</ele><time>2026-04-11T15:27:44.29Z</time></trkpt><trkpt lat="45.7977469" lon="11.7568751"><ele>176.2</ele><time>2026-04-11T15:27:45.303Z</time></trkpt><trkpt lat="45.797659" lon="11.7569317"><ele>175.39999999999998</ele><time>2026-04-11T15:27:46.293Z</time></trkpt><trkpt lat="45.7975787" lon="11.7569986"><ele>174.60000000000002</ele><time>2026-04-11T15:27:47.293Z</time></trkpt><trkpt lat="45.7975073" lon="11.7570643"><ele>173.8</ele><time>2026-04-11T15:27:48.288Z</time></trkpt><trkpt lat="45.7974359" lon="11.7571341"><ele>173.0</ele><time>2026-04-11T15:27:49.349Z</time></trkpt><trkpt lat="45.7973593" lon="11.7572055"><ele>173.0</ele><time>2026-04-11T15:27:50.288Z</time></trkpt><trkpt lat="45.7972903" lon="11.7572625"><ele>173.0</ele><time>2026-04-11T15:27:51.288Z</time></trkpt><trkpt lat="45.7972297" lon="11.7573025"><ele>173.0</ele><time>2026-04-11T15:27:52.285Z</time></trkpt><trkpt lat="45.797145" lon="11.7573424"><ele>173.0</ele><time>2026-04-11T15:27:54.291Z</time></trkpt><trkpt lat="45.7970821" lon="11.7573702"><ele>173.0</ele><time>2026-04-11T15:27:56.289Z</time></trkpt><trkpt lat="45.7969712" lon="11.7574073"><ele>173.0</ele><time>2026-04-11T15:28:12.295Z</time></trkpt><trkpt lat="45.7969052" lon="11.757423"><ele>172.4</ele><time>2026-04-11T15:28:14.306Z</time></trkpt><trkpt lat="45.79679" lon="11.7574762"><ele>171.8</ele><time>2026-04-11T15:28:16.287Z</time></trkpt><trkpt lat="45.7967084" lon="11.757557"><ele>171.2</ele><time>2026-04-11T15:28:18.287Z</time></trkpt><trkpt lat="45.7966215" lon="11.757694"><ele>170.6</ele><time>2026-04-11T15:28:32.294Z</time></trkpt><trkpt lat="45.796569" lon="11.7577454"><ele>170.0</ele><time>2026-04-11T15:28:35.306Z</time></trkpt><trkpt lat="45.796513" lon="11.7578193"><ele>169.83333333333331</ele><time>2026-04-11T15:28:40.295Z</time></trkpt><trkpt lat="45.7964587" lon="11.7578662"><ele>169.66666666666666</ele><time>2026-04-11T15:28:44.286Z</time></trkpt><trkpt lat="45.7963971" lon="11.7579082"><ele>169.5</ele><time>2026-04-11T15:28:49.292Z</time></trkpt><trkpt lat="45.7963469" lon="11.7579725"><ele>169.33333333333334</ele><time>2026-04-11T15:28:52.295Z</time></trkpt><trkpt lat="45.7962973" lon="11.7580515"><ele>169.16666666666669</ele><time>2026-04-11T15:28:56.289Z</time></trkpt><trkpt lat="45.7961955" lon="11.7582352"><ele>169.0</ele><time>2026-04-11T15:29:06.29Z</time></trkpt><trkpt lat="45.7961477" lon="11.7583023"><ele>169.0</ele><time>2026-04-11T15:29:07.302Z</time></trkpt><trkpt lat="45.796101" lon="11.7583928"><ele>169.0</ele><time>2026-04-11T15:29:08.299Z</time></trkpt><trkpt lat="45.7960529" lon="11.758502"><ele>169.0</ele><time>2026-04-11T15:29:09.334Z</time></trkpt><trkpt lat="45.7959993" lon="11.7586185"><ele>169.0</ele><time>2026-04-11T15:29:10.289Z</time></trkpt><trkpt lat="45.795942" lon="11.7587362"><ele>169.0</ele><time>2026-04-11T15:29:11.285Z</time></trkpt><trkpt lat="45.7958811" lon="11.7588659"><ele>170.25</ele><time>2026-04-11T15:29:12.296Z</time></trkpt><trkpt lat="45.795819" lon="11.7589944"><ele>171.5</ele><time>2026-04-11T15:29:13.291Z</time></trkpt><trkpt lat="45.7957113" lon="11.7592131"><ele>172.75</ele><time>2026-04-11T15:29:15.289Z</time></trkpt><trkpt lat="45.7956535" lon="11.7593233"><ele>174.0</ele><time>2026-04-11T15:29:16.288Z</time></trkpt><trkpt lat="45.7955775" lon="11.7594334"><ele>172.25</ele><time>2026-04-11T15:29:17.292Z</time></trkpt><trkpt lat="45.7954817" lon="11.7595384"><ele>170.5</ele><time>2026-04-11T15:29:18.354Z</time></trkpt><trkpt lat="45.795367" lon="11.7596312"><ele>168.75</ele><time>2026-04-11T15:29:19.291Z</time></trkpt><trkpt lat="45.7952368" lon="11.7596998"><ele>167.0</ele><time>2026-04-11T15:29:20.293Z</time></trkpt><trkpt lat="45.7950984" lon="11.7597493"><ele>167.0</ele><time>2026-04-11T15:29:21.287Z</time></trkpt><trkpt lat="45.7949546" lon="11.7597971"><ele>167.0</ele><time>2026-04-11T15:29:22.29Z</time></trkpt><trkpt lat="45.7948045" lon="11.7598462"><ele>167.0</ele><time>2026-04-11T15:29:23.29Z</time></trkpt><trkpt lat="45.794646" lon="11.7598961"><ele>167.0</ele><time>2026-04-11T15:29:24.308Z</time></trkpt><trkpt lat="45.7944787" lon="11.7599474"><ele>167.0</ele><time>2026-04-11T15:29:25.297Z</time></trkpt><trkpt lat="45.794316" lon="11.7599953"><ele>167.0</ele><time>2026-04-11T15:29:26.293Z</time></trkpt><trkpt lat="45.7941547" lon="11.7600407"><ele>165.66666666666666</ele><time>2026-04-11T15:29:27.316Z</time></trkpt><trkpt lat="45.793996" lon="11.7600891"><ele>164.33333333333334</ele><time>2026-04-11T15:29:28.3Z</time></trkpt><trkpt lat="45.7938389" lon="11.7601476"><ele>163.0</ele><time>2026-04-11T15:29:29.293Z</time></trkpt><trkpt lat="45.7936846" lon="11.7602218"><ele>162.33333333333334</ele><time>2026-04-11T15:29:30.284Z</time></trkpt><trkpt lat="45.7935346" lon="11.7603156"><ele>161.66666666666666</ele><time>2026-04-11T15:29:31.296Z</time></trkpt><trkpt lat="45.7933894" lon="11.7604331"><ele>161.0</ele><time>2026-04-11T15:29:32.302Z</time></trkpt><trkpt lat="45.7932437" lon="11.7605673"><ele>161.0</ele><time>2026-04-11T15:29:33.284Z</time></trkpt><trkpt lat="45.7931082" lon="11.7606988"><ele>161.0</ele><time>2026-04-11T15:29:34.298Z</time></trkpt><trkpt lat="45.7929821" lon="11.7608256"><ele>161.0</ele><time>2026-04-11T15:29:35.295Z</time></trkpt><trkpt lat="45.7928593" lon="11.7609501"><ele>161.0</ele><time>2026-04-11T15:29:36.284Z</time></trkpt><trkpt lat="45.792737" lon="11.7610745"><ele>161.0</ele><time>2026-04-11T15:29:37.294Z</time></trkpt><trkpt lat="45.7926155" lon="11.7611973"><ele>161.0</ele><time>2026-04-11T15:29:38.297Z</time></trkpt><trkpt lat="45.7925007" lon="11.7613148"><ele>161.0</ele><time>2026-04-11T15:29:39.301Z</time></trkpt><trkpt lat="45.7923936" lon="11.761411"><ele>160.25</ele><time>2026-04-11T15:29:40.295Z</time></trkpt><trkpt lat="45.7922954" lon="11.7615249"><ele>159.5</ele><time>2026-04-11T15:29:41.295Z</time></trkpt><trkpt lat="45.7921822" lon="11.7616461"><ele>158.75</ele><time>2026-04-11T15:29:42.295Z</time></trkpt><trkpt lat="45.7920503" lon="11.7617805"><ele>158.0</ele><time>2026-04-11T15:29:43.321Z</time></trkpt><trkpt lat="45.7919" lon="11.7619348"><ele>157.33333333333331</ele><time>2026-04-11T15:29:44.357Z</time></trkpt><trkpt lat="45.7917265" lon="11.7621164"><ele>156.66666666666666</ele><time>2026-04-11T15:29:45.325Z</time></trkpt><trkpt lat="45.7915352" lon="11.7623096"><ele>156.0</ele><time>2026-04-11T15:29:46.303Z</time></trkpt><trkpt lat="45.7913516" lon="11.7624847"><ele>156.0</ele><time>2026-04-11T15:29:47.299Z</time></trkpt><trkpt lat="45.7911762" lon="11.7626309"><ele>156.0</ele><time>2026-04-11T15:29:48.291Z</time></trkpt><trkpt lat="45.791009" lon="11.7627507"><ele>156.0</ele><time>2026-04-11T15:29:49.292Z</time></trkpt><trkpt lat="45.7908504" lon="11.7628513"><ele>155.66666666666666</ele><time>2026-04-11T15:29:50.297Z</time></trkpt><trkpt lat="45.7907018" lon="11.7629436"><ele>155.33333333333331</ele><time>2026-04-11T15:29:51.36Z</time></trkpt><trkpt lat="45.7905585" lon="11.7630304"><ele>155.0</ele><time>2026-04-11T15:29:52.292Z</time></trkpt><trkpt lat="45.7904127" lon="11.7631175"><ele>155.0</ele><time>2026-04-11T15:29:53.285Z</time></trkpt><trkpt lat="45.7902702" lon="11.7632051"><ele>155.0</ele><time>2026-04-11T15:29:54.293Z</time></trkpt><trkpt lat="45.790123" lon="11.7632934"><ele>155.0</ele><time>2026-04-11T15:29:55.288Z</time></trkpt><trkpt lat="45.7899808" lon="11.7633792"><ele>154.25</ele><time>2026-04-11T15:29:56.287Z</time></trkpt><trkpt lat="45.7898447" lon="11.7634609"><ele>153.5</ele><time>2026-04-11T15:29:57.295Z</time></trkpt><trkpt lat="45.7897187" lon="11.7635379"><ele>152.75</ele><time>2026-04-11T15:29:58.299Z</time></trkpt><trkpt lat="45.7895988" lon="11.7636121"><ele>152.0</ele><time>2026-04-11T15:29:59.291Z</time></trkpt><trkpt lat="45.7894873" lon="11.763678"><ele>152.0</ele><time>2026-04-11T15:30:00.291Z</time></trkpt><trkpt lat="45.7893764" lon="11.7637448"><ele>152.0</ele><time>2026-04-11T15:30:01.298Z</time></trkpt><trkpt lat="45.7892688" lon="11.7638109"><ele>152.0</ele><time>2026-04-11T15:30:02.3Z</time></trkpt><trkpt lat="45.7891637" lon="11.7638738"><ele>152.0</ele><time>2026-04-11T15:30:03.297Z</time></trkpt><trkpt lat="45.7890595" lon="11.7639365"><ele>152.0</ele><time>2026-04-11T15:30:04.289Z</time></trkpt><trkpt lat="45.7889492" lon="11.7640018"><ele>152.0</ele><time>2026-04-11T15:30:05.299Z</time></trkpt><trkpt lat="45.7888299" lon="11.7640696"><ele>152.0</ele><time>2026-04-11T15:30:06.298Z</time></trkpt><trkpt lat="45.7887147" lon="11.7641326"><ele>152.0</ele><time>2026-04-11T15:30:07.298Z</time></trkpt><trkpt lat="45.7886039" lon="11.7641911"><ele>152.0</ele><time>2026-04-11T15:30:08.297Z</time></trkpt><trkpt lat="45.7884909" lon="11.7642438"><ele>152.0</ele><time>2026-04-11T15:30:09.306Z</time></trkpt><trkpt lat="45.7883705" lon="11.764292"><ele>152.0</ele><time>2026-04-11T15:30:10.3Z</time></trkpt><trkpt lat="45.788255" lon="11.7643341"><ele>152.0</ele><time>2026-04-11T15:30:11.295Z</time></trkpt><trkpt lat="45.7881391" lon="11.7643751"><ele>152.0</ele><time>2026-04-11T15:30:12.301Z</time></trkpt><trkpt lat="45.7880218" lon="11.7644164"><ele>152.0</ele><time>2026-04-11T15:30:13.298Z</time></trkpt><trkpt lat="45.7879016" lon="11.7644558"><ele>152.0</ele><time>2026-04-11T15:30:14.287Z</time></trkpt><trkpt lat="45.7877861" lon="11.7644934"><ele>152.0</ele><time>2026-04-11T15:30:15.285Z</time></trkpt><trkpt lat="45.7876765" lon="11.7645295"><ele>152.16666666666666</ele><time>2026-04-11T15:30:16.297Z</time></trkpt><trkpt lat="45.7875729" lon="11.7645628"><ele>152.33333333333331</ele><time>2026-04-11T15:30:17.292Z</time></trkpt><trkpt lat="45.7874826" lon="11.7645886"><ele>152.5</ele><time>2026-04-11T15:30:18.292Z</time></trkpt><trkpt lat="45.7874136" lon="11.7646004"><ele>152.66666666666666</ele><time>2026-04-11T15:30:19.296Z</time></trkpt><trkpt lat="45.7873464" lon="11.7646012"><ele>152.83333333333334</ele><time>2026-04-11T15:30:21.301Z</time></trkpt><trkpt lat="45.787269" lon="11.764589"><ele>153.0</ele><time>2026-04-11T15:30:28.294Z</time></trkpt><trkpt lat="45.7871798" lon="11.7645691"><ele>153.0</ele><time>2026-04-11T15:30:30.297Z</time></trkpt><trkpt lat="45.7870542" lon="11.7645036"><ele>153.0</ele><time>2026-04-11T15:30:32.297Z</time></trkpt><trkpt lat="45.7869709" lon="11.7644244"><ele>153.0</ele><time>2026-04-11T15:30:33.303Z</time></trkpt><trkpt lat="45.7868901" lon="11.7643119"><ele>153.0</ele><time>2026-04-11T15:30:34.335Z</time></trkpt><trkpt lat="45.7868246" lon="11.7641608"><ele>151.5</ele><time>2026-04-11T15:30:35.295Z</time></trkpt><trkpt lat="45.7867695" lon="11.7640106"><ele>150.0</ele><time>2026-04-11T15:30:36.296Z</time></trkpt><trkpt lat="45.7867341" lon="11.7638135"><ele>148.5</ele><time>2026-04-11T15:30:37.296Z</time></trkpt><trkpt lat="45.786694" lon="11.7636312"><ele>147.0</ele><time>2026-04-11T15:30:38.303Z</time></trkpt><trkpt lat="45.7866522" lon="11.7634477"><ele>147.0</ele><time>2026-04-11T15:30:39.29Z</time></trkpt><trkpt lat="45.7866163" lon="11.7632608"><ele>147.0</ele><time>2026-04-11T15:30:40.292Z</time></trkpt><trkpt lat="45.7865768" lon="11.7630739"><ele>147.0</ele><time>2026-04-11T15:30:41.303Z</time></trkpt><trkpt lat="45.7865385" lon="11.7628816"><ele>147.0</ele><time>2026-04-11T15:30:42.299Z</time></trkpt><trkpt lat="45.7864991" lon="11.7626887"><ele>147.75</ele><time>2026-04-11T15:30:43.297Z</time></trkpt><trkpt lat="45.7864531" lon="11.7624959"><ele>148.5</ele><time>2026-04-11T15:30:44.294Z</time></trkpt><trkpt lat="45.786408" lon="11.7623029"><ele>149.25</ele><time>2026-04-11T15:30:45.291Z</time></trkpt><trkpt lat="45.7863593" lon="11.7621142"><ele>150.0</ele><time>2026-04-11T15:30:46.299Z</time></trkpt><trkpt lat="45.786304" lon="11.7619323"><ele>149.75</ele><time>2026-04-11T15:30:47.293Z</time></trkpt><trkpt lat="45.7862475" lon="11.761757"><ele>149.5</ele><time>2026-04-11T15:30:48.29Z</time></trkpt><trkpt lat="45.7861905" lon="11.7615802"><ele>149.25</ele><time>2026-04-11T15:30:49.299Z</time></trkpt><trkpt lat="45.7861437" lon="11.7614233"><ele>149.0</ele><time>2026-04-11T15:30:50.292Z</time></trkpt><trkpt lat="45.7860983" lon="11.7612556"><ele>149.0</ele><time>2026-04-11T15:30:51.293Z</time></trkpt><trkpt lat="45.786057" lon="11.7610847"><ele>149.0</ele><time>2026-04-11T15:30:52.295Z</time></trkpt><trkpt lat="45.7860204" lon="11.7609118"><ele>149.0</ele><time>2026-04-11T15:30:53.295Z</time></trkpt><trkpt lat="45.785982" lon="11.7607334"><ele>149.0</ele><time>2026-04-11T15:30:54.298Z</time></trkpt><trkpt lat="45.7859474" lon="11.760561"><ele>148.5</ele><time>2026-04-11T15:30:55.303Z</time></trkpt><trkpt lat="45.7859112" lon="11.760391"><ele>148.0</ele><time>2026-04-11T15:30:56.3Z</time></trkpt><trkpt lat="45.7858784" lon="11.7602222"><ele>147.5</ele><time>2026-04-11T15:30:57.302Z</time></trkpt><trkpt lat="45.7858432" lon="11.7600589"><ele>147.0</ele><time>2026-04-11T15:30:58.299Z</time></trkpt><trkpt lat="45.7858091" lon="11.7598984"><ele>147.0</ele><time>2026-04-11T15:30:59.295Z</time></trkpt><trkpt lat="45.7857765" lon="11.759737"><ele>147.0</ele><time>2026-04-11T15:31:00.302Z</time></trkpt><trkpt lat="45.7857473" lon="11.759587"><ele>147.0</ele><time>2026-04-11T15:31:01.294Z</time></trkpt><trkpt lat="45.7857186" lon="11.7594438"><ele>147.0</ele><time>2026-04-11T15:31:02.292Z</time></trkpt><trkpt lat="45.7856855" lon="11.7593105"><ele>147.0</ele><time>2026-04-11T15:31:03.292Z</time></trkpt><trkpt lat="45.7856525" lon="11.759174"><ele>147.2</ele><time>2026-04-11T15:31:04.297Z</time></trkpt><trkpt lat="45.7856113" lon="11.7590441"><ele>147.39999999999998</ele><time>2026-04-11T15:31:05.301Z</time></trkpt><trkpt lat="45.7855679" lon="11.7589284"><ele>147.60000000000002</ele><time>2026-04-11T15:31:06.3Z</time></trkpt><trkpt lat="45.7855264" lon="11.7588189"><ele>147.8</ele><time>2026-04-11T15:31:07.29Z</time></trkpt><trkpt lat="45.785491" lon="11.7586952"><ele>148.0</ele><time>2026-04-11T15:31:08.298Z</time></trkpt><trkpt lat="45.7854653" lon="11.7585612"><ele>148.0</ele><time>2026-04-11T15:31:09.293Z</time></trkpt><trkpt lat="45.785436" lon="11.7584347"><ele>148.0</ele><time>2026-04-11T15:31:10.294Z</time></trkpt><trkpt lat="45.7853876" lon="11.758325"><ele>148.0</ele><time>2026-04-11T15:31:11.297Z</time></trkpt><trkpt lat="45.7853176" lon="11.7582537"><ele>148.0</ele><time>2026-04-11T15:31:12.292Z</time></trkpt><trkpt lat="45.7852296" lon="11.7582279"><ele>148.0</ele><time>2026-04-11T15:31:13.308Z</time></trkpt><trkpt lat="45.7851319" lon="11.7582356"><ele>147.0</ele><time>2026-04-11T15:31:14.353Z</time></trkpt><trkpt lat="45.7850347" lon="11.7582245"><ele>146.0</ele><time>2026-04-11T15:31:15.308Z</time></trkpt><trkpt lat="45.7849394" lon="11.7581642"><ele>145.0</ele><time>2026-04-11T15:31:16.305Z</time></trkpt><trkpt lat="45.7848403" lon="11.7580623"><ele>144.0</ele><time>2026-04-11T15:31:17.297Z</time></trkpt><trkpt lat="45.7847336" lon="11.7579451"><ele>144.0</ele><time>2026-04-11T15:31:18.3Z</time></trkpt><trkpt lat="45.784621" lon="11.7578133"><ele>144.0</ele><time>2026-04-11T15:31:19.295Z</time></trkpt><trkpt lat="45.7845039" lon="11.7576674"><ele>144.0</ele><time>2026-04-11T15:31:20.304Z</time></trkpt><trkpt lat="45.7843805" lon="11.7575028"><ele>144.0</ele><time>2026-04-11T15:31:21.297Z</time></trkpt><trkpt lat="45.7842427" lon="11.7573106"><ele>144.0</ele><time>2026-04-11T15:31:22.295Z</time></trkpt><trkpt lat="45.7841077" lon="11.7571194"><ele>144.0</ele><time>2026-04-11T15:31:23.298Z</time></trkpt><trkpt lat="45.7839838" lon="11.7569421"><ele>143.5</ele><time>2026-04-11T15:31:24.296Z</time></trkpt><trkpt lat="45.7838727" lon="11.7567735"><ele>143.0</ele><time>2026-04-11T15:31:25.3Z</time></trkpt><trkpt lat="45.7837807" lon="11.7566052"><ele>142.5</ele><time>2026-04-11T15:31:26.29Z</time></trkpt><trkpt lat="45.7837168" lon="11.7564389"><ele>142.0</ele><time>2026-04-11T15:31:27.303Z</time></trkpt><trkpt lat="45.7836867" lon="11.7562684"><ele>142.0</ele><time>2026-04-11T15:31:28.298Z</time></trkpt><trkpt lat="45.7836921" lon="11.7561004"><ele>142.0</ele><time>2026-04-11T15:31:29.293Z</time></trkpt><trkpt lat="45.7837327" lon="11.7559469"><ele>142.0</ele><time>2026-04-11T15:31:30.292Z</time></trkpt><trkpt lat="45.7838066" lon="11.7558177"><ele>142.0</ele><time>2026-04-11T15:31:31.288Z</time></trkpt><trkpt lat="45.7839049" lon="11.7557253"><ele>142.0</ele><time>2026-04-11T15:31:32.292Z</time></trkpt><trkpt lat="45.7840039" lon="11.7556613"><ele>142.0</ele><time>2026-04-11T15:31:33.288Z</time></trkpt><trkpt lat="45.7841194" lon="11.755667"><ele>142.0</ele><time>2026-04-11T15:31:34.296Z</time></trkpt><trkpt lat="45.7842222" lon="11.7557161"><ele>142.0</ele><time>2026-04-11T15:31:35.292Z</time></trkpt><trkpt lat="45.7843043" lon="11.7557908"><ele>142.0</ele><time>2026-04-11T15:31:36.302Z</time></trkpt><trkpt lat="45.7843673" lon="11.7558913"><ele>142.0</ele><time>2026-04-11T15:31:37.295Z</time></trkpt><trkpt lat="45.784411" lon="11.7560044"><ele>142.0</ele><time>2026-04-11T15:31:38.291Z</time></trkpt><trkpt lat="45.7844345" lon="11.7561262"><ele>142.0</ele><time>2026-04-11T15:31:39.297Z</time></trkpt><trkpt lat="45.784436" lon="11.7562421"><ele>142.0</ele><time>2026-04-11T15:31:40.293Z</time></trkpt><trkpt lat="45.7844216" lon="11.7563508"><ele>142.0</ele><time>2026-04-11T15:31:41.303Z</time></trkpt><trkpt lat="45.7843927" lon="11.7564531"><ele>142.0</ele><time>2026-04-11T15:31:42.294Z</time></trkpt><trkpt lat="45.7843498" lon="11.7565558"><ele>142.0</ele><time>2026-04-11T15:31:43.293Z</time></trkpt><trkpt lat="45.7842899" lon="11.7566656"><ele>142.0</ele><time>2026-04-11T15:31:44.29Z</time></trkpt><trkpt lat="45.7842194" lon="11.7567882"><ele>142.0</ele><time>2026-04-11T15:31:45.294Z</time></trkpt><trkpt lat="45.7841394" lon="11.7569253"><ele>142.0</ele><time>2026-04-11T15:31:46.296Z</time></trkpt><trkpt lat="45.7840506" lon="11.7570746"><ele>142.66666666666669</ele><time>2026-04-11T15:31:47.287Z</time></trkpt><trkpt lat="45.7839552" lon="11.7572281"><ele>143.33333333333334</ele><time>2026-04-11T15:31:48.286Z</time></trkpt><trkpt lat="45.7838373" lon="11.7574056"><ele>144.0</ele><time>2026-04-11T15:31:49.291Z</time></trkpt><trkpt lat="45.7836942" lon="11.7575952"><ele>143.33333333333334</ele><time>2026-04-11T15:31:50.293Z</time></trkpt><trkpt lat="45.7835361" lon="11.7577866"><ele>142.66666666666669</ele><time>2026-04-11T15:31:51.293Z</time></trkpt><trkpt lat="45.7833624" lon="11.7579816"><ele>142.0</ele><time>2026-04-11T15:31:52.293Z</time></trkpt><trkpt lat="45.7831769" lon="11.7581752"><ele>141.0</ele><time>2026-04-11T15:31:53.359Z</time></trkpt><trkpt lat="45.7829783" lon="11.758364"><ele>140.0</ele><time>2026-04-11T15:31:54.291Z</time></trkpt><trkpt lat="45.7827702" lon="11.7585421"><ele>139.0</ele><time>2026-04-11T15:31:55.376Z</time></trkpt><trkpt lat="45.7825541" lon="11.7587065"><ele>138.0</ele><time>2026-04-11T15:31:56.301Z</time></trkpt><trkpt lat="45.7823305" lon="11.7588603"><ele>138.0</ele><time>2026-04-11T15:31:57.301Z</time></trkpt><trkpt lat="45.7821019" lon="11.7590086"><ele>138.0</ele><time>2026-04-11T15:31:58.296Z</time></trkpt><trkpt lat="45.7818722" lon="11.7591521"><ele>138.0</ele><time>2026-04-11T15:31:59.309Z</time></trkpt><trkpt lat="45.7816415" lon="11.7592928"><ele>138.0</ele><time>2026-04-11T15:32:00.291Z</time></trkpt><trkpt lat="45.7814105" lon="11.759427"><ele>137.5</ele><time>2026-04-11T15:32:01.292Z</time></trkpt><trkpt lat="45.7811777" lon="11.7595549"><ele>137.0</ele><time>2026-04-11T15:32:02.309Z</time></trkpt><trkpt lat="45.7809445" lon="11.7596756"><ele>136.5</ele><time>2026-04-11T15:32:03.294Z</time></trkpt><trkpt lat="45.7807094" lon="11.7597925"><ele>136.0</ele><time>2026-04-11T15:32:04.292Z</time></trkpt><trkpt lat="45.780473" lon="11.7599117"><ele>136.0</ele><time>2026-04-11T15:32:05.291Z</time></trkpt><trkpt lat="45.7802383" lon="11.7600321"><ele>136.0</ele><time>2026-04-11T15:32:06.296Z</time></trkpt><trkpt lat="45.780005" lon="11.7601516"><ele>134.5</ele><time>2026-04-11T15:32:07.304Z</time></trkpt><trkpt lat="45.7797736" lon="11.7602716"><ele>133.0</ele><time>2026-04-11T15:32:08.298Z</time></trkpt><trkpt lat="45.779542" lon="11.7603903"><ele>132.5</ele><time>2026-04-11T15:32:09.292Z</time></trkpt><trkpt lat="45.7793115" lon="11.7605101"><ele>132.0</ele><time>2026-04-11T15:32:10.328Z</time></trkpt><trkpt lat="45.7790807" lon="11.7606303"><ele>132.0</ele><time>2026-04-11T15:32:11.292Z</time></trkpt><trkpt lat="45.7788511" lon="11.7607513"><ele>132.0</ele><time>2026-04-11T15:32:12.288Z</time></trkpt><trkpt lat="45.7786226" lon="11.76087"><ele>132.0</ele><time>2026-04-11T15:32:13.297Z</time></trkpt><trkpt lat="45.7783928" lon="11.7609901"><ele>132.0</ele><time>2026-04-11T15:32:14.295Z</time></trkpt><trkpt lat="45.7781636" lon="11.761111"><ele>132.0</ele><time>2026-04-11T15:32:15.294Z</time></trkpt><trkpt lat="45.7779322" lon="11.7612327"><ele>132.0</ele><time>2026-04-11T15:32:16.331Z</time></trkpt><trkpt lat="45.7777007" lon="11.7613533"><ele>132.0</ele><time>2026-04-11T15:32:17.3Z</time></trkpt><trkpt lat="45.7774688" lon="11.7614699"><ele>132.0</ele><time>2026-04-11T15:32:18.29Z</time></trkpt><trkpt lat="45.7772368" lon="11.7615894"><ele>132.0</ele><time>2026-04-11T15:32:19.294Z</time></trkpt><trkpt lat="45.7770055" lon="11.7617125"><ele>132.0</ele><time>2026-04-11T15:32:20.293Z</time></trkpt><trkpt lat="45.7767723" lon="11.7618382"><ele>131.0</ele><time>2026-04-11T15:32:21.297Z</time></trkpt><trkpt lat="45.7765365" lon="11.761962"><ele>130.0</ele><time>2026-04-11T15:32:22.293Z</time></trkpt><trkpt lat="45.7762997" lon="11.7620864"><ele>130.0</ele><time>2026-04-11T15:32:23.296Z</time></trkpt><trkpt lat="45.7760624" lon="11.7622129"><ele>130.0</ele><time>2026-04-11T15:32:24.289Z</time></trkpt><trkpt lat="45.7758251" lon="11.7623397"><ele>129.0</ele><time>2026-04-11T15:32:25.296Z</time></trkpt><trkpt lat="45.7755874" lon="11.7624664"><ele>128.0</ele><time>2026-04-11T15:32:26.291Z</time></trkpt><trkpt lat="45.7753507" lon="11.7625952"><ele>127.5</ele><time>2026-04-11T15:32:27.296Z</time></trkpt><trkpt lat="45.7751152" lon="11.7627254"><ele>127.0</ele><time>2026-04-11T15:32:28.293Z</time></trkpt><trkpt lat="45.7748804" lon="11.7628525"><ele>127.0</ele><time>2026-04-11T15:32:29.296Z</time></trkpt><trkpt lat="45.7746448" lon="11.7629757"><ele>127.0</ele><time>2026-04-11T15:32:30.29Z</time></trkpt><trkpt lat="45.7744014" lon="11.7631047"><ele>127.0</ele><time>2026-04-11T15:32:31.289Z</time></trkpt><trkpt lat="45.7741461" lon="11.7632442"><ele>127.0</ele><time>2026-04-11T15:32:32.292Z</time></trkpt><trkpt lat="45.7738784" lon="11.7633901"><ele>127.0</ele><time>2026-04-11T15:32:33.296Z</time></trkpt><trkpt lat="45.7736086" lon="11.7635353"><ele>127.0</ele><time>2026-04-11T15:32:34.291Z</time></trkpt><trkpt lat="45.7733474" lon="11.7636779"><ele>128.0</ele><time>2026-04-11T15:32:35.294Z</time></trkpt><trkpt lat="45.7730934" lon="11.7638107"><ele>129.0</ele><time>2026-04-11T15:32:36.355Z</time></trkpt><trkpt lat="45.7728542" lon="11.7639407"><ele>129.0</ele><time>2026-04-11T15:32:37.305Z</time></trkpt><trkpt lat="45.7726286" lon="11.7640672"><ele>129.0</ele><time>2026-04-11T15:32:38.294Z</time></trkpt><trkpt lat="45.7724118" lon="11.7641852"><ele>129.0</ele><time>2026-04-11T15:32:39.293Z</time></trkpt><trkpt lat="45.772204" lon="11.764296"><ele>129.0</ele><time>2026-04-11T15:32:40.294Z</time></trkpt><trkpt lat="45.7720016" lon="11.7644032"><ele>129.0</ele><time>2026-04-11T15:32:41.3Z</time></trkpt><trkpt lat="45.7718025" lon="11.7645065"><ele>128.33333333333334</ele><time>2026-04-11T15:32:42.291Z</time></trkpt><trkpt lat="45.7716074" lon="11.7646137"><ele>127.66666666666667</ele><time>2026-04-11T15:32:43.295Z</time></trkpt><trkpt lat="45.7714092" lon="11.7647217"><ele>127.0</ele><time>2026-04-11T15:32:44.298Z</time></trkpt><trkpt lat="45.7712098" lon="11.7648311"><ele>127.0</ele><time>2026-04-11T15:32:45.298Z</time></trkpt><trkpt lat="45.7710107" lon="11.7649446"><ele>127.0</ele><time>2026-04-11T15:32:46.305Z</time></trkpt><trkpt lat="45.7708051" lon="11.7650649"><ele>127.0</ele><time>2026-04-11T15:32:47.3Z</time></trkpt><trkpt lat="45.7705914" lon="11.7651929"><ele>126.5</ele><time>2026-04-11T15:32:48.292Z</time></trkpt><trkpt lat="45.7703623" lon="11.765335"><ele>126.0</ele><time>2026-04-11T15:32:49.295Z</time></trkpt><trkpt lat="45.7701224" lon="11.7654726"><ele>126.0</ele><time>2026-04-11T15:32:50.29Z</time></trkpt><trkpt lat="45.7698777" lon="11.7656063"><ele>126.0</ele><time>2026-04-11T15:32:51.288Z</time></trkpt><trkpt lat="45.7696267" lon="11.7657356"><ele>126.0</ele><time>2026-04-11T15:32:52.333Z</time></trkpt><trkpt lat="45.7693722" lon="11.7658724"><ele>126.0</ele><time>2026-04-11T15:32:53.341Z</time></trkpt><trkpt lat="45.7691162" lon="11.7660092"><ele>125.0</ele><time>2026-04-11T15:32:54.333Z</time></trkpt><trkpt lat="45.7688582" lon="11.7661493"><ele>124.0</ele><time>2026-04-11T15:32:55.361Z</time></trkpt><trkpt lat="45.7686003" lon="11.7662898"><ele>123.0</ele><time>2026-04-11T15:32:56.33Z</time></trkpt><trkpt lat="45.7683409" lon="11.7664314"><ele>122.0</ele><time>2026-04-11T15:32:57.356Z</time></trkpt><trkpt lat="45.7680797" lon="11.7665705"><ele>122.0</ele><time>2026-04-11T15:32:58.288Z</time></trkpt><trkpt lat="45.7678156" lon="11.766701"><ele>122.0</ele><time>2026-04-11T15:32:59.295Z</time></trkpt><trkpt lat="45.76755" lon="11.7668316"><ele>121.0</ele><time>2026-04-11T15:33:00.289Z</time></trkpt><trkpt lat="45.767287" lon="11.7669729"><ele>120.0</ele><time>2026-04-11T15:33:01.292Z</time></trkpt><trkpt lat="45.7670262" lon="11.7671166"><ele>120.5</ele><time>2026-04-11T15:33:02.307Z</time></trkpt><trkpt lat="45.7667647" lon="11.7672535"><ele>121.0</ele><time>2026-04-11T15:33:03.291Z</time></trkpt><trkpt lat="45.766506" lon="11.7673908"><ele>121.0</ele><time>2026-04-11T15:33:04.288Z</time></trkpt><trkpt lat="45.7662515" lon="11.7675284"><ele>121.0</ele><time>2026-04-11T15:33:05.287Z</time></trkpt><trkpt lat="45.7659997" lon="11.7676664"><ele>120.0</ele><time>2026-04-11T15:33:06.294Z</time></trkpt><trkpt lat="45.765751" lon="11.7678062"><ele>119.0</ele><time>2026-04-11T15:33:07.281Z</time></trkpt><trkpt lat="45.7655061" lon="11.7679521"><ele>119.0</ele><time>2026-04-11T15:33:08.296Z</time></trkpt><trkpt lat="45.7652674" lon="11.7681048"><ele>119.0</ele><time>2026-04-11T15:33:09.291Z</time></trkpt><trkpt lat="45.7650261" lon="11.7682747"><ele>119.0</ele><time>2026-04-11T15:33:10.288Z</time></trkpt><trkpt lat="45.764777" lon="11.7684635"><ele>119.0</ele><time>2026-04-11T15:33:11.29Z</time></trkpt><trkpt lat="45.7645206" lon="11.7686629"><ele>119.0</ele><time>2026-04-11T15:33:12.295Z</time></trkpt><trkpt lat="45.7642641" lon="11.7688638"><ele>119.0</ele><time>2026-04-11T15:33:13.289Z</time></trkpt><trkpt lat="45.7640087" lon="11.7690629"><ele>119.0</ele><time>2026-04-11T15:33:14.298Z</time></trkpt><trkpt lat="45.7637541" lon="11.7692647"><ele>119.0</ele><time>2026-04-11T15:33:15.296Z</time></trkpt><trkpt lat="45.7635016" lon="11.7694663"><ele>117.5</ele><time>2026-04-11T15:33:16.311Z</time></trkpt><trkpt lat="45.7632517" lon="11.7696663"><ele>116.0</ele><time>2026-04-11T15:33:17.295Z</time></trkpt><trkpt lat="45.7630018" lon="11.7698641"><ele>116.0</ele><time>2026-04-11T15:33:18.288Z</time></trkpt><trkpt lat="45.7627529" lon="11.770059"><ele>116.0</ele><time>2026-04-11T15:33:19.294Z</time></trkpt><trkpt lat="45.7625061" lon="11.7702549"><ele>115.0</ele><time>2026-04-11T15:33:20.3Z</time></trkpt><trkpt lat="45.7622621" lon="11.7704511"><ele>114.0</ele><time>2026-04-11T15:33:21.295Z</time></trkpt><trkpt lat="45.762018" lon="11.7706491"><ele>114.0</ele><time>2026-04-11T15:33:22.295Z</time></trkpt><trkpt lat="45.7617766" lon="11.7708476"><ele>114.0</ele><time>2026-04-11T15:33:23.326Z</time></trkpt><trkpt lat="45.7615378" lon="11.7710434"><ele>114.5</ele><time>2026-04-11T15:33:24.335Z</time></trkpt><trkpt lat="45.7613007" lon="11.771239"><ele>115.0</ele><time>2026-04-11T15:33:25.295Z</time></trkpt><trkpt lat="45.7610672" lon="11.7714175"><ele>115.0</ele><time>2026-04-11T15:33:26.294Z</time></trkpt><trkpt lat="45.7608298" lon="11.7715946"><ele>115.0</ele><time>2026-04-11T15:33:27.295Z</time></trkpt><trkpt lat="45.7606008" lon="11.7717802"><ele>114.5</ele><time>2026-04-11T15:33:28.291Z</time></trkpt><trkpt lat="45.7603746" lon="11.7719615"><ele>114.0</ele><time>2026-04-11T15:33:29.295Z</time></trkpt><trkpt lat="45.7601473" lon="11.7721399"><ele>114.0</ele><time>2026-04-11T15:33:30.289Z</time></trkpt><trkpt lat="45.7599189" lon="11.7723113"><ele>114.0</ele><time>2026-04-11T15:33:31.297Z</time></trkpt><trkpt lat="45.7596892" lon="11.7724773"><ele>114.0</ele><time>2026-04-11T15:33:32.292Z</time></trkpt><trkpt lat="45.7594592" lon="11.7726387"><ele>114.0</ele><time>2026-04-11T15:33:33.311Z</time></trkpt><trkpt lat="45.7592275" lon="11.772796"><ele>112.0</ele><time>2026-04-11T15:33:34.303Z</time></trkpt><trkpt lat="45.7589934" lon="11.7729519"><ele>110.0</ele><time>2026-04-11T15:33:35.295Z</time></trkpt><trkpt lat="45.7587575" lon="11.7731017"><ele>110.5</ele><time>2026-04-11T15:33:36.298Z</time></trkpt><trkpt lat="45.7585224" lon="11.7732485"><ele>111.0</ele><time>2026-04-11T15:33:37.301Z</time></trkpt><trkpt lat="45.7582878" lon="11.773389"><ele>111.5</ele><time>2026-04-11T15:33:38.294Z</time></trkpt><trkpt lat="45.7580608" lon="11.7735241"><ele>112.0</ele><time>2026-04-11T15:33:39.289Z</time></trkpt><trkpt lat="45.7578352" lon="11.7736544"><ele>111.5</ele><time>2026-04-11T15:33:40.305Z</time></trkpt><trkpt lat="45.757617" lon="11.7737769"><ele>111.0</ele><time>2026-04-11T15:33:41.299Z</time></trkpt><trkpt lat="45.757408" lon="11.7738895"><ele>111.0</ele><time>2026-04-11T15:33:42.29Z</time></trkpt><trkpt lat="45.7572041" lon="11.773998"><ele>111.0</ele><time>2026-04-11T15:33:43.301Z</time></trkpt><trkpt lat="45.7570055" lon="11.7740983"><ele>111.0</ele><time>2026-04-11T15:33:44.301Z</time></trkpt><trkpt lat="45.7568051" lon="11.7741958"><ele>111.0</ele><time>2026-04-11T15:33:45.291Z</time></trkpt><trkpt lat="45.7566019" lon="11.7742901"><ele>111.0</ele><time>2026-04-11T15:33:46.367Z</time></trkpt><trkpt lat="45.7563972" lon="11.7743853"><ele>111.0</ele><time>2026-04-11T15:33:47.301Z</time></trkpt><trkpt lat="45.7561882" lon="11.7744806"><ele>112.0</ele><time>2026-04-11T15:33:48.289Z</time></trkpt><trkpt lat="45.7559744" lon="11.7745806"><ele>113.0</ele><time>2026-04-11T15:33:49.288Z</time></trkpt><trkpt lat="45.755754" lon="11.7746865"><ele>113.0</ele><time>2026-04-11T15:33:50.295Z</time></trkpt><trkpt lat="45.755527" lon="11.7747912"><ele>113.0</ele><time>2026-04-11T15:33:51.288Z</time></trkpt><trkpt lat="45.755294" lon="11.7748975"><ele>110.0</ele><time>2026-04-11T15:33:52.291Z</time></trkpt><trkpt lat="45.7550558" lon="11.7750082"><ele>107.0</ele><time>2026-04-11T15:33:53.289Z</time></trkpt><trkpt lat="45.7548143" lon="11.7751193"><ele>108.0</ele><time>2026-04-11T15:33:54.292Z</time></trkpt><trkpt lat="45.7545686" lon="11.7752296"><ele>109.0</ele><time>2026-04-11T15:33:55.3Z</time></trkpt><trkpt lat="45.75432" lon="11.7753382"><ele>109.0</ele><time>2026-04-11T15:33:56.292Z</time></trkpt><trkpt lat="45.7540701" lon="11.7754411"><ele>109.0</ele><time>2026-04-11T15:33:57.296Z</time></trkpt><trkpt lat="45.7538193" lon="11.7755388"><ele>109.0</ele><time>2026-04-11T15:33:58.293Z</time></trkpt><trkpt lat="45.7535672" lon="11.7756308"><ele>109.0</ele><time>2026-04-11T15:33:59.29Z</time></trkpt><trkpt lat="45.753315" lon="11.7757153"><ele>108.5</ele><time>2026-04-11T15:34:00.293Z</time></trkpt><trkpt lat="45.7530622" lon="11.7757926"><ele>108.0</ele><time>2026-04-11T15:34:01.287Z</time></trkpt><trkpt lat="45.752808" lon="11.7758619"><ele>108.0</ele><time>2026-04-11T15:34:02.294Z</time></trkpt><trkpt lat="45.7525531" lon="11.775923"><ele>108.0</ele><time>2026-04-11T15:34:03.29Z</time></trkpt><trkpt lat="45.7522971" lon="11.7759791"><ele>108.0</ele><time>2026-04-11T15:34:04.293Z</time></trkpt><trkpt lat="45.7520371" lon="11.7760299"><ele>108.0</ele><time>2026-04-11T15:34:05.293Z</time></trkpt><trkpt lat="45.7517751" lon="11.7760745"><ele>107.5</ele><time>2026-04-11T15:34:06.291Z</time></trkpt><trkpt lat="45.7515114" lon="11.7761107"><ele>107.0</ele><time>2026-04-11T15:34:07.298Z</time></trkpt><trkpt lat="45.7512464" lon="11.7761388"><ele>106.5</ele><time>2026-04-11T15:34:08.383Z</time></trkpt><trkpt lat="45.7509792" lon="11.7761566"><ele>106.0</ele><time>2026-04-11T15:34:09.36Z</time></trkpt><trkpt lat="45.7507102" lon="11.776168"><ele>106.0</ele><time>2026-04-11T15:34:10.318Z</time></trkpt><trkpt lat="45.7504397" lon="11.7761766"><ele>106.0</ele><time>2026-04-11T15:34:11.33Z</time></trkpt><trkpt lat="45.7501679" lon="11.7761826"><ele>106.0</ele><time>2026-04-11T15:34:12.293Z</time></trkpt><trkpt lat="45.7498924" lon="11.776183"><ele>106.0</ele><time>2026-04-11T15:34:13.309Z</time></trkpt><trkpt lat="45.7496065" lon="11.7761866"><ele>105.5</ele><time>2026-04-11T15:34:14.305Z</time></trkpt><trkpt lat="45.7493096" lon="11.7761916"><ele>105.0</ele><time>2026-04-11T15:34:15.377Z</time></trkpt><trkpt lat="45.749001" lon="11.7761967"><ele>105.0</ele><time>2026-04-11T15:34:16.299Z</time></trkpt><trkpt lat="45.7486805" lon="11.7762034"><ele>105.0</ele><time>2026-04-11T15:34:17.299Z</time></trkpt><trkpt lat="45.7483603" lon="11.7762111"><ele>105.0</ele><time>2026-04-11T15:34:18.304Z</time></trkpt><trkpt lat="45.7480459" lon="11.7762165"><ele>105.0</ele><time>2026-04-11T15:34:19.346Z</time></trkpt><trkpt lat="45.747736" lon="11.7762204"><ele>105.5</ele><time>2026-04-11T15:34:20.299Z</time></trkpt><trkpt lat="45.7474275" lon="11.7762246"><ele>106.0</ele><time>2026-04-11T15:34:21.334Z</time></trkpt><trkpt lat="45.7471196" lon="11.776229"><ele>104.5</ele><time>2026-04-11T15:34:22.293Z</time></trkpt><trkpt lat="45.7468132" lon="11.7762342"><ele>103.0</ele><time>2026-04-11T15:34:23.295Z</time></trkpt><trkpt lat="45.7465086" lon="11.7762397"><ele>102.0</ele><time>2026-04-11T15:34:24.455Z</time></trkpt><trkpt lat="45.7459064" lon="11.7762484"><ele>102.0</ele><time>2026-04-11T15:34:26.288Z</time></trkpt><trkpt lat="45.7456114" lon="11.7762505"><ele>102.0</ele><time>2026-04-11T15:34:27.289Z</time></trkpt><trkpt lat="45.7453254" lon="11.7762473"><ele>102.5</ele><time>2026-04-11T15:34:28.301Z</time></trkpt><trkpt lat="45.7450446" lon="11.7762344"><ele>103.0</ele><time>2026-04-11T15:34:29.292Z</time></trkpt><trkpt lat="45.7447715" lon="11.7762067"><ele>103.0</ele><time>2026-04-11T15:34:30.293Z</time></trkpt><trkpt lat="45.7445096" lon="11.7761715"><ele>103.0</ele><time>2026-04-11T15:34:31.29Z</time></trkpt><trkpt lat="45.7442615" lon="11.7761347"><ele>103.0</ele><time>2026-04-11T15:34:32.288Z</time></trkpt><trkpt lat="45.7440202" lon="11.7760951"><ele>103.0</ele><time>2026-04-11T15:34:33.29Z</time></trkpt><trkpt lat="45.7437841" lon="11.776052"><ele>102.5</ele><time>2026-04-11T15:34:34.289Z</time></trkpt><trkpt lat="45.7435489" lon="11.7760018"><ele>102.0</ele><time>2026-04-11T15:34:35.288Z</time></trkpt><trkpt lat="45.7433201" lon="11.7759462"><ele>102.0</ele><time>2026-04-11T15:34:36.291Z</time></trkpt><trkpt lat="45.7431011" lon="11.7758926"><ele>102.0</ele><time>2026-04-11T15:34:37.289Z</time></trkpt><trkpt lat="45.7428878" lon="11.7758344"><ele>102.0</ele><time>2026-04-11T15:34:38.286Z</time></trkpt><trkpt lat="45.7426719" lon="11.7757543"><ele>102.0</ele><time>2026-04-11T15:34:39.281Z</time></trkpt><trkpt lat="45.7424576" lon="11.775654"><ele>102.0</ele><time>2026-04-11T15:34:40.285Z</time></trkpt><trkpt lat="45.7422498" lon="11.7755409"><ele>102.0</ele><time>2026-04-11T15:34:41.288Z</time></trkpt><trkpt lat="45.7420516" lon="11.7754055"><ele>102.33333333333334</ele><time>2026-04-11T15:34:42.289Z</time></trkpt><trkpt lat="45.7418567" lon="11.7752502"><ele>102.66666666666667</ele><time>2026-04-11T15:34:43.294Z</time></trkpt><trkpt lat="45.7416609" lon="11.7750944"><ele>103.0</ele><time>2026-04-11T15:34:44.289Z</time></trkpt><trkpt lat="45.7414624" lon="11.7749558"><ele>103.5</ele><time>2026-04-11T15:34:45.308Z</time></trkpt><trkpt lat="45.74127" lon="11.7747845"><ele>104.0</ele><time>2026-04-11T15:34:46.314Z</time></trkpt><trkpt lat="45.7410759" lon="11.7746239"><ele>103.5</ele><time>2026-04-11T15:34:47.285Z</time></trkpt><trkpt lat="45.7408716" lon="11.7744514"><ele>103.0</ele><time>2026-04-11T15:34:48.287Z</time></trkpt><trkpt lat="45.7406808" lon="11.7742956"><ele>103.0</ele><time>2026-04-11T15:34:49.292Z</time></trkpt><trkpt lat="45.7404977" lon="11.7741389"><ele>103.0</ele><time>2026-04-11T15:34:50.28Z</time></trkpt><trkpt lat="45.7403133" lon="11.7739709"><ele>103.0</ele><time>2026-04-11T15:34:51.276Z</time></trkpt><trkpt lat="45.7399685" lon="11.7736476"><ele>103.33333333333334</ele><time>2026-04-11T15:34:53.284Z</time></trkpt><trkpt lat="45.7398273" lon="11.7734581"><ele>103.66666666666666</ele><time>2026-04-11T15:34:54.287Z</time></trkpt><trkpt lat="45.7396752" lon="11.7732094"><ele>104.0</ele><time>2026-04-11T15:34:55.287Z</time></trkpt><trkpt lat="45.7395556" lon="11.772948"><ele>103.0</ele><time>2026-04-11T15:34:56.283Z</time></trkpt><trkpt lat="45.7394511" lon="11.7726644"><ele>102.0</ele><time>2026-04-11T15:34:57.282Z</time></trkpt><trkpt lat="45.7393514" lon="11.7723676"><ele>101.66666666666666</ele><time>2026-04-11T15:34:58.285Z</time></trkpt><trkpt lat="45.7392975" lon="11.7720652"><ele>101.33333333333333</ele><time>2026-04-11T15:34:59.294Z</time></trkpt><trkpt lat="45.7392457" lon="11.7717633"><ele>101.0</ele><time>2026-04-11T15:35:00.285Z</time></trkpt><trkpt lat="45.7392202" lon="11.7714554"><ele>101.0</ele><time>2026-04-11T15:35:01.326Z</time></trkpt><trkpt lat="45.7392089" lon="11.7711465"><ele>101.0</ele><time>2026-04-11T15:35:02.315Z</time></trkpt><trkpt lat="45.7392197" lon="11.7708553"><ele>101.0</ele><time>2026-04-11T15:35:03.29Z</time></trkpt><trkpt lat="45.7392164" lon="11.7705562"><ele>101.33333333333333</ele><time>2026-04-11T15:35:04.286Z</time></trkpt><trkpt lat="45.7391831" lon="11.770267"><ele>101.66666666666666</ele><time>2026-04-11T15:35:05.29Z</time></trkpt><trkpt lat="45.7391427" lon="11.7699705"><ele>102.0</ele><time>2026-04-11T15:35:06.288Z</time></trkpt><trkpt lat="45.7390919" lon="11.7696892"><ele>102.0</ele><time>2026-04-11T15:35:07.285Z</time></trkpt><trkpt lat="45.7390346" lon="11.7694161"><ele>102.0</ele><time>2026-04-11T15:35:08.29Z</time></trkpt><trkpt lat="45.7389693" lon="11.769141"><ele>102.0</ele><time>2026-04-11T15:35:09.286Z</time></trkpt><trkpt lat="45.738881" lon="11.7688716"><ele>102.0</ele><time>2026-04-11T15:35:10.29Z</time></trkpt><trkpt lat="45.7387797" lon="11.7686046"><ele>102.0</ele><time>2026-04-11T15:35:11.282Z</time></trkpt><trkpt lat="45.7386763" lon="11.7683398"><ele>102.0</ele><time>2026-04-11T15:35:12.297Z</time></trkpt><trkpt lat="45.7385854" lon="11.7680596"><ele>102.33333333333334</ele><time>2026-04-11T15:35:13.283Z</time></trkpt><trkpt lat="45.7385161" lon="11.7677694"><ele>102.66666666666667</ele><time>2026-04-11T15:35:14.289Z</time></trkpt><trkpt lat="45.7384636" lon="11.7674736"><ele>103.0</ele><time>2026-04-11T15:35:15.288Z</time></trkpt><trkpt lat="45.7384158" lon="11.7671764"><ele>103.0</ele><time>2026-04-11T15:35:16.288Z</time></trkpt><trkpt lat="45.7383678" lon="11.7668834"><ele>103.0</ele><time>2026-04-11T15:35:17.28Z</time></trkpt><trkpt lat="45.7383184" lon="11.7665931"><ele>103.0</ele><time>2026-04-11T15:35:18.286Z</time></trkpt><trkpt lat="45.7382676" lon="11.7663029"><ele>102.66666666666667</ele><time>2026-04-11T15:35:19.289Z</time></trkpt><trkpt lat="45.7382174" lon="11.7660083"><ele>102.33333333333334</ele><time>2026-04-11T15:35:20.294Z</time></trkpt><trkpt lat="45.7381662" lon="11.765717"><ele>102.0</ele><time>2026-04-11T15:35:21.286Z</time></trkpt><trkpt lat="45.7381152" lon="11.7654252"><ele>102.0</ele><time>2026-04-11T15:35:22.282Z</time></trkpt><trkpt lat="45.7380623" lon="11.7651331"><ele>102.0</ele><time>2026-04-11T15:35:23.289Z</time></trkpt><trkpt lat="45.7380131" lon="11.7648478"><ele>102.0</ele><time>2026-04-11T15:35:24.288Z</time></trkpt><trkpt lat="45.737968" lon="11.7645811"><ele>102.0</ele><time>2026-04-11T15:35:25.291Z</time></trkpt><trkpt lat="45.7379234" lon="11.7643303"><ele>102.0</ele><time>2026-04-11T15:35:26.315Z</time></trkpt><trkpt lat="45.7378832" lon="11.7640981"><ele>102.0</ele><time>2026-04-11T15:35:27.288Z</time></trkpt><trkpt lat="45.7378417" lon="11.7638826"><ele>102.0</ele><time>2026-04-11T15:35:28.286Z</time></trkpt><trkpt lat="45.7378047" lon="11.7636818"><ele>102.0</ele><time>2026-04-11T15:35:29.29Z</time></trkpt><trkpt lat="45.7377722" lon="11.7634986"><ele>102.0</ele><time>2026-04-11T15:35:30.287Z</time></trkpt><trkpt lat="45.7377448" lon="11.7633344"><ele>102.0</ele><time>2026-04-11T15:35:31.285Z</time></trkpt><trkpt lat="45.7377221" lon="11.7631849"><ele>101.83333333333333</ele><time>2026-04-11T15:35:32.29Z</time></trkpt><trkpt lat="45.7376997" lon="11.7630529"><ele>101.66666666666666</ele><time>2026-04-11T15:35:33.285Z</time></trkpt><trkpt lat="45.7376778" lon="11.7629337"><ele>101.5</ele><time>2026-04-11T15:35:34.292Z</time></trkpt><trkpt lat="45.7376582" lon="11.7628251"><ele>101.33333333333333</ele><time>2026-04-11T15:35:35.297Z</time></trkpt><trkpt lat="45.7376392" lon="11.7627277"><ele>101.16666666666666</ele><time>2026-04-11T15:35:36.286Z</time></trkpt><trkpt lat="45.7376222" lon="11.7626353"><ele>101.0</ele><time>2026-04-11T15:35:37.291Z</time></trkpt><trkpt lat="45.7375865" lon="11.7624668"><ele>101.0</ele><time>2026-04-11T15:35:39.284Z</time></trkpt><trkpt lat="45.7375582" lon="11.7623263"><ele>101.0</ele><time>2026-04-11T15:35:41.285Z</time></trkpt><trkpt lat="45.737534" lon="11.7622185"><ele>101.0</ele><time>2026-04-11T15:35:43.285Z</time></trkpt><trkpt lat="45.7375169" lon="11.7621252"><ele>101.0</ele><time>2026-04-11T15:35:45.283Z</time></trkpt><trkpt lat="45.7374813" lon="11.7620354"><ele>101.0</ele><time>2026-04-11T15:35:47.288Z</time></trkpt><trkpt lat="45.7374735" lon="11.761841"><ele>100.99999999999999</ele><time>2026-04-11T15:35:49.285Z</time></trkpt><trkpt lat="45.7374637" lon="11.7617457"><ele>101.0</ele><time>2026-04-11T15:35:50.291Z</time></trkpt><trkpt lat="45.7374536" lon="11.7616396"><ele>101.0</ele><time>2026-04-11T15:35:51.296Z</time></trkpt><trkpt lat="45.7374583" lon="11.7615361"><ele>101.0</ele><time>2026-04-11T15:35:52.296Z</time></trkpt><trkpt lat="45.7374637" lon="11.7614261"><ele>100.99999999999999</ele><time>2026-04-11T15:35:53.286Z</time></trkpt><trkpt lat="45.7374733" lon="11.7613079"><ele>101.0</ele><time>2026-04-11T15:35:54.296Z</time></trkpt><trkpt lat="45.737481" lon="11.7611961"><ele>100.99999999999999</ele><time>2026-04-11T15:35:55.293Z</time></trkpt><trkpt lat="45.7374879" lon="11.7610782"><ele>101.0</ele><time>2026-04-11T15:35:56.297Z</time></trkpt><trkpt lat="45.7374953" lon="11.7609652"><ele>101.0</ele><time>2026-04-11T15:35:57.296Z</time></trkpt><trkpt lat="45.7374986" lon="11.7608501"><ele>101.0</ele><time>2026-04-11T15:35:58.29Z</time></trkpt><trkpt lat="45.7375026" lon="11.7607354"><ele>100.99999999999999</ele><time>2026-04-11T15:35:59.29Z</time></trkpt><trkpt lat="45.7375039" lon="11.7606155"><ele>101.0</ele><time>2026-04-11T15:36:00.29Z</time></trkpt><trkpt lat="45.737508" lon="11.7605101"><ele>101.33333333333333</ele><time>2026-04-11T15:36:01.293Z</time></trkpt><trkpt lat="45.7375041" lon="11.7604035"><ele>101.66666666666666</ele><time>2026-04-11T15:36:02.292Z</time></trkpt><trkpt lat="45.7374954" lon="11.7602947"><ele>102.0</ele><time>2026-04-11T15:36:03.295Z</time></trkpt><trkpt lat="45.7374841" lon="11.7601682"><ele>102.33333333333334</ele><time>2026-04-11T15:36:04.288Z</time></trkpt><trkpt lat="45.7374653" lon="11.7600378"><ele>102.66666666666667</ele><time>2026-04-11T15:36:05.294Z</time></trkpt><trkpt lat="45.7374422" lon="11.7599102"><ele>103.0</ele><time>2026-04-11T15:36:06.292Z</time></trkpt><trkpt lat="45.7374217" lon="11.7597915"><ele>103.00000000000001</ele><time>2026-04-11T15:36:07.291Z</time></trkpt><trkpt lat="45.7374043" lon="11.7596975"><ele>103.0</ele><time>2026-04-11T15:36:08.295Z</time></trkpt><trkpt lat="45.7373817" lon="11.7595714"><ele>103.0</ele><time>2026-04-11T15:36:10.289Z</time></trkpt><trkpt lat="45.7373778" lon="11.7594635"><ele>103.0</ele><time>2026-04-11T15:36:12.309Z</time></trkpt><trkpt lat="45.7374165" lon="11.7593088"><ele>103.00000000000001</ele><time>2026-04-11T15:36:14.301Z</time></trkpt><trkpt lat="45.7374531" lon="11.7592226"><ele>103.0</ele><time>2026-04-11T15:36:15.292Z</time></trkpt><trkpt lat="45.7374816" lon="11.7591339"><ele>103.00000000000001</ele><time>2026-04-11T15:36:16.299Z</time></trkpt><trkpt lat="45.7374931" lon="11.7590365"><ele>103.0</ele><time>2026-04-11T15:36:17.301Z</time></trkpt><trkpt lat="45.7374843" lon="11.7589339"><ele>103.0</ele><time>2026-04-11T15:36:18.289Z</time></trkpt><trkpt lat="45.7374531" lon="11.7588371"><ele>103.0</ele><time>2026-04-11T15:36:19.297Z</time></trkpt><trkpt lat="45.7374035" lon="11.7587577"><ele>103.00000000000001</ele><time>2026-04-11T15:36:20.293Z</time></trkpt><trkpt lat="45.7373384" lon="11.7586866"><ele>103.0</ele><time>2026-04-11T15:36:21.291Z</time></trkpt><trkpt lat="45.7372721" lon="11.7586184"><ele>102.80000000000001</ele><time>2026-04-11T15:36:22.299Z</time></trkpt><trkpt lat="45.7372127" lon="11.7585223"><ele>102.6</ele><time>2026-04-11T15:36:23.295Z</time></trkpt><trkpt lat="45.7371647" lon="11.7583901"><ele>102.4</ele><time>2026-04-11T15:36:24.296Z</time></trkpt><trkpt lat="45.7371225" lon="11.7582356"><ele>102.19999999999999</ele><time>2026-04-11T15:36:25.301Z</time></trkpt><trkpt lat="45.7370812" lon="11.7580859"><ele>102.0</ele><time>2026-04-11T15:36:26.298Z</time></trkpt><trkpt lat="45.7370354" lon="11.7578873"><ele>102.25</ele><time>2026-04-11T15:36:27.294Z</time></trkpt><trkpt lat="45.7369975" lon="11.7576866"><ele>102.5</ele><time>2026-04-11T15:36:28.293Z</time></trkpt><trkpt lat="45.7369712" lon="11.7574947"><ele>102.75</ele><time>2026-04-11T15:36:29.3Z</time></trkpt><trkpt lat="45.7369464" lon="11.7572993"><ele>103.0</ele><time>2026-04-11T15:36:30.297Z</time></trkpt><trkpt lat="45.736921" lon="11.7570939"><ele>103.0</ele><time>2026-04-11T15:36:31.305Z</time></trkpt><trkpt lat="45.7368951" lon="11.7568888"><ele>103.0</ele><time>2026-04-11T15:36:32.297Z</time></trkpt><trkpt lat="45.7368683" lon="11.7566751"><ele>103.0</ele><time>2026-04-11T15:36:33.293Z</time></trkpt><trkpt lat="45.7368391" lon="11.7564515"><ele>102.33333333333334</ele><time>2026-04-11T15:36:34.296Z</time></trkpt><trkpt lat="45.7368096" lon="11.7562235"><ele>101.66666666666666</ele><time>2026-04-11T15:36:35.367Z</time></trkpt><trkpt lat="45.7367803" lon="11.7559941"><ele>101.0</ele><time>2026-04-11T15:36:36.294Z</time></trkpt><trkpt lat="45.7367496" lon="11.7557575"><ele>101.0</ele><time>2026-04-11T15:36:37.29Z</time></trkpt><trkpt lat="45.7367184" lon="11.7555129"><ele>101.0</ele><time>2026-04-11T15:36:38.298Z</time></trkpt><trkpt lat="45.7366857" lon="11.755261"><ele>101.0</ele><time>2026-04-11T15:36:39.3Z</time></trkpt><trkpt lat="45.7366535" lon="11.7550023"><ele>101.0</ele><time>2026-04-11T15:36:40.301Z</time></trkpt><trkpt lat="45.7366181" lon="11.754733"><ele>101.0</ele><time>2026-04-11T15:36:41.297Z</time></trkpt><trkpt lat="45.7365828" lon="11.7544557"><ele>101.0</ele><time>2026-04-11T15:36:42.295Z</time></trkpt><trkpt lat="45.7365479" lon="11.7541739"><ele>101.0</ele><time>2026-04-11T15:36:43.291Z</time></trkpt><trkpt lat="45.7365139" lon="11.7538864"><ele>101.0</ele><time>2026-04-11T15:36:44.29Z</time></trkpt><trkpt lat="45.7364776" lon="11.7535975"><ele>101.0</ele><time>2026-04-11T15:36:45.296Z</time></trkpt><trkpt lat="45.7364412" lon="11.7533045"><ele>100.66666666666666</ele><time>2026-04-11T15:36:46.293Z</time></trkpt><trkpt lat="45.736407" lon="11.7530067"><ele>100.33333333333334</ele><time>2026-04-11T15:36:47.296Z</time></trkpt><trkpt lat="45.7363771" lon="11.7527025"><ele>100.0</ele><time>2026-04-11T15:36:48.326Z</time></trkpt><trkpt lat="45.736351" lon="11.7523914"><ele>101.0</ele><time>2026-04-11T15:36:49.288Z</time></trkpt><trkpt lat="45.7363268" lon="11.7520808"><ele>102.0</ele><time>2026-04-11T15:36:50.288Z</time></trkpt><trkpt lat="45.7363158" lon="11.7517645"><ele>103.0</ele><time>2026-04-11T15:36:51.299Z</time></trkpt><trkpt lat="45.7362951" lon="11.7514356"><ele>103.0</ele><time>2026-04-11T15:36:52.311Z</time></trkpt><trkpt lat="45.7362833" lon="11.7511053"><ele>103.0</ele><time>2026-04-11T15:36:53.293Z</time></trkpt><trkpt lat="45.7362731" lon="11.7507754"><ele>103.0</ele><time>2026-04-11T15:36:54.296Z</time></trkpt><trkpt lat="45.7362624" lon="11.7504444"><ele>103.0</ele><time>2026-04-11T15:36:55.302Z</time></trkpt><trkpt lat="45.7362583" lon="11.7501132"><ele>102.5</ele><time>2026-04-11T15:36:56.291Z</time></trkpt><trkpt lat="45.7362632" lon="11.749787"><ele>102.0</ele><time>2026-04-11T15:36:57.288Z</time></trkpt><trkpt lat="45.7362673" lon="11.7494601"><ele>102.0</ele><time>2026-04-11T15:36:58.289Z</time></trkpt><trkpt lat="45.7362758" lon="11.7491378"><ele>102.0</ele><time>2026-04-11T15:36:59.29Z</time></trkpt><trkpt lat="45.7362876" lon="11.7488256"><ele>102.0</ele><time>2026-04-11T15:37:00.377Z</time></trkpt><trkpt lat="45.7362995" lon="11.7485191"><ele>102.33333333333334</ele><time>2026-04-11T15:37:01.287Z</time></trkpt><trkpt lat="45.7363107" lon="11.7482198"><ele>102.66666666666667</ele><time>2026-04-11T15:37:02.294Z</time></trkpt><trkpt lat="45.7363224" lon="11.7479301"><ele>103.0</ele><time>2026-04-11T15:37:03.295Z</time></trkpt><trkpt lat="45.7363351" lon="11.7476479"><ele>102.33333333333334</ele><time>2026-04-11T15:37:04.29Z</time></trkpt><trkpt lat="45.7363481" lon="11.747369"><ele>101.66666666666666</ele><time>2026-04-11T15:37:05.289Z</time></trkpt><trkpt lat="45.7363606" lon="11.7470939"><ele>101.0</ele><time>2026-04-11T15:37:06.295Z</time></trkpt><trkpt lat="45.7363735" lon="11.7468254"><ele>100.33333333333333</ele><time>2026-04-11T15:37:07.387Z</time></trkpt><trkpt lat="45.7363852" lon="11.7465741"><ele>99.66666666666666</ele><time>2026-04-11T15:37:08.301Z</time></trkpt><trkpt lat="45.7363967" lon="11.7463345"><ele>99.0</ele><time>2026-04-11T15:37:09.289Z</time></trkpt><trkpt lat="45.7364067" lon="11.7461063"><ele>99.75</ele><time>2026-04-11T15:37:10.292Z</time></trkpt><trkpt lat="45.7364146" lon="11.7458831"><ele>100.5</ele><time>2026-04-11T15:37:11.309Z</time></trkpt><trkpt lat="45.7364227" lon="11.745668"><ele>101.25</ele><time>2026-04-11T15:37:12.295Z</time></trkpt><trkpt lat="45.7364319" lon="11.7454642"><ele>102.0</ele><time>2026-04-11T15:37:13.29Z</time></trkpt><trkpt lat="45.7364406" lon="11.7452606"><ele>101.75</ele><time>2026-04-11T15:37:14.297Z</time></trkpt><trkpt lat="45.7364493" lon="11.7450605"><ele>101.5</ele><time>2026-04-11T15:37:15.296Z</time></trkpt><trkpt lat="45.7364576" lon="11.7448716"><ele>101.25</ele><time>2026-04-11T15:37:16.296Z</time></trkpt><trkpt lat="45.7364663" lon="11.7446886"><ele>101.0</ele><time>2026-04-11T15:37:17.295Z</time></trkpt><trkpt lat="45.736474" lon="11.7444964"><ele>101.25</ele><time>2026-04-11T15:37:18.289Z</time></trkpt><trkpt lat="45.736482" lon="11.7442934"><ele>101.5</ele><time>2026-04-11T15:37:19.311Z</time></trkpt><trkpt lat="45.7364907" lon="11.7440821"><ele>101.75</ele><time>2026-04-11T15:37:20.295Z</time></trkpt><trkpt lat="45.7364995" lon="11.743866"><ele>102.0</ele><time>2026-04-11T15:37:21.293Z</time></trkpt><trkpt lat="45.7365077" lon="11.7436453"><ele>102.33333333333334</ele><time>2026-04-11T15:37:22.3Z</time></trkpt><trkpt lat="45.7365163" lon="11.7434193"><ele>102.66666666666667</ele><time>2026-04-11T15:37:23.301Z</time></trkpt><trkpt lat="45.7365258" lon="11.7431951"><ele>103.0</ele><time>2026-04-11T15:37:24.291Z</time></trkpt><trkpt lat="45.736535" lon="11.7429868"><ele>103.0</ele><time>2026-04-11T15:37:25.298Z</time></trkpt><trkpt lat="45.7365427" lon="11.7427941"><ele>103.0</ele><time>2026-04-11T15:37:26.297Z</time></trkpt><trkpt lat="45.7365468" lon="11.7426128"><ele>103.0</ele><time>2026-04-11T15:37:27.296Z</time></trkpt><trkpt lat="45.736539" lon="11.7424366"><ele>103.0</ele><time>2026-04-11T15:37:28.306Z</time></trkpt><trkpt lat="45.7365153" lon="11.7422688"><ele>103.0</ele><time>2026-04-11T15:37:29.289Z</time></trkpt><trkpt lat="45.7364837" lon="11.7421234"><ele>103.0</ele><time>2026-04-11T15:37:30.289Z</time></trkpt><trkpt lat="45.7364587" lon="11.7420178"><ele>103.0</ele><time>2026-04-11T15:37:31.294Z</time></trkpt><trkpt lat="45.7364292" lon="11.7419008"><ele>103.0</ele><time>2026-04-11T15:37:33.289Z</time></trkpt><trkpt lat="45.7364231" lon="11.7417991"><ele>103.0</ele><time>2026-04-11T15:37:35.294Z</time></trkpt><trkpt lat="45.7364249" lon="11.7416084"><ele>103.0</ele><time>2026-04-11T15:37:37.295Z</time></trkpt><trkpt lat="45.7364163" lon="11.7414994"><ele>103.0</ele><time>2026-04-11T15:37:38.286Z</time></trkpt><trkpt lat="45.7363497" lon="11.7413981"><ele>103.0</ele><time>2026-04-11T15:37:39.29Z</time></trkpt><trkpt lat="45.736262" lon="11.741313"><ele>103.0</ele><time>2026-04-11T15:37:40.292Z</time></trkpt><trkpt lat="45.7361824" lon="11.7412311"><ele>103.0</ele><time>2026-04-11T15:37:41.3Z</time></trkpt><trkpt lat="45.7361221" lon="11.74112"><ele>102.5</ele><time>2026-04-11T15:37:42.298Z</time></trkpt><trkpt lat="45.7360851" lon="11.7409724"><ele>102.0</ele><time>2026-04-11T15:37:43.293Z</time></trkpt><trkpt lat="45.7360493" lon="11.7408199"><ele>101.5</ele><time>2026-04-11T15:37:44.299Z</time></trkpt><trkpt lat="45.7360379" lon="11.7406338"><ele>101.0</ele><time>2026-04-11T15:37:45.304Z</time></trkpt><trkpt lat="45.736046" lon="11.740426"><ele>100.33333333333333</ele><time>2026-04-11T15:37:46.291Z</time></trkpt><trkpt lat="45.7360629" lon="11.7402058"><ele>99.66666666666666</ele><time>2026-04-11T15:37:47.293Z</time></trkpt><trkpt lat="45.7360814" lon="11.7399816"><ele>99.0</ele><time>2026-04-11T15:37:48.296Z</time></trkpt><trkpt lat="45.736115" lon="11.7397362"><ele>99.0</ele><time>2026-04-11T15:37:49.293Z</time></trkpt><trkpt lat="45.7361428" lon="11.7394884"><ele>99.0</ele><time>2026-04-11T15:37:50.292Z</time></trkpt><trkpt lat="45.7361758" lon="11.7392404"><ele>99.0</ele><time>2026-04-11T15:37:51.295Z</time></trkpt><trkpt lat="45.7362178" lon="11.738988"><ele>99.33333333333334</ele><time>2026-04-11T15:37:52.291Z</time></trkpt><trkpt lat="45.7362626" lon="11.738727"><ele>99.66666666666667</ele><time>2026-04-11T15:37:53.3Z</time></trkpt><trkpt lat="45.7363143" lon="11.7384632"><ele>100.0</ele><time>2026-04-11T15:37:54.349Z</time></trkpt><trkpt lat="45.7363765" lon="11.7381933"><ele>100.33333333333334</ele><time>2026-04-11T15:37:55.297Z</time></trkpt><trkpt lat="45.7364408" lon="11.7379179"><ele>100.66666666666666</ele><time>2026-04-11T15:37:56.299Z</time></trkpt><trkpt lat="45.736511" lon="11.7376395"><ele>101.0</ele><time>2026-04-11T15:37:57.295Z</time></trkpt><trkpt lat="45.7365833" lon="11.7373594"><ele>101.0</ele><time>2026-04-11T15:37:58.295Z</time></trkpt><trkpt lat="45.7366537" lon="11.7370752"><ele>101.0</ele><time>2026-04-11T15:37:59.289Z</time></trkpt><trkpt lat="45.7367226" lon="11.7367917"><ele>101.0</ele><time>2026-04-11T15:38:00.29Z</time></trkpt><trkpt lat="45.7367882" lon="11.7365206"><ele>101.0</ele><time>2026-04-11T15:38:01.297Z</time></trkpt><trkpt lat="45.7368547" lon="11.7362495"><ele>101.0</ele><time>2026-04-11T15:38:02.293Z</time></trkpt><trkpt lat="45.73692" lon="11.7359779"><ele>101.0</ele><time>2026-04-11T15:38:03.296Z</time></trkpt><trkpt lat="45.7369849" lon="11.7357034"><ele>101.0</ele><time>2026-04-11T15:38:04.292Z</time></trkpt><trkpt lat="45.7370494" lon="11.7354278"><ele>101.0</ele><time>2026-04-11T15:38:05.297Z</time></trkpt><trkpt lat="45.7371138" lon="11.7351531"><ele>101.0</ele><time>2026-04-11T15:38:06.298Z</time></trkpt><trkpt lat="45.7371778" lon="11.7348801"><ele>100.66666666666666</ele><time>2026-04-11T15:38:07.336Z</time></trkpt><trkpt lat="45.7372411" lon="11.7346086"><ele>100.33333333333334</ele><time>2026-04-11T15:38:08.3Z</time></trkpt><trkpt lat="45.7373052" lon="11.7343383"><ele>100.0</ele><time>2026-04-11T15:38:09.294Z</time></trkpt><trkpt lat="45.7373699" lon="11.7340682"><ele>100.0</ele><time>2026-04-11T15:38:10.299Z</time></trkpt><trkpt lat="45.7374318" lon="11.7338007"><ele>100.0</ele><time>2026-04-11T15:38:11.298Z</time></trkpt><trkpt lat="45.7374898" lon="11.7335445"><ele>100.0</ele><time>2026-04-11T15:38:12.292Z</time></trkpt><trkpt lat="45.7375441" lon="11.7332982"><ele>100.0</ele><time>2026-04-11T15:38:13.295Z</time></trkpt><trkpt lat="45.7375972" lon="11.7330651"><ele>100.0</ele><time>2026-04-11T15:38:14.296Z</time></trkpt><trkpt lat="45.7376482" lon="11.732845"><ele>100.0</ele><time>2026-04-11T15:38:15.293Z</time></trkpt><trkpt lat="45.7376947" lon="11.7326374"><ele>99.75</ele><time>2026-04-11T15:38:16.293Z</time></trkpt><trkpt lat="45.7377391" lon="11.7324396"><ele>99.5</ele><time>2026-04-11T15:38:17.296Z</time></trkpt><trkpt lat="45.7377795" lon="11.7322591"><ele>99.25</ele><time>2026-04-11T15:38:18.302Z</time></trkpt><trkpt lat="45.7378159" lon="11.7320957"><ele>99.0</ele><time>2026-04-11T15:38:19.298Z</time></trkpt><trkpt lat="45.7378469" lon="11.7319605"><ele>99.16666666666667</ele><time>2026-04-11T15:38:20.334Z</time></trkpt><trkpt lat="45.7378784" lon="11.7318549"><ele>99.33333333333334</ele><time>2026-04-11T15:38:21.3Z</time></trkpt><trkpt lat="45.7379186" lon="11.7317747"><ele>99.5</ele><time>2026-04-11T15:38:22.293Z</time></trkpt><trkpt lat="45.738046" lon="11.731695"><ele>99.66666666666667</ele><time>2026-04-11T15:38:24.299Z</time></trkpt><trkpt lat="45.7381245" lon="11.7316986"><ele>99.83333333333334</ele><time>2026-04-11T15:38:25.306Z</time></trkpt><trkpt lat="45.7382045" lon="11.7317078"><ele>100.0</ele><time>2026-04-11T15:38:26.298Z</time></trkpt><trkpt lat="45.7382844" lon="11.7317004"><ele>100.00000000000001</ele><time>2026-04-11T15:38:27.301Z</time></trkpt><trkpt lat="45.7383574" lon="11.7316784"><ele>100.0</ele><time>2026-04-11T15:38:28.302Z</time></trkpt><trkpt lat="45.7384266" lon="11.7316457"><ele>100.0</ele><time>2026-04-11T15:38:29.295Z</time></trkpt><trkpt lat="45.7384877" lon="11.7315906"><ele>100.0</ele><time>2026-04-11T15:38:30.288Z</time></trkpt><trkpt lat="45.7385444" lon="11.7314319"><ele>100.00000000000001</ele><time>2026-04-11T15:38:32.296Z</time></trkpt><trkpt lat="45.7385401" lon="11.7313395"><ele>100.0</ele><time>2026-04-11T15:38:33.297Z</time></trkpt><trkpt lat="45.7385115" lon="11.7312544"><ele>100.0</ele><time>2026-04-11T15:38:34.292Z</time></trkpt><trkpt lat="45.7384594" lon="11.7311849"><ele>100.0</ele><time>2026-04-11T15:38:35.295Z</time></trkpt><trkpt lat="45.7383905" lon="11.7311395"><ele>100.0</ele><time>2026-04-11T15:38:36.306Z</time></trkpt><trkpt lat="45.7383048" lon="11.7311142"><ele>100.0</ele><time>2026-04-11T15:38:37.292Z</time></trkpt><trkpt lat="45.7381965" lon="11.7311036"><ele>100.0</ele><time>2026-04-11T15:38:38.297Z</time></trkpt><trkpt lat="45.7380708" lon="11.7311232"><ele>100.0</ele><time>2026-04-11T15:38:39.302Z</time></trkpt><trkpt lat="45.7379376" lon="11.7311579"><ele>100.0</ele><time>2026-04-11T15:38:40.344Z</time></trkpt><trkpt lat="45.7377902" lon="11.7312139"><ele>100.0</ele><time>2026-04-11T15:38:41.301Z</time></trkpt><trkpt lat="45.7376358" lon="11.7312216"><ele>100.0</ele><time>2026-04-11T15:38:42.293Z</time></trkpt><trkpt lat="45.7374771" lon="11.7312064"><ele>100.0</ele><time>2026-04-11T15:38:43.3Z</time></trkpt><trkpt lat="45.7373127" lon="11.7312165"><ele>100.0</ele><time>2026-04-11T15:38:44.291Z</time></trkpt><trkpt lat="45.7371467" lon="11.7312586"><ele>100.0</ele><time>2026-04-11T15:38:45.293Z</time></trkpt><trkpt lat="45.7369956" lon="11.7313412"><ele>99.33333333333334</ele><time>2026-04-11T15:38:46.304Z</time></trkpt><trkpt lat="45.7368565" lon="11.7314481"><ele>98.66666666666666</ele><time>2026-04-11T15:38:47.296Z</time></trkpt><trkpt lat="45.7367292" lon="11.7315664"><ele>98.0</ele><time>2026-04-11T15:38:48.299Z</time></trkpt><trkpt lat="45.736594" lon="11.7316631"><ele>98.0</ele><time>2026-04-11T15:38:49.296Z</time></trkpt><trkpt lat="45.7364393" lon="11.7317336"><ele>98.0</ele><time>2026-04-11T15:38:50.296Z</time></trkpt><trkpt lat="45.7362699" lon="11.7317913"><ele>98.0</ele><time>2026-04-11T15:38:51.306Z</time></trkpt><trkpt lat="45.7360952" lon="11.7318593"><ele>98.66666666666666</ele><time>2026-04-11T15:38:52.292Z</time></trkpt><trkpt lat="45.7359205" lon="11.7319406"><ele>99.33333333333334</ele><time>2026-04-11T15:38:53.298Z</time></trkpt><trkpt lat="45.7357424" lon="11.7320347"><ele>100.0</ele><time>2026-04-11T15:38:54.297Z</time></trkpt><trkpt lat="45.7355728" lon="11.7321252"><ele>100.0</ele><time>2026-04-11T15:38:55.292Z</time></trkpt><trkpt lat="45.735411" lon="11.7322238"><ele>100.0</ele><time>2026-04-11T15:38:56.288Z</time></trkpt><trkpt lat="45.7352537" lon="11.7323393"><ele>100.0</ele><time>2026-04-11T15:38:57.295Z</time></trkpt><trkpt lat="45.7351001" lon="11.7324629"><ele>100.0</ele><time>2026-04-11T15:38:58.293Z</time></trkpt><trkpt lat="45.734947" lon="11.732589"><ele>100.0</ele><time>2026-04-11T15:38:59.293Z</time></trkpt><trkpt lat="45.7347913" lon="11.7327039"><ele>100.0</ele><time>2026-04-11T15:39:00.294Z</time></trkpt><trkpt lat="45.7346292" lon="11.7328058"><ele>100.33333333333334</ele><time>2026-04-11T15:39:01.296Z</time></trkpt><trkpt lat="45.7344607" lon="11.7328914"><ele>100.66666666666666</ele><time>2026-04-11T15:39:02.301Z</time></trkpt><trkpt lat="45.7342882" lon="11.7329645"><ele>101.0</ele><time>2026-04-11T15:39:03.3Z</time></trkpt><trkpt lat="45.7341147" lon="11.7330257"><ele>101.33333333333333</ele><time>2026-04-11T15:39:04.298Z</time></trkpt><trkpt lat="45.7339501" lon="11.7330765"><ele>101.66666666666666</ele><time>2026-04-11T15:39:05.295Z</time></trkpt><trkpt lat="45.7337976" lon="11.733117"><ele>102.0</ele><time>2026-04-11T15:39:06.294Z</time></trkpt><trkpt lat="45.7336549" lon="11.7331503"><ele>101.0</ele><time>2026-04-11T15:39:07.292Z</time></trkpt><trkpt lat="45.7335226" lon="11.7331783"><ele>100.0</ele><time>2026-04-11T15:39:08.297Z</time></trkpt><trkpt lat="45.7333993" lon="11.7332045"><ele>99.0</ele><time>2026-04-11T15:39:09.298Z</time></trkpt><trkpt lat="45.7332849" lon="11.7332259"><ele>98.0</ele><time>2026-04-11T15:39:10.295Z</time></trkpt><trkpt lat="45.733176" lon="11.7332384"><ele>98.0</ele><time>2026-04-11T15:39:11.302Z</time></trkpt><trkpt lat="45.7330691" lon="11.7332257"><ele>98.0</ele><time>2026-04-11T15:39:12.299Z</time></trkpt><trkpt lat="45.7329651" lon="11.7331961"><ele>98.0</ele><time>2026-04-11T15:39:13.298Z</time></trkpt><trkpt lat="45.7328633" lon="11.7331944"><ele>98.0</ele><time>2026-04-11T15:39:14.301Z</time></trkpt><trkpt lat="45.7327618" lon="11.7332308"><ele>98.0</ele><time>2026-04-11T15:39:15.304Z</time></trkpt><trkpt lat="45.7326579" lon="11.7332925"><ele>98.0</ele><time>2026-04-11T15:39:16.296Z</time></trkpt><trkpt lat="45.7325454" lon="11.7333515"><ele>98.0</ele><time>2026-04-11T15:39:17.307Z</time></trkpt><trkpt lat="45.7324204" lon="11.7333933"><ele>98.0</ele><time>2026-04-11T15:39:18.324Z</time></trkpt><trkpt lat="45.7322847" lon="11.7334246"><ele>98.0</ele><time>2026-04-11T15:39:19.291Z</time></trkpt><trkpt lat="45.7321449" lon="11.7334547"><ele>98.0</ele><time>2026-04-11T15:39:20.296Z</time></trkpt><trkpt lat="45.731992" lon="11.7334859"><ele>98.0</ele><time>2026-04-11T15:39:21.293Z</time></trkpt><trkpt lat="45.7318463" lon="11.7335143"><ele>98.0</ele><time>2026-04-11T15:39:22.306Z</time></trkpt><trkpt lat="45.7316915" lon="11.7335441"><ele>97.66666666666666</ele><time>2026-04-11T15:39:23.296Z</time></trkpt><trkpt lat="45.7315382" lon="11.7335583"><ele>97.33333333333334</ele><time>2026-04-11T15:39:24.295Z</time></trkpt><trkpt lat="45.7313841" lon="11.7335647"><ele>97.0</ele><time>2026-04-11T15:39:25.292Z</time></trkpt><trkpt lat="45.7312297" lon="11.7335617"><ele>97.0</ele><time>2026-04-11T15:39:26.296Z</time></trkpt><trkpt lat="45.7310732" lon="11.7335589"><ele>97.0</ele><time>2026-04-11T15:39:27.294Z</time></trkpt><trkpt lat="45.7309137" lon="11.7335598"><ele>97.0</ele><time>2026-04-11T15:39:28.302Z</time></trkpt><trkpt lat="45.730754" lon="11.7335556"><ele>97.0</ele><time>2026-04-11T15:39:29.299Z</time></trkpt><trkpt lat="45.7305945" lon="11.733552"><ele>97.0</ele><time>2026-04-11T15:39:30.351Z</time></trkpt><trkpt lat="45.7304337" lon="11.733547"><ele>97.0</ele><time>2026-04-11T15:39:31.288Z</time></trkpt><trkpt lat="45.7302758" lon="11.7335455"><ele>97.0</ele><time>2026-04-11T15:39:32.285Z</time></trkpt><trkpt lat="45.7301266" lon="11.7335487"><ele>97.0</ele><time>2026-04-11T15:39:33.296Z</time></trkpt><trkpt lat="45.7299903" lon="11.7335594"><ele>97.0</ele><time>2026-04-11T15:39:34.288Z</time></trkpt><trkpt lat="45.7298622" lon="11.733581"><ele>97.0</ele><time>2026-04-11T15:39:35.288Z</time></trkpt><trkpt lat="45.7297336" lon="11.7336179"><ele>97.0</ele><time>2026-04-11T15:39:36.289Z</time></trkpt><trkpt lat="45.7296041" lon="11.733667"><ele>97.0</ele><time>2026-04-11T15:39:37.291Z</time></trkpt><trkpt lat="45.7294736" lon="11.7337241"><ele>97.0</ele><time>2026-04-11T15:39:38.283Z</time></trkpt><trkpt lat="45.7293494" lon="11.733784"><ele>97.0</ele><time>2026-04-11T15:39:39.299Z</time></trkpt><trkpt lat="45.7292323" lon="11.7338402"><ele>96.75</ele><time>2026-04-11T15:39:40.296Z</time></trkpt><trkpt lat="45.7291136" lon="11.7338953"><ele>96.5</ele><time>2026-04-11T15:39:41.288Z</time></trkpt><trkpt lat="45.7289946" lon="11.7339488"><ele>96.25</ele><time>2026-04-11T15:39:42.289Z</time></trkpt><trkpt lat="45.7288738" lon="11.7340028"><ele>96.0</ele><time>2026-04-11T15:39:43.295Z</time></trkpt><trkpt lat="45.728752" lon="11.734058"><ele>96.0</ele><time>2026-04-11T15:39:44.3Z</time></trkpt><trkpt lat="45.728629" lon="11.7341184"><ele>96.0</ele><time>2026-04-11T15:39:45.3Z</time></trkpt><trkpt lat="45.7285034" lon="11.7341736"><ele>96.0</ele><time>2026-04-11T15:39:46.303Z</time></trkpt><trkpt lat="45.7283721" lon="11.7342155"><ele>96.0</ele><time>2026-04-11T15:39:47.301Z</time></trkpt><trkpt lat="45.7282335" lon="11.7342401"><ele>96.0</ele><time>2026-04-11T15:39:48.295Z</time></trkpt><trkpt lat="45.7280886" lon="11.7342535"><ele>96.0</ele><time>2026-04-11T15:39:49.297Z</time></trkpt><trkpt lat="45.7279385" lon="11.734263"><ele>96.0</ele><time>2026-04-11T15:39:50.296Z</time></trkpt><trkpt lat="45.7277823" lon="11.734272"><ele>96.25</ele><time>2026-04-11T15:39:51.313Z</time></trkpt><trkpt lat="45.7276278" lon="11.7342797"><ele>96.5</ele><time>2026-04-11T15:39:52.299Z</time></trkpt><trkpt lat="45.7274852" lon="11.7342826"><ele>96.75</ele><time>2026-04-11T15:39:53.301Z</time></trkpt><trkpt lat="45.7273543" lon="11.7342839"><ele>97.0</ele><time>2026-04-11T15:39:54.295Z</time></trkpt><trkpt lat="45.7272318" lon="11.7342814"><ele>97.0</ele><time>2026-04-11T15:39:55.303Z</time></trkpt><trkpt lat="45.727126" lon="11.7342624"><ele>97.0</ele><time>2026-04-11T15:39:56.307Z</time></trkpt><trkpt lat="45.7270381" lon="11.7341905"><ele>97.0</ele><time>2026-04-11T15:39:57.305Z</time></trkpt><trkpt lat="45.7269497" lon="11.7341095"><ele>97.0</ele><time>2026-04-11T15:39:58.288Z</time></trkpt><trkpt lat="45.7268863" lon="11.7339673"><ele>97.0</ele><time>2026-04-11T15:39:59.307Z</time></trkpt><trkpt lat="45.7268173" lon="11.7338382"><ele>97.0</ele><time>2026-04-11T15:40:00.29Z</time></trkpt><trkpt lat="45.7267245" lon="11.7337292"><ele>97.0</ele><time>2026-04-11T15:40:01.295Z</time></trkpt><trkpt lat="45.7266092" lon="11.7336634"><ele>97.0</ele><time>2026-04-11T15:40:02.295Z</time></trkpt><trkpt lat="45.7264821" lon="11.7336185"><ele>97.0</ele><time>2026-04-11T15:40:03.299Z</time></trkpt><trkpt lat="45.7263507" lon="11.7335785"><ele>97.0</ele><time>2026-04-11T15:40:04.298Z</time></trkpt><trkpt lat="45.726223" lon="11.7335403"><ele>97.0</ele><time>2026-04-11T15:40:05.296Z</time></trkpt><trkpt lat="45.7260963" lon="11.7335019"><ele>97.0</ele><time>2026-04-11T15:40:06.295Z</time></trkpt><trkpt lat="45.7259652" lon="11.7334706"><ele>97.0</ele><time>2026-04-11T15:40:07.292Z</time></trkpt><trkpt lat="45.7258291" lon="11.7334413"><ele>96.0</ele><time>2026-04-11T15:40:08.292Z</time></trkpt><trkpt lat="45.7256968" lon="11.7333994"><ele>95.0</ele><time>2026-04-11T15:40:09.294Z</time></trkpt><trkpt lat="45.7255601" lon="11.7333593"><ele>94.0</ele><time>2026-04-11T15:40:10.295Z</time></trkpt><trkpt lat="45.7254171" lon="11.7333178"><ele>93.0</ele><time>2026-04-11T15:40:11.297Z</time></trkpt><trkpt lat="45.72527" lon="11.7332738"><ele>94.0</ele><time>2026-04-11T15:40:12.299Z</time></trkpt><trkpt lat="45.7251176" lon="11.7332274"><ele>95.0</ele><time>2026-04-11T15:40:13.297Z</time></trkpt><trkpt lat="45.7249616" lon="11.7331804"><ele>96.0</ele><time>2026-04-11T15:40:14.295Z</time></trkpt><trkpt lat="45.7248071" lon="11.7331345"><ele>96.0</ele><time>2026-04-11T15:40:15.304Z</time></trkpt><trkpt lat="45.7246589" lon="11.7330925"><ele>96.0</ele><time>2026-04-11T15:40:16.295Z</time></trkpt><trkpt lat="45.7245134" lon="11.7330582"><ele>96.0</ele><time>2026-04-11T15:40:17.297Z</time></trkpt><trkpt lat="45.7243651" lon="11.733038"><ele>96.0</ele><time>2026-04-11T15:40:18.294Z</time></trkpt><trkpt lat="45.7242065" lon="11.7330392"><ele>95.33333333333333</ele><time>2026-04-11T15:40:19.29Z</time></trkpt><trkpt lat="45.7240356" lon="11.7330571"><ele>94.66666666666666</ele><time>2026-04-11T15:40:20.295Z</time></trkpt><trkpt lat="45.723859" lon="11.7330812"><ele>94.0</ele><time>2026-04-11T15:40:21.3Z</time></trkpt><trkpt lat="45.7236866" lon="11.733106"><ele>94.0</ele><time>2026-04-11T15:40:22.295Z</time></trkpt><trkpt lat="45.7235166" lon="11.7331309"><ele>94.0</ele><time>2026-04-11T15:40:23.296Z</time></trkpt><trkpt lat="45.7233484" lon="11.7331544"><ele>94.0</ele><time>2026-04-11T15:40:24.296Z</time></trkpt><trkpt lat="45.7231808" lon="11.7331792"><ele>94.0</ele><time>2026-04-11T15:40:25.293Z</time></trkpt><trkpt lat="45.7230099" lon="11.733202"><ele>94.0</ele><time>2026-04-11T15:40:26.288Z</time></trkpt><trkpt lat="45.7228395" lon="11.7332224"><ele>94.0</ele><time>2026-04-11T15:40:27.294Z</time></trkpt><trkpt lat="45.7226724" lon="11.7332362"><ele>93.5</ele><time>2026-04-11T15:40:28.298Z</time></trkpt><trkpt lat="45.7225154" lon="11.7332426"><ele>93.0</ele><time>2026-04-11T15:40:29.317Z</time></trkpt><trkpt lat="45.7223725" lon="11.7332443"><ele>92.5</ele><time>2026-04-11T15:40:30.295Z</time></trkpt><trkpt lat="45.7222409" lon="11.7332441"><ele>92.0</ele><time>2026-04-11T15:40:31.296Z</time></trkpt><trkpt lat="45.7221172" lon="11.7332442"><ele>92.0</ele><time>2026-04-11T15:40:32.304Z</time></trkpt><trkpt lat="45.721997" lon="11.7332444"><ele>92.0</ele><time>2026-04-11T15:40:33.3Z</time></trkpt><trkpt lat="45.7218785" lon="11.7332446"><ele>92.0</ele><time>2026-04-11T15:40:34.3Z</time></trkpt><trkpt lat="45.7217664" lon="11.7332435"><ele>92.0</ele><time>2026-04-11T15:40:35.304Z</time></trkpt><trkpt lat="45.7216612" lon="11.7332522"><ele>91.6</ele><time>2026-04-11T15:40:36.293Z</time></trkpt><trkpt lat="45.7215611" lon="11.73325"><ele>91.19999999999999</ele><time>2026-04-11T15:40:37.303Z</time></trkpt><trkpt lat="45.7214749" lon="11.7332424"><ele>90.8</ele><time>2026-04-11T15:40:38.297Z</time></trkpt><trkpt lat="45.7213918" lon="11.733221"><ele>90.4</ele><time>2026-04-11T15:40:39.289Z</time></trkpt><trkpt lat="45.7213236" lon="11.7331985"><ele>90.0</ele><time>2026-04-11T15:40:40.293Z</time></trkpt><trkpt lat="45.7212124" lon="11.7331467"><ele>90.0</ele><time>2026-04-11T15:40:42.297Z</time></trkpt><trkpt lat="45.721127" lon="11.7330354"><ele>90.0</ele><time>2026-04-11T15:40:44.291Z</time></trkpt><trkpt lat="45.7210954" lon="11.7329561"><ele>90.0</ele><time>2026-04-11T15:40:45.3Z</time></trkpt><trkpt lat="45.7209923" lon="11.7328566"><ele>90.0</ele><time>2026-04-11T15:40:47.3Z</time></trkpt><trkpt lat="45.7209252" lon="11.732857"><ele>90.0</ele><time>2026-04-11T15:40:48.294Z</time></trkpt><trkpt lat="45.7208558" lon="11.7329095"><ele>90.0</ele><time>2026-04-11T15:40:49.304Z</time></trkpt><trkpt lat="45.720779" lon="11.7329541"><ele>90.75</ele><time>2026-04-11T15:40:50.299Z</time></trkpt><trkpt lat="45.7206841" lon="11.7329739"><ele>91.5</ele><time>2026-04-11T15:40:51.289Z</time></trkpt><trkpt lat="45.7205721" lon="11.7329717"><ele>92.25</ele><time>2026-04-11T15:40:52.292Z</time></trkpt><trkpt lat="45.7204484" lon="11.7329586"><ele>93.0</ele><time>2026-04-11T15:40:53.302Z</time></trkpt><trkpt lat="45.7203191" lon="11.7329398"><ele>93.0</ele><time>2026-04-11T15:40:54.292Z</time></trkpt><trkpt lat="45.7201836" lon="11.7329201"><ele>93.0</ele><time>2026-04-11T15:40:55.308Z</time></trkpt><trkpt lat="45.7200415" lon="11.7329018"><ele>93.0</ele><time>2026-04-11T15:40:56.294Z</time></trkpt><trkpt lat="45.7198934" lon="11.7328838"><ele>93.0</ele><time>2026-04-11T15:40:57.296Z</time></trkpt><trkpt lat="45.7197432" lon="11.7328618"><ele>93.0</ele><time>2026-04-11T15:40:58.295Z</time></trkpt><trkpt lat="45.7195901" lon="11.7328378"><ele>93.0</ele><time>2026-04-11T15:40:59.296Z</time></trkpt><trkpt lat="45.7194338" lon="11.7328153"><ele>93.0</ele><time>2026-04-11T15:41:00.294Z</time></trkpt><trkpt lat="45.7192729" lon="11.7327948"><ele>92.33333333333333</ele><time>2026-04-11T15:41:01.304Z</time></trkpt><trkpt lat="45.719104" lon="11.7327747"><ele>91.66666666666666</ele><time>2026-04-11T15:41:02.293Z</time></trkpt><trkpt lat="45.718934" lon="11.7327543"><ele>91.0</ele><time>2026-04-11T15:41:03.287Z</time></trkpt><trkpt lat="45.7187639" lon="11.7327335"><ele>91.0</ele><time>2026-04-11T15:41:04.296Z</time></trkpt><trkpt lat="45.7185926" lon="11.7327136"><ele>91.0</ele><time>2026-04-11T15:41:05.294Z</time></trkpt><trkpt lat="45.7184221" lon="11.7326966"><ele>91.0</ele><time>2026-04-11T15:41:06.29Z</time></trkpt><trkpt lat="45.7182468" lon="11.732688"><ele>90.66666666666666</ele><time>2026-04-11T15:41:07.3Z</time></trkpt><trkpt lat="45.7180701" lon="11.7326867"><ele>90.33333333333333</ele><time>2026-04-11T15:41:08.297Z</time></trkpt><trkpt lat="45.7178934" lon="11.7326868"><ele>90.0</ele><time>2026-04-11T15:41:09.297Z</time></trkpt><trkpt lat="45.7177174" lon="11.7326864"><ele>90.0</ele><time>2026-04-11T15:41:10.294Z</time></trkpt><trkpt lat="45.7175437" lon="11.7326826"><ele>90.0</ele><time>2026-04-11T15:41:11.309Z</time></trkpt><trkpt lat="45.7173709" lon="11.7326709"><ele>90.0</ele><time>2026-04-11T15:41:12.298Z</time></trkpt><trkpt lat="45.7171973" lon="11.7326452"><ele>90.0</ele><time>2026-04-11T15:41:13.293Z</time></trkpt><trkpt lat="45.7170229" lon="11.7326091"><ele>90.0</ele><time>2026-04-11T15:41:14.297Z</time></trkpt><trkpt lat="45.7168489" lon="11.7325653"><ele>90.0</ele><time>2026-04-11T15:41:15.296Z</time></trkpt><trkpt lat="45.7166759" lon="11.7325191"><ele>89.66666666666667</ele><time>2026-04-11T15:41:16.292Z</time></trkpt><trkpt lat="45.7165035" lon="11.7324705"><ele>89.33333333333334</ele><time>2026-04-11T15:41:17.299Z</time></trkpt><trkpt lat="45.7163355" lon="11.7324204"><ele>89.0</ele><time>2026-04-11T15:41:18.291Z</time></trkpt><trkpt lat="45.7161725" lon="11.7323724"><ele>89.33333333333334</ele><time>2026-04-11T15:41:19.29Z</time></trkpt><trkpt lat="45.7160114" lon="11.7323266"><ele>89.66666666666667</ele><time>2026-04-11T15:41:20.297Z</time></trkpt><trkpt lat="45.7158517" lon="11.7322791"><ele>90.0</ele><time>2026-04-11T15:41:21.299Z</time></trkpt><trkpt lat="45.715692" lon="11.7322314"><ele>90.0</ele><time>2026-04-11T15:41:22.293Z</time></trkpt><trkpt lat="45.7155323" lon="11.7321852"><ele>90.0</ele><time>2026-04-11T15:41:23.289Z</time></trkpt><trkpt lat="45.7153719" lon="11.7321406"><ele>90.0</ele><time>2026-04-11T15:41:24.288Z</time></trkpt><trkpt lat="45.7152121" lon="11.7320939"><ele>89.33333333333333</ele><time>2026-04-11T15:41:25.293Z</time></trkpt><trkpt lat="45.7150519" lon="11.732047"><ele>88.66666666666666</ele><time>2026-04-11T15:41:26.301Z</time></trkpt><trkpt lat="45.7148905" lon="11.732001"><ele>88.0</ele><time>2026-04-11T15:41:27.299Z</time></trkpt><trkpt lat="45.714728" lon="11.7319519"><ele>88.0</ele><time>2026-04-11T15:41:28.29Z</time></trkpt><trkpt lat="45.7145672" lon="11.7319021"><ele>88.0</ele><time>2026-04-11T15:41:29.296Z</time></trkpt><trkpt lat="45.7144154" lon="11.7318575"><ele>88.0</ele><time>2026-04-11T15:41:30.293Z</time></trkpt><trkpt lat="45.7142728" lon="11.7318155"><ele>87.75</ele><time>2026-04-11T15:41:31.295Z</time></trkpt><trkpt lat="45.7141322" lon="11.7317756"><ele>87.5</ele><time>2026-04-11T15:41:32.29Z</time></trkpt><trkpt lat="45.7139946" lon="11.7317388"><ele>87.25</ele><time>2026-04-11T15:41:33.295Z</time></trkpt><trkpt lat="45.7138699" lon="11.7317065"><ele>87.0</ele><time>2026-04-11T15:41:34.295Z</time></trkpt><trkpt lat="45.7137609" lon="11.7316799"><ele>87.0</ele><time>2026-04-11T15:41:35.303Z</time></trkpt><trkpt lat="45.7136581" lon="11.7316591"><ele>87.0</ele><time>2026-04-11T15:41:36.295Z</time></trkpt><trkpt lat="45.7135643" lon="11.7316405"><ele>87.0</ele><time>2026-04-11T15:41:37.293Z</time></trkpt><trkpt lat="45.7134792" lon="11.7316213"><ele>87.0</ele><time>2026-04-11T15:41:38.292Z</time></trkpt><trkpt lat="45.7133955" lon="11.7316032"><ele>87.0</ele><time>2026-04-11T15:41:39.294Z</time></trkpt><trkpt lat="45.7133075" lon="11.7315858"><ele>87.19999999999999</ele><time>2026-04-11T15:41:40.299Z</time></trkpt><trkpt lat="45.71322" lon="11.7315681"><ele>87.4</ele><time>2026-04-11T15:41:41.292Z</time></trkpt><trkpt lat="45.7131283" lon="11.7315493"><ele>87.6</ele><time>2026-04-11T15:41:42.297Z</time></trkpt><trkpt lat="45.7130338" lon="11.7315353"><ele>87.80000000000001</ele><time>2026-04-11T15:41:43.295Z</time></trkpt><trkpt lat="45.7129343" lon="11.7315253"><ele>88.0</ele><time>2026-04-11T15:41:44.291Z</time></trkpt><trkpt lat="45.7128292" lon="11.7315022"><ele>87.75</ele><time>2026-04-11T15:41:45.296Z</time></trkpt><trkpt lat="45.7127241" lon="11.7315096"><ele>87.5</ele><time>2026-04-11T15:41:46.296Z</time></trkpt><trkpt lat="45.7126112" lon="11.7315185"><ele>87.25</ele><time>2026-04-11T15:41:47.296Z</time></trkpt><trkpt lat="45.7124912" lon="11.7315286"><ele>87.0</ele><time>2026-04-11T15:41:48.292Z</time></trkpt><trkpt lat="45.7123681" lon="11.731538"><ele>87.0</ele><time>2026-04-11T15:41:49.297Z</time></trkpt><trkpt lat="45.712244" lon="11.7315427"><ele>87.0</ele><time>2026-04-11T15:41:50.299Z</time></trkpt><trkpt lat="45.712118" lon="11.7315489"><ele>87.0</ele><time>2026-04-11T15:41:51.295Z</time></trkpt><trkpt lat="45.7119937" lon="11.7315572"><ele>87.0</ele><time>2026-04-11T15:41:52.312Z</time></trkpt><trkpt lat="45.7118693" lon="11.7315668"><ele>86.5</ele><time>2026-04-11T15:41:53.296Z</time></trkpt><trkpt lat="45.7117431" lon="11.731576"><ele>86.0</ele><time>2026-04-11T15:41:54.303Z</time></trkpt><trkpt lat="45.7116177" lon="11.7315869"><ele>85.5</ele><time>2026-04-11T15:41:55.304Z</time></trkpt><trkpt lat="45.7114894" lon="11.7315968"><ele>85.0</ele><time>2026-04-11T15:41:56.299Z</time></trkpt><trkpt lat="45.711362" lon="11.7316077"><ele>85.0</ele><time>2026-04-11T15:41:57.299Z</time></trkpt><trkpt lat="45.7112363" lon="11.7316174"><ele>85.0</ele><time>2026-04-11T15:41:58.297Z</time></trkpt><trkpt lat="45.7111087" lon="11.731627"><ele>85.0</ele><time>2026-04-11T15:41:59.305Z</time></trkpt><trkpt lat="45.7109906" lon="11.7316352"><ele>85.0</ele><time>2026-04-11T15:42:00.299Z</time></trkpt><trkpt lat="45.7108821" lon="11.7316424"><ele>85.0</ele><time>2026-04-11T15:42:01.302Z</time></trkpt><trkpt lat="45.7107811" lon="11.7316495"><ele>85.0</ele><time>2026-04-11T15:42:02.304Z</time></trkpt><trkpt lat="45.7106816" lon="11.7316569"><ele>85.0</ele><time>2026-04-11T15:42:03.306Z</time></trkpt><trkpt lat="45.7105811" lon="11.731663"><ele>85.0</ele><time>2026-04-11T15:42:04.292Z</time></trkpt><trkpt lat="45.7104794" lon="11.7316681"><ele>85.0</ele><time>2026-04-11T15:42:05.295Z</time></trkpt><trkpt lat="45.710376" lon="11.7316744"><ele>85.0</ele><time>2026-04-11T15:42:06.302Z</time></trkpt><trkpt lat="45.7102706" lon="11.7316809"><ele>85.0</ele><time>2026-04-11T15:42:07.31Z</time></trkpt><trkpt lat="45.7101583" lon="11.7316879"><ele>85.0</ele><time>2026-04-11T15:42:08.295Z</time></trkpt><trkpt lat="45.7100425" lon="11.7316924"><ele>85.0</ele><time>2026-04-11T15:42:09.301Z</time></trkpt><trkpt lat="45.7099218" lon="11.7316868"><ele>85.25</ele><time>2026-04-11T15:42:10.298Z</time></trkpt><trkpt lat="45.7098005" lon="11.7316921"><ele>85.5</ele><time>2026-04-11T15:42:11.302Z</time></trkpt><trkpt lat="45.7096754" lon="11.7317037"><ele>85.75</ele><time>2026-04-11T15:42:12.297Z</time></trkpt><trkpt lat="45.709552" lon="11.7317169"><ele>86.0</ele><time>2026-04-11T15:42:13.288Z</time></trkpt><trkpt lat="45.7094315" lon="11.7317279"><ele>85.6</ele><time>2026-04-11T15:42:14.29Z</time></trkpt><trkpt lat="45.7093169" lon="11.7317401"><ele>85.19999999999999</ele><time>2026-04-11T15:42:15.297Z</time></trkpt><trkpt lat="45.7092132" lon="11.7317449"><ele>84.80000000000001</ele><time>2026-04-11T15:42:16.303Z</time></trkpt><trkpt lat="45.7091123" lon="11.7317493"><ele>84.4</ele><time>2026-04-11T15:42:17.295Z</time></trkpt><trkpt lat="45.709012" lon="11.7317549"><ele>84.0</ele><time>2026-04-11T15:42:18.297Z</time></trkpt><trkpt lat="45.7089102" lon="11.7317646"><ele>84.0</ele><time>2026-04-11T15:42:19.304Z</time></trkpt><trkpt lat="45.7088056" lon="11.731775"><ele>84.0</ele><time>2026-04-11T15:42:20.292Z</time></trkpt><trkpt lat="45.7086993" lon="11.7317875"><ele>84.0</ele><time>2026-04-11T15:42:21.297Z</time></trkpt><trkpt lat="45.7085959" lon="11.7318056"><ele>84.0</ele><time>2026-04-11T15:42:22.294Z</time></trkpt><trkpt lat="45.7084982" lon="11.7318226"><ele>84.0</ele><time>2026-04-11T15:42:23.295Z</time></trkpt><trkpt lat="45.708387" lon="11.7318341"><ele>84.0</ele><time>2026-04-11T15:42:24.296Z</time></trkpt><trkpt lat="45.7082734" lon="11.7318402"><ele>84.0</ele><time>2026-04-11T15:42:25.289Z</time></trkpt><trkpt lat="45.7081689" lon="11.731852"><ele>84.0</ele><time>2026-04-11T15:42:26.294Z</time></trkpt><trkpt lat="45.7080679" lon="11.7318732"><ele>84.0</ele><time>2026-04-11T15:42:27.298Z</time></trkpt><trkpt lat="45.7079634" lon="11.7318987"><ele>84.0</ele><time>2026-04-11T15:42:28.294Z</time></trkpt><trkpt lat="45.7078548" lon="11.7319282"><ele>84.0</ele><time>2026-04-11T15:42:29.295Z</time></trkpt><trkpt lat="45.707755" lon="11.7319733"><ele>84.0</ele><time>2026-04-11T15:42:30.292Z</time></trkpt><trkpt lat="45.7076622" lon="11.7320037"><ele>84.0</ele><time>2026-04-11T15:42:31.296Z</time></trkpt><trkpt lat="45.7075869" lon="11.7320329"><ele>84.0</ele><time>2026-04-11T15:42:32.305Z</time></trkpt><trkpt lat="45.7075235" lon="11.7320481"><ele>84.0</ele><time>2026-04-11T15:42:33.309Z</time></trkpt><trkpt lat="45.7074566" lon="11.7320591"><ele>84.0</ele><time>2026-04-11T15:42:34.302Z</time></trkpt><trkpt lat="45.7073797" lon="11.7320781"><ele>83.83333333333333</ele><time>2026-04-11T15:42:35.301Z</time></trkpt><trkpt lat="45.7073008" lon="11.7320908"><ele>83.66666666666667</ele><time>2026-04-11T15:42:36.307Z</time></trkpt><trkpt lat="45.7072292" lon="11.7321049"><ele>83.5</ele><time>2026-04-11T15:42:37.299Z</time></trkpt><trkpt lat="45.7071617" lon="11.7321168"><ele>83.33333333333334</ele><time>2026-04-11T15:42:38.31Z</time></trkpt><trkpt lat="45.7070883" lon="11.7321323"><ele>83.16666666666667</ele><time>2026-04-11T15:42:39.296Z</time></trkpt><trkpt lat="45.7070129" lon="11.7321437"><ele>83.0</ele><time>2026-04-11T15:42:40.301Z</time></trkpt><trkpt lat="45.7069293" lon="11.7321597"><ele>82.80000000000001</ele><time>2026-04-11T15:42:41.3Z</time></trkpt><trkpt lat="45.7068393" lon="11.7321773"><ele>82.6</ele><time>2026-04-11T15:42:42.306Z</time></trkpt><trkpt lat="45.7067407" lon="11.7321972"><ele>82.4</ele><time>2026-04-11T15:42:43.298Z</time></trkpt><trkpt lat="45.7066321" lon="11.7322205"><ele>82.19999999999999</ele><time>2026-04-11T15:42:44.302Z</time></trkpt><trkpt lat="45.7065092" lon="11.732245"><ele>82.0</ele><time>2026-04-11T15:42:45.287Z</time></trkpt><trkpt lat="45.706379" lon="11.7322778"><ele>82.0</ele><time>2026-04-11T15:42:46.296Z</time></trkpt><trkpt lat="45.7062392" lon="11.7323177"><ele>82.0</ele><time>2026-04-11T15:42:47.303Z</time></trkpt><trkpt lat="45.7060927" lon="11.732362"><ele>82.0</ele><time>2026-04-11T15:42:48.299Z</time></trkpt><trkpt lat="45.7059418" lon="11.732406"><ele>82.0</ele><time>2026-04-11T15:42:49.301Z</time></trkpt><trkpt lat="45.7058009" lon="11.7324469"><ele>81.75</ele><time>2026-04-11T15:42:50.298Z</time></trkpt><trkpt lat="45.7056669" lon="11.7324876"><ele>81.5</ele><time>2026-04-11T15:42:51.301Z</time></trkpt><trkpt lat="45.7055287" lon="11.7325294"><ele>81.25</ele><time>2026-04-11T15:42:52.289Z</time></trkpt><trkpt lat="45.7053843" lon="11.7325723"><ele>81.0</ele><time>2026-04-11T15:42:53.313Z</time></trkpt><trkpt lat="45.7052385" lon="11.7326177"><ele>80.66666666666667</ele><time>2026-04-11T15:42:54.292Z</time></trkpt><trkpt lat="45.7050923" lon="11.7326617"><ele>80.33333333333334</ele><time>2026-04-11T15:42:55.293Z</time></trkpt><trkpt lat="45.7049457" lon="11.7327024"><ele>80.0</ele><time>2026-04-11T15:42:56.296Z</time></trkpt><trkpt lat="45.7047969" lon="11.7327386"><ele>80.0</ele><time>2026-04-11T15:42:57.297Z</time></trkpt><trkpt lat="45.7046456" lon="11.7327692"><ele>80.0</ele><time>2026-04-11T15:42:58.292Z</time></trkpt><trkpt lat="45.7044926" lon="11.7327931"><ele>80.0</ele><time>2026-04-11T15:42:59.295Z</time></trkpt><trkpt lat="45.7043375" lon="11.7328115"><ele>80.0</ele><time>2026-04-11T15:43:00.291Z</time></trkpt><trkpt lat="45.7041801" lon="11.7328292"><ele>80.0</ele><time>2026-04-11T15:43:01.293Z</time></trkpt><trkpt lat="45.7040197" lon="11.732845"><ele>80.0</ele><time>2026-04-11T15:43:02.297Z</time></trkpt><trkpt lat="45.7038585" lon="11.7328613"><ele>80.0</ele><time>2026-04-11T15:43:03.305Z</time></trkpt><trkpt lat="45.7036973" lon="11.7328784"><ele>80.0</ele><time>2026-04-11T15:43:04.302Z</time></trkpt><trkpt lat="45.7035358" lon="11.7328956"><ele>80.0</ele><time>2026-04-11T15:43:05.29Z</time></trkpt><trkpt lat="45.7033739" lon="11.7329124"><ele>79.66666666666667</ele><time>2026-04-11T15:43:06.295Z</time></trkpt><trkpt lat="45.7032125" lon="11.7329293"><ele>79.33333333333333</ele><time>2026-04-11T15:43:07.293Z</time></trkpt><trkpt lat="45.7030578" lon="11.7329454"><ele>79.0</ele><time>2026-04-11T15:43:08.303Z</time></trkpt><trkpt lat="45.7029152" lon="11.7329609"><ele>79.0</ele><time>2026-04-11T15:43:09.295Z</time></trkpt><trkpt lat="45.7027838" lon="11.7329752"><ele>79.0</ele><time>2026-04-11T15:43:10.295Z</time></trkpt><trkpt lat="45.7026575" lon="11.7329876"><ele>79.0</ele><time>2026-04-11T15:43:11.306Z</time></trkpt><trkpt lat="45.702533" lon="11.7330006"><ele>79.0</ele><time>2026-04-11T15:43:12.287Z</time></trkpt><trkpt lat="45.7024107" lon="11.7330121"><ele>78.8</ele><time>2026-04-11T15:43:13.297Z</time></trkpt><trkpt lat="45.7022933" lon="11.7330216"><ele>78.60000000000001</ele><time>2026-04-11T15:43:14.306Z</time></trkpt><trkpt lat="45.7021834" lon="11.7330318"><ele>78.4</ele><time>2026-04-11T15:43:15.302Z</time></trkpt><trkpt lat="45.7020766" lon="11.733041"><ele>78.2</ele><time>2026-04-11T15:43:16.294Z</time></trkpt><trkpt lat="45.7019685" lon="11.7330477"><ele>78.0</ele><time>2026-04-11T15:43:17.301Z</time></trkpt><trkpt lat="45.7018495" lon="11.7330562"><ele>77.75</ele><time>2026-04-11T15:43:18.29Z</time></trkpt><trkpt lat="45.7017173" lon="11.7330563"><ele>77.5</ele><time>2026-04-11T15:43:19.292Z</time></trkpt><trkpt lat="45.7015704" lon="11.7330529"><ele>77.25</ele><time>2026-04-11T15:43:20.303Z</time></trkpt><trkpt lat="45.7014082" lon="11.7330542"><ele>77.0</ele><time>2026-04-11T15:43:21.297Z</time></trkpt><trkpt lat="45.701237" lon="11.7330565"><ele>77.33333333333334</ele><time>2026-04-11T15:43:22.288Z</time></trkpt><trkpt lat="45.701057" lon="11.7330576"><ele>77.66666666666667</ele><time>2026-04-11T15:43:23.293Z</time></trkpt><trkpt lat="45.7008686" lon="11.733051"><ele>78.0</ele><time>2026-04-11T15:43:24.301Z</time></trkpt><trkpt lat="45.70067" lon="11.7330353"><ele>78.0</ele><time>2026-04-11T15:43:25.293Z</time></trkpt><trkpt lat="45.700475" lon="11.7330126"><ele>78.0</ele><time>2026-04-11T15:43:26.293Z</time></trkpt><trkpt lat="45.7002931" lon="11.7329865"><ele>78.0</ele><time>2026-04-11T15:43:27.309Z</time></trkpt><trkpt lat="45.7001213" lon="11.7329581"><ele>78.33333333333333</ele><time>2026-04-11T15:43:28.294Z</time></trkpt><trkpt lat="45.6999536" lon="11.7329285"><ele>78.66666666666666</ele><time>2026-04-11T15:43:29.287Z</time></trkpt><trkpt lat="45.6997886" lon="11.7329007"><ele>79.0</ele><time>2026-04-11T15:43:30.294Z</time></trkpt><trkpt lat="45.6996275" lon="11.7328758"><ele>79.0</ele><time>2026-04-11T15:43:31.286Z</time></trkpt><trkpt lat="45.6994759" lon="11.732852"><ele>79.0</ele><time>2026-04-11T15:43:32.29Z</time></trkpt><trkpt lat="45.6993321" lon="11.7328278"><ele>79.0</ele><time>2026-04-11T15:43:33.3Z</time></trkpt><trkpt lat="45.6991886" lon="11.7328043"><ele>79.0</ele><time>2026-04-11T15:43:34.298Z</time></trkpt><trkpt lat="45.6990469" lon="11.7327802"><ele>79.0</ele><time>2026-04-11T15:43:35.298Z</time></trkpt><trkpt lat="45.6989063" lon="11.7327557"><ele>79.0</ele><time>2026-04-11T15:43:36.3Z</time></trkpt><trkpt lat="45.6987651" lon="11.7327324"><ele>79.0</ele><time>2026-04-11T15:43:37.3Z</time></trkpt><trkpt lat="45.6986237" lon="11.7327099"><ele>79.0</ele><time>2026-04-11T15:43:38.301Z</time></trkpt><trkpt lat="45.6984827" lon="11.7326863"><ele>78.75</ele><time>2026-04-11T15:43:39.299Z</time></trkpt><trkpt lat="45.6983417" lon="11.7326645"><ele>78.5</ele><time>2026-04-11T15:43:40.291Z</time></trkpt><trkpt lat="45.6981996" lon="11.7326455"><ele>78.25</ele><time>2026-04-11T15:43:41.295Z</time></trkpt><trkpt lat="45.6980574" lon="11.732628"><ele>78.0</ele><time>2026-04-11T15:43:42.292Z</time></trkpt><trkpt lat="45.6979163" lon="11.7326132"><ele>78.0</ele><time>2026-04-11T15:43:43.3Z</time></trkpt><trkpt lat="45.6977748" lon="11.7326045"><ele>78.0</ele><time>2026-04-11T15:43:44.291Z</time></trkpt><trkpt lat="45.6976323" lon="11.7325964"><ele>78.0</ele><time>2026-04-11T15:43:45.289Z</time></trkpt><trkpt lat="45.6974918" lon="11.7325846"><ele>78.0</ele><time>2026-04-11T15:43:46.295Z</time></trkpt><trkpt lat="45.6973444" lon="11.7325818"><ele>78.0</ele><time>2026-04-11T15:43:47.296Z</time></trkpt><trkpt lat="45.6972013" lon="11.7325869"><ele>78.0</ele><time>2026-04-11T15:43:48.29Z</time></trkpt><trkpt lat="45.6970669" lon="11.7325841"><ele>78.0</ele><time>2026-04-11T15:43:49.296Z</time></trkpt><trkpt lat="45.6969456" lon="11.7325846"><ele>78.0</ele><time>2026-04-11T15:43:50.293Z</time></trkpt><trkpt lat="45.6968303" lon="11.7325849"><ele>77.6</ele><time>2026-04-11T15:43:51.295Z</time></trkpt><trkpt lat="45.6967222" lon="11.7325797"><ele>77.19999999999999</ele><time>2026-04-11T15:43:52.292Z</time></trkpt><trkpt lat="45.6966171" lon="11.7325784"><ele>76.8</ele><time>2026-04-11T15:43:53.295Z</time></trkpt><trkpt lat="45.6965113" lon="11.7325768"><ele>76.39999999999999</ele><time>2026-04-11T15:43:54.297Z</time></trkpt><trkpt lat="45.6964079" lon="11.7325807"><ele>76.0</ele><time>2026-04-11T15:43:55.301Z</time></trkpt><trkpt lat="45.6963057" lon="11.7325846"><ele>76.0</ele><time>2026-04-11T15:43:56.297Z</time></trkpt><trkpt lat="45.6962011" lon="11.7325865"><ele>76.0</ele><time>2026-04-11T15:43:57.291Z</time></trkpt><trkpt lat="45.6960999" lon="11.7325879"><ele>76.0</ele><time>2026-04-11T15:43:58.294Z</time></trkpt><trkpt lat="45.6959995" lon="11.7325889"><ele>76.0</ele><time>2026-04-11T15:43:59.298Z</time></trkpt><trkpt lat="45.6959017" lon="11.73259"><ele>76.0</ele><time>2026-04-11T15:44:00.298Z</time></trkpt><trkpt lat="45.6958055" lon="11.7325887"><ele>75.83333333333333</ele><time>2026-04-11T15:44:01.295Z</time></trkpt><trkpt lat="45.6957141" lon="11.7325863"><ele>75.66666666666666</ele><time>2026-04-11T15:44:02.297Z</time></trkpt><trkpt lat="45.6956277" lon="11.7325762"><ele>75.5</ele><time>2026-04-11T15:44:03.293Z</time></trkpt><trkpt lat="45.6955457" lon="11.7325603"><ele>75.33333333333333</ele><time>2026-04-11T15:44:04.292Z</time></trkpt><trkpt lat="45.6954717" lon="11.7325354"><ele>75.16666666666667</ele><time>2026-04-11T15:44:05.3Z</time></trkpt><trkpt lat="45.6954022" lon="11.732501"><ele>75.0</ele><time>2026-04-11T15:44:06.298Z</time></trkpt><trkpt lat="45.6953398" lon="11.7324591"><ele>75.0</ele><time>2026-04-11T15:44:07.296Z</time></trkpt><trkpt lat="45.6952785" lon="11.7324006"><ele>75.0</ele><time>2026-04-11T15:44:08.306Z</time></trkpt><trkpt lat="45.6952132" lon="11.7323374"><ele>75.0</ele><time>2026-04-11T15:44:09.287Z</time></trkpt><trkpt lat="45.6951371" lon="11.7322951"><ele>75.0</ele><time>2026-04-11T15:44:10.304Z</time></trkpt><trkpt lat="45.6950567" lon="11.732292"><ele>75.0</ele><time>2026-04-11T15:44:11.294Z</time></trkpt><trkpt lat="45.6949853" lon="11.7323279"><ele>75.0</ele><time>2026-04-11T15:44:12.304Z</time></trkpt><trkpt lat="45.6949267" lon="11.7323869"><ele>75.0</ele><time>2026-04-11T15:44:13.298Z</time></trkpt><trkpt lat="45.6948642" lon="11.7324507"><ele>75.0</ele><time>2026-04-11T15:44:14.292Z</time></trkpt><trkpt lat="45.6947913" lon="11.7325079"><ele>75.0</ele><time>2026-04-11T15:44:15.305Z</time></trkpt><trkpt lat="45.6947072" lon="11.732552"><ele>75.0</ele><time>2026-04-11T15:44:16.289Z</time></trkpt><trkpt lat="45.6946139" lon="11.7325781"><ele>75.0</ele><time>2026-04-11T15:44:17.291Z</time></trkpt><trkpt lat="45.6945149" lon="11.7325881"><ele>75.0</ele><time>2026-04-11T15:44:18.289Z</time></trkpt><trkpt lat="45.6944136" lon="11.732589"><ele>75.0</ele><time>2026-04-11T15:44:19.305Z</time></trkpt><trkpt lat="45.6943108" lon="11.7325882"><ele>75.0</ele><time>2026-04-11T15:44:20.285Z</time></trkpt><trkpt lat="45.6942011" lon="11.7325862"><ele>75.0</ele><time>2026-04-11T15:44:21.294Z</time></trkpt><trkpt lat="45.6940814" lon="11.7325829"><ele>75.0</ele><time>2026-04-11T15:44:22.291Z</time></trkpt><trkpt lat="45.6939599" lon="11.7325785"><ele>75.0</ele><time>2026-04-11T15:44:23.29Z</time></trkpt><trkpt lat="45.6938443" lon="11.7325775"><ele>75.0</ele><time>2026-04-11T15:44:24.299Z</time></trkpt><trkpt lat="45.6937272" lon="11.7325774"><ele>75.0</ele><time>2026-04-11T15:44:25.301Z</time></trkpt><trkpt lat="45.693608" lon="11.7325833"><ele>75.0</ele><time>2026-04-11T15:44:26.316Z</time></trkpt><trkpt lat="45.6934824" lon="11.7326037"><ele>75.0</ele><time>2026-04-11T15:44:27.291Z</time></trkpt><trkpt lat="45.693334" lon="11.7326352"><ele>75.0</ele><time>2026-04-11T15:44:28.296Z</time></trkpt><trkpt lat="45.6931572" lon="11.7326678"><ele>75.0</ele><time>2026-04-11T15:44:29.296Z</time></trkpt><trkpt lat="45.6929596" lon="11.7326984"><ele>75.0</ele><time>2026-04-11T15:44:30.286Z</time></trkpt><trkpt lat="45.6927628" lon="11.7327186"><ele>75.0</ele><time>2026-04-11T15:44:31.298Z</time></trkpt><trkpt lat="45.692575" lon="11.7327354"><ele>75.0</ele><time>2026-04-11T15:44:32.295Z</time></trkpt><trkpt lat="45.6923977" lon="11.7327524"><ele>75.33333333333333</ele><time>2026-04-11T15:44:33.295Z</time></trkpt><trkpt lat="45.6922212" lon="11.732777"><ele>75.66666666666666</ele><time>2026-04-11T15:44:34.305Z</time></trkpt><trkpt lat="45.6920465" lon="11.7328217"><ele>76.0</ele><time>2026-04-11T15:44:35.295Z</time></trkpt><trkpt lat="45.6918726" lon="11.7328857"><ele>75.0</ele><time>2026-04-11T15:44:36.298Z</time></trkpt><trkpt lat="45.691692" lon="11.7329521"><ele>74.0</ele><time>2026-04-11T15:44:37.302Z</time></trkpt><trkpt lat="45.6915011" lon="11.7330021"><ele>73.0</ele><time>2026-04-11T15:44:38.297Z</time></trkpt><trkpt lat="45.6913024" lon="11.7330351"><ele>73.0</ele><time>2026-04-11T15:44:39.295Z</time></trkpt><trkpt lat="45.6911015" lon="11.7330586"><ele>73.0</ele><time>2026-04-11T15:44:40.295Z</time></trkpt><trkpt lat="45.6908972" lon="11.7330804"><ele>73.0</ele><time>2026-04-11T15:44:41.293Z</time></trkpt><trkpt lat="45.6906915" lon="11.7331026"><ele>73.0</ele><time>2026-04-11T15:44:42.299Z</time></trkpt><trkpt lat="45.6904875" lon="11.7331234"><ele>73.0</ele><time>2026-04-11T15:44:43.298Z</time></trkpt><trkpt lat="45.6902983" lon="11.7331428"><ele>73.0</ele><time>2026-04-11T15:44:44.292Z</time></trkpt><trkpt lat="45.6901261" lon="11.7331589"><ele>73.0</ele><time>2026-04-11T15:44:45.291Z</time></trkpt><trkpt lat="45.6899732" lon="11.7331713"><ele>73.0</ele><time>2026-04-11T15:44:46.285Z</time></trkpt><trkpt lat="45.689838" lon="11.7331718"><ele>73.0</ele><time>2026-04-11T15:44:47.301Z</time></trkpt><trkpt lat="45.6897072" lon="11.7331414"><ele>73.0</ele><time>2026-04-11T15:44:48.289Z</time></trkpt><trkpt lat="45.6895793" lon="11.7330979"><ele>73.0</ele><time>2026-04-11T15:44:49.288Z</time></trkpt><trkpt lat="45.6894508" lon="11.73297"><ele>73.0</ele><time>2026-04-11T15:44:50.294Z</time></trkpt><trkpt lat="45.6893587" lon="11.7327711"><ele>73.0</ele><time>2026-04-11T15:44:51.289Z</time></trkpt><trkpt lat="45.6892845" lon="11.7325548"><ele>72.66666666666666</ele><time>2026-04-11T15:44:52.292Z</time></trkpt><trkpt lat="45.6892242" lon="11.7322964"><ele>72.33333333333333</ele><time>2026-04-11T15:44:53.286Z</time></trkpt><trkpt lat="45.689171" lon="11.7320218"><ele>72.0</ele><time>2026-04-11T15:44:54.293Z</time></trkpt><trkpt lat="45.6891265" lon="11.731735"><ele>72.0</ele><time>2026-04-11T15:44:55.287Z</time></trkpt><trkpt lat="45.6890875" lon="11.7314888"><ele>72.0</ele><time>2026-04-11T15:44:56.286Z</time></trkpt><trkpt lat="45.68904" lon="11.7312617"><ele>72.0</ele><time>2026-04-11T15:44:57.296Z</time></trkpt><trkpt lat="45.6890042" lon="11.7310289"><ele>72.0</ele><time>2026-04-11T15:44:58.284Z</time></trkpt><trkpt lat="45.6889178" lon="11.7308276"><ele>72.0</ele><time>2026-04-11T15:44:59.29Z</time></trkpt><trkpt lat="45.688803" lon="11.7306607"><ele>72.0</ele><time>2026-04-11T15:45:00.284Z</time></trkpt><trkpt lat="45.6886602" lon="11.7305344"><ele>71.66666666666667</ele><time>2026-04-11T15:45:01.289Z</time></trkpt><trkpt lat="45.6884984" lon="11.7304554"><ele>71.33333333333334</ele><time>2026-04-11T15:45:02.289Z</time></trkpt><trkpt lat="45.6883174" lon="11.7304183"><ele>71.0</ele><time>2026-04-11T15:45:03.292Z</time></trkpt><trkpt lat="45.6881272" lon="11.7304121"><ele>71.0</ele><time>2026-04-11T15:45:04.29Z</time></trkpt><trkpt lat="45.6879312" lon="11.7304179"><ele>71.0</ele><time>2026-04-11T15:45:05.3Z</time></trkpt><trkpt lat="45.687728" lon="11.7304232"><ele>71.0</ele><time>2026-04-11T15:45:06.293Z</time></trkpt><trkpt lat="45.6875208" lon="11.7304275"><ele>71.0</ele><time>2026-04-11T15:45:07.289Z</time></trkpt><trkpt lat="45.687311" lon="11.7304328"><ele>71.0</ele><time>2026-04-11T15:45:08.284Z</time></trkpt><trkpt lat="45.6870999" lon="11.7304394"><ele>71.0</ele><time>2026-04-11T15:45:09.289Z</time></trkpt><trkpt lat="45.68689" lon="11.7304443"><ele>71.0</ele><time>2026-04-11T15:45:10.297Z</time></trkpt><trkpt lat="45.6866929" lon="11.7304494"><ele>71.0</ele><time>2026-04-11T15:45:11.295Z</time></trkpt><trkpt lat="45.686506" lon="11.7304532"><ele>71.0</ele><time>2026-04-11T15:45:12.298Z</time></trkpt><trkpt lat="45.6863287" lon="11.7304541"><ele>71.0</ele><time>2026-04-11T15:45:13.303Z</time></trkpt><trkpt lat="45.6861691" lon="11.7304553"><ele>71.0</ele><time>2026-04-11T15:45:14.294Z</time></trkpt><trkpt lat="45.6860373" lon="11.7304564"><ele>71.0</ele><time>2026-04-11T15:45:15.297Z</time></trkpt><trkpt lat="45.685935" lon="11.7304561"><ele>71.0</ele><time>2026-04-11T15:45:16.3Z</time></trkpt><trkpt lat="45.6858566" lon="11.7304539"><ele>71.0</ele><time>2026-04-11T15:45:17.291Z</time></trkpt><trkpt lat="45.685796" lon="11.7304277"><ele>71.0</ele><time>2026-04-11T15:45:18.298Z</time></trkpt><trkpt lat="45.685754" lon="11.7303561"><ele>71.0</ele><time>2026-04-11T15:45:19.301Z</time></trkpt><trkpt lat="45.6857147" lon="11.7302467"><ele>71.0</ele><time>2026-04-11T15:45:20.298Z</time></trkpt><trkpt lat="45.6856945" lon="11.7301063"><ele>71.0</ele><time>2026-04-11T15:45:21.298Z</time></trkpt><trkpt lat="45.6856775" lon="11.7299328"><ele>71.0</ele><time>2026-04-11T15:45:22.295Z</time></trkpt><trkpt lat="45.685658" lon="11.7297512"><ele>70.8</ele><time>2026-04-11T15:45:23.301Z</time></trkpt><trkpt lat="45.685636" lon="11.7295669"><ele>70.6</ele><time>2026-04-11T15:45:24.29Z</time></trkpt><trkpt lat="45.685615" lon="11.7294047"><ele>70.4</ele><time>2026-04-11T15:45:25.29Z</time></trkpt><trkpt lat="45.6855981" lon="11.7292593"><ele>70.2</ele><time>2026-04-11T15:45:26.296Z</time></trkpt><trkpt lat="45.6855761" lon="11.7291407"><ele>70.0</ele><time>2026-04-11T15:45:27.301Z</time></trkpt><trkpt lat="45.6855376" lon="11.7290556"><ele>70.0</ele><time>2026-04-11T15:45:28.294Z</time></trkpt><trkpt lat="45.6854669" lon="11.7290137"><ele>70.0</ele><time>2026-04-11T15:45:29.299Z</time></trkpt><trkpt lat="45.6853652" lon="11.728991"><ele>70.0</ele><time>2026-04-11T15:45:30.297Z</time></trkpt><trkpt lat="45.6852314" lon="11.7289756"><ele>70.0</ele><time>2026-04-11T15:45:31.298Z</time></trkpt><trkpt lat="45.685088" lon="11.7289567"><ele>70.33333333333333</ele><time>2026-04-11T15:45:32.291Z</time></trkpt><trkpt lat="45.6849126" lon="11.7289378"><ele>70.66666666666667</ele><time>2026-04-11T15:45:33.305Z</time></trkpt><trkpt lat="45.684736" lon="11.7289117"><ele>71.0</ele><time>2026-04-11T15:45:34.295Z</time></trkpt><trkpt lat="45.6845599" lon="11.7288908"><ele>70.66666666666667</ele><time>2026-04-11T15:45:35.296Z</time></trkpt><trkpt lat="45.6843859" lon="11.7288672"><ele>70.33333333333333</ele><time>2026-04-11T15:45:36.304Z</time></trkpt><trkpt lat="45.6842119" lon="11.728843"><ele>70.0</ele><time>2026-04-11T15:45:37.291Z</time></trkpt><trkpt lat="45.684048" lon="11.7288196"><ele>70.0</ele><time>2026-04-11T15:45:38.292Z</time></trkpt><trkpt lat="45.6838951" lon="11.7287979"><ele>70.0</ele><time>2026-04-11T15:45:39.296Z</time></trkpt><trkpt lat="45.6837472" lon="11.7287788"><ele>70.0</ele><time>2026-04-11T15:45:40.301Z</time></trkpt><trkpt lat="45.6836131" lon="11.7287571"><ele>70.0</ele><time>2026-04-11T15:45:41.284Z</time></trkpt><trkpt lat="45.6834863" lon="11.7287337"><ele>70.0</ele><time>2026-04-11T15:45:42.298Z</time></trkpt><trkpt lat="45.6833829" lon="11.728722"><ele>70.0</ele><time>2026-04-11T15:45:43.295Z</time></trkpt><trkpt lat="45.6832926" lon="11.7287048"><ele>70.0</ele><time>2026-04-11T15:45:44.293Z</time></trkpt><trkpt lat="45.6832192" lon="11.7286896"><ele>70.0</ele><time>2026-04-11T15:45:45.296Z</time></trkpt><trkpt lat="45.683133" lon="11.7286812"><ele>70.0</ele><time>2026-04-11T15:45:47.297Z</time></trkpt><trkpt lat="45.6830719" lon="11.7285257"><ele>70.0</ele><time>2026-04-11T15:45:54.335Z</time></trkpt><trkpt lat="45.6830551" lon="11.7284163"><ele>70.0</ele><time>2026-04-11T15:45:55.296Z</time></trkpt><trkpt lat="45.6830346" lon="11.7282667"><ele>70.0</ele><time>2026-04-11T15:45:56.298Z</time></trkpt><trkpt lat="45.6830075" lon="11.7280762"><ele>70.0</ele><time>2026-04-11T15:45:57.284Z</time></trkpt><trkpt lat="45.6829762" lon="11.7278605"><ele>70.0</ele><time>2026-04-11T15:45:58.294Z</time></trkpt><trkpt lat="45.6829434" lon="11.727627"><ele>70.0</ele><time>2026-04-11T15:45:59.306Z</time></trkpt><trkpt lat="45.6829117" lon="11.7273807"><ele>70.0</ele><time>2026-04-11T15:46:00.296Z</time></trkpt><trkpt lat="45.6828793" lon="11.7271265"><ele>69.66666666666666</ele><time>2026-04-11T15:46:01.294Z</time></trkpt><trkpt lat="45.6828462" lon="11.7268675"><ele>69.33333333333333</ele><time>2026-04-11T15:46:02.298Z</time></trkpt><trkpt lat="45.6828136" lon="11.7266091"><ele>69.0</ele><time>2026-04-11T15:46:03.28Z</time></trkpt><trkpt lat="45.6827843" lon="11.7263478"><ele>69.33333333333333</ele><time>2026-04-11T15:46:04.284Z</time></trkpt><trkpt lat="45.6827632" lon="11.7260858"><ele>69.66666666666666</ele><time>2026-04-11T15:46:05.302Z</time></trkpt><trkpt lat="45.6827528" lon="11.7258211"><ele>70.0</ele><time>2026-04-11T15:46:06.317Z</time></trkpt><trkpt lat="45.6827522" lon="11.7255551"><ele>70.0</ele><time>2026-04-11T15:46:07.295Z</time></trkpt><trkpt lat="45.6827631" lon="11.7252866"><ele>70.0</ele><time>2026-04-11T15:46:08.295Z</time></trkpt><trkpt lat="45.6827833" lon="11.725017"><ele>70.0</ele><time>2026-04-11T15:46:09.285Z</time></trkpt><trkpt lat="45.6828106" lon="11.7247471"><ele>70.0</ele><time>2026-04-11T15:46:10.297Z</time></trkpt><trkpt lat="45.6828423" lon="11.724476"><ele>70.0</ele><time>2026-04-11T15:46:11.289Z</time></trkpt><trkpt lat="45.6828757" lon="11.7242031"><ele>70.0</ele><time>2026-04-11T15:46:12.291Z</time></trkpt><trkpt lat="45.6829121" lon="11.7239211"><ele>69.66666666666666</ele><time>2026-04-11T15:46:13.295Z</time></trkpt><trkpt lat="45.6829518" lon="11.7236223"><ele>69.33333333333333</ele><time>2026-04-11T15:46:14.287Z</time></trkpt><trkpt lat="45.6829934" lon="11.7233167"><ele>69.0</ele><time>2026-04-11T15:46:15.288Z</time></trkpt><trkpt lat="45.683036" lon="11.7230004"><ele>69.33333333333333</ele><time>2026-04-11T15:46:16.289Z</time></trkpt><trkpt lat="45.6830774" lon="11.7226936"><ele>69.66666666666666</ele><time>2026-04-11T15:46:17.295Z</time></trkpt><trkpt lat="45.6831162" lon="11.7224088"><ele>70.0</ele><time>2026-04-11T15:46:18.295Z</time></trkpt><trkpt lat="45.6831552" lon="11.7221359"><ele>69.33333333333333</ele><time>2026-04-11T15:46:19.294Z</time></trkpt><trkpt lat="45.6831931" lon="11.7218688"><ele>68.66666666666667</ele><time>2026-04-11T15:46:20.293Z</time></trkpt><trkpt lat="45.6832295" lon="11.7216011"><ele>68.0</ele><time>2026-04-11T15:46:21.295Z</time></trkpt><trkpt lat="45.6832636" lon="11.7213158"><ele>67.66666666666667</ele><time>2026-04-11T15:46:22.296Z</time></trkpt><trkpt lat="45.683297" lon="11.7210149"><ele>67.33333333333333</ele><time>2026-04-11T15:46:23.294Z</time></trkpt><trkpt lat="45.6833338" lon="11.720706"><ele>67.0</ele><time>2026-04-11T15:46:24.29Z</time></trkpt><trkpt lat="45.6833798" lon="11.7203935"><ele>67.0</ele><time>2026-04-11T15:46:25.293Z</time></trkpt><trkpt lat="45.6834318" lon="11.7200784"><ele>67.0</ele><time>2026-04-11T15:46:26.296Z</time></trkpt><trkpt lat="45.6834835" lon="11.7197632"><ele>67.0</ele><time>2026-04-11T15:46:27.294Z</time></trkpt><trkpt lat="45.6835317" lon="11.7194489"><ele>67.0</ele><time>2026-04-11T15:46:28.298Z</time></trkpt><trkpt lat="45.6835776" lon="11.7191365"><ele>67.0</ele><time>2026-04-11T15:46:29.301Z</time></trkpt><trkpt lat="45.6836221" lon="11.7188251"><ele>67.33333333333333</ele><time>2026-04-11T15:46:30.294Z</time></trkpt><trkpt lat="45.6836653" lon="11.7185164"><ele>67.66666666666667</ele><time>2026-04-11T15:46:31.297Z</time></trkpt><trkpt lat="45.6837086" lon="11.7182103"><ele>68.0</ele><time>2026-04-11T15:46:32.293Z</time></trkpt><trkpt lat="45.68375" lon="11.7179094"><ele>68.33333333333334</ele><time>2026-04-11T15:46:33.3Z</time></trkpt><trkpt lat="45.6837867" lon="11.7176083"><ele>68.66666666666667</ele><time>2026-04-11T15:46:34.292Z</time></trkpt><trkpt lat="45.6838134" lon="11.7173062"><ele>69.0</ele><time>2026-04-11T15:46:35.289Z</time></trkpt><trkpt lat="45.6838256" lon="11.7170024"><ele>68.66666666666667</ele><time>2026-04-11T15:46:36.292Z</time></trkpt><trkpt lat="45.6838234" lon="11.7166977"><ele>68.33333333333334</ele><time>2026-04-11T15:46:37.293Z</time></trkpt><trkpt lat="45.6838053" lon="11.7163941"><ele>68.0</ele><time>2026-04-11T15:46:38.295Z</time></trkpt><trkpt lat="45.6837709" lon="11.7160914"><ele>68.33333333333334</ele><time>2026-04-11T15:46:39.302Z</time></trkpt><trkpt lat="45.6837253" lon="11.7157911"><ele>68.66666666666667</ele><time>2026-04-11T15:46:40.294Z</time></trkpt><trkpt lat="45.6836773" lon="11.7155052"><ele>69.0</ele><time>2026-04-11T15:46:41.301Z</time></trkpt><trkpt lat="45.6836308" lon="11.7152316"><ele>69.0</ele><time>2026-04-11T15:46:42.31Z</time></trkpt><trkpt lat="45.6835847" lon="11.7149631"><ele>69.0</ele><time>2026-04-11T15:46:43.293Z</time></trkpt><trkpt lat="45.6835397" lon="11.7147031"><ele>69.0</ele><time>2026-04-11T15:46:44.297Z</time></trkpt><trkpt lat="45.6834967" lon="11.7144603"><ele>69.33333333333333</ele><time>2026-04-11T15:46:45.29Z</time></trkpt><trkpt lat="45.683456" lon="11.7142292"><ele>69.66666666666666</ele><time>2026-04-11T15:46:46.284Z</time></trkpt><trkpt lat="45.6834172" lon="11.7140076"><ele>70.0</ele><time>2026-04-11T15:46:47.291Z</time></trkpt><trkpt lat="45.6833792" lon="11.7137974"><ele>70.0</ele><time>2026-04-11T15:46:48.294Z</time></trkpt><trkpt lat="45.6833407" lon="11.7135884"><ele>70.0</ele><time>2026-04-11T15:46:49.291Z</time></trkpt><trkpt lat="45.6833031" lon="11.713379"><ele>70.0</ele><time>2026-04-11T15:46:50.29Z</time></trkpt><trkpt lat="45.6832653" lon="11.7131701"><ele>69.66666666666666</ele><time>2026-04-11T15:46:51.291Z</time></trkpt><trkpt lat="45.6832271" lon="11.7129577"><ele>69.33333333333333</ele><time>2026-04-11T15:46:52.291Z</time></trkpt><trkpt lat="45.6831873" lon="11.7127393"><ele>69.0</ele><time>2026-04-11T15:46:53.29Z</time></trkpt><trkpt lat="45.6831458" lon="11.7125217"><ele>69.0</ele><time>2026-04-11T15:46:54.292Z</time></trkpt><trkpt lat="45.6831029" lon="11.7123085"><ele>69.0</ele><time>2026-04-11T15:46:55.294Z</time></trkpt><trkpt lat="45.683059" lon="11.7120984"><ele>69.0</ele><time>2026-04-11T15:46:56.287Z</time></trkpt><trkpt lat="45.6830135" lon="11.7118916"><ele>69.0</ele><time>2026-04-11T15:46:57.285Z</time></trkpt><trkpt lat="45.6829643" lon="11.7116869"><ele>69.0</ele><time>2026-04-11T15:46:58.285Z</time></trkpt><trkpt lat="45.6829116" lon="11.7114841"><ele>69.0</ele><time>2026-04-11T15:46:59.293Z</time></trkpt><trkpt lat="45.6828583" lon="11.711288"><ele>69.0</ele><time>2026-04-11T15:47:00.289Z</time></trkpt><trkpt lat="45.6828052" lon="11.7110971"><ele>69.0</ele><time>2026-04-11T15:47:01.289Z</time></trkpt><trkpt lat="45.6827534" lon="11.7109079"><ele>69.0</ele><time>2026-04-11T15:47:02.294Z</time></trkpt><trkpt lat="45.6827028" lon="11.7107211"><ele>69.0</ele><time>2026-04-11T15:47:03.291Z</time></trkpt><trkpt lat="45.6826537" lon="11.7105358"><ele>69.0</ele><time>2026-04-11T15:47:04.295Z</time></trkpt><trkpt lat="45.6826055" lon="11.7103515"><ele>68.75</ele><time>2026-04-11T15:47:05.294Z</time></trkpt><trkpt lat="45.6825573" lon="11.7101824"><ele>68.5</ele><time>2026-04-11T15:47:06.289Z</time></trkpt><trkpt lat="45.6825078" lon="11.7100046"><ele>68.25</ele><time>2026-04-11T15:47:07.294Z</time></trkpt><trkpt lat="45.6824579" lon="11.7098246"><ele>68.0</ele><time>2026-04-11T15:47:08.291Z</time></trkpt><trkpt lat="45.6824097" lon="11.7096327"><ele>68.0</ele><time>2026-04-11T15:47:09.289Z</time></trkpt><trkpt lat="45.6823608" lon="11.7094415"><ele>68.0</ele><time>2026-04-11T15:47:10.298Z</time></trkpt><trkpt lat="45.68231" lon="11.7092452"><ele>68.0</ele><time>2026-04-11T15:47:11.291Z</time></trkpt><trkpt lat="45.6822624" lon="11.7090469"><ele>68.0</ele><time>2026-04-11T15:47:12.3Z</time></trkpt><trkpt lat="45.6822144" lon="11.7088525"><ele>68.0</ele><time>2026-04-11T15:47:13.293Z</time></trkpt><trkpt lat="45.6821686" lon="11.708661"><ele>68.0</ele><time>2026-04-11T15:47:14.287Z</time></trkpt><trkpt lat="45.6821264" lon="11.7084766"><ele>68.0</ele><time>2026-04-11T15:47:15.288Z</time></trkpt><trkpt lat="45.682088" lon="11.708307"><ele>68.0</ele><time>2026-04-11T15:47:16.284Z</time></trkpt><trkpt lat="45.6820559" lon="11.7081415"><ele>68.0</ele><time>2026-04-11T15:47:17.291Z</time></trkpt><trkpt lat="45.6820272" lon="11.7079745"><ele>68.0</ele><time>2026-04-11T15:47:18.291Z</time></trkpt><trkpt lat="45.6820106" lon="11.7078066"><ele>68.0</ele><time>2026-04-11T15:47:19.296Z</time></trkpt><trkpt lat="45.6820054" lon="11.707639"><ele>68.0</ele><time>2026-04-11T15:47:20.296Z</time></trkpt><trkpt lat="45.6820121" lon="11.7074735"><ele>68.0</ele><time>2026-04-11T15:47:21.284Z</time></trkpt><trkpt lat="45.6820286" lon="11.7073083"><ele>68.0</ele><time>2026-04-11T15:47:22.291Z</time></trkpt><trkpt lat="45.6820514" lon="11.7071531"><ele>68.0</ele><time>2026-04-11T15:47:23.295Z</time></trkpt><trkpt lat="45.6820755" lon="11.7070166"><ele>68.0</ele><time>2026-04-11T15:47:24.29Z</time></trkpt><trkpt lat="45.6821054" lon="11.7068981"><ele>68.0</ele><time>2026-04-11T15:47:25.287Z</time></trkpt><trkpt lat="45.6821299" lon="11.7068058"><ele>68.25</ele><time>2026-04-11T15:47:26.288Z</time></trkpt><trkpt lat="45.6821337" lon="11.7066681"><ele>68.5</ele><time>2026-04-11T15:47:28.297Z</time></trkpt><trkpt lat="45.6819856" lon="11.7066161"><ele>68.75</ele><time>2026-04-11T15:47:30.282Z</time></trkpt><trkpt lat="45.6818767" lon="11.7066067"><ele>69.0</ele><time>2026-04-11T15:47:31.293Z</time></trkpt><trkpt lat="45.6817396" lon="11.7065804"><ele>68.33333333333333</ele><time>2026-04-11T15:47:32.301Z</time></trkpt><trkpt lat="45.6815954" lon="11.7065571"><ele>67.66666666666666</ele><time>2026-04-11T15:47:33.291Z</time></trkpt><trkpt lat="45.6814332" lon="11.706528"><ele>67.0</ele><time>2026-04-11T15:47:34.298Z</time></trkpt><trkpt lat="45.6812605" lon="11.7065009"><ele>66.33333333333333</ele><time>2026-04-11T15:47:35.296Z</time></trkpt><trkpt lat="45.6810778" lon="11.7064991"><ele>65.66666666666667</ele><time>2026-04-11T15:47:36.29Z</time></trkpt><trkpt lat="45.6808771" lon="11.7065367"><ele>65.0</ele><time>2026-04-11T15:47:37.285Z</time></trkpt><trkpt lat="45.680661" lon="11.706592"><ele>65.0</ele><time>2026-04-11T15:47:38.29Z</time></trkpt><trkpt lat="45.680448" lon="11.706701"><ele>65.0</ele><time>2026-04-11T15:47:39.29Z</time></trkpt><trkpt lat="45.6802371" lon="11.7068138"><ele>65.5</ele><time>2026-04-11T15:47:40.298Z</time></trkpt><trkpt lat="45.6800268" lon="11.7069295"><ele>66.0</ele><time>2026-04-11T15:47:41.281Z</time></trkpt><trkpt lat="45.6798119" lon="11.7070468"><ele>66.0</ele><time>2026-04-11T15:47:42.289Z</time></trkpt><trkpt lat="45.6796007" lon="11.7071625"><ele>66.0</ele><time>2026-04-11T15:47:43.292Z</time></trkpt><trkpt lat="45.679388" lon="11.707278"><ele>66.0</ele><time>2026-04-11T15:47:44.288Z</time></trkpt><trkpt lat="45.6791675" lon="11.7073936"><ele>66.0</ele><time>2026-04-11T15:47:45.296Z</time></trkpt><trkpt lat="45.6789448" lon="11.7075174"><ele>66.0</ele><time>2026-04-11T15:47:46.287Z</time></trkpt><trkpt lat="45.678714" lon="11.7076529"><ele>66.0</ele><time>2026-04-11T15:47:47.291Z</time></trkpt><trkpt lat="45.6784727" lon="11.7077985"><ele>65.5</ele><time>2026-04-11T15:47:48.292Z</time></trkpt><trkpt lat="45.6782185" lon="11.707934"><ele>65.0</ele><time>2026-04-11T15:47:49.287Z</time></trkpt><trkpt lat="45.6779639" lon="11.7080572"><ele>65.0</ele><time>2026-04-11T15:47:50.293Z</time></trkpt><trkpt lat="45.6777131" lon="11.7081796"><ele>65.0</ele><time>2026-04-11T15:47:51.293Z</time></trkpt><trkpt lat="45.6774651" lon="11.7083005"><ele>65.0</ele><time>2026-04-11T15:47:52.293Z</time></trkpt><trkpt lat="45.6772188" lon="11.7084159"><ele>65.0</ele><time>2026-04-11T15:47:53.284Z</time></trkpt><trkpt lat="45.6769722" lon="11.7085305"><ele>65.0</ele><time>2026-04-11T15:47:54.287Z</time></trkpt><trkpt lat="45.6767275" lon="11.7086459"><ele>65.0</ele><time>2026-04-11T15:47:55.287Z</time></trkpt><trkpt lat="45.6764833" lon="11.7087578"><ele>65.0</ele><time>2026-04-11T15:47:56.299Z</time></trkpt><trkpt lat="45.6762399" lon="11.7088655"><ele>65.0</ele><time>2026-04-11T15:47:57.282Z</time></trkpt><trkpt lat="45.6759943" lon="11.7089687"><ele>64.0</ele><time>2026-04-11T15:47:58.281Z</time></trkpt><trkpt lat="45.6757465" lon="11.7090662"><ele>63.0</ele><time>2026-04-11T15:47:59.293Z</time></trkpt><trkpt lat="45.6754984" lon="11.7091536"><ele>63.0</ele><time>2026-04-11T15:48:00.292Z</time></trkpt><trkpt lat="45.6752493" lon="11.7092386"><ele>63.0</ele><time>2026-04-11T15:48:01.288Z</time></trkpt><trkpt lat="45.6750003" lon="11.7093242"><ele>63.0</ele><time>2026-04-11T15:48:02.283Z</time></trkpt><trkpt lat="45.6747505" lon="11.7094101"><ele>63.0</ele><time>2026-04-11T15:48:03.289Z</time></trkpt><trkpt lat="45.6745018" lon="11.7094957"><ele>64.0</ele><time>2026-04-11T15:48:04.287Z</time></trkpt><trkpt lat="45.6742522" lon="11.7095799"><ele>65.0</ele><time>2026-04-11T15:48:05.286Z</time></trkpt><trkpt lat="45.6740005" lon="11.7096635"><ele>65.0</ele><time>2026-04-11T15:48:06.292Z</time></trkpt><trkpt lat="45.6737487" lon="11.7097441"><ele>65.0</ele><time>2026-04-11T15:48:07.287Z</time></trkpt><trkpt lat="45.6734959" lon="11.7098251"><ele>64.5</ele><time>2026-04-11T15:48:08.28Z</time></trkpt><trkpt lat="45.6732409" lon="11.7099051"><ele>64.0</ele><time>2026-04-11T15:48:09.292Z</time></trkpt><trkpt lat="45.6729876" lon="11.7099814"><ele>62.5</ele><time>2026-04-11T15:48:10.289Z</time></trkpt><trkpt lat="45.6727345" lon="11.7100532"><ele>61.0</ele><time>2026-04-11T15:48:11.279Z</time></trkpt><trkpt lat="45.6724815" lon="11.7101267"><ele>61.0</ele><time>2026-04-11T15:48:12.282Z</time></trkpt><trkpt lat="45.6722307" lon="11.7102016"><ele>61.0</ele><time>2026-04-11T15:48:13.286Z</time></trkpt><trkpt lat="45.6719816" lon="11.7102863"><ele>61.0</ele><time>2026-04-11T15:48:14.286Z</time></trkpt><trkpt lat="45.6717277" lon="11.7103882"><ele>61.0</ele><time>2026-04-11T15:48:15.284Z</time></trkpt><trkpt lat="45.6714699" lon="11.7105094"><ele>61.0</ele><time>2026-04-11T15:48:16.28Z</time></trkpt><trkpt lat="45.6712142" lon="11.7106409"><ele>61.0</ele><time>2026-04-11T15:48:17.292Z</time></trkpt><trkpt lat="45.6709667" lon="11.71077"><ele>60.5</ele><time>2026-04-11T15:48:18.292Z</time></trkpt><trkpt lat="45.670722" lon="11.710891"><ele>60.0</ele><time>2026-04-11T15:48:19.289Z</time></trkpt><trkpt lat="45.6704757" lon="11.7110006"><ele>59.5</ele><time>2026-04-11T15:48:20.285Z</time></trkpt><trkpt lat="45.6702206" lon="11.7110953"><ele>59.0</ele><time>2026-04-11T15:48:21.295Z</time></trkpt><trkpt lat="45.6699582" lon="11.7111764"><ele>59.0</ele><time>2026-04-11T15:48:22.291Z</time></trkpt><trkpt lat="45.6696864" lon="11.711251"><ele>59.0</ele><time>2026-04-11T15:48:23.296Z</time></trkpt><trkpt lat="45.6694064" lon="11.7113251"><ele>59.0</ele><time>2026-04-11T15:48:24.283Z</time></trkpt><trkpt lat="45.6691141" lon="11.7114012"><ele>59.0</ele><time>2026-04-11T15:48:25.285Z</time></trkpt><trkpt lat="45.6688188" lon="11.7114828"><ele>59.5</ele><time>2026-04-11T15:48:26.288Z</time></trkpt><trkpt lat="45.6685345" lon="11.7115747"><ele>60.0</ele><time>2026-04-11T15:48:27.284Z</time></trkpt><trkpt lat="45.6682613" lon="11.7116825"><ele>60.0</ele><time>2026-04-11T15:48:28.286Z</time></trkpt><trkpt lat="45.6680007" lon="11.7118"><ele>60.0</ele><time>2026-04-11T15:48:29.297Z</time></trkpt><trkpt lat="45.6677613" lon="11.7119156"><ele>60.0</ele><time>2026-04-11T15:48:30.288Z</time></trkpt><trkpt lat="45.6675371" lon="11.7120245"><ele>60.0</ele><time>2026-04-11T15:48:31.292Z</time></trkpt><trkpt lat="45.667327" lon="11.7121239"><ele>60.0</ele><time>2026-04-11T15:48:32.302Z</time></trkpt><trkpt lat="45.667132" lon="11.7122159"><ele>60.0</ele><time>2026-04-11T15:48:33.29Z</time></trkpt><trkpt lat="45.6669456" lon="11.7123031"><ele>60.0</ele><time>2026-04-11T15:48:34.288Z</time></trkpt><trkpt lat="45.6667636" lon="11.7123866"><ele>59.0</ele><time>2026-04-11T15:48:35.297Z</time></trkpt><trkpt lat="45.6665857" lon="11.712464"><ele>58.0</ele><time>2026-04-11T15:48:36.289Z</time></trkpt><trkpt lat="45.6664114" lon="11.7125377"><ele>57.0</ele><time>2026-04-11T15:48:37.296Z</time></trkpt><trkpt lat="45.6662474" lon="11.7126007"><ele>58.33333333333333</ele><time>2026-04-11T15:48:38.285Z</time></trkpt><trkpt lat="45.6660916" lon="11.7126527"><ele>59.666666666666664</ele><time>2026-04-11T15:48:39.297Z</time></trkpt><trkpt lat="45.6659429" lon="11.7126985"><ele>61.0</ele><time>2026-04-11T15:48:40.287Z</time></trkpt><trkpt lat="45.6657954" lon="11.7127434"><ele>61.0</ele><time>2026-04-11T15:48:41.297Z</time></trkpt><trkpt lat="45.6656547" lon="11.7127854"><ele>61.0</ele><time>2026-04-11T15:48:42.289Z</time></trkpt><trkpt lat="45.6655156" lon="11.7128345"><ele>61.0</ele><time>2026-04-11T15:48:43.29Z</time></trkpt><trkpt lat="45.6653796" lon="11.7128899"><ele>61.0</ele><time>2026-04-11T15:48:44.292Z</time></trkpt><trkpt lat="45.6652426" lon="11.7129481"><ele>60.5</ele><time>2026-04-11T15:48:45.292Z</time></trkpt><trkpt lat="45.6651081" lon="11.7130087"><ele>60.0</ele><time>2026-04-11T15:48:46.289Z</time></trkpt><trkpt lat="45.6649816" lon="11.7130665"><ele>59.5</ele><time>2026-04-11T15:48:47.295Z</time></trkpt><trkpt lat="45.6648629" lon="11.7131243"><ele>59.0</ele><time>2026-04-11T15:48:48.288Z</time></trkpt><trkpt lat="45.6647464" lon="11.7131956"><ele>59.0</ele><time>2026-04-11T15:48:49.294Z</time></trkpt><trkpt lat="45.6646393" lon="11.7132881"><ele>59.0</ele><time>2026-04-11T15:48:50.291Z</time></trkpt><trkpt lat="45.6645454" lon="11.713407"><ele>59.0</ele><time>2026-04-11T15:48:51.291Z</time></trkpt><trkpt lat="45.6644636" lon="11.7135477"><ele>59.0</ele><time>2026-04-11T15:48:52.289Z</time></trkpt><trkpt lat="45.66439" lon="11.7137014"><ele>58.75</ele><time>2026-04-11T15:48:53.288Z</time></trkpt><trkpt lat="45.6643257" lon="11.7138635"><ele>58.5</ele><time>2026-04-11T15:48:54.289Z</time></trkpt><trkpt lat="45.6642765" lon="11.714025"><ele>58.25</ele><time>2026-04-11T15:48:55.286Z</time></trkpt><trkpt lat="45.6642408" lon="11.7141835"><ele>58.0</ele><time>2026-04-11T15:48:56.295Z</time></trkpt><trkpt lat="45.6642177" lon="11.7143457"><ele>58.0</ele><time>2026-04-11T15:48:57.286Z</time></trkpt><trkpt lat="45.6642078" lon="11.7145156"><ele>58.0</ele><time>2026-04-11T15:48:58.296Z</time></trkpt><trkpt lat="45.6642146" lon="11.7146886"><ele>58.0</ele><time>2026-04-11T15:48:59.292Z</time></trkpt><trkpt lat="45.6642369" lon="11.7148635"><ele>58.0</ele><time>2026-04-11T15:49:00.3Z</time></trkpt><trkpt lat="45.6642689" lon="11.7150358"><ele>58.0</ele><time>2026-04-11T15:49:01.285Z</time></trkpt><trkpt lat="45.664309" lon="11.7152071"><ele>58.0</ele><time>2026-04-11T15:49:02.293Z</time></trkpt><trkpt lat="45.6643538" lon="11.7153739"><ele>58.0</ele><time>2026-04-11T15:49:03.293Z</time></trkpt><trkpt lat="45.6643989" lon="11.7155407"><ele>58.0</ele><time>2026-04-11T15:49:04.284Z</time></trkpt><trkpt lat="45.6644438" lon="11.7157111"><ele>58.25</ele><time>2026-04-11T15:49:05.298Z</time></trkpt><trkpt lat="45.6644882" lon="11.7158811"><ele>58.5</ele><time>2026-04-11T15:49:06.289Z</time></trkpt><trkpt lat="45.6645331" lon="11.7160532"><ele>58.75</ele><time>2026-04-11T15:49:07.284Z</time></trkpt><trkpt lat="45.6645785" lon="11.7162259"><ele>59.0</ele><time>2026-04-11T15:49:08.291Z</time></trkpt><trkpt lat="45.6646231" lon="11.7163974"><ele>59.5</ele><time>2026-04-11T15:49:09.293Z</time></trkpt><trkpt lat="45.6646674" lon="11.7165693"><ele>60.0</ele><time>2026-04-11T15:49:10.298Z</time></trkpt><trkpt lat="45.664711" lon="11.716742"><ele>60.5</ele><time>2026-04-11T15:49:11.296Z</time></trkpt><trkpt lat="45.664755" lon="11.7169159"><ele>61.0</ele><time>2026-04-11T15:49:12.296Z</time></trkpt><trkpt lat="45.6648005" lon="11.7170882"><ele>61.25</ele><time>2026-04-11T15:49:13.293Z</time></trkpt><trkpt lat="45.6648455" lon="11.7172594"><ele>61.5</ele><time>2026-04-11T15:49:14.283Z</time></trkpt><trkpt lat="45.6648906" lon="11.717432"><ele>61.75</ele><time>2026-04-11T15:49:15.294Z</time></trkpt><trkpt lat="45.6649342" lon="11.7176045"><ele>62.0</ele><time>2026-04-11T15:49:16.306Z</time></trkpt><trkpt lat="45.6649794" lon="11.7177775"><ele>61.5</ele><time>2026-04-11T15:49:17.314Z</time></trkpt><trkpt lat="45.665025" lon="11.7179514"><ele>61.0</ele><time>2026-04-11T15:49:18.291Z</time></trkpt><trkpt lat="45.6650706" lon="11.7181267"><ele>60.5</ele><time>2026-04-11T15:49:19.301Z</time></trkpt><trkpt lat="45.6651152" lon="11.7183009"><ele>60.0</ele><time>2026-04-11T15:49:20.288Z</time></trkpt><trkpt lat="45.6651548" lon="11.7184731"><ele>59.6</ele><time>2026-04-11T15:49:21.297Z</time></trkpt><trkpt lat="45.6651809" lon="11.7186455"><ele>59.2</ele><time>2026-04-11T15:49:22.29Z</time></trkpt><trkpt lat="45.6651829" lon="11.7188066"><ele>58.8</ele><time>2026-04-11T15:49:23.291Z</time></trkpt><trkpt lat="45.6651801" lon="11.7189483"><ele>58.4</ele><time>2026-04-11T15:49:24.282Z</time></trkpt><trkpt lat="45.6651586" lon="11.7190635"><ele>58.0</ele><time>2026-04-11T15:49:25.289Z</time></trkpt><trkpt lat="45.6651719" lon="11.7191587"><ele>57.99999999999999</ele><time>2026-04-11T15:49:26.285Z</time></trkpt><trkpt lat="45.6652784" lon="11.719267"><ele>58.0</ele><time>2026-04-11T15:49:28.303Z</time></trkpt><trkpt lat="45.665351" lon="11.7192717"><ele>58.0</ele><time>2026-04-11T15:49:29.289Z</time></trkpt><trkpt lat="45.6654144" lon="11.719254"><ele>58.0</ele><time>2026-04-11T15:49:30.296Z</time></trkpt><trkpt lat="45.6654773" lon="11.7192233"><ele>57.99999999999999</ele><time>2026-04-11T15:49:31.293Z</time></trkpt><trkpt lat="45.6655497" lon="11.7191882"><ele>58.0</ele><time>2026-04-11T15:49:32.288Z</time></trkpt><trkpt lat="45.6656408" lon="11.7191504"><ele>58.25</ele><time>2026-04-11T15:49:33.293Z</time></trkpt><trkpt lat="45.6657452" lon="11.7191155"><ele>58.5</ele><time>2026-04-11T15:49:34.296Z</time></trkpt><trkpt lat="45.6658623" lon="11.7190746"><ele>58.75</ele><time>2026-04-11T15:49:35.296Z</time></trkpt><trkpt lat="45.6659936" lon="11.7190278"><ele>59.0</ele><time>2026-04-11T15:49:36.295Z</time></trkpt><trkpt lat="45.6661458" lon="11.7189765"><ele>59.333333333333336</ele><time>2026-04-11T15:49:37.288Z</time></trkpt><trkpt lat="45.6663077" lon="11.7189185"><ele>59.66666666666667</ele><time>2026-04-11T15:49:38.291Z</time></trkpt><trkpt lat="45.6664712" lon="11.7188563"><ele>60.0</ele><time>2026-04-11T15:49:39.29Z</time></trkpt><trkpt lat="45.6666265" lon="11.7187976"><ele>60.0</ele><time>2026-04-11T15:49:40.293Z</time></trkpt><trkpt lat="45.6667693" lon="11.7187438"><ele>60.0</ele><time>2026-04-11T15:49:41.294Z</time></trkpt><trkpt lat="45.6668891" lon="11.7187008"><ele>60.0</ele><time>2026-04-11T15:49:42.29Z</time></trkpt><trkpt lat="45.6669883" lon="11.718671"><ele>60.0</ele><time>2026-04-11T15:49:43.293Z</time></trkpt><trkpt lat="45.667071" lon="11.7186674"><ele>60.4</ele><time>2026-04-11T15:49:44.299Z</time></trkpt><trkpt lat="45.6671391" lon="11.7187047"><ele>60.8</ele><time>2026-04-11T15:49:45.292Z</time></trkpt><trkpt lat="45.6671912" lon="11.7187909"><ele>61.2</ele><time>2026-04-11T15:49:46.301Z</time></trkpt><trkpt lat="45.6672262" lon="11.7189215"><ele>61.6</ele><time>2026-04-11T15:49:47.291Z</time></trkpt><trkpt lat="45.6672543" lon="11.7190771"><ele>62.0</ele><time>2026-04-11T15:49:48.292Z</time></trkpt><trkpt lat="45.6672847" lon="11.7192503"><ele>61.6</ele><time>2026-04-11T15:49:49.294Z</time></trkpt><trkpt lat="45.6673155" lon="11.7194172"><ele>61.2</ele><time>2026-04-11T15:49:50.298Z</time></trkpt><trkpt lat="45.6673432" lon="11.7195673"><ele>60.8</ele><time>2026-04-11T15:49:51.303Z</time></trkpt><trkpt lat="45.6673729" lon="11.7196863"><ele>60.4</ele><time>2026-04-11T15:49:52.289Z</time></trkpt><trkpt lat="45.6674024" lon="11.7197738"><ele>60.0</ele><time>2026-04-11T15:49:53.291Z</time></trkpt><trkpt lat="45.6674401" lon="11.7198691"><ele>60.0</ele><time>2026-04-11T15:49:55.293Z</time></trkpt><trkpt lat="45.6675299" lon="11.7199398"><ele>60.0</ele><time>2026-04-11T15:50:32.286Z</time></trkpt><trkpt lat="45.6675944" lon="11.7198837"><ele>60.0</ele><time>2026-04-11T15:50:35.297Z</time></trkpt></trkseg></trk></gpx>